<?xml version='1.0' encoding='UTF-8'?><gpx version="1.1" creator="JPX - https://github.com/jenetics/jpx" xmlns="http://www.topografix.com/GPX/1/1"><trk><trkseg><trkpt lat="42.1605195" lon="-7.9749602"><ele>682.25</ele><time>2026-04-18T08:48:05.722Z</time></trkpt><trkpt lat="42.1605939" lon="-7.975191"><ele>682.5</ele><time>2026-04-18T08:48:14.802Z</time></trkpt><trkpt lat="42.1606098" lon="-7.9753374"><ele>682.75</ele><time>2026-04-18T08:48:15.801Z</time></trkpt><trkpt lat="42.160624" lon="-7.9755251"><ele>683.0</ele><time>2026-04-18T08:48:22.783Z</time></trkpt><trkpt lat="42.1606665" lon="-7.9756024"><ele>683.0</ele><time>2026-04-18T08:50:06.786Z</time></trkpt><trkpt lat="42.1606136" lon="-7.9756569"><ele>683.0</ele><time>2026-04-18T08:50:13.857Z</time></trkpt><trkpt lat="42.1606012" lon="-7.9755683"><ele>683.0</ele><time>2026-04-18T08:50:18.846Z</time></trkpt><trkpt lat="42.160665" lon="-7.9755533"><ele>683.0</ele><time>2026-04-18T08:52:27.785Z</time></trkpt><trkpt lat="42.160735" lon="-7.97553"><ele>683.0</ele><time>2026-04-18T08:52:30.785Z</time></trkpt><trkpt lat="42.1607033" lon="-7.9756233"><ele>683.0</ele><time>2026-04-18T08:52:39.785Z</time></trkpt><trkpt lat="42.1606283" lon="-7.9756967"><ele>683.0</ele><time>2026-04-18T08:52:42.785Z</time></trkpt><trkpt lat="42.16055" lon="-7.975755"><ele>683.0</ele><time>2026-04-18T08:52:45.784Z</time></trkpt><trkpt lat="42.1604633" lon="-7.975805"><ele>683.0</ele><time>2026-04-18T08:52:48.785Z</time></trkpt><trkpt lat="42.1603967" lon="-7.9758733"><ele>683.0</ele><time>2026-04-18T08:52:50.785Z</time></trkpt><trkpt lat="42.1603517" lon="-7.975995"><ele>683.0</ele><time>2026-04-18T08:52:52.785Z</time></trkpt><trkpt lat="42.1603067" lon="-7.97613"><ele>683.0</ele><time>2026-04-18T08:52:54.784Z</time></trkpt><trkpt lat="42.1602767" lon="-7.9762783"><ele>683.8</ele><time>2026-04-18T08:52:56.786Z</time></trkpt><trkpt lat="42.1602633" lon="-7.9763617"><ele>684.5999999999999</ele><time>2026-04-18T08:52:57.786Z</time></trkpt><trkpt lat="42.16021" lon="-7.9764933"><ele>685.4000000000001</ele><time>2026-04-18T08:52:59.785Z</time></trkpt><trkpt lat="42.1601417" lon="-7.9766"><ele>686.2</ele><time>2026-04-18T08:53:01.785Z</time></trkpt><trkpt lat="42.1600583" lon="-7.9767"><ele>687.0</ele><time>2026-04-18T08:53:03.785Z</time></trkpt><trkpt lat="42.159975" lon="-7.97678"><ele>687.2</ele><time>2026-04-18T08:53:05.785Z</time></trkpt><trkpt lat="42.1598717" lon="-7.97689"><ele>687.4000000000001</ele><time>2026-04-18T08:53:07.786Z</time></trkpt><trkpt lat="42.1598117" lon="-7.97696"><ele>687.5999999999999</ele><time>2026-04-18T08:53:08.787Z</time></trkpt><trkpt lat="42.159745" lon="-7.9770367"><ele>687.8</ele><time>2026-04-18T08:53:09.785Z</time></trkpt><trkpt lat="42.1596817" lon="-7.977115"><ele>688.0</ele><time>2026-04-18T08:53:10.785Z</time></trkpt><trkpt lat="42.15963" lon="-7.9772067"><ele>688.0</ele><time>2026-04-18T08:53:11.784Z</time></trkpt><trkpt lat="42.1595817" lon="-7.9773083"><ele>688.0</ele><time>2026-04-18T08:53:12.786Z</time></trkpt><trkpt lat="42.1595367" lon="-7.9774133"><ele>688.0</ele><time>2026-04-18T08:53:13.785Z</time></trkpt><trkpt lat="42.159495" lon="-7.9775183"><ele>688.0</ele><time>2026-04-18T08:53:14.785Z</time></trkpt><trkpt lat="42.1594533" lon="-7.97763"><ele>688.0</ele><time>2026-04-18T08:53:15.785Z</time></trkpt><trkpt lat="42.1594067" lon="-7.9777267"><ele>688.0</ele><time>2026-04-18T08:53:16.784Z</time></trkpt><trkpt lat="42.1593517" lon="-7.97782"><ele>689.4</ele><time>2026-04-18T08:53:17.786Z</time></trkpt><trkpt lat="42.1593067" lon="-7.9779217"><ele>690.8</ele><time>2026-04-18T08:53:18.785Z</time></trkpt><trkpt lat="42.15926" lon="-7.9780233"><ele>692.2</ele><time>2026-04-18T08:53:19.785Z</time></trkpt><trkpt lat="42.1592117" lon="-7.9781233"><ele>693.6</ele><time>2026-04-18T08:53:20.785Z</time></trkpt><trkpt lat="42.159155" lon="-7.9782317"><ele>695.0</ele><time>2026-04-18T08:53:21.786Z</time></trkpt><trkpt lat="42.1590883" lon="-7.9783417"><ele>698.0</ele><time>2026-04-18T08:53:22.786Z</time></trkpt><trkpt lat="42.15901" lon="-7.978465"><ele>701.0</ele><time>2026-04-18T08:53:23.785Z</time></trkpt><trkpt lat="42.15892" lon="-7.9785917"><ele>704.0</ele><time>2026-04-18T08:53:24.786Z</time></trkpt><trkpt lat="42.1588483" lon="-7.9787067"><ele>707.0</ele><time>2026-04-18T08:53:25.786Z</time></trkpt><trkpt lat="42.1587867" lon="-7.9788217"><ele>707.0</ele><time>2026-04-18T08:53:26.786Z</time></trkpt><trkpt lat="42.1587367" lon="-7.97894"><ele>707.0</ele><time>2026-04-18T08:53:27.785Z</time></trkpt><trkpt lat="42.1586783" lon="-7.9790583"><ele>707.0</ele><time>2026-04-18T08:53:28.785Z</time></trkpt><trkpt lat="42.1586117" lon="-7.9791567"><ele>707.0</ele><time>2026-04-18T08:53:29.785Z</time></trkpt><trkpt lat="42.1585383" lon="-7.979245"><ele>707.0</ele><time>2026-04-18T08:53:30.785Z</time></trkpt><trkpt lat="42.15848" lon="-7.9793117"><ele>707.1666666666666</ele><time>2026-04-18T08:53:31.784Z</time></trkpt><trkpt lat="42.1584183" lon="-7.9793767"><ele>707.3333333333333</ele><time>2026-04-18T08:53:32.784Z</time></trkpt><trkpt lat="42.1583633" lon="-7.9794283"><ele>707.5</ele><time>2026-04-18T08:53:33.785Z</time></trkpt><trkpt lat="42.1582767" lon="-7.9795117"><ele>707.6666666666666</ele><time>2026-04-18T08:53:35.784Z</time></trkpt><trkpt lat="42.1582183" lon="-7.9795833"><ele>707.8333333333334</ele><time>2026-04-18T08:53:37.786Z</time></trkpt><trkpt lat="42.1581817" lon="-7.9796717"><ele>708.0</ele><time>2026-04-18T08:53:39.787Z</time></trkpt><trkpt lat="42.1581233" lon="-7.9796167"><ele>710.5999999999999</ele><time>2026-04-18T08:53:45.785Z</time></trkpt><trkpt lat="42.1580967" lon="-7.9794617"><ele>713.1999999999999</ele><time>2026-04-18T08:53:47.785Z</time></trkpt><trkpt lat="42.1580817" lon="-7.9793433"><ele>715.8</ele><time>2026-04-18T08:53:48.786Z</time></trkpt><trkpt lat="42.1580567" lon="-7.9792117"><ele>718.4</ele><time>2026-04-18T08:53:49.784Z</time></trkpt><trkpt lat="42.1580333" lon="-7.9790633"><ele>721.0</ele><time>2026-04-18T08:53:50.785Z</time></trkpt><trkpt lat="42.15799" lon="-7.9789067"><ele>721.0</ele><time>2026-04-18T08:53:51.786Z</time></trkpt><trkpt lat="42.15795" lon="-7.97874"><ele>721.0</ele><time>2026-04-18T08:53:52.786Z</time></trkpt><trkpt lat="42.15792" lon="-7.9786017"><ele>721.0</ele><time>2026-04-18T08:53:53.786Z</time></trkpt><trkpt lat="42.1579017" lon="-7.9784533"><ele>721.0</ele><time>2026-04-18T08:53:54.785Z</time></trkpt><trkpt lat="42.15788" lon="-7.9783067"><ele>719.1999999999999</ele><time>2026-04-18T08:53:55.786Z</time></trkpt><trkpt lat="42.15786" lon="-7.978145"><ele>717.4</ele><time>2026-04-18T08:53:56.785Z</time></trkpt><trkpt lat="42.1578383" lon="-7.9779717"><ele>715.6</ele><time>2026-04-18T08:53:57.786Z</time></trkpt><trkpt lat="42.1578217" lon="-7.9778467"><ele>713.8</ele><time>2026-04-18T08:53:58.785Z</time></trkpt><trkpt lat="42.1577983" lon="-7.9777433"><ele>712.0</ele><time>2026-04-18T08:53:59.786Z</time></trkpt><trkpt lat="42.1577467" lon="-7.9776133"><ele>712.0</ele><time>2026-04-18T08:54:01.786Z</time></trkpt><trkpt lat="42.157655" lon="-7.9775683"><ele>712.0</ele><time>2026-04-18T08:54:03.786Z</time></trkpt><trkpt lat="42.1575267" lon="-7.97753"><ele>712.0</ele><time>2026-04-18T08:54:05.787Z</time></trkpt><trkpt lat="42.15741" lon="-7.9775433"><ele>712.0</ele><time>2026-04-18T08:54:06.785Z</time></trkpt><trkpt lat="42.1572983" lon="-7.9775717"><ele>713.5</ele><time>2026-04-18T08:54:07.784Z</time></trkpt><trkpt lat="42.1571733" lon="-7.9776167"><ele>715.0</ele><time>2026-04-18T08:54:08.785Z</time></trkpt><trkpt lat="42.1570567" lon="-7.97766"><ele>716.5</ele><time>2026-04-18T08:54:09.786Z</time></trkpt><trkpt lat="42.1569483" lon="-7.9777067"><ele>718.0</ele><time>2026-04-18T08:54:10.786Z</time></trkpt><trkpt lat="42.1568267" lon="-7.9777567"><ele>718.0</ele><time>2026-04-18T08:54:11.786Z</time></trkpt><trkpt lat="42.1567033" lon="-7.97781"><ele>718.0</ele><time>2026-04-18T08:54:12.785Z</time></trkpt><trkpt lat="42.1565917" lon="-7.9778483"><ele>718.0</ele><time>2026-04-18T08:54:13.785Z</time></trkpt><trkpt lat="42.1564783" lon="-7.9778917"><ele>718.0</ele><time>2026-04-18T08:54:14.786Z</time></trkpt><trkpt lat="42.1563633" lon="-7.9779367"><ele>717.0</ele><time>2026-04-18T08:54:15.787Z</time></trkpt><trkpt lat="42.1562467" lon="-7.97798"><ele>716.0</ele><time>2026-04-18T08:54:16.783Z</time></trkpt><trkpt lat="42.1561217" lon="-7.97803"><ele>715.0</ele><time>2026-04-18T08:54:17.784Z</time></trkpt><trkpt lat="42.1559717" lon="-7.9780967"><ele>714.0</ele><time>2026-04-18T08:54:18.784Z</time></trkpt><trkpt lat="42.1558317" lon="-7.97816"><ele>714.0</ele><time>2026-04-18T08:54:19.784Z</time></trkpt><trkpt lat="42.1557117" lon="-7.9782183"><ele>714.0</ele><time>2026-04-18T08:54:20.784Z</time></trkpt><trkpt lat="42.1555933" lon="-7.9782983"><ele>714.0</ele><time>2026-04-18T08:54:21.786Z</time></trkpt><trkpt lat="42.15549" lon="-7.9783717"><ele>714.0</ele><time>2026-04-18T08:54:22.784Z</time></trkpt><trkpt lat="42.1553867" lon="-7.9784433"><ele>716.0</ele><time>2026-04-18T08:54:23.786Z</time></trkpt><trkpt lat="42.15528" lon="-7.97851"><ele>718.0</ele><time>2026-04-18T08:54:24.784Z</time></trkpt><trkpt lat="42.1551683" lon="-7.978575"><ele>720.0</ele><time>2026-04-18T08:54:25.784Z</time></trkpt><trkpt lat="42.155055" lon="-7.9786517"><ele>722.0</ele><time>2026-04-18T08:54:26.784Z</time></trkpt><trkpt lat="42.1549433" lon="-7.9787467"><ele>720.25</ele><time>2026-04-18T08:54:27.785Z</time></trkpt><trkpt lat="42.1548367" lon="-7.9788483"><ele>718.5</ele><time>2026-04-18T08:54:28.784Z</time></trkpt><trkpt lat="42.154745" lon="-7.97895"><ele>716.75</ele><time>2026-04-18T08:54:29.784Z</time></trkpt><trkpt lat="42.15467" lon="-7.9790567"><ele>715.0</ele><time>2026-04-18T08:54:30.784Z</time></trkpt><trkpt lat="42.1546" lon="-7.9791667"><ele>716.0</ele><time>2026-04-18T08:54:31.785Z</time></trkpt><trkpt lat="42.15454" lon="-7.97927"><ele>717.0</ele><time>2026-04-18T08:54:32.784Z</time></trkpt><trkpt lat="42.1544867" lon="-7.9793683"><ele>718.0</ele><time>2026-04-18T08:54:33.784Z</time></trkpt><trkpt lat="42.1544517" lon="-7.9794567"><ele>719.0</ele><time>2026-04-18T08:54:34.784Z</time></trkpt><trkpt lat="42.1544333" lon="-7.979545"><ele>720.0</ele><time>2026-04-18T08:54:35.784Z</time></trkpt><trkpt lat="42.1544233" lon="-7.9796367"><ele>721.0</ele><time>2026-04-18T08:54:36.784Z</time></trkpt><trkpt lat="42.15442" lon="-7.9797233"><ele>721.0</ele><time>2026-04-18T08:54:37.784Z</time></trkpt><trkpt lat="42.154415" lon="-7.97981"><ele>721.0</ele><time>2026-04-18T08:54:38.785Z</time></trkpt><trkpt lat="42.1544033" lon="-7.9799133"><ele>721.0</ele><time>2026-04-18T08:54:40.784Z</time></trkpt><trkpt lat="42.15434" lon="-7.97986"><ele>721.0</ele><time>2026-04-18T08:54:43.784Z</time></trkpt><trkpt lat="42.15428" lon="-7.9797733"><ele>721.0</ele><time>2026-04-18T08:54:45.784Z</time></trkpt><trkpt lat="42.1542183" lon="-7.97972"><ele>721.0</ele><time>2026-04-18T08:54:46.784Z</time></trkpt><trkpt lat="42.15413" lon="-7.979605"><ele>721.0</ele><time>2026-04-18T08:54:47.784Z</time></trkpt><trkpt lat="42.154055" lon="-7.9794883"><ele>721.0</ele><time>2026-04-18T08:54:48.785Z</time></trkpt><trkpt lat="42.1539817" lon="-7.979355"><ele>721.0</ele><time>2026-04-18T08:54:49.784Z</time></trkpt><trkpt lat="42.1539033" lon="-7.9792183"><ele>721.0</ele><time>2026-04-18T08:54:50.784Z</time></trkpt><trkpt lat="42.15382" lon="-7.979075"><ele>719.25</ele><time>2026-04-18T08:54:51.784Z</time></trkpt><trkpt lat="42.153755" lon="-7.978925"><ele>717.5</ele><time>2026-04-18T08:54:52.784Z</time></trkpt><trkpt lat="42.1536983" lon="-7.97877"><ele>715.75</ele><time>2026-04-18T08:54:53.785Z</time></trkpt><trkpt lat="42.1536483" lon="-7.9786217"><ele>714.0</ele><time>2026-04-18T08:54:54.784Z</time></trkpt><trkpt lat="42.1536" lon="-7.9784767"><ele>714.0</ele><time>2026-04-18T08:54:55.784Z</time></trkpt><trkpt lat="42.1535517" lon="-7.97836"><ele>714.0</ele><time>2026-04-18T08:54:56.785Z</time></trkpt><trkpt lat="42.1535067" lon="-7.978275"><ele>714.0</ele><time>2026-04-18T08:54:57.784Z</time></trkpt><trkpt lat="42.1533917" lon="-7.9781917"><ele>714.0</ele><time>2026-04-18T08:54:59.784Z</time></trkpt><trkpt lat="42.1532967" lon="-7.978195"><ele>714.0</ele><time>2026-04-18T08:55:00.784Z</time></trkpt><trkpt lat="42.1532" lon="-7.978205"><ele>714.1666666666666</ele><time>2026-04-18T08:55:01.784Z</time></trkpt><trkpt lat="42.15311" lon="-7.9782283"><ele>714.3333333333334</ele><time>2026-04-18T08:55:02.784Z</time></trkpt><trkpt lat="42.153025" lon="-7.9782783"><ele>714.5</ele><time>2026-04-18T08:55:03.785Z</time></trkpt><trkpt lat="42.1529583" lon="-7.978325"><ele>714.6666666666667</ele><time>2026-04-18T08:55:04.784Z</time></trkpt><trkpt lat="42.1528717" lon="-7.9784383"><ele>714.8333333333334</ele><time>2026-04-18T08:55:06.786Z</time></trkpt><trkpt lat="42.15282" lon="-7.9785"><ele>715.0</ele><time>2026-04-18T08:55:07.783Z</time></trkpt><trkpt lat="42.1527583" lon="-7.9785517"><ele>715.0</ele><time>2026-04-18T08:55:08.784Z</time></trkpt><trkpt lat="42.1526983" lon="-7.9786"><ele>715.0</ele><time>2026-04-18T08:55:09.783Z</time></trkpt><trkpt lat="42.1526217" lon="-7.97863"><ele>715.0</ele><time>2026-04-18T08:55:10.784Z</time></trkpt><trkpt lat="42.1525433" lon="-7.978635"><ele>715.0</ele><time>2026-04-18T08:55:11.784Z</time></trkpt><trkpt lat="42.15246" lon="-7.978625"><ele>715.0</ele><time>2026-04-18T08:55:12.784Z</time></trkpt><trkpt lat="42.152385" lon="-7.9785783"><ele>715.0</ele><time>2026-04-18T08:55:13.784Z</time></trkpt><trkpt lat="42.1523133" lon="-7.978545"><ele>715.6</ele><time>2026-04-18T08:55:14.784Z</time></trkpt><trkpt lat="42.1522233" lon="-7.9785117"><ele>716.2</ele><time>2026-04-18T08:55:15.784Z</time></trkpt><trkpt lat="42.152135" lon="-7.9784983"><ele>716.8</ele><time>2026-04-18T08:55:16.783Z</time></trkpt><trkpt lat="42.152045" lon="-7.978495"><ele>717.4</ele><time>2026-04-18T08:55:17.786Z</time></trkpt><trkpt lat="42.1519467" lon="-7.97849"><ele>718.0</ele><time>2026-04-18T08:55:18.784Z</time></trkpt><trkpt lat="42.15186" lon="-7.9784733"><ele>718.0</ele><time>2026-04-18T08:55:19.784Z</time></trkpt><trkpt lat="42.15178" lon="-7.9784517"><ele>718.0</ele><time>2026-04-18T08:55:20.784Z</time></trkpt><trkpt lat="42.1517033" lon="-7.9784117"><ele>718.0</ele><time>2026-04-18T08:55:21.785Z</time></trkpt><trkpt lat="42.1516283" lon="-7.97834"><ele>718.0</ele><time>2026-04-18T08:55:22.784Z</time></trkpt><trkpt lat="42.1515633" lon="-7.97827"><ele>718.0</ele><time>2026-04-18T08:55:23.784Z</time></trkpt><trkpt lat="42.1514967" lon="-7.9781867"><ele>718.0</ele><time>2026-04-18T08:55:24.785Z</time></trkpt><trkpt lat="42.15143" lon="-7.9781283"><ele>714.0</ele><time>2026-04-18T08:55:25.783Z</time></trkpt><trkpt lat="42.1513633" lon="-7.978085"><ele>710.0</ele><time>2026-04-18T08:55:26.783Z</time></trkpt><trkpt lat="42.1512883" lon="-7.9780383"><ele>706.0</ele><time>2026-04-18T08:55:27.784Z</time></trkpt><trkpt lat="42.15119" lon="-7.9780067"><ele>702.0</ele><time>2026-04-18T08:55:28.784Z</time></trkpt><trkpt lat="42.1510617" lon="-7.9779717"><ele>698.0</ele><time>2026-04-18T08:55:29.785Z</time></trkpt><trkpt lat="42.1509333" lon="-7.97794"><ele>698.0</ele><time>2026-04-18T08:55:30.784Z</time></trkpt><trkpt lat="42.150815" lon="-7.9779083"><ele>698.0</ele><time>2026-04-18T08:55:31.784Z</time></trkpt><trkpt lat="42.1507017" lon="-7.977895"><ele>698.0</ele><time>2026-04-18T08:55:32.784Z</time></trkpt><trkpt lat="42.1506033" lon="-7.9778917"><ele>698.0</ele><time>2026-04-18T08:55:33.783Z</time></trkpt><trkpt lat="42.1504833" lon="-7.9778967"><ele>697.3333333333333</ele><time>2026-04-18T08:55:34.784Z</time></trkpt><trkpt lat="42.1503833" lon="-7.97793"><ele>696.6666666666666</ele><time>2026-04-18T08:55:35.784Z</time></trkpt><trkpt lat="42.1503" lon="-7.9779533"><ele>696.0</ele><time>2026-04-18T08:55:36.784Z</time></trkpt><trkpt lat="42.15021" lon="-7.977965"><ele>695.3333333333334</ele><time>2026-04-18T08:55:37.783Z</time></trkpt><trkpt lat="42.150135" lon="-7.9779733"><ele>694.6666666666667</ele><time>2026-04-18T08:55:38.784Z</time></trkpt><trkpt lat="42.1500633" lon="-7.9779817"><ele>694.0</ele><time>2026-04-18T08:55:39.788Z</time></trkpt><trkpt lat="42.1499983" lon="-7.9779433"><ele>694.0</ele><time>2026-04-18T08:55:40.784Z</time></trkpt><trkpt lat="42.1499433" lon="-7.9779017"><ele>694.0</ele><time>2026-04-18T08:55:41.784Z</time></trkpt><trkpt lat="42.1498717" lon="-7.9778783"><ele>694.0</ele><time>2026-04-18T08:55:42.785Z</time></trkpt><trkpt lat="42.1498" lon="-7.9778583"><ele>694.0</ele><time>2026-04-18T08:55:43.784Z</time></trkpt><trkpt lat="42.1497283" lon="-7.9778383"><ele>694.0</ele><time>2026-04-18T08:55:44.784Z</time></trkpt><trkpt lat="42.149655" lon="-7.9778367"><ele>694.0</ele><time>2026-04-18T08:55:45.785Z</time></trkpt><trkpt lat="42.1495867" lon="-7.9778333"><ele>694.0</ele><time>2026-04-18T08:55:46.785Z</time></trkpt><trkpt lat="42.149505" lon="-7.97784"><ele>693.5</ele><time>2026-04-18T08:55:47.787Z</time></trkpt><trkpt lat="42.1494283" lon="-7.97786"><ele>693.0</ele><time>2026-04-18T08:55:48.783Z</time></trkpt><trkpt lat="42.1493533" lon="-7.9778917"><ele>692.5</ele><time>2026-04-18T08:55:49.785Z</time></trkpt><trkpt lat="42.1492817" lon="-7.9779283"><ele>692.0</ele><time>2026-04-18T08:55:50.784Z</time></trkpt><trkpt lat="42.14922" lon="-7.977955"><ele>691.5</ele><time>2026-04-18T08:55:51.784Z</time></trkpt><trkpt lat="42.1491283" lon="-7.9779917"><ele>691.0</ele><time>2026-04-18T08:55:53.786Z</time></trkpt><trkpt lat="42.1490633" lon="-7.97802"><ele>690.4</ele><time>2026-04-18T08:55:55.791Z</time></trkpt><trkpt lat="42.1489767" lon="-7.9780883"><ele>689.8</ele><time>2026-04-18T08:55:57.786Z</time></trkpt><trkpt lat="42.1489233" lon="-7.9781467"><ele>689.1999999999999</ele><time>2026-04-18T08:55:58.784Z</time></trkpt><trkpt lat="42.1488583" lon="-7.9782133"><ele>688.5999999999999</ele><time>2026-04-18T08:55:59.785Z</time></trkpt><trkpt lat="42.1487667" lon="-7.9782883"><ele>688.0</ele><time>2026-04-18T08:56:00.785Z</time></trkpt><trkpt lat="42.1486717" lon="-7.9783667"><ele>689.75</ele><time>2026-04-18T08:56:01.786Z</time></trkpt><trkpt lat="42.148575" lon="-7.9784433"><ele>691.5</ele><time>2026-04-18T08:56:02.785Z</time></trkpt><trkpt lat="42.1484733" lon="-7.9785217"><ele>693.25</ele><time>2026-04-18T08:56:03.784Z</time></trkpt><trkpt lat="42.148355" lon="-7.9786"><ele>695.0</ele><time>2026-04-18T08:56:04.785Z</time></trkpt><trkpt lat="42.148225" lon="-7.9786583"><ele>694.0</ele><time>2026-04-18T08:56:05.786Z</time></trkpt><trkpt lat="42.148085" lon="-7.9786967"><ele>693.0</ele><time>2026-04-18T08:56:06.785Z</time></trkpt><trkpt lat="42.1479233" lon="-7.9787333"><ele>692.0</ele><time>2026-04-18T08:56:07.785Z</time></trkpt><trkpt lat="42.1477567" lon="-7.9787683"><ele>692.0</ele><time>2026-04-18T08:56:08.787Z</time></trkpt><trkpt lat="42.147595" lon="-7.9787967"><ele>692.0</ele><time>2026-04-18T08:56:09.788Z</time></trkpt><trkpt lat="42.1474417" lon="-7.9788267"><ele>692.0</ele><time>2026-04-18T08:56:10.783Z</time></trkpt><trkpt lat="42.147285" lon="-7.978855"><ele>692.3333333333333</ele><time>2026-04-18T08:56:11.785Z</time></trkpt><trkpt lat="42.14712" lon="-7.9788833"><ele>692.6666666666666</ele><time>2026-04-18T08:56:12.787Z</time></trkpt><trkpt lat="42.1469633" lon="-7.9789067"><ele>693.0</ele><time>2026-04-18T08:56:13.785Z</time></trkpt><trkpt lat="42.1468283" lon="-7.9789267"><ele>693.0</ele><time>2026-04-18T08:56:14.788Z</time></trkpt><trkpt lat="42.146695" lon="-7.978945"><ele>693.0</ele><time>2026-04-18T08:56:15.786Z</time></trkpt><trkpt lat="42.1465717" lon="-7.9789633"><ele>693.0</ele><time>2026-04-18T08:56:16.786Z</time></trkpt><trkpt lat="42.1464583" lon="-7.9789817"><ele>693.0</ele><time>2026-04-18T08:56:17.784Z</time></trkpt><trkpt lat="42.1463467" lon="-7.9790133"><ele>694.0</ele><time>2026-04-18T08:56:18.785Z</time></trkpt><trkpt lat="42.1462367" lon="-7.9790633"><ele>695.0</ele><time>2026-04-18T08:56:19.785Z</time></trkpt><trkpt lat="42.14613" lon="-7.9791383"><ele>696.0</ele><time>2026-04-18T08:56:20.785Z</time></trkpt><trkpt lat="42.146025" lon="-7.9792367"><ele>697.0</ele><time>2026-04-18T08:56:21.785Z</time></trkpt><trkpt lat="42.1459217" lon="-7.9793517"><ele>698.0</ele><time>2026-04-18T08:56:22.785Z</time></trkpt><trkpt lat="42.1458333" lon="-7.9794933"><ele>699.0</ele><time>2026-04-18T08:56:23.786Z</time></trkpt><trkpt lat="42.1457567" lon="-7.97965"><ele>700.0</ele><time>2026-04-18T08:56:24.786Z</time></trkpt><trkpt lat="42.145695" lon="-7.9798283"><ele>701.0</ele><time>2026-04-18T08:56:25.787Z</time></trkpt><trkpt lat="42.1456533" lon="-7.9800233"><ele>702.6666666666666</ele><time>2026-04-18T08:56:26.786Z</time></trkpt><trkpt lat="42.1456183" lon="-7.9802233"><ele>704.3333333333334</ele><time>2026-04-18T08:56:27.784Z</time></trkpt><trkpt lat="42.14559" lon="-7.9804317"><ele>706.0</ele><time>2026-04-18T08:56:28.784Z</time></trkpt><trkpt lat="42.1455633" lon="-7.980635"><ele>706.0</ele><time>2026-04-18T08:56:29.786Z</time></trkpt><trkpt lat="42.145535" lon="-7.98083"><ele>706.0</ele><time>2026-04-18T08:56:30.785Z</time></trkpt><trkpt lat="42.1455033" lon="-7.9810183"><ele>706.0</ele><time>2026-04-18T08:56:31.784Z</time></trkpt><trkpt lat="42.1454667" lon="-7.9812133"><ele>706.0</ele><time>2026-04-18T08:56:32.785Z</time></trkpt><trkpt lat="42.14542" lon="-7.9814033"><ele>707.3333333333334</ele><time>2026-04-18T08:56:33.786Z</time></trkpt><trkpt lat="42.1453633" lon="-7.981595"><ele>708.6666666666666</ele><time>2026-04-18T08:56:34.787Z</time></trkpt><trkpt lat="42.1452883" lon="-7.981775"><ele>710.0</ele><time>2026-04-18T08:56:35.786Z</time></trkpt><trkpt lat="42.145195" lon="-7.9819417"><ele>711.0</ele><time>2026-04-18T08:56:36.785Z</time></trkpt><trkpt lat="42.1451017" lon="-7.982105"><ele>712.0</ele><time>2026-04-18T08:56:37.785Z</time></trkpt><trkpt lat="42.1450017" lon="-7.9822683"><ele>713.0</ele><time>2026-04-18T08:56:38.786Z</time></trkpt><trkpt lat="42.1449067" lon="-7.98243"><ele>715.25</ele><time>2026-04-18T08:56:39.786Z</time></trkpt><trkpt lat="42.1448117" lon="-7.98258"><ele>717.5</ele><time>2026-04-18T08:56:40.784Z</time></trkpt><trkpt lat="42.144725" lon="-7.9827183"><ele>719.75</ele><time>2026-04-18T08:56:41.785Z</time></trkpt><trkpt lat="42.1446517" lon="-7.98285"><ele>722.0</ele><time>2026-04-18T08:56:42.785Z</time></trkpt><trkpt lat="42.1445883" lon="-7.9829783"><ele>722.0</ele><time>2026-04-18T08:56:43.785Z</time></trkpt><trkpt lat="42.144525" lon="-7.9831083"><ele>722.0</ele><time>2026-04-18T08:56:44.787Z</time></trkpt><trkpt lat="42.144465" lon="-7.9832417"><ele>722.0</ele><time>2026-04-18T08:56:45.785Z</time></trkpt><trkpt lat="42.1444033" lon="-7.9833833"><ele>722.0</ele><time>2026-04-18T08:56:46.786Z</time></trkpt><trkpt lat="42.1443517" lon="-7.98352"><ele>722.5</ele><time>2026-04-18T08:56:47.785Z</time></trkpt><trkpt lat="42.1443117" lon="-7.9836367"><ele>723.0</ele><time>2026-04-18T08:56:48.786Z</time></trkpt><trkpt lat="42.14428" lon="-7.9837267"><ele>723.5</ele><time>2026-04-18T08:56:49.784Z</time></trkpt><trkpt lat="42.1442467" lon="-7.9838"><ele>724.0</ele><time>2026-04-18T08:56:50.786Z</time></trkpt><trkpt lat="42.1441567" lon="-7.9838783"><ele>724.5</ele><time>2026-04-18T08:56:52.785Z</time></trkpt><trkpt lat="42.144085" lon="-7.9839167"><ele>725.0</ele><time>2026-04-18T08:56:54.785Z</time></trkpt><trkpt lat="42.1440367" lon="-7.9840467"><ele>725.1666666666666</ele><time>2026-04-18T08:56:56.786Z</time></trkpt><trkpt lat="42.1440117" lon="-7.9841517"><ele>725.3333333333333</ele><time>2026-04-18T08:56:57.785Z</time></trkpt><trkpt lat="42.14399" lon="-7.9842517"><ele>725.5</ele><time>2026-04-18T08:56:58.785Z</time></trkpt><trkpt lat="42.1439717" lon="-7.9843333"><ele>725.6666666666666</ele><time>2026-04-18T08:56:59.785Z</time></trkpt><trkpt lat="42.1439217" lon="-7.984395"><ele>725.8333333333334</ele><time>2026-04-18T08:57:01.785Z</time></trkpt><trkpt lat="42.1438333" lon="-7.98433"><ele>726.0</ele><time>2026-04-18T08:57:03.784Z</time></trkpt><trkpt lat="42.143775" lon="-7.98429"><ele>726.0</ele><time>2026-04-18T08:57:04.785Z</time></trkpt><trkpt lat="42.1437167" lon="-7.9842217"><ele>726.0</ele><time>2026-04-18T08:57:05.785Z</time></trkpt><trkpt lat="42.143635" lon="-7.9841067"><ele>726.0</ele><time>2026-04-18T08:57:06.787Z</time></trkpt><trkpt lat="42.143545" lon="-7.9840067"><ele>726.0</ele><time>2026-04-18T08:57:07.786Z</time></trkpt><trkpt lat="42.1434717" lon="-7.9839167"><ele>726.0</ele><time>2026-04-18T08:57:08.785Z</time></trkpt><trkpt lat="42.1433867" lon="-7.9838117"><ele>726.1666666666666</ele><time>2026-04-18T08:57:09.785Z</time></trkpt><trkpt lat="42.1433133" lon="-7.983725"><ele>726.3333333333334</ele><time>2026-04-18T08:57:10.784Z</time></trkpt><trkpt lat="42.14325" lon="-7.98366"><ele>726.5</ele><time>2026-04-18T08:57:11.784Z</time></trkpt><trkpt lat="42.1431833" lon="-7.983605"><ele>726.6666666666667</ele><time>2026-04-18T08:57:12.786Z</time></trkpt><trkpt lat="42.1430783" lon="-7.9835217"><ele>726.8333333333334</ele><time>2026-04-18T08:57:14.784Z</time></trkpt><trkpt lat="42.1430217" lon="-7.9834817"><ele>727.0</ele><time>2026-04-18T08:57:15.785Z</time></trkpt><trkpt lat="42.1429317" lon="-7.9834167"><ele>728.0</ele><time>2026-04-18T08:57:17.785Z</time></trkpt><trkpt lat="42.1428567" lon="-7.9833017"><ele>729.0</ele><time>2026-04-18T08:57:19.785Z</time></trkpt><trkpt lat="42.1428367" lon="-7.9831717"><ele>730.0</ele><time>2026-04-18T08:57:21.785Z</time></trkpt><trkpt lat="42.1428533" lon="-7.9830417"><ele>731.0</ele><time>2026-04-18T08:57:23.785Z</time></trkpt><trkpt lat="42.1428317" lon="-7.9829233"><ele>732.0</ele><time>2026-04-18T08:57:25.785Z</time></trkpt><trkpt lat="42.1427817" lon="-7.982765"><ele>732.0</ele><time>2026-04-18T08:57:27.786Z</time></trkpt><trkpt lat="42.1427533" lon="-7.98268"><ele>732.0</ele><time>2026-04-18T08:57:28.783Z</time></trkpt><trkpt lat="42.14273" lon="-7.98258"><ele>732.0</ele><time>2026-04-18T08:57:29.784Z</time></trkpt><trkpt lat="42.1427067" lon="-7.9824983"><ele>732.0</ele><time>2026-04-18T08:57:30.786Z</time></trkpt><trkpt lat="42.1426817" lon="-7.98242"><ele>732.0</ele><time>2026-04-18T08:57:31.783Z</time></trkpt><trkpt lat="42.1426117" lon="-7.98232"><ele>732.0</ele><time>2026-04-18T08:57:33.786Z</time></trkpt><trkpt lat="42.142525" lon="-7.9823317"><ele>731.8571428571429</ele><time>2026-04-18T08:57:36.784Z</time></trkpt><trkpt lat="42.142525" lon="-7.98224"><ele>731.7142857142858</ele><time>2026-04-18T08:57:53.783Z</time></trkpt><trkpt lat="42.1425467" lon="-7.9821367"><ele>731.5714285714286</ele><time>2026-04-18T08:57:55.784Z</time></trkpt><trkpt lat="42.142555" lon="-7.9820517"><ele>731.4285714285714</ele><time>2026-04-18T08:57:57.784Z</time></trkpt><trkpt lat="42.14248" lon="-7.9820017"><ele>731.2857142857142</ele><time>2026-04-18T08:58:00.786Z</time></trkpt><trkpt lat="42.1424133" lon="-7.9819983"><ele>731.1428571428571</ele><time>2026-04-18T08:58:01.785Z</time></trkpt><trkpt lat="42.1423467" lon="-7.9819983"><ele>731.0</ele><time>2026-04-18T08:58:02.785Z</time></trkpt><trkpt lat="42.142275" lon="-7.9820033"><ele>732.6666666666666</ele><time>2026-04-18T08:58:03.786Z</time></trkpt><trkpt lat="42.142195" lon="-7.9820233"><ele>734.3333333333333</ele><time>2026-04-18T08:58:04.786Z</time></trkpt><trkpt lat="42.1421117" lon="-7.982045"><ele>736.0</ele><time>2026-04-18T08:58:05.785Z</time></trkpt><trkpt lat="42.1420267" lon="-7.9820633"><ele>737.6666666666666</ele><time>2026-04-18T08:58:06.784Z</time></trkpt><trkpt lat="42.1419417" lon="-7.9820817"><ele>739.3333333333334</ele><time>2026-04-18T08:58:07.785Z</time></trkpt><trkpt lat="42.141855" lon="-7.9821"><ele>741.0</ele><time>2026-04-18T08:58:08.785Z</time></trkpt><trkpt lat="42.141765" lon="-7.982115"><ele>741.0</ele><time>2026-04-18T08:58:09.785Z</time></trkpt><trkpt lat="42.1416883" lon="-7.9821217"><ele>741.0</ele><time>2026-04-18T08:58:10.784Z</time></trkpt><trkpt lat="42.141575" lon="-7.9820967"><ele>741.0</ele><time>2026-04-18T08:58:12.785Z</time></trkpt><trkpt lat="42.1414933" lon="-7.9820467"><ele>741.0</ele><time>2026-04-18T08:58:14.786Z</time></trkpt><trkpt lat="42.1414333" lon="-7.9819317"><ele>741.0</ele><time>2026-04-18T08:58:16.785Z</time></trkpt><trkpt lat="42.1414133" lon="-7.981835"><ele>740.5999999999999</ele><time>2026-04-18T08:58:17.785Z</time></trkpt><trkpt lat="42.1414083" lon="-7.9817217"><ele>740.2</ele><time>2026-04-18T08:58:18.785Z</time></trkpt><trkpt lat="42.1414217" lon="-7.9816033"><ele>739.8</ele><time>2026-04-18T08:58:19.785Z</time></trkpt><trkpt lat="42.1414533" lon="-7.9814817"><ele>739.4000000000001</ele><time>2026-04-18T08:58:20.786Z</time></trkpt><trkpt lat="42.1415" lon="-7.9813517"><ele>739.0</ele><time>2026-04-18T08:58:21.786Z</time></trkpt><trkpt lat="42.141555" lon="-7.9812233"><ele>739.0</ele><time>2026-04-18T08:58:22.784Z</time></trkpt><trkpt lat="42.1415933" lon="-7.9811183"><ele>739.0</ele><time>2026-04-18T08:58:23.785Z</time></trkpt><trkpt lat="42.1416183" lon="-7.981035"><ele>739.0</ele><time>2026-04-18T08:58:24.785Z</time></trkpt><trkpt lat="42.141655" lon="-7.980915"><ele>739.0</ele><time>2026-04-18T08:58:26.785Z</time></trkpt><trkpt lat="42.1415917" lon="-7.980825"><ele>739.0</ele><time>2026-04-18T08:58:30.788Z</time></trkpt><trkpt lat="42.1414817" lon="-7.9808017"><ele>740.2</ele><time>2026-04-18T08:58:32.784Z</time></trkpt><trkpt lat="42.14139" lon="-7.9807517"><ele>741.4000000000001</ele><time>2026-04-18T08:58:33.784Z</time></trkpt><trkpt lat="42.14131" lon="-7.9806967"><ele>742.6</ele><time>2026-04-18T08:58:34.784Z</time></trkpt><trkpt lat="42.1412133" lon="-7.9806317"><ele>743.8</ele><time>2026-04-18T08:58:35.785Z</time></trkpt><trkpt lat="42.1411217" lon="-7.9805783"><ele>745.0</ele><time>2026-04-18T08:58:36.784Z</time></trkpt><trkpt lat="42.1410283" lon="-7.98053"><ele>745.0</ele><time>2026-04-18T08:58:37.786Z</time></trkpt><trkpt lat="42.1409383" lon="-7.98048"><ele>745.0</ele><time>2026-04-18T08:58:38.784Z</time></trkpt><trkpt lat="42.140865" lon="-7.980425"><ele>745.0</ele><time>2026-04-18T08:58:39.786Z</time></trkpt><trkpt lat="42.1407933" lon="-7.9803567"><ele>745.0</ele><time>2026-04-18T08:58:40.786Z</time></trkpt><trkpt lat="42.1407117" lon="-7.9802733"><ele>745.0</ele><time>2026-04-18T08:58:41.784Z</time></trkpt><trkpt lat="42.1406267" lon="-7.9801833"><ele>745.1666666666667</ele><time>2026-04-18T08:58:42.784Z</time></trkpt><trkpt lat="42.1405533" lon="-7.9801133"><ele>745.3333333333334</ele><time>2026-04-18T08:58:43.784Z</time></trkpt><trkpt lat="42.140485" lon="-7.9800433"><ele>745.5</ele><time>2026-04-18T08:58:44.785Z</time></trkpt><trkpt lat="42.14042" lon="-7.97996"><ele>745.6666666666666</ele><time>2026-04-18T08:58:45.784Z</time></trkpt><trkpt lat="42.1403667" lon="-7.979875"><ele>745.8333333333333</ele><time>2026-04-18T08:58:46.784Z</time></trkpt><trkpt lat="42.1403217" lon="-7.9797967"><ele>746.0</ele><time>2026-04-18T08:58:47.785Z</time></trkpt><trkpt lat="42.1402767" lon="-7.9797317"><ele>745.5999999999999</ele><time>2026-04-18T08:58:48.784Z</time></trkpt><trkpt lat="42.1402317" lon="-7.979665"><ele>745.2</ele><time>2026-04-18T08:58:49.784Z</time></trkpt><trkpt lat="42.1401533" lon="-7.9796233"><ele>744.8</ele><time>2026-04-18T08:58:51.784Z</time></trkpt><trkpt lat="42.1400067" lon="-7.979675"><ele>744.4000000000001</ele><time>2026-04-18T08:58:53.784Z</time></trkpt><trkpt lat="42.1399117" lon="-7.9797167"><ele>744.0</ele><time>2026-04-18T08:58:54.784Z</time></trkpt><trkpt lat="42.139795" lon="-7.9798"><ele>743.0</ele><time>2026-04-18T08:58:55.784Z</time></trkpt><trkpt lat="42.1397067" lon="-7.97988"><ele>742.0</ele><time>2026-04-18T08:58:56.785Z</time></trkpt><trkpt lat="42.1396317" lon="-7.9799617"><ele>741.0</ele><time>2026-04-18T08:58:57.784Z</time></trkpt><trkpt lat="42.1395733" lon="-7.980045"><ele>740.0</ele><time>2026-04-18T08:58:58.783Z</time></trkpt><trkpt lat="42.1395367" lon="-7.9801367"><ele>739.0</ele><time>2026-04-18T08:58:59.784Z</time></trkpt><trkpt lat="42.1394967" lon="-7.9802083"><ele>738.0</ele><time>2026-04-18T08:59:00.784Z</time></trkpt><trkpt lat="42.1394433" lon="-7.980255"><ele>738.0</ele><time>2026-04-18T08:59:01.785Z</time></trkpt><trkpt lat="42.1393817" lon="-7.98029"><ele>738.0</ele><time>2026-04-18T08:59:02.786Z</time></trkpt><trkpt lat="42.1392817" lon="-7.98031"><ele>738.0</ele><time>2026-04-18T08:59:04.784Z</time></trkpt><trkpt lat="42.1391983" lon="-7.9802933"><ele>738.0</ele><time>2026-04-18T08:59:06.788Z</time></trkpt><trkpt lat="42.1391233" lon="-7.9802383"><ele>738.0</ele><time>2026-04-18T08:59:08.785Z</time></trkpt><trkpt lat="42.1390417" lon="-7.9801183"><ele>738.3333333333334</ele><time>2026-04-18T08:59:10.785Z</time></trkpt><trkpt lat="42.1389967" lon="-7.9800167"><ele>738.6666666666666</ele><time>2026-04-18T08:59:11.787Z</time></trkpt><trkpt lat="42.138945" lon="-7.9799167"><ele>739.0</ele><time>2026-04-18T08:59:12.785Z</time></trkpt><trkpt lat="42.1388933" lon="-7.9798233"><ele>739.3333333333333</ele><time>2026-04-18T08:59:13.785Z</time></trkpt><trkpt lat="42.1388467" lon="-7.9797383"><ele>739.6666666666666</ele><time>2026-04-18T08:59:14.786Z</time></trkpt><trkpt lat="42.1388017" lon="-7.9796467"><ele>740.0</ele><time>2026-04-18T08:59:15.788Z</time></trkpt><trkpt lat="42.1387633" lon="-7.9795433"><ele>740.0</ele><time>2026-04-18T08:59:16.787Z</time></trkpt><trkpt lat="42.1387333" lon="-7.97944"><ele>740.0</ele><time>2026-04-18T08:59:17.785Z</time></trkpt><trkpt lat="42.1387133" lon="-7.9793317"><ele>740.0</ele><time>2026-04-18T08:59:18.785Z</time></trkpt><trkpt lat="42.1386983" lon="-7.97923"><ele>740.0</ele><time>2026-04-18T08:59:19.785Z</time></trkpt><trkpt lat="42.138705" lon="-7.9791133"><ele>740.0</ele><time>2026-04-18T08:59:20.786Z</time></trkpt><trkpt lat="42.1387133" lon="-7.9790133"><ele>740.0</ele><time>2026-04-18T08:59:21.785Z</time></trkpt><trkpt lat="42.1387217" lon="-7.9789283"><ele>738.2</ele><time>2026-04-18T08:59:22.784Z</time></trkpt><trkpt lat="42.1387533" lon="-7.9787917"><ele>736.4</ele><time>2026-04-18T08:59:24.785Z</time></trkpt><trkpt lat="42.138785" lon="-7.9787117"><ele>734.5999999999999</ele><time>2026-04-18T08:59:25.788Z</time></trkpt><trkpt lat="42.1388333" lon="-7.97862"><ele>732.8</ele><time>2026-04-18T08:59:26.785Z</time></trkpt><trkpt lat="42.1388917" lon="-7.9785383"><ele>731.0</ele><time>2026-04-18T08:59:27.784Z</time></trkpt><trkpt lat="42.1390217" lon="-7.9784483"><ele>730.0</ele><time>2026-04-18T08:59:28.784Z</time></trkpt><trkpt lat="42.1391267" lon="-7.9783833"><ele>729.0</ele><time>2026-04-18T08:59:29.786Z</time></trkpt><trkpt lat="42.1392383" lon="-7.9783617"><ele>728.0</ele><time>2026-04-18T08:59:30.787Z</time></trkpt><trkpt lat="42.139345" lon="-7.9783283"><ele>727.0</ele><time>2026-04-18T08:59:31.785Z</time></trkpt><trkpt lat="42.1394717" lon="-7.9782917"><ele>724.5</ele><time>2026-04-18T08:59:32.785Z</time></trkpt><trkpt lat="42.1395983" lon="-7.9783067"><ele>722.0</ele><time>2026-04-18T08:59:33.786Z</time></trkpt><trkpt lat="42.1397083" lon="-7.97832"><ele>719.5</ele><time>2026-04-18T08:59:34.784Z</time></trkpt><trkpt lat="42.1398267" lon="-7.97832"><ele>717.0</ele><time>2026-04-18T08:59:35.786Z</time></trkpt><trkpt lat="42.1399383" lon="-7.9783033"><ele>715.6</ele><time>2026-04-18T08:59:36.785Z</time></trkpt><trkpt lat="42.140035" lon="-7.97828"><ele>714.2</ele><time>2026-04-18T08:59:37.784Z</time></trkpt><trkpt lat="42.1401317" lon="-7.978255"><ele>712.8</ele><time>2026-04-18T08:59:38.786Z</time></trkpt><trkpt lat="42.140215" lon="-7.9782467"><ele>711.4</ele><time>2026-04-18T08:59:39.785Z</time></trkpt><trkpt lat="42.1402867" lon="-7.9782383"><ele>710.0</ele><time>2026-04-18T08:59:40.784Z</time></trkpt><trkpt lat="42.140405" lon="-7.978195"><ele>710.0</ele><time>2026-04-18T08:59:42.785Z</time></trkpt><trkpt lat="42.1405233" lon="-7.97814"><ele>710.0</ele><time>2026-04-18T08:59:44.785Z</time></trkpt><trkpt lat="42.14059" lon="-7.97807"><ele>710.0</ele><time>2026-04-18T08:59:46.785Z</time></trkpt><trkpt lat="42.1406133" lon="-7.97794"><ele>710.0</ele><time>2026-04-18T08:59:48.786Z</time></trkpt><trkpt lat="42.1406367" lon="-7.9778583"><ele>710.0</ele><time>2026-04-18T08:59:49.786Z</time></trkpt><trkpt lat="42.1406717" lon="-7.9777717"><ele>710.0</ele><time>2026-04-18T08:59:50.785Z</time></trkpt><trkpt lat="42.1407017" lon="-7.9776967"><ele>710.0</ele><time>2026-04-18T08:59:51.784Z</time></trkpt><trkpt lat="42.1407117" lon="-7.9775867"><ele>710.0</ele><time>2026-04-18T08:59:53.787Z</time></trkpt><trkpt lat="42.14069" lon="-7.9774883"><ele>710.0</ele><time>2026-04-18T08:59:55.785Z</time></trkpt><trkpt lat="42.1405783" lon="-7.9774633"><ele>710.0</ele><time>2026-04-18T08:59:58.786Z</time></trkpt><trkpt lat="42.1405117" lon="-7.9774533"><ele>710.0</ele><time>2026-04-18T08:59:59.784Z</time></trkpt><trkpt lat="42.1404367" lon="-7.9774333"><ele>710.0</ele><time>2026-04-18T09:00:00.785Z</time></trkpt><trkpt lat="42.140365" lon="-7.97739"><ele>707.8</ele><time>2026-04-18T09:00:01.784Z</time></trkpt><trkpt lat="42.1403033" lon="-7.9773417"><ele>705.6</ele><time>2026-04-18T09:00:02.785Z</time></trkpt><trkpt lat="42.1402367" lon="-7.9772767"><ele>703.4000000000001</ele><time>2026-04-18T09:00:03.785Z</time></trkpt><trkpt lat="42.1401633" lon="-7.9771817"><ele>701.2</ele><time>2026-04-18T09:00:04.785Z</time></trkpt><trkpt lat="42.1401017" lon="-7.9770683"><ele>699.0</ele><time>2026-04-18T09:00:05.785Z</time></trkpt><trkpt lat="42.140055" lon="-7.9769533"><ele>699.0</ele><time>2026-04-18T09:00:06.785Z</time></trkpt><trkpt lat="42.140035" lon="-7.9768183"><ele>699.0</ele><time>2026-04-18T09:00:07.786Z</time></trkpt><trkpt lat="42.1400383" lon="-7.9766433"><ele>699.0</ele><time>2026-04-18T09:00:08.787Z</time></trkpt><trkpt lat="42.140035" lon="-7.9764633"><ele>699.0</ele><time>2026-04-18T09:00:09.785Z</time></trkpt><trkpt lat="42.14004" lon="-7.9762833"><ele>697.5</ele><time>2026-04-18T09:00:10.784Z</time></trkpt><trkpt lat="42.1400483" lon="-7.9761033"><ele>696.0</ele><time>2026-04-18T09:00:11.787Z</time></trkpt><trkpt lat="42.1400517" lon="-7.97592"><ele>694.5</ele><time>2026-04-18T09:00:12.785Z</time></trkpt><trkpt lat="42.140055" lon="-7.97574"><ele>693.0</ele><time>2026-04-18T09:00:13.785Z</time></trkpt><trkpt lat="42.1400567" lon="-7.97556"><ele>692.5999999999999</ele><time>2026-04-18T09:00:14.785Z</time></trkpt><trkpt lat="42.1400567" lon="-7.975385"><ele>692.1999999999999</ele><time>2026-04-18T09:00:15.785Z</time></trkpt><trkpt lat="42.14006" lon="-7.975225"><ele>691.8</ele><time>2026-04-18T09:00:16.787Z</time></trkpt><trkpt lat="42.1400617" lon="-7.9751083"><ele>691.4</ele><time>2026-04-18T09:00:17.784Z</time></trkpt><trkpt lat="42.140055" lon="-7.9750233"><ele>691.0</ele><time>2026-04-18T09:00:18.785Z</time></trkpt><trkpt lat="42.1400383" lon="-7.974935"><ele>691.0</ele><time>2026-04-18T09:00:20.786Z</time></trkpt><trkpt lat="42.1399583" lon="-7.9749283"><ele>691.0</ele><time>2026-04-18T09:00:22.787Z</time></trkpt><trkpt lat="42.1398833" lon="-7.9749967"><ele>691.0</ele><time>2026-04-18T09:00:23.787Z</time></trkpt><trkpt lat="42.1398167" lon="-7.975055"><ele>691.0</ele><time>2026-04-18T09:00:24.786Z</time></trkpt><trkpt lat="42.1397217" lon="-7.9751083"><ele>691.0</ele><time>2026-04-18T09:00:25.785Z</time></trkpt><trkpt lat="42.1396217" lon="-7.9751567"><ele>692.25</ele><time>2026-04-18T09:00:26.786Z</time></trkpt><trkpt lat="42.1394717" lon="-7.9752333"><ele>693.5</ele><time>2026-04-18T09:00:27.785Z</time></trkpt><trkpt lat="42.1393417" lon="-7.975275"><ele>694.75</ele><time>2026-04-18T09:00:28.784Z</time></trkpt><trkpt lat="42.1392067" lon="-7.975315"><ele>696.0</ele><time>2026-04-18T09:00:29.785Z</time></trkpt><trkpt lat="42.13908" lon="-7.9753533"><ele>698.75</ele><time>2026-04-18T09:00:30.786Z</time></trkpt><trkpt lat="42.1389517" lon="-7.9754033"><ele>701.5</ele><time>2026-04-18T09:00:31.784Z</time></trkpt><trkpt lat="42.138825" lon="-7.9754667"><ele>704.25</ele><time>2026-04-18T09:00:32.786Z</time></trkpt><trkpt lat="42.1386983" lon="-7.9755317"><ele>707.0</ele><time>2026-04-18T09:00:33.785Z</time></trkpt><trkpt lat="42.1385783" lon="-7.9755917"><ele>707.0</ele><time>2026-04-18T09:00:34.785Z</time></trkpt><trkpt lat="42.1384633" lon="-7.9756317"><ele>707.0</ele><time>2026-04-18T09:00:35.784Z</time></trkpt><trkpt lat="42.1383483" lon="-7.975655"><ele>707.0</ele><time>2026-04-18T09:00:36.785Z</time></trkpt><trkpt lat="42.1382383" lon="-7.9756633"><ele>707.0</ele><time>2026-04-18T09:00:37.785Z</time></trkpt><trkpt lat="42.1381217" lon="-7.97566"><ele>709.0</ele><time>2026-04-18T09:00:38.784Z</time></trkpt><trkpt lat="42.138" lon="-7.9756533"><ele>711.0</ele><time>2026-04-18T09:00:39.786Z</time></trkpt><trkpt lat="42.1378833" lon="-7.9756467"><ele>713.0</ele><time>2026-04-18T09:00:40.787Z</time></trkpt><trkpt lat="42.1377667" lon="-7.9756367"><ele>715.0</ele><time>2026-04-18T09:00:41.784Z</time></trkpt><trkpt lat="42.137655" lon="-7.975625"><ele>715.0</ele><time>2026-04-18T09:00:42.785Z</time></trkpt><trkpt lat="42.1375417" lon="-7.9756167"><ele>715.0</ele><time>2026-04-18T09:00:43.784Z</time></trkpt><trkpt lat="42.1374483" lon="-7.9756067"><ele>715.0</ele><time>2026-04-18T09:00:44.786Z</time></trkpt><trkpt lat="42.1373783" lon="-7.975595"><ele>715.0</ele><time>2026-04-18T09:00:45.785Z</time></trkpt><trkpt lat="42.1372867" lon="-7.9755717"><ele>715.0</ele><time>2026-04-18T09:00:47.784Z</time></trkpt><trkpt lat="42.1372383" lon="-7.9754833"><ele>716.4</ele><time>2026-04-18T09:00:49.787Z</time></trkpt><trkpt lat="42.1372483" lon="-7.9753233"><ele>717.8</ele><time>2026-04-18T09:00:51.785Z</time></trkpt><trkpt lat="42.1372783" lon="-7.97524"><ele>719.2</ele><time>2026-04-18T09:00:52.785Z</time></trkpt><trkpt lat="42.1372867" lon="-7.9750683"><ele>720.6</ele><time>2026-04-18T09:00:54.785Z</time></trkpt><trkpt lat="42.1372767" lon="-7.97498"><ele>722.0</ele><time>2026-04-18T09:00:55.784Z</time></trkpt><trkpt lat="42.1372333" lon="-7.9748317"><ele>722.25</ele><time>2026-04-18T09:00:57.785Z</time></trkpt><trkpt lat="42.1372467" lon="-7.97462"><ele>722.5</ele><time>2026-04-18T09:00:59.785Z</time></trkpt><trkpt lat="42.13727" lon="-7.9744833"><ele>722.75</ele><time>2026-04-18T09:01:00.785Z</time></trkpt><trkpt lat="42.137295" lon="-7.9743583"><ele>723.0</ele><time>2026-04-18T09:01:01.784Z</time></trkpt><trkpt lat="42.1373167" lon="-7.9742333"><ele>721.6666666666666</ele><time>2026-04-18T09:01:02.786Z</time></trkpt><trkpt lat="42.1373217" lon="-7.9741167"><ele>720.3333333333334</ele><time>2026-04-18T09:01:03.786Z</time></trkpt><trkpt lat="42.1373167" lon="-7.9740067"><ele>719.0</ele><time>2026-04-18T09:01:04.786Z</time></trkpt><trkpt lat="42.13729" lon="-7.9738733"><ele>717.6666666666667</ele><time>2026-04-18T09:01:06.786Z</time></trkpt><trkpt lat="42.1372517" lon="-7.9737967"><ele>716.3333333333334</ele><time>2026-04-18T09:01:08.785Z</time></trkpt><trkpt lat="42.1372817" lon="-7.9736833"><ele>715.0</ele><time>2026-04-18T09:01:12.783Z</time></trkpt><trkpt lat="42.1374" lon="-7.9736083"><ele>715.0</ele><time>2026-04-18T09:01:14.787Z</time></trkpt><trkpt lat="42.1374667" lon="-7.9735833"><ele>715.0</ele><time>2026-04-18T09:01:15.784Z</time></trkpt><trkpt lat="42.1375367" lon="-7.9735567"><ele>715.0</ele><time>2026-04-18T09:01:16.784Z</time></trkpt><trkpt lat="42.1376117" lon="-7.973535"><ele>715.0</ele><time>2026-04-18T09:01:17.784Z</time></trkpt><trkpt lat="42.1376933" lon="-7.9735083"><ele>715.0</ele><time>2026-04-18T09:01:18.784Z</time></trkpt><trkpt lat="42.1377783" lon="-7.9734817"><ele>715.0</ele><time>2026-04-18T09:01:19.785Z</time></trkpt><trkpt lat="42.13787" lon="-7.9734617"><ele>715.0</ele><time>2026-04-18T09:01:20.784Z</time></trkpt><trkpt lat="42.1379683" lon="-7.9734417"><ele>715.0</ele><time>2026-04-18T09:01:21.784Z</time></trkpt><trkpt lat="42.1380667" lon="-7.973435"><ele>715.0</ele><time>2026-04-18T09:01:22.784Z</time></trkpt><trkpt lat="42.1381583" lon="-7.9734333"><ele>715.0</ele><time>2026-04-18T09:01:23.785Z</time></trkpt><trkpt lat="42.13825" lon="-7.97343"><ele>715.0</ele><time>2026-04-18T09:01:24.784Z</time></trkpt><trkpt lat="42.138335" lon="-7.973425"><ele>714.6666666666667</ele><time>2026-04-18T09:01:25.783Z</time></trkpt><trkpt lat="42.1384167" lon="-7.9734133"><ele>714.3333333333334</ele><time>2026-04-18T09:01:26.785Z</time></trkpt><trkpt lat="42.138505" lon="-7.9733983"><ele>714.0</ele><time>2026-04-18T09:01:27.785Z</time></trkpt><trkpt lat="42.1385983" lon="-7.9733783"><ele>713.6666666666666</ele><time>2026-04-18T09:01:28.784Z</time></trkpt><trkpt lat="42.13869" lon="-7.973355"><ele>713.3333333333333</ele><time>2026-04-18T09:01:29.785Z</time></trkpt><trkpt lat="42.1387783" lon="-7.973335"><ele>713.0</ele><time>2026-04-18T09:01:30.784Z</time></trkpt><trkpt lat="42.1388717" lon="-7.9733217"><ele>708.8</ele><time>2026-04-18T09:01:31.784Z</time></trkpt><trkpt lat="42.1389733" lon="-7.97331"><ele>704.5999999999999</ele><time>2026-04-18T09:01:32.787Z</time></trkpt><trkpt lat="42.13907" lon="-7.9732867"><ele>700.4000000000001</ele><time>2026-04-18T09:01:33.783Z</time></trkpt><trkpt lat="42.1391817" lon="-7.97326"><ele>696.2</ele><time>2026-04-18T09:01:34.785Z</time></trkpt><trkpt lat="42.1392967" lon="-7.9732217"><ele>692.0</ele><time>2026-04-18T09:01:35.783Z</time></trkpt><trkpt lat="42.1394083" lon="-7.9731833"><ele>690.2</ele><time>2026-04-18T09:01:36.785Z</time></trkpt><trkpt lat="42.1395033" lon="-7.9731533"><ele>688.4000000000001</ele><time>2026-04-18T09:01:37.786Z</time></trkpt><trkpt lat="42.139595" lon="-7.973115"><ele>686.5999999999999</ele><time>2026-04-18T09:01:38.784Z</time></trkpt><trkpt lat="42.1396867" lon="-7.9730883"><ele>684.8</ele><time>2026-04-18T09:01:39.783Z</time></trkpt><trkpt lat="42.13977" lon="-7.9730417"><ele>683.0</ele><time>2026-04-18T09:01:40.784Z</time></trkpt><trkpt lat="42.1398567" lon="-7.973005"><ele>682.2</ele><time>2026-04-18T09:01:41.784Z</time></trkpt><trkpt lat="42.1399417" lon="-7.9729617"><ele>681.4</ele><time>2026-04-18T09:01:42.784Z</time></trkpt><trkpt lat="42.140045" lon="-7.972885"><ele>680.6</ele><time>2026-04-18T09:01:43.784Z</time></trkpt><trkpt lat="42.14014" lon="-7.9728383"><ele>679.8000000000001</ele><time>2026-04-18T09:01:44.784Z</time></trkpt><trkpt lat="42.1402333" lon="-7.972795"><ele>679.0</ele><time>2026-04-18T09:01:45.786Z</time></trkpt><trkpt lat="42.1403067" lon="-7.9727717"><ele>679.0</ele><time>2026-04-18T09:01:46.783Z</time></trkpt><trkpt lat="42.1403733" lon="-7.9727517"><ele>679.0</ele><time>2026-04-18T09:01:47.786Z</time></trkpt><trkpt lat="42.14044" lon="-7.9727167"><ele>679.0</ele><time>2026-04-18T09:01:48.787Z</time></trkpt><trkpt lat="42.1405" lon="-7.97269"><ele>679.0</ele><time>2026-04-18T09:01:49.784Z</time></trkpt><trkpt lat="42.1405267" lon="-7.9726083"><ele>679.0</ele><time>2026-04-18T09:01:52.786Z</time></trkpt><trkpt lat="42.14046" lon="-7.9725467"><ele>679.0</ele><time>2026-04-18T09:01:54.785Z</time></trkpt><trkpt lat="42.1403933" lon="-7.9724983"><ele>679.0</ele><time>2026-04-18T09:01:55.785Z</time></trkpt><trkpt lat="42.1403317" lon="-7.972445"><ele>676.0</ele><time>2026-04-18T09:01:56.784Z</time></trkpt><trkpt lat="42.1402433" lon="-7.9723983"><ele>673.0</ele><time>2026-04-18T09:01:57.783Z</time></trkpt><trkpt lat="42.1401317" lon="-7.972365"><ele>670.0</ele><time>2026-04-18T09:01:58.784Z</time></trkpt><trkpt lat="42.139975" lon="-7.9723517"><ele>667.0</ele><time>2026-04-18T09:01:59.785Z</time></trkpt><trkpt lat="42.1398567" lon="-7.9723517"><ele>667.0</ele><time>2026-04-18T09:02:00.784Z</time></trkpt><trkpt lat="42.1396983" lon="-7.9723583"><ele>667.0</ele><time>2026-04-18T09:02:01.784Z</time></trkpt><trkpt lat="42.1395267" lon="-7.9723483"><ele>667.0</ele><time>2026-04-18T09:02:02.784Z</time></trkpt><trkpt lat="42.139365" lon="-7.9723533"><ele>667.0</ele><time>2026-04-18T09:02:03.785Z</time></trkpt><trkpt lat="42.1392283" lon="-7.9723433"><ele>667.0</ele><time>2026-04-18T09:02:04.784Z</time></trkpt><trkpt lat="42.1390817" lon="-7.972315"><ele>667.0</ele><time>2026-04-18T09:02:05.787Z</time></trkpt><trkpt lat="42.1389383" lon="-7.97228"><ele>667.0</ele><time>2026-04-18T09:02:06.786Z</time></trkpt><trkpt lat="42.13881" lon="-7.97224"><ele>668.5</ele><time>2026-04-18T09:02:07.785Z</time></trkpt><trkpt lat="42.13868" lon="-7.972185"><ele>670.0</ele><time>2026-04-18T09:02:08.785Z</time></trkpt><trkpt lat="42.1385533" lon="-7.9721283"><ele>671.5</ele><time>2026-04-18T09:02:09.787Z</time></trkpt><trkpt lat="42.13842" lon="-7.97206"><ele>673.0</ele><time>2026-04-18T09:02:10.784Z</time></trkpt><trkpt lat="42.1382883" lon="-7.97196"><ele>674.5</ele><time>2026-04-18T09:02:11.785Z</time></trkpt><trkpt lat="42.138185" lon="-7.97188"><ele>676.0</ele><time>2026-04-18T09:02:12.786Z</time></trkpt><trkpt lat="42.1380867" lon="-7.9718117"><ele>677.5</ele><time>2026-04-18T09:02:13.788Z</time></trkpt><trkpt lat="42.1379817" lon="-7.9717633"><ele>679.0</ele><time>2026-04-18T09:02:14.787Z</time></trkpt><trkpt lat="42.1378683" lon="-7.9717533"><ele>679.0</ele><time>2026-04-18T09:02:15.783Z</time></trkpt><trkpt lat="42.137755" lon="-7.9717633"><ele>679.0</ele><time>2026-04-18T09:02:16.783Z</time></trkpt><trkpt lat="42.1376417" lon="-7.97179"><ele>679.0</ele><time>2026-04-18T09:02:17.784Z</time></trkpt><trkpt lat="42.1375233" lon="-7.9718317"><ele>679.0</ele><time>2026-04-18T09:02:18.784Z</time></trkpt><trkpt lat="42.13741" lon="-7.971885"><ele>679.8000000000001</ele><time>2026-04-18T09:02:19.784Z</time></trkpt><trkpt lat="42.1373067" lon="-7.9719333"><ele>680.6</ele><time>2026-04-18T09:02:20.784Z</time></trkpt><trkpt lat="42.1372017" lon="-7.9719667"><ele>681.4</ele><time>2026-04-18T09:02:21.784Z</time></trkpt><trkpt lat="42.1370917" lon="-7.9719967"><ele>682.2</ele><time>2026-04-18T09:02:22.783Z</time></trkpt><trkpt lat="42.1369867" lon="-7.9720267"><ele>683.0</ele><time>2026-04-18T09:02:23.784Z</time></trkpt><trkpt lat="42.136885" lon="-7.9720533"><ele>683.0</ele><time>2026-04-18T09:02:24.785Z</time></trkpt><trkpt lat="42.1367833" lon="-7.972075"><ele>683.0</ele><time>2026-04-18T09:02:25.783Z</time></trkpt><trkpt lat="42.1366833" lon="-7.9720933"><ele>683.0</ele><time>2026-04-18T09:02:26.784Z</time></trkpt><trkpt lat="42.1365767" lon="-7.97211"><ele>683.0</ele><time>2026-04-18T09:02:27.784Z</time></trkpt><trkpt lat="42.1364733" lon="-7.9721283"><ele>683.0</ele><time>2026-04-18T09:02:28.785Z</time></trkpt><trkpt lat="42.1363883" lon="-7.972145"><ele>683.3333333333333</ele><time>2026-04-18T09:02:29.784Z</time></trkpt><trkpt lat="42.136315" lon="-7.97216"><ele>683.6666666666666</ele><time>2026-04-18T09:02:30.785Z</time></trkpt><trkpt lat="42.1362483" lon="-7.97217"><ele>684.0</ele><time>2026-04-18T09:02:31.784Z</time></trkpt><trkpt lat="42.136145" lon="-7.9721533"><ele>684.3333333333334</ele><time>2026-04-18T09:02:33.784Z</time></trkpt><trkpt lat="42.1360617" lon="-7.9721217"><ele>684.6666666666667</ele><time>2026-04-18T09:02:35.784Z</time></trkpt><trkpt lat="42.13602" lon="-7.972045"><ele>685.0</ele><time>2026-04-18T09:02:37.784Z</time></trkpt><trkpt lat="42.13601" lon="-7.9719267"><ele>685.0</ele><time>2026-04-18T09:02:39.785Z</time></trkpt><trkpt lat="42.136075" lon="-7.9717667"><ele>685.0</ele><time>2026-04-18T09:02:41.784Z</time></trkpt><trkpt lat="42.136145" lon="-7.971675"><ele>685.0</ele><time>2026-04-18T09:02:42.787Z</time></trkpt><trkpt lat="42.136215" lon="-7.9715967"><ele>685.0</ele><time>2026-04-18T09:02:43.783Z</time></trkpt><trkpt lat="42.13627" lon="-7.9715267"><ele>685.0</ele><time>2026-04-18T09:02:44.784Z</time></trkpt><trkpt lat="42.136415" lon="-7.9713883"><ele>685.6</ele><time>2026-04-18T09:02:45.783Z</time></trkpt><trkpt lat="42.1364683" lon="-7.9713167"><ele>686.2</ele><time>2026-04-18T09:02:46.785Z</time></trkpt><trkpt lat="42.13654" lon="-7.9712483"><ele>686.8</ele><time>2026-04-18T09:02:47.784Z</time></trkpt><trkpt lat="42.1366117" lon="-7.97118"><ele>687.4</ele><time>2026-04-18T09:02:48.785Z</time></trkpt><trkpt lat="42.1367117" lon="-7.97113"><ele>688.0</ele><time>2026-04-18T09:02:49.784Z</time></trkpt><trkpt lat="42.136795" lon="-7.97107"><ele>685.3333333333334</ele><time>2026-04-18T09:02:50.784Z</time></trkpt><trkpt lat="42.1368783" lon="-7.971015"><ele>682.6666666666667</ele><time>2026-04-18T09:02:51.784Z</time></trkpt><trkpt lat="42.136955" lon="-7.9709783"><ele>680.0</ele><time>2026-04-18T09:02:52.783Z</time></trkpt><trkpt lat="42.1370417" lon="-7.97095"><ele>677.3333333333334</ele><time>2026-04-18T09:02:53.786Z</time></trkpt><trkpt lat="42.13712" lon="-7.9709233"><ele>674.6666666666666</ele><time>2026-04-18T09:02:54.784Z</time></trkpt><trkpt lat="42.1371817" lon="-7.970895"><ele>672.0</ele><time>2026-04-18T09:02:55.784Z</time></trkpt><trkpt lat="42.13729" lon="-7.9708133"><ele>672.0</ele><time>2026-04-18T09:02:57.784Z</time></trkpt><trkpt lat="42.137345" lon="-7.9707567"><ele>672.0</ele><time>2026-04-18T09:02:58.785Z</time></trkpt><trkpt lat="42.1373867" lon="-7.9706833"><ele>672.0</ele><time>2026-04-18T09:02:59.783Z</time></trkpt><trkpt lat="42.1374" lon="-7.9705733"><ele>672.0</ele><time>2026-04-18T09:03:00.785Z</time></trkpt><trkpt lat="42.1374383" lon="-7.9704817"><ele>672.0</ele><time>2026-04-18T09:03:01.784Z</time></trkpt><trkpt lat="42.13748" lon="-7.97038"><ele>672.0</ele><time>2026-04-18T09:03:02.784Z</time></trkpt><trkpt lat="42.1375333" lon="-7.970275"><ele>668.6</ele><time>2026-04-18T09:03:03.783Z</time></trkpt><trkpt lat="42.1376083" lon="-7.9701633"><ele>665.2</ele><time>2026-04-18T09:03:04.783Z</time></trkpt><trkpt lat="42.13768" lon="-7.97006"><ele>661.8</ele><time>2026-04-18T09:03:05.784Z</time></trkpt><trkpt lat="42.13776" lon="-7.9699717"><ele>658.4</ele><time>2026-04-18T09:03:06.784Z</time></trkpt><trkpt lat="42.137825" lon="-7.969895"><ele>655.0</ele><time>2026-04-18T09:03:07.784Z</time></trkpt><trkpt lat="42.1378833" lon="-7.96979"><ele>654.6666666666667</ele><time>2026-04-18T09:03:08.785Z</time></trkpt><trkpt lat="42.1379333" lon="-7.9696833"><ele>654.3333333333334</ele><time>2026-04-18T09:03:09.784Z</time></trkpt><trkpt lat="42.1379567" lon="-7.9695533"><ele>654.0</ele><time>2026-04-18T09:03:10.784Z</time></trkpt><trkpt lat="42.1379733" lon="-7.9694183"><ele>653.6666666666666</ele><time>2026-04-18T09:03:11.784Z</time></trkpt><trkpt lat="42.13799" lon="-7.96932"><ele>653.3333333333333</ele><time>2026-04-18T09:03:12.785Z</time></trkpt><trkpt lat="42.1379933" lon="-7.9692317"><ele>653.0</ele><time>2026-04-18T09:03:13.784Z</time></trkpt><trkpt lat="42.1380017" lon="-7.969135"><ele>653.5714285714287</ele><time>2026-04-18T09:03:14.785Z</time></trkpt><trkpt lat="42.1380083" lon="-7.969045"><ele>654.1428571428571</ele><time>2026-04-18T09:03:15.785Z</time></trkpt><trkpt lat="42.13802" lon="-7.9689583"><ele>654.7142857142858</ele><time>2026-04-18T09:03:16.785Z</time></trkpt><trkpt lat="42.1380383" lon="-7.9688583"><ele>655.2857142857143</ele><time>2026-04-18T09:03:18.784Z</time></trkpt><trkpt lat="42.1381017" lon="-7.9688"><ele>655.8571428571429</ele><time>2026-04-18T09:03:21.784Z</time></trkpt><trkpt lat="42.1381783" lon="-7.9687617"><ele>656.4285714285714</ele><time>2026-04-18T09:03:24.784Z</time></trkpt><trkpt lat="42.1382467" lon="-7.9687283"><ele>657.0</ele><time>2026-04-18T09:03:27.784Z</time></trkpt><trkpt lat="42.138325" lon="-7.9686817"><ele>656.3333333333334</ele><time>2026-04-18T09:03:30.784Z</time></trkpt><trkpt lat="42.1383817" lon="-7.9686117"><ele>655.6666666666666</ele><time>2026-04-18T09:03:33.785Z</time></trkpt><trkpt lat="42.138445" lon="-7.9685517"><ele>655.0</ele><time>2026-04-18T09:03:35.783Z</time></trkpt><trkpt lat="42.1385283" lon="-7.9684367"><ele>654.3333333333333</ele><time>2026-04-18T09:03:38.784Z</time></trkpt><trkpt lat="42.1385767" lon="-7.9683617"><ele>653.6666666666666</ele><time>2026-04-18T09:03:40.783Z</time></trkpt><trkpt lat="42.1386367" lon="-7.968295"><ele>653.0</ele><time>2026-04-18T09:03:42.784Z</time></trkpt><trkpt lat="42.13872" lon="-7.96822"><ele>653.0</ele><time>2026-04-18T09:03:44.784Z</time></trkpt><trkpt lat="42.1387767" lon="-7.9681683"><ele>653.0</ele><time>2026-04-18T09:03:45.783Z</time></trkpt><trkpt lat="42.1388333" lon="-7.96811"><ele>653.0</ele><time>2026-04-18T09:03:46.783Z</time></trkpt><trkpt lat="42.1389067" lon="-7.96806"><ele>653.0</ele><time>2026-04-18T09:03:47.784Z</time></trkpt><trkpt lat="42.13902" lon="-7.9679783"><ele>653.0</ele><time>2026-04-18T09:03:49.785Z</time></trkpt><trkpt lat="42.1390817" lon="-7.9679"><ele>653.0</ele><time>2026-04-18T09:03:50.784Z</time></trkpt><trkpt lat="42.1391233" lon="-7.96781"><ele>651.2</ele><time>2026-04-18T09:03:51.784Z</time></trkpt><trkpt lat="42.1391983" lon="-7.96768"><ele>649.4</ele><time>2026-04-18T09:03:53.784Z</time></trkpt><trkpt lat="42.1392633" lon="-7.967555"><ele>647.6</ele><time>2026-04-18T09:03:55.784Z</time></trkpt><trkpt lat="42.139325" lon="-7.96744"><ele>645.8000000000001</ele><time>2026-04-18T09:03:57.784Z</time></trkpt><trkpt lat="42.13935" lon="-7.9673467"><ele>644.0</ele><time>2026-04-18T09:03:58.784Z</time></trkpt><trkpt lat="42.13939" lon="-7.9672117"><ele>644.0</ele><time>2026-04-18T09:04:00.784Z</time></trkpt><trkpt lat="42.1394817" lon="-7.9669417"><ele>644.0</ele><time>2026-04-18T09:04:02.785Z</time></trkpt><trkpt lat="42.139525" lon="-7.9668283"><ele>644.0</ele><time>2026-04-18T09:04:03.783Z</time></trkpt><trkpt lat="42.1395483" lon="-7.966735"><ele>644.0</ele><time>2026-04-18T09:04:04.785Z</time></trkpt><trkpt lat="42.139585" lon="-7.9666433"><ele>643.8333333333333</ele><time>2026-04-18T09:04:05.784Z</time></trkpt><trkpt lat="42.1396183" lon="-7.9665533"><ele>643.6666666666666</ele><time>2026-04-18T09:04:06.784Z</time></trkpt><trkpt lat="42.1396583" lon="-7.9664683"><ele>643.5</ele><time>2026-04-18T09:04:07.784Z</time></trkpt><trkpt lat="42.1396967" lon="-7.9663983"><ele>643.3333333333334</ele><time>2026-04-18T09:04:08.784Z</time></trkpt><trkpt lat="42.139745" lon="-7.96629"><ele>643.1666666666667</ele><time>2026-04-18T09:04:10.783Z</time></trkpt><trkpt lat="42.1397983" lon="-7.966195"><ele>643.0</ele><time>2026-04-18T09:04:12.784Z</time></trkpt><trkpt lat="42.13989" lon="-7.9661517"><ele>640.4</ele><time>2026-04-18T09:04:14.785Z</time></trkpt><trkpt lat="42.13997" lon="-7.96613"><ele>637.8</ele><time>2026-04-18T09:04:16.784Z</time></trkpt><trkpt lat="42.1400617" lon="-7.966135"><ele>635.2</ele><time>2026-04-18T09:04:18.784Z</time></trkpt><trkpt lat="42.140155" lon="-7.9661417"><ele>632.6</ele><time>2026-04-18T09:04:20.784Z</time></trkpt><trkpt lat="42.1402433" lon="-7.9661467"><ele>630.0</ele><time>2026-04-18T09:04:22.783Z</time></trkpt><trkpt lat="42.1403367" lon="-7.9661167"><ele>630.0</ele><time>2026-04-18T09:04:24.784Z</time></trkpt><trkpt lat="42.1404467" lon="-7.9661333"><ele>630.0</ele><time>2026-04-18T09:04:26.784Z</time></trkpt><trkpt lat="42.1405433" lon="-7.96613"><ele>630.0</ele><time>2026-04-18T09:04:27.787Z</time></trkpt><trkpt lat="42.1406133" lon="-7.9661483"><ele>630.0</ele><time>2026-04-18T09:04:28.784Z</time></trkpt><trkpt lat="42.1406833" lon="-7.966165"><ele>630.0</ele><time>2026-04-18T09:04:29.784Z</time></trkpt><trkpt lat="42.1407883" lon="-7.966175"><ele>627.2</ele><time>2026-04-18T09:04:31.784Z</time></trkpt><trkpt lat="42.1408633" lon="-7.9661933"><ele>624.4</ele><time>2026-04-18T09:04:33.785Z</time></trkpt><trkpt lat="42.1408467" lon="-7.9660683"><ele>621.6</ele><time>2026-04-18T09:04:43.784Z</time></trkpt><trkpt lat="42.1408133" lon="-7.9659033"><ele>618.8</ele><time>2026-04-18T09:04:45.784Z</time></trkpt><trkpt lat="42.1407933" lon="-7.9657967"><ele>616.0</ele><time>2026-04-18T09:04:46.783Z</time></trkpt><trkpt lat="42.14075" lon="-7.9656367"><ele>615.5</ele><time>2026-04-18T09:04:48.785Z</time></trkpt><trkpt lat="42.1406867" lon="-7.9654283"><ele>615.0</ele><time>2026-04-18T09:04:50.784Z</time></trkpt><trkpt lat="42.14071" lon="-7.9652817"><ele>614.5</ele><time>2026-04-18T09:04:52.784Z</time></trkpt><trkpt lat="42.1407267" lon="-7.9651717"><ele>614.0</ele><time>2026-04-18T09:04:53.784Z</time></trkpt><trkpt lat="42.14077" lon="-7.9650383"><ele>613.75</ele><time>2026-04-18T09:04:54.784Z</time></trkpt><trkpt lat="42.1408317" lon="-7.96484"><ele>613.5</ele><time>2026-04-18T09:04:55.786Z</time></trkpt><trkpt lat="42.1408633" lon="-7.9646633"><ele>613.25</ele><time>2026-04-18T09:04:56.783Z</time></trkpt><trkpt lat="42.1408583" lon="-7.964505"><ele>613.0</ele><time>2026-04-18T09:04:57.784Z</time></trkpt><trkpt lat="42.1408517" lon="-7.9643483"><ele>613.0</ele><time>2026-04-18T09:04:58.784Z</time></trkpt><trkpt lat="42.1408667" lon="-7.9642267"><ele>613.0</ele><time>2026-04-18T09:04:59.784Z</time></trkpt><trkpt lat="42.1408517" lon="-7.96414"><ele>613.0</ele><time>2026-04-18T09:05:00.784Z</time></trkpt><trkpt lat="42.1408267" lon="-7.9640167"><ele>613.0</ele><time>2026-04-18T09:05:01.783Z</time></trkpt><trkpt lat="42.1408083" lon="-7.963935"><ele>613.0</ele><time>2026-04-18T09:05:02.784Z</time></trkpt><trkpt lat="42.1408067" lon="-7.963845"><ele>613.0</ele><time>2026-04-18T09:05:03.784Z</time></trkpt><trkpt lat="42.1407417" lon="-7.9637433"><ele>616.75</ele><time>2026-04-18T09:05:05.785Z</time></trkpt><trkpt lat="42.1406233" lon="-7.96372"><ele>620.5</ele><time>2026-04-18T09:05:07.784Z</time></trkpt><trkpt lat="42.1405033" lon="-7.96374"><ele>624.25</ele><time>2026-04-18T09:05:08.784Z</time></trkpt><trkpt lat="42.14041" lon="-7.9637383"><ele>628.0</ele><time>2026-04-18T09:05:09.783Z</time></trkpt><trkpt lat="42.1402933" lon="-7.9636933"><ele>628.0</ele><time>2026-04-18T09:05:10.785Z</time></trkpt><trkpt lat="42.1401933" lon="-7.963675"><ele>628.0</ele><time>2026-04-18T09:05:11.783Z</time></trkpt><trkpt lat="42.1401283" lon="-7.9636567"><ele>628.0</ele><time>2026-04-18T09:05:12.784Z</time></trkpt><trkpt lat="42.1400783" lon="-7.9635733"><ele>628.0</ele><time>2026-04-18T09:05:14.784Z</time></trkpt><trkpt lat="42.1400417" lon="-7.9634933"><ele>628.0</ele><time>2026-04-18T09:05:16.784Z</time></trkpt><trkpt lat="42.140025" lon="-7.9633967"><ele>628.0</ele><time>2026-04-18T09:05:18.784Z</time></trkpt><trkpt lat="42.13994" lon="-7.9633167"><ele>631.1666666666667</ele><time>2026-04-18T09:05:22.784Z</time></trkpt><trkpt lat="42.139845" lon="-7.963225"><ele>634.3333333333334</ele><time>2026-04-18T09:05:24.785Z</time></trkpt><trkpt lat="42.13977" lon="-7.9631783"><ele>637.5</ele><time>2026-04-18T09:05:25.784Z</time></trkpt><trkpt lat="42.1396883" lon="-7.96315"><ele>640.6666666666666</ele><time>2026-04-18T09:05:26.785Z</time></trkpt><trkpt lat="42.1396283" lon="-7.9631183"><ele>643.8333333333333</ele><time>2026-04-18T09:05:27.784Z</time></trkpt><trkpt lat="42.13957" lon="-7.9630833"><ele>647.0</ele><time>2026-04-18T09:05:28.784Z</time></trkpt><trkpt lat="42.1395033" lon="-7.9630783"><ele>647.0</ele><time>2026-04-18T09:05:30.784Z</time></trkpt><trkpt lat="42.1394217" lon="-7.9630983"><ele>647.0</ele><time>2026-04-18T09:05:32.784Z</time></trkpt><trkpt lat="42.1393333" lon="-7.9631083"><ele>647.0</ele><time>2026-04-18T09:05:34.784Z</time></trkpt><trkpt lat="42.139245" lon="-7.9630683"><ele>647.0</ele><time>2026-04-18T09:05:36.784Z</time></trkpt><trkpt lat="42.1391867" lon="-7.9630267"><ele>647.0</ele><time>2026-04-18T09:05:38.785Z</time></trkpt><trkpt lat="42.13909" lon="-7.963"><ele>647.0</ele><time>2026-04-18T09:05:40.783Z</time></trkpt><trkpt lat="42.1390117" lon="-7.9629417"><ele>650.5</ele><time>2026-04-18T09:05:42.785Z</time></trkpt><trkpt lat="42.13893" lon="-7.96288"><ele>654.0</ele><time>2026-04-18T09:05:44.784Z</time></trkpt><trkpt lat="42.1388783" lon="-7.9628167"><ele>657.5</ele><time>2026-04-18T09:05:45.785Z</time></trkpt><trkpt lat="42.1388383" lon="-7.96275"><ele>661.0</ele><time>2026-04-18T09:05:46.784Z</time></trkpt><trkpt lat="42.1388" lon="-7.962665"><ele>664.5</ele><time>2026-04-18T09:05:47.783Z</time></trkpt><trkpt lat="42.1387183" lon="-7.962545"><ele>668.0</ele><time>2026-04-18T09:05:49.783Z</time></trkpt><trkpt lat="42.1386717" lon="-7.962465"><ele>668.0</ele><time>2026-04-18T09:05:50.784Z</time></trkpt><trkpt lat="42.1386233" lon="-7.9623583"><ele>668.0</ele><time>2026-04-18T09:05:51.783Z</time></trkpt><trkpt lat="42.1385717" lon="-7.9622567"><ele>668.0</ele><time>2026-04-18T09:05:52.784Z</time></trkpt><trkpt lat="42.1385183" lon="-7.962165"><ele>668.0</ele><time>2026-04-18T09:05:53.783Z</time></trkpt><trkpt lat="42.1384733" lon="-7.9620783"><ele>668.0</ele><time>2026-04-18T09:05:54.784Z</time></trkpt><trkpt lat="42.1384067" lon="-7.9620117"><ele>668.0</ele><time>2026-04-18T09:05:55.784Z</time></trkpt><trkpt lat="42.13834" lon="-7.9619617"><ele>668.0</ele><time>2026-04-18T09:05:56.784Z</time></trkpt><trkpt lat="42.1382783" lon="-7.9619217"><ele>668.0</ele><time>2026-04-18T09:05:57.784Z</time></trkpt><trkpt lat="42.1381967" lon="-7.9618933"><ele>668.0</ele><time>2026-04-18T09:05:58.784Z</time></trkpt><trkpt lat="42.1381017" lon="-7.9618583"><ele>668.0</ele><time>2026-04-18T09:05:59.785Z</time></trkpt><trkpt lat="42.1380267" lon="-7.9618083"><ele>668.0</ele><time>2026-04-18T09:06:00.784Z</time></trkpt><trkpt lat="42.1379567" lon="-7.961755"><ele>668.0</ele><time>2026-04-18T09:06:01.783Z</time></trkpt><trkpt lat="42.1378983" lon="-7.9617167"><ele>670.8</ele><time>2026-04-18T09:06:02.783Z</time></trkpt><trkpt lat="42.1377983" lon="-7.961675"><ele>673.5999999999999</ele><time>2026-04-18T09:06:04.784Z</time></trkpt><trkpt lat="42.13773" lon="-7.9616983"><ele>676.4000000000001</ele><time>2026-04-18T09:06:05.786Z</time></trkpt><trkpt lat="42.1376617" lon="-7.96171"><ele>679.2</ele><time>2026-04-18T09:06:06.784Z</time></trkpt><trkpt lat="42.1375533" lon="-7.96176"><ele>682.0</ele><time>2026-04-18T09:06:08.784Z</time></trkpt><trkpt lat="42.13746" lon="-7.9618833"><ele>682.5</ele><time>2026-04-18T09:06:10.784Z</time></trkpt><trkpt lat="42.1374433" lon="-7.9619717"><ele>683.0</ele><time>2026-04-18T09:06:11.784Z</time></trkpt><trkpt lat="42.1374367" lon="-7.9620717"><ele>683.5</ele><time>2026-04-18T09:06:12.784Z</time></trkpt><trkpt lat="42.1374383" lon="-7.9621983"><ele>684.0</ele><time>2026-04-18T09:06:13.786Z</time></trkpt><trkpt lat="42.1374117" lon="-7.962295"><ele>684.5</ele><time>2026-04-18T09:06:14.784Z</time></trkpt><trkpt lat="42.1373783" lon="-7.96238"><ele>685.0</ele><time>2026-04-18T09:06:15.785Z</time></trkpt><trkpt lat="42.1373383" lon="-7.96246"><ele>687.0</ele><time>2026-04-18T09:06:16.783Z</time></trkpt><trkpt lat="42.1372667" lon="-7.9625233"><ele>689.0</ele><time>2026-04-18T09:06:17.783Z</time></trkpt><trkpt lat="42.1372133" lon="-7.96258"><ele>691.0</ele><time>2026-04-18T09:06:18.787Z</time></trkpt><trkpt lat="42.1371033" lon="-7.962625"><ele>693.0</ele><time>2026-04-18T09:06:20.784Z</time></trkpt><trkpt lat="42.1370283" lon="-7.9626433"><ele>695.0</ele><time>2026-04-18T09:06:21.784Z</time></trkpt><trkpt lat="42.1369383" lon="-7.9626533"><ele>697.0</ele><time>2026-04-18T09:06:22.783Z</time></trkpt><trkpt lat="42.136855" lon="-7.96267"><ele>697.0</ele><time>2026-04-18T09:06:23.783Z</time></trkpt><trkpt lat="42.13677" lon="-7.9627"><ele>697.0</ele><time>2026-04-18T09:06:24.785Z</time></trkpt><trkpt lat="42.1367" lon="-7.9627433"><ele>697.0</ele><time>2026-04-18T09:06:25.784Z</time></trkpt><trkpt lat="42.136635" lon="-7.9627817"><ele>697.0</ele><time>2026-04-18T09:06:26.783Z</time></trkpt><trkpt lat="42.1365667" lon="-7.9628033"><ele>697.0</ele><time>2026-04-18T09:06:27.784Z</time></trkpt><trkpt lat="42.1364917" lon="-7.9628083"><ele>697.0</ele><time>2026-04-18T09:06:28.784Z</time></trkpt><trkpt lat="42.1364233" lon="-7.9628117"><ele>699.8</ele><time>2026-04-18T09:06:29.784Z</time></trkpt><trkpt lat="42.1363267" lon="-7.96275"><ele>702.6</ele><time>2026-04-18T09:06:31.783Z</time></trkpt><trkpt lat="42.1363017" lon="-7.9625967"><ele>705.4</ele><time>2026-04-18T09:06:33.784Z</time></trkpt><trkpt lat="42.1363033" lon="-7.9624583"><ele>708.1999999999999</ele><time>2026-04-18T09:06:34.783Z</time></trkpt><trkpt lat="42.13629" lon="-7.962325"><ele>711.0</ele><time>2026-04-18T09:06:35.784Z</time></trkpt><trkpt lat="42.136265" lon="-7.9622117"><ele>711.0</ele><time>2026-04-18T09:06:36.785Z</time></trkpt><trkpt lat="42.1362383" lon="-7.9620933"><ele>711.0</ele><time>2026-04-18T09:06:37.784Z</time></trkpt><trkpt lat="42.1362083" lon="-7.961945"><ele>711.0</ele><time>2026-04-18T09:06:38.784Z</time></trkpt><trkpt lat="42.136155" lon="-7.961835"><ele>711.0</ele><time>2026-04-18T09:06:39.785Z</time></trkpt><trkpt lat="42.1360967" lon="-7.9617333"><ele>711.0</ele><time>2026-04-18T09:06:40.783Z</time></trkpt><trkpt lat="42.1360367" lon="-7.96163"><ele>711.0</ele><time>2026-04-18T09:06:41.784Z</time></trkpt><trkpt lat="42.1359783" lon="-7.9615133"><ele>711.0</ele><time>2026-04-18T09:06:42.784Z</time></trkpt><trkpt lat="42.13592" lon="-7.9613717"><ele>711.0</ele><time>2026-04-18T09:06:43.783Z</time></trkpt><trkpt lat="42.1358633" lon="-7.9612383"><ele>711.0</ele><time>2026-04-18T09:06:44.784Z</time></trkpt><trkpt lat="42.1358017" lon="-7.9611367"><ele>711.0</ele><time>2026-04-18T09:06:45.784Z</time></trkpt><trkpt lat="42.1357483" lon="-7.9610717"><ele>713.1666666666666</ele><time>2026-04-18T09:06:46.783Z</time></trkpt><trkpt lat="42.135685" lon="-7.96102"><ele>715.3333333333334</ele><time>2026-04-18T09:06:47.784Z</time></trkpt><trkpt lat="42.1356083" lon="-7.9609883"><ele>717.5</ele><time>2026-04-18T09:06:48.784Z</time></trkpt><trkpt lat="42.135525" lon="-7.9609733"><ele>719.6666666666667</ele><time>2026-04-18T09:06:49.784Z</time></trkpt><trkpt lat="42.1353967" lon="-7.9610017"><ele>721.8333333333334</ele><time>2026-04-18T09:06:51.784Z</time></trkpt><trkpt lat="42.1353183" lon="-7.9610067"><ele>724.0</ele><time>2026-04-18T09:06:52.783Z</time></trkpt><trkpt lat="42.1352467" lon="-7.9610367"><ele>724.0</ele><time>2026-04-18T09:06:53.786Z</time></trkpt><trkpt lat="42.1351617" lon="-7.9610767"><ele>724.0</ele><time>2026-04-18T09:06:54.784Z</time></trkpt><trkpt lat="42.135065" lon="-7.961115"><ele>724.0</ele><time>2026-04-18T09:06:55.783Z</time></trkpt><trkpt lat="42.1349817" lon="-7.9611233"><ele>724.0</ele><time>2026-04-18T09:06:56.784Z</time></trkpt><trkpt lat="42.1349" lon="-7.9611083"><ele>724.0</ele><time>2026-04-18T09:06:57.784Z</time></trkpt><trkpt lat="42.134815" lon="-7.9610833"><ele>724.0</ele><time>2026-04-18T09:06:58.783Z</time></trkpt><trkpt lat="42.1347383" lon="-7.961065"><ele>725.4285714285714</ele><time>2026-04-18T09:06:59.785Z</time></trkpt><trkpt lat="42.134665" lon="-7.9610483"><ele>726.8571428571429</ele><time>2026-04-18T09:07:00.785Z</time></trkpt><trkpt lat="42.1345933" lon="-7.9610517"><ele>728.2857142857142</ele><time>2026-04-18T09:07:01.784Z</time></trkpt><trkpt lat="42.1345333" lon="-7.96108"><ele>729.7142857142858</ele><time>2026-04-18T09:07:02.784Z</time></trkpt><trkpt lat="42.1344967" lon="-7.96116"><ele>731.1428571428572</ele><time>2026-04-18T09:07:03.784Z</time></trkpt><trkpt lat="42.134455" lon="-7.9612517"><ele>732.5714285714286</ele><time>2026-04-18T09:07:04.784Z</time></trkpt><trkpt lat="42.1344367" lon="-7.9613683"><ele>734.0</ele><time>2026-04-18T09:07:05.783Z</time></trkpt><trkpt lat="42.1344217" lon="-7.9614817"><ele>734.0</ele><time>2026-04-18T09:07:06.784Z</time></trkpt><trkpt lat="42.1343917" lon="-7.96158"><ele>734.0</ele><time>2026-04-18T09:07:07.784Z</time></trkpt><trkpt lat="42.1343367" lon="-7.9616567"><ele>734.0</ele><time>2026-04-18T09:07:08.784Z</time></trkpt><trkpt lat="42.1342717" lon="-7.9617333"><ele>734.0</ele><time>2026-04-18T09:07:09.784Z</time></trkpt><trkpt lat="42.13421" lon="-7.9618267"><ele>734.0</ele><time>2026-04-18T09:07:10.783Z</time></trkpt><trkpt lat="42.1341433" lon="-7.961925"><ele>734.0</ele><time>2026-04-18T09:07:11.784Z</time></trkpt><trkpt lat="42.1340867" lon="-7.9620283"><ele>735.0</ele><time>2026-04-18T09:07:12.784Z</time></trkpt><trkpt lat="42.1340417" lon="-7.9621233"><ele>736.0</ele><time>2026-04-18T09:07:13.784Z</time></trkpt><trkpt lat="42.1339833" lon="-7.9622"><ele>737.0</ele><time>2026-04-18T09:07:14.784Z</time></trkpt><trkpt lat="42.1339083" lon="-7.96226"><ele>738.0</ele><time>2026-04-18T09:07:15.783Z</time></trkpt><trkpt lat="42.1338283" lon="-7.9623067"><ele>739.0</ele><time>2026-04-18T09:07:16.785Z</time></trkpt><trkpt lat="42.1337267" lon="-7.9623333"><ele>740.0</ele><time>2026-04-18T09:07:17.783Z</time></trkpt><trkpt lat="42.1336267" lon="-7.9623533"><ele>740.0</ele><time>2026-04-18T09:07:18.785Z</time></trkpt><trkpt lat="42.1335367" lon="-7.9623767"><ele>740.0</ele><time>2026-04-18T09:07:19.785Z</time></trkpt><trkpt lat="42.133445" lon="-7.9623833"><ele>740.0</ele><time>2026-04-18T09:07:20.785Z</time></trkpt><trkpt lat="42.13335" lon="-7.962395"><ele>740.0</ele><time>2026-04-18T09:07:21.785Z</time></trkpt><trkpt lat="42.133255" lon="-7.96242"><ele>740.0</ele><time>2026-04-18T09:07:22.784Z</time></trkpt><trkpt lat="42.1331467" lon="-7.9624567"><ele>741.5</ele><time>2026-04-18T09:07:23.784Z</time></trkpt><trkpt lat="42.1330533" lon="-7.962505"><ele>743.0</ele><time>2026-04-18T09:07:24.785Z</time></trkpt><trkpt lat="42.1329767" lon="-7.9625517"><ele>744.5</ele><time>2026-04-18T09:07:25.784Z</time></trkpt><trkpt lat="42.132915" lon="-7.9625917"><ele>746.0</ele><time>2026-04-18T09:07:26.784Z</time></trkpt><trkpt lat="42.132845" lon="-7.9626167"><ele>747.5</ele><time>2026-04-18T09:07:27.783Z</time></trkpt><trkpt lat="42.1327617" lon="-7.962625"><ele>749.0</ele><time>2026-04-18T09:07:28.783Z</time></trkpt><trkpt lat="42.1326667" lon="-7.96264"><ele>749.0</ele><time>2026-04-18T09:07:29.784Z</time></trkpt><trkpt lat="42.1325817" lon="-7.9626517"><ele>749.0</ele><time>2026-04-18T09:07:30.785Z</time></trkpt><trkpt lat="42.1325017" lon="-7.9626567"><ele>749.0</ele><time>2026-04-18T09:07:31.786Z</time></trkpt><trkpt lat="42.1324167" lon="-7.9626583"><ele>749.0</ele><time>2026-04-18T09:07:32.786Z</time></trkpt><trkpt lat="42.13232" lon="-7.962645"><ele>749.0</ele><time>2026-04-18T09:07:33.784Z</time></trkpt><trkpt lat="42.1322167" lon="-7.962625"><ele>751.2</ele><time>2026-04-18T09:07:34.783Z</time></trkpt><trkpt lat="42.13211" lon="-7.9626"><ele>753.4000000000001</ele><time>2026-04-18T09:07:35.783Z</time></trkpt><trkpt lat="42.1320133" lon="-7.962575"><ele>755.6</ele><time>2026-04-18T09:07:36.785Z</time></trkpt><trkpt lat="42.1319233" lon="-7.9625417"><ele>757.8</ele><time>2026-04-18T09:07:37.783Z</time></trkpt><trkpt lat="42.1318367" lon="-7.9625033"><ele>760.0</ele><time>2026-04-18T09:07:38.784Z</time></trkpt><trkpt lat="42.1317483" lon="-7.96246"><ele>760.2</ele><time>2026-04-18T09:07:39.784Z</time></trkpt><trkpt lat="42.1316567" lon="-7.962445"><ele>760.4</ele><time>2026-04-18T09:07:40.784Z</time></trkpt><trkpt lat="42.131565" lon="-7.9624367"><ele>760.5999999999999</ele><time>2026-04-18T09:07:41.784Z</time></trkpt><trkpt lat="42.13147" lon="-7.9624167"><ele>760.8</ele><time>2026-04-18T09:07:42.784Z</time></trkpt><trkpt lat="42.1313733" lon="-7.962385"><ele>761.0</ele><time>2026-04-18T09:07:43.784Z</time></trkpt><trkpt lat="42.13127" lon="-7.9623583"><ele>762.1999999999999</ele><time>2026-04-18T09:07:44.784Z</time></trkpt><trkpt lat="42.13116" lon="-7.9623317"><ele>763.4</ele><time>2026-04-18T09:07:45.784Z</time></trkpt><trkpt lat="42.1310567" lon="-7.9622917"><ele>764.6</ele><time>2026-04-18T09:07:46.785Z</time></trkpt><trkpt lat="42.1309517" lon="-7.9622283"><ele>765.8</ele><time>2026-04-18T09:07:47.785Z</time></trkpt><trkpt lat="42.13086" lon="-7.9621533"><ele>767.0</ele><time>2026-04-18T09:07:48.784Z</time></trkpt><trkpt lat="42.13078" lon="-7.9620933"><ele>769.4000000000001</ele><time>2026-04-18T09:07:49.783Z</time></trkpt><trkpt lat="42.1307033" lon="-7.9620517"><ele>771.8000000000001</ele><time>2026-04-18T09:07:50.784Z</time></trkpt><trkpt lat="42.13063" lon="-7.9620433"><ele>774.2</ele><time>2026-04-18T09:07:51.786Z</time></trkpt><trkpt lat="42.1305367" lon="-7.9620483"><ele>776.6</ele><time>2026-04-18T09:07:52.786Z</time></trkpt><trkpt lat="42.1304267" lon="-7.9620767"><ele>779.0</ele><time>2026-04-18T09:07:53.783Z</time></trkpt><trkpt lat="42.1303067" lon="-7.9621117"><ele>779.0</ele><time>2026-04-18T09:07:54.784Z</time></trkpt><trkpt lat="42.1301767" lon="-7.9621467"><ele>779.0</ele><time>2026-04-18T09:07:55.783Z</time></trkpt><trkpt lat="42.130055" lon="-7.9621783"><ele>779.0</ele><time>2026-04-18T09:07:56.784Z</time></trkpt><trkpt lat="42.12995" lon="-7.962205"><ele>779.0</ele><time>2026-04-18T09:07:57.784Z</time></trkpt><trkpt lat="42.1298567" lon="-7.962235"><ele>780.0</ele><time>2026-04-18T09:07:58.784Z</time></trkpt><trkpt lat="42.1297567" lon="-7.9622617"><ele>781.0</ele><time>2026-04-18T09:07:59.785Z</time></trkpt><trkpt lat="42.1296567" lon="-7.962285"><ele>782.0</ele><time>2026-04-18T09:08:00.784Z</time></trkpt><trkpt lat="42.129555" lon="-7.9623033"><ele>783.0</ele><time>2026-04-18T09:08:01.784Z</time></trkpt><trkpt lat="42.129455" lon="-7.9623217"><ele>784.0</ele><time>2026-04-18T09:08:02.783Z</time></trkpt><trkpt lat="42.1293517" lon="-7.9623383"><ele>783.9999999999999</ele><time>2026-04-18T09:08:03.784Z</time></trkpt><trkpt lat="42.1292583" lon="-7.9623533"><ele>784.0</ele><time>2026-04-18T09:08:04.784Z</time></trkpt><trkpt lat="42.1291867" lon="-7.9623617"><ele>784.0</ele><time>2026-04-18T09:08:05.787Z</time></trkpt><trkpt lat="42.129115" lon="-7.9623633"><ele>784.0</ele><time>2026-04-18T09:08:07.784Z</time></trkpt><trkpt lat="42.12902" lon="-7.9624117"><ele>783.9999999999999</ele><time>2026-04-18T09:08:52.784Z</time></trkpt><trkpt lat="42.1289267" lon="-7.9624383"><ele>784.0</ele><time>2026-04-18T09:08:53.784Z</time></trkpt><trkpt lat="42.128835" lon="-7.9624617"><ele>784.2</ele><time>2026-04-18T09:08:54.784Z</time></trkpt><trkpt lat="42.1287567" lon="-7.9624833"><ele>784.4000000000001</ele><time>2026-04-18T09:08:55.788Z</time></trkpt><trkpt lat="42.1286833" lon="-7.9625017"><ele>784.6</ele><time>2026-04-18T09:08:56.784Z</time></trkpt><trkpt lat="42.128585" lon="-7.9625883"><ele>784.8</ele><time>2026-04-18T09:08:58.784Z</time></trkpt><trkpt lat="42.1285433" lon="-7.9626917"><ele>785.0</ele><time>2026-04-18T09:08:59.784Z</time></trkpt><trkpt lat="42.1285017" lon="-7.9628033"><ele>785.0</ele><time>2026-04-18T09:09:00.784Z</time></trkpt><trkpt lat="42.1284683" lon="-7.96297"><ele>785.0</ele><time>2026-04-18T09:09:01.785Z</time></trkpt><trkpt lat="42.1284217" lon="-7.9631533"><ele>785.0</ele><time>2026-04-18T09:09:02.784Z</time></trkpt><trkpt lat="42.1283717" lon="-7.9632967"><ele>785.0</ele><time>2026-04-18T09:09:03.785Z</time></trkpt><trkpt lat="42.1283333" lon="-7.9634383"><ele>784.6</ele><time>2026-04-18T09:09:04.784Z</time></trkpt><trkpt lat="42.1282917" lon="-7.963545"><ele>784.2</ele><time>2026-04-18T09:09:05.784Z</time></trkpt><trkpt lat="42.1282417" lon="-7.9636383"><ele>783.8</ele><time>2026-04-18T09:09:06.786Z</time></trkpt><trkpt lat="42.12818" lon="-7.9637367"><ele>783.4</ele><time>2026-04-18T09:09:07.785Z</time></trkpt><trkpt lat="42.128115" lon="-7.9638483"><ele>783.0</ele><time>2026-04-18T09:09:08.784Z</time></trkpt><trkpt lat="42.1280467" lon="-7.9639733"><ele>783.0</ele><time>2026-04-18T09:09:09.785Z</time></trkpt><trkpt lat="42.1279667" lon="-7.9640933"><ele>783.0</ele><time>2026-04-18T09:09:10.785Z</time></trkpt><trkpt lat="42.1278817" lon="-7.96421"><ele>783.0</ele><time>2026-04-18T09:09:11.785Z</time></trkpt><trkpt lat="42.127785" lon="-7.96433"><ele>783.0</ele><time>2026-04-18T09:09:12.788Z</time></trkpt><trkpt lat="42.1276967" lon="-7.9644583"><ele>784.75</ele><time>2026-04-18T09:09:13.783Z</time></trkpt><trkpt lat="42.1276117" lon="-7.96459"><ele>786.5</ele><time>2026-04-18T09:09:14.785Z</time></trkpt><trkpt lat="42.1275283" lon="-7.9647217"><ele>788.25</ele><time>2026-04-18T09:09:15.783Z</time></trkpt><trkpt lat="42.12745" lon="-7.9648433"><ele>790.0</ele><time>2026-04-18T09:09:16.783Z</time></trkpt><trkpt lat="42.1273667" lon="-7.9649567"><ele>791.0</ele><time>2026-04-18T09:09:17.784Z</time></trkpt><trkpt lat="42.12728" lon="-7.9650533"><ele>792.0</ele><time>2026-04-18T09:09:18.784Z</time></trkpt><trkpt lat="42.1271817" lon="-7.9651367"><ele>793.0</ele><time>2026-04-18T09:09:19.784Z</time></trkpt><trkpt lat="42.1270717" lon="-7.965225"><ele>794.0</ele><time>2026-04-18T09:09:20.784Z</time></trkpt><trkpt lat="42.1269567" lon="-7.9653283"><ele>794.0</ele><time>2026-04-18T09:09:21.783Z</time></trkpt><trkpt lat="42.126855" lon="-7.96543"><ele>794.0</ele><time>2026-04-18T09:09:22.784Z</time></trkpt><trkpt lat="42.126755" lon="-7.9655183"><ele>794.0</ele><time>2026-04-18T09:09:23.783Z</time></trkpt><trkpt lat="42.12665" lon="-7.9655733"><ele>794.0</ele><time>2026-04-18T09:09:24.784Z</time></trkpt><trkpt lat="42.126545" lon="-7.9655983"><ele>793.75</ele><time>2026-04-18T09:09:25.783Z</time></trkpt><trkpt lat="42.126435" lon="-7.9655917"><ele>793.5</ele><time>2026-04-18T09:09:26.784Z</time></trkpt><trkpt lat="42.1263217" lon="-7.9655717"><ele>793.25</ele><time>2026-04-18T09:09:27.783Z</time></trkpt><trkpt lat="42.1262" lon="-7.9655367"><ele>793.0</ele><time>2026-04-18T09:09:28.784Z</time></trkpt><trkpt lat="42.1260883" lon="-7.965515"><ele>793.0</ele><time>2026-04-18T09:09:29.783Z</time></trkpt><trkpt lat="42.1259633" lon="-7.96549"><ele>793.0</ele><time>2026-04-18T09:09:30.785Z</time></trkpt><trkpt lat="42.1258467" lon="-7.965455"><ele>793.0</ele><time>2026-04-18T09:09:31.784Z</time></trkpt><trkpt lat="42.12574" lon="-7.9654167"><ele>793.0</ele><time>2026-04-18T09:09:32.784Z</time></trkpt><trkpt lat="42.1256383" lon="-7.965355"><ele>792.4</ele><time>2026-04-18T09:09:33.784Z</time></trkpt><trkpt lat="42.1255383" lon="-7.9652817"><ele>791.8</ele><time>2026-04-18T09:09:34.784Z</time></trkpt><trkpt lat="42.125445" lon="-7.9652033"><ele>791.2</ele><time>2026-04-18T09:09:35.784Z</time></trkpt><trkpt lat="42.1253567" lon="-7.9651317"><ele>790.6</ele><time>2026-04-18T09:09:36.784Z</time></trkpt><trkpt lat="42.12527" lon="-7.96507"><ele>790.0</ele><time>2026-04-18T09:09:37.783Z</time></trkpt><trkpt lat="42.1251917" lon="-7.9650267"><ele>789.9999999999999</ele><time>2026-04-18T09:09:38.786Z</time></trkpt><trkpt lat="42.12511" lon="-7.9650017"><ele>790.0</ele><time>2026-04-18T09:09:39.784Z</time></trkpt><trkpt lat="42.1250333" lon="-7.965"><ele>790.0</ele><time>2026-04-18T09:09:40.783Z</time></trkpt><trkpt lat="42.1249617" lon="-7.96503"><ele>790.0</ele><time>2026-04-18T09:09:41.784Z</time></trkpt><trkpt lat="42.12489" lon="-7.9650833"><ele>789.9999999999999</ele><time>2026-04-18T09:09:42.785Z</time></trkpt><trkpt lat="42.1248133" lon="-7.9651867"><ele>790.0</ele><time>2026-04-18T09:09:43.784Z</time></trkpt><trkpt lat="42.1247283" lon="-7.9652917"><ele>790.0</ele><time>2026-04-18T09:09:44.789Z</time></trkpt><trkpt lat="42.12465" lon="-7.965365"><ele>790.0</ele><time>2026-04-18T09:09:45.784Z</time></trkpt><trkpt lat="42.12456" lon="-7.9654267"><ele>790.0</ele><time>2026-04-18T09:09:46.784Z</time></trkpt><trkpt lat="42.1244583" lon="-7.9654617"><ele>790.0</ele><time>2026-04-18T09:09:47.783Z</time></trkpt><trkpt lat="42.1243467" lon="-7.9654917"><ele>790.0</ele><time>2026-04-18T09:09:48.783Z</time></trkpt><trkpt lat="42.1242317" lon="-7.965525"><ele>789.9999999999999</ele><time>2026-04-18T09:09:49.784Z</time></trkpt><trkpt lat="42.1241167" lon="-7.9655483"><ele>790.0</ele><time>2026-04-18T09:09:50.784Z</time></trkpt><trkpt lat="42.1240167" lon="-7.9655617"><ele>790.0</ele><time>2026-04-18T09:09:51.785Z</time></trkpt><trkpt lat="42.123945" lon="-7.9655617"><ele>790.0</ele><time>2026-04-18T09:09:52.785Z</time></trkpt><trkpt lat="42.1238717" lon="-7.965545"><ele>789.9999999999999</ele><time>2026-04-18T09:09:53.783Z</time></trkpt><trkpt lat="42.123795" lon="-7.9655017"><ele>790.0</ele><time>2026-04-18T09:09:54.784Z</time></trkpt><trkpt lat="42.123705" lon="-7.96544"><ele>790.4999999999999</ele><time>2026-04-18T09:09:55.784Z</time></trkpt><trkpt lat="42.123615" lon="-7.965405"><ele>791.0</ele><time>2026-04-18T09:09:56.784Z</time></trkpt><trkpt lat="42.1235367" lon="-7.9653667"><ele>791.5</ele><time>2026-04-18T09:09:57.783Z</time></trkpt><trkpt lat="42.1234733" lon="-7.96531"><ele>792.0</ele><time>2026-04-18T09:09:58.783Z</time></trkpt><trkpt lat="42.1234067" lon="-7.9652267"><ele>792.4999999999999</ele><time>2026-04-18T09:09:59.784Z</time></trkpt><trkpt lat="42.1233533" lon="-7.9651367"><ele>793.0</ele><time>2026-04-18T09:10:00.784Z</time></trkpt><trkpt lat="42.123305" lon="-7.9650067"><ele>793.0</ele><time>2026-04-18T09:10:01.784Z</time></trkpt><trkpt lat="42.1232733" lon="-7.9648467"><ele>793.0</ele><time>2026-04-18T09:10:02.784Z</time></trkpt><trkpt lat="42.123225" lon="-7.9647083"><ele>793.0</ele><time>2026-04-18T09:10:03.785Z</time></trkpt><trkpt lat="42.1231817" lon="-7.96461"><ele>793.0</ele><time>2026-04-18T09:10:04.786Z</time></trkpt><trkpt lat="42.1231383" lon="-7.964505"><ele>793.0</ele><time>2026-04-18T09:10:05.785Z</time></trkpt><trkpt lat="42.1230883" lon="-7.9644433"><ele>795.2</ele><time>2026-04-18T09:10:06.784Z</time></trkpt><trkpt lat="42.12304" lon="-7.9643833"><ele>797.4</ele><time>2026-04-18T09:10:07.783Z</time></trkpt><trkpt lat="42.122975" lon="-7.964395"><ele>799.6</ele><time>2026-04-18T09:10:08.785Z</time></trkpt><trkpt lat="42.1228883" lon="-7.96454"><ele>801.8000000000001</ele><time>2026-04-18T09:10:10.785Z</time></trkpt><trkpt lat="42.1227833" lon="-7.964685"><ele>804.0</ele><time>2026-04-18T09:10:11.787Z</time></trkpt><trkpt lat="42.12269" lon="-7.964775"><ele>804.0</ele><time>2026-04-18T09:10:12.785Z</time></trkpt><trkpt lat="42.1226167" lon="-7.96484"><ele>804.0</ele><time>2026-04-18T09:10:13.785Z</time></trkpt><trkpt lat="42.1225017" lon="-7.9649083"><ele>804.0</ele><time>2026-04-18T09:10:14.784Z</time></trkpt><trkpt lat="42.1224183" lon="-7.9649667"><ele>804.0</ele><time>2026-04-18T09:10:15.784Z</time></trkpt><trkpt lat="42.1223233" lon="-7.9649867"><ele>804.0</ele><time>2026-04-18T09:10:16.784Z</time></trkpt><trkpt lat="42.1222233" lon="-7.9649767"><ele>806.0</ele><time>2026-04-18T09:10:17.784Z</time></trkpt><trkpt lat="42.1221433" lon="-7.9649467"><ele>808.0</ele><time>2026-04-18T09:10:18.784Z</time></trkpt><trkpt lat="42.122065" lon="-7.9648283"><ele>810.0</ele><time>2026-04-18T09:10:19.784Z</time></trkpt><trkpt lat="42.1220183" lon="-7.9647117"><ele>812.0</ele><time>2026-04-18T09:10:20.784Z</time></trkpt><trkpt lat="42.121985" lon="-7.9645883"><ele>814.0</ele><time>2026-04-18T09:10:21.784Z</time></trkpt><trkpt lat="42.1219533" lon="-7.96445"><ele>814.0</ele><time>2026-04-18T09:10:22.784Z</time></trkpt><trkpt lat="42.1219317" lon="-7.9642617"><ele>814.0</ele><time>2026-04-18T09:10:23.784Z</time></trkpt><trkpt lat="42.1219" lon="-7.9640633"><ele>814.0</ele><time>2026-04-18T09:10:24.784Z</time></trkpt><trkpt lat="42.1218767" lon="-7.9639033"><ele>814.0</ele><time>2026-04-18T09:10:25.786Z</time></trkpt><trkpt lat="42.1218583" lon="-7.9637267"><ele>812.8333333333333</ele><time>2026-04-18T09:10:26.784Z</time></trkpt><trkpt lat="42.1218417" lon="-7.9635883"><ele>811.6666666666666</ele><time>2026-04-18T09:10:27.784Z</time></trkpt><trkpt lat="42.12183" lon="-7.963495"><ele>810.5</ele><time>2026-04-18T09:10:28.784Z</time></trkpt><trkpt lat="42.12181" lon="-7.9634117"><ele>809.3333333333333</ele><time>2026-04-18T09:10:29.785Z</time></trkpt><trkpt lat="42.121765" lon="-7.963295"><ele>808.1666666666666</ele><time>2026-04-18T09:10:31.784Z</time></trkpt><trkpt lat="42.121705" lon="-7.9632233"><ele>807.0</ele><time>2026-04-18T09:10:33.785Z</time></trkpt><trkpt lat="42.1216383" lon="-7.9632067"><ele>806.4000000000001</ele><time>2026-04-18T09:10:35.784Z</time></trkpt><trkpt lat="42.1215433" lon="-7.96324"><ele>805.8000000000001</ele><time>2026-04-18T09:10:37.784Z</time></trkpt><trkpt lat="42.1214833" lon="-7.9633217"><ele>805.2</ele><time>2026-04-18T09:10:38.784Z</time></trkpt><trkpt lat="42.1214233" lon="-7.9633833"><ele>804.6</ele><time>2026-04-18T09:10:39.784Z</time></trkpt><trkpt lat="42.1213533" lon="-7.9634967"><ele>804.0</ele><time>2026-04-18T09:10:40.784Z</time></trkpt><trkpt lat="42.1212733" lon="-7.9636"><ele>805.8000000000001</ele><time>2026-04-18T09:10:41.785Z</time></trkpt><trkpt lat="42.1212017" lon="-7.9636817"><ele>807.6</ele><time>2026-04-18T09:10:42.784Z</time></trkpt><trkpt lat="42.1211267" lon="-7.9637533"><ele>809.4</ele><time>2026-04-18T09:10:43.784Z</time></trkpt><trkpt lat="42.1210467" lon="-7.9638217"><ele>811.2</ele><time>2026-04-18T09:10:44.784Z</time></trkpt><trkpt lat="42.1209683" lon="-7.9638817"><ele>813.0</ele><time>2026-04-18T09:10:45.784Z</time></trkpt><trkpt lat="42.1208933" lon="-7.9639467"><ele>813.0</ele><time>2026-04-18T09:10:46.785Z</time></trkpt><trkpt lat="42.1208167" lon="-7.9640083"><ele>813.0</ele><time>2026-04-18T09:10:47.785Z</time></trkpt><trkpt lat="42.1207383" lon="-7.9640733"><ele>813.0</ele><time>2026-04-18T09:10:48.784Z</time></trkpt><trkpt lat="42.12066" lon="-7.96414"><ele>813.0</ele><time>2026-04-18T09:10:49.785Z</time></trkpt><trkpt lat="42.1205767" lon="-7.9642133"><ele>813.0</ele><time>2026-04-18T09:10:50.784Z</time></trkpt><trkpt lat="42.1205033" lon="-7.9643067"><ele>814.6666666666666</ele><time>2026-04-18T09:10:51.784Z</time></trkpt><trkpt lat="42.1204417" lon="-7.964395"><ele>816.3333333333333</ele><time>2026-04-18T09:10:52.784Z</time></trkpt><trkpt lat="42.120385" lon="-7.964475"><ele>818.0</ele><time>2026-04-18T09:10:53.785Z</time></trkpt><trkpt lat="42.120325" lon="-7.9645533"><ele>819.6666666666666</ele><time>2026-04-18T09:10:54.784Z</time></trkpt><trkpt lat="42.1202633" lon="-7.964645"><ele>821.3333333333333</ele><time>2026-04-18T09:10:55.784Z</time></trkpt><trkpt lat="42.1201983" lon="-7.9647417"><ele>823.0</ele><time>2026-04-18T09:10:56.784Z</time></trkpt><trkpt lat="42.12012" lon="-7.964855"><ele>823.0</ele><time>2026-04-18T09:10:57.784Z</time></trkpt><trkpt lat="42.12004" lon="-7.9649767"><ele>823.0</ele><time>2026-04-18T09:10:58.785Z</time></trkpt><trkpt lat="42.1199533" lon="-7.9651"><ele>823.0</ele><time>2026-04-18T09:10:59.784Z</time></trkpt><trkpt lat="42.1198733" lon="-7.9652167"><ele>823.0</ele><time>2026-04-18T09:11:00.784Z</time></trkpt><trkpt lat="42.1197867" lon="-7.9653183"><ele>825.4</ele><time>2026-04-18T09:11:01.786Z</time></trkpt><trkpt lat="42.1197083" lon="-7.9654167"><ele>827.8</ele><time>2026-04-18T09:11:02.784Z</time></trkpt><trkpt lat="42.119635" lon="-7.9654967"><ele>830.2</ele><time>2026-04-18T09:11:03.784Z</time></trkpt><trkpt lat="42.1195667" lon="-7.96557"><ele>832.6</ele><time>2026-04-18T09:11:04.785Z</time></trkpt><trkpt lat="42.1194967" lon="-7.96565"><ele>835.0</ele><time>2026-04-18T09:11:05.784Z</time></trkpt><trkpt lat="42.119425" lon="-7.9657433"><ele>834.9999999999999</ele><time>2026-04-18T09:11:06.784Z</time></trkpt><trkpt lat="42.1193483" lon="-7.9658317"><ele>835.0</ele><time>2026-04-18T09:11:07.785Z</time></trkpt><trkpt lat="42.119275" lon="-7.9659183"><ele>835.0</ele><time>2026-04-18T09:11:08.784Z</time></trkpt><trkpt lat="42.11921" lon="-7.9659917"><ele>835.0</ele><time>2026-04-18T09:11:09.784Z</time></trkpt><trkpt lat="42.1191517" lon="-7.96606"><ele>834.9999999999999</ele><time>2026-04-18T09:11:10.786Z</time></trkpt><trkpt lat="42.1190933" lon="-7.9661283"><ele>835.0</ele><time>2026-04-18T09:11:11.784Z</time></trkpt><trkpt lat="42.1190267" lon="-7.9662017"><ele>836.8</ele><time>2026-04-18T09:11:12.784Z</time></trkpt><trkpt lat="42.1189567" lon="-7.9662767"><ele>838.6</ele><time>2026-04-18T09:11:13.784Z</time></trkpt><trkpt lat="42.1188817" lon="-7.9663633"><ele>840.4000000000001</ele><time>2026-04-18T09:11:14.785Z</time></trkpt><trkpt lat="42.1188133" lon="-7.9664517"><ele>842.2</ele><time>2026-04-18T09:11:15.785Z</time></trkpt><trkpt lat="42.1187417" lon="-7.9665517"><ele>844.0</ele><time>2026-04-18T09:11:16.784Z</time></trkpt><trkpt lat="42.1186717" lon="-7.966655"><ele>845.5</ele><time>2026-04-18T09:11:17.784Z</time></trkpt><trkpt lat="42.1186017" lon="-7.96677"><ele>847.0</ele><time>2026-04-18T09:11:18.785Z</time></trkpt><trkpt lat="42.118525" lon="-7.96689"><ele>848.5</ele><time>2026-04-18T09:11:19.784Z</time></trkpt><trkpt lat="42.11845" lon="-7.96701"><ele>850.0</ele><time>2026-04-18T09:11:20.784Z</time></trkpt><trkpt lat="42.118375" lon="-7.9671383"><ele>850.0</ele><time>2026-04-18T09:11:21.784Z</time></trkpt><trkpt lat="42.1182833" lon="-7.9672833"><ele>850.0</ele><time>2026-04-18T09:11:22.785Z</time></trkpt><trkpt lat="42.1181967" lon="-7.9674317"><ele>850.0</ele><time>2026-04-18T09:11:23.784Z</time></trkpt><trkpt lat="42.1181233" lon="-7.967575"><ele>850.0</ele><time>2026-04-18T09:11:24.784Z</time></trkpt><trkpt lat="42.1180483" lon="-7.96773"><ele>850.75</ele><time>2026-04-18T09:11:25.784Z</time></trkpt><trkpt lat="42.1180017" lon="-7.96789"><ele>851.5</ele><time>2026-04-18T09:11:26.785Z</time></trkpt><trkpt lat="42.117945" lon="-7.9680283"><ele>852.25</ele><time>2026-04-18T09:11:27.784Z</time></trkpt><trkpt lat="42.1178767" lon="-7.9681383"><ele>853.0</ele><time>2026-04-18T09:11:28.784Z</time></trkpt><trkpt lat="42.1177983" lon="-7.9682267"><ele>853.0</ele><time>2026-04-18T09:11:29.784Z</time></trkpt><trkpt lat="42.1176983" lon="-7.9683017"><ele>853.0</ele><time>2026-04-18T09:11:30.784Z</time></trkpt><trkpt lat="42.1175883" lon="-7.9683533"><ele>853.0</ele><time>2026-04-18T09:11:31.785Z</time></trkpt><trkpt lat="42.11749" lon="-7.96838"><ele>853.0</ele><time>2026-04-18T09:11:32.785Z</time></trkpt><trkpt lat="42.1174183" lon="-7.96839"><ele>853.0</ele><time>2026-04-18T09:11:33.784Z</time></trkpt><trkpt lat="42.1173467" lon="-7.968375"><ele>853.0</ele><time>2026-04-18T09:11:34.783Z</time></trkpt><trkpt lat="42.1172283" lon="-7.9682933"><ele>853.0</ele><time>2026-04-18T09:11:36.784Z</time></trkpt><trkpt lat="42.1171717" lon="-7.96822"><ele>853.0</ele><time>2026-04-18T09:11:37.785Z</time></trkpt><trkpt lat="42.1171167" lon="-7.9681267"><ele>853.0</ele><time>2026-04-18T09:11:38.784Z</time></trkpt><trkpt lat="42.1170683" lon="-7.9680117"><ele>853.0</ele><time>2026-04-18T09:11:39.784Z</time></trkpt><trkpt lat="42.117025" lon="-7.9678983"><ele>852.9999999999999</ele><time>2026-04-18T09:11:40.784Z</time></trkpt><trkpt lat="42.1169667" lon="-7.967825"><ele>853.0</ele><time>2026-04-18T09:11:41.785Z</time></trkpt><trkpt lat="42.11691" lon="-7.9677367"><ele>853.0</ele><time>2026-04-18T09:11:42.785Z</time></trkpt><trkpt lat="42.1168517" lon="-7.9676683"><ele>853.0</ele><time>2026-04-18T09:11:43.785Z</time></trkpt><trkpt lat="42.1167817" lon="-7.9675933"><ele>852.9999999999999</ele><time>2026-04-18T09:11:44.784Z</time></trkpt><trkpt lat="42.1166983" lon="-7.967515"><ele>853.0</ele><time>2026-04-18T09:11:45.785Z</time></trkpt><trkpt lat="42.116615" lon="-7.967485"><ele>851.6666666666666</ele><time>2026-04-18T09:11:46.785Z</time></trkpt><trkpt lat="42.1165317" lon="-7.9674533"><ele>850.3333333333333</ele><time>2026-04-18T09:11:47.784Z</time></trkpt><trkpt lat="42.116445" lon="-7.96745"><ele>849.0</ele><time>2026-04-18T09:11:48.784Z</time></trkpt><trkpt lat="42.1163583" lon="-7.967475"><ele>847.6666666666667</ele><time>2026-04-18T09:11:49.784Z</time></trkpt><trkpt lat="42.1162717" lon="-7.9674933"><ele>846.3333333333334</ele><time>2026-04-18T09:11:50.786Z</time></trkpt><trkpt lat="42.1161883" lon="-7.967535"><ele>845.0</ele><time>2026-04-18T09:11:51.783Z</time></trkpt><trkpt lat="42.1161" lon="-7.9675883"><ele>845.0</ele><time>2026-04-18T09:11:52.784Z</time></trkpt><trkpt lat="42.1159967" lon="-7.9676583"><ele>845.0</ele><time>2026-04-18T09:11:53.784Z</time></trkpt><trkpt lat="42.1158833" lon="-7.9677317"><ele>845.0</ele><time>2026-04-18T09:11:54.783Z</time></trkpt><trkpt lat="42.1157667" lon="-7.9677967"><ele>845.0</ele><time>2026-04-18T09:11:55.784Z</time></trkpt><trkpt lat="42.1156483" lon="-7.9678733"><ele>843.0</ele><time>2026-04-18T09:11:56.785Z</time></trkpt><trkpt lat="42.1155317" lon="-7.9679633"><ele>841.0</ele><time>2026-04-18T09:11:57.784Z</time></trkpt><trkpt lat="42.1154217" lon="-7.9680633"><ele>839.0</ele><time>2026-04-18T09:11:58.784Z</time></trkpt><trkpt lat="42.1153217" lon="-7.9681883"><ele>837.0</ele><time>2026-04-18T09:11:59.783Z</time></trkpt><trkpt lat="42.1152317" lon="-7.96832"><ele>838.5</ele><time>2026-04-18T09:12:00.784Z</time></trkpt><trkpt lat="42.1151583" lon="-7.9684583"><ele>840.0</ele><time>2026-04-18T09:12:01.785Z</time></trkpt><trkpt lat="42.1151033" lon="-7.9686117"><ele>841.5</ele><time>2026-04-18T09:12:02.784Z</time></trkpt><trkpt lat="42.1150583" lon="-7.9687867"><ele>843.0</ele><time>2026-04-18T09:12:03.784Z</time></trkpt><trkpt lat="42.1150217" lon="-7.9689433"><ele>843.0</ele><time>2026-04-18T09:12:04.784Z</time></trkpt><trkpt lat="42.1149933" lon="-7.96909"><ele>843.0</ele><time>2026-04-18T09:12:05.785Z</time></trkpt><trkpt lat="42.114965" lon="-7.9692317"><ele>843.0</ele><time>2026-04-18T09:12:06.785Z</time></trkpt><trkpt lat="42.11494" lon="-7.9693667"><ele>843.0</ele><time>2026-04-18T09:12:07.784Z</time></trkpt><trkpt lat="42.1148983" lon="-7.9694933"><ele>843.0</ele><time>2026-04-18T09:12:08.785Z</time></trkpt><trkpt lat="42.1148367" lon="-7.9695983"><ele>843.2</ele><time>2026-04-18T09:12:09.785Z</time></trkpt><trkpt lat="42.1147683" lon="-7.9696783"><ele>843.4</ele><time>2026-04-18T09:12:10.783Z</time></trkpt><trkpt lat="42.1147017" lon="-7.9697417"><ele>843.6</ele><time>2026-04-18T09:12:11.785Z</time></trkpt><trkpt lat="42.1146467" lon="-7.9698017"><ele>843.8000000000001</ele><time>2026-04-18T09:12:12.784Z</time></trkpt><trkpt lat="42.1145883" lon="-7.9699167"><ele>844.0</ele><time>2026-04-18T09:12:14.784Z</time></trkpt><trkpt lat="42.114575" lon="-7.97011"><ele>845.1666666666666</ele><time>2026-04-18T09:12:16.786Z</time></trkpt><trkpt lat="42.1145667" lon="-7.9702433"><ele>846.3333333333333</ele><time>2026-04-18T09:12:17.783Z</time></trkpt><trkpt lat="42.1145533" lon="-7.97036"><ele>847.5</ele><time>2026-04-18T09:12:18.786Z</time></trkpt><trkpt lat="42.114545" lon="-7.9704633"><ele>848.6666666666667</ele><time>2026-04-18T09:12:19.785Z</time></trkpt><trkpt lat="42.11454" lon="-7.97055"><ele>849.8333333333334</ele><time>2026-04-18T09:12:20.785Z</time></trkpt><trkpt lat="42.114535" lon="-7.970635"><ele>851.0</ele><time>2026-04-18T09:12:21.783Z</time></trkpt><trkpt lat="42.1145483" lon="-7.97072"><ele>851.0</ele><time>2026-04-18T09:12:22.784Z</time></trkpt><trkpt lat="42.11458" lon="-7.970805"><ele>851.0</ele><time>2026-04-18T09:12:23.784Z</time></trkpt><trkpt lat="42.1146367" lon="-7.9709083"><ele>851.0</ele><time>2026-04-18T09:12:24.784Z</time></trkpt><trkpt lat="42.114705" lon="-7.971015"><ele>851.0</ele><time>2026-04-18T09:12:25.785Z</time></trkpt><trkpt lat="42.114765" lon="-7.9711283"><ele>851.0</ele><time>2026-04-18T09:12:26.784Z</time></trkpt><trkpt lat="42.1148233" lon="-7.9712183"><ele>852.4</ele><time>2026-04-18T09:12:27.785Z</time></trkpt><trkpt lat="42.114885" lon="-7.9712983"><ele>853.8</ele><time>2026-04-18T09:12:28.783Z</time></trkpt><trkpt lat="42.1149567" lon="-7.971365"><ele>855.1999999999999</ele><time>2026-04-18T09:12:29.784Z</time></trkpt><trkpt lat="42.1150517" lon="-7.9714183"><ele>856.5999999999999</ele><time>2026-04-18T09:12:30.786Z</time></trkpt><trkpt lat="42.1151567" lon="-7.97148"><ele>858.0</ele><time>2026-04-18T09:12:31.784Z</time></trkpt><trkpt lat="42.1152567" lon="-7.9715483"><ele>858.5999999999999</ele><time>2026-04-18T09:12:32.784Z</time></trkpt><trkpt lat="42.11537" lon="-7.97163"><ele>859.1999999999999</ele><time>2026-04-18T09:12:33.785Z</time></trkpt><trkpt lat="42.1154733" lon="-7.9716967"><ele>859.8</ele><time>2026-04-18T09:12:34.785Z</time></trkpt><trkpt lat="42.11556" lon="-7.9717633"><ele>860.4</ele><time>2026-04-18T09:12:35.783Z</time></trkpt><trkpt lat="42.11564" lon="-7.9718317"><ele>861.0</ele><time>2026-04-18T09:12:36.783Z</time></trkpt><trkpt lat="42.1157067" lon="-7.9718917"><ele>862.6666666666666</ele><time>2026-04-18T09:12:37.783Z</time></trkpt><trkpt lat="42.11576" lon="-7.9719567"><ele>864.3333333333333</ele><time>2026-04-18T09:12:38.784Z</time></trkpt><trkpt lat="42.115825" lon="-7.9720967"><ele>866.0</ele><time>2026-04-18T09:12:40.783Z</time></trkpt><trkpt lat="42.1158067" lon="-7.9722367"><ele>867.6666666666666</ele><time>2026-04-18T09:12:42.784Z</time></trkpt><trkpt lat="42.11577" lon="-7.972315"><ele>869.3333333333333</ele><time>2026-04-18T09:12:43.784Z</time></trkpt><trkpt lat="42.1157217" lon="-7.9723917"><ele>871.0</ele><time>2026-04-18T09:12:44.785Z</time></trkpt><trkpt lat="42.1156567" lon="-7.9724583"><ele>873.25</ele><time>2026-04-18T09:12:45.784Z</time></trkpt><trkpt lat="42.115575" lon="-7.9725233"><ele>875.5</ele><time>2026-04-18T09:12:46.783Z</time></trkpt><trkpt lat="42.1154783" lon="-7.9725833"><ele>877.75</ele><time>2026-04-18T09:12:47.784Z</time></trkpt><trkpt lat="42.1153733" lon="-7.9726767"><ele>880.0</ele><time>2026-04-18T09:12:48.784Z</time></trkpt><trkpt lat="42.115245" lon="-7.9727717"><ele>880.0</ele><time>2026-04-18T09:12:49.784Z</time></trkpt><trkpt lat="42.115105" lon="-7.972885"><ele>880.0</ele><time>2026-04-18T09:12:50.784Z</time></trkpt><trkpt lat="42.1149617" lon="-7.9729717"><ele>880.0</ele><time>2026-04-18T09:12:51.784Z</time></trkpt><trkpt lat="42.11484" lon="-7.9730833"><ele>880.6</ele><time>2026-04-18T09:12:52.783Z</time></trkpt><trkpt lat="42.1147683" lon="-7.973185"><ele>881.2</ele><time>2026-04-18T09:12:53.783Z</time></trkpt><trkpt lat="42.1147133" lon="-7.97329"><ele>881.8</ele><time>2026-04-18T09:12:54.784Z</time></trkpt><trkpt lat="42.1146733" lon="-7.9734017"><ele>882.4</ele><time>2026-04-18T09:12:55.784Z</time></trkpt><trkpt lat="42.1146367" lon="-7.9735317"><ele>883.0</ele><time>2026-04-18T09:12:56.784Z</time></trkpt><trkpt lat="42.114645" lon="-7.9737217"><ele>883.3333333333333</ele><time>2026-04-18T09:12:57.783Z</time></trkpt><trkpt lat="42.114645" lon="-7.973935"><ele>883.6666666666667</ele><time>2026-04-18T09:12:58.783Z</time></trkpt><trkpt lat="42.1146117" lon="-7.9741267"><ele>884.0</ele><time>2026-04-18T09:12:59.783Z</time></trkpt><trkpt lat="42.1145617" lon="-7.97433"><ele>884.6666666666667</ele><time>2026-04-18T09:13:00.784Z</time></trkpt><trkpt lat="42.1145217" lon="-7.9745417"><ele>885.3333333333333</ele><time>2026-04-18T09:13:01.784Z</time></trkpt><trkpt lat="42.1144667" lon="-7.974735"><ele>886.0</ele><time>2026-04-18T09:13:02.784Z</time></trkpt><trkpt lat="42.114405" lon="-7.9749233"><ele>885.0</ele><time>2026-04-18T09:13:03.783Z</time></trkpt><trkpt lat="42.1143417" lon="-7.9751017"><ele>884.0</ele><time>2026-04-18T09:13:04.783Z</time></trkpt><trkpt lat="42.1142733" lon="-7.97528"><ele>883.0</ele><time>2026-04-18T09:13:05.784Z</time></trkpt><trkpt lat="42.114195" lon="-7.9754767"><ele>883.0</ele><time>2026-04-18T09:13:06.787Z</time></trkpt><trkpt lat="42.1141333" lon="-7.975685"><ele>883.0</ele><time>2026-04-18T09:13:07.783Z</time></trkpt><trkpt lat="42.1140567" lon="-7.9758833"><ele>883.0</ele><time>2026-04-18T09:13:08.784Z</time></trkpt><trkpt lat="42.1139917" lon="-7.9760667"><ele>885.5</ele><time>2026-04-18T09:13:09.784Z</time></trkpt><trkpt lat="42.1139333" lon="-7.9762233"><ele>888.0</ele><time>2026-04-18T09:13:10.784Z</time></trkpt><trkpt lat="42.113875" lon="-7.9763633"><ele>890.5</ele><time>2026-04-18T09:13:11.784Z</time></trkpt><trkpt lat="42.1138183" lon="-7.9764933"><ele>893.0</ele><time>2026-04-18T09:13:12.784Z</time></trkpt><trkpt lat="42.113765" lon="-7.9766133"><ele>892.8</ele><time>2026-04-18T09:13:13.784Z</time></trkpt><trkpt lat="42.1136983" lon="-7.97672"><ele>892.5999999999999</ele><time>2026-04-18T09:13:14.784Z</time></trkpt><trkpt lat="42.1136233" lon="-7.9768167"><ele>892.4000000000001</ele><time>2026-04-18T09:13:15.784Z</time></trkpt><trkpt lat="42.1135317" lon="-7.9769183"><ele>892.2</ele><time>2026-04-18T09:13:16.784Z</time></trkpt><trkpt lat="42.1134467" lon="-7.9770083"><ele>892.0</ele><time>2026-04-18T09:13:17.784Z</time></trkpt><trkpt lat="42.113365" lon="-7.9770917"><ele>892.0</ele><time>2026-04-18T09:13:18.784Z</time></trkpt><trkpt lat="42.11328" lon="-7.9771683"><ele>892.0</ele><time>2026-04-18T09:13:19.784Z</time></trkpt><trkpt lat="42.11318" lon="-7.9772367"><ele>892.0</ele><time>2026-04-18T09:13:20.784Z</time></trkpt><trkpt lat="42.113085" lon="-7.977295"><ele>892.0</ele><time>2026-04-18T09:13:21.784Z</time></trkpt><trkpt lat="42.1129917" lon="-7.9773517"><ele>892.0</ele><time>2026-04-18T09:13:22.784Z</time></trkpt><trkpt lat="42.1128917" lon="-7.97741"><ele>892.75</ele><time>2026-04-18T09:13:23.786Z</time></trkpt><trkpt lat="42.1127817" lon="-7.97748"><ele>893.5</ele><time>2026-04-18T09:13:24.787Z</time></trkpt><trkpt lat="42.1126683" lon="-7.9775567"><ele>894.25</ele><time>2026-04-18T09:13:25.786Z</time></trkpt><trkpt lat="42.11254" lon="-7.977635"><ele>895.0</ele><time>2026-04-18T09:13:26.783Z</time></trkpt><trkpt lat="42.112405" lon="-7.9776983"><ele>895.0</ele><time>2026-04-18T09:13:27.785Z</time></trkpt><trkpt lat="42.1122633" lon="-7.9777417"><ele>895.0</ele><time>2026-04-18T09:13:28.784Z</time></trkpt><trkpt lat="42.1121417" lon="-7.977765"><ele>895.0</ele><time>2026-04-18T09:13:29.784Z</time></trkpt><trkpt lat="42.1120283" lon="-7.977765"><ele>895.0</ele><time>2026-04-18T09:13:30.784Z</time></trkpt><trkpt lat="42.1119067" lon="-7.9777417"><ele>895.0</ele><time>2026-04-18T09:13:31.784Z</time></trkpt><trkpt lat="42.1117917" lon="-7.9777067"><ele>895.0</ele><time>2026-04-18T09:13:32.785Z</time></trkpt><trkpt lat="42.1116717" lon="-7.9776817"><ele>895.0</ele><time>2026-04-18T09:13:33.783Z</time></trkpt><trkpt lat="42.1115683" lon="-7.97766"><ele>895.0</ele><time>2026-04-18T09:13:34.784Z</time></trkpt><trkpt lat="42.1114917" lon="-7.97766"><ele>895.0</ele><time>2026-04-18T09:13:35.786Z</time></trkpt><trkpt lat="42.1113683" lon="-7.9777283"><ele>896.2</ele><time>2026-04-18T09:13:37.784Z</time></trkpt><trkpt lat="42.1113367" lon="-7.9778267"><ele>897.4</ele><time>2026-04-18T09:13:38.784Z</time></trkpt><trkpt lat="42.1113033" lon="-7.9779017"><ele>898.5999999999999</ele><time>2026-04-18T09:13:39.784Z</time></trkpt><trkpt lat="42.1112717" lon="-7.9780483"><ele>899.8</ele><time>2026-04-18T09:13:40.784Z</time></trkpt><trkpt lat="42.1112217" lon="-7.9782017"><ele>901.0</ele><time>2026-04-18T09:13:41.784Z</time></trkpt><trkpt lat="42.1111667" lon="-7.9783483"><ele>899.5</ele><time>2026-04-18T09:13:42.784Z</time></trkpt><trkpt lat="42.11111" lon="-7.9785133"><ele>898.0</ele><time>2026-04-18T09:13:43.786Z</time></trkpt><trkpt lat="42.1110433" lon="-7.9786617"><ele>896.5</ele><time>2026-04-18T09:13:44.784Z</time></trkpt><trkpt lat="42.110965" lon="-7.978785"><ele>895.0</ele><time>2026-04-18T09:13:45.784Z</time></trkpt><trkpt lat="42.1108717" lon="-7.9788917"><ele>895.0</ele><time>2026-04-18T09:13:46.784Z</time></trkpt><trkpt lat="42.1107867" lon="-7.9789867"><ele>895.0</ele><time>2026-04-18T09:13:47.784Z</time></trkpt><trkpt lat="42.1107317" lon="-7.979095"><ele>895.0</ele><time>2026-04-18T09:13:48.787Z</time></trkpt><trkpt lat="42.1106867" lon="-7.9792083"><ele>895.0</ele><time>2026-04-18T09:13:49.785Z</time></trkpt><trkpt lat="42.110655" lon="-7.9793233"><ele>895.0</ele><time>2026-04-18T09:13:50.784Z</time></trkpt><trkpt lat="42.1106383" lon="-7.9794333"><ele>895.8571428571429</ele><time>2026-04-18T09:13:51.784Z</time></trkpt><trkpt lat="42.1106167" lon="-7.9795317"><ele>896.7142857142858</ele><time>2026-04-18T09:13:52.785Z</time></trkpt><trkpt lat="42.110595" lon="-7.9796117"><ele>897.5714285714287</ele><time>2026-04-18T09:13:53.784Z</time></trkpt><trkpt lat="42.1105633" lon="-7.9796983"><ele>898.4285714285714</ele><time>2026-04-18T09:13:55.787Z</time></trkpt><trkpt lat="42.1105033" lon="-7.979735"><ele>899.2857142857144</ele><time>2026-04-18T09:13:58.784Z</time></trkpt><trkpt lat="42.110435" lon="-7.9797667"><ele>900.1428571428572</ele><time>2026-04-18T09:14:00.787Z</time></trkpt><trkpt lat="42.110355" lon="-7.9798317"><ele>901.0</ele><time>2026-04-18T09:14:02.783Z</time></trkpt><trkpt lat="42.1102933" lon="-7.9798933"><ele>901.0</ele><time>2026-04-18T09:14:04.782Z</time></trkpt><trkpt lat="42.1102417" lon="-7.9799917"><ele>900.9999999999999</ele><time>2026-04-18T09:14:06.787Z</time></trkpt><trkpt lat="42.1102183" lon="-7.9801433"><ele>900.9999999999999</ele><time>2026-04-18T09:14:08.784Z</time></trkpt><trkpt lat="42.11019" lon="-7.9802883"><ele>901.0</ele><time>2026-04-18T09:14:10.783Z</time></trkpt><trkpt lat="42.1101483" lon="-7.9803833"><ele>901.0</ele><time>2026-04-18T09:14:12.784Z</time></trkpt><trkpt lat="42.1100683" lon="-7.9804467"><ele>902.5999999999999</ele><time>2026-04-18T09:14:14.784Z</time></trkpt><trkpt lat="42.1099383" lon="-7.9804683"><ele>904.1999999999999</ele><time>2026-04-18T09:14:16.783Z</time></trkpt><trkpt lat="42.109845" lon="-7.9804933"><ele>905.8000000000001</ele><time>2026-04-18T09:14:17.784Z</time></trkpt><trkpt lat="42.1097383" lon="-7.98052"><ele>907.4000000000001</ele><time>2026-04-18T09:14:18.784Z</time></trkpt><trkpt lat="42.10964" lon="-7.9805533"><ele>909.0</ele><time>2026-04-18T09:14:19.784Z</time></trkpt><trkpt lat="42.109545" lon="-7.980585"><ele>910.4000000000001</ele><time>2026-04-18T09:14:20.785Z</time></trkpt><trkpt lat="42.109455" lon="-7.98061"><ele>911.8000000000001</ele><time>2026-04-18T09:14:21.785Z</time></trkpt><trkpt lat="42.1093617" lon="-7.9806417"><ele>913.1999999999999</ele><time>2026-04-18T09:14:22.784Z</time></trkpt><trkpt lat="42.109255" lon="-7.98068"><ele>914.5999999999999</ele><time>2026-04-18T09:14:23.783Z</time></trkpt><trkpt lat="42.1091583" lon="-7.9807233"><ele>916.0</ele><time>2026-04-18T09:14:24.785Z</time></trkpt><trkpt lat="42.1090567" lon="-7.9807617"><ele>916.4999999999999</ele><time>2026-04-18T09:14:25.784Z</time></trkpt><trkpt lat="42.1089617" lon="-7.98081"><ele>917.0</ele><time>2026-04-18T09:14:26.783Z</time></trkpt><trkpt lat="42.1088833" lon="-7.9808483"><ele>917.5</ele><time>2026-04-18T09:14:27.784Z</time></trkpt><trkpt lat="42.1088267" lon="-7.9808883"><ele>918.0</ele><time>2026-04-18T09:14:28.784Z</time></trkpt><trkpt lat="42.10877" lon="-7.9809283"><ele>918.4999999999999</ele><time>2026-04-18T09:14:29.783Z</time></trkpt><trkpt lat="42.108705" lon="-7.9810417"><ele>919.0</ele><time>2026-04-18T09:14:31.783Z</time></trkpt><trkpt lat="42.1086517" lon="-7.981175"><ele>920.0</ele><time>2026-04-18T09:14:33.785Z</time></trkpt><trkpt lat="42.1086033" lon="-7.98123"><ele>921.0000000000001</ele><time>2026-04-18T09:14:34.783Z</time></trkpt><trkpt lat="42.10849" lon="-7.9813417"><ele>922.0000000000001</ele><time>2026-04-18T09:14:36.784Z</time></trkpt><trkpt lat="42.10842" lon="-7.98142"><ele>923.0</ele><time>2026-04-18T09:14:37.783Z</time></trkpt><trkpt lat="42.1083467" lon="-7.981515"><ele>924.0</ele><time>2026-04-18T09:14:38.785Z</time></trkpt><trkpt lat="42.108265" lon="-7.9816133"><ele>925.8000000000001</ele><time>2026-04-18T09:14:39.784Z</time></trkpt><trkpt lat="42.1081767" lon="-7.9817083"><ele>927.6000000000001</ele><time>2026-04-18T09:14:40.783Z</time></trkpt><trkpt lat="42.1080833" lon="-7.9817933"><ele>929.4</ele><time>2026-04-18T09:14:41.783Z</time></trkpt><trkpt lat="42.1079983" lon="-7.9818733"><ele>931.2</ele><time>2026-04-18T09:14:42.784Z</time></trkpt><trkpt lat="42.1078983" lon="-7.9819417"><ele>933.0</ele><time>2026-04-18T09:14:43.783Z</time></trkpt><trkpt lat="42.107795" lon="-7.9819983"><ele>933.0</ele><time>2026-04-18T09:14:44.784Z</time></trkpt><trkpt lat="42.1076817" lon="-7.98204"><ele>933.0</ele><time>2026-04-18T09:14:45.784Z</time></trkpt><trkpt lat="42.1075733" lon="-7.9820767"><ele>933.0</ele><time>2026-04-18T09:14:46.784Z</time></trkpt><trkpt lat="42.1074817" lon="-7.9820967"><ele>933.0</ele><time>2026-04-18T09:14:47.785Z</time></trkpt><trkpt lat="42.1074183" lon="-7.9821067"><ele>933.0</ele><time>2026-04-18T09:14:48.784Z</time></trkpt><trkpt lat="42.1073467" lon="-7.9820967"><ele>933.0</ele><time>2026-04-18T09:14:49.783Z</time></trkpt><trkpt lat="42.1072717" lon="-7.98209"><ele>933.0</ele><time>2026-04-18T09:14:50.786Z</time></trkpt><trkpt lat="42.1071283" lon="-7.9821283"><ele>933.0</ele><time>2026-04-18T09:14:52.783Z</time></trkpt><trkpt lat="42.1070367" lon="-7.982185"><ele>933.0</ele><time>2026-04-18T09:14:53.784Z</time></trkpt><trkpt lat="42.1069367" lon="-7.9822383"><ele>933.0</ele><time>2026-04-18T09:14:54.784Z</time></trkpt><trkpt lat="42.106835" lon="-7.982285"><ele>933.0</ele><time>2026-04-18T09:14:55.784Z</time></trkpt><trkpt lat="42.106725" lon="-7.9823483"><ele>933.0</ele><time>2026-04-18T09:14:56.784Z</time></trkpt><trkpt lat="42.1066083" lon="-7.98242"><ele>933.0</ele><time>2026-04-18T09:14:57.783Z</time></trkpt><trkpt lat="42.1065017" lon="-7.98249"><ele>933.0</ele><time>2026-04-18T09:14:58.784Z</time></trkpt><trkpt lat="42.1063617" lon="-7.9825867"><ele>935.0</ele><time>2026-04-18T09:14:59.784Z</time></trkpt><trkpt lat="42.1062167" lon="-7.9826667"><ele>937.0</ele><time>2026-04-18T09:15:00.784Z</time></trkpt><trkpt lat="42.1060683" lon="-7.98275"><ele>939.0</ele><time>2026-04-18T09:15:01.784Z</time></trkpt><trkpt lat="42.1059283" lon="-7.9828183"><ele>939.0</ele><time>2026-04-18T09:15:02.785Z</time></trkpt><trkpt lat="42.1057817" lon="-7.98288"><ele>939.0</ele><time>2026-04-18T09:15:03.783Z</time></trkpt><trkpt lat="42.1056433" lon="-7.9829467"><ele>939.0</ele><time>2026-04-18T09:15:04.784Z</time></trkpt><trkpt lat="42.1054983" lon="-7.9830233"><ele>939.0</ele><time>2026-04-18T09:15:05.783Z</time></trkpt><trkpt lat="42.1053617" lon="-7.9831017"><ele>939.0</ele><time>2026-04-18T09:15:06.784Z</time></trkpt><trkpt lat="42.10522" lon="-7.98318"><ele>939.0</ele><time>2026-04-18T09:15:07.785Z</time></trkpt><trkpt lat="42.105095" lon="-7.9832567"><ele>939.0</ele><time>2026-04-18T09:15:08.784Z</time></trkpt><trkpt lat="42.1049717" lon="-7.9833167"><ele>938.8333333333334</ele><time>2026-04-18T09:15:09.783Z</time></trkpt><trkpt lat="42.1048717" lon="-7.983355"><ele>938.6666666666667</ele><time>2026-04-18T09:15:10.784Z</time></trkpt><trkpt lat="42.104785" lon="-7.9833983"><ele>938.5</ele><time>2026-04-18T09:15:11.784Z</time></trkpt><trkpt lat="42.1046983" lon="-7.9834383"><ele>938.3333333333334</ele><time>2026-04-18T09:15:12.784Z</time></trkpt><trkpt lat="42.104625" lon="-7.9834767"><ele>938.1666666666667</ele><time>2026-04-18T09:15:13.783Z</time></trkpt><trkpt lat="42.1045517" lon="-7.9835133"><ele>938.0</ele><time>2026-04-18T09:15:14.784Z</time></trkpt><trkpt lat="42.1044417" lon="-7.9835833"><ele>938.0000000000001</ele><time>2026-04-18T09:15:16.783Z</time></trkpt><trkpt lat="42.1043567" lon="-7.98364"><ele>938.0</ele><time>2026-04-18T09:15:18.785Z</time></trkpt><trkpt lat="42.10426" lon="-7.983685"><ele>938.0</ele><time>2026-04-18T09:15:20.784Z</time></trkpt><trkpt lat="42.1041917" lon="-7.9837167"><ele>938.0</ele><time>2026-04-18T09:15:22.783Z</time></trkpt><trkpt lat="42.10414" lon="-7.9837733"><ele>938.0000000000001</ele><time>2026-04-18T09:15:25.783Z</time></trkpt><trkpt lat="42.10405" lon="-7.9838133"><ele>938.0</ele><time>2026-04-18T09:15:28.783Z</time></trkpt><trkpt lat="42.1041017" lon="-7.9837217"><ele>938.0</ele><time>2026-04-18T09:15:34.784Z</time></trkpt><trkpt lat="42.1041733" lon="-7.9836717"><ele>938.0</ele><time>2026-04-18T09:15:36.784Z</time></trkpt><trkpt lat="42.1042933" lon="-7.9835917"><ele>938.0</ele><time>2026-04-18T09:15:38.784Z</time></trkpt><trkpt lat="42.10437" lon="-7.983545"><ele>938.0</ele><time>2026-04-18T09:15:39.783Z</time></trkpt><trkpt lat="42.10445" lon="-7.9835"><ele>938.0</ele><time>2026-04-18T09:15:40.784Z</time></trkpt><trkpt lat="42.1045317" lon="-7.983465"><ele>938.0000000000001</ele><time>2026-04-18T09:15:41.783Z</time></trkpt><trkpt lat="42.1046067" lon="-7.983445"><ele>938.0</ele><time>2026-04-18T09:15:42.784Z</time></trkpt><trkpt lat="42.1046883" lon="-7.9834283"><ele>938.0</ele><time>2026-04-18T09:15:43.784Z</time></trkpt><trkpt lat="42.1047767" lon="-7.9834267"><ele>938.0</ele><time>2026-04-18T09:15:44.784Z</time></trkpt><trkpt lat="42.1048717" lon="-7.9834433"><ele>938.0000000000001</ele><time>2026-04-18T09:15:45.784Z</time></trkpt><trkpt lat="42.10497" lon="-7.9834717"><ele>938.0</ele><time>2026-04-18T09:15:46.783Z</time></trkpt><trkpt lat="42.1050883" lon="-7.9835083"><ele>937.25</ele><time>2026-04-18T09:15:47.784Z</time></trkpt><trkpt lat="42.10521" lon="-7.9835517"><ele>936.5</ele><time>2026-04-18T09:15:48.785Z</time></trkpt><trkpt lat="42.1053433" lon="-7.983605"><ele>935.75</ele><time>2026-04-18T09:15:49.783Z</time></trkpt><trkpt lat="42.1054833" lon="-7.9836717"><ele>935.0</ele><time>2026-04-18T09:15:50.784Z</time></trkpt><trkpt lat="42.10563" lon="-7.98374"><ele>937.0</ele><time>2026-04-18T09:15:51.785Z</time></trkpt><trkpt lat="42.1057883" lon="-7.9838183"><ele>939.0</ele><time>2026-04-18T09:15:52.783Z</time></trkpt><trkpt lat="42.1059433" lon="-7.983895"><ele>941.0</ele><time>2026-04-18T09:15:53.787Z</time></trkpt><trkpt lat="42.1060917" lon="-7.9839683"><ele>941.0</ele><time>2026-04-18T09:15:54.785Z</time></trkpt><trkpt lat="42.1062317" lon="-7.9840367"><ele>941.0</ele><time>2026-04-18T09:15:55.783Z</time></trkpt><trkpt lat="42.1063633" lon="-7.9841083"><ele>941.0</ele><time>2026-04-18T09:15:56.785Z</time></trkpt><trkpt lat="42.1064883" lon="-7.984175"><ele>941.0</ele><time>2026-04-18T09:15:57.783Z</time></trkpt><trkpt lat="42.1066" lon="-7.9842383"><ele>940.8</ele><time>2026-04-18T09:15:58.784Z</time></trkpt><trkpt lat="42.10671" lon="-7.9842933"><ele>940.5999999999999</ele><time>2026-04-18T09:15:59.786Z</time></trkpt><trkpt lat="42.1068167" lon="-7.9843417"><ele>940.4</ele><time>2026-04-18T09:16:00.784Z</time></trkpt><trkpt lat="42.1069167" lon="-7.984385"><ele>940.2</ele><time>2026-04-18T09:16:01.783Z</time></trkpt><trkpt lat="42.1069967" lon="-7.9844033"><ele>940.0</ele><time>2026-04-18T09:16:02.784Z</time></trkpt><trkpt lat="42.107065" lon="-7.984425"><ele>939.9999999999999</ele><time>2026-04-18T09:16:03.784Z</time></trkpt><trkpt lat="42.1071333" lon="-7.9844283"><ele>940.0</ele><time>2026-04-18T09:16:04.785Z</time></trkpt><trkpt lat="42.1071983" lon="-7.9844167"><ele>940.0</ele><time>2026-04-18T09:16:05.784Z</time></trkpt><trkpt lat="42.10728" lon="-7.984435"><ele>940.0</ele><time>2026-04-18T09:16:07.784Z</time></trkpt><trkpt lat="42.1072367" lon="-7.9845333"><ele>939.9999999999999</ele><time>2026-04-18T09:16:12.784Z</time></trkpt><trkpt lat="42.107145" lon="-7.9846017"><ele>940.0</ele><time>2026-04-18T09:16:14.784Z</time></trkpt><trkpt lat="42.1070483" lon="-7.9847083"><ele>939.9999999999999</ele><time>2026-04-18T09:16:16.783Z</time></trkpt><trkpt lat="42.1069817" lon="-7.9847667"><ele>940.0</ele><time>2026-04-18T09:16:17.784Z</time></trkpt><trkpt lat="42.1069117" lon="-7.9848183"><ele>940.0</ele><time>2026-04-18T09:16:18.784Z</time></trkpt><trkpt lat="42.106835" lon="-7.9848683"><ele>940.0</ele><time>2026-04-18T09:16:19.784Z</time></trkpt><trkpt lat="42.1067517" lon="-7.984915"><ele>939.9999999999999</ele><time>2026-04-18T09:16:20.784Z</time></trkpt><trkpt lat="42.10667" lon="-7.98496"><ele>940.0</ele><time>2026-04-18T09:16:21.783Z</time></trkpt><trkpt lat="42.106585" lon="-7.9850133"><ele>937.4</ele><time>2026-04-18T09:16:22.784Z</time></trkpt><trkpt lat="42.1064917" lon="-7.9850683"><ele>934.8</ele><time>2026-04-18T09:16:23.784Z</time></trkpt><trkpt lat="42.106395" lon="-7.98512"><ele>932.2</ele><time>2026-04-18T09:16:24.784Z</time></trkpt><trkpt lat="42.1062933" lon="-7.9851733"><ele>929.6</ele><time>2026-04-18T09:16:25.785Z</time></trkpt><trkpt lat="42.106205" lon="-7.9852133"><ele>927.0</ele><time>2026-04-18T09:16:26.784Z</time></trkpt><trkpt lat="42.1061433" lon="-7.9852333"><ele>927.0</ele><time>2026-04-18T09:16:27.784Z</time></trkpt><trkpt lat="42.106075" lon="-7.9852433"><ele>927.0</ele><time>2026-04-18T09:16:28.784Z</time></trkpt><trkpt lat="42.10596" lon="-7.985215"><ele>927.0</ele><time>2026-04-18T09:16:30.785Z</time></trkpt><trkpt lat="42.10586" lon="-7.9852167"><ele>927.0</ele><time>2026-04-18T09:16:32.784Z</time></trkpt><trkpt lat="42.1057883" lon="-7.9852483"><ele>927.0</ele><time>2026-04-18T09:16:34.783Z</time></trkpt><trkpt lat="42.10572" lon="-7.985255"><ele>927.0</ele><time>2026-04-18T09:16:36.784Z</time></trkpt><trkpt lat="42.1056433" lon="-7.9852517"><ele>926.0</ele><time>2026-04-18T09:16:38.784Z</time></trkpt><trkpt lat="42.1055317" lon="-7.98528"><ele>925.0</ele><time>2026-04-18T09:16:40.784Z</time></trkpt><trkpt lat="42.105425" lon="-7.9853217"><ele>924.0</ele><time>2026-04-18T09:16:42.785Z</time></trkpt><trkpt lat="42.1053683" lon="-7.98536"><ele>923.0</ele><time>2026-04-18T09:16:43.784Z</time></trkpt><trkpt lat="42.1052883" lon="-7.9854533"><ele>922.0</ele><time>2026-04-18T09:16:45.784Z</time></trkpt><trkpt lat="42.10521" lon="-7.9855483"><ele>922.0</ele><time>2026-04-18T09:16:47.784Z</time></trkpt><trkpt lat="42.1051467" lon="-7.9856083"><ele>922.0</ele><time>2026-04-18T09:16:49.784Z</time></trkpt><trkpt lat="42.105045" lon="-7.9855817"><ele>922.0</ele><time>2026-04-18T09:16:52.784Z</time></trkpt><trkpt lat="42.1049467" lon="-7.985565"><ele>922.0</ele><time>2026-04-18T09:16:54.784Z</time></trkpt><trkpt lat="42.1048533" lon="-7.985555"><ele>922.0</ele><time>2026-04-18T09:16:56.784Z</time></trkpt><trkpt lat="42.10477" lon="-7.98561"><ele>921.8333333333333</ele><time>2026-04-18T09:16:58.784Z</time></trkpt><trkpt lat="42.1047117" lon="-7.98565"><ele>921.6666666666666</ele><time>2026-04-18T09:16:59.785Z</time></trkpt><trkpt lat="42.1046483" lon="-7.985685"><ele>921.5</ele><time>2026-04-18T09:17:00.785Z</time></trkpt><trkpt lat="42.1045917" lon="-7.9857333"><ele>921.3333333333333</ele><time>2026-04-18T09:17:01.784Z</time></trkpt><trkpt lat="42.10451" lon="-7.985835"><ele>921.1666666666666</ele><time>2026-04-18T09:17:03.784Z</time></trkpt><trkpt lat="42.10447" lon="-7.9859433"><ele>921.0</ele><time>2026-04-18T09:17:05.784Z</time></trkpt><trkpt lat="42.1044617" lon="-7.98606"><ele>919.5999999999999</ele><time>2026-04-18T09:17:07.785Z</time></trkpt><trkpt lat="42.104465" lon="-7.9861667"><ele>918.1999999999999</ele><time>2026-04-18T09:17:09.784Z</time></trkpt><trkpt lat="42.1044317" lon="-7.9862817"><ele>916.8000000000001</ele><time>2026-04-18T09:17:12.784Z</time></trkpt><trkpt lat="42.104385" lon="-7.9863767"><ele>915.4000000000001</ele><time>2026-04-18T09:17:14.785Z</time></trkpt><trkpt lat="42.1043583" lon="-7.98653"><ele>914.0</ele><time>2026-04-18T09:17:16.784Z</time></trkpt><trkpt lat="42.104375" lon="-7.9866533"><ele>913.8000000000001</ele><time>2026-04-18T09:17:17.785Z</time></trkpt><trkpt lat="42.10439" lon="-7.9867733"><ele>913.6000000000001</ele><time>2026-04-18T09:17:18.786Z</time></trkpt><trkpt lat="42.104425" lon="-7.9868817"><ele>913.4</ele><time>2026-04-18T09:17:19.784Z</time></trkpt><trkpt lat="42.10449" lon="-7.9869883"><ele>913.2</ele><time>2026-04-18T09:17:20.785Z</time></trkpt><trkpt lat="42.104565" lon="-7.9871"><ele>913.0</ele><time>2026-04-18T09:17:21.784Z</time></trkpt><trkpt lat="42.10464" lon="-7.9872067"><ele>913.0</ele><time>2026-04-18T09:17:22.785Z</time></trkpt><trkpt lat="42.1047117" lon="-7.9873167"><ele>913.0</ele><time>2026-04-18T09:17:23.784Z</time></trkpt><trkpt lat="42.104785" lon="-7.987445"><ele>913.0</ele><time>2026-04-18T09:17:24.784Z</time></trkpt><trkpt lat="42.10485" lon="-7.987575"><ele>913.0</ele><time>2026-04-18T09:17:25.784Z</time></trkpt><trkpt lat="42.1049" lon="-7.987695"><ele>913.0</ele><time>2026-04-18T09:17:26.784Z</time></trkpt><trkpt lat="42.1049433" lon="-7.9878367"><ele>910.75</ele><time>2026-04-18T09:17:27.784Z</time></trkpt><trkpt lat="42.1049733" lon="-7.9879917"><ele>908.5</ele><time>2026-04-18T09:17:28.784Z</time></trkpt><trkpt lat="42.1050017" lon="-7.9881483"><ele>906.25</ele><time>2026-04-18T09:17:29.784Z</time></trkpt><trkpt lat="42.1050267" lon="-7.9883133"><ele>904.0</ele><time>2026-04-18T09:17:30.784Z</time></trkpt><trkpt lat="42.1050517" lon="-7.9884683"><ele>902.8000000000001</ele><time>2026-04-18T09:17:31.784Z</time></trkpt><trkpt lat="42.1050517" lon="-7.9886183"><ele>901.6000000000001</ele><time>2026-04-18T09:17:32.784Z</time></trkpt><trkpt lat="42.1050267" lon="-7.9887517"><ele>900.4</ele><time>2026-04-18T09:17:33.784Z</time></trkpt><trkpt lat="42.1049933" lon="-7.9888717"><ele>899.2</ele><time>2026-04-18T09:17:34.784Z</time></trkpt><trkpt lat="42.1049717" lon="-7.98897"><ele>898.0</ele><time>2026-04-18T09:17:35.784Z</time></trkpt><trkpt lat="42.1049533" lon="-7.9890733"><ele>898.0</ele><time>2026-04-18T09:17:36.784Z</time></trkpt><trkpt lat="42.1049533" lon="-7.98917"><ele>898.0</ele><time>2026-04-18T09:17:37.784Z</time></trkpt><trkpt lat="42.1049533" lon="-7.98928"><ele>898.0</ele><time>2026-04-18T09:17:38.785Z</time></trkpt><trkpt lat="42.10495" lon="-7.98939"><ele>898.0</ele><time>2026-04-18T09:17:39.784Z</time></trkpt><trkpt lat="42.10497" lon="-7.9895217"><ele>898.0</ele><time>2026-04-18T09:17:40.784Z</time></trkpt><trkpt lat="42.1050217" lon="-7.9897133"><ele>897.25</ele><time>2026-04-18T09:17:41.784Z</time></trkpt><trkpt lat="42.1050617" lon="-7.9898783"><ele>896.5</ele><time>2026-04-18T09:17:42.785Z</time></trkpt><trkpt lat="42.1051117" lon="-7.9900333"><ele>895.75</ele><time>2026-04-18T09:17:43.784Z</time></trkpt><trkpt lat="42.1051583" lon="-7.9902033"><ele>895.0</ele><time>2026-04-18T09:17:44.784Z</time></trkpt><trkpt lat="42.1051967" lon="-7.9903867"><ele>893.5</ele><time>2026-04-18T09:17:45.786Z</time></trkpt><trkpt lat="42.105235" lon="-7.9905583"><ele>892.0</ele><time>2026-04-18T09:17:46.785Z</time></trkpt><trkpt lat="42.1052483" lon="-7.9907383"><ele>890.5</ele><time>2026-04-18T09:17:47.784Z</time></trkpt><trkpt lat="42.10527" lon="-7.9908983"><ele>889.0</ele><time>2026-04-18T09:17:48.784Z</time></trkpt><trkpt lat="42.1052883" lon="-7.9910383"><ele>887.4000000000001</ele><time>2026-04-18T09:17:49.784Z</time></trkpt><trkpt lat="42.105305" lon="-7.991175"><ele>885.8000000000001</ele><time>2026-04-18T09:17:50.786Z</time></trkpt><trkpt lat="42.1053017" lon="-7.9912767"><ele>884.1999999999999</ele><time>2026-04-18T09:17:51.784Z</time></trkpt><trkpt lat="42.1052983" lon="-7.9913967"><ele>882.5999999999999</ele><time>2026-04-18T09:17:52.784Z</time></trkpt><trkpt lat="42.10528" lon="-7.9915167"><ele>881.0</ele><time>2026-04-18T09:17:53.784Z</time></trkpt><trkpt lat="42.1052483" lon="-7.99166"><ele>878.5999999999999</ele><time>2026-04-18T09:17:54.784Z</time></trkpt><trkpt lat="42.1052217" lon="-7.991785"><ele>876.1999999999999</ele><time>2026-04-18T09:17:55.784Z</time></trkpt><trkpt lat="42.1051883" lon="-7.9919067"><ele>873.8000000000001</ele><time>2026-04-18T09:17:56.785Z</time></trkpt><trkpt lat="42.1051517" lon="-7.9920233"><ele>871.4000000000001</ele><time>2026-04-18T09:17:57.785Z</time></trkpt><trkpt lat="42.1051167" lon="-7.992125"><ele>869.0</ele><time>2026-04-18T09:17:58.784Z</time></trkpt><trkpt lat="42.105085" lon="-7.9922433"><ele>869.0000000000001</ele><time>2026-04-18T09:17:59.784Z</time></trkpt><trkpt lat="42.1050567" lon="-7.9923233"><ele>869.0</ele><time>2026-04-18T09:18:00.784Z</time></trkpt><trkpt lat="42.1050083" lon="-7.9924183"><ele>869.0</ele><time>2026-04-18T09:18:02.784Z</time></trkpt><trkpt lat="42.10494" lon="-7.9924167"><ele>869.0</ele><time>2026-04-18T09:18:08.784Z</time></trkpt><trkpt lat="42.104955" lon="-7.9922933"><ele>869.0000000000001</ele><time>2026-04-18T09:18:25.785Z</time></trkpt><trkpt lat="42.10501" lon="-7.992235"><ele>869.0</ele><time>2026-04-18T09:18:28.784Z</time></trkpt><trkpt lat="42.10508" lon="-7.9922483"><ele>869.0000000000001</ele><time>2026-04-18T09:18:32.783Z</time></trkpt><trkpt lat="42.1051217" lon="-7.9923333"><ele>869.0</ele><time>2026-04-18T09:18:46.783Z</time></trkpt><trkpt lat="42.105125" lon="-7.992495"><ele>869.0</ele><time>2026-04-18T09:18:48.784Z</time></trkpt><trkpt lat="42.1051483" lon="-7.9925967"><ele>869.0</ele><time>2026-04-18T09:18:49.783Z</time></trkpt><trkpt lat="42.105165" lon="-7.9927133"><ele>869.0000000000001</ele><time>2026-04-18T09:18:50.782Z</time></trkpt><trkpt lat="42.1051767" lon="-7.9928167"><ele>869.0</ele><time>2026-04-18T09:18:51.785Z</time></trkpt><trkpt lat="42.105195" lon="-7.99294"><ele>867.5000000000001</ele><time>2026-04-18T09:18:52.782Z</time></trkpt><trkpt lat="42.105215" lon="-7.9930533"><ele>866.0</ele><time>2026-04-18T09:18:53.783Z</time></trkpt><trkpt lat="42.1052333" lon="-7.993185"><ele>864.5</ele><time>2026-04-18T09:18:54.785Z</time></trkpt><trkpt lat="42.1052667" lon="-7.9932917"><ele>863.0</ele><time>2026-04-18T09:18:55.782Z</time></trkpt><trkpt lat="42.1053117" lon="-7.9933983"><ele>861.5000000000001</ele><time>2026-04-18T09:18:56.784Z</time></trkpt><trkpt lat="42.1053533" lon="-7.9935"><ele>860.0</ele><time>2026-04-18T09:18:57.782Z</time></trkpt><trkpt lat="42.1053867" lon="-7.9935783"><ele>859.1666666666667</ele><time>2026-04-18T09:18:58.782Z</time></trkpt><trkpt lat="42.10545" lon="-7.9936767"><ele>858.3333333333334</ele><time>2026-04-18T09:19:00.783Z</time></trkpt><trkpt lat="42.1055117" lon="-7.9937267"><ele>857.5</ele><time>2026-04-18T09:19:02.783Z</time></trkpt><trkpt lat="42.105575" lon="-7.99379"><ele>856.6666666666667</ele><time>2026-04-18T09:19:04.782Z</time></trkpt><trkpt lat="42.1056417" lon="-7.9937867"><ele>855.8333333333334</ele><time>2026-04-18T09:19:07.782Z</time></trkpt><trkpt lat="42.1055717" lon="-7.9938267"><ele>855.0</ele><time>2026-04-18T09:19:17.783Z</time></trkpt><trkpt lat="42.1055267" lon="-7.9939133"><ele>855.0</ele><time>2026-04-18T09:19:19.783Z</time></trkpt><trkpt lat="42.105555" lon="-7.994035"><ele>855.0</ele><time>2026-04-18T09:19:21.783Z</time></trkpt><trkpt lat="42.10558" lon="-7.9941367"><ele>855.0</ele><time>2026-04-18T09:19:22.783Z</time></trkpt><trkpt lat="42.1056317" lon="-7.9942967"><ele>855.0</ele><time>2026-04-18T09:19:24.783Z</time></trkpt><trkpt lat="42.1056583" lon="-7.994415"><ele>855.0</ele><time>2026-04-18T09:19:25.783Z</time></trkpt><trkpt lat="42.1056867" lon="-7.9945283"><ele>854.3333333333334</ele><time>2026-04-18T09:19:26.783Z</time></trkpt><trkpt lat="42.1057133" lon="-7.9946367"><ele>853.6666666666667</ele><time>2026-04-18T09:19:27.783Z</time></trkpt><trkpt lat="42.1057317" lon="-7.994745"><ele>853.0</ele><time>2026-04-18T09:19:28.782Z</time></trkpt><trkpt lat="42.1057383" lon="-7.9948467"><ele>852.3333333333334</ele><time>2026-04-18T09:19:29.783Z</time></trkpt><trkpt lat="42.105735" lon="-7.9949417"><ele>851.6666666666667</ele><time>2026-04-18T09:19:30.784Z</time></trkpt><trkpt lat="42.105725" lon="-7.9950417"><ele>851.0</ele><time>2026-04-18T09:19:31.783Z</time></trkpt><trkpt lat="42.1057067" lon="-7.99514"><ele>849.0000000000001</ele><time>2026-04-18T09:19:32.783Z</time></trkpt><trkpt lat="42.1056767" lon="-7.9952383"><ele>847.0</ele><time>2026-04-18T09:19:33.783Z</time></trkpt><trkpt lat="42.10565" lon="-7.9953183"><ele>845.0</ele><time>2026-04-18T09:19:34.784Z</time></trkpt><trkpt lat="42.1056283" lon="-7.9954017"><ele>843.0</ele><time>2026-04-18T09:19:35.784Z</time></trkpt><trkpt lat="42.1056033" lon="-7.9954983"><ele>841.0000000000001</ele><time>2026-04-18T09:19:36.784Z</time></trkpt><trkpt lat="42.1055817" lon="-7.9955833"><ele>839.0</ele><time>2026-04-18T09:19:37.785Z</time></trkpt><trkpt lat="42.1055533" lon="-7.9957333"><ele>836.7142857142857</ele><time>2026-04-18T09:19:39.783Z</time></trkpt><trkpt lat="42.105545" lon="-7.995855"><ele>834.4285714285714</ele><time>2026-04-18T09:19:41.784Z</time></trkpt><trkpt lat="42.1055633" lon="-7.99594"><ele>832.1428571428571</ele><time>2026-04-18T09:19:43.783Z</time></trkpt><trkpt lat="42.105615" lon="-7.9959967"><ele>829.8571428571429</ele><time>2026-04-18T09:19:45.783Z</time></trkpt><trkpt lat="42.1056817" lon="-7.9959917"><ele>827.5714285714287</ele><time>2026-04-18T09:19:47.784Z</time></trkpt><trkpt lat="42.1057467" lon="-7.9959883"><ele>825.2857142857143</ele><time>2026-04-18T09:19:49.783Z</time></trkpt><trkpt lat="42.1057817" lon="-7.9960717"><ele>823.0</ele><time>2026-04-18T09:19:52.783Z</time></trkpt><trkpt lat="42.10575" lon="-7.9961733"><ele>822.9999999999999</ele><time>2026-04-18T09:19:54.787Z</time></trkpt><trkpt lat="42.1057167" lon="-7.9962517"><ele>823.0</ele><time>2026-04-18T09:19:55.784Z</time></trkpt><trkpt lat="42.105695" lon="-7.996355"><ele>823.0</ele><time>2026-04-18T09:19:56.784Z</time></trkpt><trkpt lat="42.10567" lon="-7.9964633"><ele>823.0</ele><time>2026-04-18T09:19:57.783Z</time></trkpt><trkpt lat="42.1056533" lon="-7.9965667"><ele>822.9999999999999</ele><time>2026-04-18T09:19:58.782Z</time></trkpt><trkpt lat="42.1056333" lon="-7.9966633"><ele>823.0</ele><time>2026-04-18T09:19:59.784Z</time></trkpt><trkpt lat="42.1056083" lon="-7.996765"><ele>822.1666666666666</ele><time>2026-04-18T09:20:00.783Z</time></trkpt><trkpt lat="42.10557" lon="-7.9968933"><ele>821.3333333333333</ele><time>2026-04-18T09:20:02.786Z</time></trkpt><trkpt lat="42.1055367" lon="-7.9970167"><ele>820.5</ele><time>2026-04-18T09:20:04.782Z</time></trkpt><trkpt lat="42.1055367" lon="-7.9971367"><ele>819.6666666666667</ele><time>2026-04-18T09:20:06.785Z</time></trkpt><trkpt lat="42.1055567" lon="-7.9972267"><ele>818.8333333333334</ele><time>2026-04-18T09:20:07.783Z</time></trkpt><trkpt lat="42.105585" lon="-7.9973033"><ele>818.0</ele><time>2026-04-18T09:20:08.783Z</time></trkpt><trkpt lat="42.1056183" lon="-7.9973767"><ele>818.0000000000001</ele><time>2026-04-18T09:20:09.784Z</time></trkpt><trkpt lat="42.105655" lon="-7.9974567"><ele>818.0</ele><time>2026-04-18T09:20:10.783Z</time></trkpt><trkpt lat="42.1057217" lon="-7.9975933"><ele>818.0</ele><time>2026-04-18T09:20:12.783Z</time></trkpt><trkpt lat="42.10577" lon="-7.9976783"><ele>818.0</ele><time>2026-04-18T09:20:13.784Z</time></trkpt><trkpt lat="42.1058083" lon="-7.9977583"><ele>818.0000000000001</ele><time>2026-04-18T09:20:14.783Z</time></trkpt><trkpt lat="42.1058533" lon="-7.99783"><ele>818.0</ele><time>2026-04-18T09:20:15.783Z</time></trkpt><trkpt lat="42.1058933" lon="-7.9979033"><ele>816.4285714285714</ele><time>2026-04-18T09:20:16.783Z</time></trkpt><trkpt lat="42.1059417" lon="-7.9979683"><ele>814.8571428571429</ele><time>2026-04-18T09:20:17.786Z</time></trkpt><trkpt lat="42.1059967" lon="-7.9980267"><ele>813.2857142857143</ele><time>2026-04-18T09:20:18.785Z</time></trkpt><trkpt lat="42.1060567" lon="-7.9980917"><ele>811.7142857142858</ele><time>2026-04-18T09:20:19.783Z</time></trkpt><trkpt lat="42.10612" lon="-7.9981233"><ele>810.1428571428571</ele><time>2026-04-18T09:20:20.784Z</time></trkpt><trkpt lat="42.1061833" lon="-7.9981483"><ele>808.5714285714287</ele><time>2026-04-18T09:20:21.784Z</time></trkpt><trkpt lat="42.106275" lon="-7.9982"><ele>807.0</ele><time>2026-04-18T09:20:23.783Z</time></trkpt><trkpt lat="42.106355" lon="-7.9982967"><ele>807.0</ele><time>2026-04-18T09:20:25.782Z</time></trkpt><trkpt lat="42.1064067" lon="-7.9983517"><ele>807.0</ele><time>2026-04-18T09:20:26.784Z</time></trkpt><trkpt lat="42.1064917" lon="-7.9984333"><ele>807.0</ele><time>2026-04-18T09:20:28.782Z</time></trkpt><trkpt lat="42.1065517" lon="-7.99848"><ele>807.0</ele><time>2026-04-18T09:20:31.783Z</time></trkpt><trkpt lat="42.10649" lon="-7.9984517"><ele>807.0</ele><time>2026-04-18T09:20:35.783Z</time></trkpt><trkpt lat="42.1064117" lon="-7.9983517"><ele>807.0</ele><time>2026-04-18T09:20:37.783Z</time></trkpt><trkpt lat="42.10636" lon="-7.9983017"><ele>807.0</ele><time>2026-04-18T09:20:38.783Z</time></trkpt><trkpt lat="42.106225" lon="-7.99825"><ele>807.0</ele><time>2026-04-18T09:20:40.783Z</time></trkpt><trkpt lat="42.106145" lon="-7.9982167"><ele>807.0</ele><time>2026-04-18T09:20:41.783Z</time></trkpt><trkpt lat="42.1060733" lon="-7.9981833"><ele>807.0</ele><time>2026-04-18T09:20:42.783Z</time></trkpt><trkpt lat="42.1059983" lon="-7.9981517"><ele>807.0</ele><time>2026-04-18T09:20:43.783Z</time></trkpt><trkpt lat="42.1059183" lon="-7.998115"><ele>807.0</ele><time>2026-04-18T09:20:44.783Z</time></trkpt><trkpt lat="42.10585" lon="-7.99805"><ele>807.0</ele><time>2026-04-18T09:20:45.782Z</time></trkpt><trkpt lat="42.10579" lon="-7.9979733"><ele>807.0</ele><time>2026-04-18T09:20:46.783Z</time></trkpt><trkpt lat="42.1057283" lon="-7.9978867"><ele>807.0</ele><time>2026-04-18T09:20:47.784Z</time></trkpt><trkpt lat="42.1056783" lon="-7.9978033"><ele>807.0</ele><time>2026-04-18T09:20:48.783Z</time></trkpt><trkpt lat="42.10562" lon="-7.997715"><ele>807.0</ele><time>2026-04-18T09:20:49.783Z</time></trkpt><trkpt lat="42.10557" lon="-7.99762"><ele>808.8333333333334</ele><time>2026-04-18T09:20:50.783Z</time></trkpt><trkpt lat="42.105525" lon="-7.9975133"><ele>810.6666666666667</ele><time>2026-04-18T09:20:51.784Z</time></trkpt><trkpt lat="42.1054967" lon="-7.9974033"><ele>812.5</ele><time>2026-04-18T09:20:52.786Z</time></trkpt><trkpt lat="42.1054667" lon="-7.9973033"><ele>814.3333333333334</ele><time>2026-04-18T09:20:53.784Z</time></trkpt><trkpt lat="42.1054567" lon="-7.9972183"><ele>816.1666666666667</ele><time>2026-04-18T09:20:54.784Z</time></trkpt><trkpt lat="42.1054533" lon="-7.997065"><ele>818.0</ele><time>2026-04-18T09:20:56.783Z</time></trkpt><trkpt lat="42.1054767" lon="-7.9969733"><ele>818.0</ele><time>2026-04-18T09:20:57.783Z</time></trkpt><trkpt lat="42.1054983" lon="-7.99685"><ele>818.0</ele><time>2026-04-18T09:20:58.784Z</time></trkpt><trkpt lat="42.1055217" lon="-7.996705"><ele>818.0</ele><time>2026-04-18T09:20:59.785Z</time></trkpt><trkpt lat="42.10555" lon="-7.996575"><ele>818.0</ele><time>2026-04-18T09:21:00.783Z</time></trkpt><trkpt lat="42.105575" lon="-7.996455"><ele>818.0</ele><time>2026-04-18T09:21:01.783Z</time></trkpt><trkpt lat="42.1056167" lon="-7.996335"><ele>817.5000000000001</ele><time>2026-04-18T09:21:02.783Z</time></trkpt><trkpt lat="42.1056583" lon="-7.996215"><ele>817.0</ele><time>2026-04-18T09:21:03.783Z</time></trkpt><trkpt lat="42.1057" lon="-7.9961217"><ele>816.5</ele><time>2026-04-18T09:21:04.783Z</time></trkpt><trkpt lat="42.1057283" lon="-7.9960383"><ele>816.0</ele><time>2026-04-18T09:21:05.782Z</time></trkpt><trkpt lat="42.1057517" lon="-7.9959433"><ele>815.5000000000001</ele><time>2026-04-18T09:21:06.784Z</time></trkpt><trkpt lat="42.1057867" lon="-7.995855"><ele>815.0</ele><time>2026-04-18T09:21:07.784Z</time></trkpt><trkpt lat="42.1058067" lon="-7.9957667"><ele>816.3333333333334</ele><time>2026-04-18T09:21:08.783Z</time></trkpt><trkpt lat="42.1058317" lon="-7.9956683"><ele>817.6666666666667</ele><time>2026-04-18T09:21:09.783Z</time></trkpt><trkpt lat="42.1058633" lon="-7.9955533"><ele>819.0</ele><time>2026-04-18T09:21:10.784Z</time></trkpt><trkpt lat="42.10588" lon="-7.995445"><ele>820.3333333333333</ele><time>2026-04-18T09:21:11.783Z</time></trkpt><trkpt lat="42.1059017" lon="-7.9953333"><ele>821.6666666666666</ele><time>2026-04-18T09:21:12.783Z</time></trkpt><trkpt lat="42.105905" lon="-7.9952333"><ele>823.0</ele><time>2026-04-18T09:21:13.783Z</time></trkpt><trkpt lat="42.10591" lon="-7.9951283"><ele>823.0</ele><time>2026-04-18T09:21:14.783Z</time></trkpt><trkpt lat="42.1059067" lon="-7.9950183"><ele>823.0</ele><time>2026-04-18T09:21:15.784Z</time></trkpt><trkpt lat="42.1058983" lon="-7.99493"><ele>823.0</ele><time>2026-04-18T09:21:16.783Z</time></trkpt><trkpt lat="42.1059117" lon="-7.99484"><ele>823.0</ele><time>2026-04-18T09:21:17.786Z</time></trkpt><trkpt lat="42.1059183" lon="-7.994745"><ele>823.0</ele><time>2026-04-18T09:21:18.784Z</time></trkpt><trkpt lat="42.1059183" lon="-7.9946367"><ele>823.0</ele><time>2026-04-18T09:21:19.783Z</time></trkpt><trkpt lat="42.105935" lon="-7.9945283"><ele>823.0</ele><time>2026-04-18T09:21:20.783Z</time></trkpt><trkpt lat="42.10594" lon="-7.994425"><ele>824.8333333333333</ele><time>2026-04-18T09:21:21.783Z</time></trkpt><trkpt lat="42.1059533" lon="-7.9943167"><ele>826.6666666666666</ele><time>2026-04-18T09:21:22.783Z</time></trkpt><trkpt lat="42.1059633" lon="-7.9942217"><ele>828.5</ele><time>2026-04-18T09:21:23.783Z</time></trkpt><trkpt lat="42.1059717" lon="-7.9941183"><ele>830.3333333333333</ele><time>2026-04-18T09:21:24.784Z</time></trkpt><trkpt lat="42.1059983" lon="-7.994"><ele>832.1666666666666</ele><time>2026-04-18T09:21:25.783Z</time></trkpt><trkpt lat="42.1060033" lon="-7.9939033"><ele>834.0</ele><time>2026-04-18T09:21:26.783Z</time></trkpt><trkpt lat="42.105985" lon="-7.9937733"><ele>835.4000000000001</ele><time>2026-04-18T09:21:28.783Z</time></trkpt><trkpt lat="42.1058817" lon="-7.99377"><ele>836.8</ele><time>2026-04-18T09:21:31.783Z</time></trkpt><trkpt lat="42.1058183" lon="-7.9937683"><ele>838.2</ele><time>2026-04-18T09:21:32.783Z</time></trkpt><trkpt lat="42.1057067" lon="-7.993795"><ele>839.5999999999999</ele><time>2026-04-18T09:21:34.785Z</time></trkpt><trkpt lat="42.1056183" lon="-7.9938433"><ele>841.0</ele><time>2026-04-18T09:21:36.784Z</time></trkpt><trkpt lat="42.1055567" lon="-7.993965"><ele>843.0</ele><time>2026-04-18T09:21:38.783Z</time></trkpt><trkpt lat="42.10551" lon="-7.994035"><ele>845.0</ele><time>2026-04-18T09:21:39.786Z</time></trkpt><trkpt lat="42.1054483" lon="-7.9941183"><ele>847.0</ele><time>2026-04-18T09:21:40.783Z</time></trkpt><trkpt lat="42.10535" lon="-7.9942217"><ele>849.0</ele><time>2026-04-18T09:21:41.783Z</time></trkpt><trkpt lat="42.1052067" lon="-7.994305"><ele>851.0</ele><time>2026-04-18T09:21:42.783Z</time></trkpt><trkpt lat="42.1050683" lon="-7.994345"><ele>851.0</ele><time>2026-04-18T09:21:43.784Z</time></trkpt><trkpt lat="42.104955" lon="-7.99436"><ele>851.0</ele><time>2026-04-18T09:21:44.783Z</time></trkpt><trkpt lat="42.1048417" lon="-7.9943767"><ele>851.0</ele><time>2026-04-18T09:21:45.783Z</time></trkpt><trkpt lat="42.1047533" lon="-7.9944067"><ele>851.0</ele><time>2026-04-18T09:21:46.783Z</time></trkpt><trkpt lat="42.1046733" lon="-7.9944383"><ele>851.0</ele><time>2026-04-18T09:21:47.783Z</time></trkpt><trkpt lat="42.1046" lon="-7.99449"><ele>851.8</ele><time>2026-04-18T09:21:48.783Z</time></trkpt><trkpt lat="42.1045317" lon="-7.9945967"><ele>852.5999999999999</ele><time>2026-04-18T09:21:49.783Z</time></trkpt><trkpt lat="42.104495" lon="-7.9947383"><ele>853.4</ele><time>2026-04-18T09:21:50.784Z</time></trkpt><trkpt lat="42.1044517" lon="-7.9948367"><ele>854.2</ele><time>2026-04-18T09:21:51.783Z</time></trkpt><trkpt lat="42.1044083" lon="-7.9949567"><ele>855.0</ele><time>2026-04-18T09:21:52.784Z</time></trkpt><trkpt lat="42.1043717" lon="-7.9950683"><ele>855.0</ele><time>2026-04-18T09:21:53.783Z</time></trkpt><trkpt lat="42.1043367" lon="-7.99517"><ele>855.0</ele><time>2026-04-18T09:21:54.784Z</time></trkpt><trkpt lat="42.1042867" lon="-7.9952617"><ele>855.0</ele><time>2026-04-18T09:21:55.783Z</time></trkpt><trkpt lat="42.1042367" lon="-7.9953467"><ele>855.0</ele><time>2026-04-18T09:21:56.784Z</time></trkpt><trkpt lat="42.104175" lon="-7.9954417"><ele>855.0</ele><time>2026-04-18T09:21:57.784Z</time></trkpt><trkpt lat="42.1041017" lon="-7.9955117"><ele>855.0</ele><time>2026-04-18T09:21:58.783Z</time></trkpt><trkpt lat="42.1040317" lon="-7.99558"><ele>856.1666666666666</ele><time>2026-04-18T09:21:59.784Z</time></trkpt><trkpt lat="42.1039583" lon="-7.9956167"><ele>857.3333333333333</ele><time>2026-04-18T09:22:00.783Z</time></trkpt><trkpt lat="42.1038967" lon="-7.9956483"><ele>858.5</ele><time>2026-04-18T09:22:01.785Z</time></trkpt><trkpt lat="42.103795" lon="-7.995665"><ele>859.6666666666666</ele><time>2026-04-18T09:22:03.783Z</time></trkpt><trkpt lat="42.1037267" lon="-7.9956483"><ele>860.8333333333333</ele><time>2026-04-18T09:22:04.784Z</time></trkpt><trkpt lat="42.10365" lon="-7.9956067"><ele>862.0</ele><time>2026-04-18T09:22:05.783Z</time></trkpt><trkpt lat="42.1035683" lon="-7.9955817"><ele>862.0</ele><time>2026-04-18T09:22:06.784Z</time></trkpt><trkpt lat="42.103475" lon="-7.9955583"><ele>862.0</ele><time>2026-04-18T09:22:07.783Z</time></trkpt><trkpt lat="42.1033633" lon="-7.995525"><ele>862.0</ele><time>2026-04-18T09:22:08.783Z</time></trkpt><trkpt lat="42.1032633" lon="-7.9955167"><ele>862.0</ele><time>2026-04-18T09:22:09.787Z</time></trkpt><trkpt lat="42.1031667" lon="-7.995535"><ele>862.0</ele><time>2026-04-18T09:22:10.783Z</time></trkpt><trkpt lat="42.1030617" lon="-7.9956083"><ele>863.5</ele><time>2026-04-18T09:22:11.784Z</time></trkpt><trkpt lat="42.1029467" lon="-7.9956433"><ele>865.0</ele><time>2026-04-18T09:22:12.785Z</time></trkpt><trkpt lat="42.10283" lon="-7.995695"><ele>866.5</ele><time>2026-04-18T09:22:13.784Z</time></trkpt><trkpt lat="42.1027167" lon="-7.9957533"><ele>868.0</ele><time>2026-04-18T09:22:14.785Z</time></trkpt><trkpt lat="42.1026033" lon="-7.9957883"><ele>868.0</ele><time>2026-04-18T09:22:15.783Z</time></trkpt><trkpt lat="42.1024817" lon="-7.9958317"><ele>868.0</ele><time>2026-04-18T09:22:16.783Z</time></trkpt><trkpt lat="42.10237" lon="-7.995855"><ele>868.0</ele><time>2026-04-18T09:22:17.784Z</time></trkpt><trkpt lat="42.102235" lon="-7.9958583"><ele>868.0</ele><time>2026-04-18T09:22:18.783Z</time></trkpt><trkpt lat="42.1021533" lon="-7.9958783"><ele>867.8</ele><time>2026-04-18T09:22:19.783Z</time></trkpt><trkpt lat="42.1020717" lon="-7.995885"><ele>867.5999999999999</ele><time>2026-04-18T09:22:20.783Z</time></trkpt><trkpt lat="42.1019733" lon="-7.9958483"><ele>867.4000000000001</ele><time>2026-04-18T09:22:21.783Z</time></trkpt><trkpt lat="42.1018683" lon="-7.9958"><ele>867.2</ele><time>2026-04-18T09:22:22.784Z</time></trkpt><trkpt lat="42.1017617" lon="-7.9957433"><ele>867.0</ele><time>2026-04-18T09:22:23.783Z</time></trkpt><trkpt lat="42.101625" lon="-7.9956783"><ele>868.8333333333334</ele><time>2026-04-18T09:22:24.784Z</time></trkpt><trkpt lat="42.1015333" lon="-7.99564"><ele>870.6666666666667</ele><time>2026-04-18T09:22:25.783Z</time></trkpt><trkpt lat="42.10143" lon="-7.995585"><ele>872.5</ele><time>2026-04-18T09:22:26.784Z</time></trkpt><trkpt lat="42.1013467" lon="-7.9955467"><ele>874.3333333333334</ele><time>2026-04-18T09:22:27.783Z</time></trkpt><trkpt lat="42.101275" lon="-7.9955467"><ele>876.1666666666667</ele><time>2026-04-18T09:22:28.782Z</time></trkpt><trkpt lat="42.10121" lon="-7.9955417"><ele>878.0</ele><time>2026-04-18T09:22:29.784Z</time></trkpt><trkpt lat="42.101095" lon="-7.9955933"><ele>878.0</ele><time>2026-04-18T09:22:31.784Z</time></trkpt><trkpt lat="42.1010533" lon="-7.995665"><ele>878.0</ele><time>2026-04-18T09:22:32.784Z</time></trkpt><trkpt lat="42.1010767" lon="-7.9958633"><ele>878.0</ele><time>2026-04-18T09:22:33.785Z</time></trkpt><trkpt lat="42.1010683" lon="-7.9960317"><ele>878.0</ele><time>2026-04-18T09:22:34.784Z</time></trkpt><trkpt lat="42.1010433" lon="-7.9961667"><ele>878.0</ele><time>2026-04-18T09:22:35.784Z</time></trkpt><trkpt lat="42.1010183" lon="-7.9963267"><ele>877.2</ele><time>2026-04-18T09:22:36.785Z</time></trkpt><trkpt lat="42.1010033" lon="-7.9964717"><ele>876.4</ele><time>2026-04-18T09:22:37.784Z</time></trkpt><trkpt lat="42.1009917" lon="-7.9966433"><ele>875.6000000000001</ele><time>2026-04-18T09:22:38.784Z</time></trkpt><trkpt lat="42.1010067" lon="-7.996795"><ele>874.8000000000001</ele><time>2026-04-18T09:22:39.784Z</time></trkpt><trkpt lat="42.1010317" lon="-7.996895"><ele>874.0</ele><time>2026-04-18T09:22:40.786Z</time></trkpt><trkpt lat="42.1010733" lon="-7.9969967"><ele>873.9999999999999</ele><time>2026-04-18T09:22:41.784Z</time></trkpt><trkpt lat="42.1011133" lon="-7.9970917"><ele>874.0</ele><time>2026-04-18T09:22:42.784Z</time></trkpt><trkpt lat="42.1011433" lon="-7.9971733"><ele>874.0</ele><time>2026-04-18T09:22:43.784Z</time></trkpt><trkpt lat="42.101185" lon="-7.997275"><ele>874.0</ele><time>2026-04-18T09:22:44.784Z</time></trkpt><trkpt lat="42.1012183" lon="-7.9973783"><ele>873.9999999999999</ele><time>2026-04-18T09:22:45.783Z</time></trkpt><trkpt lat="42.1012433" lon="-7.99748"><ele>874.0</ele><time>2026-04-18T09:22:46.783Z</time></trkpt><trkpt lat="42.1012617" lon="-7.9975833"><ele>873.1666666666666</ele><time>2026-04-18T09:22:47.785Z</time></trkpt><trkpt lat="42.1012633" lon="-7.9976983"><ele>872.3333333333333</ele><time>2026-04-18T09:22:48.784Z</time></trkpt><trkpt lat="42.1012583" lon="-7.9978033"><ele>871.5</ele><time>2026-04-18T09:22:49.784Z</time></trkpt><trkpt lat="42.1012583" lon="-7.9979"><ele>870.6666666666667</ele><time>2026-04-18T09:22:50.786Z</time></trkpt><trkpt lat="42.10123" lon="-7.9980017"><ele>869.8333333333334</ele><time>2026-04-18T09:22:51.783Z</time></trkpt><trkpt lat="42.101205" lon="-7.9981183"><ele>869.0</ele><time>2026-04-18T09:22:52.783Z</time></trkpt><trkpt lat="42.101175" lon="-7.9982383"><ele>867.6</ele><time>2026-04-18T09:22:53.783Z</time></trkpt><trkpt lat="42.1011483" lon="-7.9983633"><ele>866.2</ele><time>2026-04-18T09:22:54.788Z</time></trkpt><trkpt lat="42.1011167" lon="-7.998505"><ele>864.8000000000001</ele><time>2026-04-18T09:22:55.783Z</time></trkpt><trkpt lat="42.1010583" lon="-7.9986433"><ele>863.4000000000001</ele><time>2026-04-18T09:22:56.784Z</time></trkpt><trkpt lat="42.10102" lon="-7.9987783"><ele>862.0</ele><time>2026-04-18T09:22:57.783Z</time></trkpt><trkpt lat="42.1009833" lon="-7.9988917"><ele>862.0</ele><time>2026-04-18T09:22:58.784Z</time></trkpt><trkpt lat="42.1009617" lon="-7.9989833"><ele>862.0</ele><time>2026-04-18T09:22:59.786Z</time></trkpt><trkpt lat="42.1009217" lon="-7.999085"><ele>862.0</ele><time>2026-04-18T09:23:00.784Z</time></trkpt><trkpt lat="42.1008867" lon="-7.99921"><ele>862.0</ele><time>2026-04-18T09:23:01.785Z</time></trkpt><trkpt lat="42.1008083" lon="-7.999365"><ele>862.0</ele><time>2026-04-18T09:23:02.784Z</time></trkpt><trkpt lat="42.1007283" lon="-7.9995017"><ele>863.6</ele><time>2026-04-18T09:23:03.785Z</time></trkpt><trkpt lat="42.100665" lon="-7.9996233"><ele>865.2</ele><time>2026-04-18T09:23:04.783Z</time></trkpt><trkpt lat="42.1006217" lon="-7.9997533"><ele>866.8</ele><time>2026-04-18T09:23:05.784Z</time></trkpt><trkpt lat="42.1005883" lon="-7.9998817"><ele>868.4</ele><time>2026-04-18T09:23:06.784Z</time></trkpt><trkpt lat="42.1005617" lon="-7.9999917"><ele>870.0</ele><time>2026-04-18T09:23:07.783Z</time></trkpt><trkpt lat="42.100545" lon="-8.000095"><ele>870.0</ele><time>2026-04-18T09:23:08.783Z</time></trkpt><trkpt lat="42.1005367" lon="-8.000195"><ele>870.0</ele><time>2026-04-18T09:23:09.784Z</time></trkpt><trkpt lat="42.10057" lon="-8.0003033"><ele>870.0</ele><time>2026-04-18T09:23:11.786Z</time></trkpt><trkpt lat="42.1006017" lon="-8.00038"><ele>870.0</ele><time>2026-04-18T09:23:13.785Z</time></trkpt><trkpt lat="42.1005833" lon="-8.0004767"><ele>870.0</ele><time>2026-04-18T09:23:15.783Z</time></trkpt><trkpt lat="42.100505" lon="-8.000565"><ele>870.0</ele><time>2026-04-18T09:23:17.785Z</time></trkpt><trkpt lat="42.1003917" lon="-8.0006283"><ele>870.0</ele><time>2026-04-18T09:23:19.783Z</time></trkpt><trkpt lat="42.1003267" lon="-8.000675"><ele>870.0</ele><time>2026-04-18T09:23:20.784Z</time></trkpt><trkpt lat="42.1002517" lon="-8.0007"><ele>870.0</ele><time>2026-04-18T09:23:21.782Z</time></trkpt><trkpt lat="42.100165" lon="-8.0006967"><ele>870.0</ele><time>2026-04-18T09:23:22.784Z</time></trkpt><trkpt lat="42.1000617" lon="-8.0006933"><ele>870.0</ele><time>2026-04-18T09:23:23.784Z</time></trkpt><trkpt lat="42.0999683" lon="-8.0006883"><ele>870.0</ele><time>2026-04-18T09:23:24.789Z</time></trkpt><trkpt lat="42.0998617" lon="-8.0006583"><ele>872.8</ele><time>2026-04-18T09:23:25.785Z</time></trkpt><trkpt lat="42.0997483" lon="-8.00062"><ele>875.6</ele><time>2026-04-18T09:23:26.784Z</time></trkpt><trkpt lat="42.099645" lon="-8.0006033"><ele>878.4000000000001</ele><time>2026-04-18T09:23:27.783Z</time></trkpt><trkpt lat="42.099545" lon="-8.0005917"><ele>881.2</ele><time>2026-04-18T09:23:28.783Z</time></trkpt><trkpt lat="42.099455" lon="-8.0005917"><ele>884.0</ele><time>2026-04-18T09:23:29.784Z</time></trkpt><trkpt lat="42.099365" lon="-8.000595"><ele>884.0000000000001</ele><time>2026-04-18T09:23:30.784Z</time></trkpt><trkpt lat="42.099285" lon="-8.0005933"><ele>884.0</ele><time>2026-04-18T09:23:31.783Z</time></trkpt><trkpt lat="42.099205" lon="-8.000585"><ele>884.0</ele><time>2026-04-18T09:23:32.783Z</time></trkpt><trkpt lat="42.099135" lon="-8.000585"><ele>884.0</ele><time>2026-04-18T09:23:33.783Z</time></trkpt><trkpt lat="42.09903" lon="-8.0005783"><ele>884.0000000000001</ele><time>2026-04-18T09:23:35.783Z</time></trkpt><trkpt lat="42.0989433" lon="-8.0005933"><ele>884.0</ele><time>2026-04-18T09:23:37.783Z</time></trkpt><trkpt lat="42.0988567" lon="-8.0006"><ele>885.2</ele><time>2026-04-18T09:23:39.784Z</time></trkpt><trkpt lat="42.0987567" lon="-8.000625"><ele>886.4000000000001</ele><time>2026-04-18T09:23:41.783Z</time></trkpt><trkpt lat="42.09865" lon="-8.000655"><ele>887.6</ele><time>2026-04-18T09:23:43.783Z</time></trkpt><trkpt lat="42.0985717" lon="-8.0006983"><ele>888.8</ele><time>2026-04-18T09:23:45.784Z</time></trkpt><trkpt lat="42.0984883" lon="-8.0007117"><ele>890.0</ele><time>2026-04-18T09:23:47.783Z</time></trkpt><trkpt lat="42.0983967" lon="-8.00073"><ele>890.0</ele><time>2026-04-18T09:23:49.783Z</time></trkpt><trkpt lat="42.098315" lon="-8.00073"><ele>890.0</ele><time>2026-04-18T09:23:51.783Z</time></trkpt><trkpt lat="42.0982317" lon="-8.000725"><ele>890.0</ele><time>2026-04-18T09:23:53.784Z</time></trkpt><trkpt lat="42.0981433" lon="-8.0007383"><ele>890.0</ele><time>2026-04-18T09:23:55.783Z</time></trkpt><trkpt lat="42.0980467" lon="-8.0007833"><ele>890.0</ele><time>2026-04-18T09:23:57.783Z</time></trkpt><trkpt lat="42.0979417" lon="-8.000835"><ele>888.6</ele><time>2026-04-18T09:23:59.784Z</time></trkpt><trkpt lat="42.0978767" lon="-8.000865"><ele>887.2</ele><time>2026-04-18T09:24:00.784Z</time></trkpt><trkpt lat="42.0977783" lon="-8.0009983"><ele>885.8</ele><time>2026-04-18T09:24:02.784Z</time></trkpt><trkpt lat="42.0977367" lon="-8.0011183"><ele>884.4</ele><time>2026-04-18T09:24:03.784Z</time></trkpt><trkpt lat="42.0976933" lon="-8.0012633"><ele>883.0</ele><time>2026-04-18T09:24:04.784Z</time></trkpt><trkpt lat="42.0976667" lon="-8.0014417"><ele>883.0</ele><time>2026-04-18T09:24:05.785Z</time></trkpt><trkpt lat="42.0976483" lon="-8.0016133"><ele>883.0</ele><time>2026-04-18T09:24:06.784Z</time></trkpt><trkpt lat="42.0976467" lon="-8.0018"><ele>883.0</ele><time>2026-04-18T09:24:07.783Z</time></trkpt><trkpt lat="42.0976417" lon="-8.0019683"><ele>883.0</ele><time>2026-04-18T09:24:08.783Z</time></trkpt><trkpt lat="42.0976383" lon="-8.002125"><ele>883.75</ele><time>2026-04-18T09:24:09.786Z</time></trkpt><trkpt lat="42.09764" lon="-8.0022833"><ele>884.5</ele><time>2026-04-18T09:24:10.783Z</time></trkpt><trkpt lat="42.09763" lon="-8.0024367"><ele>885.25</ele><time>2026-04-18T09:24:11.784Z</time></trkpt><trkpt lat="42.09759" lon="-8.002625"><ele>886.0</ele><time>2026-04-18T09:24:12.784Z</time></trkpt><trkpt lat="42.0975433" lon="-8.002765"><ele>887.75</ele><time>2026-04-18T09:24:13.786Z</time></trkpt><trkpt lat="42.097525" lon="-8.002915"><ele>889.5</ele><time>2026-04-18T09:24:14.783Z</time></trkpt><trkpt lat="42.0974883" lon="-8.0030533"><ele>891.25</ele><time>2026-04-18T09:24:15.783Z</time></trkpt><trkpt lat="42.0973567" lon="-8.0032283"><ele>893.0</ele><time>2026-04-18T09:24:16.784Z</time></trkpt><trkpt lat="42.097235" lon="-8.0033833"><ele>893.6666666666667</ele><time>2026-04-18T09:24:17.784Z</time></trkpt><trkpt lat="42.0970917" lon="-8.0035233"><ele>894.3333333333333</ele><time>2026-04-18T09:24:18.786Z</time></trkpt><trkpt lat="42.0969433" lon="-8.00363"><ele>895.0</ele><time>2026-04-18T09:24:19.783Z</time></trkpt><trkpt lat="42.0967983" lon="-8.0037317"><ele>895.0</ele><time>2026-04-18T09:24:20.783Z</time></trkpt><trkpt lat="42.09665" lon="-8.00381"><ele>895.0</ele><time>2026-04-18T09:24:21.783Z</time></trkpt><trkpt lat="42.0965133" lon="-8.003865"><ele>895.0</ele><time>2026-04-18T09:24:22.783Z</time></trkpt><trkpt lat="42.096375" lon="-8.003905"><ele>895.0</ele><time>2026-04-18T09:24:23.783Z</time></trkpt><trkpt lat="42.0962433" lon="-8.00392"><ele>896.0</ele><time>2026-04-18T09:24:24.784Z</time></trkpt><trkpt lat="42.0961283" lon="-8.0038917"><ele>897.0</ele><time>2026-04-18T09:24:25.783Z</time></trkpt><trkpt lat="42.096035" lon="-8.00385"><ele>898.0</ele><time>2026-04-18T09:24:26.783Z</time></trkpt><trkpt lat="42.0959717" lon="-8.0037767"><ele>899.0</ele><time>2026-04-18T09:24:27.783Z</time></trkpt><trkpt lat="42.09592" lon="-8.003685"><ele>900.0</ele><time>2026-04-18T09:24:28.783Z</time></trkpt><trkpt lat="42.0958733" lon="-8.0035983"><ele>900.0</ele><time>2026-04-18T09:24:29.783Z</time></trkpt><trkpt lat="42.0958033" lon="-8.0034867"><ele>900.0</ele><time>2026-04-18T09:24:30.784Z</time></trkpt><trkpt lat="42.0957367" lon="-8.0033667"><ele>900.0</ele><time>2026-04-18T09:24:31.783Z</time></trkpt><trkpt lat="42.0956733" lon="-8.0032167"><ele>900.0</ele><time>2026-04-18T09:24:32.783Z</time></trkpt><trkpt lat="42.0956017" lon="-8.003075"><ele>904.25</ele><time>2026-04-18T09:24:33.783Z</time></trkpt><trkpt lat="42.095545" lon="-8.0028967"><ele>908.5</ele><time>2026-04-18T09:24:34.785Z</time></trkpt><trkpt lat="42.095475" lon="-8.002745"><ele>912.75</ele><time>2026-04-18T09:24:35.784Z</time></trkpt><trkpt lat="42.0953917" lon="-8.0025767"><ele>917.0</ele><time>2026-04-18T09:24:36.784Z</time></trkpt><trkpt lat="42.0952983" lon="-8.0024283"><ele>920.5</ele><time>2026-04-18T09:24:37.783Z</time></trkpt><trkpt lat="42.0952183" lon="-8.0022983"><ele>924.0</ele><time>2026-04-18T09:24:38.783Z</time></trkpt><trkpt lat="42.095145" lon="-8.00218"><ele>927.5</ele><time>2026-04-18T09:24:39.783Z</time></trkpt><trkpt lat="42.0950733" lon="-8.0020417"><ele>931.0</ele><time>2026-04-18T09:24:40.785Z</time></trkpt><trkpt lat="42.0949983" lon="-8.001915"><ele>931.0</ele><time>2026-04-18T09:24:41.783Z</time></trkpt><trkpt lat="42.0949217" lon="-8.0017917"><ele>931.0</ele><time>2026-04-18T09:24:42.784Z</time></trkpt><trkpt lat="42.094825" lon="-8.0016533"><ele>931.0</ele><time>2026-04-18T09:24:43.783Z</time></trkpt><trkpt lat="42.09473" lon="-8.0015167"><ele>931.0</ele><time>2026-04-18T09:24:44.784Z</time></trkpt><trkpt lat="42.0946417" lon="-8.0013917"><ele>937.6666666666666</ele><time>2026-04-18T09:24:45.784Z</time></trkpt><trkpt lat="42.0945183" lon="-8.0012583"><ele>944.3333333333333</ele><time>2026-04-18T09:24:46.784Z</time></trkpt><trkpt lat="42.0944133" lon="-8.0011083"><ele>951.0</ele><time>2026-04-18T09:24:47.783Z</time></trkpt><trkpt lat="42.094315" lon="-8.00096"><ele>951.25</ele><time>2026-04-18T09:24:48.784Z</time></trkpt><trkpt lat="42.0942283" lon="-8.0008283"><ele>951.5</ele><time>2026-04-18T09:24:49.785Z</time></trkpt><trkpt lat="42.0941633" lon="-8.0006867"><ele>951.75</ele><time>2026-04-18T09:24:50.784Z</time></trkpt><trkpt lat="42.0941017" lon="-8.0005567"><ele>952.0</ele><time>2026-04-18T09:24:51.785Z</time></trkpt><trkpt lat="42.0940533" lon="-8.0004383"><ele>954.5</ele><time>2026-04-18T09:24:52.783Z</time></trkpt><trkpt lat="42.0939867" lon="-8.0003533"><ele>957.0</ele><time>2026-04-18T09:24:53.785Z</time></trkpt><trkpt lat="42.0939017" lon="-8.0002567"><ele>959.5</ele><time>2026-04-18T09:24:54.785Z</time></trkpt><trkpt lat="42.093805" lon="-8.0001583"><ele>962.0</ele><time>2026-04-18T09:24:55.783Z</time></trkpt><trkpt lat="42.0937039" lon="-8.0000369"><ele>962.0</ele><time>2026-04-18T09:24:56.783Z</time></trkpt><trkpt lat="42.0936056" lon="-7.9999049"><ele>962.0</ele><time>2026-04-18T09:24:57.783Z</time></trkpt><trkpt lat="42.0935141" lon="-7.9997543"><ele>962.0</ele><time>2026-04-18T09:24:58.783Z</time></trkpt><trkpt lat="42.0934369" lon="-7.9996113"><ele>962.0</ele><time>2026-04-18T09:24:59.783Z</time></trkpt><trkpt lat="42.0934" lon="-7.9994818"><ele>962.0</ele><time>2026-04-18T09:25:00.783Z</time></trkpt><trkpt lat="42.093381" lon="-7.999341"><ele>962.0</ele><time>2026-04-18T09:25:01.783Z</time></trkpt><trkpt lat="42.0933594" lon="-7.999158"><ele>962.0</ele><time>2026-04-18T09:25:02.783Z</time></trkpt><trkpt lat="42.0933256" lon="-7.9989493"><ele>962.0</ele><time>2026-04-18T09:25:03.783Z</time></trkpt><trkpt lat="42.0932925" lon="-7.998724"><ele>963.3333333333334</ele><time>2026-04-18T09:25:04.783Z</time></trkpt><trkpt lat="42.0932557" lon="-7.998517"><ele>964.6666666666667</ele><time>2026-04-18T09:25:05.783Z</time></trkpt><trkpt lat="42.0932108" lon="-7.9983159"><ele>966.0</ele><time>2026-04-18T09:25:06.785Z</time></trkpt><trkpt lat="42.093173" lon="-7.9981392"><ele>967.5</ele><time>2026-04-18T09:25:07.786Z</time></trkpt><trkpt lat="42.0931305" lon="-7.9979737"><ele>969.0</ele><time>2026-04-18T09:25:08.784Z</time></trkpt><trkpt lat="42.0930676" lon="-7.9978052"><ele>970.5</ele><time>2026-04-18T09:25:09.783Z</time></trkpt><trkpt lat="42.0930055" lon="-7.9976486"><ele>972.0</ele><time>2026-04-18T09:25:10.783Z</time></trkpt><trkpt lat="42.0929157" lon="-7.9974963"><ele>973.0</ele><time>2026-04-18T09:25:11.784Z</time></trkpt><trkpt lat="42.092804" lon="-7.9973225"><ele>974.0</ele><time>2026-04-18T09:25:12.783Z</time></trkpt><trkpt lat="42.0926738" lon="-7.9971229"><ele>975.0</ele><time>2026-04-18T09:25:13.783Z</time></trkpt><trkpt lat="42.0925368" lon="-7.9969055"><ele>973.3333333333333</ele><time>2026-04-18T09:25:14.786Z</time></trkpt><trkpt lat="42.0924064" lon="-7.9966955"><ele>971.6666666666666</ele><time>2026-04-18T09:25:15.783Z</time></trkpt><trkpt lat="42.0922904" lon="-7.9964955"><ele>970.0</ele><time>2026-04-18T09:25:16.783Z</time></trkpt><trkpt lat="42.0921858" lon="-7.9963062"><ele>970.0</ele><time>2026-04-18T09:25:17.783Z</time></trkpt><trkpt lat="42.0920997" lon="-7.9961136"><ele>970.0</ele><time>2026-04-18T09:25:18.783Z</time></trkpt><trkpt lat="42.0920248" lon="-7.9958939"><ele>970.0</ele><time>2026-04-18T09:25:19.783Z</time></trkpt><trkpt lat="42.0919656" lon="-7.9956511"><ele>971.6666666666666</ele><time>2026-04-18T09:25:20.783Z</time></trkpt><trkpt lat="42.091904" lon="-7.995394"><ele>973.3333333333333</ele><time>2026-04-18T09:25:21.784Z</time></trkpt><trkpt lat="42.0918476" lon="-7.9951433"><ele>975.0</ele><time>2026-04-18T09:25:22.783Z</time></trkpt><trkpt lat="42.0917997" lon="-7.9949152"><ele>976.25</ele><time>2026-04-18T09:25:23.783Z</time></trkpt><trkpt lat="42.0917703" lon="-7.994714"><ele>977.5</ele><time>2026-04-18T09:25:24.784Z</time></trkpt><trkpt lat="42.0917554" lon="-7.99454"><ele>978.75</ele><time>2026-04-18T09:25:25.783Z</time></trkpt><trkpt lat="42.0917566" lon="-7.9943935"><ele>980.0</ele><time>2026-04-18T09:25:26.783Z</time></trkpt><trkpt lat="42.0917679" lon="-7.9942764"><ele>980.0000000000001</ele><time>2026-04-18T09:25:27.783Z</time></trkpt><trkpt lat="42.0917803" lon="-7.9941862"><ele>980.0</ele><time>2026-04-18T09:25:28.784Z</time></trkpt><trkpt lat="42.0917829" lon="-7.994067"><ele>980.0</ele><time>2026-04-18T09:25:30.783Z</time></trkpt><trkpt lat="42.0917102" lon="-7.9939939"><ele>980.0</ele><time>2026-04-18T09:25:33.783Z</time></trkpt><trkpt lat="42.091611" lon="-7.9940088"><ele>980.0000000000001</ele><time>2026-04-18T09:25:35.784Z</time></trkpt><trkpt lat="42.0915337" lon="-7.9939875"><ele>980.0</ele><time>2026-04-18T09:25:37.784Z</time></trkpt><trkpt lat="42.0914403" lon="-7.9939545"><ele>979.5</ele><time>2026-04-18T09:25:39.783Z</time></trkpt><trkpt lat="42.0913217" lon="-7.9939224"><ele>979.0</ele><time>2026-04-18T09:25:41.783Z</time></trkpt><trkpt lat="42.0912169" lon="-7.9939131"><ele>978.5</ele><time>2026-04-18T09:25:43.785Z</time></trkpt><trkpt lat="42.0911199" lon="-7.9938875"><ele>978.0</ele><time>2026-04-18T09:25:45.785Z</time></trkpt><trkpt lat="42.090985" lon="-7.9938517"><ele>978.0</ele><time>2026-04-18T09:25:47.784Z</time></trkpt><trkpt lat="42.0908983" lon="-7.9938383"><ele>978.0</ele><time>2026-04-18T09:25:48.783Z</time></trkpt><trkpt lat="42.09081" lon="-7.9938433"><ele>978.0</ele><time>2026-04-18T09:25:49.783Z</time></trkpt><trkpt lat="42.0907283" lon="-7.9938617"><ele>978.0</ele><time>2026-04-18T09:25:50.784Z</time></trkpt><trkpt lat="42.0906383" lon="-7.9938917"><ele>978.0</ele><time>2026-04-18T09:25:51.783Z</time></trkpt><trkpt lat="42.0905533" lon="-7.9939417"><ele>978.0</ele><time>2026-04-18T09:25:52.783Z</time></trkpt><trkpt lat="42.090475" lon="-7.994025"><ele>978.2</ele><time>2026-04-18T09:25:53.783Z</time></trkpt><trkpt lat="42.09039" lon="-7.9940933"><ele>978.4</ele><time>2026-04-18T09:25:54.784Z</time></trkpt><trkpt lat="42.0903117" lon="-7.9941567"><ele>978.6000000000001</ele><time>2026-04-18T09:25:55.783Z</time></trkpt><trkpt lat="42.0902417" lon="-7.9942167"><ele>978.8000000000001</ele><time>2026-04-18T09:25:56.783Z</time></trkpt><trkpt lat="42.0901683" lon="-7.994295"><ele>979.0</ele><time>2026-04-18T09:25:57.784Z</time></trkpt><trkpt lat="42.0900967" lon="-7.99438"><ele>978.6</ele><time>2026-04-18T09:25:58.783Z</time></trkpt><trkpt lat="42.0900417" lon="-7.9944783"><ele>978.2</ele><time>2026-04-18T09:25:59.783Z</time></trkpt><trkpt lat="42.08999" lon="-7.9945967"><ele>977.8000000000001</ele><time>2026-04-18T09:26:00.785Z</time></trkpt><trkpt lat="42.0899217" lon="-7.9947117"><ele>977.4000000000001</ele><time>2026-04-18T09:26:01.784Z</time></trkpt><trkpt lat="42.0898067" lon="-7.99482"><ele>977.0</ele><time>2026-04-18T09:26:02.784Z</time></trkpt><trkpt lat="42.0896667" lon="-7.9949267"><ele>975.5</ele><time>2026-04-18T09:26:03.783Z</time></trkpt><trkpt lat="42.0895317" lon="-7.995025"><ele>974.0</ele><time>2026-04-18T09:26:04.783Z</time></trkpt><trkpt lat="42.0893983" lon="-7.9951183"><ele>972.5</ele><time>2026-04-18T09:26:05.784Z</time></trkpt><trkpt lat="42.0892767" lon="-7.9951983"><ele>971.0</ele><time>2026-04-18T09:26:06.783Z</time></trkpt><trkpt lat="42.089165" lon="-7.9952783"><ele>972.0</ele><time>2026-04-18T09:26:07.783Z</time></trkpt><trkpt lat="42.089055" lon="-7.9953883"><ele>973.0</ele><time>2026-04-18T09:26:08.785Z</time></trkpt><trkpt lat="42.0889567" lon="-7.9955033"><ele>974.0</ele><time>2026-04-18T09:26:09.786Z</time></trkpt><trkpt lat="42.0888717" lon="-7.99562"><ele>975.0</ele><time>2026-04-18T09:26:10.784Z</time></trkpt><trkpt lat="42.088805" lon="-7.9957317"><ele>975.0</ele><time>2026-04-18T09:26:11.785Z</time></trkpt><trkpt lat="42.0887383" lon="-7.9958333"><ele>975.0</ele><time>2026-04-18T09:26:12.784Z</time></trkpt><trkpt lat="42.0886367" lon="-7.9959317"><ele>975.0</ele><time>2026-04-18T09:26:13.785Z</time></trkpt><trkpt lat="42.0885167" lon="-7.9960133"><ele>975.0</ele><time>2026-04-18T09:26:14.784Z</time></trkpt><trkpt lat="42.0883717" lon="-7.9961"><ele>974.5</ele><time>2026-04-18T09:26:15.785Z</time></trkpt><trkpt lat="42.0882367" lon="-7.996175"><ele>974.0</ele><time>2026-04-18T09:26:16.783Z</time></trkpt><trkpt lat="42.0881067" lon="-7.9962467"><ele>973.5</ele><time>2026-04-18T09:26:17.783Z</time></trkpt><trkpt lat="42.0880067" lon="-7.9963033"><ele>973.0</ele><time>2026-04-18T09:26:18.786Z</time></trkpt><trkpt lat="42.087945" lon="-7.99634"><ele>972.9999999999999</ele><time>2026-04-18T09:26:19.786Z</time></trkpt><trkpt lat="42.0878567" lon="-7.9963633"><ele>973.0</ele><time>2026-04-18T09:26:21.784Z</time></trkpt><trkpt lat="42.08778" lon="-7.9963883"><ele>973.0</ele><time>2026-04-18T09:26:23.784Z</time></trkpt><trkpt lat="42.0877" lon="-7.9964667"><ele>973.0</ele><time>2026-04-18T09:26:25.784Z</time></trkpt><trkpt lat="42.0876567" lon="-7.9965283"><ele>972.9999999999999</ele><time>2026-04-18T09:26:26.784Z</time></trkpt><trkpt lat="42.087605" lon="-7.9966017"><ele>973.0</ele><time>2026-04-18T09:26:27.784Z</time></trkpt><trkpt lat="42.0875467" lon="-7.99668"><ele>972.25</ele><time>2026-04-18T09:26:28.783Z</time></trkpt><trkpt lat="42.0874717" lon="-7.996765"><ele>971.5</ele><time>2026-04-18T09:26:29.784Z</time></trkpt><trkpt lat="42.0873633" lon="-7.99688"><ele>970.75</ele><time>2026-04-18T09:26:30.784Z</time></trkpt><trkpt lat="42.08724" lon="-7.9970033"><ele>970.0</ele><time>2026-04-18T09:26:31.784Z</time></trkpt><trkpt lat="42.0870883" lon="-7.99713"><ele>970.0</ele><time>2026-04-18T09:26:32.786Z</time></trkpt><trkpt lat="42.086935" lon="-7.99725"><ele>970.0</ele><time>2026-04-18T09:26:33.784Z</time></trkpt><trkpt lat="42.0868" lon="-7.9973517"><ele>970.0</ele><time>2026-04-18T09:26:34.783Z</time></trkpt><trkpt lat="42.0866617" lon="-7.9974467"><ele>968.3333333333333</ele><time>2026-04-18T09:26:35.784Z</time></trkpt><trkpt lat="42.0865333" lon="-7.9975367"><ele>966.6666666666667</ele><time>2026-04-18T09:26:36.785Z</time></trkpt><trkpt lat="42.0863933" lon="-7.997645"><ele>965.0</ele><time>2026-04-18T09:26:37.784Z</time></trkpt><trkpt lat="42.0862517" lon="-7.9977617"><ele>965.0</ele><time>2026-04-18T09:26:38.785Z</time></trkpt><trkpt lat="42.0860933" lon="-7.9978867"><ele>965.0</ele><time>2026-04-18T09:26:39.784Z</time></trkpt><trkpt lat="42.085945" lon="-7.998005"><ele>965.0</ele><time>2026-04-18T09:26:40.784Z</time></trkpt><trkpt lat="42.085815" lon="-7.998115"><ele>964.75</ele><time>2026-04-18T09:26:41.784Z</time></trkpt><trkpt lat="42.0856933" lon="-7.9982217"><ele>964.5</ele><time>2026-04-18T09:26:42.784Z</time></trkpt><trkpt lat="42.0855783" lon="-7.99831"><ele>964.25</ele><time>2026-04-18T09:26:43.785Z</time></trkpt><trkpt lat="42.085475" lon="-7.998395"><ele>964.0</ele><time>2026-04-18T09:26:44.785Z</time></trkpt><trkpt lat="42.0853767" lon="-7.9984733"><ele>963.9999999999999</ele><time>2026-04-18T09:26:45.784Z</time></trkpt><trkpt lat="42.08529" lon="-7.99854"><ele>964.0</ele><time>2026-04-18T09:26:46.784Z</time></trkpt><trkpt lat="42.08522" lon="-7.9986033"><ele>964.0</ele><time>2026-04-18T09:26:47.786Z</time></trkpt><trkpt lat="42.085155" lon="-7.9986667"><ele>964.0</ele><time>2026-04-18T09:26:48.784Z</time></trkpt><trkpt lat="42.0850917" lon="-7.9987383"><ele>963.9999999999999</ele><time>2026-04-18T09:26:49.784Z</time></trkpt><trkpt lat="42.0850383" lon="-7.9988067"><ele>964.0</ele><time>2026-04-18T09:26:50.784Z</time></trkpt><trkpt lat="42.0849717" lon="-7.9988683"><ele>966.25</ele><time>2026-04-18T09:26:51.784Z</time></trkpt><trkpt lat="42.0848933" lon="-7.9989333"><ele>968.5</ele><time>2026-04-18T09:26:52.784Z</time></trkpt><trkpt lat="42.0847933" lon="-7.9990117"><ele>970.75</ele><time>2026-04-18T09:26:53.785Z</time></trkpt><trkpt lat="42.08468" lon="-7.99909"><ele>973.0</ele><time>2026-04-18T09:26:54.784Z</time></trkpt><trkpt lat="42.0845767" lon="-7.9991567"><ele>972.0</ele><time>2026-04-18T09:26:55.787Z</time></trkpt><trkpt lat="42.0844967" lon="-7.9992133"><ele>971.0</ele><time>2026-04-18T09:26:56.787Z</time></trkpt><trkpt lat="42.0844217" lon="-7.999265"><ele>970.0</ele><time>2026-04-18T09:26:57.783Z</time></trkpt><trkpt lat="42.08432" lon="-7.99934"><ele>969.0</ele><time>2026-04-18T09:26:59.785Z</time></trkpt><trkpt lat="42.08425" lon="-7.9993883"><ele>968.0</ele><time>2026-04-18T09:27:01.784Z</time></trkpt><trkpt lat="42.08414" lon="-7.99947"><ele>969.0</ele><time>2026-04-18T09:31:51.783Z</time></trkpt><trkpt lat="42.08407" lon="-7.9995217"><ele>970.0</ele><time>2026-04-18T09:31:53.783Z</time></trkpt><trkpt lat="42.083985" lon="-7.999605"><ele>971.0</ele><time>2026-04-18T09:31:55.783Z</time></trkpt><trkpt lat="42.083885" lon="-7.999705"><ele>972.0</ele><time>2026-04-18T09:31:57.786Z</time></trkpt><trkpt lat="42.083785" lon="-7.9998033"><ele>973.0</ele><time>2026-04-18T09:31:59.785Z</time></trkpt><trkpt lat="42.0837267" lon="-7.9998617"><ele>973.0</ele><time>2026-04-18T09:32:00.783Z</time></trkpt><trkpt lat="42.0836533" lon="-7.9999317"><ele>973.0</ele><time>2026-04-18T09:32:01.783Z</time></trkpt><trkpt lat="42.0835817" lon="-8.000005"><ele>973.0</ele><time>2026-04-18T09:32:02.783Z</time></trkpt><trkpt lat="42.0835033" lon="-8.000085"><ele>973.0</ele><time>2026-04-18T09:32:03.783Z</time></trkpt><trkpt lat="42.0834267" lon="-8.0001667"><ele>973.0</ele><time>2026-04-18T09:32:04.783Z</time></trkpt><trkpt lat="42.0833467" lon="-8.0002483"><ele>974.0</ele><time>2026-04-18T09:32:05.783Z</time></trkpt><trkpt lat="42.08326" lon="-8.00034"><ele>975.0</ele><time>2026-04-18T09:32:06.784Z</time></trkpt><trkpt lat="42.0831683" lon="-8.0004483"><ele>976.0</ele><time>2026-04-18T09:32:07.784Z</time></trkpt><trkpt lat="42.0830783" lon="-8.000555"><ele>977.0</ele><time>2026-04-18T09:32:08.783Z</time></trkpt><trkpt lat="42.0829783" lon="-8.00065"><ele>977.0</ele><time>2026-04-18T09:32:09.784Z</time></trkpt><trkpt lat="42.0828633" lon="-8.00075"><ele>977.0</ele><time>2026-04-18T09:32:10.783Z</time></trkpt><trkpt lat="42.0827433" lon="-8.00085"><ele>977.0</ele><time>2026-04-18T09:32:11.783Z</time></trkpt><trkpt lat="42.08262" lon="-8.0009533"><ele>977.0</ele><time>2026-04-18T09:32:12.785Z</time></trkpt><trkpt lat="42.082485" lon="-8.00105"><ele>977.25</ele><time>2026-04-18T09:32:13.783Z</time></trkpt><trkpt lat="42.0823617" lon="-8.0011333"><ele>977.5</ele><time>2026-04-18T09:32:14.783Z</time></trkpt><trkpt lat="42.08224" lon="-8.0012117"><ele>977.75</ele><time>2026-04-18T09:32:15.783Z</time></trkpt><trkpt lat="42.08213" lon="-8.0013067"><ele>978.0</ele><time>2026-04-18T09:32:16.783Z</time></trkpt><trkpt lat="42.082015" lon="-8.0014033"><ele>978.0</ele><time>2026-04-18T09:32:17.784Z</time></trkpt><trkpt lat="42.0818967" lon="-8.001505"><ele>978.0</ele><time>2026-04-18T09:32:18.783Z</time></trkpt><trkpt lat="42.0817733" lon="-8.001595"><ele>978.0</ele><time>2026-04-18T09:32:19.784Z</time></trkpt><trkpt lat="42.0816517" lon="-8.001685"><ele>978.0</ele><time>2026-04-18T09:32:20.783Z</time></trkpt><trkpt lat="42.0815233" lon="-8.0017833"><ele>977.0</ele><time>2026-04-18T09:32:21.783Z</time></trkpt><trkpt lat="42.081405" lon="-8.0018767"><ele>976.0</ele><time>2026-04-18T09:32:22.783Z</time></trkpt><trkpt lat="42.08128" lon="-8.0019583"><ele>975.0</ele><time>2026-04-18T09:32:23.785Z</time></trkpt><trkpt lat="42.0811633" lon="-8.0020567"><ele>974.0</ele><time>2026-04-18T09:32:24.783Z</time></trkpt><trkpt lat="42.0810533" lon="-8.0021517"><ele>974.0</ele><time>2026-04-18T09:32:25.783Z</time></trkpt><trkpt lat="42.0809383" lon="-8.0022367"><ele>974.0</ele><time>2026-04-18T09:32:26.783Z</time></trkpt><trkpt lat="42.0808017" lon="-8.00232"><ele>974.0</ele><time>2026-04-18T09:32:27.783Z</time></trkpt><trkpt lat="42.0806617" lon="-8.002405"><ele>974.0</ele><time>2026-04-18T09:32:28.783Z</time></trkpt><trkpt lat="42.0805317" lon="-8.0024817"><ele>974.75</ele><time>2026-04-18T09:32:29.783Z</time></trkpt><trkpt lat="42.0804083" lon="-8.0025683"><ele>975.5</ele><time>2026-04-18T09:32:30.784Z</time></trkpt><trkpt lat="42.080285" lon="-8.0026567"><ele>976.25</ele><time>2026-04-18T09:32:31.784Z</time></trkpt><trkpt lat="42.0801617" lon="-8.0027433"><ele>977.0</ele><time>2026-04-18T09:32:32.783Z</time></trkpt><trkpt lat="42.0800383" lon="-8.0028233"><ele>976.5</ele><time>2026-04-18T09:32:33.788Z</time></trkpt><trkpt lat="42.0799167" lon="-8.002905"><ele>976.0</ele><time>2026-04-18T09:32:34.783Z</time></trkpt><trkpt lat="42.0798" lon="-8.0029817"><ele>975.5</ele><time>2026-04-18T09:32:35.785Z</time></trkpt><trkpt lat="42.079675" lon="-8.003055"><ele>975.0</ele><time>2026-04-18T09:32:36.783Z</time></trkpt><trkpt lat="42.079545" lon="-8.00313"><ele>975.0</ele><time>2026-04-18T09:32:37.783Z</time></trkpt><trkpt lat="42.079425" lon="-8.0031967"><ele>975.0</ele><time>2026-04-18T09:32:38.787Z</time></trkpt><trkpt lat="42.0793333" lon="-8.0032567"><ele>975.0</ele><time>2026-04-18T09:32:39.786Z</time></trkpt><trkpt lat="42.0792717" lon="-8.0033283"><ele>975.0</ele><time>2026-04-18T09:32:40.784Z</time></trkpt><trkpt lat="42.07922" lon="-8.0034117"><ele>975.0</ele><time>2026-04-18T09:32:41.785Z</time></trkpt><trkpt lat="42.07917" lon="-8.0035067"><ele>975.0</ele><time>2026-04-18T09:32:42.786Z</time></trkpt><trkpt lat="42.079135" lon="-8.0036333"><ele>975.0</ele><time>2026-04-18T09:32:43.783Z</time></trkpt><trkpt lat="42.07911" lon="-8.0037667"><ele>975.0</ele><time>2026-04-18T09:32:44.783Z</time></trkpt><trkpt lat="42.0790617" lon="-8.0039317"><ele>975.0</ele><time>2026-04-18T09:32:45.783Z</time></trkpt><trkpt lat="42.0790167" lon="-8.00409"><ele>973.0</ele><time>2026-04-18T09:32:46.782Z</time></trkpt><trkpt lat="42.078965" lon="-8.0042717"><ele>971.0</ele><time>2026-04-18T09:32:47.783Z</time></trkpt><trkpt lat="42.0789167" lon="-8.0044667"><ele>969.0</ele><time>2026-04-18T09:32:48.783Z</time></trkpt><trkpt lat="42.0788717" lon="-8.0046583"><ele>967.0</ele><time>2026-04-18T09:32:49.783Z</time></trkpt><trkpt lat="42.07884" lon="-8.0048333"><ele>967.0</ele><time>2026-04-18T09:32:50.786Z</time></trkpt><trkpt lat="42.0788033" lon="-8.004995"><ele>967.0</ele><time>2026-04-18T09:32:51.784Z</time></trkpt><trkpt lat="42.0787517" lon="-8.0051517"><ele>967.0</ele><time>2026-04-18T09:32:52.783Z</time></trkpt><trkpt lat="42.0786867" lon="-8.00531"><ele>967.0</ele><time>2026-04-18T09:32:53.783Z</time></trkpt><trkpt lat="42.0786117" lon="-8.0054517"><ele>966.5</ele><time>2026-04-18T09:32:54.785Z</time></trkpt><trkpt lat="42.078525" lon="-8.0055633"><ele>966.0</ele><time>2026-04-18T09:32:55.783Z</time></trkpt><trkpt lat="42.0784283" lon="-8.0056683"><ele>965.5</ele><time>2026-04-18T09:32:56.784Z</time></trkpt><trkpt lat="42.0783317" lon="-8.0057483"><ele>965.0</ele><time>2026-04-18T09:32:57.786Z</time></trkpt><trkpt lat="42.078255" lon="-8.0058183"><ele>963.6666666666667</ele><time>2026-04-18T09:32:58.783Z</time></trkpt><trkpt lat="42.0781883" lon="-8.005895"><ele>962.3333333333334</ele><time>2026-04-18T09:32:59.784Z</time></trkpt><trkpt lat="42.0781333" lon="-8.005955"><ele>961.0</ele><time>2026-04-18T09:33:00.784Z</time></trkpt><trkpt lat="42.07807" lon="-8.0060733"><ele>959.6666666666667</ele><time>2026-04-18T09:33:02.784Z</time></trkpt><trkpt lat="42.07806" lon="-8.006185"><ele>958.3333333333334</ele><time>2026-04-18T09:33:04.784Z</time></trkpt><trkpt lat="42.078105" lon="-8.006265"><ele>957.0</ele><time>2026-04-18T09:33:06.784Z</time></trkpt><trkpt lat="42.07818" lon="-8.0063667"><ele>957.0</ele><time>2026-04-18T09:33:08.784Z</time></trkpt><trkpt lat="42.0782233" lon="-8.0064283"><ele>957.0</ele><time>2026-04-18T09:33:09.783Z</time></trkpt><trkpt lat="42.0782733" lon="-8.0065083"><ele>957.0</ele><time>2026-04-18T09:33:10.783Z</time></trkpt><trkpt lat="42.0783233" lon="-8.0066067"><ele>957.0</ele><time>2026-04-18T09:33:11.784Z</time></trkpt><trkpt lat="42.0783583" lon="-8.006705"><ele>957.0</ele><time>2026-04-18T09:33:12.783Z</time></trkpt><trkpt lat="42.0783833" lon="-8.0068133"><ele>957.0</ele><time>2026-04-18T09:33:13.783Z</time></trkpt><trkpt lat="42.0783933" lon="-8.0069283"><ele>957.4000000000001</ele><time>2026-04-18T09:33:14.784Z</time></trkpt><trkpt lat="42.0783817" lon="-8.00706"><ele>957.8000000000001</ele><time>2026-04-18T09:33:15.784Z</time></trkpt><trkpt lat="42.0783317" lon="-8.0071817"><ele>958.2</ele><time>2026-04-18T09:33:16.783Z</time></trkpt><trkpt lat="42.0782733" lon="-8.00728"><ele>958.6</ele><time>2026-04-18T09:33:17.783Z</time></trkpt><trkpt lat="42.0782067" lon="-8.0073667"><ele>959.0</ele><time>2026-04-18T09:33:18.783Z</time></trkpt><trkpt lat="42.078145" lon="-8.0074583"><ele>959.6666666666667</ele><time>2026-04-18T09:33:19.783Z</time></trkpt><trkpt lat="42.0780767" lon="-8.0075483"><ele>960.3333333333334</ele><time>2026-04-18T09:33:20.783Z</time></trkpt><trkpt lat="42.0780067" lon="-8.0076317"><ele>961.0</ele><time>2026-04-18T09:33:21.783Z</time></trkpt><trkpt lat="42.07794" lon="-8.00771"><ele>961.6666666666667</ele><time>2026-04-18T09:33:22.784Z</time></trkpt><trkpt lat="42.0778683" lon="-8.00777"><ele>962.3333333333334</ele><time>2026-04-18T09:33:23.783Z</time></trkpt><trkpt lat="42.07779" lon="-8.007805"><ele>963.0</ele><time>2026-04-18T09:33:24.784Z</time></trkpt><trkpt lat="42.0776983" lon="-8.00782"><ele>963.0</ele><time>2026-04-18T09:33:25.787Z</time></trkpt><trkpt lat="42.077615" lon="-8.0078117"><ele>963.0</ele><time>2026-04-18T09:33:26.784Z</time></trkpt><trkpt lat="42.077535" lon="-8.0077867"><ele>963.0</ele><time>2026-04-18T09:33:27.783Z</time></trkpt><trkpt lat="42.07746" lon="-8.007755"><ele>963.0</ele><time>2026-04-18T09:33:28.783Z</time></trkpt><trkpt lat="42.0773817" lon="-8.0077233"><ele>963.0</ele><time>2026-04-18T09:33:29.783Z</time></trkpt><trkpt lat="42.0773033" lon="-8.0076933"><ele>963.0</ele><time>2026-04-18T09:33:30.783Z</time></trkpt><trkpt lat="42.0772217" lon="-8.0076767"><ele>962.5999999999999</ele><time>2026-04-18T09:33:31.783Z</time></trkpt><trkpt lat="42.077135" lon="-8.0076717"><ele>962.1999999999999</ele><time>2026-04-18T09:33:32.783Z</time></trkpt><trkpt lat="42.0770533" lon="-8.0076883"><ele>961.8</ele><time>2026-04-18T09:33:33.784Z</time></trkpt><trkpt lat="42.0769683" lon="-8.0077267"><ele>961.4</ele><time>2026-04-18T09:33:34.783Z</time></trkpt><trkpt lat="42.07689" lon="-8.0077967"><ele>961.0</ele><time>2026-04-18T09:33:35.783Z</time></trkpt><trkpt lat="42.07682" lon="-8.0078867"><ele>961.0</ele><time>2026-04-18T09:33:36.784Z</time></trkpt><trkpt lat="42.0767633" lon="-8.0079917"><ele>960.9999999999999</ele><time>2026-04-18T09:33:37.784Z</time></trkpt><trkpt lat="42.0767083" lon="-8.00809"><ele>960.9999999999999</ele><time>2026-04-18T09:33:38.784Z</time></trkpt><trkpt lat="42.0766583" lon="-8.0081917"><ele>961.0</ele><time>2026-04-18T09:33:39.783Z</time></trkpt><trkpt lat="42.0766167" lon="-8.0082967"><ele>961.0</ele><time>2026-04-18T09:33:40.784Z</time></trkpt><trkpt lat="42.0765767" lon="-8.0084"><ele>961.1999999999999</ele><time>2026-04-18T09:33:41.783Z</time></trkpt><trkpt lat="42.0765383" lon="-8.0085033"><ele>961.3999999999999</ele><time>2026-04-18T09:33:42.785Z</time></trkpt><trkpt lat="42.076495" lon="-8.0086117"><ele>961.6</ele><time>2026-04-18T09:33:43.786Z</time></trkpt><trkpt lat="42.0764483" lon="-8.0087233"><ele>961.8</ele><time>2026-04-18T09:33:44.783Z</time></trkpt><trkpt lat="42.0764017" lon="-8.0088417"><ele>962.0</ele><time>2026-04-18T09:33:45.783Z</time></trkpt><trkpt lat="42.07635" lon="-8.0089633"><ele>962.0</ele><time>2026-04-18T09:33:46.783Z</time></trkpt><trkpt lat="42.0762933" lon="-8.0090933"><ele>962.0</ele><time>2026-04-18T09:33:47.784Z</time></trkpt><trkpt lat="42.0762333" lon="-8.0092283"><ele>962.0</ele><time>2026-04-18T09:33:48.783Z</time></trkpt><trkpt lat="42.0761767" lon="-8.0093567"><ele>962.0</ele><time>2026-04-18T09:33:49.784Z</time></trkpt><trkpt lat="42.0761217" lon="-8.0094883"><ele>963.6</ele><time>2026-04-18T09:33:50.783Z</time></trkpt><trkpt lat="42.0760667" lon="-8.0096217"><ele>965.2</ele><time>2026-04-18T09:33:51.784Z</time></trkpt><trkpt lat="42.0760117" lon="-8.0097517"><ele>966.8</ele><time>2026-04-18T09:33:52.783Z</time></trkpt><trkpt lat="42.0759583" lon="-8.009875"><ele>968.4</ele><time>2026-04-18T09:33:53.783Z</time></trkpt><trkpt lat="42.0759117" lon="-8.009995"><ele>970.0</ele><time>2026-04-18T09:33:54.784Z</time></trkpt><trkpt lat="42.0758583" lon="-8.0101133"><ele>969.8333333333333</ele><time>2026-04-18T09:33:55.786Z</time></trkpt><trkpt lat="42.07581" lon="-8.01023"><ele>969.6666666666666</ele><time>2026-04-18T09:33:56.784Z</time></trkpt><trkpt lat="42.075765" lon="-8.01034"><ele>969.5</ele><time>2026-04-18T09:33:57.783Z</time></trkpt><trkpt lat="42.0757233" lon="-8.0104367"><ele>969.3333333333333</ele><time>2026-04-18T09:33:58.784Z</time></trkpt><trkpt lat="42.0756767" lon="-8.0105233"><ele>969.1666666666666</ele><time>2026-04-18T09:33:59.783Z</time></trkpt><trkpt lat="42.075625" lon="-8.010595"><ele>969.0</ele><time>2026-04-18T09:34:00.783Z</time></trkpt><trkpt lat="42.0755517" lon="-8.010665"><ele>969.0</ele><time>2026-04-18T09:34:01.785Z</time></trkpt><trkpt lat="42.0754817" lon="-8.0107433"><ele>969.0000000000001</ele><time>2026-04-18T09:34:02.784Z</time></trkpt><trkpt lat="42.075405" lon="-8.010845"><ele>969.0000000000001</ele><time>2026-04-18T09:34:03.784Z</time></trkpt><trkpt lat="42.0753233" lon="-8.010975"><ele>969.0</ele><time>2026-04-18T09:34:04.783Z</time></trkpt><trkpt lat="42.075245" lon="-8.01109"><ele>969.0</ele><time>2026-04-18T09:34:05.784Z</time></trkpt><trkpt lat="42.0751717" lon="-8.01117"><ele>968.6</ele><time>2026-04-18T09:34:06.784Z</time></trkpt><trkpt lat="42.0750833" lon="-8.01123"><ele>968.2</ele><time>2026-04-18T09:34:07.783Z</time></trkpt><trkpt lat="42.0749867" lon="-8.011285"><ele>967.8000000000001</ele><time>2026-04-18T09:34:08.784Z</time></trkpt><trkpt lat="42.0748917" lon="-8.0113317"><ele>967.4000000000001</ele><time>2026-04-18T09:34:09.783Z</time></trkpt><trkpt lat="42.0748167" lon="-8.0113717"><ele>967.0</ele><time>2026-04-18T09:34:10.783Z</time></trkpt><trkpt lat="42.07476" lon="-8.0114167"><ele>967.0</ele><time>2026-04-18T09:34:11.783Z</time></trkpt><trkpt lat="42.0747267" lon="-8.0115817"><ele>967.0</ele><time>2026-04-18T09:34:13.786Z</time></trkpt><trkpt lat="42.07474" lon="-8.01169"><ele>967.0</ele><time>2026-04-18T09:34:14.787Z</time></trkpt><trkpt lat="42.0747567" lon="-8.011805"><ele>967.0</ele><time>2026-04-18T09:34:15.783Z</time></trkpt><trkpt lat="42.0747917" lon="-8.01193"><ele>967.0</ele><time>2026-04-18T09:34:16.784Z</time></trkpt><trkpt lat="42.0748367" lon="-8.012055"><ele>967.0</ele><time>2026-04-18T09:34:17.783Z</time></trkpt><trkpt lat="42.0748783" lon="-8.0121867"><ele>967.0</ele><time>2026-04-18T09:34:18.783Z</time></trkpt><trkpt lat="42.0749" lon="-8.012325"><ele>967.0</ele><time>2026-04-18T09:34:19.783Z</time></trkpt><trkpt lat="42.0749033" lon="-8.0124383"><ele>967.0</ele><time>2026-04-18T09:34:20.783Z</time></trkpt><trkpt lat="42.0748833" lon="-8.0125567"><ele>967.0</ele><time>2026-04-18T09:34:21.784Z</time></trkpt><trkpt lat="42.0748117" lon="-8.01266"><ele>966.6666666666666</ele><time>2026-04-18T09:34:22.783Z</time></trkpt><trkpt lat="42.0747183" lon="-8.01276"><ele>966.3333333333333</ele><time>2026-04-18T09:34:23.784Z</time></trkpt><trkpt lat="42.074585" lon="-8.01287"><ele>966.0</ele><time>2026-04-18T09:34:24.784Z</time></trkpt><trkpt lat="42.07442" lon="-8.0129867"><ele>966.0</ele><time>2026-04-18T09:34:25.784Z</time></trkpt><trkpt lat="42.074275" lon="-8.0130983"><ele>966.0</ele><time>2026-04-18T09:34:26.784Z</time></trkpt><trkpt lat="42.0741267" lon="-8.0131883"><ele>966.0</ele><time>2026-04-18T09:34:27.783Z</time></trkpt><trkpt lat="42.0739883" lon="-8.013265"><ele>965.75</ele><time>2026-04-18T09:34:28.783Z</time></trkpt><trkpt lat="42.0738517" lon="-8.013325"><ele>965.5</ele><time>2026-04-18T09:34:29.784Z</time></trkpt><trkpt lat="42.0737183" lon="-8.013365"><ele>965.25</ele><time>2026-04-18T09:34:30.784Z</time></trkpt><trkpt lat="42.0735817" lon="-8.013405"><ele>965.0</ele><time>2026-04-18T09:34:31.786Z</time></trkpt><trkpt lat="42.0734567" lon="-8.0134383"><ele>965.0</ele><time>2026-04-18T09:34:32.784Z</time></trkpt><trkpt lat="42.073355" lon="-8.013465"><ele>965.0</ele><time>2026-04-18T09:34:33.783Z</time></trkpt><trkpt lat="42.073275" lon="-8.0134617"><ele>965.0</ele><time>2026-04-18T09:34:34.783Z</time></trkpt><trkpt lat="42.0731683" lon="-8.0134217"><ele>965.0</ele><time>2026-04-18T09:34:36.784Z</time></trkpt><trkpt lat="42.0731133" lon="-8.01336"><ele>965.0</ele><time>2026-04-18T09:34:37.784Z</time></trkpt><trkpt lat="42.0730467" lon="-8.0132617"><ele>965.0</ele><time>2026-04-18T09:34:38.784Z</time></trkpt><trkpt lat="42.07296" lon="-8.013135"><ele>965.0</ele><time>2026-04-18T09:34:39.784Z</time></trkpt><trkpt lat="42.07285" lon="-8.012985"><ele>965.0</ele><time>2026-04-18T09:34:40.785Z</time></trkpt><trkpt lat="42.0727367" lon="-8.0128317"><ele>965.0</ele><time>2026-04-18T09:34:41.785Z</time></trkpt><trkpt lat="42.07262" lon="-8.01268"><ele>965.0</ele><time>2026-04-18T09:34:42.784Z</time></trkpt><trkpt lat="42.07251" lon="-8.01252"><ele>965.0</ele><time>2026-04-18T09:34:43.783Z</time></trkpt><trkpt lat="42.072405" lon="-8.01235"><ele>965.0</ele><time>2026-04-18T09:34:44.784Z</time></trkpt><trkpt lat="42.0723" lon="-8.0121783"><ele>966.3333333333334</ele><time>2026-04-18T09:34:45.784Z</time></trkpt><trkpt lat="42.0721883" lon="-8.0119867"><ele>967.6666666666667</ele><time>2026-04-18T09:34:46.787Z</time></trkpt><trkpt lat="42.0720717" lon="-8.0117883"><ele>969.0</ele><time>2026-04-18T09:34:47.785Z</time></trkpt><trkpt lat="42.071965" lon="-8.011615"><ele>969.0</ele><time>2026-04-18T09:34:48.784Z</time></trkpt><trkpt lat="42.0718683" lon="-8.0114517"><ele>969.0</ele><time>2026-04-18T09:34:49.784Z</time></trkpt><trkpt lat="42.0717783" lon="-8.0113"><ele>969.0</ele><time>2026-04-18T09:34:50.783Z</time></trkpt><trkpt lat="42.0716933" lon="-8.0111767"><ele>969.0</ele><time>2026-04-18T09:34:51.784Z</time></trkpt><trkpt lat="42.0715967" lon="-8.0110817"><ele>971.0</ele><time>2026-04-18T09:34:52.783Z</time></trkpt><trkpt lat="42.071475" lon="-8.0110033"><ele>973.0</ele><time>2026-04-18T09:34:53.783Z</time></trkpt><trkpt lat="42.0713267" lon="-8.0109483"><ele>975.0</ele><time>2026-04-18T09:34:54.783Z</time></trkpt><trkpt lat="42.0711517" lon="-8.010945"><ele>975.0</ele><time>2026-04-18T09:34:55.784Z</time></trkpt><trkpt lat="42.0709733" lon="-8.0109617"><ele>975.0</ele><time>2026-04-18T09:34:56.784Z</time></trkpt><trkpt lat="42.07081" lon="-8.0109783"><ele>975.0</ele><time>2026-04-18T09:34:57.783Z</time></trkpt><trkpt lat="42.0706517" lon="-8.010975"><ele>975.6666666666667</ele><time>2026-04-18T09:34:58.783Z</time></trkpt><trkpt lat="42.0704983" lon="-8.0109683"><ele>976.3333333333334</ele><time>2026-04-18T09:34:59.783Z</time></trkpt><trkpt lat="42.070345" lon="-8.0109617"><ele>977.0</ele><time>2026-04-18T09:35:00.784Z</time></trkpt><trkpt lat="42.0701917" lon="-8.0109567"><ele>977.0</ele><time>2026-04-18T09:35:01.784Z</time></trkpt><trkpt lat="42.0700467" lon="-8.0109567"><ele>977.0</ele><time>2026-04-18T09:35:02.783Z</time></trkpt><trkpt lat="42.069905" lon="-8.0109717"><ele>977.0</ele><time>2026-04-18T09:35:03.784Z</time></trkpt><trkpt lat="42.069765" lon="-8.0110083"><ele>977.0</ele><time>2026-04-18T09:35:04.783Z</time></trkpt><trkpt lat="42.0696283" lon="-8.0110483"><ele>977.25</ele><time>2026-04-18T09:35:05.783Z</time></trkpt><trkpt lat="42.06949" lon="-8.0110833"><ele>977.5</ele><time>2026-04-18T09:35:06.785Z</time></trkpt><trkpt lat="42.06935" lon="-8.0111033"><ele>977.75</ele><time>2026-04-18T09:35:07.783Z</time></trkpt><trkpt lat="42.069215" lon="-8.01111"><ele>978.0</ele><time>2026-04-18T09:35:08.784Z</time></trkpt><trkpt lat="42.0691017" lon="-8.0111317"><ele>978.0</ele><time>2026-04-18T09:35:09.788Z</time></trkpt><trkpt lat="42.0690083" lon="-8.0111783"><ele>978.0</ele><time>2026-04-18T09:35:10.783Z</time></trkpt><trkpt lat="42.0689233" lon="-8.0112433"><ele>978.0</ele><time>2026-04-18T09:35:11.783Z</time></trkpt><trkpt lat="42.0688533" lon="-8.0113283"><ele>978.0</ele><time>2026-04-18T09:35:12.783Z</time></trkpt><trkpt lat="42.0687867" lon="-8.011445"><ele>978.0</ele><time>2026-04-18T09:35:13.784Z</time></trkpt><trkpt lat="42.0687183" lon="-8.0115717"><ele>978.0</ele><time>2026-04-18T09:35:14.787Z</time></trkpt><trkpt lat="42.0686483" lon="-8.01169"><ele>978.0</ele><time>2026-04-18T09:35:15.783Z</time></trkpt><trkpt lat="42.0685733" lon="-8.0117983"><ele>978.0</ele><time>2026-04-18T09:35:16.783Z</time></trkpt><trkpt lat="42.0684983" lon="-8.0118983"><ele>978.0</ele><time>2026-04-18T09:35:17.784Z</time></trkpt><trkpt lat="42.0684217" lon="-8.0119883"><ele>978.0</ele><time>2026-04-18T09:35:18.784Z</time></trkpt><trkpt lat="42.06835" lon="-8.0120883"><ele>978.0</ele><time>2026-04-18T09:35:19.785Z</time></trkpt><trkpt lat="42.06828" lon="-8.012185"><ele>978.0</ele><time>2026-04-18T09:35:20.785Z</time></trkpt><trkpt lat="42.0682033" lon="-8.012285"><ele>978.0</ele><time>2026-04-18T09:35:21.785Z</time></trkpt><trkpt lat="42.0681183" lon="-8.0124"><ele>978.0</ele><time>2026-04-18T09:35:22.784Z</time></trkpt><trkpt lat="42.068035" lon="-8.0125267"><ele>977.2</ele><time>2026-04-18T09:35:23.783Z</time></trkpt><trkpt lat="42.0679633" lon="-8.0126533"><ele>976.4</ele><time>2026-04-18T09:35:24.784Z</time></trkpt><trkpt lat="42.0679017" lon="-8.012775"><ele>975.6000000000001</ele><time>2026-04-18T09:35:25.783Z</time></trkpt><trkpt lat="42.0678367" lon="-8.0128867"><ele>974.8000000000001</ele><time>2026-04-18T09:35:26.784Z</time></trkpt><trkpt lat="42.0677733" lon="-8.0129683"><ele>974.0</ele><time>2026-04-18T09:35:27.786Z</time></trkpt><trkpt lat="42.06769" lon="-8.0130317"><ele>974.0</ele><time>2026-04-18T09:35:28.787Z</time></trkpt><trkpt lat="42.0676067" lon="-8.0130883"><ele>974.0000000000001</ele><time>2026-04-18T09:35:29.784Z</time></trkpt><trkpt lat="42.0675183" lon="-8.0131333"><ele>974.0000000000001</ele><time>2026-04-18T09:35:30.784Z</time></trkpt><trkpt lat="42.0674217" lon="-8.0131633"><ele>974.0</ele><time>2026-04-18T09:35:31.785Z</time></trkpt><trkpt lat="42.0673183" lon="-8.013175"><ele>974.0</ele><time>2026-04-18T09:35:32.784Z</time></trkpt><trkpt lat="42.0672117" lon="-8.0131717"><ele>973.6</ele><time>2026-04-18T09:35:33.783Z</time></trkpt><trkpt lat="42.0671033" lon="-8.013165"><ele>973.2</ele><time>2026-04-18T09:35:34.786Z</time></trkpt><trkpt lat="42.06699" lon="-8.0131533"><ele>972.8000000000001</ele><time>2026-04-18T09:35:35.784Z</time></trkpt><trkpt lat="42.0668767" lon="-8.0131667"><ele>972.4000000000001</ele><time>2026-04-18T09:35:36.784Z</time></trkpt><trkpt lat="42.066765" lon="-8.0131833"><ele>972.0</ele><time>2026-04-18T09:35:37.784Z</time></trkpt><trkpt lat="42.0666583" lon="-8.013205"><ele>970.8</ele><time>2026-04-18T09:35:38.784Z</time></trkpt><trkpt lat="42.0665583" lon="-8.013215"><ele>969.6</ele><time>2026-04-18T09:35:39.784Z</time></trkpt><trkpt lat="42.06645" lon="-8.0131917"><ele>968.3999999999999</ele><time>2026-04-18T09:35:40.784Z</time></trkpt><trkpt lat="42.0663467" lon="-8.013155"><ele>967.1999999999999</ele><time>2026-04-18T09:35:41.784Z</time></trkpt><trkpt lat="42.0662383" lon="-8.0131033"><ele>966.0</ele><time>2026-04-18T09:35:42.791Z</time></trkpt><trkpt lat="42.0661317" lon="-8.01303"><ele>966.0</ele><time>2026-04-18T09:35:43.783Z</time></trkpt><trkpt lat="42.0660417" lon="-8.012945"><ele>965.9999999999999</ele><time>2026-04-18T09:35:44.786Z</time></trkpt><trkpt lat="42.0659533" lon="-8.0128533"><ele>965.9999999999999</ele><time>2026-04-18T09:35:45.784Z</time></trkpt><trkpt lat="42.0658667" lon="-8.0127667"><ele>966.0</ele><time>2026-04-18T09:35:46.784Z</time></trkpt><trkpt lat="42.065775" lon="-8.0126833"><ele>966.0</ele><time>2026-04-18T09:35:47.783Z</time></trkpt><trkpt lat="42.0656833" lon="-8.0126017"><ele>962.75</ele><time>2026-04-18T09:35:48.784Z</time></trkpt><trkpt lat="42.065585" lon="-8.0125183"><ele>959.5</ele><time>2026-04-18T09:35:49.784Z</time></trkpt><trkpt lat="42.0654817" lon="-8.0124417"><ele>956.25</ele><time>2026-04-18T09:35:50.784Z</time></trkpt><trkpt lat="42.0653717" lon="-8.0123617"><ele>953.0</ele><time>2026-04-18T09:35:51.786Z</time></trkpt><trkpt lat="42.065265" lon="-8.0122683"><ele>952.5</ele><time>2026-04-18T09:35:52.787Z</time></trkpt><trkpt lat="42.06517" lon="-8.0121683"><ele>952.0</ele><time>2026-04-18T09:35:53.784Z</time></trkpt><trkpt lat="42.0650817" lon="-8.012065"><ele>951.5</ele><time>2026-04-18T09:35:54.786Z</time></trkpt><trkpt lat="42.0649967" lon="-8.0119583"><ele>951.0</ele><time>2026-04-18T09:35:55.785Z</time></trkpt><trkpt lat="42.0649133" lon="-8.011835"><ele>948.5</ele><time>2026-04-18T09:35:56.785Z</time></trkpt><trkpt lat="42.0648333" lon="-8.011705"><ele>946.0</ele><time>2026-04-18T09:35:57.784Z</time></trkpt><trkpt lat="42.064755" lon="-8.0115733"><ele>943.5</ele><time>2026-04-18T09:35:58.785Z</time></trkpt><trkpt lat="42.0646783" lon="-8.0114433"><ele>941.0</ele><time>2026-04-18T09:35:59.787Z</time></trkpt><trkpt lat="42.0646117" lon="-8.0113167"><ele>940.6666666666667</ele><time>2026-04-18T09:36:00.786Z</time></trkpt><trkpt lat="42.0645433" lon="-8.0111633"><ele>940.3333333333333</ele><time>2026-04-18T09:36:01.784Z</time></trkpt><trkpt lat="42.064475" lon="-8.0109783"><ele>940.0</ele><time>2026-04-18T09:36:02.786Z</time></trkpt><trkpt lat="42.0644083" lon="-8.01077"><ele>939.75</ele><time>2026-04-18T09:36:03.785Z</time></trkpt><trkpt lat="42.06435" lon="-8.0105733"><ele>939.5</ele><time>2026-04-18T09:36:04.785Z</time></trkpt><trkpt lat="42.064285" lon="-8.0104"><ele>939.25</ele><time>2026-04-18T09:36:05.786Z</time></trkpt><trkpt lat="42.0642033" lon="-8.010255"><ele>939.0</ele><time>2026-04-18T09:36:06.785Z</time></trkpt><trkpt lat="42.0640983" lon="-8.0101183"><ele>937.6666666666667</ele><time>2026-04-18T09:36:07.786Z</time></trkpt><trkpt lat="42.0639767" lon="-8.0099883"><ele>936.3333333333334</ele><time>2026-04-18T09:36:08.786Z</time></trkpt><trkpt lat="42.0638517" lon="-8.0098633"><ele>935.0</ele><time>2026-04-18T09:36:09.784Z</time></trkpt><trkpt lat="42.0637233" lon="-8.0097367"><ele>935.0</ele><time>2026-04-18T09:36:10.785Z</time></trkpt><trkpt lat="42.0635933" lon="-8.00961"><ele>935.0</ele><time>2026-04-18T09:36:11.785Z</time></trkpt><trkpt lat="42.0634633" lon="-8.00948"><ele>935.0</ele><time>2026-04-18T09:36:12.786Z</time></trkpt><trkpt lat="42.0633417" lon="-8.00935"><ele>933.5000000000001</ele><time>2026-04-18T09:36:13.784Z</time></trkpt><trkpt lat="42.06324" lon="-8.0092317"><ele>932.0</ele><time>2026-04-18T09:36:14.785Z</time></trkpt><trkpt lat="42.0631733" lon="-8.0091367"><ele>930.5</ele><time>2026-04-18T09:36:15.785Z</time></trkpt><trkpt lat="42.0631283" lon="-8.0090683"><ele>929.0</ele><time>2026-04-18T09:36:16.784Z</time></trkpt><trkpt lat="42.0630767" lon="-8.0090183"><ele>927.5000000000001</ele><time>2026-04-18T09:36:18.784Z</time></trkpt><trkpt lat="42.0630917" lon="-8.009125"><ele>926.0</ele><time>2026-04-18T09:36:24.782Z</time></trkpt><trkpt lat="42.0631667" lon="-8.0092533"><ele>926.0</ele><time>2026-04-18T09:36:26.782Z</time></trkpt><trkpt lat="42.0632067" lon="-8.009375"><ele>925.9999999999999</ele><time>2026-04-18T09:36:27.784Z</time></trkpt><trkpt lat="42.0632367" lon="-8.0095067"><ele>925.9999999999999</ele><time>2026-04-18T09:36:28.783Z</time></trkpt><trkpt lat="42.0632683" lon="-8.0096317"><ele>926.0</ele><time>2026-04-18T09:36:29.783Z</time></trkpt><trkpt lat="42.063295" lon="-8.0098067"><ele>926.0</ele><time>2026-04-18T09:36:30.784Z</time></trkpt><trkpt lat="42.0633" lon="-8.01004"><ele>928.3333333333334</ele><time>2026-04-18T09:36:31.783Z</time></trkpt><trkpt lat="42.063305" lon="-8.01024"><ele>930.6666666666667</ele><time>2026-04-18T09:36:32.784Z</time></trkpt><trkpt lat="42.06332" lon="-8.01044"><ele>933.0</ele><time>2026-04-18T09:36:33.783Z</time></trkpt><trkpt lat="42.0633067" lon="-8.0106683"><ele>930.0</ele><time>2026-04-18T09:36:34.783Z</time></trkpt><trkpt lat="42.0632733" lon="-8.010845"><ele>927.0</ele><time>2026-04-18T09:36:35.784Z</time></trkpt><trkpt lat="42.0631833" lon="-8.0110483"><ele>924.0</ele><time>2026-04-18T09:36:36.784Z</time></trkpt><trkpt lat="42.063105" lon="-8.01123"><ele>924.0</ele><time>2026-04-18T09:36:37.783Z</time></trkpt><trkpt lat="42.0630517" lon="-8.0113833"><ele>924.0000000000001</ele><time>2026-04-18T09:36:38.783Z</time></trkpt><trkpt lat="42.0630117" lon="-8.0115183"><ele>924.0000000000001</ele><time>2026-04-18T09:36:39.784Z</time></trkpt><trkpt lat="42.06299" lon="-8.0116267"><ele>924.0</ele><time>2026-04-18T09:36:40.783Z</time></trkpt><trkpt lat="42.0629783" lon="-8.0117283"><ele>924.0</ele><time>2026-04-18T09:36:41.784Z</time></trkpt><trkpt lat="42.0629683" lon="-8.01182"><ele>924.2</ele><time>2026-04-18T09:36:42.783Z</time></trkpt><trkpt lat="42.0629667" lon="-8.0119567"><ele>924.4000000000001</ele><time>2026-04-18T09:36:44.783Z</time></trkpt><trkpt lat="42.0630167" lon="-8.012045"><ele>924.6</ele><time>2026-04-18T09:36:46.784Z</time></trkpt><trkpt lat="42.0630883" lon="-8.0121267"><ele>924.8</ele><time>2026-04-18T09:36:48.784Z</time></trkpt><trkpt lat="42.0632117" lon="-8.0122083"><ele>925.0</ele><time>2026-04-18T09:36:50.784Z</time></trkpt><trkpt lat="42.0632967" lon="-8.0122917"><ele>924.9999999999999</ele><time>2026-04-18T09:36:52.783Z</time></trkpt><trkpt lat="42.0633217" lon="-8.0123933"><ele>925.0</ele><time>2026-04-18T09:36:54.783Z</time></trkpt><trkpt lat="42.0632733" lon="-8.0124483"><ele>925.0</ele><time>2026-04-18T09:36:56.783Z</time></trkpt><trkpt lat="42.0631933" lon="-8.0124967"><ele>925.0</ele><time>2026-04-18T09:36:58.782Z</time></trkpt><trkpt lat="42.0630817" lon="-8.0125283"><ele>924.9999999999999</ele><time>2026-04-18T09:37:00.783Z</time></trkpt><trkpt lat="42.0630233" lon="-8.01257"><ele>925.0</ele><time>2026-04-18T09:37:02.783Z</time></trkpt><trkpt lat="42.062955" lon="-8.0126617"><ele>925.8</ele><time>2026-04-18T09:37:04.782Z</time></trkpt><trkpt lat="42.0628717" lon="-8.01277"><ele>926.6</ele><time>2026-04-18T09:37:06.783Z</time></trkpt><trkpt lat="42.06279" lon="-8.0128733"><ele>927.4000000000001</ele><time>2026-04-18T09:37:08.785Z</time></trkpt><trkpt lat="42.0627467" lon="-8.01294"><ele>928.2</ele><time>2026-04-18T09:37:09.783Z</time></trkpt><trkpt lat="42.0626967" lon="-8.013015"><ele>929.0</ele><time>2026-04-18T09:37:10.782Z</time></trkpt><trkpt lat="42.062635" lon="-8.0130883"><ele>929.0000000000001</ele><time>2026-04-18T09:37:11.784Z</time></trkpt><trkpt lat="42.062585" lon="-8.0131483"><ele>929.0</ele><time>2026-04-18T09:37:12.784Z</time></trkpt><trkpt lat="42.062545" lon="-8.0132433"><ele>929.0</ele><time>2026-04-18T09:37:14.783Z</time></trkpt><trkpt lat="42.06254" lon="-8.0133317"><ele>929.0</ele><time>2026-04-18T09:37:16.783Z</time></trkpt><trkpt lat="42.062575" lon="-8.013445"><ele>929.0000000000001</ele><time>2026-04-18T09:37:18.787Z</time></trkpt><trkpt lat="42.0625933" lon="-8.0135767"><ele>929.0</ele><time>2026-04-18T09:37:20.783Z</time></trkpt><trkpt lat="42.0625267" lon="-8.0137183"><ele>929.0</ele><time>2026-04-18T09:37:22.783Z</time></trkpt><trkpt lat="42.0624583" lon="-8.0138233"><ele>929.0</ele><time>2026-04-18T09:37:23.784Z</time></trkpt><trkpt lat="42.0623867" lon="-8.0139617"><ele>929.0</ele><time>2026-04-18T09:37:24.783Z</time></trkpt><trkpt lat="42.062305" lon="-8.014105"><ele>929.0</ele><time>2026-04-18T09:37:25.783Z</time></trkpt><trkpt lat="42.0621967" lon="-8.0142583"><ele>933.0</ele><time>2026-04-18T09:37:26.784Z</time></trkpt><trkpt lat="42.0620633" lon="-8.0144383"><ele>937.0</ele><time>2026-04-18T09:37:27.783Z</time></trkpt><trkpt lat="42.0619133" lon="-8.01459"><ele>941.0</ele><time>2026-04-18T09:37:28.782Z</time></trkpt><trkpt lat="42.06176" lon="-8.01471"><ele>941.0</ele><time>2026-04-18T09:37:29.784Z</time></trkpt><trkpt lat="42.06162" lon="-8.0147867"><ele>941.0</ele><time>2026-04-18T09:37:30.785Z</time></trkpt><trkpt lat="42.0614967" lon="-8.014845"><ele>941.0</ele><time>2026-04-18T09:37:31.786Z</time></trkpt><trkpt lat="42.0613583" lon="-8.0149"><ele>941.0</ele><time>2026-04-18T09:37:32.783Z</time></trkpt><trkpt lat="42.061235" lon="-8.0149517"><ele>945.5</ele><time>2026-04-18T09:37:33.783Z</time></trkpt><trkpt lat="42.0611217" lon="-8.0149983"><ele>950.0</ele><time>2026-04-18T09:37:34.783Z</time></trkpt><trkpt lat="42.0610133" lon="-8.0150517"><ele>954.5</ele><time>2026-04-18T09:37:35.783Z</time></trkpt><trkpt lat="42.0609" lon="-8.0151017"><ele>959.0</ele><time>2026-04-18T09:37:36.783Z</time></trkpt><trkpt lat="42.0607933" lon="-8.015155"><ele>954.6</ele><time>2026-04-18T09:37:37.784Z</time></trkpt><trkpt lat="42.060695" lon="-8.0152217"><ele>950.2</ele><time>2026-04-18T09:37:38.783Z</time></trkpt><trkpt lat="42.0606067" lon="-8.0153067"><ele>945.8000000000001</ele><time>2026-04-18T09:37:39.783Z</time></trkpt><trkpt lat="42.060535" lon="-8.0154"><ele>941.4000000000001</ele><time>2026-04-18T09:37:40.783Z</time></trkpt><trkpt lat="42.06046" lon="-8.0155117"><ele>937.0</ele><time>2026-04-18T09:37:41.783Z</time></trkpt><trkpt lat="42.0604017" lon="-8.0156333"><ele>937.0</ele><time>2026-04-18T09:37:42.783Z</time></trkpt><trkpt lat="42.0603583" lon="-8.01576"><ele>937.0</ele><time>2026-04-18T09:37:43.784Z</time></trkpt><trkpt lat="42.060325" lon="-8.0158933"><ele>937.0</ele><time>2026-04-18T09:37:44.783Z</time></trkpt><trkpt lat="42.06031" lon="-8.0160333"><ele>937.0</ele><time>2026-04-18T09:37:45.783Z</time></trkpt><trkpt lat="42.0603067" lon="-8.01618"><ele>937.0</ele><time>2026-04-18T09:37:46.783Z</time></trkpt><trkpt lat="42.0603117" lon="-8.0163317"><ele>942.0</ele><time>2026-04-18T09:37:47.785Z</time></trkpt><trkpt lat="42.060315" lon="-8.01647"><ele>947.0</ele><time>2026-04-18T09:37:48.783Z</time></trkpt><trkpt lat="42.0603083" lon="-8.016605"><ele>952.0</ele><time>2026-04-18T09:37:49.783Z</time></trkpt><trkpt lat="42.060285" lon="-8.0167433"><ele>957.0</ele><time>2026-04-18T09:37:50.785Z</time></trkpt><trkpt lat="42.06024" lon="-8.0168717"><ele>962.0</ele><time>2026-04-18T09:37:51.784Z</time></trkpt><trkpt lat="42.0602017" lon="-8.016995"><ele>961.8</ele><time>2026-04-18T09:37:52.783Z</time></trkpt><trkpt lat="42.0601683" lon="-8.0171017"><ele>961.6</ele><time>2026-04-18T09:37:53.783Z</time></trkpt><trkpt lat="42.0601583" lon="-8.01723"><ele>961.3999999999999</ele><time>2026-04-18T09:37:54.784Z</time></trkpt><trkpt lat="42.0601633" lon="-8.017365"><ele>961.1999999999999</ele><time>2026-04-18T09:37:55.785Z</time></trkpt><trkpt lat="42.0601733" lon="-8.0174983"><ele>961.0</ele><time>2026-04-18T09:37:56.783Z</time></trkpt><trkpt lat="42.0602083" lon="-8.01763"><ele>961.0</ele><time>2026-04-18T09:37:57.783Z</time></trkpt><trkpt lat="42.060275" lon="-8.0177533"><ele>960.9999999999999</ele><time>2026-04-18T09:37:58.785Z</time></trkpt><trkpt lat="42.0603267" lon="-8.017885"><ele>960.9999999999999</ele><time>2026-04-18T09:37:59.785Z</time></trkpt><trkpt lat="42.060375" lon="-8.0180017"><ele>961.0</ele><time>2026-04-18T09:38:00.783Z</time></trkpt><trkpt lat="42.0604583" lon="-8.0181217"><ele>961.0</ele><time>2026-04-18T09:38:01.783Z</time></trkpt><trkpt lat="42.0605417" lon="-8.01823"><ele>961.0</ele><time>2026-04-18T09:38:02.784Z</time></trkpt><trkpt lat="42.0606167" lon="-8.0183433"><ele>960.9999999999999</ele><time>2026-04-18T09:38:03.783Z</time></trkpt><trkpt lat="42.0606817" lon="-8.0184483"><ele>960.9999999999999</ele><time>2026-04-18T09:38:04.783Z</time></trkpt><trkpt lat="42.0607383" lon="-8.01857"><ele>961.0</ele><time>2026-04-18T09:38:05.784Z</time></trkpt><trkpt lat="42.0607833" lon="-8.01868"><ele>961.0</ele><time>2026-04-18T09:38:06.783Z</time></trkpt><trkpt lat="42.06082" lon="-8.0187883"><ele>961.6666666666666</ele><time>2026-04-18T09:38:07.783Z</time></trkpt><trkpt lat="42.060835" lon="-8.0188817"><ele>962.3333333333333</ele><time>2026-04-18T09:38:08.783Z</time></trkpt><trkpt lat="42.0608317" lon="-8.018975"><ele>963.0</ele><time>2026-04-18T09:38:09.784Z</time></trkpt><trkpt lat="42.0608217" lon="-8.0190733"><ele>963.6666666666667</ele><time>2026-04-18T09:38:10.782Z</time></trkpt><trkpt lat="42.0608067" lon="-8.01918"><ele>964.3333333333334</ele><time>2026-04-18T09:38:11.783Z</time></trkpt><trkpt lat="42.0607933" lon="-8.01929"><ele>965.0</ele><time>2026-04-18T09:38:12.783Z</time></trkpt><trkpt lat="42.0607967" lon="-8.01941"><ele>965.0000000000001</ele><time>2026-04-18T09:38:13.783Z</time></trkpt><trkpt lat="42.060805" lon="-8.0195217"><ele>965.0</ele><time>2026-04-18T09:38:14.783Z</time></trkpt><trkpt lat="42.0608117" lon="-8.0196133"><ele>965.0</ele><time>2026-04-18T09:38:15.783Z</time></trkpt><trkpt lat="42.0608117" lon="-8.01974"><ele>965.0</ele><time>2026-04-18T09:38:17.783Z</time></trkpt><trkpt lat="42.06075" lon="-8.019795"><ele>965.0000000000001</ele><time>2026-04-18T09:38:20.783Z</time></trkpt><trkpt lat="42.0606733" lon="-8.019775"><ele>965.0</ele><time>2026-04-18T09:38:22.783Z</time></trkpt><trkpt lat="42.0605717" lon="-8.019705"><ele>964.4</ele><time>2026-04-18T09:38:24.784Z</time></trkpt><trkpt lat="42.0605033" lon="-8.019645"><ele>963.8</ele><time>2026-04-18T09:38:25.783Z</time></trkpt><trkpt lat="42.0604333" lon="-8.019585"><ele>963.2</ele><time>2026-04-18T09:38:26.784Z</time></trkpt><trkpt lat="42.0603533" lon="-8.0195117"><ele>962.6</ele><time>2026-04-18T09:38:27.785Z</time></trkpt><trkpt lat="42.0602583" lon="-8.0194317"><ele>962.0</ele><time>2026-04-18T09:38:28.783Z</time></trkpt><trkpt lat="42.060155" lon="-8.01935"><ele>962.0</ele><time>2026-04-18T09:38:29.785Z</time></trkpt><trkpt lat="42.0600517" lon="-8.0192683"><ele>962.0</ele><time>2026-04-18T09:38:30.783Z</time></trkpt><trkpt lat="42.059945" lon="-8.0191767"><ele>962.0</ele><time>2026-04-18T09:38:31.785Z</time></trkpt><trkpt lat="42.0598433" lon="-8.019075"><ele>962.0</ele><time>2026-04-18T09:38:32.783Z</time></trkpt><trkpt lat="42.0597417" lon="-8.0189567"><ele>961.25</ele><time>2026-04-18T09:38:33.783Z</time></trkpt><trkpt lat="42.05964" lon="-8.0188383"><ele>960.5</ele><time>2026-04-18T09:38:34.783Z</time></trkpt><trkpt lat="42.05954" lon="-8.0187367"><ele>959.75</ele><time>2026-04-18T09:38:35.783Z</time></trkpt><trkpt lat="42.0594317" lon="-8.0186567"><ele>959.0</ele><time>2026-04-18T09:38:36.783Z</time></trkpt><trkpt lat="42.0593167" lon="-8.0186"><ele>959.0</ele><time>2026-04-18T09:38:37.783Z</time></trkpt><trkpt lat="42.0592067" lon="-8.01854"><ele>959.0</ele><time>2026-04-18T09:38:38.783Z</time></trkpt><trkpt lat="42.059095" lon="-8.0184667"><ele>959.0</ele><time>2026-04-18T09:38:39.783Z</time></trkpt><trkpt lat="42.0589783" lon="-8.0183883"><ele>959.0</ele><time>2026-04-18T09:38:40.785Z</time></trkpt><trkpt lat="42.0588633" lon="-8.0182967"><ele>956.0</ele><time>2026-04-18T09:38:41.784Z</time></trkpt><trkpt lat="42.058755" lon="-8.0181883"><ele>953.0</ele><time>2026-04-18T09:38:42.784Z</time></trkpt><trkpt lat="42.0586617" lon="-8.0180767"><ele>950.0</ele><time>2026-04-18T09:38:43.783Z</time></trkpt><trkpt lat="42.058585" lon="-8.017955"><ele>947.0</ele><time>2026-04-18T09:38:44.785Z</time></trkpt><trkpt lat="42.05852" lon="-8.0178267"><ele>947.0</ele><time>2026-04-18T09:38:45.784Z</time></trkpt><trkpt lat="42.0584767" lon="-8.017695"><ele>947.0</ele><time>2026-04-18T09:38:46.783Z</time></trkpt><trkpt lat="42.0584333" lon="-8.0175567"><ele>947.0</ele><time>2026-04-18T09:38:47.783Z</time></trkpt><trkpt lat="42.0583917" lon="-8.017425"><ele>947.0</ele><time>2026-04-18T09:38:48.784Z</time></trkpt><trkpt lat="42.0583233" lon="-8.0173167"><ele>947.0</ele><time>2026-04-18T09:38:49.783Z</time></trkpt><trkpt lat="42.0582417" lon="-8.0172267"><ele>944.4000000000001</ele><time>2026-04-18T09:38:50.784Z</time></trkpt><trkpt lat="42.0581533" lon="-8.01715"><ele>941.8000000000001</ele><time>2026-04-18T09:38:51.784Z</time></trkpt><trkpt lat="42.05807" lon="-8.0170617"><ele>939.2</ele><time>2026-04-18T09:38:52.785Z</time></trkpt><trkpt lat="42.057975" lon="-8.0169767"><ele>936.6</ele><time>2026-04-18T09:38:53.783Z</time></trkpt><trkpt lat="42.0578767" lon="-8.0168767"><ele>934.0</ele><time>2026-04-18T09:38:54.783Z</time></trkpt><trkpt lat="42.0577783" lon="-8.0167633"><ele>935.25</ele><time>2026-04-18T09:38:55.784Z</time></trkpt><trkpt lat="42.0576917" lon="-8.016635"><ele>936.5</ele><time>2026-04-18T09:38:56.784Z</time></trkpt><trkpt lat="42.0576" lon="-8.0165067"><ele>937.75</ele><time>2026-04-18T09:38:57.783Z</time></trkpt><trkpt lat="42.0574883" lon="-8.0163917"><ele>939.0</ele><time>2026-04-18T09:38:58.785Z</time></trkpt><trkpt lat="42.057385" lon="-8.016285"><ele>939.0</ele><time>2026-04-18T09:38:59.783Z</time></trkpt><trkpt lat="42.0572767" lon="-8.0162"><ele>939.0</ele><time>2026-04-18T09:39:00.784Z</time></trkpt><trkpt lat="42.0571833" lon="-8.0161117"><ele>939.0</ele><time>2026-04-18T09:39:01.783Z</time></trkpt><trkpt lat="42.0571167" lon="-8.0159967"><ele>939.0</ele><time>2026-04-18T09:39:02.783Z</time></trkpt><trkpt lat="42.0570683" lon="-8.0158633"><ele>940.25</ele><time>2026-04-18T09:39:03.784Z</time></trkpt><trkpt lat="42.0570183" lon="-8.01572"><ele>941.5</ele><time>2026-04-18T09:39:04.783Z</time></trkpt><trkpt lat="42.056965" lon="-8.0155733"><ele>942.75</ele><time>2026-04-18T09:39:05.783Z</time></trkpt><trkpt lat="42.0569017" lon="-8.0154333"><ele>944.0</ele><time>2026-04-18T09:39:06.783Z</time></trkpt><trkpt lat="42.05682" lon="-8.0153067"><ele>944.0</ele><time>2026-04-18T09:39:07.783Z</time></trkpt><trkpt lat="42.0567317" lon="-8.0151867"><ele>944.0</ele><time>2026-04-18T09:39:08.783Z</time></trkpt><trkpt lat="42.0566383" lon="-8.015065"><ele>944.0</ele><time>2026-04-18T09:39:09.783Z</time></trkpt><trkpt lat="42.0565417" lon="-8.0149417"><ele>944.0</ele><time>2026-04-18T09:39:10.784Z</time></trkpt><trkpt lat="42.0564517" lon="-8.014815"><ele>945.0</ele><time>2026-04-18T09:39:11.783Z</time></trkpt><trkpt lat="42.0563567" lon="-8.0146783"><ele>946.0</ele><time>2026-04-18T09:39:12.783Z</time></trkpt><trkpt lat="42.0562633" lon="-8.01454"><ele>947.0</ele><time>2026-04-18T09:39:13.784Z</time></trkpt><trkpt lat="42.0561633" lon="-8.0144133"><ele>948.0</ele><time>2026-04-18T09:39:14.783Z</time></trkpt><trkpt lat="42.05606" lon="-8.014285"><ele>948.0</ele><time>2026-04-18T09:39:15.783Z</time></trkpt><trkpt lat="42.05595" lon="-8.0141583"><ele>948.0</ele><time>2026-04-18T09:39:16.783Z</time></trkpt><trkpt lat="42.055835" lon="-8.01404"><ele>948.0</ele><time>2026-04-18T09:39:17.784Z</time></trkpt><trkpt lat="42.0557217" lon="-8.013915"><ele>948.0</ele><time>2026-04-18T09:39:18.784Z</time></trkpt><trkpt lat="42.05561" lon="-8.0137867"><ele>948.25</ele><time>2026-04-18T09:39:19.783Z</time></trkpt><trkpt lat="42.0554983" lon="-8.0136583"><ele>948.5</ele><time>2026-04-18T09:39:20.785Z</time></trkpt><trkpt lat="42.0553917" lon="-8.0135317"><ele>948.75</ele><time>2026-04-18T09:39:21.784Z</time></trkpt><trkpt lat="42.055295" lon="-8.0134133"><ele>949.0</ele><time>2026-04-18T09:39:22.783Z</time></trkpt><trkpt lat="42.0552183" lon="-8.0133083"><ele>949.0</ele><time>2026-04-18T09:39:23.783Z</time></trkpt><trkpt lat="42.055155" lon="-8.0132133"><ele>949.0000000000001</ele><time>2026-04-18T09:39:24.786Z</time></trkpt><trkpt lat="42.0551" lon="-8.0131283"><ele>949.0000000000001</ele><time>2026-04-18T09:39:25.785Z</time></trkpt><trkpt lat="42.055055" lon="-8.013065"><ele>949.0</ele><time>2026-04-18T09:39:26.783Z</time></trkpt><trkpt lat="42.0549617" lon="-8.0129917"><ele>949.0</ele><time>2026-04-18T09:39:28.784Z</time></trkpt><trkpt lat="42.0548517" lon="-8.0129933"><ele>949.0</ele><time>2026-04-18T09:39:30.784Z</time></trkpt><trkpt lat="42.0547717" lon="-8.0130533"><ele>949.0000000000001</ele><time>2026-04-18T09:39:31.785Z</time></trkpt><trkpt lat="42.0546917" lon="-8.013095"><ele>949.0000000000001</ele><time>2026-04-18T09:39:32.783Z</time></trkpt><trkpt lat="42.0545817" lon="-8.0131433"><ele>949.0</ele><time>2026-04-18T09:39:33.784Z</time></trkpt><trkpt lat="42.0544633" lon="-8.0131733"><ele>949.0</ele><time>2026-04-18T09:39:34.784Z</time></trkpt><trkpt lat="42.0543483" lon="-8.0132167"><ele>949.0</ele><time>2026-04-18T09:39:35.784Z</time></trkpt><trkpt lat="42.0542267" lon="-8.0132783"><ele>949.0</ele><time>2026-04-18T09:39:36.784Z</time></trkpt><trkpt lat="42.0540967" lon="-8.013355"><ele>949.0</ele><time>2026-04-18T09:39:37.784Z</time></trkpt><trkpt lat="42.0539583" lon="-8.0134317"><ele>949.0</ele><time>2026-04-18T09:39:38.784Z</time></trkpt><trkpt lat="42.0538333" lon="-8.0134967"><ele>949.6</ele><time>2026-04-18T09:39:39.784Z</time></trkpt><trkpt lat="42.05372" lon="-8.01356"><ele>950.2</ele><time>2026-04-18T09:39:40.784Z</time></trkpt><trkpt lat="42.0536283" lon="-8.0136183"><ele>950.8000000000001</ele><time>2026-04-18T09:39:41.784Z</time></trkpt><trkpt lat="42.0535617" lon="-8.0136817"><ele>951.4000000000001</ele><time>2026-04-18T09:39:42.786Z</time></trkpt><trkpt lat="42.0535017" lon="-8.0137583"><ele>952.0</ele><time>2026-04-18T09:39:43.787Z</time></trkpt><trkpt lat="42.0534867" lon="-8.01385"><ele>951.9999999999999</ele><time>2026-04-18T09:39:44.786Z</time></trkpt><trkpt lat="42.0534933" lon="-8.0139383"><ele>952.0</ele><time>2026-04-18T09:39:45.785Z</time></trkpt><trkpt lat="42.05352" lon="-8.0140517"><ele>952.0</ele><time>2026-04-18T09:39:46.786Z</time></trkpt><trkpt lat="42.053555" lon="-8.01419"><ele>952.0</ele><time>2026-04-18T09:39:47.785Z</time></trkpt><trkpt lat="42.0535933" lon="-8.0143017"><ele>951.9999999999999</ele><time>2026-04-18T09:39:48.784Z</time></trkpt><trkpt lat="42.0536117" lon="-8.0144033"><ele>952.0</ele><time>2026-04-18T09:39:49.785Z</time></trkpt><trkpt lat="42.053645" lon="-8.0145017"><ele>952.3333333333333</ele><time>2026-04-18T09:39:50.784Z</time></trkpt><trkpt lat="42.0536683" lon="-8.0146033"><ele>952.6666666666666</ele><time>2026-04-18T09:39:51.784Z</time></trkpt><trkpt lat="42.0536833" lon="-8.0147117"><ele>953.0</ele><time>2026-04-18T09:39:52.784Z</time></trkpt><trkpt lat="42.0537083" lon="-8.0148183"><ele>953.3333333333333</ele><time>2026-04-18T09:39:53.785Z</time></trkpt><trkpt lat="42.053745" lon="-8.0149267"><ele>953.6666666666666</ele><time>2026-04-18T09:39:54.784Z</time></trkpt><trkpt lat="42.0537883" lon="-8.0150217"><ele>954.0</ele><time>2026-04-18T09:39:55.784Z</time></trkpt><trkpt lat="42.0538333" lon="-8.0151133"><ele>954.3333333333334</ele><time>2026-04-18T09:39:56.785Z</time></trkpt><trkpt lat="42.0538783" lon="-8.0151983"><ele>954.6666666666667</ele><time>2026-04-18T09:39:57.784Z</time></trkpt><trkpt lat="42.053925" lon="-8.0152783"><ele>955.0</ele><time>2026-04-18T09:39:58.785Z</time></trkpt><trkpt lat="42.0539783" lon="-8.0153483"><ele>955.3333333333334</ele><time>2026-04-18T09:39:59.784Z</time></trkpt><trkpt lat="42.05404" lon="-8.015415"><ele>955.6666666666667</ele><time>2026-04-18T09:40:00.784Z</time></trkpt><trkpt lat="42.0541133" lon="-8.01548"><ele>956.0</ele><time>2026-04-18T09:40:01.784Z</time></trkpt><trkpt lat="42.0542067" lon="-8.0155517"><ele>956.0</ele><time>2026-04-18T09:40:02.784Z</time></trkpt><trkpt lat="42.0543017" lon="-8.01563"><ele>955.9999999999999</ele><time>2026-04-18T09:40:03.785Z</time></trkpt><trkpt lat="42.0543967" lon="-8.015715"><ele>955.9999999999999</ele><time>2026-04-18T09:40:04.784Z</time></trkpt><trkpt lat="42.0544867" lon="-8.0157983"><ele>956.0</ele><time>2026-04-18T09:40:05.784Z</time></trkpt><trkpt lat="42.0545617" lon="-8.015875"><ele>956.0</ele><time>2026-04-18T09:40:06.784Z</time></trkpt><trkpt lat="42.0546267" lon="-8.0159433"><ele>956.5000000000001</ele><time>2026-04-18T09:40:07.784Z</time></trkpt><trkpt lat="42.05467" lon="-8.016005"><ele>957.0</ele><time>2026-04-18T09:40:08.784Z</time></trkpt><trkpt lat="42.05473" lon="-8.0161567"><ele>957.5</ele><time>2026-04-18T09:40:10.785Z</time></trkpt><trkpt lat="42.05474" lon="-8.0162683"><ele>958.0</ele><time>2026-04-18T09:40:11.786Z</time></trkpt><trkpt lat="42.054735" lon="-8.0163933"><ele>958.5000000000001</ele><time>2026-04-18T09:40:12.785Z</time></trkpt><trkpt lat="42.0547567" lon="-8.0164967"><ele>959.0</ele><time>2026-04-18T09:40:13.784Z</time></trkpt><trkpt lat="42.0547717" lon="-8.0166083"><ele>958.5000000000001</ele><time>2026-04-18T09:40:14.785Z</time></trkpt><trkpt lat="42.0547967" lon="-8.0167283"><ele>958.0</ele><time>2026-04-18T09:40:15.784Z</time></trkpt><trkpt lat="42.0548483" lon="-8.0168383"><ele>957.5</ele><time>2026-04-18T09:40:16.784Z</time></trkpt><trkpt lat="42.0549" lon="-8.0169417"><ele>957.0</ele><time>2026-04-18T09:40:17.784Z</time></trkpt><trkpt lat="42.054945" lon="-8.01704"><ele>956.5000000000001</ele><time>2026-04-18T09:40:18.786Z</time></trkpt><trkpt lat="42.0549967" lon="-8.017125"><ele>956.0</ele><time>2026-04-18T09:40:19.784Z</time></trkpt><trkpt lat="42.0550517" lon="-8.0172033"><ele>956.0000000000001</ele><time>2026-04-18T09:40:20.784Z</time></trkpt><trkpt lat="42.055105" lon="-8.0172633"><ele>956.0</ele><time>2026-04-18T09:40:21.784Z</time></trkpt><trkpt lat="42.05516" lon="-8.0173133"><ele>956.0000000000001</ele><time>2026-04-18T09:40:22.785Z</time></trkpt><trkpt lat="42.055215" lon="-8.017355"><ele>956.0000000000001</ele><time>2026-04-18T09:40:23.786Z</time></trkpt><trkpt lat="42.05528" lon="-8.0173717"><ele>956.0</ele><time>2026-04-18T09:40:24.789Z</time></trkpt><trkpt lat="42.055355" lon="-8.0173783"><ele>956.0000000000001</ele><time>2026-04-18T09:40:25.786Z</time></trkpt><trkpt lat="42.0554367" lon="-8.0173533"><ele>956.0000000000001</ele><time>2026-04-18T09:40:26.787Z</time></trkpt><trkpt lat="42.05551" lon="-8.0173233"><ele>956.0000000000001</ele><time>2026-04-18T09:40:27.785Z</time></trkpt><trkpt lat="42.0555817" lon="-8.0173017"><ele>956.0</ele><time>2026-04-18T09:40:28.786Z</time></trkpt><trkpt lat="42.0556633" lon="-8.01728"><ele>956.0</ele><time>2026-04-18T09:40:29.786Z</time></trkpt><trkpt lat="42.0557333" lon="-8.01727"><ele>956.0</ele><time>2026-04-18T09:40:30.784Z</time></trkpt><trkpt lat="42.0558083" lon="-8.01727"><ele>956.0000000000001</ele><time>2026-04-18T09:40:31.785Z</time></trkpt><trkpt lat="42.0558833" lon="-8.0172933"><ele>956.0</ele><time>2026-04-18T09:40:32.785Z</time></trkpt><trkpt lat="42.05597" lon="-8.0173417"><ele>955.4</ele><time>2026-04-18T09:40:33.784Z</time></trkpt><trkpt lat="42.056045" lon="-8.0173783"><ele>954.8</ele><time>2026-04-18T09:40:34.785Z</time></trkpt><trkpt lat="42.0561117" lon="-8.01742"><ele>954.1999999999999</ele><time>2026-04-18T09:40:35.784Z</time></trkpt><trkpt lat="42.0562033" lon="-8.017525"><ele>953.5999999999999</ele><time>2026-04-18T09:40:37.785Z</time></trkpt><trkpt lat="42.0562533" lon="-8.0176633"><ele>953.0</ele><time>2026-04-18T09:40:39.785Z</time></trkpt><trkpt lat="42.0562717" lon="-8.01778"><ele>955.2</ele><time>2026-04-18T09:40:41.784Z</time></trkpt><trkpt lat="42.0562" lon="-8.017855"><ele>957.4</ele><time>2026-04-18T09:40:43.785Z</time></trkpt><trkpt lat="42.05612" lon="-8.017885"><ele>959.6000000000001</ele><time>2026-04-18T09:40:45.784Z</time></trkpt><trkpt lat="42.0560483" lon="-8.0179017"><ele>961.8000000000001</ele><time>2026-04-18T09:40:46.786Z</time></trkpt><trkpt lat="42.0559483" lon="-8.0179283"><ele>964.0</ele><time>2026-04-18T09:40:47.784Z</time></trkpt><trkpt lat="42.0557967" lon="-8.0179733"><ele>964.75</ele><time>2026-04-18T09:40:48.784Z</time></trkpt><trkpt lat="42.0556417" lon="-8.0180383"><ele>965.5</ele><time>2026-04-18T09:40:49.784Z</time></trkpt><trkpt lat="42.055505" lon="-8.0180917"><ele>966.25</ele><time>2026-04-18T09:40:50.785Z</time></trkpt><trkpt lat="42.0553883" lon="-8.0181267"><ele>967.0</ele><time>2026-04-18T09:40:51.784Z</time></trkpt><trkpt lat="42.05529" lon="-8.01814"><ele>967.0</ele><time>2026-04-18T09:40:52.784Z</time></trkpt><trkpt lat="42.055185" lon="-8.0181317"><ele>967.0</ele><time>2026-04-18T09:40:53.784Z</time></trkpt><trkpt lat="42.05507" lon="-8.01811"><ele>967.0</ele><time>2026-04-18T09:40:54.784Z</time></trkpt><trkpt lat="42.0549317" lon="-8.0180583"><ele>967.0</ele><time>2026-04-18T09:40:55.784Z</time></trkpt><trkpt lat="42.0547983" lon="-8.018"><ele>970.25</ele><time>2026-04-18T09:40:56.784Z</time></trkpt><trkpt lat="42.0546667" lon="-8.0179317"><ele>973.5</ele><time>2026-04-18T09:40:57.784Z</time></trkpt><trkpt lat="42.0545433" lon="-8.017875"><ele>976.75</ele><time>2026-04-18T09:40:58.784Z</time></trkpt><trkpt lat="42.0544217" lon="-8.017825"><ele>980.0</ele><time>2026-04-18T09:40:59.784Z</time></trkpt><trkpt lat="42.0543133" lon="-8.0177917"><ele>980.0</ele><time>2026-04-18T09:41:00.784Z</time></trkpt><trkpt lat="42.0542283" lon="-8.0177683"><ele>980.0</ele><time>2026-04-18T09:41:01.785Z</time></trkpt><trkpt lat="42.054155" lon="-8.0177433"><ele>980.0</ele><time>2026-04-18T09:41:02.784Z</time></trkpt><trkpt lat="42.0540483" lon="-8.017745"><ele>980.0</ele><time>2026-04-18T09:41:04.784Z</time></trkpt><trkpt lat="42.0541467" lon="-8.01784"><ele>980.0</ele><time>2026-04-18T09:41:09.785Z</time></trkpt><trkpt lat="42.0542433" lon="-8.017905"><ele>980.0</ele><time>2026-04-18T09:41:10.785Z</time></trkpt><trkpt lat="42.0543267" lon="-8.0179567"><ele>980.0</ele><time>2026-04-18T09:41:11.784Z</time></trkpt><trkpt lat="42.0544333" lon="-8.018035"><ele>980.0</ele><time>2026-04-18T09:41:12.784Z</time></trkpt><trkpt lat="42.0545583" lon="-8.0181817"><ele>980.0</ele><time>2026-04-18T09:41:13.787Z</time></trkpt><trkpt lat="42.0547017" lon="-8.01834"><ele>980.3333333333334</ele><time>2026-04-18T09:41:14.784Z</time></trkpt><trkpt lat="42.0548267" lon="-8.0184967"><ele>980.6666666666667</ele><time>2026-04-18T09:41:15.785Z</time></trkpt><trkpt lat="42.054965" lon="-8.0187"><ele>981.0</ele><time>2026-04-18T09:41:16.784Z</time></trkpt><trkpt lat="42.0550717" lon="-8.0188767"><ele>981.0</ele><time>2026-04-18T09:41:17.785Z</time></trkpt><trkpt lat="42.0551633" lon="-8.0190433"><ele>981.0</ele><time>2026-04-18T09:41:18.785Z</time></trkpt><trkpt lat="42.0552483" lon="-8.0192167"><ele>981.0</ele><time>2026-04-18T09:41:19.786Z</time></trkpt><trkpt lat="42.055315" lon="-8.0193817"><ele>981.0</ele><time>2026-04-18T09:41:20.784Z</time></trkpt><trkpt lat="42.0553683" lon="-8.0195317"><ele>983.0</ele><time>2026-04-18T09:41:21.784Z</time></trkpt><trkpt lat="42.0554017" lon="-8.0196633"><ele>985.0</ele><time>2026-04-18T09:41:22.784Z</time></trkpt><trkpt lat="42.0554067" lon="-8.0198133"><ele>987.0</ele><time>2026-04-18T09:41:23.785Z</time></trkpt><trkpt lat="42.0553867" lon="-8.019995"><ele>989.0</ele><time>2026-04-18T09:41:24.785Z</time></trkpt><trkpt lat="42.0553617" lon="-8.0201767"><ele>989.0</ele><time>2026-04-18T09:41:25.784Z</time></trkpt><trkpt lat="42.05535" lon="-8.0203633"><ele>989.0</ele><time>2026-04-18T09:41:26.786Z</time></trkpt><trkpt lat="42.0553533" lon="-8.020555"><ele>989.0</ele><time>2026-04-18T09:41:27.784Z</time></trkpt><trkpt lat="42.0553633" lon="-8.0207483"><ele>989.0</ele><time>2026-04-18T09:41:28.784Z</time></trkpt><trkpt lat="42.055375" lon="-8.0209283"><ele>989.75</ele><time>2026-04-18T09:41:29.784Z</time></trkpt><trkpt lat="42.05539" lon="-8.0211"><ele>990.5</ele><time>2026-04-18T09:41:30.785Z</time></trkpt><trkpt lat="42.0554217" lon="-8.0212717"><ele>991.25</ele><time>2026-04-18T09:41:31.784Z</time></trkpt><trkpt lat="42.0554667" lon="-8.0214383"><ele>992.0</ele><time>2026-04-18T09:41:32.784Z</time></trkpt><trkpt lat="42.0555117" lon="-8.021615"><ele>993.25</ele><time>2026-04-18T09:41:33.784Z</time></trkpt><trkpt lat="42.0555417" lon="-8.0217983"><ele>994.5</ele><time>2026-04-18T09:41:34.785Z</time></trkpt><trkpt lat="42.0555567" lon="-8.0219817"><ele>995.75</ele><time>2026-04-18T09:41:35.784Z</time></trkpt><trkpt lat="42.0555633" lon="-8.0221633"><ele>997.0</ele><time>2026-04-18T09:41:36.786Z</time></trkpt><trkpt lat="42.0555667" lon="-8.0223583"><ele>999.5</ele><time>2026-04-18T09:41:37.784Z</time></trkpt><trkpt lat="42.055555" lon="-8.0225567"><ele>1002.0</ele><time>2026-04-18T09:41:38.784Z</time></trkpt><trkpt lat="42.0555583" lon="-8.0227167"><ele>1004.5</ele><time>2026-04-18T09:41:39.785Z</time></trkpt><trkpt lat="42.0555833" lon="-8.0228783"><ele>1007.0</ele><time>2026-04-18T09:41:40.785Z</time></trkpt><trkpt lat="42.0556133" lon="-8.0230333"><ele>1007.0</ele><time>2026-04-18T09:41:41.785Z</time></trkpt><trkpt lat="42.0556567" lon="-8.0232017"><ele>1007.0</ele><time>2026-04-18T09:41:42.785Z</time></trkpt><trkpt lat="42.055685" lon="-8.023375"><ele>1007.0</ele><time>2026-04-18T09:41:43.785Z</time></trkpt><trkpt lat="42.0557083" lon="-8.0235517"><ele>1007.0</ele><time>2026-04-18T09:41:44.784Z</time></trkpt><trkpt lat="42.0557333" lon="-8.023715"><ele>1008.2</ele><time>2026-04-18T09:41:45.784Z</time></trkpt><trkpt lat="42.0557617" lon="-8.0238733"><ele>1009.4000000000001</ele><time>2026-04-18T09:41:46.784Z</time></trkpt><trkpt lat="42.055785" lon="-8.0240033"><ele>1010.5999999999999</ele><time>2026-04-18T09:41:47.785Z</time></trkpt><trkpt lat="42.0558117" lon="-8.02412"><ele>1011.8</ele><time>2026-04-18T09:41:48.784Z</time></trkpt><trkpt lat="42.0558733" lon="-8.024245"><ele>1013.0</ele><time>2026-04-18T09:41:50.784Z</time></trkpt><trkpt lat="42.0559317" lon="-8.0243717"><ele>1010.1666666666667</ele><time>2026-04-18T09:41:52.785Z</time></trkpt><trkpt lat="42.0559533" lon="-8.0244533"><ele>1007.3333333333334</ele><time>2026-04-18T09:41:53.784Z</time></trkpt><trkpt lat="42.05597" lon="-8.0245467"><ele>1004.5</ele><time>2026-04-18T09:41:54.784Z</time></trkpt><trkpt lat="42.055995" lon="-8.0246567"><ele>1001.6666666666667</ele><time>2026-04-18T09:41:55.784Z</time></trkpt><trkpt lat="42.0560333" lon="-8.0247617"><ele>998.8333333333334</ele><time>2026-04-18T09:41:56.785Z</time></trkpt><trkpt lat="42.05607" lon="-8.0248567"><ele>996.0</ele><time>2026-04-18T09:41:57.784Z</time></trkpt><trkpt lat="42.0561183" lon="-8.0249283"><ele>998.0</ele><time>2026-04-18T09:41:58.787Z</time></trkpt><trkpt lat="42.0562017" lon="-8.0250017"><ele>999.9999999999999</ele><time>2026-04-18T09:41:59.785Z</time></trkpt><trkpt lat="42.0562917" lon="-8.025075"><ele>1001.9999999999999</ele><time>2026-04-18T09:42:00.786Z</time></trkpt><trkpt lat="42.0563817" lon="-8.025175"><ele>1004.0</ele><time>2026-04-18T09:42:01.785Z</time></trkpt><trkpt lat="42.056475" lon="-8.025265"><ele>1006.0</ele><time>2026-04-18T09:42:02.784Z</time></trkpt><trkpt lat="42.0565733" lon="-8.025345"><ele>1006.4</ele><time>2026-04-18T09:42:03.784Z</time></trkpt><trkpt lat="42.0566667" lon="-8.0253883"><ele>1006.8</ele><time>2026-04-18T09:42:04.784Z</time></trkpt><trkpt lat="42.05677" lon="-8.0254117"><ele>1007.1999999999999</ele><time>2026-04-18T09:42:05.784Z</time></trkpt><trkpt lat="42.0568833" lon="-8.0254383"><ele>1007.5999999999999</ele><time>2026-04-18T09:42:06.785Z</time></trkpt><trkpt lat="42.0569867" lon="-8.02549"><ele>1008.0</ele><time>2026-04-18T09:42:07.784Z</time></trkpt><trkpt lat="42.05708" lon="-8.0255633"><ele>1008.0</ele><time>2026-04-18T09:42:08.784Z</time></trkpt><trkpt lat="42.05716" lon="-8.02567"><ele>1008.0</ele><time>2026-04-18T09:42:09.784Z</time></trkpt><trkpt lat="42.0572283" lon="-8.0258017"><ele>1008.0</ele><time>2026-04-18T09:42:10.784Z</time></trkpt><trkpt lat="42.0572833" lon="-8.025935"><ele>1008.0</ele><time>2026-04-18T09:42:11.784Z</time></trkpt><trkpt lat="42.0573283" lon="-8.0260717"><ele>1009.5999999999999</ele><time>2026-04-18T09:42:12.788Z</time></trkpt><trkpt lat="42.0573667" lon="-8.0261883"><ele>1011.1999999999999</ele><time>2026-04-18T09:42:13.784Z</time></trkpt><trkpt lat="42.0574217" lon="-8.026295"><ele>1012.8</ele><time>2026-04-18T09:42:14.786Z</time></trkpt><trkpt lat="42.0574933" lon="-8.02639"><ele>1014.4</ele><time>2026-04-18T09:42:15.784Z</time></trkpt><trkpt lat="42.05758" lon="-8.026495"><ele>1016.0</ele><time>2026-04-18T09:42:16.784Z</time></trkpt><trkpt lat="42.0576833" lon="-8.0266133"><ele>1018.5999999999999</ele><time>2026-04-18T09:42:17.784Z</time></trkpt><trkpt lat="42.05778" lon="-8.026715"><ele>1021.1999999999999</ele><time>2026-04-18T09:42:18.785Z</time></trkpt><trkpt lat="42.0578583" lon="-8.026795"><ele>1023.8000000000001</ele><time>2026-04-18T09:42:19.789Z</time></trkpt><trkpt lat="42.05792" lon="-8.0268983"><ele>1026.4</ele><time>2026-04-18T09:42:20.787Z</time></trkpt><trkpt lat="42.05798" lon="-8.0270267"><ele>1029.0</ele><time>2026-04-18T09:42:21.786Z</time></trkpt><trkpt lat="42.05803" lon="-8.0271417"><ele>1029.0</ele><time>2026-04-18T09:42:22.783Z</time></trkpt><trkpt lat="42.0580667" lon="-8.0272517"><ele>1029.0</ele><time>2026-04-18T09:42:23.784Z</time></trkpt><trkpt lat="42.0580933" lon="-8.02736"><ele>1029.0</ele><time>2026-04-18T09:42:24.785Z</time></trkpt><trkpt lat="42.0581017" lon="-8.027485"><ele>1029.0</ele><time>2026-04-18T09:42:25.783Z</time></trkpt><trkpt lat="42.05809" lon="-8.027635"><ele>1029.0</ele><time>2026-04-18T09:42:26.784Z</time></trkpt><trkpt lat="42.0580767" lon="-8.0277983"><ele>1029.25</ele><time>2026-04-18T09:42:27.784Z</time></trkpt><trkpt lat="42.05805" lon="-8.0279683"><ele>1029.5</ele><time>2026-04-18T09:42:28.784Z</time></trkpt><trkpt lat="42.0580217" lon="-8.028125"><ele>1029.75</ele><time>2026-04-18T09:42:29.784Z</time></trkpt><trkpt lat="42.057985" lon="-8.0282817"><ele>1030.0</ele><time>2026-04-18T09:42:30.784Z</time></trkpt><trkpt lat="42.0579417" lon="-8.02841"><ele>1029.2</ele><time>2026-04-18T09:42:31.783Z</time></trkpt><trkpt lat="42.0578933" lon="-8.0285367"><ele>1028.4</ele><time>2026-04-18T09:42:32.783Z</time></trkpt><trkpt lat="42.0578433" lon="-8.028655"><ele>1027.6</ele><time>2026-04-18T09:42:33.783Z</time></trkpt><trkpt lat="42.0578" lon="-8.0287717"><ele>1026.8</ele><time>2026-04-18T09:42:34.783Z</time></trkpt><trkpt lat="42.05777" lon="-8.0288683"><ele>1026.0</ele><time>2026-04-18T09:42:35.783Z</time></trkpt><trkpt lat="42.0577217" lon="-8.028995"><ele>1026.0</ele><time>2026-04-18T09:42:37.785Z</time></trkpt><trkpt lat="42.057665" lon="-8.02904"><ele>1026.0</ele><time>2026-04-18T09:42:39.782Z</time></trkpt><trkpt lat="42.0575867" lon="-8.0290267"><ele>1026.0</ele><time>2026-04-18T09:42:41.782Z</time></trkpt><trkpt lat="42.0575233" lon="-8.0290117"><ele>1026.0</ele><time>2026-04-18T09:42:42.783Z</time></trkpt><trkpt lat="42.0574467" lon="-8.0289817"><ele>1026.0</ele><time>2026-04-18T09:42:43.782Z</time></trkpt><trkpt lat="42.0573633" lon="-8.0289467"><ele>1026.0</ele><time>2026-04-18T09:42:44.784Z</time></trkpt><trkpt lat="42.0572717" lon="-8.0288983"><ele>1026.0</ele><time>2026-04-18T09:42:45.786Z</time></trkpt><trkpt lat="42.0571767" lon="-8.028825"><ele>1026.0</ele><time>2026-04-18T09:42:46.783Z</time></trkpt><trkpt lat="42.0570933" lon="-8.028745"><ele>1026.0</ele><time>2026-04-18T09:42:47.783Z</time></trkpt><trkpt lat="42.0570133" lon="-8.028655"><ele>1026.0</ele><time>2026-04-18T09:42:48.783Z</time></trkpt><trkpt lat="42.05693" lon="-8.028555"><ele>1026.0</ele><time>2026-04-18T09:42:49.783Z</time></trkpt><trkpt lat="42.0568517" lon="-8.0284583"><ele>1026.0</ele><time>2026-04-18T09:42:50.783Z</time></trkpt><trkpt lat="42.0567667" lon="-8.028345"><ele>1026.0</ele><time>2026-04-18T09:42:51.783Z</time></trkpt><trkpt lat="42.0566917" lon="-8.0282283"><ele>1026.0</ele><time>2026-04-18T09:42:52.783Z</time></trkpt><trkpt lat="42.056615" lon="-8.0281067"><ele>1026.0</ele><time>2026-04-18T09:42:53.783Z</time></trkpt><trkpt lat="42.056545" lon="-8.0279783"><ele>1026.0</ele><time>2026-04-18T09:42:54.783Z</time></trkpt><trkpt lat="42.0564767" lon="-8.0278567"><ele>1026.0</ele><time>2026-04-18T09:42:55.783Z</time></trkpt><trkpt lat="42.05641" lon="-8.0277467"><ele>1026.0</ele><time>2026-04-18T09:42:56.785Z</time></trkpt><trkpt lat="42.056335" lon="-8.0276467"><ele>1026.0</ele><time>2026-04-18T09:42:57.783Z</time></trkpt><trkpt lat="42.0562567" lon="-8.02757"><ele>1026.0</ele><time>2026-04-18T09:42:58.783Z</time></trkpt><trkpt lat="42.0561667" lon="-8.02752"><ele>1026.0</ele><time>2026-04-18T09:42:59.783Z</time></trkpt><trkpt lat="42.0560733" lon="-8.0274867"><ele>1026.0</ele><time>2026-04-18T09:43:00.783Z</time></trkpt><trkpt lat="42.0559667" lon="-8.0274483"><ele>1026.0</ele><time>2026-04-18T09:43:01.784Z</time></trkpt><trkpt lat="42.05586" lon="-8.0274183"><ele>1026.0</ele><time>2026-04-18T09:43:02.785Z</time></trkpt><trkpt lat="42.055765" lon="-8.0273967"><ele>1026.0</ele><time>2026-04-18T09:43:03.783Z</time></trkpt><trkpt lat="42.0556867" lon="-8.0273817"><ele>1023.4</ele><time>2026-04-18T09:43:04.782Z</time></trkpt><trkpt lat="42.0556033" lon="-8.0273767"><ele>1020.8</ele><time>2026-04-18T09:43:05.783Z</time></trkpt><trkpt lat="42.0555117" lon="-8.0273667"><ele>1018.1999999999999</ele><time>2026-04-18T09:43:06.785Z</time></trkpt><trkpt lat="42.055415" lon="-8.027355"><ele>1015.5999999999999</ele><time>2026-04-18T09:43:07.783Z</time></trkpt><trkpt lat="42.0553233" lon="-8.0273317"><ele>1013.0</ele><time>2026-04-18T09:43:08.783Z</time></trkpt><trkpt lat="42.0552317" lon="-8.027305"><ele>1013.0</ele><time>2026-04-18T09:43:09.783Z</time></trkpt><trkpt lat="42.0551367" lon="-8.0272683"><ele>1013.0</ele><time>2026-04-18T09:43:10.783Z</time></trkpt><trkpt lat="42.0550417" lon="-8.0272283"><ele>1013.0</ele><time>2026-04-18T09:43:11.783Z</time></trkpt><trkpt lat="42.0549467" lon="-8.0271783"><ele>1013.0</ele><time>2026-04-18T09:43:12.782Z</time></trkpt><trkpt lat="42.0548583" lon="-8.0271367"><ele>1013.0</ele><time>2026-04-18T09:43:13.783Z</time></trkpt><trkpt lat="42.0547717" lon="-8.0271117"><ele>1013.0000000000001</ele><time>2026-04-18T09:43:14.784Z</time></trkpt><trkpt lat="42.0546933" lon="-8.02709"><ele>1013.0</ele><time>2026-04-18T09:43:15.782Z</time></trkpt><trkpt lat="42.0545883" lon="-8.0270217"><ele>1013.0</ele><time>2026-04-18T09:43:17.784Z</time></trkpt><trkpt lat="42.0545233" lon="-8.0269333"><ele>1013.0</ele><time>2026-04-18T09:43:19.783Z</time></trkpt><trkpt lat="42.0545267" lon="-8.0268317"><ele>1013.0000000000001</ele><time>2026-04-18T09:43:21.784Z</time></trkpt><trkpt lat="42.05453" lon="-8.026745"><ele>1013.0</ele><time>2026-04-18T09:43:22.784Z</time></trkpt><trkpt lat="42.0545383" lon="-8.02663"><ele>1013.0</ele><time>2026-04-18T09:43:24.786Z</time></trkpt><trkpt lat="42.05451" lon="-8.026475"><ele>1013.0</ele><time>2026-04-18T09:43:26.784Z</time></trkpt><trkpt lat="42.0545217" lon="-8.0263333"><ele>1013.0</ele><time>2026-04-18T09:43:28.784Z</time></trkpt><trkpt lat="42.054525" lon="-8.0262"><ele>1013.0</ele><time>2026-04-18T09:43:30.783Z</time></trkpt><trkpt lat="42.0545083" lon="-8.0260383"><ele>1013.0</ele><time>2026-04-18T09:43:32.783Z</time></trkpt><trkpt lat="42.0545067" lon="-8.0259517"><ele>1013.5000000000001</ele><time>2026-04-18T09:43:33.783Z</time></trkpt><trkpt lat="42.0545083" lon="-8.0257967"><ele>1014.0</ele><time>2026-04-18T09:43:35.783Z</time></trkpt><trkpt lat="42.05452" lon="-8.0257067"><ele>1014.5</ele><time>2026-04-18T09:43:36.784Z</time></trkpt><trkpt lat="42.0545283" lon="-8.025605"><ele>1015.0</ele><time>2026-04-18T09:43:37.782Z</time></trkpt><trkpt lat="42.054525" lon="-8.02552"><ele>1015.5000000000001</ele><time>2026-04-18T09:43:38.784Z</time></trkpt><trkpt lat="42.054515" lon="-8.02542"><ele>1016.0</ele><time>2026-04-18T09:43:39.783Z</time></trkpt><trkpt lat="42.0545033" lon="-8.0253217"><ele>1016.0000000000001</ele><time>2026-04-18T09:43:40.783Z</time></trkpt><trkpt lat="42.0544917" lon="-8.025225"><ele>1016.0</ele><time>2026-04-18T09:43:41.784Z</time></trkpt><trkpt lat="42.0545067" lon="-8.02512"><ele>1016.0</ele><time>2026-04-18T09:43:42.786Z</time></trkpt><trkpt lat="42.05452" lon="-8.0250367"><ele>1016.0</ele><time>2026-04-18T09:43:43.784Z</time></trkpt><trkpt lat="42.0545433" lon="-8.0249533"><ele>1016.0000000000001</ele><time>2026-04-18T09:43:44.785Z</time></trkpt><trkpt lat="42.054555" lon="-8.02485"><ele>1016.0</ele><time>2026-04-18T09:43:45.784Z</time></trkpt><trkpt lat="42.054565" lon="-8.024715"><ele>1018.1999999999999</ele><time>2026-04-18T09:43:46.783Z</time></trkpt><trkpt lat="42.054575" lon="-8.0245967"><ele>1020.3999999999999</ele><time>2026-04-18T09:43:47.783Z</time></trkpt><trkpt lat="42.0545933" lon="-8.0244683"><ele>1022.6</ele><time>2026-04-18T09:43:48.783Z</time></trkpt><trkpt lat="42.0546167" lon="-8.02435"><ele>1024.8</ele><time>2026-04-18T09:43:49.784Z</time></trkpt><trkpt lat="42.0546517" lon="-8.0242017"><ele>1027.0</ele><time>2026-04-18T09:43:50.783Z</time></trkpt><trkpt lat="42.054675" lon="-8.0240567"><ele>1028.0</ele><time>2026-04-18T09:43:51.783Z</time></trkpt><trkpt lat="42.0547967" lon="-8.0237767"><ele>1029.0</ele><time>2026-04-18T09:43:52.783Z</time></trkpt><trkpt lat="42.05484" lon="-8.0236333"><ele>1030.0</ele><time>2026-04-18T09:43:53.784Z</time></trkpt><trkpt lat="42.0548683" lon="-8.023505"><ele>1030.0</ele><time>2026-04-18T09:43:54.784Z</time></trkpt><trkpt lat="42.054885" lon="-8.02339"><ele>1030.0</ele><time>2026-04-18T09:43:55.783Z</time></trkpt><trkpt lat="42.0548817" lon="-8.023275"><ele>1030.0</ele><time>2026-04-18T09:43:56.785Z</time></trkpt><trkpt lat="42.0548567" lon="-8.0231583"><ele>1030.0</ele><time>2026-04-18T09:43:57.784Z</time></trkpt><trkpt lat="42.0548267" lon="-8.0230483"><ele>1030.0</ele><time>2026-04-18T09:43:58.784Z</time></trkpt><trkpt lat="42.054785" lon="-8.0229333"><ele>1030.0</ele><time>2026-04-18T09:43:59.783Z</time></trkpt><trkpt lat="42.0547217" lon="-8.0228267"><ele>1028.8</ele><time>2026-04-18T09:44:00.785Z</time></trkpt><trkpt lat="42.0546583" lon="-8.0227267"><ele>1027.6</ele><time>2026-04-18T09:44:01.783Z</time></trkpt><trkpt lat="42.0546" lon="-8.0226267"><ele>1026.4</ele><time>2026-04-18T09:44:02.784Z</time></trkpt><trkpt lat="42.0545433" lon="-8.0225233"><ele>1025.2</ele><time>2026-04-18T09:44:03.783Z</time></trkpt><trkpt lat="42.054485" lon="-8.0224133"><ele>1024.0</ele><time>2026-04-18T09:44:04.783Z</time></trkpt><trkpt lat="42.0544333" lon="-8.022285"><ele>1021.6</ele><time>2026-04-18T09:44:05.783Z</time></trkpt><trkpt lat="42.05438" lon="-8.0221533"><ele>1019.2</ele><time>2026-04-18T09:44:06.784Z</time></trkpt><trkpt lat="42.0543233" lon="-8.022025"><ele>1016.8000000000001</ele><time>2026-04-18T09:44:07.785Z</time></trkpt><trkpt lat="42.0542617" lon="-8.0219017"><ele>1014.4000000000001</ele><time>2026-04-18T09:44:08.786Z</time></trkpt><trkpt lat="42.0542017" lon="-8.0217883"><ele>1012.0</ele><time>2026-04-18T09:44:09.784Z</time></trkpt><trkpt lat="42.05413" lon="-8.0216633"><ele>1010.3333333333333</ele><time>2026-04-18T09:44:10.783Z</time></trkpt><trkpt lat="42.05405" lon="-8.0215067"><ele>1008.6666666666667</ele><time>2026-04-18T09:44:11.784Z</time></trkpt><trkpt lat="42.0539483" lon="-8.0213217"><ele>1007.0</ele><time>2026-04-18T09:44:12.784Z</time></trkpt><trkpt lat="42.0538783" lon="-8.0211533"><ele>1007.0</ele><time>2026-04-18T09:44:13.783Z</time></trkpt><trkpt lat="42.0538167" lon="-8.0209917"><ele>1007.0</ele><time>2026-04-18T09:44:14.784Z</time></trkpt><trkpt lat="42.0537417" lon="-8.0208267"><ele>1007.0</ele><time>2026-04-18T09:44:15.784Z</time></trkpt><trkpt lat="42.0536733" lon="-8.02068"><ele>1007.0</ele><time>2026-04-18T09:44:16.784Z</time></trkpt><trkpt lat="42.0536283" lon="-8.0205817"><ele>1005.2</ele><time>2026-04-18T09:44:17.784Z</time></trkpt><trkpt lat="42.0535433" lon="-8.020475"><ele>1003.4000000000001</ele><time>2026-04-18T09:44:19.784Z</time></trkpt><trkpt lat="42.05346" lon="-8.02042"><ele>1001.5999999999999</ele><time>2026-04-18T09:44:21.783Z</time></trkpt><trkpt lat="42.0533767" lon="-8.020435"><ele>999.8</ele><time>2026-04-18T09:44:23.783Z</time></trkpt><trkpt lat="42.053285" lon="-8.0205517"><ele>998.0</ele><time>2026-04-18T09:44:25.784Z</time></trkpt><trkpt lat="42.0532183" lon="-8.02065"><ele>998.0</ele><time>2026-04-18T09:44:26.783Z</time></trkpt><trkpt lat="42.0531267" lon="-8.02076"><ele>998.0</ele><time>2026-04-18T09:44:27.783Z</time></trkpt><trkpt lat="42.05303" lon="-8.0208567"><ele>998.0</ele><time>2026-04-18T09:44:28.783Z</time></trkpt><trkpt lat="42.0529517" lon="-8.020955"><ele>998.0</ele><time>2026-04-18T09:44:29.784Z</time></trkpt><trkpt lat="42.0528883" lon="-8.0210633"><ele>1000.4</ele><time>2026-04-18T09:44:30.784Z</time></trkpt><trkpt lat="42.05283" lon="-8.0211583"><ele>1002.8</ele><time>2026-04-18T09:44:31.783Z</time></trkpt><trkpt lat="42.0527567" lon="-8.0212367"><ele>1005.2</ele><time>2026-04-18T09:44:32.784Z</time></trkpt><trkpt lat="42.0526717" lon="-8.021305"><ele>1007.6</ele><time>2026-04-18T09:44:33.784Z</time></trkpt><trkpt lat="42.0525833" lon="-8.0213817"><ele>1010.0</ele><time>2026-04-18T09:44:34.783Z</time></trkpt><trkpt lat="42.052495" lon="-8.0214583"><ele>1009.2</ele><time>2026-04-18T09:44:35.783Z</time></trkpt><trkpt lat="42.0523983" lon="-8.02153"><ele>1008.4</ele><time>2026-04-18T09:44:36.784Z</time></trkpt><trkpt lat="42.0523067" lon="-8.0216067"><ele>1007.5999999999999</ele><time>2026-04-18T09:44:37.783Z</time></trkpt><trkpt lat="42.0522317" lon="-8.02169"><ele>1006.8</ele><time>2026-04-18T09:44:38.784Z</time></trkpt><trkpt lat="42.052165" lon="-8.0217817"><ele>1006.0</ele><time>2026-04-18T09:44:39.784Z</time></trkpt><trkpt lat="42.0521083" lon="-8.0218917"><ele>1008.0</ele><time>2026-04-18T09:44:40.783Z</time></trkpt><trkpt lat="42.0520633" lon="-8.0220117"><ele>1009.9999999999999</ele><time>2026-04-18T09:44:41.784Z</time></trkpt><trkpt lat="42.0520333" lon="-8.0221283"><ele>1011.9999999999999</ele><time>2026-04-18T09:44:42.784Z</time></trkpt><trkpt lat="42.0520017" lon="-8.0222567"><ele>1014.0</ele><time>2026-04-18T09:44:43.784Z</time></trkpt><trkpt lat="42.0519467" lon="-8.0223733"><ele>1016.0</ele><time>2026-04-18T09:44:44.785Z</time></trkpt><trkpt lat="42.0518683" lon="-8.0224833"><ele>1018.75</ele><time>2026-04-18T09:44:45.783Z</time></trkpt><trkpt lat="42.0517617" lon="-8.0225867"><ele>1021.5</ele><time>2026-04-18T09:44:46.783Z</time></trkpt><trkpt lat="42.05167" lon="-8.0226717"><ele>1024.25</ele><time>2026-04-18T09:44:47.785Z</time></trkpt><trkpt lat="42.0515867" lon="-8.0227567"><ele>1027.0</ele><time>2026-04-18T09:44:48.784Z</time></trkpt><trkpt lat="42.051505" lon="-8.0228433"><ele>1027.0</ele><time>2026-04-18T09:44:49.783Z</time></trkpt><trkpt lat="42.0514367" lon="-8.0229283"><ele>1027.0</ele><time>2026-04-18T09:44:50.783Z</time></trkpt><trkpt lat="42.0513933" lon="-8.02303"><ele>1027.0</ele><time>2026-04-18T09:44:51.783Z</time></trkpt><trkpt lat="42.0513667" lon="-8.0231367"><ele>1027.0</ele><time>2026-04-18T09:44:52.783Z</time></trkpt><trkpt lat="42.0513483" lon="-8.0232567"><ele>1027.0</ele><time>2026-04-18T09:44:53.783Z</time></trkpt><trkpt lat="42.0513383" lon="-8.0233917"><ele>1029.75</ele><time>2026-04-18T09:44:54.783Z</time></trkpt><trkpt lat="42.0513217" lon="-8.0235433"><ele>1032.5</ele><time>2026-04-18T09:44:55.783Z</time></trkpt><trkpt lat="42.0513017" lon="-8.0236967"><ele>1035.25</ele><time>2026-04-18T09:44:56.783Z</time></trkpt><trkpt lat="42.051265" lon="-8.0238533"><ele>1038.0</ele><time>2026-04-18T09:44:57.784Z</time></trkpt><trkpt lat="42.05122" lon="-8.0240083"><ele>1037.75</ele><time>2026-04-18T09:44:58.783Z</time></trkpt><trkpt lat="42.05116" lon="-8.02417"><ele>1037.5</ele><time>2026-04-18T09:44:59.783Z</time></trkpt><trkpt lat="42.0510967" lon="-8.024325"><ele>1037.25</ele><time>2026-04-18T09:45:00.783Z</time></trkpt><trkpt lat="42.0510383" lon="-8.02448"><ele>1037.0</ele><time>2026-04-18T09:45:01.784Z</time></trkpt><trkpt lat="42.0509817" lon="-8.0246217"><ele>1037.0</ele><time>2026-04-18T09:45:02.783Z</time></trkpt><trkpt lat="42.05092" lon="-8.0247583"><ele>1037.0</ele><time>2026-04-18T09:45:03.783Z</time></trkpt><trkpt lat="42.0508467" lon="-8.0248767"><ele>1037.0</ele><time>2026-04-18T09:45:04.783Z</time></trkpt><trkpt lat="42.0507517" lon="-8.024985"><ele>1037.0</ele><time>2026-04-18T09:45:05.784Z</time></trkpt><trkpt lat="42.0506383" lon="-8.0250833"><ele>1036.6</ele><time>2026-04-18T09:45:06.786Z</time></trkpt><trkpt lat="42.0505433" lon="-8.0251733"><ele>1036.2</ele><time>2026-04-18T09:45:07.783Z</time></trkpt><trkpt lat="42.050455" lon="-8.0252667"><ele>1035.8</ele><time>2026-04-18T09:45:08.784Z</time></trkpt><trkpt lat="42.050385" lon="-8.0253567"><ele>1035.4</ele><time>2026-04-18T09:45:09.783Z</time></trkpt><trkpt lat="42.0503417" lon="-8.025465"><ele>1035.0</ele><time>2026-04-18T09:45:10.783Z</time></trkpt><trkpt lat="42.0503367" lon="-8.0255817"><ele>1035.0</ele><time>2026-04-18T09:45:11.784Z</time></trkpt><trkpt lat="42.05033" lon="-8.0257017"><ele>1035.0</ele><time>2026-04-18T09:45:12.785Z</time></trkpt><trkpt lat="42.050335" lon="-8.025815"><ele>1035.0</ele><time>2026-04-18T09:45:13.783Z</time></trkpt><trkpt lat="42.0503733" lon="-8.0259633"><ele>1035.0</ele><time>2026-04-18T09:45:14.783Z</time></trkpt><trkpt lat="42.0503983" lon="-8.0261067"><ele>1035.0</ele><time>2026-04-18T09:45:15.783Z</time></trkpt><trkpt lat="42.05044" lon="-8.0262583"><ele>1035.75</ele><time>2026-04-18T09:45:16.784Z</time></trkpt><trkpt lat="42.050495" lon="-8.0264017"><ele>1036.5</ele><time>2026-04-18T09:45:17.783Z</time></trkpt><trkpt lat="42.05056" lon="-8.0265517"><ele>1037.25</ele><time>2026-04-18T09:45:18.784Z</time></trkpt><trkpt lat="42.0506233" lon="-8.0266867"><ele>1038.0</ele><time>2026-04-18T09:45:19.783Z</time></trkpt><trkpt lat="42.050695" lon="-8.0268017"><ele>1039.0</ele><time>2026-04-18T09:45:20.784Z</time></trkpt><trkpt lat="42.0507633" lon="-8.0269"><ele>1040.0</ele><time>2026-04-18T09:45:21.784Z</time></trkpt><trkpt lat="42.0508417" lon="-8.0269817"><ele>1041.0</ele><time>2026-04-18T09:45:22.783Z</time></trkpt><trkpt lat="42.0509317" lon="-8.0270533"><ele>1042.0</ele><time>2026-04-18T09:45:23.783Z</time></trkpt><trkpt lat="42.051025" lon="-8.02713"><ele>1043.0</ele><time>2026-04-18T09:45:24.784Z</time></trkpt><trkpt lat="42.0511067" lon="-8.0271783"><ele>1043.0</ele><time>2026-04-18T09:45:25.783Z</time></trkpt><trkpt lat="42.0511883" lon="-8.02722"><ele>1043.0</ele><time>2026-04-18T09:45:26.786Z</time></trkpt><trkpt lat="42.0512767" lon="-8.0272417"><ele>1043.0</ele><time>2026-04-18T09:45:27.783Z</time></trkpt><trkpt lat="42.0513783" lon="-8.0272517"><ele>1043.0</ele><time>2026-04-18T09:45:28.784Z</time></trkpt><trkpt lat="42.0514883" lon="-8.0272483"><ele>1043.0</ele><time>2026-04-18T09:45:29.783Z</time></trkpt><trkpt lat="42.0516083" lon="-8.02725"><ele>1041.5</ele><time>2026-04-18T09:45:30.786Z</time></trkpt><trkpt lat="42.0517483" lon="-8.0272583"><ele>1040.0</ele><time>2026-04-18T09:45:31.783Z</time></trkpt><trkpt lat="42.0518883" lon="-8.027285"><ele>1038.5</ele><time>2026-04-18T09:45:32.783Z</time></trkpt><trkpt lat="42.0520367" lon="-8.027325"><ele>1037.0</ele><time>2026-04-18T09:45:33.783Z</time></trkpt><trkpt lat="42.05217" lon="-8.0273767"><ele>1037.0</ele><time>2026-04-18T09:45:34.783Z</time></trkpt><trkpt lat="42.05229" lon="-8.0274333"><ele>1037.0</ele><time>2026-04-18T09:45:35.783Z</time></trkpt><trkpt lat="42.052395" lon="-8.0275017"><ele>1037.0</ele><time>2026-04-18T09:45:36.784Z</time></trkpt><trkpt lat="42.052495" lon="-8.0275867"><ele>1037.0</ele><time>2026-04-18T09:45:37.784Z</time></trkpt><trkpt lat="42.0525867" lon="-8.0276833"><ele>1038.3333333333335</ele><time>2026-04-18T09:45:38.784Z</time></trkpt><trkpt lat="42.05266" lon="-8.027785"><ele>1039.6666666666667</ele><time>2026-04-18T09:45:39.783Z</time></trkpt><trkpt lat="42.05271" lon="-8.0278767"><ele>1041.0</ele><time>2026-04-18T09:45:40.786Z</time></trkpt><trkpt lat="42.0527433" lon="-8.02796"><ele>1042.3333333333333</ele><time>2026-04-18T09:45:41.784Z</time></trkpt><trkpt lat="42.05277" lon="-8.0280633"><ele>1043.6666666666665</ele><time>2026-04-18T09:45:42.784Z</time></trkpt><trkpt lat="42.0527833" lon="-8.0281867"><ele>1045.0</ele><time>2026-04-18T09:45:43.784Z</time></trkpt><trkpt lat="42.0527917" lon="-8.02829"><ele>1047.0</ele><time>2026-04-18T09:45:44.787Z</time></trkpt><trkpt lat="42.0528" lon="-8.02841"><ele>1049.0</ele><time>2026-04-18T09:45:45.783Z</time></trkpt><trkpt lat="42.0528067" lon="-8.0285617"><ele>1051.0</ele><time>2026-04-18T09:45:46.783Z</time></trkpt><trkpt lat="42.05283" lon="-8.0287017"><ele>1053.0</ele><time>2026-04-18T09:45:47.784Z</time></trkpt><trkpt lat="42.0528717" lon="-8.028855"><ele>1055.0</ele><time>2026-04-18T09:45:48.784Z</time></trkpt><trkpt lat="42.0529233" lon="-8.0290083"><ele>1056.25</ele><time>2026-04-18T09:45:49.784Z</time></trkpt><trkpt lat="42.0529817" lon="-8.0291567"><ele>1057.5</ele><time>2026-04-18T09:45:50.784Z</time></trkpt><trkpt lat="42.0530383" lon="-8.0292883"><ele>1058.75</ele><time>2026-04-18T09:45:51.784Z</time></trkpt><trkpt lat="42.0530767" lon="-8.0294333"><ele>1060.0</ele><time>2026-04-18T09:45:52.784Z</time></trkpt><trkpt lat="42.05308" lon="-8.0296083"><ele>1060.0</ele><time>2026-04-18T09:45:53.783Z</time></trkpt><trkpt lat="42.0530733" lon="-8.0297933"><ele>1060.0</ele><time>2026-04-18T09:45:54.786Z</time></trkpt><trkpt lat="42.05306" lon="-8.02996"><ele>1060.0</ele><time>2026-04-18T09:45:55.783Z</time></trkpt><trkpt lat="42.0530367" lon="-8.0301367"><ele>1060.0</ele><time>2026-04-18T09:45:56.784Z</time></trkpt><trkpt lat="42.053005" lon="-8.0303083"><ele>1060.75</ele><time>2026-04-18T09:45:57.783Z</time></trkpt><trkpt lat="42.0529733" lon="-8.03047"><ele>1061.5</ele><time>2026-04-18T09:45:58.783Z</time></trkpt><trkpt lat="42.0529417" lon="-8.0306483"><ele>1062.25</ele><time>2026-04-18T09:45:59.784Z</time></trkpt><trkpt lat="42.0529133" lon="-8.0308133"><ele>1063.0</ele><time>2026-04-18T09:46:00.784Z</time></trkpt><trkpt lat="42.0528933" lon="-8.03097"><ele>1063.2</ele><time>2026-04-18T09:46:01.783Z</time></trkpt><trkpt lat="42.05288" lon="-8.031115"><ele>1063.4</ele><time>2026-04-18T09:46:02.785Z</time></trkpt><trkpt lat="42.0529017" lon="-8.031245"><ele>1063.6000000000001</ele><time>2026-04-18T09:46:03.783Z</time></trkpt><trkpt lat="42.0529067" lon="-8.0314083"><ele>1063.8</ele><time>2026-04-18T09:46:04.784Z</time></trkpt><trkpt lat="42.0529333" lon="-8.0315583"><ele>1064.0</ele><time>2026-04-18T09:46:05.785Z</time></trkpt><trkpt lat="42.05297" lon="-8.0317"><ele>1064.0</ele><time>2026-04-18T09:46:06.784Z</time></trkpt><trkpt lat="42.0530083" lon="-8.0318417"><ele>1064.0</ele><time>2026-04-18T09:46:07.785Z</time></trkpt><trkpt lat="42.053045" lon="-8.0319633"><ele>1064.0</ele><time>2026-04-18T09:46:08.783Z</time></trkpt><trkpt lat="42.0530783" lon="-8.0320533"><ele>1064.0</ele><time>2026-04-18T09:46:09.783Z</time></trkpt><trkpt lat="42.053105" lon="-8.0321317"><ele>1064.0</ele><time>2026-04-18T09:46:10.784Z</time></trkpt><trkpt lat="42.05313" lon="-8.032245"><ele>1064.0</ele><time>2026-04-18T09:46:12.787Z</time></trkpt><trkpt lat="42.0531017" lon="-8.0323483"><ele>1064.0</ele><time>2026-04-18T09:46:14.786Z</time></trkpt><trkpt lat="42.0529983" lon="-8.0324667"><ele>1064.0</ele><time>2026-04-18T09:46:16.788Z</time></trkpt><trkpt lat="42.0529367" lon="-8.03254"><ele>1064.0</ele><time>2026-04-18T09:46:17.784Z</time></trkpt><trkpt lat="42.05287" lon="-8.0326317"><ele>1064.0</ele><time>2026-04-18T09:46:18.784Z</time></trkpt><trkpt lat="42.05279" lon="-8.0327233"><ele>1064.0</ele><time>2026-04-18T09:46:19.785Z</time></trkpt><trkpt lat="42.0527117" lon="-8.0328"><ele>1065.3333333333335</ele><time>2026-04-18T09:46:20.785Z</time></trkpt><trkpt lat="42.0526267" lon="-8.0328583"><ele>1066.6666666666667</ele><time>2026-04-18T09:46:21.784Z</time></trkpt><trkpt lat="42.0525433" lon="-8.0329017"><ele>1068.0</ele><time>2026-04-18T09:46:22.785Z</time></trkpt><trkpt lat="42.05246" lon="-8.0329217"><ele>1069.3333333333333</ele><time>2026-04-18T09:46:23.784Z</time></trkpt><trkpt lat="42.05237" lon="-8.0329233"><ele>1070.6666666666665</ele><time>2026-04-18T09:46:24.784Z</time></trkpt><trkpt lat="42.0522817" lon="-8.032925"><ele>1072.0</ele><time>2026-04-18T09:46:25.786Z</time></trkpt><trkpt lat="42.0521933" lon="-8.032915"><ele>1073.1666666666665</ele><time>2026-04-18T09:46:26.787Z</time></trkpt><trkpt lat="42.0521183" lon="-8.032895"><ele>1074.3333333333333</ele><time>2026-04-18T09:46:27.784Z</time></trkpt><trkpt lat="42.052045" lon="-8.0328867"><ele>1075.5</ele><time>2026-04-18T09:46:28.783Z</time></trkpt><trkpt lat="42.051965" lon="-8.0328867"><ele>1076.6666666666667</ele><time>2026-04-18T09:46:29.783Z</time></trkpt><trkpt lat="42.0518817" lon="-8.0328933"><ele>1077.8333333333335</ele><time>2026-04-18T09:46:30.783Z</time></trkpt><trkpt lat="42.0517933" lon="-8.0329017"><ele>1079.0</ele><time>2026-04-18T09:46:31.784Z</time></trkpt><trkpt lat="42.0517" lon="-8.032895"><ele>1080.3333333333335</ele><time>2026-04-18T09:46:32.784Z</time></trkpt><trkpt lat="42.05162" lon="-8.03288"><ele>1081.6666666666667</ele><time>2026-04-18T09:46:33.786Z</time></trkpt><trkpt lat="42.05154" lon="-8.032855"><ele>1083.0</ele><time>2026-04-18T09:46:34.783Z</time></trkpt><trkpt lat="42.0514567" lon="-8.032835"><ele>1084.3333333333333</ele><time>2026-04-18T09:46:35.784Z</time></trkpt><trkpt lat="42.0513617" lon="-8.03283"><ele>1085.6666666666665</ele><time>2026-04-18T09:46:36.784Z</time></trkpt><trkpt lat="42.0512633" lon="-8.0328317"><ele>1087.0</ele><time>2026-04-18T09:46:37.784Z</time></trkpt><trkpt lat="42.0511617" lon="-8.03284"><ele>1087.0</ele><time>2026-04-18T09:46:38.786Z</time></trkpt><trkpt lat="42.0510567" lon="-8.0328567"><ele>1087.0</ele><time>2026-04-18T09:46:39.783Z</time></trkpt><trkpt lat="42.0509583" lon="-8.032885"><ele>1087.0</ele><time>2026-04-18T09:46:40.783Z</time></trkpt><trkpt lat="42.0508533" lon="-8.0329267"><ele>1087.0</ele><time>2026-04-18T09:46:41.783Z</time></trkpt><trkpt lat="42.0507367" lon="-8.032975"><ele>1087.0</ele><time>2026-04-18T09:46:42.785Z</time></trkpt><trkpt lat="42.050625" lon="-8.0330183"><ele>1088.0</ele><time>2026-04-18T09:46:43.783Z</time></trkpt><trkpt lat="42.0505283" lon="-8.0330533"><ele>1089.0</ele><time>2026-04-18T09:46:44.783Z</time></trkpt><trkpt lat="42.0504483" lon="-8.0330867"><ele>1090.0</ele><time>2026-04-18T09:46:45.784Z</time></trkpt><trkpt lat="42.0503717" lon="-8.03312"><ele>1091.0</ele><time>2026-04-18T09:46:46.784Z</time></trkpt><trkpt lat="42.0502917" lon="-8.0331483"><ele>1092.0</ele><time>2026-04-18T09:46:47.783Z</time></trkpt><trkpt lat="42.0502118" lon="-8.0331746"><ele>1093.0</ele><time>2026-04-18T09:46:48.784Z</time></trkpt><trkpt lat="42.0501389" lon="-8.0332039"><ele>1093.0</ele><time>2026-04-18T09:46:49.784Z</time></trkpt><trkpt lat="42.0500683" lon="-8.0332349"><ele>1093.0</ele><time>2026-04-18T09:46:50.784Z</time></trkpt><trkpt lat="42.0499963" lon="-8.033277"><ele>1093.0</ele><time>2026-04-18T09:46:51.784Z</time></trkpt><trkpt lat="42.0499136" lon="-8.0333247"><ele>1093.0</ele><time>2026-04-18T09:46:52.784Z</time></trkpt><trkpt lat="42.0498186" lon="-8.0333795"><ele>1093.0</ele><time>2026-04-18T09:46:53.783Z</time></trkpt><trkpt lat="42.0497205" lon="-8.0334452"><ele>1092.0</ele><time>2026-04-18T09:46:54.784Z</time></trkpt><trkpt lat="42.0496189" lon="-8.0335146"><ele>1091.0</ele><time>2026-04-18T09:46:55.784Z</time></trkpt><trkpt lat="42.0495136" lon="-8.0335855"><ele>1090.0</ele><time>2026-04-18T09:46:56.784Z</time></trkpt><trkpt lat="42.0494048" lon="-8.0336559"><ele>1089.0</ele><time>2026-04-18T09:46:57.783Z</time></trkpt><trkpt lat="42.0492932" lon="-8.0337251"><ele>1089.0</ele><time>2026-04-18T09:46:58.783Z</time></trkpt><trkpt lat="42.0491705" lon="-8.0337733"><ele>1089.0</ele><time>2026-04-18T09:46:59.785Z</time></trkpt><trkpt lat="42.0490551" lon="-8.0338169"><ele>1089.0</ele><time>2026-04-18T09:47:00.784Z</time></trkpt><trkpt lat="42.0489617" lon="-8.0338688"><ele>1089.0</ele><time>2026-04-18T09:47:01.784Z</time></trkpt><trkpt lat="42.0488869" lon="-8.033933"><ele>1089.0</ele><time>2026-04-18T09:47:02.784Z</time></trkpt><trkpt lat="42.0488239" lon="-8.0340066"><ele>1089.0</ele><time>2026-04-18T09:47:03.784Z</time></trkpt><trkpt lat="42.0487597" lon="-8.0340745"><ele>1089.0</ele><time>2026-04-18T09:47:04.783Z</time></trkpt><trkpt lat="42.0486876" lon="-8.0341426"><ele>1089.0</ele><time>2026-04-18T09:47:05.784Z</time></trkpt><trkpt lat="42.0486154" lon="-8.0342154"><ele>1089.0</ele><time>2026-04-18T09:47:06.785Z</time></trkpt><trkpt lat="42.0485413" lon="-8.0342933"><ele>1089.0</ele><time>2026-04-18T09:47:07.785Z</time></trkpt><trkpt lat="42.0484735" lon="-8.034385"><ele>1089.0</ele><time>2026-04-18T09:47:08.783Z</time></trkpt><trkpt lat="42.048395" lon="-8.034496"><ele>1089.0</ele><time>2026-04-18T09:47:09.783Z</time></trkpt><trkpt lat="42.0483079" lon="-8.0346244"><ele>1089.0</ele><time>2026-04-18T09:47:10.785Z</time></trkpt><trkpt lat="42.0482221" lon="-8.0347502"><ele>1089.0</ele><time>2026-04-18T09:47:11.785Z</time></trkpt><trkpt lat="42.0481501" lon="-8.0348665"><ele>1087.8</ele><time>2026-04-18T09:47:12.784Z</time></trkpt><trkpt lat="42.0480836" lon="-8.0349619"><ele>1086.6000000000001</ele><time>2026-04-18T09:47:13.784Z</time></trkpt><trkpt lat="42.0480123" lon="-8.0350548"><ele>1085.4</ele><time>2026-04-18T09:47:14.785Z</time></trkpt><trkpt lat="42.0479331" lon="-8.0351469"><ele>1084.2</ele><time>2026-04-18T09:47:15.784Z</time></trkpt><trkpt lat="42.0478554" lon="-8.0352314"><ele>1083.0</ele><time>2026-04-18T09:47:16.783Z</time></trkpt><trkpt lat="42.0477789" lon="-8.0353018"><ele>1083.0</ele><time>2026-04-18T09:47:17.784Z</time></trkpt><trkpt lat="42.0477123" lon="-8.0353623"><ele>1083.0</ele><time>2026-04-18T09:47:18.784Z</time></trkpt><trkpt lat="42.0476497" lon="-8.035403"><ele>1083.0</ele><time>2026-04-18T09:47:19.783Z</time></trkpt><trkpt lat="42.047575" lon="-8.0354056"><ele>1083.0</ele><time>2026-04-18T09:47:20.784Z</time></trkpt><trkpt lat="42.0475051" lon="-8.0353616"><ele>1083.0</ele><time>2026-04-18T09:47:21.784Z</time></trkpt><trkpt lat="42.0474305" lon="-8.0352763"><ele>1083.0</ele><time>2026-04-18T09:47:22.783Z</time></trkpt><trkpt lat="42.0473571" lon="-8.0351555"><ele>1083.75</ele><time>2026-04-18T09:47:23.784Z</time></trkpt><trkpt lat="42.0472817" lon="-8.0349817"><ele>1084.5</ele><time>2026-04-18T09:47:24.785Z</time></trkpt><trkpt lat="42.0472183" lon="-8.0348617"><ele>1085.25</ele><time>2026-04-18T09:47:25.784Z</time></trkpt><trkpt lat="42.0471617" lon="-8.0347583"><ele>1086.0</ele><time>2026-04-18T09:47:26.784Z</time></trkpt><trkpt lat="42.047115" lon="-8.0346367"><ele>1084.3999999999999</ele><time>2026-04-18T09:47:27.785Z</time></trkpt><trkpt lat="42.0470633" lon="-8.0345283"><ele>1082.8</ele><time>2026-04-18T09:47:28.785Z</time></trkpt><trkpt lat="42.047" lon="-8.0344333"><ele>1081.1999999999998</ele><time>2026-04-18T09:47:29.783Z</time></trkpt><trkpt lat="42.0469267" lon="-8.034355"><ele>1079.6</ele><time>2026-04-18T09:47:30.785Z</time></trkpt><trkpt lat="42.046845" lon="-8.0343117"><ele>1078.0</ele><time>2026-04-18T09:47:31.783Z</time></trkpt><trkpt lat="42.0467567" lon="-8.0342933"><ele>1078.0</ele><time>2026-04-18T09:47:32.785Z</time></trkpt><trkpt lat="42.0466683" lon="-8.0342783"><ele>1078.0</ele><time>2026-04-18T09:47:33.783Z</time></trkpt><trkpt lat="42.04657" lon="-8.0342383"><ele>1078.0</ele><time>2026-04-18T09:47:34.784Z</time></trkpt><trkpt lat="42.0464683" lon="-8.0341667"><ele>1078.0</ele><time>2026-04-18T09:47:35.785Z</time></trkpt><trkpt lat="42.04637" lon="-8.03409"><ele>1078.0</ele><time>2026-04-18T09:47:36.784Z</time></trkpt><trkpt lat="42.04629" lon="-8.0340267"><ele>1077.3333333333333</ele><time>2026-04-18T09:47:37.783Z</time></trkpt><trkpt lat="42.0462067" lon="-8.0340017"><ele>1076.6666666666665</ele><time>2026-04-18T09:47:38.785Z</time></trkpt><trkpt lat="42.04613" lon="-8.033995"><ele>1076.0</ele><time>2026-04-18T09:47:39.783Z</time></trkpt><trkpt lat="42.0460617" lon="-8.0339867"><ele>1075.3333333333333</ele><time>2026-04-18T09:47:40.785Z</time></trkpt><trkpt lat="42.045995" lon="-8.033955"><ele>1074.6666666666667</ele><time>2026-04-18T09:47:41.783Z</time></trkpt><trkpt lat="42.045935" lon="-8.0339067"><ele>1074.0</ele><time>2026-04-18T09:47:42.784Z</time></trkpt><trkpt lat="42.0458733" lon="-8.0338317"><ele>1074.0</ele><time>2026-04-18T09:47:43.784Z</time></trkpt><trkpt lat="42.045815" lon="-8.033765"><ele>1074.0</ele><time>2026-04-18T09:47:44.784Z</time></trkpt><trkpt lat="42.0457517" lon="-8.0336967"><ele>1074.0</ele><time>2026-04-18T09:47:45.783Z</time></trkpt><trkpt lat="42.0456833" lon="-8.03363"><ele>1074.0</ele><time>2026-04-18T09:47:46.784Z</time></trkpt><trkpt lat="42.0456017" lon="-8.033575"><ele>1074.0</ele><time>2026-04-18T09:47:47.784Z</time></trkpt><trkpt lat="42.0455083" lon="-8.0335233"><ele>1074.0</ele><time>2026-04-18T09:47:48.784Z</time></trkpt><trkpt lat="42.04542" lon="-8.0334683"><ele>1073.8</ele><time>2026-04-18T09:47:49.785Z</time></trkpt><trkpt lat="42.0453383" lon="-8.033395"><ele>1073.6000000000001</ele><time>2026-04-18T09:47:50.784Z</time></trkpt><trkpt lat="42.0452567" lon="-8.033315"><ele>1073.4</ele><time>2026-04-18T09:47:51.784Z</time></trkpt><trkpt lat="42.0451667" lon="-8.0332533"><ele>1073.2</ele><time>2026-04-18T09:47:52.785Z</time></trkpt><trkpt lat="42.0450617" lon="-8.0332"><ele>1073.0</ele><time>2026-04-18T09:47:53.784Z</time></trkpt><trkpt lat="42.0449333" lon="-8.0331867"><ele>1073.0</ele><time>2026-04-18T09:47:54.784Z</time></trkpt><trkpt lat="42.04481" lon="-8.0331817"><ele>1073.0</ele><time>2026-04-18T09:47:55.784Z</time></trkpt><trkpt lat="42.0446983" lon="-8.0331717"><ele>1073.0</ele><time>2026-04-18T09:47:56.785Z</time></trkpt><trkpt lat="42.0446033" lon="-8.0331533"><ele>1073.0</ele><time>2026-04-18T09:47:57.784Z</time></trkpt><trkpt lat="42.0445133" lon="-8.0331317"><ele>1073.0</ele><time>2026-04-18T09:47:58.784Z</time></trkpt><trkpt lat="42.044415" lon="-8.03313"><ele>1073.0</ele><time>2026-04-18T09:47:59.783Z</time></trkpt><trkpt lat="42.0443" lon="-8.0331567"><ele>1073.0</ele><time>2026-04-18T09:48:00.785Z</time></trkpt><trkpt lat="42.0441717" lon="-8.0331867"><ele>1073.0</ele><time>2026-04-18T09:48:01.783Z</time></trkpt><trkpt lat="42.044055" lon="-8.03323"><ele>1073.0</ele><time>2026-04-18T09:48:02.785Z</time></trkpt><trkpt lat="42.043945" lon="-8.0332867"><ele>1075.75</ele><time>2026-04-18T09:48:03.784Z</time></trkpt><trkpt lat="42.0438317" lon="-8.0333517"><ele>1078.5</ele><time>2026-04-18T09:48:04.784Z</time></trkpt><trkpt lat="42.0437217" lon="-8.0334117"><ele>1081.25</ele><time>2026-04-18T09:48:05.783Z</time></trkpt><trkpt lat="42.0435917" lon="-8.0334417"><ele>1084.0</ele><time>2026-04-18T09:48:06.784Z</time></trkpt><trkpt lat="42.0434483" lon="-8.033445"><ele>1084.0</ele><time>2026-04-18T09:48:07.784Z</time></trkpt><trkpt lat="42.04331" lon="-8.0334367"><ele>1084.0</ele><time>2026-04-18T09:48:08.784Z</time></trkpt><trkpt lat="42.0431883" lon="-8.0334233"><ele>1084.0</ele><time>2026-04-18T09:48:09.785Z</time></trkpt><trkpt lat="42.0430883" lon="-8.0334217"><ele>1084.0</ele><time>2026-04-18T09:48:10.784Z</time></trkpt><trkpt lat="42.042995" lon="-8.0334317"><ele>1084.8</ele><time>2026-04-18T09:48:11.785Z</time></trkpt><trkpt lat="42.0429" lon="-8.033455"><ele>1085.6000000000001</ele><time>2026-04-18T09:48:12.784Z</time></trkpt><trkpt lat="42.042805" lon="-8.03348"><ele>1086.4</ele><time>2026-04-18T09:48:13.784Z</time></trkpt><trkpt lat="42.0426983" lon="-8.0334933"><ele>1087.2</ele><time>2026-04-18T09:48:14.785Z</time></trkpt><trkpt lat="42.0425817" lon="-8.0334783"><ele>1088.0</ele><time>2026-04-18T09:48:15.785Z</time></trkpt><trkpt lat="42.0424683" lon="-8.0334633"><ele>1089.4</ele><time>2026-04-18T09:48:16.784Z</time></trkpt><trkpt lat="42.0423667" lon="-8.0334467"><ele>1090.8</ele><time>2026-04-18T09:48:17.784Z</time></trkpt><trkpt lat="42.0422583" lon="-8.03342"><ele>1092.2</ele><time>2026-04-18T09:48:18.784Z</time></trkpt><trkpt lat="42.0421467" lon="-8.0333967"><ele>1093.6</ele><time>2026-04-18T09:48:19.784Z</time></trkpt><trkpt lat="42.0420383" lon="-8.0333667"><ele>1095.0</ele><time>2026-04-18T09:48:20.784Z</time></trkpt><trkpt lat="42.041945" lon="-8.0333167"><ele>1094.8</ele><time>2026-04-18T09:48:21.783Z</time></trkpt><trkpt lat="42.0418583" lon="-8.0332467"><ele>1094.6</ele><time>2026-04-18T09:48:22.784Z</time></trkpt><trkpt lat="42.0418" lon="-8.0331583"><ele>1094.4</ele><time>2026-04-18T09:48:23.784Z</time></trkpt><trkpt lat="42.0417633" lon="-8.0330467"><ele>1094.2</ele><time>2026-04-18T09:48:24.784Z</time></trkpt><trkpt lat="42.041745" lon="-8.0329033"><ele>1094.0</ele><time>2026-04-18T09:48:25.786Z</time></trkpt><trkpt lat="42.0417183" lon="-8.032735"><ele>1094.0</ele><time>2026-04-18T09:48:26.785Z</time></trkpt><trkpt lat="42.0416917" lon="-8.0325633"><ele>1094.0</ele><time>2026-04-18T09:48:27.783Z</time></trkpt><trkpt lat="42.0416583" lon="-8.032395"><ele>1094.0</ele><time>2026-04-18T09:48:28.784Z</time></trkpt><trkpt lat="42.04162" lon="-8.03223"><ele>1094.0</ele><time>2026-04-18T09:48:29.784Z</time></trkpt><trkpt lat="42.0415867" lon="-8.03207"><ele>1094.4</ele><time>2026-04-18T09:48:30.784Z</time></trkpt><trkpt lat="42.0415433" lon="-8.0319383"><ele>1094.8000000000002</ele><time>2026-04-18T09:48:31.783Z</time></trkpt><trkpt lat="42.041485" lon="-8.0318233"><ele>1095.1999999999998</ele><time>2026-04-18T09:48:32.783Z</time></trkpt><trkpt lat="42.0414167" lon="-8.031725"><ele>1095.6</ele><time>2026-04-18T09:48:33.784Z</time></trkpt><trkpt lat="42.0413283" lon="-8.0316517"><ele>1096.0</ele><time>2026-04-18T09:48:34.783Z</time></trkpt><trkpt lat="42.0412217" lon="-8.031585"><ele>1094.5</ele><time>2026-04-18T09:48:35.784Z</time></trkpt><trkpt lat="42.04109" lon="-8.0315333"><ele>1093.0</ele><time>2026-04-18T09:48:36.783Z</time></trkpt><trkpt lat="42.0409533" lon="-8.0315133"><ele>1091.5</ele><time>2026-04-18T09:48:37.783Z</time></trkpt><trkpt lat="42.0407983" lon="-8.0314983"><ele>1090.0</ele><time>2026-04-18T09:48:38.783Z</time></trkpt><trkpt lat="42.040635" lon="-8.03147"><ele>1090.0</ele><time>2026-04-18T09:48:39.784Z</time></trkpt><trkpt lat="42.0404883" lon="-8.0314317"><ele>1090.0</ele><time>2026-04-18T09:48:40.782Z</time></trkpt><trkpt lat="42.0403533" lon="-8.0314033"><ele>1090.0</ele><time>2026-04-18T09:48:41.782Z</time></trkpt><trkpt lat="42.0402283" lon="-8.0313867"><ele>1090.0</ele><time>2026-04-18T09:48:42.783Z</time></trkpt><trkpt lat="42.04012" lon="-8.03136"><ele>1090.0</ele><time>2026-04-18T09:48:43.783Z</time></trkpt><trkpt lat="42.0400367" lon="-8.0313433"><ele>1090.0</ele><time>2026-04-18T09:48:44.783Z</time></trkpt><trkpt lat="42.039975" lon="-8.0312517"><ele>1090.0</ele><time>2026-04-18T09:58:55.783Z</time></trkpt><trkpt lat="42.0399417" lon="-8.0311517"><ele>1090.0</ele><time>2026-04-18T09:58:57.785Z</time></trkpt><trkpt lat="42.0398717" lon="-8.0310833"><ele>1090.0</ele><time>2026-04-18T09:59:00.785Z</time></trkpt><trkpt lat="42.0397833" lon="-8.0310883"><ele>1090.0</ele><time>2026-04-18T09:59:02.786Z</time></trkpt><trkpt lat="42.0396783" lon="-8.0311167"><ele>1090.4</ele><time>2026-04-18T09:59:04.783Z</time></trkpt><trkpt lat="42.0396067" lon="-8.0311683"><ele>1090.8</ele><time>2026-04-18T09:59:06.787Z</time></trkpt><trkpt lat="42.0395983" lon="-8.0312917"><ele>1091.2</ele><time>2026-04-18T09:59:09.786Z</time></trkpt><trkpt lat="42.0396067" lon="-8.0314317"><ele>1091.6</ele><time>2026-04-18T09:59:11.783Z</time></trkpt><trkpt lat="42.0395533" lon="-8.0315933"><ele>1092.0</ele><time>2026-04-18T09:59:13.783Z</time></trkpt><trkpt lat="42.03949" lon="-8.0316767"><ele>1092.0</ele><time>2026-04-18T09:59:14.786Z</time></trkpt><trkpt lat="42.0394183" lon="-8.0317533"><ele>1092.0</ele><time>2026-04-18T09:59:15.786Z</time></trkpt><trkpt lat="42.0393233" lon="-8.0318283"><ele>1092.0</ele><time>2026-04-18T09:59:16.783Z</time></trkpt><trkpt lat="42.039215" lon="-8.031905"><ele>1092.0</ele><time>2026-04-18T09:59:17.783Z</time></trkpt><trkpt lat="42.0391017" lon="-8.0319833"><ele>1090.75</ele><time>2026-04-18T09:59:18.785Z</time></trkpt><trkpt lat="42.0389817" lon="-8.0320583"><ele>1089.5</ele><time>2026-04-18T09:59:19.784Z</time></trkpt><trkpt lat="42.03886" lon="-8.032135"><ele>1088.25</ele><time>2026-04-18T09:59:20.783Z</time></trkpt><trkpt lat="42.0387367" lon="-8.0322183"><ele>1087.0</ele><time>2026-04-18T09:59:21.784Z</time></trkpt><trkpt lat="42.0386283" lon="-8.0323083"><ele>1087.0</ele><time>2026-04-18T09:59:22.783Z</time></trkpt><trkpt lat="42.0385383" lon="-8.03241"><ele>1087.0</ele><time>2026-04-18T09:59:23.783Z</time></trkpt><trkpt lat="42.0384667" lon="-8.0325183"><ele>1087.0</ele><time>2026-04-18T09:59:24.783Z</time></trkpt><trkpt lat="42.0384067" lon="-8.0326383"><ele>1087.0</ele><time>2026-04-18T09:59:25.784Z</time></trkpt><trkpt lat="42.0383633" lon="-8.0327667"><ele>1087.0</ele><time>2026-04-18T09:59:26.785Z</time></trkpt><trkpt lat="42.038335" lon="-8.032905"><ele>1089.1666666666665</ele><time>2026-04-18T09:59:27.786Z</time></trkpt><trkpt lat="42.03832" lon="-8.033045"><ele>1091.3333333333333</ele><time>2026-04-18T09:59:28.783Z</time></trkpt><trkpt lat="42.0383133" lon="-8.03318"><ele>1093.5</ele><time>2026-04-18T09:59:29.784Z</time></trkpt><trkpt lat="42.0383017" lon="-8.0332833"><ele>1095.6666666666667</ele><time>2026-04-18T09:59:30.785Z</time></trkpt><trkpt lat="42.0382833" lon="-8.03338"><ele>1097.8333333333335</ele><time>2026-04-18T09:59:31.783Z</time></trkpt><trkpt lat="42.0382517" lon="-8.0334583"><ele>1100.0</ele><time>2026-04-18T09:59:32.783Z</time></trkpt><trkpt lat="42.0382" lon="-8.0335183"><ele>1101.2</ele><time>2026-04-18T09:59:33.783Z</time></trkpt><trkpt lat="42.03813" lon="-8.0335433"><ele>1102.4</ele><time>2026-04-18T09:59:34.783Z</time></trkpt><trkpt lat="42.0380567" lon="-8.033565"><ele>1103.6</ele><time>2026-04-18T09:59:35.783Z</time></trkpt><trkpt lat="42.0379633" lon="-8.03356"><ele>1104.8</ele><time>2026-04-18T09:59:36.784Z</time></trkpt><trkpt lat="42.0378383" lon="-8.0335017"><ele>1106.0</ele><time>2026-04-18T09:59:37.783Z</time></trkpt><trkpt lat="42.0376867" lon="-8.0334067"><ele>1106.0</ele><time>2026-04-18T09:59:38.783Z</time></trkpt><trkpt lat="42.0375483" lon="-8.0333467"><ele>1106.0</ele><time>2026-04-18T09:59:39.783Z</time></trkpt><trkpt lat="42.0374167" lon="-8.0333283"><ele>1106.0</ele><time>2026-04-18T09:59:40.784Z</time></trkpt><trkpt lat="42.0372867" lon="-8.0333367"><ele>1106.0</ele><time>2026-04-18T09:59:41.783Z</time></trkpt><trkpt lat="42.03715" lon="-8.0333667"><ele>1105.75</ele><time>2026-04-18T09:59:42.783Z</time></trkpt><trkpt lat="42.0370133" lon="-8.033405"><ele>1105.5</ele><time>2026-04-18T09:59:43.786Z</time></trkpt><trkpt lat="42.0368783" lon="-8.0334333"><ele>1105.25</ele><time>2026-04-18T09:59:44.783Z</time></trkpt><trkpt lat="42.0367483" lon="-8.0334767"><ele>1105.0</ele><time>2026-04-18T09:59:45.784Z</time></trkpt><trkpt lat="42.0366283" lon="-8.0335267"><ele>1104.4</ele><time>2026-04-18T09:59:46.786Z</time></trkpt><trkpt lat="42.03653" lon="-8.0335833"><ele>1103.8</ele><time>2026-04-18T09:59:47.783Z</time></trkpt><trkpt lat="42.0364517" lon="-8.03365"><ele>1103.2</ele><time>2026-04-18T09:59:48.783Z</time></trkpt><trkpt lat="42.0363917" lon="-8.0337333"><ele>1102.6</ele><time>2026-04-18T09:59:49.785Z</time></trkpt><trkpt lat="42.036345" lon="-8.033825"><ele>1102.0</ele><time>2026-04-18T09:59:50.784Z</time></trkpt><trkpt lat="42.0363283" lon="-8.0339383"><ele>1102.0</ele><time>2026-04-18T09:59:51.784Z</time></trkpt><trkpt lat="42.036345" lon="-8.03408"><ele>1102.0</ele><time>2026-04-18T09:59:52.784Z</time></trkpt><trkpt lat="42.03641" lon="-8.0342467"><ele>1102.0</ele><time>2026-04-18T09:59:53.784Z</time></trkpt><trkpt lat="42.0364867" lon="-8.0343617"><ele>1102.0</ele><time>2026-04-18T09:59:54.787Z</time></trkpt><trkpt lat="42.03655" lon="-8.034465"><ele>1102.6</ele><time>2026-04-18T09:59:55.783Z</time></trkpt><trkpt lat="42.036585" lon="-8.034555"><ele>1103.2</ele><time>2026-04-18T09:59:56.788Z</time></trkpt><trkpt lat="42.0366167" lon="-8.0347067"><ele>1103.8</ele><time>2026-04-18T09:59:58.783Z</time></trkpt><trkpt lat="42.0365767" lon="-8.0348533"><ele>1104.4</ele><time>2026-04-18T10:00:00.784Z</time></trkpt><trkpt lat="42.0365167" lon="-8.0349317"><ele>1105.0</ele><time>2026-04-18T10:00:01.783Z</time></trkpt><trkpt lat="42.0364717" lon="-8.035025"><ele>1105.0</ele><time>2026-04-18T10:00:02.783Z</time></trkpt><trkpt lat="42.0364183" lon="-8.0351383"><ele>1105.0</ele><time>2026-04-18T10:00:03.783Z</time></trkpt><trkpt lat="42.0363517" lon="-8.0352733"><ele>1105.0</ele><time>2026-04-18T10:00:04.783Z</time></trkpt><trkpt lat="42.0362867" lon="-8.0354067"><ele>1105.0</ele><time>2026-04-18T10:00:05.784Z</time></trkpt><trkpt lat="42.0362167" lon="-8.0355383"><ele>1105.0</ele><time>2026-04-18T10:00:06.786Z</time></trkpt><trkpt lat="42.0361367" lon="-8.035675"><ele>1105.0</ele><time>2026-04-18T10:00:07.785Z</time></trkpt><trkpt lat="42.0360633" lon="-8.0358117"><ele>1105.0</ele><time>2026-04-18T10:00:08.785Z</time></trkpt><trkpt lat="42.0359933" lon="-8.0359433"><ele>1105.0</ele><time>2026-04-18T10:00:09.784Z</time></trkpt><trkpt lat="42.0359283" lon="-8.0360767"><ele>1103.75</ele><time>2026-04-18T10:00:10.784Z</time></trkpt><trkpt lat="42.0358717" lon="-8.0362117"><ele>1102.5</ele><time>2026-04-18T10:00:11.785Z</time></trkpt><trkpt lat="42.0358083" lon="-8.03636"><ele>1101.25</ele><time>2026-04-18T10:00:12.785Z</time></trkpt><trkpt lat="42.03574" lon="-8.03651"><ele>1100.0</ele><time>2026-04-18T10:00:13.785Z</time></trkpt><trkpt lat="42.0356717" lon="-8.0366567"><ele>1096.75</ele><time>2026-04-18T10:00:14.789Z</time></trkpt><trkpt lat="42.035605" lon="-8.0368"><ele>1093.5</ele><time>2026-04-18T10:00:15.783Z</time></trkpt><trkpt lat="42.0355467" lon="-8.0369417"><ele>1090.25</ele><time>2026-04-18T10:00:16.784Z</time></trkpt><trkpt lat="42.0354933" lon="-8.037085"><ele>1087.0</ele><time>2026-04-18T10:00:17.786Z</time></trkpt><trkpt lat="42.0354417" lon="-8.0372317"><ele>1087.0</ele><time>2026-04-18T10:00:18.783Z</time></trkpt><trkpt lat="42.035385" lon="-8.03737"><ele>1087.0</ele><time>2026-04-18T10:00:19.785Z</time></trkpt><trkpt lat="42.0353233" lon="-8.0375117"><ele>1087.0</ele><time>2026-04-18T10:00:20.787Z</time></trkpt><trkpt lat="42.03526" lon="-8.0376567"><ele>1087.0</ele><time>2026-04-18T10:00:21.783Z</time></trkpt><trkpt lat="42.0352017" lon="-8.0378033"><ele>1087.0</ele><time>2026-04-18T10:00:22.784Z</time></trkpt><trkpt lat="42.0351383" lon="-8.0379533"><ele>1087.0</ele><time>2026-04-18T10:00:23.786Z</time></trkpt><trkpt lat="42.0350783" lon="-8.03811"><ele>1087.0</ele><time>2026-04-18T10:00:24.784Z</time></trkpt><trkpt lat="42.0350183" lon="-8.0382633"><ele>1087.0</ele><time>2026-04-18T10:00:25.786Z</time></trkpt><trkpt lat="42.034965" lon="-8.0384067"><ele>1083.25</ele><time>2026-04-18T10:00:26.787Z</time></trkpt><trkpt lat="42.03491" lon="-8.0385433"><ele>1079.5</ele><time>2026-04-18T10:00:27.783Z</time></trkpt><trkpt lat="42.0348567" lon="-8.0386817"><ele>1075.75</ele><time>2026-04-18T10:00:28.784Z</time></trkpt><trkpt lat="42.0348033" lon="-8.0388283"><ele>1072.0</ele><time>2026-04-18T10:00:29.784Z</time></trkpt><trkpt lat="42.0347517" lon="-8.0389783"><ele>1072.0</ele><time>2026-04-18T10:00:30.785Z</time></trkpt><trkpt lat="42.03471" lon="-8.0391267"><ele>1072.0</ele><time>2026-04-18T10:00:31.785Z</time></trkpt><trkpt lat="42.034675" lon="-8.0392767"><ele>1072.0</ele><time>2026-04-18T10:00:32.785Z</time></trkpt><trkpt lat="42.034645" lon="-8.03942"><ele>1072.0</ele><time>2026-04-18T10:00:33.784Z</time></trkpt><trkpt lat="42.0346217" lon="-8.0395517"><ele>1072.0</ele><time>2026-04-18T10:00:34.785Z</time></trkpt><trkpt lat="42.0345983" lon="-8.0396717"><ele>1072.5</ele><time>2026-04-18T10:00:35.785Z</time></trkpt><trkpt lat="42.0345733" lon="-8.03978"><ele>1073.0</ele><time>2026-04-18T10:00:36.787Z</time></trkpt><trkpt lat="42.0345433" lon="-8.039885"><ele>1073.5</ele><time>2026-04-18T10:00:37.785Z</time></trkpt><trkpt lat="42.0345" lon="-8.039985"><ele>1074.0</ele><time>2026-04-18T10:00:38.786Z</time></trkpt><trkpt lat="42.0344417" lon="-8.0400817"><ele>1074.5</ele><time>2026-04-18T10:00:39.785Z</time></trkpt><trkpt lat="42.0343733" lon="-8.0401783"><ele>1075.0</ele><time>2026-04-18T10:00:40.784Z</time></trkpt><trkpt lat="42.0342867" lon="-8.0402767"><ele>1075.0</ele><time>2026-04-18T10:00:41.785Z</time></trkpt><trkpt lat="42.0341817" lon="-8.040375"><ele>1075.0</ele><time>2026-04-18T10:00:42.785Z</time></trkpt><trkpt lat="42.0340767" lon="-8.0404717"><ele>1075.0</ele><time>2026-04-18T10:00:43.786Z</time></trkpt><trkpt lat="42.033975" lon="-8.040555"><ele>1075.0</ele><time>2026-04-18T10:00:44.785Z</time></trkpt><trkpt lat="42.03388" lon="-8.04063"><ele>1073.4</ele><time>2026-04-18T10:00:45.784Z</time></trkpt><trkpt lat="42.0337883" lon="-8.0406983"><ele>1071.8</ele><time>2026-04-18T10:00:46.783Z</time></trkpt><trkpt lat="42.033695" lon="-8.0407633"><ele>1070.2</ele><time>2026-04-18T10:00:47.784Z</time></trkpt><trkpt lat="42.0335917" lon="-8.0408317"><ele>1068.6</ele><time>2026-04-18T10:00:48.787Z</time></trkpt><trkpt lat="42.033485" lon="-8.0408933"><ele>1067.0</ele><time>2026-04-18T10:00:49.783Z</time></trkpt><trkpt lat="42.0333783" lon="-8.0409433"><ele>1063.5</ele><time>2026-04-18T10:00:50.784Z</time></trkpt><trkpt lat="42.0332667" lon="-8.04099"><ele>1060.0</ele><time>2026-04-18T10:00:51.786Z</time></trkpt><trkpt lat="42.0331517" lon="-8.0410333"><ele>1056.5</ele><time>2026-04-18T10:00:52.783Z</time></trkpt><trkpt lat="42.033035" lon="-8.0410783"><ele>1053.0</ele><time>2026-04-18T10:00:53.784Z</time></trkpt><trkpt lat="42.0329167" lon="-8.04112"><ele>1053.0</ele><time>2026-04-18T10:00:54.785Z</time></trkpt><trkpt lat="42.032805" lon="-8.0411617"><ele>1053.0</ele><time>2026-04-18T10:00:55.785Z</time></trkpt><trkpt lat="42.032685" lon="-8.0412"><ele>1053.0</ele><time>2026-04-18T10:00:56.785Z</time></trkpt><trkpt lat="42.032555" lon="-8.041225"><ele>1053.0</ele><time>2026-04-18T10:00:57.785Z</time></trkpt><trkpt lat="42.032425" lon="-8.0412367"><ele>1051.75</ele><time>2026-04-18T10:00:58.784Z</time></trkpt><trkpt lat="42.0322983" lon="-8.0412383"><ele>1050.5</ele><time>2026-04-18T10:00:59.784Z</time></trkpt><trkpt lat="42.0321783" lon="-8.041215"><ele>1049.25</ele><time>2026-04-18T10:01:00.785Z</time></trkpt><trkpt lat="42.0320633" lon="-8.041185"><ele>1048.0</ele><time>2026-04-18T10:01:01.785Z</time></trkpt><trkpt lat="42.0319533" lon="-8.0411467"><ele>1048.0</ele><time>2026-04-18T10:01:02.786Z</time></trkpt><trkpt lat="42.0318483" lon="-8.0411033"><ele>1048.0</ele><time>2026-04-18T10:01:03.785Z</time></trkpt><trkpt lat="42.0317483" lon="-8.0410617"><ele>1048.0</ele><time>2026-04-18T10:01:04.784Z</time></trkpt><trkpt lat="42.0316467" lon="-8.04102"><ele>1048.0</ele><time>2026-04-18T10:01:05.784Z</time></trkpt><trkpt lat="42.0315383" lon="-8.040965"><ele>1048.0</ele><time>2026-04-18T10:01:06.785Z</time></trkpt><trkpt lat="42.031425" lon="-8.0408917"><ele>1045.5</ele><time>2026-04-18T10:01:07.785Z</time></trkpt><trkpt lat="42.03131" lon="-8.04081"><ele>1043.0</ele><time>2026-04-18T10:01:08.785Z</time></trkpt><trkpt lat="42.0311917" lon="-8.040715"><ele>1040.5</ele><time>2026-04-18T10:01:09.786Z</time></trkpt><trkpt lat="42.031075" lon="-8.0406183"><ele>1038.0</ele><time>2026-04-18T10:01:10.784Z</time></trkpt><trkpt lat="42.0309583" lon="-8.0405183"><ele>1036.75</ele><time>2026-04-18T10:01:11.784Z</time></trkpt><trkpt lat="42.0308383" lon="-8.0404183"><ele>1035.5</ele><time>2026-04-18T10:01:12.786Z</time></trkpt><trkpt lat="42.03072" lon="-8.0403233"><ele>1034.25</ele><time>2026-04-18T10:01:13.784Z</time></trkpt><trkpt lat="42.030605" lon="-8.0402383"><ele>1033.0</ele><time>2026-04-18T10:01:14.784Z</time></trkpt><trkpt lat="42.0304883" lon="-8.0401617"><ele>1032.25</ele><time>2026-04-18T10:01:15.785Z</time></trkpt><trkpt lat="42.0303717" lon="-8.0400883"><ele>1031.5</ele><time>2026-04-18T10:01:16.787Z</time></trkpt><trkpt lat="42.030245" lon="-8.040025"><ele>1030.75</ele><time>2026-04-18T10:01:17.784Z</time></trkpt><trkpt lat="42.03011" lon="-8.0399667"><ele>1030.0</ele><time>2026-04-18T10:01:18.786Z</time></trkpt><trkpt lat="42.0299817" lon="-8.0398983"><ele>1026.0</ele><time>2026-04-18T10:01:19.786Z</time></trkpt><trkpt lat="42.0298617" lon="-8.0398267"><ele>1022.0</ele><time>2026-04-18T10:01:20.785Z</time></trkpt><trkpt lat="42.02974" lon="-8.0397583"><ele>1018.0</ele><time>2026-04-18T10:01:21.786Z</time></trkpt><trkpt lat="42.0296183" lon="-8.0397083"><ele>1014.0</ele><time>2026-04-18T10:01:22.785Z</time></trkpt><trkpt lat="42.0294917" lon="-8.0396833"><ele>1014.0</ele><time>2026-04-18T10:01:23.786Z</time></trkpt><trkpt lat="42.0293633" lon="-8.0396833"><ele>1014.0</ele><time>2026-04-18T10:01:24.786Z</time></trkpt><trkpt lat="42.0292433" lon="-8.0397117"><ele>1014.0</ele><time>2026-04-18T10:01:25.786Z</time></trkpt><trkpt lat="42.0291317" lon="-8.039755"><ele>1014.0</ele><time>2026-04-18T10:01:26.784Z</time></trkpt><trkpt lat="42.0290383" lon="-8.0398183"><ele>1013.6</ele><time>2026-04-18T10:01:27.787Z</time></trkpt><trkpt lat="42.0289617" lon="-8.0398967"><ele>1013.2</ele><time>2026-04-18T10:01:28.783Z</time></trkpt><trkpt lat="42.0288933" lon="-8.0400217"><ele>1012.8000000000001</ele><time>2026-04-18T10:01:29.786Z</time></trkpt><trkpt lat="42.0288317" lon="-8.04015"><ele>1012.4000000000001</ele><time>2026-04-18T10:01:30.788Z</time></trkpt><trkpt lat="42.0287717" lon="-8.04028"><ele>1012.0</ele><time>2026-04-18T10:01:31.784Z</time></trkpt><trkpt lat="42.0287083" lon="-8.040395"><ele>1011.9999999999999</ele><time>2026-04-18T10:01:32.784Z</time></trkpt><trkpt lat="42.0286367" lon="-8.04049"><ele>1012.0</ele><time>2026-04-18T10:01:33.785Z</time></trkpt><trkpt lat="42.0285417" lon="-8.0405483"><ele>1012.0</ele><time>2026-04-18T10:01:34.785Z</time></trkpt><trkpt lat="42.0284483" lon="-8.0405683"><ele>1012.0</ele><time>2026-04-18T10:01:35.784Z</time></trkpt><trkpt lat="42.0283683" lon="-8.0405683"><ele>1011.9999999999999</ele><time>2026-04-18T10:01:36.787Z</time></trkpt><trkpt lat="42.0283033" lon="-8.040555"><ele>1012.0</ele><time>2026-04-18T10:01:37.786Z</time></trkpt><trkpt lat="42.02822" lon="-8.040525"><ele>1011.9999999999999</ele><time>2026-04-18T10:01:39.785Z</time></trkpt><trkpt lat="42.0281733" lon="-8.0404583"><ele>1012.0</ele><time>2026-04-18T10:01:43.784Z</time></trkpt><trkpt lat="42.0282733" lon="-8.0404817"><ele>1012.0</ele><time>2026-04-18T10:01:47.784Z</time></trkpt><trkpt lat="42.0283433" lon="-8.0404933"><ele>1012.0</ele><time>2026-04-18T10:01:49.783Z</time></trkpt><trkpt lat="42.0284533" lon="-8.0405067"><ele>1011.9999999999999</ele><time>2026-04-18T10:01:51.783Z</time></trkpt><trkpt lat="42.028525" lon="-8.0405033"><ele>1012.0</ele><time>2026-04-18T10:01:52.783Z</time></trkpt><trkpt lat="42.028605" lon="-8.0404733"><ele>1012.0</ele><time>2026-04-18T10:01:53.785Z</time></trkpt><trkpt lat="42.0286867" lon="-8.0404167"><ele>1012.0</ele><time>2026-04-18T10:01:54.785Z</time></trkpt><trkpt lat="42.0287617" lon="-8.04034"><ele>1012.0</ele><time>2026-04-18T10:01:55.784Z</time></trkpt><trkpt lat="42.0288317" lon="-8.0402233"><ele>1012.0</ele><time>2026-04-18T10:01:56.786Z</time></trkpt><trkpt lat="42.028895" lon="-8.0401033"><ele>1012.0</ele><time>2026-04-18T10:01:57.783Z</time></trkpt><trkpt lat="42.0289483" lon="-8.03999"><ele>1012.4000000000001</ele><time>2026-04-18T10:01:58.783Z</time></trkpt><trkpt lat="42.0290083" lon="-8.0398867"><ele>1012.8000000000001</ele><time>2026-04-18T10:01:59.783Z</time></trkpt><trkpt lat="42.0290783" lon="-8.039815"><ele>1013.2</ele><time>2026-04-18T10:02:00.784Z</time></trkpt><trkpt lat="42.02916" lon="-8.039755"><ele>1013.6</ele><time>2026-04-18T10:02:01.782Z</time></trkpt><trkpt lat="42.0292583" lon="-8.0397233"><ele>1014.0</ele><time>2026-04-18T10:02:02.785Z</time></trkpt><trkpt lat="42.02936" lon="-8.0397017"><ele>1014.0</ele><time>2026-04-18T10:02:03.783Z</time></trkpt><trkpt lat="42.02947" lon="-8.039695"><ele>1014.0</ele><time>2026-04-18T10:02:04.783Z</time></trkpt><trkpt lat="42.0295817" lon="-8.0396983"><ele>1014.0</ele><time>2026-04-18T10:02:05.782Z</time></trkpt><trkpt lat="42.0296983" lon="-8.03972"><ele>1014.0</ele><time>2026-04-18T10:02:06.783Z</time></trkpt><trkpt lat="42.0298167" lon="-8.0397617"><ele>1014.0</ele><time>2026-04-18T10:02:07.783Z</time></trkpt><trkpt lat="42.0299467" lon="-8.0398333"><ele>1014.0</ele><time>2026-04-18T10:02:08.786Z</time></trkpt><trkpt lat="42.0300833" lon="-8.0399183"><ele>1014.0</ele><time>2026-04-18T10:02:09.782Z</time></trkpt><trkpt lat="42.03023" lon="-8.03999"><ele>1014.0</ele><time>2026-04-18T10:02:10.784Z</time></trkpt><trkpt lat="42.030385" lon="-8.04006"><ele>1019.3333333333333</ele><time>2026-04-18T10:02:11.783Z</time></trkpt><trkpt lat="42.03053" lon="-8.0401417"><ele>1024.6666666666665</ele><time>2026-04-18T10:02:12.786Z</time></trkpt><trkpt lat="42.030665" lon="-8.0402367"><ele>1030.0</ele><time>2026-04-18T10:02:13.785Z</time></trkpt><trkpt lat="42.0307983" lon="-8.040335"><ele>1030.75</ele><time>2026-04-18T10:02:14.783Z</time></trkpt><trkpt lat="42.030925" lon="-8.0404367"><ele>1031.5</ele><time>2026-04-18T10:02:15.787Z</time></trkpt><trkpt lat="42.0310483" lon="-8.04054"><ele>1032.25</ele><time>2026-04-18T10:02:16.783Z</time></trkpt><trkpt lat="42.0311683" lon="-8.040645"><ele>1033.0</ele><time>2026-04-18T10:02:17.783Z</time></trkpt><trkpt lat="42.0312967" lon="-8.0407567"><ele>1034.6666666666665</ele><time>2026-04-18T10:02:18.785Z</time></trkpt><trkpt lat="42.0314417" lon="-8.0408567"><ele>1036.3333333333333</ele><time>2026-04-18T10:02:19.786Z</time></trkpt><trkpt lat="42.0315917" lon="-8.0409517"><ele>1038.0</ele><time>2026-04-18T10:02:20.784Z</time></trkpt><trkpt lat="42.03174" lon="-8.041035"><ele>1040.5</ele><time>2026-04-18T10:02:21.784Z</time></trkpt><trkpt lat="42.0318817" lon="-8.0410967"><ele>1043.0</ele><time>2026-04-18T10:02:22.783Z</time></trkpt><trkpt lat="42.0320217" lon="-8.0411467"><ele>1045.5</ele><time>2026-04-18T10:02:23.784Z</time></trkpt><trkpt lat="42.03216" lon="-8.0411833"><ele>1048.0</ele><time>2026-04-18T10:02:24.787Z</time></trkpt><trkpt lat="42.0322933" lon="-8.04121"><ele>1048.0</ele><time>2026-04-18T10:02:25.784Z</time></trkpt><trkpt lat="42.0324183" lon="-8.04122"><ele>1048.0</ele><time>2026-04-18T10:02:26.784Z</time></trkpt><trkpt lat="42.0325317" lon="-8.0412183"><ele>1048.0</ele><time>2026-04-18T10:02:27.783Z</time></trkpt><trkpt lat="42.0326367" lon="-8.0411983"><ele>1048.0</ele><time>2026-04-18T10:02:28.782Z</time></trkpt><trkpt lat="42.0327467" lon="-8.04117"><ele>1049.25</ele><time>2026-04-18T10:02:29.783Z</time></trkpt><trkpt lat="42.03286" lon="-8.04114"><ele>1050.5</ele><time>2026-04-18T10:02:30.783Z</time></trkpt><trkpt lat="42.032985" lon="-8.0410983"><ele>1051.75</ele><time>2026-04-18T10:02:31.783Z</time></trkpt><trkpt lat="42.0331283" lon="-8.04105"><ele>1053.0</ele><time>2026-04-18T10:02:32.783Z</time></trkpt><trkpt lat="42.0332733" lon="-8.0409983"><ele>1054.75</ele><time>2026-04-18T10:02:33.783Z</time></trkpt><trkpt lat="42.03341" lon="-8.040945"><ele>1056.5</ele><time>2026-04-18T10:02:34.782Z</time></trkpt><trkpt lat="42.03354" lon="-8.0408817"><ele>1058.25</ele><time>2026-04-18T10:02:35.783Z</time></trkpt><trkpt lat="42.0336567" lon="-8.04081"><ele>1060.0</ele><time>2026-04-18T10:02:36.784Z</time></trkpt><trkpt lat="42.0337683" lon="-8.0407233"><ele>1061.75</ele><time>2026-04-18T10:02:37.784Z</time></trkpt><trkpt lat="42.0338783" lon="-8.0406317"><ele>1063.5</ele><time>2026-04-18T10:02:38.783Z</time></trkpt><trkpt lat="42.03398" lon="-8.0405367"><ele>1065.25</ele><time>2026-04-18T10:02:39.783Z</time></trkpt><trkpt lat="42.034075" lon="-8.040445"><ele>1067.0</ele><time>2026-04-18T10:02:40.784Z</time></trkpt><trkpt lat="42.0341683" lon="-8.0403533"><ele>1068.6</ele><time>2026-04-18T10:02:41.783Z</time></trkpt><trkpt lat="42.0342567" lon="-8.0402583"><ele>1070.2</ele><time>2026-04-18T10:02:42.784Z</time></trkpt><trkpt lat="42.0343417" lon="-8.04016"><ele>1071.8</ele><time>2026-04-18T10:02:43.783Z</time></trkpt><trkpt lat="42.0344233" lon="-8.040055"><ele>1073.4</ele><time>2026-04-18T10:02:44.783Z</time></trkpt><trkpt lat="42.034495" lon="-8.0399417"><ele>1075.0</ele><time>2026-04-18T10:02:45.783Z</time></trkpt><trkpt lat="42.034555" lon="-8.03982"><ele>1075.6</ele><time>2026-04-18T10:02:46.783Z</time></trkpt><trkpt lat="42.0346" lon="-8.0396917"><ele>1076.2</ele><time>2026-04-18T10:02:47.786Z</time></trkpt><trkpt lat="42.0346283" lon="-8.039565"><ele>1076.8</ele><time>2026-04-18T10:02:48.786Z</time></trkpt><trkpt lat="42.0346517" lon="-8.03943"><ele>1077.4</ele><time>2026-04-18T10:02:49.783Z</time></trkpt><trkpt lat="42.03468" lon="-8.039275"><ele>1078.0</ele><time>2026-04-18T10:02:50.786Z</time></trkpt><trkpt lat="42.0347133" lon="-8.0391217"><ele>1077.0</ele><time>2026-04-18T10:02:51.786Z</time></trkpt><trkpt lat="42.0347467" lon="-8.0389917"><ele>1076.0</ele><time>2026-04-18T10:02:52.786Z</time></trkpt><trkpt lat="42.0347767" lon="-8.0388983"><ele>1075.0</ele><time>2026-04-18T10:02:53.787Z</time></trkpt><trkpt lat="42.0348417" lon="-8.0387967"><ele>1074.0</ele><time>2026-04-18T10:02:55.783Z</time></trkpt><trkpt lat="42.034915" lon="-8.0388167"><ele>1073.0</ele><time>2026-04-18T10:02:57.783Z</time></trkpt><trkpt lat="42.0349717" lon="-8.038865"><ele>1072.0</ele><time>2026-04-18T10:02:58.783Z</time></trkpt><trkpt lat="42.0350467" lon="-8.038935"><ele>1073.6666666666665</ele><time>2026-04-18T10:02:59.783Z</time></trkpt><trkpt lat="42.03512" lon="-8.0389967"><ele>1075.3333333333333</ele><time>2026-04-18T10:03:00.786Z</time></trkpt><trkpt lat="42.03519" lon="-8.03906"><ele>1077.0</ele><time>2026-04-18T10:03:01.784Z</time></trkpt><trkpt lat="42.0352583" lon="-8.03913"><ele>1078.6666666666667</ele><time>2026-04-18T10:03:02.78Z</time></trkpt><trkpt lat="42.035325" lon="-8.0392033"><ele>1080.3333333333335</ele><time>2026-04-18T10:03:03.783Z</time></trkpt><trkpt lat="42.035395" lon="-8.0392767"><ele>1082.0</ele><time>2026-04-18T10:03:04.783Z</time></trkpt><trkpt lat="42.035465" lon="-8.0393433"><ele>1082.0</ele><time>2026-04-18T10:03:05.783Z</time></trkpt><trkpt lat="42.0355433" lon="-8.03941"><ele>1082.0</ele><time>2026-04-18T10:03:06.784Z</time></trkpt><trkpt lat="42.03563" lon="-8.039475"><ele>1082.0</ele><time>2026-04-18T10:03:07.784Z</time></trkpt><trkpt lat="42.0357183" lon="-8.0395317"><ele>1082.0</ele><time>2026-04-18T10:03:08.786Z</time></trkpt><trkpt lat="42.0358117" lon="-8.039595"><ele>1082.0</ele><time>2026-04-18T10:03:09.783Z</time></trkpt><trkpt lat="42.0359083" lon="-8.039655"><ele>1082.6666666666667</ele><time>2026-04-18T10:03:10.783Z</time></trkpt><trkpt lat="42.035995" lon="-8.03971"><ele>1083.3333333333335</ele><time>2026-04-18T10:03:11.783Z</time></trkpt><trkpt lat="42.03607" lon="-8.0397517"><ele>1084.0</ele><time>2026-04-18T10:03:12.783Z</time></trkpt><trkpt lat="42.03614" lon="-8.0397833"><ele>1084.6666666666667</ele><time>2026-04-18T10:03:13.784Z</time></trkpt><trkpt lat="42.036215" lon="-8.0398133"><ele>1085.3333333333333</ele><time>2026-04-18T10:03:14.786Z</time></trkpt><trkpt lat="42.0362933" lon="-8.0398433"><ele>1086.0</ele><time>2026-04-18T10:03:15.783Z</time></trkpt><trkpt lat="42.0363767" lon="-8.0398667"><ele>1086.0</ele><time>2026-04-18T10:03:16.784Z</time></trkpt><trkpt lat="42.036465" lon="-8.0398933"><ele>1086.0</ele><time>2026-04-18T10:03:17.784Z</time></trkpt><trkpt lat="42.0365533" lon="-8.03992"><ele>1086.0</ele><time>2026-04-18T10:03:18.786Z</time></trkpt><trkpt lat="42.03664" lon="-8.0399433"><ele>1086.0</ele><time>2026-04-18T10:03:19.784Z</time></trkpt><trkpt lat="42.036725" lon="-8.039975"><ele>1086.0</ele><time>2026-04-18T10:03:20.784Z</time></trkpt><trkpt lat="42.036805" lon="-8.04001"><ele>1086.0</ele><time>2026-04-18T10:03:21.784Z</time></trkpt><trkpt lat="42.0368817" lon="-8.040045"><ele>1084.857142857143</ele><time>2026-04-18T10:03:22.784Z</time></trkpt><trkpt lat="42.0369533" lon="-8.0400783"><ele>1083.7142857142858</ele><time>2026-04-18T10:03:23.784Z</time></trkpt><trkpt lat="42.0370217" lon="-8.0400983"><ele>1082.5714285714284</ele><time>2026-04-18T10:03:24.784Z</time></trkpt><trkpt lat="42.0370883" lon="-8.0401167"><ele>1081.4285714285716</ele><time>2026-04-18T10:03:25.784Z</time></trkpt><trkpt lat="42.0371583" lon="-8.04013"><ele>1080.2857142857142</ele><time>2026-04-18T10:03:26.786Z</time></trkpt><trkpt lat="42.037235" lon="-8.0401483"><ele>1079.142857142857</ele><time>2026-04-18T10:03:27.785Z</time></trkpt><trkpt lat="42.0373083" lon="-8.040165"><ele>1078.0</ele><time>2026-04-18T10:03:28.784Z</time></trkpt><trkpt lat="42.0373733" lon="-8.0401767"><ele>1077.2</ele><time>2026-04-18T10:03:29.784Z</time></trkpt><trkpt lat="42.0374717" lon="-8.0401833"><ele>1076.4</ele><time>2026-04-18T10:03:31.784Z</time></trkpt><trkpt lat="42.03758" lon="-8.04022"><ele>1075.6000000000001</ele><time>2026-04-18T10:03:33.783Z</time></trkpt><trkpt lat="42.0376433" lon="-8.040255"><ele>1074.8</ele><time>2026-04-18T10:03:34.783Z</time></trkpt><trkpt lat="42.03772" lon="-8.0403033"><ele>1074.0</ele><time>2026-04-18T10:03:35.783Z</time></trkpt><trkpt lat="42.0377983" lon="-8.0403583"><ele>1074.0</ele><time>2026-04-18T10:03:36.785Z</time></trkpt><trkpt lat="42.0378783" lon="-8.0403967"><ele>1074.0</ele><time>2026-04-18T10:03:37.783Z</time></trkpt><trkpt lat="42.037945" lon="-8.040435"><ele>1074.0</ele><time>2026-04-18T10:03:38.784Z</time></trkpt><trkpt lat="42.038045" lon="-8.0404967"><ele>1074.0</ele><time>2026-04-18T10:03:40.784Z</time></trkpt><trkpt lat="42.03814" lon="-8.040545"><ele>1074.0</ele><time>2026-04-18T10:03:42.783Z</time></trkpt><trkpt lat="42.038255" lon="-8.0405883"><ele>1075.142857142857</ele><time>2026-04-18T10:03:44.784Z</time></trkpt><trkpt lat="42.03832" lon="-8.0406117"><ele>1076.2857142857142</ele><time>2026-04-18T10:03:45.783Z</time></trkpt><trkpt lat="42.0383867" lon="-8.040635"><ele>1077.4285714285716</ele><time>2026-04-18T10:03:46.783Z</time></trkpt><trkpt lat="42.0384533" lon="-8.0406517"><ele>1078.5714285714284</ele><time>2026-04-18T10:03:47.784Z</time></trkpt><trkpt lat="42.0385233" lon="-8.0406733"><ele>1079.7142857142858</ele><time>2026-04-18T10:03:48.784Z</time></trkpt><trkpt lat="42.0386" lon="-8.040705"><ele>1080.857142857143</ele><time>2026-04-18T10:03:49.783Z</time></trkpt><trkpt lat="42.038685" lon="-8.040745"><ele>1082.0</ele><time>2026-04-18T10:03:50.784Z</time></trkpt><trkpt lat="42.0387817" lon="-8.0407967"><ele>1081.3333333333335</ele><time>2026-04-18T10:03:51.784Z</time></trkpt><trkpt lat="42.0388733" lon="-8.0408417"><ele>1080.6666666666667</ele><time>2026-04-18T10:03:52.784Z</time></trkpt><trkpt lat="42.0389533" lon="-8.04088"><ele>1080.0</ele><time>2026-04-18T10:03:53.783Z</time></trkpt><trkpt lat="42.0390167" lon="-8.04091"><ele>1079.3333333333333</ele><time>2026-04-18T10:03:54.785Z</time></trkpt><trkpt lat="42.0391" lon="-8.0409417"><ele>1078.6666666666665</ele><time>2026-04-18T10:03:56.784Z</time></trkpt><trkpt lat="42.0391683" lon="-8.0409467"><ele>1078.0</ele><time>2026-04-18T10:03:58.784Z</time></trkpt><trkpt lat="42.0392217" lon="-8.0409017"><ele>1079.8</ele><time>2026-04-18T10:04:00.784Z</time></trkpt><trkpt lat="42.0392483" lon="-8.0407983"><ele>1081.6</ele><time>2026-04-18T10:04:02.784Z</time></trkpt><trkpt lat="42.0392833" lon="-8.0406633"><ele>1083.4</ele><time>2026-04-18T10:04:04.785Z</time></trkpt><trkpt lat="42.0393133" lon="-8.0405217"><ele>1085.2</ele><time>2026-04-18T10:04:06.783Z</time></trkpt><trkpt lat="42.0393483" lon="-8.040365"><ele>1087.0</ele><time>2026-04-18T10:04:08.784Z</time></trkpt><trkpt lat="42.0393767" lon="-8.0402867"><ele>1087.0</ele><time>2026-04-18T10:04:09.784Z</time></trkpt><trkpt lat="42.03941" lon="-8.0402067"><ele>1087.0</ele><time>2026-04-18T10:04:10.783Z</time></trkpt><trkpt lat="42.039435" lon="-8.0401217"><ele>1087.0</ele><time>2026-04-18T10:04:11.784Z</time></trkpt><trkpt lat="42.0394633" lon="-8.0400367"><ele>1087.0</ele><time>2026-04-18T10:04:12.787Z</time></trkpt><trkpt lat="42.0394967" lon="-8.0399533"><ele>1087.0</ele><time>2026-04-18T10:04:13.784Z</time></trkpt><trkpt lat="42.039525" lon="-8.0398683"><ele>1087.0</ele><time>2026-04-18T10:04:14.784Z</time></trkpt><trkpt lat="42.0395517" lon="-8.0397867"><ele>1087.0</ele><time>2026-04-18T10:04:15.784Z</time></trkpt><trkpt lat="42.0396067" lon="-8.039645"><ele>1088.6666666666665</ele><time>2026-04-18T10:04:17.784Z</time></trkpt><trkpt lat="42.0396667" lon="-8.0394933"><ele>1090.3333333333333</ele><time>2026-04-18T10:04:19.785Z</time></trkpt><trkpt lat="42.0397017" lon="-8.0394067"><ele>1092.0</ele><time>2026-04-18T10:04:20.787Z</time></trkpt><trkpt lat="42.039735" lon="-8.03932"><ele>1093.6666666666667</ele><time>2026-04-18T10:04:21.784Z</time></trkpt><trkpt lat="42.039765" lon="-8.039225"><ele>1095.3333333333335</ele><time>2026-04-18T10:04:22.785Z</time></trkpt><trkpt lat="42.039795" lon="-8.0391317"><ele>1097.0</ele><time>2026-04-18T10:04:23.784Z</time></trkpt><trkpt lat="42.039825" lon="-8.039045"><ele>1098.2857142857142</ele><time>2026-04-18T10:04:24.785Z</time></trkpt><trkpt lat="42.0398567" lon="-8.0389567"><ele>1099.5714285714287</ele><time>2026-04-18T10:04:25.786Z</time></trkpt><trkpt lat="42.0398917" lon="-8.0388717"><ele>1100.857142857143</ele><time>2026-04-18T10:04:26.785Z</time></trkpt><trkpt lat="42.039925" lon="-8.038785"><ele>1102.142857142857</ele><time>2026-04-18T10:04:27.784Z</time></trkpt><trkpt lat="42.0399583" lon="-8.0386917"><ele>1103.4285714285716</ele><time>2026-04-18T10:04:28.784Z</time></trkpt><trkpt lat="42.03999" lon="-8.0385983"><ele>1104.7142857142858</ele><time>2026-04-18T10:04:29.784Z</time></trkpt><trkpt lat="42.0400217" lon="-8.0385017"><ele>1106.0</ele><time>2026-04-18T10:04:30.786Z</time></trkpt><trkpt lat="42.0400517" lon="-8.0383983"><ele>1108.3333333333335</ele><time>2026-04-18T10:04:31.785Z</time></trkpt><trkpt lat="42.0400867" lon="-8.0382817"><ele>1110.6666666666667</ele><time>2026-04-18T10:04:32.785Z</time></trkpt><trkpt lat="42.0401267" lon="-8.0381633"><ele>1113.0</ele><time>2026-04-18T10:04:33.785Z</time></trkpt><trkpt lat="42.0401667" lon="-8.0380567"><ele>1115.3333333333333</ele><time>2026-04-18T10:04:34.785Z</time></trkpt><trkpt lat="42.040205" lon="-8.0379617"><ele>1117.6666666666665</ele><time>2026-04-18T10:04:35.784Z</time></trkpt><trkpt lat="42.0402367" lon="-8.03787"><ele>1120.0</ele><time>2026-04-18T10:04:36.785Z</time></trkpt><trkpt lat="42.04029" lon="-8.0377217"><ele>1120.0</ele><time>2026-04-18T10:04:38.785Z</time></trkpt><trkpt lat="42.0403567" lon="-8.0376067"><ele>1120.0</ele><time>2026-04-18T10:04:40.786Z</time></trkpt><trkpt lat="42.0404117" lon="-8.0375583"><ele>1120.0</ele><time>2026-04-18T10:04:42.786Z</time></trkpt><trkpt lat="42.0404833" lon="-8.0376117"><ele>1120.0</ele><time>2026-04-18T10:04:44.785Z</time></trkpt><trkpt lat="42.0405383" lon="-8.0376767"><ele>1120.0</ele><time>2026-04-18T10:04:45.788Z</time></trkpt><trkpt lat="42.040625" lon="-8.0377533"><ele>1120.0</ele><time>2026-04-18T10:04:46.786Z</time></trkpt><trkpt lat="42.0407117" lon="-8.03783"><ele>1121.25</ele><time>2026-04-18T10:04:47.784Z</time></trkpt><trkpt lat="42.0408067" lon="-8.03792"><ele>1122.5</ele><time>2026-04-18T10:04:48.784Z</time></trkpt><trkpt lat="42.0409033" lon="-8.0380183"><ele>1123.75</ele><time>2026-04-18T10:04:49.783Z</time></trkpt><trkpt lat="42.041005" lon="-8.0381217"><ele>1125.0</ele><time>2026-04-18T10:04:50.783Z</time></trkpt><trkpt lat="42.0411083" lon="-8.0382417"><ele>1123.75</ele><time>2026-04-18T10:04:51.783Z</time></trkpt><trkpt lat="42.0412117" lon="-8.03837"><ele>1122.5</ele><time>2026-04-18T10:04:52.783Z</time></trkpt><trkpt lat="42.0413133" lon="-8.0385083"><ele>1121.25</ele><time>2026-04-18T10:04:53.784Z</time></trkpt><trkpt lat="42.0414067" lon="-8.038645"><ele>1120.0</ele><time>2026-04-18T10:04:54.784Z</time></trkpt><trkpt lat="42.041495" lon="-8.0387817"><ele>1120.0</ele><time>2026-04-18T10:04:55.784Z</time></trkpt><trkpt lat="42.0415833" lon="-8.03891"><ele>1120.0</ele><time>2026-04-18T10:04:56.784Z</time></trkpt><trkpt lat="42.0416633" lon="-8.0390317"><ele>1120.0</ele><time>2026-04-18T10:04:57.784Z</time></trkpt><trkpt lat="42.0417317" lon="-8.0391367"><ele>1120.0</ele><time>2026-04-18T10:04:58.784Z</time></trkpt><trkpt lat="42.0417933" lon="-8.0392283"><ele>1120.0</ele><time>2026-04-18T10:04:59.787Z</time></trkpt><trkpt lat="42.041855" lon="-8.0393067"><ele>1120.4</ele><time>2026-04-18T10:05:00.783Z</time></trkpt><trkpt lat="42.04192" lon="-8.0393767"><ele>1120.8</ele><time>2026-04-18T10:05:01.783Z</time></trkpt><trkpt lat="42.0419933" lon="-8.039445"><ele>1121.2</ele><time>2026-04-18T10:05:02.784Z</time></trkpt><trkpt lat="42.0420717" lon="-8.0395167"><ele>1121.6</ele><time>2026-04-18T10:05:03.787Z</time></trkpt><trkpt lat="42.0421533" lon="-8.03959"><ele>1122.0</ele><time>2026-04-18T10:05:04.787Z</time></trkpt><trkpt lat="42.0422367" lon="-8.0396617"><ele>1122.0</ele><time>2026-04-18T10:05:05.786Z</time></trkpt><trkpt lat="42.0423133" lon="-8.0397233"><ele>1122.0</ele><time>2026-04-18T10:05:06.783Z</time></trkpt><trkpt lat="42.04238" lon="-8.039785"><ele>1122.0</ele><time>2026-04-18T10:05:07.784Z</time></trkpt><trkpt lat="42.0424317" lon="-8.0398383"><ele>1122.0</ele><time>2026-04-18T10:05:08.787Z</time></trkpt><trkpt lat="42.0425117" lon="-8.0399183"><ele>1122.0</ele><time>2026-04-18T10:05:10.784Z</time></trkpt><trkpt lat="42.0425683" lon="-8.0399967"><ele>1122.0</ele><time>2026-04-18T10:05:13.784Z</time></trkpt><trkpt lat="42.0425283" lon="-8.040085"><ele>1120.4</ele><time>2026-04-18T10:05:16.788Z</time></trkpt><trkpt lat="42.0424267" lon="-8.040145"><ele>1118.8000000000002</ele><time>2026-04-18T10:05:18.785Z</time></trkpt><trkpt lat="42.0423133" lon="-8.0402367"><ele>1117.2</ele><time>2026-04-18T10:05:20.785Z</time></trkpt><trkpt lat="42.0422567" lon="-8.0402867"><ele>1115.6000000000001</ele><time>2026-04-18T10:05:21.785Z</time></trkpt><trkpt lat="42.042155" lon="-8.0403767"><ele>1114.0</ele><time>2026-04-18T10:05:23.784Z</time></trkpt><trkpt lat="42.0420967" lon="-8.040435"><ele>1114.0</ele><time>2026-04-18T10:05:24.787Z</time></trkpt><trkpt lat="42.0420433" lon="-8.0404933"><ele>1114.0</ele><time>2026-04-18T10:05:25.787Z</time></trkpt><trkpt lat="42.04199" lon="-8.040545"><ele>1114.0</ele><time>2026-04-18T10:05:26.785Z</time></trkpt><trkpt lat="42.0419383" lon="-8.0406033"><ele>1114.0</ele><time>2026-04-18T10:05:27.785Z</time></trkpt><trkpt lat="42.04188" lon="-8.0406633"><ele>1114.0</ele><time>2026-04-18T10:05:28.784Z</time></trkpt><trkpt lat="42.0418233" lon="-8.0407233"><ele>1114.0</ele><time>2026-04-18T10:05:29.784Z</time></trkpt><trkpt lat="42.0417633" lon="-8.0407833"><ele>1114.0</ele><time>2026-04-18T10:05:30.788Z</time></trkpt><trkpt lat="42.0417017" lon="-8.040835"><ele>1112.6666666666665</ele><time>2026-04-18T10:05:31.787Z</time></trkpt><trkpt lat="42.0416433" lon="-8.04089"><ele>1111.3333333333333</ele><time>2026-04-18T10:05:32.785Z</time></trkpt><trkpt lat="42.0415817" lon="-8.0409433"><ele>1110.0</ele><time>2026-04-18T10:05:33.784Z</time></trkpt><trkpt lat="42.0415117" lon="-8.0410017"><ele>1108.6666666666667</ele><time>2026-04-18T10:05:34.784Z</time></trkpt><trkpt lat="42.04144" lon="-8.0410567"><ele>1107.3333333333335</ele><time>2026-04-18T10:05:35.787Z</time></trkpt><trkpt lat="42.0413733" lon="-8.0411133"><ele>1106.0</ele><time>2026-04-18T10:05:36.788Z</time></trkpt><trkpt lat="42.0413067" lon="-8.0411583"><ele>1104.4285714285713</ele><time>2026-04-18T10:05:37.783Z</time></trkpt><trkpt lat="42.0412333" lon="-8.0412067"><ele>1102.857142857143</ele><time>2026-04-18T10:05:38.784Z</time></trkpt><trkpt lat="42.0411683" lon="-8.0412517"><ele>1101.2857142857142</ele><time>2026-04-18T10:05:39.783Z</time></trkpt><trkpt lat="42.0411" lon="-8.0412817"><ele>1099.7142857142858</ele><time>2026-04-18T10:05:40.785Z</time></trkpt><trkpt lat="42.04103" lon="-8.0412967"><ele>1098.142857142857</ele><time>2026-04-18T10:05:41.787Z</time></trkpt><trkpt lat="42.0409633" lon="-8.041305"><ele>1096.5714285714284</ele><time>2026-04-18T10:05:42.784Z</time></trkpt><trkpt lat="42.0408967" lon="-8.0413117"><ele>1095.0</ele><time>2026-04-18T10:05:43.786Z</time></trkpt><trkpt lat="42.04083" lon="-8.0413083"><ele>1093.8333333333333</ele><time>2026-04-18T10:05:44.787Z</time></trkpt><trkpt lat="42.0407617" lon="-8.0413017"><ele>1092.6666666666667</ele><time>2026-04-18T10:05:45.783Z</time></trkpt><trkpt lat="42.0406983" lon="-8.0413017"><ele>1091.5</ele><time>2026-04-18T10:05:46.788Z</time></trkpt><trkpt lat="42.0405717" lon="-8.0413083"><ele>1090.3333333333335</ele><time>2026-04-18T10:05:48.784Z</time></trkpt><trkpt lat="42.0405083" lon="-8.04132"><ele>1089.1666666666667</ele><time>2026-04-18T10:05:49.785Z</time></trkpt><trkpt lat="42.04042" lon="-8.0413783"><ele>1088.0</ele><time>2026-04-18T10:05:51.784Z</time></trkpt><trkpt lat="42.0403417" lon="-8.0414567"><ele>1087.9999999999998</ele><time>2026-04-18T10:05:53.784Z</time></trkpt><trkpt lat="42.040285" lon="-8.04153"><ele>1088.0</ele><time>2026-04-18T10:05:55.785Z</time></trkpt><trkpt lat="42.0402533" lon="-8.04161"><ele>1088.0</ele><time>2026-04-18T10:05:59.784Z</time></trkpt><trkpt lat="42.0402283" lon="-8.041725"><ele>1088.0</ele><time>2026-04-18T10:06:15.782Z</time></trkpt><trkpt lat="42.040275" lon="-8.0417917"><ele>1088.0</ele><time>2026-04-18T10:06:21.786Z</time></trkpt><trkpt lat="42.0403133" lon="-8.0418633"><ele>1087.9999999999998</ele><time>2026-04-18T10:06:23.782Z</time></trkpt><trkpt lat="42.0403133" lon="-8.041965"><ele>1088.0</ele><time>2026-04-18T10:06:25.783Z</time></trkpt><trkpt lat="42.040305" lon="-8.0420617"><ele>1086.9999999999998</ele><time>2026-04-18T10:06:27.783Z</time></trkpt><trkpt lat="42.0403067" lon="-8.0421867"><ele>1086.0</ele><time>2026-04-18T10:06:29.785Z</time></trkpt><trkpt lat="42.0403017" lon="-8.0422817"><ele>1085.0</ele><time>2026-04-18T10:06:31.783Z</time></trkpt><trkpt lat="42.04029" lon="-8.0423733"><ele>1084.0</ele><time>2026-04-18T10:06:34.783Z</time></trkpt><trkpt lat="42.0402783" lon="-8.0424633"><ele>1083.0</ele><time>2026-04-18T10:06:38.783Z</time></trkpt><trkpt lat="42.0402683" lon="-8.04255"><ele>1081.9999999999998</ele><time>2026-04-18T10:06:41.783Z</time></trkpt><trkpt lat="42.0402467" lon="-8.0426417"><ele>1081.0</ele><time>2026-04-18T10:07:08.783Z</time></trkpt><trkpt lat="42.0402333" lon="-8.0427817"><ele>1079.1666666666665</ele><time>2026-04-18T10:07:10.784Z</time></trkpt><trkpt lat="42.0402117" lon="-8.042895"><ele>1077.3333333333333</ele><time>2026-04-18T10:07:11.783Z</time></trkpt><trkpt lat="42.0401917" lon="-8.042995"><ele>1075.5</ele><time>2026-04-18T10:07:12.784Z</time></trkpt><trkpt lat="42.0401767" lon="-8.0431"><ele>1073.6666666666667</ele><time>2026-04-18T10:07:13.785Z</time></trkpt><trkpt lat="42.04016" lon="-8.0432117"><ele>1071.8333333333335</ele><time>2026-04-18T10:07:14.785Z</time></trkpt><trkpt lat="42.040145" lon="-8.043305"><ele>1070.0</ele><time>2026-04-18T10:07:15.785Z</time></trkpt><trkpt lat="42.0401317" lon="-8.0433967"><ele>1068.2</ele><time>2026-04-18T10:07:16.784Z</time></trkpt><trkpt lat="42.04012" lon="-8.04348"><ele>1066.4</ele><time>2026-04-18T10:07:17.784Z</time></trkpt><trkpt lat="42.0400917" lon="-8.04363"><ele>1064.6</ele><time>2026-04-18T10:07:19.784Z</time></trkpt><trkpt lat="42.0400667" lon="-8.0437917"><ele>1062.8</ele><time>2026-04-18T10:07:21.784Z</time></trkpt><trkpt lat="42.0400567" lon="-8.0438817"><ele>1061.0</ele><time>2026-04-18T10:07:22.785Z</time></trkpt><trkpt lat="42.04006" lon="-8.0440483"><ele>1059.2</ele><time>2026-04-18T10:07:24.785Z</time></trkpt><trkpt lat="42.0400667" lon="-8.044195"><ele>1057.3999999999999</ele><time>2026-04-18T10:07:26.785Z</time></trkpt><trkpt lat="42.04005" lon="-8.04437"><ele>1055.6</ele><time>2026-04-18T10:07:28.784Z</time></trkpt><trkpt lat="42.04004" lon="-8.0444917"><ele>1053.8</ele><time>2026-04-18T10:07:29.787Z</time></trkpt><trkpt lat="42.0400133" lon="-8.044635"><ele>1052.0</ele><time>2026-04-18T10:07:30.785Z</time></trkpt><trkpt lat="42.0399833" lon="-8.0447767"><ele>1050.8</ele><time>2026-04-18T10:07:31.784Z</time></trkpt><trkpt lat="42.0399617" lon="-8.0449167"><ele>1049.6</ele><time>2026-04-18T10:07:32.789Z</time></trkpt><trkpt lat="42.03994" lon="-8.0450567"><ele>1048.3999999999999</ele><time>2026-04-18T10:07:33.784Z</time></trkpt><trkpt lat="42.0399133" lon="-8.0451917"><ele>1047.2</ele><time>2026-04-18T10:07:34.784Z</time></trkpt><trkpt lat="42.0398883" lon="-8.0453133"><ele>1046.0</ele><time>2026-04-18T10:07:35.784Z</time></trkpt><trkpt lat="42.0398533" lon="-8.045435"><ele>1044.0</ele><time>2026-04-18T10:07:36.784Z</time></trkpt><trkpt lat="42.0398167" lon="-8.0455483"><ele>1042.0</ele><time>2026-04-18T10:07:37.785Z</time></trkpt><trkpt lat="42.0397783" lon="-8.0456517"><ele>1040.0</ele><time>2026-04-18T10:07:38.785Z</time></trkpt><trkpt lat="42.03975" lon="-8.0457467"><ele>1038.0</ele><time>2026-04-18T10:07:39.784Z</time></trkpt><trkpt lat="42.03972" lon="-8.0458317"><ele>1036.0</ele><time>2026-04-18T10:07:40.785Z</time></trkpt><trkpt lat="42.0396683" lon="-8.045965"><ele>1034.0</ele><time>2026-04-18T10:07:42.783Z</time></trkpt><trkpt lat="42.0396117" lon="-8.0461083"><ele>1032.6000000000001</ele><time>2026-04-18T10:07:44.784Z</time></trkpt><trkpt lat="42.0395767" lon="-8.04626"><ele>1031.2</ele><time>2026-04-18T10:07:46.786Z</time></trkpt><trkpt lat="42.0395567" lon="-8.04641"><ele>1029.8000000000002</ele><time>2026-04-18T10:07:48.784Z</time></trkpt><trkpt lat="42.0395483" lon="-8.0465783"><ele>1028.4</ele><time>2026-04-18T10:07:50.784Z</time></trkpt><trkpt lat="42.0395483" lon="-8.0466917"><ele>1027.0</ele><time>2026-04-18T10:07:51.786Z</time></trkpt><trkpt lat="42.03955" lon="-8.0468233"><ele>1026.0</ele><time>2026-04-18T10:07:52.783Z</time></trkpt><trkpt lat="42.039545" lon="-8.046965"><ele>1025.0</ele><time>2026-04-18T10:07:53.783Z</time></trkpt><trkpt lat="42.0395433" lon="-8.0471083"><ele>1024.0</ele><time>2026-04-18T10:07:54.784Z</time></trkpt><trkpt lat="42.0395433" lon="-8.0472467"><ele>1023.0</ele><time>2026-04-18T10:07:55.785Z</time></trkpt><trkpt lat="42.03954" lon="-8.04737"><ele>1022.0</ele><time>2026-04-18T10:07:56.786Z</time></trkpt><trkpt lat="42.0395383" lon="-8.0474817"><ele>1021.1666666666667</ele><time>2026-04-18T10:07:57.783Z</time></trkpt><trkpt lat="42.0395367" lon="-8.0475683"><ele>1020.3333333333334</ele><time>2026-04-18T10:07:58.786Z</time></trkpt><trkpt lat="42.0395533" lon="-8.0477217"><ele>1019.5</ele><time>2026-04-18T10:08:00.785Z</time></trkpt><trkpt lat="42.0396167" lon="-8.04781"><ele>1018.6666666666667</ele><time>2026-04-18T10:08:02.785Z</time></trkpt><trkpt lat="42.03968" lon="-8.047865"><ele>1017.8333333333334</ele><time>2026-04-18T10:08:04.784Z</time></trkpt><trkpt lat="42.0397233" lon="-8.0479633"><ele>1017.0</ele><time>2026-04-18T10:08:08.785Z</time></trkpt><trkpt lat="42.03973" lon="-8.0480567"><ele>1017.0</ele><time>2026-04-18T10:08:10.785Z</time></trkpt><trkpt lat="42.039655" lon="-8.04814"><ele>1017.0</ele><time>2026-04-18T10:08:13.785Z</time></trkpt><trkpt lat="42.0395767" lon="-8.0482033"><ele>1017.0</ele><time>2026-04-18T10:08:15.783Z</time></trkpt><trkpt lat="42.0395" lon="-8.0483267"><ele>1017.0</ele><time>2026-04-18T10:08:17.784Z</time></trkpt><trkpt lat="42.0394833" lon="-8.0484717"><ele>1017.0</ele><time>2026-04-18T10:08:19.786Z</time></trkpt><trkpt lat="42.039545" lon="-8.0486133"><ele>1016.4000000000001</ele><time>2026-04-18T10:08:21.784Z</time></trkpt><trkpt lat="42.0395767" lon="-8.0487133"><ele>1015.8000000000001</ele><time>2026-04-18T10:08:23.788Z</time></trkpt><trkpt lat="42.0395233" lon="-8.0487667"><ele>1015.2</ele><time>2026-04-18T10:08:25.785Z</time></trkpt><trkpt lat="42.03936" lon="-8.048765"><ele>1014.6</ele><time>2026-04-18T10:08:27.783Z</time></trkpt><trkpt lat="42.03926" lon="-8.0487517"><ele>1014.0</ele><time>2026-04-18T10:08:28.784Z</time></trkpt><trkpt lat="42.039145" lon="-8.0487283"><ele>1011.25</ele><time>2026-04-18T10:08:29.784Z</time></trkpt><trkpt lat="42.0390283" lon="-8.048705"><ele>1008.5</ele><time>2026-04-18T10:08:30.785Z</time></trkpt><trkpt lat="42.038915" lon="-8.0486833"><ele>1005.75</ele><time>2026-04-18T10:08:31.785Z</time></trkpt><trkpt lat="42.038795" lon="-8.0486517"><ele>1003.0</ele><time>2026-04-18T10:08:32.785Z</time></trkpt><trkpt lat="42.03868" lon="-8.0486183"><ele>1003.0</ele><time>2026-04-18T10:08:33.786Z</time></trkpt><trkpt lat="42.038565" lon="-8.0485817"><ele>1003.0</ele><time>2026-04-18T10:08:34.784Z</time></trkpt><trkpt lat="42.03845" lon="-8.0485517"><ele>1003.0</ele><time>2026-04-18T10:08:35.784Z</time></trkpt><trkpt lat="42.0383333" lon="-8.0485233"><ele>1003.0</ele><time>2026-04-18T10:08:36.784Z</time></trkpt><trkpt lat="42.03822" lon="-8.0485"><ele>1001.0</ele><time>2026-04-18T10:08:37.784Z</time></trkpt><trkpt lat="42.0381083" lon="-8.0484833"><ele>999.0</ele><time>2026-04-18T10:08:38.784Z</time></trkpt><trkpt lat="42.0380033" lon="-8.0484767"><ele>997.0</ele><time>2026-04-18T10:08:39.783Z</time></trkpt><trkpt lat="42.0378917" lon="-8.04846"><ele>995.0</ele><time>2026-04-18T10:08:40.784Z</time></trkpt><trkpt lat="42.03776" lon="-8.0484367"><ele>995.0</ele><time>2026-04-18T10:08:41.784Z</time></trkpt><trkpt lat="42.0376233" lon="-8.0484167"><ele>995.0</ele><time>2026-04-18T10:08:42.784Z</time></trkpt><trkpt lat="42.0375033" lon="-8.0484017"><ele>995.0</ele><time>2026-04-18T10:08:43.786Z</time></trkpt><trkpt lat="42.0374017" lon="-8.0483933"><ele>995.0</ele><time>2026-04-18T10:08:44.784Z</time></trkpt><trkpt lat="42.0373083" lon="-8.048385"><ele>993.6</ele><time>2026-04-18T10:08:45.784Z</time></trkpt><trkpt lat="42.037215" lon="-8.048385"><ele>992.2</ele><time>2026-04-18T10:08:46.788Z</time></trkpt><trkpt lat="42.03712" lon="-8.0483883"><ele>990.8</ele><time>2026-04-18T10:08:47.784Z</time></trkpt><trkpt lat="42.0370233" lon="-8.04839"><ele>989.4</ele><time>2026-04-18T10:08:48.785Z</time></trkpt><trkpt lat="42.0369233" lon="-8.0483833"><ele>988.0</ele><time>2026-04-18T10:08:49.786Z</time></trkpt><trkpt lat="42.0368267" lon="-8.04837"><ele>987.9999999999999</ele><time>2026-04-18T10:08:50.784Z</time></trkpt><trkpt lat="42.0367383" lon="-8.048355"><ele>988.0</ele><time>2026-04-18T10:08:51.787Z</time></trkpt><trkpt lat="42.03666" lon="-8.0483433"><ele>988.0</ele><time>2026-04-18T10:08:52.784Z</time></trkpt><trkpt lat="42.0365833" lon="-8.0483317"><ele>988.0</ele><time>2026-04-18T10:08:53.785Z</time></trkpt><trkpt lat="42.036505" lon="-8.04831"><ele>987.9999999999999</ele><time>2026-04-18T10:08:54.787Z</time></trkpt><trkpt lat="42.03642" lon="-8.048275"><ele>988.0</ele><time>2026-04-18T10:08:55.783Z</time></trkpt><trkpt lat="42.0363317" lon="-8.04824"><ele>985.8</ele><time>2026-04-18T10:08:56.786Z</time></trkpt><trkpt lat="42.036245" lon="-8.048205"><ele>983.5999999999999</ele><time>2026-04-18T10:08:57.784Z</time></trkpt><trkpt lat="42.0361617" lon="-8.0481683"><ele>981.4000000000001</ele><time>2026-04-18T10:08:58.785Z</time></trkpt><trkpt lat="42.0360733" lon="-8.0481283"><ele>979.2</ele><time>2026-04-18T10:08:59.785Z</time></trkpt><trkpt lat="42.0359667" lon="-8.0480783"><ele>977.0</ele><time>2026-04-18T10:09:00.786Z</time></trkpt><trkpt lat="42.035865" lon="-8.0480383"><ele>975.1666666666667</ele><time>2026-04-18T10:09:01.785Z</time></trkpt><trkpt lat="42.0357733" lon="-8.048"><ele>973.3333333333334</ele><time>2026-04-18T10:09:02.785Z</time></trkpt><trkpt lat="42.0356817" lon="-8.0479633"><ele>971.5</ele><time>2026-04-18T10:09:03.786Z</time></trkpt><trkpt lat="42.0355917" lon="-8.0479317"><ele>969.6666666666667</ele><time>2026-04-18T10:09:04.784Z</time></trkpt><trkpt lat="42.03551" lon="-8.0478983"><ele>967.8333333333334</ele><time>2026-04-18T10:09:05.785Z</time></trkpt><trkpt lat="42.03544" lon="-8.04787"><ele>966.0</ele><time>2026-04-18T10:09:06.786Z</time></trkpt><trkpt lat="42.0353783" lon="-8.0478467"><ele>966.0</ele><time>2026-04-18T10:09:07.785Z</time></trkpt><trkpt lat="42.0352883" lon="-8.0478517"><ele>966.0</ele><time>2026-04-18T10:09:09.787Z</time></trkpt><trkpt lat="42.0352033" lon="-8.0478767"><ele>966.0</ele><time>2026-04-18T10:09:11.785Z</time></trkpt><trkpt lat="42.035125" lon="-8.0479"><ele>966.0</ele><time>2026-04-18T10:09:13.785Z</time></trkpt><trkpt lat="42.0350433" lon="-8.0479117"><ele>966.0</ele><time>2026-04-18T10:09:15.784Z</time></trkpt><trkpt lat="42.0349683" lon="-8.047925"><ele>966.0</ele><time>2026-04-18T10:09:17.785Z</time></trkpt><trkpt lat="42.0349283" lon="-8.0480117"><ele>965.8333333333334</ele><time>2026-04-18T10:09:20.787Z</time></trkpt><trkpt lat="42.034925" lon="-8.0481"><ele>965.6666666666667</ele><time>2026-04-18T10:09:22.783Z</time></trkpt><trkpt lat="42.0349167" lon="-8.0482167"><ele>965.5</ele><time>2026-04-18T10:09:25.784Z</time></trkpt><trkpt lat="42.0348617" lon="-8.048295"><ele>965.3333333333334</ele><time>2026-04-18T10:09:28.784Z</time></trkpt><trkpt lat="42.0347833" lon="-8.048325"><ele>965.1666666666667</ele><time>2026-04-18T10:09:31.784Z</time></trkpt><trkpt lat="42.0346833" lon="-8.0483883"><ele>965.0</ele><time>2026-04-18T10:11:19.785Z</time></trkpt><trkpt lat="42.03458" lon="-8.0484383"><ele>965.0</ele><time>2026-04-18T10:13:20.784Z</time></trkpt><trkpt lat="42.034505" lon="-8.0483833"><ele>965.0</ele><time>2026-04-18T10:13:22.784Z</time></trkpt><trkpt lat="42.0344433" lon="-8.0483383"><ele>965.0</ele><time>2026-04-18T10:13:23.784Z</time></trkpt><trkpt lat="42.0343633" lon="-8.04829"><ele>965.0</ele><time>2026-04-18T10:13:24.784Z</time></trkpt><trkpt lat="42.0342683" lon="-8.0482333"><ele>965.0</ele><time>2026-04-18T10:13:25.784Z</time></trkpt><trkpt lat="42.0341533" lon="-8.0481733"><ele>964.2</ele><time>2026-04-18T10:13:26.784Z</time></trkpt><trkpt lat="42.0340467" lon="-8.0481183"><ele>963.4</ele><time>2026-04-18T10:13:27.784Z</time></trkpt><trkpt lat="42.0339417" lon="-8.0480617"><ele>962.5999999999999</ele><time>2026-04-18T10:13:28.785Z</time></trkpt><trkpt lat="42.0338483" lon="-8.048025"><ele>961.8</ele><time>2026-04-18T10:13:29.784Z</time></trkpt><trkpt lat="42.033765" lon="-8.0480117"><ele>961.0</ele><time>2026-04-18T10:13:30.784Z</time></trkpt><trkpt lat="42.0336883" lon="-8.0480167"><ele>960.9999999999999</ele><time>2026-04-18T10:13:31.783Z</time></trkpt><trkpt lat="42.033615" lon="-8.0480383"><ele>961.0</ele><time>2026-04-18T10:13:32.785Z</time></trkpt><trkpt lat="42.0335383" lon="-8.0480833"><ele>961.0</ele><time>2026-04-18T10:13:33.785Z</time></trkpt><trkpt lat="42.0334717" lon="-8.04814"><ele>961.0</ele><time>2026-04-18T10:13:34.787Z</time></trkpt><trkpt lat="42.0333983" lon="-8.048195"><ele>960.9999999999999</ele><time>2026-04-18T10:13:35.784Z</time></trkpt><trkpt lat="42.0333283" lon="-8.0482517"><ele>961.0</ele><time>2026-04-18T10:13:36.785Z</time></trkpt><trkpt lat="42.0332667" lon="-8.0483167"><ele>961.0</ele><time>2026-04-18T10:13:37.784Z</time></trkpt><trkpt lat="42.0332183" lon="-8.0483867"><ele>960.9999999999999</ele><time>2026-04-18T10:13:38.784Z</time></trkpt><trkpt lat="42.0331917" lon="-8.0484733"><ele>961.0</ele><time>2026-04-18T10:13:39.785Z</time></trkpt><trkpt lat="42.033195" lon="-8.04857"><ele>961.0</ele><time>2026-04-18T10:13:40.784Z</time></trkpt><trkpt lat="42.03321" lon="-8.0486633"><ele>960.9999999999999</ele><time>2026-04-18T10:13:41.784Z</time></trkpt><trkpt lat="42.0332167" lon="-8.0487567"><ele>961.0</ele><time>2026-04-18T10:13:42.784Z</time></trkpt><trkpt lat="42.0332117" lon="-8.0488433"><ele>961.0</ele><time>2026-04-18T10:13:43.785Z</time></trkpt><trkpt lat="42.0332167" lon="-8.048965"><ele>961.0</ele><time>2026-04-18T10:13:44.784Z</time></trkpt><trkpt lat="42.0332217" lon="-8.0490767"><ele>960.9999999999999</ele><time>2026-04-18T10:13:45.784Z</time></trkpt><trkpt lat="42.033225" lon="-8.049195"><ele>961.0</ele><time>2026-04-18T10:13:46.784Z</time></trkpt><trkpt lat="42.0332383" lon="-8.049285"><ele>961.0</ele><time>2026-04-18T10:13:47.784Z</time></trkpt><trkpt lat="42.0332433" lon="-8.0493767"><ele>960.9999999999999</ele><time>2026-04-18T10:13:48.785Z</time></trkpt><trkpt lat="42.0332417" lon="-8.0494617"><ele>961.0</ele><time>2026-04-18T10:13:49.784Z</time></trkpt><trkpt lat="42.0332283" lon="-8.049545"><ele>961.0</ele><time>2026-04-18T10:13:50.783Z</time></trkpt><trkpt lat="42.0332" lon="-8.0496367"><ele>959.1666666666666</ele><time>2026-04-18T10:13:51.782Z</time></trkpt><trkpt lat="42.03316" lon="-8.0497283"><ele>957.3333333333333</ele><time>2026-04-18T10:13:52.782Z</time></trkpt><trkpt lat="42.0331317" lon="-8.0498167"><ele>955.5</ele><time>2026-04-18T10:13:53.783Z</time></trkpt><trkpt lat="42.0331083" lon="-8.0499033"><ele>953.6666666666667</ele><time>2026-04-18T10:13:54.783Z</time></trkpt><trkpt lat="42.03309" lon="-8.0500017"><ele>951.8333333333334</ele><time>2026-04-18T10:13:55.783Z</time></trkpt><trkpt lat="42.0330783" lon="-8.0501133"><ele>950.0</ele><time>2026-04-18T10:13:56.785Z</time></trkpt><trkpt lat="42.0330633" lon="-8.0502267"><ele>949.6666666666667</ele><time>2026-04-18T10:13:57.785Z</time></trkpt><trkpt lat="42.033035" lon="-8.0503483"><ele>949.3333333333334</ele><time>2026-04-18T10:13:58.782Z</time></trkpt><trkpt lat="42.0330117" lon="-8.050475"><ele>949.0</ele><time>2026-04-18T10:13:59.783Z</time></trkpt><trkpt lat="42.0329983" lon="-8.0505967"><ele>948.6666666666667</ele><time>2026-04-18T10:14:00.783Z</time></trkpt><trkpt lat="42.0329933" lon="-8.0507117"><ele>948.3333333333334</ele><time>2026-04-18T10:14:01.782Z</time></trkpt><trkpt lat="42.0329833" lon="-8.0508033"><ele>948.0</ele><time>2026-04-18T10:14:02.783Z</time></trkpt><trkpt lat="42.0329217" lon="-8.0509433"><ele>947.9999999999999</ele><time>2026-04-18T10:14:04.784Z</time></trkpt><trkpt lat="42.03286" lon="-8.05099"><ele>948.0</ele><time>2026-04-18T10:14:05.783Z</time></trkpt><trkpt lat="42.032785" lon="-8.0510117"><ele>947.9999999999999</ele><time>2026-04-18T10:14:06.784Z</time></trkpt><trkpt lat="42.0327083" lon="-8.051035"><ele>947.9999999999999</ele><time>2026-04-18T10:14:07.783Z</time></trkpt><trkpt lat="42.0326433" lon="-8.051075"><ele>948.0</ele><time>2026-04-18T10:14:08.783Z</time></trkpt><trkpt lat="42.0325833" lon="-8.0511317"><ele>947.9999999999999</ele><time>2026-04-18T10:14:09.784Z</time></trkpt><trkpt lat="42.0325217" lon="-8.0511933"><ele>947.9999999999999</ele><time>2026-04-18T10:14:10.786Z</time></trkpt><trkpt lat="42.0324467" lon="-8.0512483"><ele>945.8</ele><time>2026-04-18T10:14:11.782Z</time></trkpt><trkpt lat="42.0323683" lon="-8.0512917"><ele>943.5999999999999</ele><time>2026-04-18T10:14:12.785Z</time></trkpt><trkpt lat="42.03228" lon="-8.051315"><ele>941.4000000000001</ele><time>2026-04-18T10:14:13.784Z</time></trkpt><trkpt lat="42.0321867" lon="-8.0513183"><ele>939.2</ele><time>2026-04-18T10:14:14.788Z</time></trkpt><trkpt lat="42.0320783" lon="-8.0512817"><ele>937.0</ele><time>2026-04-18T10:14:15.785Z</time></trkpt><trkpt lat="42.0319817" lon="-8.051245"><ele>937.0</ele><time>2026-04-18T10:14:16.783Z</time></trkpt><trkpt lat="42.0318867" lon="-8.0512083"><ele>937.0</ele><time>2026-04-18T10:14:17.784Z</time></trkpt><trkpt lat="42.0317967" lon="-8.051175"><ele>937.0</ele><time>2026-04-18T10:14:18.784Z</time></trkpt><trkpt lat="42.031695" lon="-8.0511583"><ele>937.0</ele><time>2026-04-18T10:14:19.784Z</time></trkpt><trkpt lat="42.0315717" lon="-8.05118"><ele>937.0</ele><time>2026-04-18T10:14:20.784Z</time></trkpt><trkpt lat="42.0314467" lon="-8.051215"><ele>935.0</ele><time>2026-04-18T10:14:21.784Z</time></trkpt><trkpt lat="42.03134" lon="-8.0512583"><ele>933.0</ele><time>2026-04-18T10:14:22.787Z</time></trkpt><trkpt lat="42.0312283" lon="-8.0512867"><ele>931.0</ele><time>2026-04-18T10:14:23.782Z</time></trkpt><trkpt lat="42.031115" lon="-8.0512933"><ele>929.0</ele><time>2026-04-18T10:14:24.784Z</time></trkpt><trkpt lat="42.031" lon="-8.0512867"><ele>929.0000000000001</ele><time>2026-04-18T10:14:25.787Z</time></trkpt><trkpt lat="42.0308983" lon="-8.0512733"><ele>929.0</ele><time>2026-04-18T10:14:26.784Z</time></trkpt><trkpt lat="42.030805" lon="-8.0512467"><ele>929.0</ele><time>2026-04-18T10:14:27.785Z</time></trkpt><trkpt lat="42.03072" lon="-8.05121"><ele>929.0</ele><time>2026-04-18T10:14:28.786Z</time></trkpt><trkpt lat="42.0306483" lon="-8.0511783"><ele>929.0000000000001</ele><time>2026-04-18T10:14:29.783Z</time></trkpt><trkpt lat="42.030585" lon="-8.0511567"><ele>929.0</ele><time>2026-04-18T10:14:30.785Z</time></trkpt><trkpt lat="42.0305017" lon="-8.05118"><ele>926.6666666666667</ele><time>2026-04-18T10:14:32.785Z</time></trkpt><trkpt lat="42.0304933" lon="-8.051295"><ele>924.3333333333334</ele><time>2026-04-18T10:14:34.785Z</time></trkpt><trkpt lat="42.0305" lon="-8.0514167"><ele>922.0</ele><time>2026-04-18T10:14:36.784Z</time></trkpt><trkpt lat="42.0305367" lon="-8.051535"><ele>919.6666666666667</ele><time>2026-04-18T10:14:38.784Z</time></trkpt><trkpt lat="42.0305833" lon="-8.0516017"><ele>917.3333333333334</ele><time>2026-04-18T10:14:39.785Z</time></trkpt><trkpt lat="42.03064" lon="-8.05167"><ele>915.0</ele><time>2026-04-18T10:14:40.786Z</time></trkpt><trkpt lat="42.030715" lon="-8.0517417"><ele>918.5</ele><time>2026-04-18T10:14:41.783Z</time></trkpt><trkpt lat="42.030825" lon="-8.051805"><ele>922.0</ele><time>2026-04-18T10:14:42.787Z</time></trkpt><trkpt lat="42.0309467" lon="-8.0518483"><ele>925.5</ele><time>2026-04-18T10:14:43.784Z</time></trkpt><trkpt lat="42.0310483" lon="-8.0519067"><ele>929.0</ele><time>2026-04-18T10:14:44.785Z</time></trkpt><trkpt lat="42.0311383" lon="-8.051975"><ele>929.0</ele><time>2026-04-18T10:14:45.785Z</time></trkpt><trkpt lat="42.0312133" lon="-8.052065"><ele>929.0000000000001</ele><time>2026-04-18T10:14:46.785Z</time></trkpt><trkpt lat="42.03125" lon="-8.0521817"><ele>929.0000000000001</ele><time>2026-04-18T10:14:47.786Z</time></trkpt><trkpt lat="42.0312683" lon="-8.052305"><ele>929.0</ele><time>2026-04-18T10:14:48.784Z</time></trkpt><trkpt lat="42.0312483" lon="-8.052435"><ele>929.0</ele><time>2026-04-18T10:14:49.783Z</time></trkpt><trkpt lat="42.0312" lon="-8.052555"><ele>928.75</ele><time>2026-04-18T10:14:50.783Z</time></trkpt><trkpt lat="42.0310967" lon="-8.0526533"><ele>928.5</ele><time>2026-04-18T10:14:51.783Z</time></trkpt><trkpt lat="42.030975" lon="-8.052735"><ele>928.25</ele><time>2026-04-18T10:14:52.787Z</time></trkpt><trkpt lat="42.0308217" lon="-8.0527867"><ele>928.0</ele><time>2026-04-18T10:14:53.783Z</time></trkpt><trkpt lat="42.030675" lon="-8.052825"><ele>926.5</ele><time>2026-04-18T10:14:54.783Z</time></trkpt><trkpt lat="42.0305383" lon="-8.05285"><ele>925.0</ele><time>2026-04-18T10:14:55.783Z</time></trkpt><trkpt lat="42.030415" lon="-8.052885"><ele>923.5</ele><time>2026-04-18T10:14:56.783Z</time></trkpt><trkpt lat="42.030305" lon="-8.052955"><ele>922.0</ele><time>2026-04-18T10:14:57.783Z</time></trkpt><trkpt lat="42.030225" lon="-8.0530667"><ele>922.0</ele><time>2026-04-18T10:14:58.784Z</time></trkpt><trkpt lat="42.0301667" lon="-8.0531917"><ele>922.0</ele><time>2026-04-18T10:14:59.783Z</time></trkpt><trkpt lat="42.0301233" lon="-8.05335"><ele>922.0</ele><time>2026-04-18T10:15:00.783Z</time></trkpt><trkpt lat="42.0300867" lon="-8.0535183"><ele>922.0</ele><time>2026-04-18T10:15:01.783Z</time></trkpt><trkpt lat="42.0300567" lon="-8.053695"><ele>922.5</ele><time>2026-04-18T10:15:02.785Z</time></trkpt><trkpt lat="42.030025" lon="-8.05387"><ele>923.0</ele><time>2026-04-18T10:15:03.783Z</time></trkpt><trkpt lat="42.0299917" lon="-8.0540467"><ele>923.5</ele><time>2026-04-18T10:15:04.784Z</time></trkpt><trkpt lat="42.02996" lon="-8.0542233"><ele>924.0</ele><time>2026-04-18T10:15:05.784Z</time></trkpt><trkpt lat="42.0299317" lon="-8.054385"><ele>924.0</ele><time>2026-04-18T10:15:06.783Z</time></trkpt><trkpt lat="42.0299233" lon="-8.0545333"><ele>924.0000000000001</ele><time>2026-04-18T10:15:07.784Z</time></trkpt><trkpt lat="42.029935" lon="-8.05467"><ele>924.0000000000001</ele><time>2026-04-18T10:15:08.784Z</time></trkpt><trkpt lat="42.02998" lon="-8.0547833"><ele>924.0</ele><time>2026-04-18T10:15:09.787Z</time></trkpt><trkpt lat="42.0300517" lon="-8.0548533"><ele>924.0</ele><time>2026-04-18T10:15:10.783Z</time></trkpt><trkpt lat="42.030135" lon="-8.054905"><ele>927.0</ele><time>2026-04-18T10:15:11.783Z</time></trkpt><trkpt lat="42.030265" lon="-8.05488"><ele>930.0</ele><time>2026-04-18T10:15:12.784Z</time></trkpt><trkpt lat="42.0303767" lon="-8.05489"><ele>933.0</ele><time>2026-04-18T10:15:13.783Z</time></trkpt><trkpt lat="42.0304933" lon="-8.0549"><ele>936.0</ele><time>2026-04-18T10:15:14.784Z</time></trkpt><trkpt lat="42.0306067" lon="-8.054905"><ele>936.0</ele><time>2026-04-18T10:15:15.783Z</time></trkpt><trkpt lat="42.0307133" lon="-8.0549083"><ele>935.9999999999999</ele><time>2026-04-18T10:15:16.784Z</time></trkpt><trkpt lat="42.0308" lon="-8.05492"><ele>935.9999999999999</ele><time>2026-04-18T10:15:17.783Z</time></trkpt><trkpt lat="42.0308733" lon="-8.05493"><ele>936.0</ele><time>2026-04-18T10:15:18.783Z</time></trkpt><trkpt lat="42.030955" lon="-8.055015"><ele>936.0</ele><time>2026-04-18T10:15:20.783Z</time></trkpt><trkpt lat="42.03094" lon="-8.0552067"><ele>938.3333333333334</ele><time>2026-04-18T10:15:22.784Z</time></trkpt><trkpt lat="42.0309183" lon="-8.0553117"><ele>940.6666666666667</ele><time>2026-04-18T10:15:23.783Z</time></trkpt><trkpt lat="42.0309067" lon="-8.0554083"><ele>943.0</ele><time>2026-04-18T10:15:24.785Z</time></trkpt><trkpt lat="42.0309317" lon="-8.055505"><ele>945.3333333333334</ele><time>2026-04-18T10:15:25.783Z</time></trkpt><trkpt lat="42.0309717" lon="-8.0555767"><ele>947.6666666666667</ele><time>2026-04-18T10:15:26.786Z</time></trkpt><trkpt lat="42.0310633" lon="-8.0556817"><ele>950.0</ele><time>2026-04-18T10:15:28.783Z</time></trkpt><trkpt lat="42.0311083" lon="-8.055805"><ele>950.0000000000001</ele><time>2026-04-18T10:15:30.783Z</time></trkpt><trkpt lat="42.031155" lon="-8.05593"><ele>950.0</ele><time>2026-04-18T10:15:32.784Z</time></trkpt><trkpt lat="42.031245" lon="-8.0560483"><ele>950.0</ele><time>2026-04-18T10:15:34.784Z</time></trkpt><trkpt lat="42.0312967" lon="-8.0561083"><ele>950.0</ele><time>2026-04-18T10:15:35.784Z</time></trkpt><trkpt lat="42.0313567" lon="-8.0561567"><ele>950.0000000000001</ele><time>2026-04-18T10:15:36.784Z</time></trkpt><trkpt lat="42.0314117" lon="-8.0562117"><ele>950.0</ele><time>2026-04-18T10:15:37.786Z</time></trkpt><trkpt lat="42.03147" lon="-8.0562683"><ele>950.0</ele><time>2026-04-18T10:15:38.786Z</time></trkpt><trkpt lat="42.031525" lon="-8.05631"><ele>950.0</ele><time>2026-04-18T10:15:39.784Z</time></trkpt><trkpt lat="42.0316167" lon="-8.05639"><ele>950.0</ele><time>2026-04-18T10:15:41.784Z</time></trkpt><trkpt lat="42.0316883" lon="-8.0564767"><ele>950.0</ele><time>2026-04-18T10:15:43.784Z</time></trkpt><trkpt lat="42.0317867" lon="-8.0565267"><ele>950.0</ele><time>2026-04-18T10:15:45.784Z</time></trkpt><trkpt lat="42.0318783" lon="-8.05661"><ele>951.1666666666667</ele><time>2026-04-18T10:15:47.784Z</time></trkpt><trkpt lat="42.0319533" lon="-8.056685"><ele>952.3333333333334</ele><time>2026-04-18T10:15:49.784Z</time></trkpt><trkpt lat="42.03201" lon="-8.0567383"><ele>953.5</ele><time>2026-04-18T10:15:51.786Z</time></trkpt><trkpt lat="42.0320333" lon="-8.0568317"><ele>954.6666666666667</ele><time>2026-04-18T10:25:04.785Z</time></trkpt><trkpt lat="42.03201" lon="-8.0569317"><ele>955.8333333333334</ele><time>2026-04-18T10:25:06.785Z</time></trkpt><trkpt lat="42.0319967" lon="-8.0570333"><ele>957.0</ele><time>2026-04-18T10:25:08.785Z</time></trkpt><trkpt lat="42.0319883" lon="-8.0571383"><ele>957.0</ele><time>2026-04-18T10:25:10.786Z</time></trkpt><trkpt lat="42.0319833" lon="-8.0572733"><ele>957.0</ele><time>2026-04-18T10:25:12.788Z</time></trkpt><trkpt lat="42.0319833" lon="-8.05739"><ele>957.0</ele><time>2026-04-18T10:25:15.784Z</time></trkpt><trkpt lat="42.032055" lon="-8.05748"><ele>957.0</ele><time>2026-04-18T10:25:17.785Z</time></trkpt><trkpt lat="42.0321167" lon="-8.057595"><ele>957.0</ele><time>2026-04-18T10:25:19.786Z</time></trkpt><trkpt lat="42.03216" lon="-8.0577183"><ele>956.5</ele><time>2026-04-18T10:25:21.787Z</time></trkpt><trkpt lat="42.032245" lon="-8.0578467"><ele>956.0</ele><time>2026-04-18T10:25:23.786Z</time></trkpt><trkpt lat="42.03229" lon="-8.05793"><ele>955.5</ele><time>2026-04-18T10:25:24.788Z</time></trkpt><trkpt lat="42.0323217" lon="-8.0580233"><ele>955.0</ele><time>2026-04-18T10:25:25.788Z</time></trkpt><trkpt lat="42.0323517" lon="-8.0581167"><ele>954.5</ele><time>2026-04-18T10:25:26.788Z</time></trkpt><trkpt lat="42.0323717" lon="-8.0582117"><ele>954.0</ele><time>2026-04-18T10:25:27.788Z</time></trkpt><trkpt lat="42.0323917" lon="-8.0583067"><ele>953.0</ele><time>2026-04-18T10:25:28.788Z</time></trkpt><trkpt lat="42.0324167" lon="-8.0583983"><ele>952.0</ele><time>2026-04-18T10:25:29.788Z</time></trkpt><trkpt lat="42.0324467" lon="-8.0584933"><ele>951.0</ele><time>2026-04-18T10:25:30.788Z</time></trkpt><trkpt lat="42.0324833" lon="-8.0585733"><ele>950.0</ele><time>2026-04-18T10:25:31.788Z</time></trkpt><trkpt lat="42.0325217" lon="-8.0586567"><ele>949.0</ele><time>2026-04-18T10:25:32.787Z</time></trkpt><trkpt lat="42.032575" lon="-8.0588"><ele>948.0</ele><time>2026-04-18T10:25:34.789Z</time></trkpt><trkpt lat="42.0325633" lon="-8.0589183"><ele>948.0</ele><time>2026-04-18T10:25:36.788Z</time></trkpt><trkpt lat="42.03248" lon="-8.05899"><ele>948.0</ele><time>2026-04-18T10:25:38.788Z</time></trkpt><trkpt lat="42.0323983" lon="-8.0589867"><ele>948.0</ele><time>2026-04-18T10:25:39.788Z</time></trkpt><trkpt lat="42.0323067" lon="-8.0589733"><ele>948.0</ele><time>2026-04-18T10:25:40.787Z</time></trkpt><trkpt lat="42.0321917" lon="-8.058975"><ele>948.0</ele><time>2026-04-18T10:25:41.788Z</time></trkpt><trkpt lat="42.0320867" lon="-8.0589983"><ele>947.4</ele><time>2026-04-18T10:25:42.788Z</time></trkpt><trkpt lat="42.03197" lon="-8.059015"><ele>946.8</ele><time>2026-04-18T10:25:43.788Z</time></trkpt><trkpt lat="42.0318583" lon="-8.0590233"><ele>946.2</ele><time>2026-04-18T10:25:44.788Z</time></trkpt><trkpt lat="42.0317633" lon="-8.0590183"><ele>945.6</ele><time>2026-04-18T10:25:45.787Z</time></trkpt><trkpt lat="42.03166" lon="-8.0590083"><ele>945.0</ele><time>2026-04-18T10:25:46.787Z</time></trkpt><trkpt lat="42.0315533" lon="-8.0590033"><ele>944.8</ele><time>2026-04-18T10:25:47.785Z</time></trkpt><trkpt lat="42.031445" lon="-8.059"><ele>944.6</ele><time>2026-04-18T10:25:48.786Z</time></trkpt><trkpt lat="42.0313383" lon="-8.0589667"><ele>944.4000000000001</ele><time>2026-04-18T10:25:49.787Z</time></trkpt><trkpt lat="42.0312317" lon="-8.058925"><ele>944.2</ele><time>2026-04-18T10:25:50.788Z</time></trkpt><trkpt lat="42.03112" lon="-8.0588933"><ele>944.0</ele><time>2026-04-18T10:25:51.786Z</time></trkpt><trkpt lat="42.0310133" lon="-8.058845"><ele>944.0</ele><time>2026-04-18T10:25:52.786Z</time></trkpt><trkpt lat="42.0309017" lon="-8.0587883"><ele>944.0000000000001</ele><time>2026-04-18T10:25:53.785Z</time></trkpt><trkpt lat="42.0308" lon="-8.0587283"><ele>944.0000000000001</ele><time>2026-04-18T10:25:54.785Z</time></trkpt><trkpt lat="42.0306967" lon="-8.0586817"><ele>944.0</ele><time>2026-04-18T10:25:55.787Z</time></trkpt><trkpt lat="42.0305983" lon="-8.05865"><ele>944.0</ele><time>2026-04-18T10:25:56.786Z</time></trkpt><trkpt lat="42.030515" lon="-8.0586167"><ele>945.8333333333334</ele><time>2026-04-18T10:25:57.788Z</time></trkpt><trkpt lat="42.0304417" lon="-8.0585833"><ele>947.6666666666667</ele><time>2026-04-18T10:25:58.786Z</time></trkpt><trkpt lat="42.0303633" lon="-8.0585567"><ele>949.5</ele><time>2026-04-18T10:25:59.788Z</time></trkpt><trkpt lat="42.03029" lon="-8.05853"><ele>951.3333333333333</ele><time>2026-04-18T10:26:00.788Z</time></trkpt><trkpt lat="42.0302167" lon="-8.0585067"><ele>953.1666666666666</ele><time>2026-04-18T10:26:01.786Z</time></trkpt><trkpt lat="42.0301417" lon="-8.0584733"><ele>955.0</ele><time>2026-04-18T10:26:02.785Z</time></trkpt><trkpt lat="42.0300667" lon="-8.058445"><ele>954.9999999999999</ele><time>2026-04-18T10:26:03.785Z</time></trkpt><trkpt lat="42.0299867" lon="-8.058415"><ele>955.0</ele><time>2026-04-18T10:26:04.787Z</time></trkpt><trkpt lat="42.0299067" lon="-8.0583883"><ele>955.0</ele><time>2026-04-18T10:26:05.786Z</time></trkpt><trkpt lat="42.0298317" lon="-8.0583433"><ele>955.0</ele><time>2026-04-18T10:26:06.786Z</time></trkpt><trkpt lat="42.02976" lon="-8.058285"><ele>954.9999999999999</ele><time>2026-04-18T10:26:07.786Z</time></trkpt><trkpt lat="42.0296817" lon="-8.0582383"><ele>955.0</ele><time>2026-04-18T10:26:08.786Z</time></trkpt><trkpt lat="42.029605" lon="-8.0581867"><ele>952.3333333333333</ele><time>2026-04-18T10:26:09.788Z</time></trkpt><trkpt lat="42.0295283" lon="-8.058145"><ele>949.6666666666666</ele><time>2026-04-18T10:26:10.787Z</time></trkpt><trkpt lat="42.029445" lon="-8.0581167"><ele>947.0</ele><time>2026-04-18T10:26:11.788Z</time></trkpt><trkpt lat="42.0293633" lon="-8.0580983"><ele>944.3333333333333</ele><time>2026-04-18T10:26:12.788Z</time></trkpt><trkpt lat="42.0292767" lon="-8.0580817"><ele>941.6666666666666</ele><time>2026-04-18T10:26:13.786Z</time></trkpt><trkpt lat="42.0292017" lon="-8.0580833"><ele>939.0</ele><time>2026-04-18T10:26:14.789Z</time></trkpt><trkpt lat="42.0291383" lon="-8.0580817"><ele>939.4000000000001</ele><time>2026-04-18T10:26:15.788Z</time></trkpt><trkpt lat="42.0290267" lon="-8.0580933"><ele>939.8000000000001</ele><time>2026-04-18T10:26:17.787Z</time></trkpt><trkpt lat="42.0289233" lon="-8.0581417"><ele>940.1999999999999</ele><time>2026-04-18T10:26:19.788Z</time></trkpt><trkpt lat="42.02882" lon="-8.0581983"><ele>940.5999999999999</ele><time>2026-04-18T10:26:21.787Z</time></trkpt><trkpt lat="42.0287517" lon="-8.058275"><ele>941.0</ele><time>2026-04-18T10:26:23.787Z</time></trkpt><trkpt lat="42.0286933" lon="-8.058335"><ele>941.0</ele><time>2026-04-18T10:26:26.787Z</time></trkpt><trkpt lat="42.0286133" lon="-8.0584167"><ele>940.9999999999999</ele><time>2026-04-18T10:26:29.787Z</time></trkpt><trkpt lat="42.0285417" lon="-8.058495"><ele>940.9999999999999</ele><time>2026-04-18T10:26:31.786Z</time></trkpt><trkpt lat="42.028495" lon="-8.0585617"><ele>941.0</ele><time>2026-04-18T10:26:33.788Z</time></trkpt><trkpt lat="42.0284283" lon="-8.0586283"><ele>941.0</ele><time>2026-04-18T10:26:35.79Z</time></trkpt><trkpt lat="42.0283317" lon="-8.05869"><ele>939.8571428571427</ele><time>2026-04-18T10:26:37.789Z</time></trkpt><trkpt lat="42.02827" lon="-8.05871"><ele>938.7142857142857</ele><time>2026-04-18T10:26:38.788Z</time></trkpt><trkpt lat="42.028205" lon="-8.0587183"><ele>937.5714285714284</ele><time>2026-04-18T10:26:39.788Z</time></trkpt><trkpt lat="42.0281417" lon="-8.0587133"><ele>936.4285714285713</ele><time>2026-04-18T10:26:40.788Z</time></trkpt><trkpt lat="42.028075" lon="-8.0587117"><ele>935.2857142857142</ele><time>2026-04-18T10:26:41.786Z</time></trkpt><trkpt lat="42.0280067" lon="-8.0587233"><ele>934.1428571428571</ele><time>2026-04-18T10:26:42.787Z</time></trkpt><trkpt lat="42.0279367" lon="-8.058745"><ele>933.0</ele><time>2026-04-18T10:26:43.789Z</time></trkpt><trkpt lat="42.0278783" lon="-8.0587867"><ele>933.0</ele><time>2026-04-18T10:26:44.79Z</time></trkpt><trkpt lat="42.0278333" lon="-8.0588567"><ele>933.0</ele><time>2026-04-18T10:26:45.789Z</time></trkpt><trkpt lat="42.0277733" lon="-8.058985"><ele>933.0</ele><time>2026-04-18T10:26:47.789Z</time></trkpt><trkpt lat="42.0276883" lon="-8.0590283"><ele>933.0</ele><time>2026-04-18T10:26:49.788Z</time></trkpt><trkpt lat="42.0275717" lon="-8.0590017"><ele>933.0</ele><time>2026-04-18T10:26:51.789Z</time></trkpt><trkpt lat="42.02745" lon="-8.0590167"><ele>933.5999999999999</ele><time>2026-04-18T10:26:53.787Z</time></trkpt><trkpt lat="42.0273467" lon="-8.0591033"><ele>934.1999999999999</ele><time>2026-04-18T10:26:55.789Z</time></trkpt><trkpt lat="42.027275" lon="-8.0592133"><ele>934.8</ele><time>2026-04-18T10:26:57.788Z</time></trkpt><trkpt lat="42.0272017" lon="-8.0592633"><ele>935.4</ele><time>2026-04-18T10:26:59.788Z</time></trkpt><trkpt lat="42.02712" lon="-8.0592433"><ele>936.0</ele><time>2026-04-18T10:27:01.788Z</time></trkpt><trkpt lat="42.0270583" lon="-8.059225"><ele>937.1999999999999</ele><time>2026-04-18T10:27:02.785Z</time></trkpt><trkpt lat="42.0269567" lon="-8.0591917"><ele>938.3999999999999</ele><time>2026-04-18T10:27:04.788Z</time></trkpt><trkpt lat="42.0268667" lon="-8.05919"><ele>939.6</ele><time>2026-04-18T10:27:06.786Z</time></trkpt><trkpt lat="42.02674" lon="-8.0591367"><ele>940.8</ele><time>2026-04-18T10:27:08.787Z</time></trkpt><trkpt lat="42.0266333" lon="-8.0590833"><ele>942.0</ele><time>2026-04-18T10:27:09.787Z</time></trkpt><trkpt lat="42.0265117" lon="-8.0590067"><ele>942.0</ele><time>2026-04-18T10:27:10.789Z</time></trkpt><trkpt lat="42.026405" lon="-8.0589333"><ele>942.0</ele><time>2026-04-18T10:27:11.788Z</time></trkpt><trkpt lat="42.026315" lon="-8.0588867"><ele>942.0</ele><time>2026-04-18T10:27:12.786Z</time></trkpt><trkpt lat="42.026235" lon="-8.05888"><ele>942.0</ele><time>2026-04-18T10:27:13.787Z</time></trkpt><trkpt lat="42.02616" lon="-8.05889"><ele>942.0</ele><time>2026-04-18T10:27:14.788Z</time></trkpt><trkpt lat="42.026085" lon="-8.0589233"><ele>942.0</ele><time>2026-04-18T10:27:15.787Z</time></trkpt><trkpt lat="42.02598" lon="-8.059015"><ele>942.0</ele><time>2026-04-18T10:27:17.788Z</time></trkpt><trkpt lat="42.0259417" lon="-8.05912"><ele>942.0</ele><time>2026-04-18T10:27:18.788Z</time></trkpt><trkpt lat="42.025915" lon="-8.0592667"><ele>942.0</ele><time>2026-04-18T10:27:19.788Z</time></trkpt><trkpt lat="42.025885" lon="-8.0593767"><ele>942.0</ele><time>2026-04-18T10:27:20.785Z</time></trkpt><trkpt lat="42.0258583" lon="-8.059515"><ele>941.8333333333334</ele><time>2026-04-18T10:27:22.788Z</time></trkpt><trkpt lat="42.0258017" lon="-8.05962"><ele>941.6666666666667</ele><time>2026-04-18T10:27:25.788Z</time></trkpt><trkpt lat="42.0257333" lon="-8.0596417"><ele>941.5</ele><time>2026-04-18T10:27:26.788Z</time></trkpt><trkpt lat="42.025625" lon="-8.0596867"><ele>941.3333333333334</ele><time>2026-04-18T10:27:28.786Z</time></trkpt><trkpt lat="42.0255467" lon="-8.0597017"><ele>941.1666666666667</ele><time>2026-04-18T10:27:30.788Z</time></trkpt><trkpt lat="42.025475" lon="-8.05969"><ele>941.0</ele><time>2026-04-18T10:27:32.789Z</time></trkpt><trkpt lat="42.0253883" lon="-8.059645"><ele>941.0000000000001</ele><time>2026-04-18T10:27:34.786Z</time></trkpt><trkpt lat="42.0253333" lon="-8.0596033"><ele>941.0</ele><time>2026-04-18T10:27:35.786Z</time></trkpt><trkpt lat="42.0252683" lon="-8.05956"><ele>941.0</ele><time>2026-04-18T10:27:36.788Z</time></trkpt><trkpt lat="42.0251933" lon="-8.059505"><ele>941.0</ele><time>2026-04-18T10:27:37.789Z</time></trkpt><trkpt lat="42.025115" lon="-8.0594367"><ele>941.0000000000001</ele><time>2026-04-18T10:27:38.789Z</time></trkpt><trkpt lat="42.0250317" lon="-8.0593683"><ele>941.0</ele><time>2026-04-18T10:27:39.788Z</time></trkpt><trkpt lat="42.024945" lon="-8.0592867"><ele>940.4</ele><time>2026-04-18T10:27:40.785Z</time></trkpt><trkpt lat="42.024855" lon="-8.0592067"><ele>939.8</ele><time>2026-04-18T10:27:41.786Z</time></trkpt><trkpt lat="42.0247633" lon="-8.05914"><ele>939.1999999999999</ele><time>2026-04-18T10:27:42.789Z</time></trkpt><trkpt lat="42.024675" lon="-8.0590733"><ele>938.5999999999999</ele><time>2026-04-18T10:27:43.786Z</time></trkpt><trkpt lat="42.024595" lon="-8.0590033"><ele>938.0</ele><time>2026-04-18T10:27:44.79Z</time></trkpt><trkpt lat="42.0245267" lon="-8.05892"><ele>938.0</ele><time>2026-04-18T10:27:45.787Z</time></trkpt><trkpt lat="42.0244633" lon="-8.0588267"><ele>938.0</ele><time>2026-04-18T10:27:46.786Z</time></trkpt><trkpt lat="42.0244133" lon="-8.0587333"><ele>938.0</ele><time>2026-04-18T10:27:47.786Z</time></trkpt><trkpt lat="42.024365" lon="-8.05865"><ele>938.0</ele><time>2026-04-18T10:27:48.787Z</time></trkpt><trkpt lat="42.0243183" lon="-8.058575"><ele>938.0</ele><time>2026-04-18T10:27:49.787Z</time></trkpt><trkpt lat="42.0241983" lon="-8.0585083"><ele>938.0000000000001</ele><time>2026-04-18T10:27:51.785Z</time></trkpt><trkpt lat="42.024105" lon="-8.05851"><ele>938.0</ele><time>2026-04-18T10:27:52.787Z</time></trkpt><trkpt lat="42.0240183" lon="-8.0584933"><ele>938.0</ele><time>2026-04-18T10:27:53.785Z</time></trkpt><trkpt lat="42.0239367" lon="-8.0584467"><ele>938.0</ele><time>2026-04-18T10:27:54.787Z</time></trkpt><trkpt lat="42.0238683" lon="-8.0583833"><ele>938.0000000000001</ele><time>2026-04-18T10:27:55.786Z</time></trkpt><trkpt lat="42.023805" lon="-8.05832"><ele>938.0</ele><time>2026-04-18T10:27:56.787Z</time></trkpt><trkpt lat="42.02375" lon="-8.0582717"><ele>937.0000000000001</ele><time>2026-04-18T10:27:57.785Z</time></trkpt><trkpt lat="42.02368" lon="-8.0582217"><ele>936.0</ele><time>2026-04-18T10:27:59.785Z</time></trkpt><trkpt lat="42.0236067" lon="-8.0582033"><ele>935.0</ele><time>2026-04-18T10:28:34.787Z</time></trkpt><trkpt lat="42.0235467" lon="-8.0581667"><ele>934.0</ele><time>2026-04-18T10:29:36.788Z</time></trkpt><trkpt lat="42.0234633" lon="-8.0580567"><ele>933.0000000000001</ele><time>2026-04-18T10:29:38.788Z</time></trkpt><trkpt lat="42.02341" lon="-8.0579817"><ele>932.0</ele><time>2026-04-18T10:29:39.788Z</time></trkpt><trkpt lat="42.02334" lon="-8.0578783"><ele>930.5</ele><time>2026-04-18T10:29:40.788Z</time></trkpt><trkpt lat="42.023255" lon="-8.0577717"><ele>929.0</ele><time>2026-04-18T10:29:41.786Z</time></trkpt><trkpt lat="42.02316" lon="-8.05769"><ele>927.5</ele><time>2026-04-18T10:29:42.785Z</time></trkpt><trkpt lat="42.0230517" lon="-8.0576317"><ele>926.0</ele><time>2026-04-18T10:29:43.788Z</time></trkpt><trkpt lat="42.0229217" lon="-8.0575983"><ele>926.0</ele><time>2026-04-18T10:29:44.786Z</time></trkpt><trkpt lat="42.0227767" lon="-8.057585"><ele>926.0</ele><time>2026-04-18T10:29:45.788Z</time></trkpt><trkpt lat="42.022645" lon="-8.0576"><ele>926.0</ele><time>2026-04-18T10:29:46.788Z</time></trkpt><trkpt lat="42.02253" lon="-8.0576383"><ele>926.0</ele><time>2026-04-18T10:29:47.785Z</time></trkpt><trkpt lat="42.02243" lon="-8.0577033"><ele>921.5</ele><time>2026-04-18T10:29:48.785Z</time></trkpt><trkpt lat="42.02233" lon="-8.0578033"><ele>917.0</ele><time>2026-04-18T10:29:49.786Z</time></trkpt><trkpt lat="42.022235" lon="-8.057935"><ele>912.5</ele><time>2026-04-18T10:29:50.786Z</time></trkpt><trkpt lat="42.0221533" lon="-8.0581"><ele>908.0</ele><time>2026-04-18T10:29:51.786Z</time></trkpt><trkpt lat="42.0220867" lon="-8.0582817"><ele>909.4</ele><time>2026-04-18T10:29:52.786Z</time></trkpt><trkpt lat="42.0220367" lon="-8.05845"><ele>910.8</ele><time>2026-04-18T10:29:53.784Z</time></trkpt><trkpt lat="42.0220033" lon="-8.0586"><ele>912.2</ele><time>2026-04-18T10:29:54.79Z</time></trkpt><trkpt lat="42.02198" lon="-8.0587283"><ele>913.6</ele><time>2026-04-18T10:29:55.788Z</time></trkpt><trkpt lat="42.0219567" lon="-8.0588267"><ele>915.0</ele><time>2026-04-18T10:29:56.786Z</time></trkpt><trkpt lat="42.02191" lon="-8.05891"><ele>915.0</ele><time>2026-04-18T10:29:58.786Z</time></trkpt><trkpt lat="42.0218267" lon="-8.0589033"><ele>915.0</ele><time>2026-04-18T10:30:00.787Z</time></trkpt><trkpt lat="42.0217533" lon="-8.0588367"><ele>915.0</ele><time>2026-04-18T10:30:01.786Z</time></trkpt><trkpt lat="42.02167" lon="-8.0587433"><ele>915.0</ele><time>2026-04-18T10:30:02.785Z</time></trkpt><trkpt lat="42.0215683" lon="-8.058645"><ele>915.0</ele><time>2026-04-18T10:30:03.787Z</time></trkpt><trkpt lat="42.0214483" lon="-8.0585317"><ele>913.0</ele><time>2026-04-18T10:30:04.785Z</time></trkpt><trkpt lat="42.0213183" lon="-8.0583917"><ele>911.0</ele><time>2026-04-18T10:30:05.786Z</time></trkpt><trkpt lat="42.0211933" lon="-8.0582433"><ele>909.0</ele><time>2026-04-18T10:30:06.785Z</time></trkpt><trkpt lat="42.0210783" lon="-8.0581067"><ele>909.0</ele><time>2026-04-18T10:30:07.786Z</time></trkpt><trkpt lat="42.0209667" lon="-8.057985"><ele>909.0</ele><time>2026-04-18T10:30:08.79Z</time></trkpt><trkpt lat="42.0208517" lon="-8.0578883"><ele>909.0</ele><time>2026-04-18T10:30:09.788Z</time></trkpt><trkpt lat="42.02074" lon="-8.0578133"><ele>909.0</ele><time>2026-04-18T10:30:10.786Z</time></trkpt><trkpt lat="42.0206467" lon="-8.057755"><ele>910.4000000000001</ele><time>2026-04-18T10:30:11.788Z</time></trkpt><trkpt lat="42.020585" lon="-8.05771"><ele>911.8000000000001</ele><time>2026-04-18T10:30:12.788Z</time></trkpt><trkpt lat="42.02052" lon="-8.0575717"><ele>913.1999999999999</ele><time>2026-04-18T10:30:14.787Z</time></trkpt><trkpt lat="42.020495" lon="-8.0574617"><ele>914.5999999999999</ele><time>2026-04-18T10:30:15.788Z</time></trkpt><trkpt lat="42.0204733" lon="-8.0573083"><ele>916.0</ele><time>2026-04-18T10:30:16.787Z</time></trkpt><trkpt lat="42.0204517" lon="-8.057145"><ele>913.0</ele><time>2026-04-18T10:30:17.788Z</time></trkpt><trkpt lat="42.0204217" lon="-8.0569983"><ele>909.9999999999999</ele><time>2026-04-18T10:30:18.787Z</time></trkpt><trkpt lat="42.02038" lon="-8.0568917"><ele>906.9999999999999</ele><time>2026-04-18T10:30:19.788Z</time></trkpt><trkpt lat="42.0203333" lon="-8.056805"><ele>904.0</ele><time>2026-04-18T10:30:20.788Z</time></trkpt><trkpt lat="42.0202683" lon="-8.05672"><ele>901.0</ele><time>2026-04-18T10:30:21.788Z</time></trkpt><trkpt lat="42.0201683" lon="-8.0566517"><ele>897.5999999999999</ele><time>2026-04-18T10:30:22.788Z</time></trkpt><trkpt lat="42.0200417" lon="-8.0566033"><ele>894.1999999999999</ele><time>2026-04-18T10:30:23.787Z</time></trkpt><trkpt lat="42.0199317" lon="-8.0565767"><ele>890.8000000000001</ele><time>2026-04-18T10:30:24.788Z</time></trkpt><trkpt lat="42.0198367" lon="-8.0565517"><ele>887.4000000000001</ele><time>2026-04-18T10:30:25.788Z</time></trkpt><trkpt lat="42.0197483" lon="-8.0565033"><ele>884.0</ele><time>2026-04-18T10:30:26.787Z</time></trkpt><trkpt lat="42.0196533" lon="-8.0564133"><ele>883.75</ele><time>2026-04-18T10:30:27.788Z</time></trkpt><trkpt lat="42.019555" lon="-8.0562933"><ele>883.5</ele><time>2026-04-18T10:30:28.785Z</time></trkpt><trkpt lat="42.0194617" lon="-8.0561583"><ele>883.25</ele><time>2026-04-18T10:30:29.786Z</time></trkpt><trkpt lat="42.019385" lon="-8.05602"><ele>883.0</ele><time>2026-04-18T10:30:30.786Z</time></trkpt><trkpt lat="42.0193183" lon="-8.0558683"><ele>881.2</ele><time>2026-04-18T10:30:31.784Z</time></trkpt><trkpt lat="42.019265" lon="-8.0557183"><ele>879.4</ele><time>2026-04-18T10:30:32.787Z</time></trkpt><trkpt lat="42.01923" lon="-8.055585"><ele>877.6000000000001</ele><time>2026-04-18T10:30:33.786Z</time></trkpt><trkpt lat="42.0191933" lon="-8.055465"><ele>875.8000000000001</ele><time>2026-04-18T10:30:34.784Z</time></trkpt><trkpt lat="42.0191383" lon="-8.0553367"><ele>874.0</ele><time>2026-04-18T10:30:35.786Z</time></trkpt><trkpt lat="42.0190683" lon="-8.05521"><ele>871.75</ele><time>2026-04-18T10:30:36.786Z</time></trkpt><trkpt lat="42.0189967" lon="-8.0551"><ele>869.5</ele><time>2026-04-18T10:30:37.786Z</time></trkpt><trkpt lat="42.01892" lon="-8.055"><ele>867.25</ele><time>2026-04-18T10:30:38.787Z</time></trkpt><trkpt lat="42.0188233" lon="-8.0549017"><ele>865.0</ele><time>2026-04-18T10:30:39.787Z</time></trkpt><trkpt lat="42.0187267" lon="-8.054815"><ele>864.8</ele><time>2026-04-18T10:30:40.787Z</time></trkpt><trkpt lat="42.018625" lon="-8.0547383"><ele>864.6</ele><time>2026-04-18T10:30:41.789Z</time></trkpt><trkpt lat="42.01853" lon="-8.054665"><ele>864.4000000000001</ele><time>2026-04-18T10:30:42.788Z</time></trkpt><trkpt lat="42.0184417" lon="-8.0545917"><ele>864.2</ele><time>2026-04-18T10:30:43.785Z</time></trkpt><trkpt lat="42.018365" lon="-8.0545217"><ele>864.0</ele><time>2026-04-18T10:30:44.79Z</time></trkpt><trkpt lat="42.0183" lon="-8.0544483"><ele>861.2</ele><time>2026-04-18T10:30:45.787Z</time></trkpt><trkpt lat="42.0182267" lon="-8.0543633"><ele>858.4000000000001</ele><time>2026-04-18T10:30:46.787Z</time></trkpt><trkpt lat="42.01816" lon="-8.0542483"><ele>855.6</ele><time>2026-04-18T10:30:47.788Z</time></trkpt><trkpt lat="42.0180983" lon="-8.0541333"><ele>852.8</ele><time>2026-04-18T10:30:48.785Z</time></trkpt><trkpt lat="42.0180417" lon="-8.0540083"><ele>850.0</ele><time>2026-04-18T10:30:49.786Z</time></trkpt><trkpt lat="42.018" lon="-8.053885"><ele>849.1666666666666</ele><time>2026-04-18T10:30:50.788Z</time></trkpt><trkpt lat="42.0179583" lon="-8.05378"><ele>848.3333333333333</ele><time>2026-04-18T10:30:51.788Z</time></trkpt><trkpt lat="42.0179183" lon="-8.0536983"><ele>847.5</ele><time>2026-04-18T10:30:52.788Z</time></trkpt><trkpt lat="42.017815" lon="-8.0536317"><ele>846.6666666666667</ele><time>2026-04-18T10:30:54.788Z</time></trkpt><trkpt lat="42.017745" lon="-8.0536317"><ele>845.8333333333334</ele><time>2026-04-18T10:30:55.788Z</time></trkpt><trkpt lat="42.017645" lon="-8.0536417"><ele>845.0</ele><time>2026-04-18T10:30:56.786Z</time></trkpt><trkpt lat="42.0175167" lon="-8.05367"><ele>841.6666666666667</ele><time>2026-04-18T10:30:57.786Z</time></trkpt><trkpt lat="42.0173483" lon="-8.053695"><ele>838.3333333333333</ele><time>2026-04-18T10:30:58.786Z</time></trkpt><trkpt lat="42.0171817" lon="-8.0537117"><ele>835.0</ele><time>2026-04-18T10:30:59.787Z</time></trkpt><trkpt lat="42.0170067" lon="-8.0537233"><ele>835.0</ele><time>2026-04-18T10:31:00.785Z</time></trkpt><trkpt lat="42.0168533" lon="-8.0537267"><ele>835.0</ele><time>2026-04-18T10:31:01.788Z</time></trkpt><trkpt lat="42.016705" lon="-8.0537333"><ele>835.0</ele><time>2026-04-18T10:31:02.785Z</time></trkpt><trkpt lat="42.0165617" lon="-8.05374"><ele>835.0</ele><time>2026-04-18T10:31:03.786Z</time></trkpt><trkpt lat="42.016425" lon="-8.05375"><ele>833.4</ele><time>2026-04-18T10:31:04.786Z</time></trkpt><trkpt lat="42.0162967" lon="-8.0537583"><ele>831.8</ele><time>2026-04-18T10:31:05.788Z</time></trkpt><trkpt lat="42.0161817" lon="-8.053765"><ele>830.2</ele><time>2026-04-18T10:31:06.786Z</time></trkpt><trkpt lat="42.016085" lon="-8.053775"><ele>828.6</ele><time>2026-04-18T10:31:07.785Z</time></trkpt><trkpt lat="42.0160117" lon="-8.0537683"><ele>827.0</ele><time>2026-04-18T10:31:08.786Z</time></trkpt><trkpt lat="42.01591" lon="-8.0537317"><ele>827.0000000000001</ele><time>2026-04-18T10:31:10.786Z</time></trkpt><trkpt lat="42.0158583" lon="-8.0536483"><ele>827.0</ele><time>2026-04-18T10:31:11.786Z</time></trkpt><trkpt lat="42.0158133" lon="-8.0535867"><ele>827.0</ele><time>2026-04-18T10:31:12.789Z</time></trkpt><trkpt lat="42.0157917" lon="-8.0535033"><ele>827.0</ele><time>2026-04-18T10:31:14.788Z</time></trkpt><trkpt lat="42.01583" lon="-8.0534117"><ele>827.0000000000001</ele><time>2026-04-18T10:31:27.788Z</time></trkpt><trkpt lat="42.015885" lon="-8.05329"><ele>827.0</ele><time>2026-04-18T10:31:29.787Z</time></trkpt><trkpt lat="42.0159817" lon="-8.0531533"><ele>825.0</ele><time>2026-04-18T10:31:31.788Z</time></trkpt><trkpt lat="42.01605" lon="-8.0530717"><ele>823.0</ele><time>2026-04-18T10:31:32.79Z</time></trkpt><trkpt lat="42.0161133" lon="-8.05299"><ele>821.0</ele><time>2026-04-18T10:31:33.788Z</time></trkpt><trkpt lat="42.016155" lon="-8.05291"><ele>819.0</ele><time>2026-04-18T10:31:34.788Z</time></trkpt><trkpt lat="42.016175" lon="-8.0527617"><ele>817.0</ele><time>2026-04-18T10:31:36.786Z</time></trkpt><trkpt lat="42.0160667" lon="-8.0526233"><ele>817.0</ele><time>2026-04-18T10:31:38.787Z</time></trkpt><trkpt lat="42.0159533" lon="-8.05255"><ele>817.0</ele><time>2026-04-18T10:31:39.787Z</time></trkpt><trkpt lat="42.0158067" lon="-8.05248"><ele>817.0</ele><time>2026-04-18T10:31:40.787Z</time></trkpt><trkpt lat="42.0156667" lon="-8.052405"><ele>817.0</ele><time>2026-04-18T10:31:41.788Z</time></trkpt><trkpt lat="42.01556" lon="-8.0523233"><ele>813.25</ele><time>2026-04-18T10:31:42.788Z</time></trkpt><trkpt lat="42.0154783" lon="-8.0522183"><ele>809.5</ele><time>2026-04-18T10:31:43.787Z</time></trkpt><trkpt lat="42.0154117" lon="-8.05209"><ele>805.75</ele><time>2026-04-18T10:31:44.788Z</time></trkpt><trkpt lat="42.01536" lon="-8.0519533"><ele>802.0</ele><time>2026-04-18T10:31:45.788Z</time></trkpt><trkpt lat="42.0153067" lon="-8.0518267"><ele>802.0</ele><time>2026-04-18T10:31:46.788Z</time></trkpt><trkpt lat="42.0152633" lon="-8.0517233"><ele>802.0</ele><time>2026-04-18T10:31:47.787Z</time></trkpt><trkpt lat="42.01522" lon="-8.0516167"><ele>802.0</ele><time>2026-04-18T10:31:49.787Z</time></trkpt><trkpt lat="42.0152567" lon="-8.0514517"><ele>802.0</ele><time>2026-04-18T10:31:52.788Z</time></trkpt><trkpt lat="42.0152667" lon="-8.0513333"><ele>802.0</ele><time>2026-04-18T10:31:53.788Z</time></trkpt><trkpt lat="42.01528" lon="-8.0512017"><ele>798.3333333333333</ele><time>2026-04-18T10:31:54.789Z</time></trkpt><trkpt lat="42.0152917" lon="-8.05108"><ele>794.6666666666666</ele><time>2026-04-18T10:31:55.786Z</time></trkpt><trkpt lat="42.0153017" lon="-8.0509733"><ele>791.0</ele><time>2026-04-18T10:31:56.789Z</time></trkpt><trkpt lat="42.0153167" lon="-8.0508733"><ele>787.3333333333333</ele><time>2026-04-18T10:31:57.788Z</time></trkpt><trkpt lat="42.0153367" lon="-8.0507717"><ele>783.6666666666666</ele><time>2026-04-18T10:31:58.788Z</time></trkpt><trkpt lat="42.015365" lon="-8.0506867"><ele>780.0</ele><time>2026-04-18T10:31:59.785Z</time></trkpt><trkpt lat="42.0154133" lon="-8.05057"><ele>776.8333333333334</ele><time>2026-04-18T10:32:01.786Z</time></trkpt><trkpt lat="42.0154767" lon="-8.0505517"><ele>773.6666666666666</ele><time>2026-04-18T10:32:03.784Z</time></trkpt><trkpt lat="42.0155583" lon="-8.0506483"><ele>770.5</ele><time>2026-04-18T10:32:05.786Z</time></trkpt><trkpt lat="42.0156317" lon="-8.0507133"><ele>767.3333333333333</ele><time>2026-04-18T10:32:07.789Z</time></trkpt><trkpt lat="42.0156967" lon="-8.05067"><ele>764.1666666666666</ele><time>2026-04-18T10:32:10.786Z</time></trkpt><trkpt lat="42.0156867" lon="-8.0505217"><ele>761.0</ele><time>2026-04-18T10:32:12.788Z</time></trkpt><trkpt lat="42.015675" lon="-8.0504133"><ele>761.0</ele><time>2026-04-18T10:32:13.788Z</time></trkpt><trkpt lat="42.015675" lon="-8.0503083"><ele>761.0</ele><time>2026-04-18T10:32:14.789Z</time></trkpt><trkpt lat="42.01568" lon="-8.0502"><ele>761.0</ele><time>2026-04-18T10:32:15.788Z</time></trkpt><trkpt lat="42.0156883" lon="-8.0500867"><ele>761.0</ele><time>2026-04-18T10:32:16.788Z</time></trkpt><trkpt lat="42.01569" lon="-8.0499767"><ele>761.0</ele><time>2026-04-18T10:32:17.788Z</time></trkpt><trkpt lat="42.0156783" lon="-8.049865"><ele>761.0</ele><time>2026-04-18T10:32:18.789Z</time></trkpt><trkpt lat="42.0156567" lon="-8.049765"><ele>758.6666666666666</ele><time>2026-04-18T10:32:19.787Z</time></trkpt><trkpt lat="42.0156317" lon="-8.049675"><ele>756.3333333333333</ele><time>2026-04-18T10:32:20.788Z</time></trkpt><trkpt lat="42.0155833" lon="-8.049555"><ele>754.0</ele><time>2026-04-18T10:32:22.788Z</time></trkpt><trkpt lat="42.0155517" lon="-8.049475"><ele>751.6666666666666</ele><time>2026-04-18T10:32:24.788Z</time></trkpt><trkpt lat="42.015535" lon="-8.0493617"><ele>749.3333333333334</ele><time>2026-04-18T10:32:27.788Z</time></trkpt><trkpt lat="42.0155967" lon="-8.0493983"><ele>747.0</ele><time>2026-04-18T10:32:31.783Z</time></trkpt><trkpt lat="42.0156233" lon="-8.0494817"><ele>747.0</ele><time>2026-04-18T10:32:32.785Z</time></trkpt><trkpt lat="42.015665" lon="-8.0496083"><ele>747.0</ele><time>2026-04-18T10:32:33.786Z</time></trkpt><trkpt lat="42.0157" lon="-8.0497533"><ele>747.0</ele><time>2026-04-18T10:32:34.786Z</time></trkpt><trkpt lat="42.01573" lon="-8.04992"><ele>747.0</ele><time>2026-04-18T10:32:35.787Z</time></trkpt><trkpt lat="42.0157483" lon="-8.05008"><ele>749.8</ele><time>2026-04-18T10:32:36.787Z</time></trkpt><trkpt lat="42.0157683" lon="-8.0502183"><ele>752.6</ele><time>2026-04-18T10:32:37.787Z</time></trkpt><trkpt lat="42.0158" lon="-8.0503433"><ele>755.4</ele><time>2026-04-18T10:32:38.79Z</time></trkpt><trkpt lat="42.015865" lon="-8.050485"><ele>758.1999999999999</ele><time>2026-04-18T10:32:39.788Z</time></trkpt><trkpt lat="42.0159283" lon="-8.0506217"><ele>761.0</ele><time>2026-04-18T10:32:40.786Z</time></trkpt><trkpt lat="42.0159833" lon="-8.0507583"><ele>765.0</ele><time>2026-04-18T10:32:41.788Z</time></trkpt><trkpt lat="42.01602" lon="-8.0509233"><ele>769.0</ele><time>2026-04-18T10:32:42.787Z</time></trkpt><trkpt lat="42.0160533" lon="-8.051085"><ele>773.0</ele><time>2026-04-18T10:32:43.788Z</time></trkpt><trkpt lat="42.016085" lon="-8.051215"><ele>777.0</ele><time>2026-04-18T10:32:44.789Z</time></trkpt><trkpt lat="42.0161183" lon="-8.051335"><ele>781.0</ele><time>2026-04-18T10:32:45.788Z</time></trkpt><trkpt lat="42.0161483" lon="-8.0514383"><ele>780.9999999999999</ele><time>2026-04-18T10:32:46.788Z</time></trkpt><trkpt lat="42.016185" lon="-8.0515383"><ele>781.0</ele><time>2026-04-18T10:32:47.788Z</time></trkpt><trkpt lat="42.0162317" lon="-8.05165"><ele>781.0</ele><time>2026-04-18T10:32:48.788Z</time></trkpt><trkpt lat="42.0162833" lon="-8.0517417"><ele>781.0</ele><time>2026-04-18T10:32:49.789Z</time></trkpt><trkpt lat="42.0163367" lon="-8.0518033"><ele>780.9999999999999</ele><time>2026-04-18T10:32:50.788Z</time></trkpt><trkpt lat="42.0163883" lon="-8.0518533"><ele>781.0</ele><time>2026-04-18T10:32:51.787Z</time></trkpt><trkpt lat="42.0164717" lon="-8.0518867"><ele>784.1428571428571</ele><time>2026-04-18T10:32:53.786Z</time></trkpt><trkpt lat="42.0165583" lon="-8.0518783"><ele>787.2857142857143</ele><time>2026-04-18T10:32:56.788Z</time></trkpt><trkpt lat="42.0166267" lon="-8.0518933"><ele>790.4285714285713</ele><time>2026-04-18T10:32:58.787Z</time></trkpt><trkpt lat="42.016555" lon="-8.0518917"><ele>793.5714285714286</ele><time>2026-04-18T10:37:31.787Z</time></trkpt><trkpt lat="42.016495" lon="-8.051855"><ele>796.7142857142857</ele><time>2026-04-18T10:37:35.787Z</time></trkpt><trkpt lat="42.01643" lon="-8.05183"><ele>799.8571428571428</ele><time>2026-04-18T10:37:39.786Z</time></trkpt><trkpt lat="42.016365" lon="-8.05182"><ele>803.0</ele><time>2026-04-18T10:37:57.786Z</time></trkpt><trkpt lat="42.0162733" lon="-8.051845"><ele>803.0000000000001</ele><time>2026-04-18T10:37:59.788Z</time></trkpt><trkpt lat="42.0162" lon="-8.0518317"><ele>803.0</ele><time>2026-04-18T10:38:00.787Z</time></trkpt><trkpt lat="42.01611" lon="-8.0518167"><ele>803.0</ele><time>2026-04-18T10:38:01.787Z</time></trkpt><trkpt lat="42.016015" lon="-8.0518067"><ele>803.0</ele><time>2026-04-18T10:38:02.789Z</time></trkpt><trkpt lat="42.01592" lon="-8.051795"><ele>803.0000000000001</ele><time>2026-04-18T10:38:03.788Z</time></trkpt><trkpt lat="42.0158317" lon="-8.0517767"><ele>803.0</ele><time>2026-04-18T10:38:04.788Z</time></trkpt><trkpt lat="42.0157517" lon="-8.0517467"><ele>802.8333333333334</ele><time>2026-04-18T10:38:05.786Z</time></trkpt><trkpt lat="42.0156933" lon="-8.0517083"><ele>802.6666666666667</ele><time>2026-04-18T10:38:06.791Z</time></trkpt><trkpt lat="42.0156433" lon="-8.05165"><ele>802.5</ele><time>2026-04-18T10:38:07.785Z</time></trkpt><trkpt lat="42.0155933" lon="-8.051595"><ele>802.3333333333333</ele><time>2026-04-18T10:38:08.787Z</time></trkpt><trkpt lat="42.015505" lon="-8.0515783"><ele>802.1666666666666</ele><time>2026-04-18T10:38:10.786Z</time></trkpt><trkpt lat="42.01542" lon="-8.05169"><ele>802.0</ele><time>2026-04-18T10:38:12.787Z</time></trkpt><trkpt lat="42.0153967" lon="-8.0517917"><ele>802.0</ele><time>2026-04-18T10:38:13.787Z</time></trkpt><trkpt lat="42.015395" lon="-8.0519217"><ele>802.0</ele><time>2026-04-18T10:38:14.788Z</time></trkpt><trkpt lat="42.0154017" lon="-8.0520483"><ele>802.0</ele><time>2026-04-18T10:38:15.788Z</time></trkpt><trkpt lat="42.0154383" lon="-8.05218"><ele>802.0</ele><time>2026-04-18T10:38:16.789Z</time></trkpt><trkpt lat="42.015525" lon="-8.0523117"><ele>802.0</ele><time>2026-04-18T10:38:17.788Z</time></trkpt><trkpt lat="42.0156167" lon="-8.052425"><ele>805.5</ele><time>2026-04-18T10:38:18.789Z</time></trkpt><trkpt lat="42.0157717" lon="-8.0525017"><ele>809.0</ele><time>2026-04-18T10:38:19.788Z</time></trkpt><trkpt lat="42.0159" lon="-8.052565"><ele>812.5</ele><time>2026-04-18T10:38:20.789Z</time></trkpt><trkpt lat="42.0160133" lon="-8.052615"><ele>816.0</ele><time>2026-04-18T10:38:21.787Z</time></trkpt><trkpt lat="42.0160967" lon="-8.0526617"><ele>816.1666666666666</ele><time>2026-04-18T10:38:22.788Z</time></trkpt><trkpt lat="42.0161783" lon="-8.0527567"><ele>816.3333333333333</ele><time>2026-04-18T10:38:24.788Z</time></trkpt><trkpt lat="42.01621" lon="-8.052835"><ele>816.5</ele><time>2026-04-18T10:38:26.788Z</time></trkpt><trkpt lat="42.0161667" lon="-8.052935"><ele>816.6666666666666</ele><time>2026-04-18T10:38:29.787Z</time></trkpt><trkpt lat="42.0161167" lon="-8.0530033"><ele>816.8333333333333</ele><time>2026-04-18T10:38:32.787Z</time></trkpt><trkpt lat="42.0160367" lon="-8.053085"><ele>817.0</ele><time>2026-04-18T10:38:38.79Z</time></trkpt><trkpt lat="42.015975" lon="-8.0531567"><ele>816.9999999999999</ele><time>2026-04-18T10:38:39.786Z</time></trkpt><trkpt lat="42.0159217" lon="-8.05324"><ele>817.0</ele><time>2026-04-18T10:38:40.788Z</time></trkpt><trkpt lat="42.0158817" lon="-8.0533233"><ele>817.0</ele><time>2026-04-18T10:38:41.788Z</time></trkpt><trkpt lat="42.0158733" lon="-8.0534083"><ele>817.0</ele><time>2026-04-18T10:38:42.789Z</time></trkpt><trkpt lat="42.01589" lon="-8.053495"><ele>817.0</ele><time>2026-04-18T10:38:43.788Z</time></trkpt><trkpt lat="42.0159167" lon="-8.05359"><ele>816.9999999999999</ele><time>2026-04-18T10:38:44.789Z</time></trkpt><trkpt lat="42.01595" lon="-8.0536767"><ele>817.0</ele><time>2026-04-18T10:38:45.786Z</time></trkpt><trkpt lat="42.0159883" lon="-8.05375"><ele>819.0</ele><time>2026-04-18T10:38:46.786Z</time></trkpt><trkpt lat="42.0160167" lon="-8.0538267"><ele>821.0</ele><time>2026-04-18T10:38:47.789Z</time></trkpt><trkpt lat="42.016035" lon="-8.0539483"><ele>823.0</ele><time>2026-04-18T10:38:49.789Z</time></trkpt><trkpt lat="42.0159983" lon="-8.0541167"><ele>825.0</ele><time>2026-04-18T10:38:51.787Z</time></trkpt><trkpt lat="42.01599" lon="-8.05423"><ele>827.0</ele><time>2026-04-18T10:38:52.786Z</time></trkpt><trkpt lat="42.01599" lon="-8.05434"><ele>827.0000000000001</ele><time>2026-04-18T10:38:53.788Z</time></trkpt><trkpt lat="42.0160083" lon="-8.0544433"><ele>827.0</ele><time>2026-04-18T10:38:54.788Z</time></trkpt><trkpt lat="42.01604" lon="-8.0545483"><ele>827.0</ele><time>2026-04-18T10:38:55.788Z</time></trkpt><trkpt lat="42.0160833" lon="-8.054645"><ele>827.0</ele><time>2026-04-18T10:38:56.786Z</time></trkpt><trkpt lat="42.0161417" lon="-8.0547367"><ele>827.0000000000001</ele><time>2026-04-18T10:38:57.788Z</time></trkpt><trkpt lat="42.0162017" lon="-8.0548167"><ele>827.0</ele><time>2026-04-18T10:38:58.786Z</time></trkpt><trkpt lat="42.0162567" lon="-8.0548917"><ele>824.8</ele><time>2026-04-18T10:38:59.787Z</time></trkpt><trkpt lat="42.0162983" lon="-8.05496"><ele>822.6</ele><time>2026-04-18T10:39:00.789Z</time></trkpt><trkpt lat="42.016295" lon="-8.05507"><ele>820.4</ele><time>2026-04-18T10:39:02.787Z</time></trkpt><trkpt lat="42.0162167" lon="-8.05519"><ele>818.1999999999999</ele><time>2026-04-18T10:39:04.788Z</time></trkpt><trkpt lat="42.0161633" lon="-8.0553283"><ele>816.0</ele><time>2026-04-18T10:39:06.785Z</time></trkpt><trkpt lat="42.016145" lon="-8.0554883"><ele>816.0</ele><time>2026-04-18T10:39:08.787Z</time></trkpt><trkpt lat="42.0161583" lon="-8.0556233"><ele>816.0</ele><time>2026-04-18T10:39:10.788Z</time></trkpt><trkpt lat="42.0161917" lon="-8.0557067"><ele>816.0</ele><time>2026-04-18T10:39:25.785Z</time></trkpt><trkpt lat="42.0161667" lon="-8.0558017"><ele>816.0</ele><time>2026-04-18T10:39:32.786Z</time></trkpt><trkpt lat="42.0161183" lon="-8.0558967"><ele>816.0</ele><time>2026-04-18T10:39:35.789Z</time></trkpt><trkpt lat="42.0160717" lon="-8.055955"><ele>816.0</ele><time>2026-04-18T10:39:38.79Z</time></trkpt><trkpt lat="42.01605" lon="-8.056045"><ele>815.6666666666666</ele><time>2026-04-18T10:41:52.785Z</time></trkpt><trkpt lat="42.0160083" lon="-8.056155"><ele>815.3333333333333</ele><time>2026-04-18T10:41:54.785Z</time></trkpt><trkpt lat="42.0159583" lon="-8.0562633"><ele>815.0</ele><time>2026-04-18T10:41:56.787Z</time></trkpt><trkpt lat="42.015905" lon="-8.05631"><ele>814.6666666666666</ele><time>2026-04-18T10:41:57.786Z</time></trkpt><trkpt lat="42.0158467" lon="-8.0563817"><ele>814.3333333333333</ele><time>2026-04-18T10:41:58.786Z</time></trkpt><trkpt lat="42.0157917" lon="-8.0564517"><ele>814.0</ele><time>2026-04-18T10:41:59.786Z</time></trkpt><trkpt lat="42.0157417" lon="-8.0565267"><ele>813.3333333333333</ele><time>2026-04-18T10:42:00.787Z</time></trkpt><trkpt lat="42.0156883" lon="-8.0566067"><ele>812.6666666666666</ele><time>2026-04-18T10:42:01.786Z</time></trkpt><trkpt lat="42.015635" lon="-8.0566817"><ele>812.0</ele><time>2026-04-18T10:42:02.787Z</time></trkpt><trkpt lat="42.015575" lon="-8.0567417"><ele>811.3333333333333</ele><time>2026-04-18T10:42:03.787Z</time></trkpt><trkpt lat="42.0155017" lon="-8.0567833"><ele>810.6666666666666</ele><time>2026-04-18T10:42:04.785Z</time></trkpt><trkpt lat="42.015425" lon="-8.05682"><ele>810.0</ele><time>2026-04-18T10:42:05.786Z</time></trkpt><trkpt lat="42.015335" lon="-8.05686"><ele>810.0</ele><time>2026-04-18T10:42:06.787Z</time></trkpt><trkpt lat="42.0152733" lon="-8.0568883"><ele>810.0</ele><time>2026-04-18T10:42:07.786Z</time></trkpt><trkpt lat="42.0151733" lon="-8.0569217"><ele>810.0</ele><time>2026-04-18T10:42:09.786Z</time></trkpt><trkpt lat="42.01507" lon="-8.0569183"><ele>810.0</ele><time>2026-04-18T10:42:11.785Z</time></trkpt><trkpt lat="42.0149667" lon="-8.0569017"><ele>810.0</ele><time>2026-04-18T10:42:13.788Z</time></trkpt><trkpt lat="42.01487" lon="-8.0568933"><ele>809.5</ele><time>2026-04-18T10:42:15.788Z</time></trkpt><trkpt lat="42.0148133" lon="-8.0569333"><ele>809.0</ele><time>2026-04-18T10:42:18.787Z</time></trkpt><trkpt lat="42.0147233" lon="-8.0568683"><ele>808.5</ele><time>2026-04-18T10:43:29.787Z</time></trkpt><trkpt lat="42.0146417" lon="-8.0568617"><ele>808.0</ele><time>2026-04-18T10:44:39.788Z</time></trkpt><trkpt lat="42.0146133" lon="-8.056745"><ele>807.5</ele><time>2026-04-18T10:49:50.79Z</time></trkpt><trkpt lat="42.0145783" lon="-8.0566683"><ele>807.0</ele><time>2026-04-18T10:49:52.788Z</time></trkpt><trkpt lat="42.0145083" lon="-8.0565667"><ele>807.0</ele><time>2026-04-18T10:49:54.786Z</time></trkpt><trkpt lat="42.01446" lon="-8.056505"><ele>807.0</ele><time>2026-04-18T10:49:55.787Z</time></trkpt><trkpt lat="42.0143817" lon="-8.0563783"><ele>807.0</ele><time>2026-04-18T10:49:57.785Z</time></trkpt><trkpt lat="42.0143" lon="-8.056255"><ele>807.0</ele><time>2026-04-18T10:49:59.786Z</time></trkpt><trkpt lat="42.0142333" lon="-8.0561583"><ele>807.0</ele><time>2026-04-18T10:50:01.786Z</time></trkpt><trkpt lat="42.0141733" lon="-8.056075"><ele>808.3333333333334</ele><time>2026-04-18T10:50:04.788Z</time></trkpt><trkpt lat="42.01414" lon="-8.0559983"><ele>809.6666666666667</ele><time>2026-04-18T10:50:06.787Z</time></trkpt><trkpt lat="42.01405" lon="-8.056015"><ele>811.0</ele><time>2026-04-18T10:50:10.788Z</time></trkpt><trkpt lat="42.0139833" lon="-8.05612"><ele>812.3333333333334</ele><time>2026-04-18T10:50:12.788Z</time></trkpt><trkpt lat="42.0139283" lon="-8.056175"><ele>813.6666666666667</ele><time>2026-04-18T10:50:14.788Z</time></trkpt><trkpt lat="42.0138467" lon="-8.05616"><ele>815.0</ele><time>2026-04-18T10:50:53.787Z</time></trkpt><trkpt lat="42.013785" lon="-8.0561267"><ele>815.0000000000001</ele><time>2026-04-18T10:50:56.787Z</time></trkpt><trkpt lat="42.0137183" lon="-8.0561033"><ele>815.0</ele><time>2026-04-18T10:50:59.785Z</time></trkpt><trkpt lat="42.0136583" lon="-8.0560317"><ele>815.0</ele><time>2026-04-18T10:51:03.787Z</time></trkpt><trkpt lat="42.0135717" lon="-8.0559567"><ele>815.0</ele><time>2026-04-18T10:54:45.784Z</time></trkpt><trkpt lat="42.0135067" lon="-8.055875"><ele>815.0000000000001</ele><time>2026-04-18T10:54:47.784Z</time></trkpt><trkpt lat="42.0134583" lon="-8.0557933"><ele>815.0</ele><time>2026-04-18T10:54:48.783Z</time></trkpt><trkpt lat="42.0133983" lon="-8.0556867"><ele>816.5000000000001</ele><time>2026-04-18T10:54:49.785Z</time></trkpt><trkpt lat="42.013355" lon="-8.0555967"><ele>818.0</ele><time>2026-04-18T10:54:50.784Z</time></trkpt><trkpt lat="42.013305" lon="-8.0555067"><ele>819.5</ele><time>2026-04-18T10:54:51.784Z</time></trkpt><trkpt lat="42.0132617" lon="-8.0554217"><ele>821.0</ele><time>2026-04-18T10:54:52.785Z</time></trkpt><trkpt lat="42.0132167" lon="-8.0553367"><ele>822.5000000000001</ele><time>2026-04-18T10:54:53.785Z</time></trkpt><trkpt lat="42.01317" lon="-8.0552717"><ele>824.0</ele><time>2026-04-18T10:54:54.783Z</time></trkpt><trkpt lat="42.01309" lon="-8.055145"><ele>824.0000000000001</ele><time>2026-04-18T10:54:56.785Z</time></trkpt><trkpt lat="42.0130183" lon="-8.0550183"><ele>824.0</ele><time>2026-04-18T10:54:58.783Z</time></trkpt><trkpt lat="42.0129817" lon="-8.0549467"><ele>824.0</ele><time>2026-04-18T10:54:59.784Z</time></trkpt><trkpt lat="42.0129433" lon="-8.0548767"><ele>824.0</ele><time>2026-04-18T10:55:00.784Z</time></trkpt><trkpt lat="42.01291" lon="-8.0547917"><ele>824.0000000000001</ele><time>2026-04-18T10:55:02.786Z</time></trkpt><trkpt lat="42.0128517" lon="-8.0547017"><ele>824.0</ele><time>2026-04-18T10:55:06.784Z</time></trkpt><trkpt lat="42.0127867" lon="-8.0545833"><ele>821.1666666666667</ele><time>2026-04-18T10:55:08.785Z</time></trkpt><trkpt lat="42.0127533" lon="-8.0545067"><ele>818.3333333333334</ele><time>2026-04-18T10:55:09.783Z</time></trkpt><trkpt lat="42.01271" lon="-8.05441"><ele>815.5</ele><time>2026-04-18T10:55:11.783Z</time></trkpt><trkpt lat="42.012665" lon="-8.0543267"><ele>812.6666666666667</ele><time>2026-04-18T10:55:13.783Z</time></trkpt><trkpt lat="42.0126117" lon="-8.0542517"><ele>809.8333333333334</ele><time>2026-04-18T10:55:15.782Z</time></trkpt><trkpt lat="42.0125833" lon="-8.0541617"><ele>807.0</ele><time>2026-04-18T10:55:17.783Z</time></trkpt><trkpt lat="42.0126083" lon="-8.05404"><ele>806.6666666666666</ele><time>2026-04-18T10:55:19.783Z</time></trkpt><trkpt lat="42.0126567" lon="-8.053975"><ele>806.3333333333333</ele><time>2026-04-18T10:55:20.783Z</time></trkpt><trkpt lat="42.0127133" lon="-8.0538617"><ele>806.0</ele><time>2026-04-18T10:55:22.783Z</time></trkpt><trkpt lat="42.0127567" lon="-8.0536983"><ele>805.6666666666666</ele><time>2026-04-18T10:55:24.783Z</time></trkpt><trkpt lat="42.0127667" lon="-8.0536133"><ele>805.3333333333333</ele><time>2026-04-18T10:55:25.785Z</time></trkpt><trkpt lat="42.012765" lon="-8.0535233"><ele>805.0</ele><time>2026-04-18T10:55:26.783Z</time></trkpt><trkpt lat="42.0127567" lon="-8.053425"><ele>804.9999999999999</ele><time>2026-04-18T10:55:27.782Z</time></trkpt><trkpt lat="42.0127383" lon="-8.0533167"><ele>805.0</ele><time>2026-04-18T10:55:28.783Z</time></trkpt><trkpt lat="42.012715" lon="-8.0532"><ele>805.0</ele><time>2026-04-18T10:55:29.783Z</time></trkpt><trkpt lat="42.0126933" lon="-8.0530767"><ele>805.0</ele><time>2026-04-18T10:55:30.783Z</time></trkpt><trkpt lat="42.01267" lon="-8.0529583"><ele>804.9999999999999</ele><time>2026-04-18T10:55:31.783Z</time></trkpt><trkpt lat="42.0126433" lon="-8.052845"><ele>805.0</ele><time>2026-04-18T10:55:32.783Z</time></trkpt><trkpt lat="42.0126133" lon="-8.052745"><ele>803.6</ele><time>2026-04-18T10:55:33.782Z</time></trkpt><trkpt lat="42.012575" lon="-8.0526583"><ele>802.2</ele><time>2026-04-18T10:55:34.783Z</time></trkpt><trkpt lat="42.0125283" lon="-8.052555"><ele>800.8</ele><time>2026-04-18T10:55:35.782Z</time></trkpt><trkpt lat="42.0124717" lon="-8.0524567"><ele>799.4</ele><time>2026-04-18T10:55:36.783Z</time></trkpt><trkpt lat="42.012415" lon="-8.0523417"><ele>798.0</ele><time>2026-04-18T10:55:37.783Z</time></trkpt><trkpt lat="42.012355" lon="-8.0522317"><ele>802.5</ele><time>2026-04-18T10:55:38.783Z</time></trkpt><trkpt lat="42.012295" lon="-8.0521333"><ele>807.0</ele><time>2026-04-18T10:55:39.783Z</time></trkpt><trkpt lat="42.0122317" lon="-8.0520433"><ele>811.5</ele><time>2026-04-18T10:55:40.783Z</time></trkpt><trkpt lat="42.01218" lon="-8.051965"><ele>816.0</ele><time>2026-04-18T10:55:41.783Z</time></trkpt><trkpt lat="42.0121267" lon="-8.051915"><ele>820.5</ele><time>2026-04-18T10:55:42.783Z</time></trkpt><trkpt lat="42.0120733" lon="-8.0518433"><ele>825.0</ele><time>2026-04-18T10:55:43.783Z</time></trkpt><trkpt lat="42.0120283" lon="-8.0517717"><ele>825.0</ele><time>2026-04-18T10:55:44.783Z</time></trkpt><trkpt lat="42.01198" lon="-8.051645"><ele>825.0</ele><time>2026-04-18T10:55:46.784Z</time></trkpt><trkpt lat="42.0119633" lon="-8.0515483"><ele>825.0</ele><time>2026-04-18T10:55:48.783Z</time></trkpt><trkpt lat="42.0119433" lon="-8.0514067"><ele>825.0</ele><time>2026-04-18T10:55:50.784Z</time></trkpt><trkpt lat="42.01192" lon="-8.05126"><ele>825.0</ele><time>2026-04-18T10:55:52.788Z</time></trkpt><trkpt lat="42.0119167" lon="-8.0511717"><ele>824.0</ele><time>2026-04-18T10:55:53.783Z</time></trkpt><trkpt lat="42.01192" lon="-8.051035"><ele>823.0</ele><time>2026-04-18T10:55:55.783Z</time></trkpt><trkpt lat="42.01192" lon="-8.0509367"><ele>822.0</ele><time>2026-04-18T10:55:57.783Z</time></trkpt><trkpt lat="42.0118967" lon="-8.0508167"><ele>821.0</ele><time>2026-04-18T10:55:59.784Z</time></trkpt><trkpt lat="42.011895" lon="-8.0506517"><ele>820.0</ele><time>2026-04-18T10:56:01.784Z</time></trkpt><trkpt lat="42.011895" lon="-8.0505633"><ele>819.9999999999999</ele><time>2026-04-18T10:56:02.783Z</time></trkpt><trkpt lat="42.0118883" lon="-8.050465"><ele>820.0</ele><time>2026-04-18T10:56:03.784Z</time></trkpt><trkpt lat="42.0118733" lon="-8.0503583"><ele>820.0</ele><time>2026-04-18T10:56:04.784Z</time></trkpt><trkpt lat="42.0118567" lon="-8.0502483"><ele>820.0</ele><time>2026-04-18T10:56:05.784Z</time></trkpt><trkpt lat="42.0118433" lon="-8.0501367"><ele>819.9999999999999</ele><time>2026-04-18T10:56:06.783Z</time></trkpt><trkpt lat="42.0118133" lon="-8.0500017"><ele>820.0</ele><time>2026-04-18T10:56:07.784Z</time></trkpt><trkpt lat="42.0117683" lon="-8.0498583"><ele>820.0</ele><time>2026-04-18T10:56:08.785Z</time></trkpt><trkpt lat="42.0117283" lon="-8.0497283"><ele>820.0</ele><time>2026-04-18T10:56:09.782Z</time></trkpt><trkpt lat="42.011685" lon="-8.0496233"><ele>820.0</ele><time>2026-04-18T10:56:10.784Z</time></trkpt><trkpt lat="42.0116467" lon="-8.0495383"><ele>820.0</ele><time>2026-04-18T10:56:11.785Z</time></trkpt><trkpt lat="42.0116067" lon="-8.0494717"><ele>820.0</ele><time>2026-04-18T10:56:12.783Z</time></trkpt><trkpt lat="42.0115017" lon="-8.0493883"><ele>819.9999999999999</ele><time>2026-04-18T10:56:14.784Z</time></trkpt><trkpt lat="42.011435" lon="-8.049365"><ele>820.0</ele><time>2026-04-18T10:56:15.783Z</time></trkpt><trkpt lat="42.0113583" lon="-8.0493617"><ele>820.0</ele><time>2026-04-18T10:56:16.784Z</time></trkpt><trkpt lat="42.0112733" lon="-8.049375"><ele>820.0</ele><time>2026-04-18T10:56:17.783Z</time></trkpt><trkpt lat="42.01119" lon="-8.0494033"><ele>819.9999999999999</ele><time>2026-04-18T10:56:18.783Z</time></trkpt><trkpt lat="42.01112" lon="-8.04943"><ele>820.0</ele><time>2026-04-18T10:56:19.786Z</time></trkpt><trkpt lat="42.011055" lon="-8.0494583"><ele>819.9999999999999</ele><time>2026-04-18T10:56:20.784Z</time></trkpt><trkpt lat="42.01099" lon="-8.0494933"><ele>820.0</ele><time>2026-04-18T10:56:21.783Z</time></trkpt><trkpt lat="42.0109267" lon="-8.0495233"><ele>820.0</ele><time>2026-04-18T10:56:22.783Z</time></trkpt><trkpt lat="42.0108117" lon="-8.0495617"><ele>820.0</ele><time>2026-04-18T10:56:24.783Z</time></trkpt><trkpt lat="42.01071" lon="-8.0495917"><ele>819.9999999999999</ele><time>2026-04-18T10:56:26.783Z</time></trkpt><trkpt lat="42.0106317" lon="-8.04962"><ele>820.0</ele><time>2026-04-18T10:56:28.785Z</time></trkpt><trkpt lat="42.0105283" lon="-8.0496433"><ele>820.5</ele><time>2026-04-18T10:56:30.784Z</time></trkpt><trkpt lat="42.0104067" lon="-8.0496667"><ele>821.0</ele><time>2026-04-18T10:56:32.784Z</time></trkpt><trkpt lat="42.010295" lon="-8.04973"><ele>821.5</ele><time>2026-04-18T10:56:34.783Z</time></trkpt><trkpt lat="42.01017" lon="-8.04973"><ele>822.0</ele><time>2026-04-18T10:56:36.784Z</time></trkpt><trkpt lat="42.010055" lon="-8.04972"><ele>822.6</ele><time>2026-04-18T10:56:38.785Z</time></trkpt><trkpt lat="42.00994" lon="-8.0497167"><ele>823.2</ele><time>2026-04-18T10:56:40.785Z</time></trkpt><trkpt lat="42.00984" lon="-8.0497367"><ele>823.8</ele><time>2026-04-18T10:56:42.784Z</time></trkpt><trkpt lat="42.0097433" lon="-8.04976"><ele>824.4</ele><time>2026-04-18T10:56:44.784Z</time></trkpt><trkpt lat="42.0096583" lon="-8.049765"><ele>825.0</ele><time>2026-04-18T10:56:46.783Z</time></trkpt><trkpt lat="42.009595" lon="-8.0497667"><ele>825.0</ele><time>2026-04-18T10:56:48.788Z</time></trkpt><trkpt lat="42.0096417" lon="-8.0498267"><ele>825.0</ele><time>2026-04-18T10:56:54.784Z</time></trkpt><trkpt lat="42.0097317" lon="-8.0498583"><ele>825.0</ele><time>2026-04-18T10:56:56.783Z</time></trkpt><trkpt lat="42.00984" lon="-8.049915"><ele>825.0</ele><time>2026-04-18T10:56:58.784Z</time></trkpt><trkpt lat="42.0099033" lon="-8.049955"><ele>825.0</ele><time>2026-04-18T10:56:59.783Z</time></trkpt><trkpt lat="42.0100017" lon="-8.0500283"><ele>827.1666666666666</ele><time>2026-04-18T10:57:01.783Z</time></trkpt><trkpt lat="42.0100917" lon="-8.050085"><ele>829.3333333333333</ele><time>2026-04-18T10:57:03.782Z</time></trkpt><trkpt lat="42.0101567" lon="-8.0501083"><ele>831.5</ele><time>2026-04-18T10:57:04.783Z</time></trkpt><trkpt lat="42.010225" lon="-8.0501217"><ele>833.6666666666666</ele><time>2026-04-18T10:57:05.784Z</time></trkpt><trkpt lat="42.0102967" lon="-8.0501367"><ele>835.8333333333333</ele><time>2026-04-18T10:57:06.783Z</time></trkpt><trkpt lat="42.010375" lon="-8.0501517"><ele>838.0</ele><time>2026-04-18T10:57:07.783Z</time></trkpt><trkpt lat="42.010465" lon="-8.05018"><ele>838.0</ele><time>2026-04-18T10:57:08.786Z</time></trkpt><trkpt lat="42.01055" lon="-8.05023"><ele>838.0</ele><time>2026-04-18T10:57:09.786Z</time></trkpt><trkpt lat="42.0106333" lon="-8.0502817"><ele>838.0</ele><time>2026-04-18T10:57:10.787Z</time></trkpt><trkpt lat="42.010715" lon="-8.050345"><ele>838.0</ele><time>2026-04-18T10:57:11.787Z</time></trkpt><trkpt lat="42.01079" lon="-8.0504133"><ele>838.0</ele><time>2026-04-18T10:57:12.783Z</time></trkpt><trkpt lat="42.0108583" lon="-8.0504817"><ele>838.6666666666666</ele><time>2026-04-18T10:57:13.784Z</time></trkpt><trkpt lat="42.0109183" lon="-8.05055"><ele>839.3333333333333</ele><time>2026-04-18T10:57:14.783Z</time></trkpt><trkpt lat="42.01097" lon="-8.050625"><ele>840.0</ele><time>2026-04-18T10:57:15.783Z</time></trkpt><trkpt lat="42.0110167" lon="-8.0507167"><ele>840.6666666666667</ele><time>2026-04-18T10:57:16.784Z</time></trkpt><trkpt lat="42.01106" lon="-8.05083"><ele>841.3333333333334</ele><time>2026-04-18T10:57:17.783Z</time></trkpt><trkpt lat="42.0110967" lon="-8.0509683"><ele>842.0</ele><time>2026-04-18T10:57:18.783Z</time></trkpt><trkpt lat="42.0111267" lon="-8.0511333"><ele>842.0</ele><time>2026-04-18T10:57:19.79Z</time></trkpt><trkpt lat="42.01115" lon="-8.0513"><ele>842.0</ele><time>2026-04-18T10:57:20.786Z</time></trkpt><trkpt lat="42.0111833" lon="-8.05148"><ele>842.0</ele><time>2026-04-18T10:57:21.783Z</time></trkpt><trkpt lat="42.0112283" lon="-8.0516633"><ele>842.0</ele><time>2026-04-18T10:57:22.786Z</time></trkpt><trkpt lat="42.0112733" lon="-8.0518583"><ele>845.0</ele><time>2026-04-18T10:57:23.783Z</time></trkpt><trkpt lat="42.01132" lon="-8.05203"><ele>848.0</ele><time>2026-04-18T10:57:24.785Z</time></trkpt><trkpt lat="42.0113667" lon="-8.0521983"><ele>851.0</ele><time>2026-04-18T10:57:25.783Z</time></trkpt><trkpt lat="42.0114083" lon="-8.052345"><ele>854.0</ele><time>2026-04-18T10:57:26.787Z</time></trkpt><trkpt lat="42.0114433" lon="-8.05247"><ele>854.4000000000001</ele><time>2026-04-18T10:57:27.784Z</time></trkpt><trkpt lat="42.0114667" lon="-8.0525717"><ele>854.8000000000001</ele><time>2026-04-18T10:57:28.783Z</time></trkpt><trkpt lat="42.01147" lon="-8.052665"><ele>855.1999999999999</ele><time>2026-04-18T10:57:29.783Z</time></trkpt><trkpt lat="42.011415" lon="-8.05284"><ele>855.5999999999999</ele><time>2026-04-18T10:57:31.786Z</time></trkpt><trkpt lat="42.01137" lon="-8.0529217"><ele>856.0</ele><time>2026-04-18T10:57:32.786Z</time></trkpt><trkpt lat="42.0112867" lon="-8.0530083"><ele>856.0</ele><time>2026-04-18T10:57:34.787Z</time></trkpt><trkpt lat="42.0112233" lon="-8.0529283"><ele>855.9999999999999</ele><time>2026-04-18T10:57:36.785Z</time></trkpt><trkpt lat="42.0111917" lon="-8.05274"><ele>855.9999999999999</ele><time>2026-04-18T10:57:38.784Z</time></trkpt><trkpt lat="42.01117" lon="-8.052635"><ele>856.0</ele><time>2026-04-18T10:57:39.783Z</time></trkpt><trkpt lat="42.0111383" lon="-8.05253"><ele>856.0</ele><time>2026-04-18T10:57:40.785Z</time></trkpt><trkpt lat="42.0110883" lon="-8.0524383"><ele>855.5999999999999</ele><time>2026-04-18T10:57:41.786Z</time></trkpt><trkpt lat="42.0110133" lon="-8.0523517"><ele>855.1999999999999</ele><time>2026-04-18T10:57:42.784Z</time></trkpt><trkpt lat="42.0109233" lon="-8.0522667"><ele>854.8000000000001</ele><time>2026-04-18T10:57:43.783Z</time></trkpt><trkpt lat="42.0108317" lon="-8.0521733"><ele>854.4000000000001</ele><time>2026-04-18T10:57:44.784Z</time></trkpt><trkpt lat="42.010735" lon="-8.0520733"><ele>854.0</ele><time>2026-04-18T10:57:45.785Z</time></trkpt><trkpt lat="42.0106417" lon="-8.051975"><ele>856.0</ele><time>2026-04-18T10:57:46.783Z</time></trkpt><trkpt lat="42.0105517" lon="-8.051885"><ele>858.0000000000001</ele><time>2026-04-18T10:57:47.785Z</time></trkpt><trkpt lat="42.010465" lon="-8.051805"><ele>860.0000000000001</ele><time>2026-04-18T10:57:48.783Z</time></trkpt><trkpt lat="42.0103717" lon="-8.0517367"><ele>862.0</ele><time>2026-04-18T10:57:49.785Z</time></trkpt><trkpt lat="42.01028" lon="-8.0516917"><ele>864.0</ele><time>2026-04-18T10:57:50.784Z</time></trkpt><trkpt lat="42.0101833" lon="-8.05167"><ele>864.0</ele><time>2026-04-18T10:57:51.783Z</time></trkpt><trkpt lat="42.0100933" lon="-8.0516783"><ele>864.0000000000001</ele><time>2026-04-18T10:57:52.784Z</time></trkpt><trkpt lat="42.010005" lon="-8.0517233"><ele>864.0000000000001</ele><time>2026-04-18T10:57:53.785Z</time></trkpt><trkpt lat="42.00991" lon="-8.051795"><ele>864.0</ele><time>2026-04-18T10:57:54.787Z</time></trkpt><trkpt lat="42.0098167" lon="-8.05189"><ele>864.0</ele><time>2026-04-18T10:57:55.784Z</time></trkpt><trkpt lat="42.009725" lon="-8.0519917"><ele>865.0</ele><time>2026-04-18T10:57:56.787Z</time></trkpt><trkpt lat="42.0096317" lon="-8.052095"><ele>866.0</ele><time>2026-04-18T10:57:57.783Z</time></trkpt><trkpt lat="42.0095367" lon="-8.0521983"><ele>867.0</ele><time>2026-04-18T10:57:58.786Z</time></trkpt><trkpt lat="42.009445" lon="-8.052295"><ele>868.0</ele><time>2026-04-18T10:57:59.784Z</time></trkpt><trkpt lat="42.0093533" lon="-8.0523883"><ele>870.25</ele><time>2026-04-18T10:58:00.786Z</time></trkpt><trkpt lat="42.0092517" lon="-8.052475"><ele>872.5</ele><time>2026-04-18T10:58:01.783Z</time></trkpt><trkpt lat="42.0091433" lon="-8.0525583"><ele>874.75</ele><time>2026-04-18T10:58:02.784Z</time></trkpt><trkpt lat="42.0090333" lon="-8.05263"><ele>877.0</ele><time>2026-04-18T10:58:03.786Z</time></trkpt><trkpt lat="42.00893" lon="-8.0526867"><ele>878.2</ele><time>2026-04-18T10:58:04.786Z</time></trkpt><trkpt lat="42.0088433" lon="-8.0527267"><ele>879.4000000000001</ele><time>2026-04-18T10:58:05.783Z</time></trkpt><trkpt lat="42.0087533" lon="-8.0527533"><ele>880.5999999999999</ele><time>2026-04-18T10:58:06.787Z</time></trkpt><trkpt lat="42.0086483" lon="-8.0527717"><ele>881.8</ele><time>2026-04-18T10:58:07.785Z</time></trkpt><trkpt lat="42.008535" lon="-8.0527917"><ele>883.0</ele><time>2026-04-18T10:58:08.784Z</time></trkpt><trkpt lat="42.0084267" lon="-8.0528083"><ele>882.9999999999999</ele><time>2026-04-18T10:58:09.79Z</time></trkpt><trkpt lat="42.0083267" lon="-8.0528191"><ele>883.0</ele><time>2026-04-18T10:58:10.784Z</time></trkpt><trkpt lat="42.0082329" lon="-8.0528282"><ele>883.0</ele><time>2026-04-18T10:58:11.784Z</time></trkpt><trkpt lat="42.0081427" lon="-8.0528364"><ele>883.0</ele><time>2026-04-18T10:58:12.784Z</time></trkpt><trkpt lat="42.0080584" lon="-8.0528511"><ele>882.9999999999999</ele><time>2026-04-18T10:58:13.784Z</time></trkpt><trkpt lat="42.0079827" lon="-8.0528838"><ele>883.0</ele><time>2026-04-18T10:58:14.784Z</time></trkpt><trkpt lat="42.0079262" lon="-8.0529357"><ele>882.9999999999999</ele><time>2026-04-18T10:58:15.783Z</time></trkpt><trkpt lat="42.0078926" lon="-8.0530093"><ele>883.0</ele><time>2026-04-18T10:58:16.784Z</time></trkpt><trkpt lat="42.0078884" lon="-8.0530994"><ele>883.0</ele><time>2026-04-18T10:58:17.788Z</time></trkpt><trkpt lat="42.0078893" lon="-8.0532017"><ele>883.0</ele><time>2026-04-18T10:58:18.784Z</time></trkpt><trkpt lat="42.0079015" lon="-8.0533302"><ele>882.9999999999999</ele><time>2026-04-18T10:58:19.783Z</time></trkpt><trkpt lat="42.0079238" lon="-8.0534895"><ele>883.0</ele><time>2026-04-18T10:58:20.784Z</time></trkpt><trkpt lat="42.007936" lon="-8.0536595"><ele>885.5</ele><time>2026-04-18T10:58:21.787Z</time></trkpt><trkpt lat="42.0079378" lon="-8.0538251"><ele>888.0</ele><time>2026-04-18T10:58:22.783Z</time></trkpt><trkpt lat="42.0079432" lon="-8.0539828"><ele>890.5</ele><time>2026-04-18T10:58:23.787Z</time></trkpt><trkpt lat="42.0079581" lon="-8.0541366"><ele>893.0</ele><time>2026-04-18T10:58:24.783Z</time></trkpt><trkpt lat="42.0079817" lon="-8.0542862"><ele>894.8</ele><time>2026-04-18T10:58:25.783Z</time></trkpt><trkpt lat="42.0080015" lon="-8.0544291"><ele>896.5999999999999</ele><time>2026-04-18T10:58:26.784Z</time></trkpt><trkpt lat="42.008017" lon="-8.0545673"><ele>898.4000000000001</ele><time>2026-04-18T10:58:27.786Z</time></trkpt><trkpt lat="42.0080298" lon="-8.0547039"><ele>900.2</ele><time>2026-04-18T10:58:28.785Z</time></trkpt><trkpt lat="42.0080427" lon="-8.054839"><ele>902.0</ele><time>2026-04-18T10:58:29.783Z</time></trkpt><trkpt lat="42.0080582" lon="-8.054977"><ele>904.2</ele><time>2026-04-18T10:58:30.788Z</time></trkpt><trkpt lat="42.0080737" lon="-8.055125"><ele>906.4000000000001</ele><time>2026-04-18T10:58:31.783Z</time></trkpt><trkpt lat="42.0080822" lon="-8.0552759"><ele>908.5999999999999</ele><time>2026-04-18T10:58:32.784Z</time></trkpt><trkpt lat="42.0080828" lon="-8.0554199"><ele>910.8</ele><time>2026-04-18T10:58:33.784Z</time></trkpt><trkpt lat="42.0080833" lon="-8.0555495"><ele>913.0</ele><time>2026-04-18T10:58:34.786Z</time></trkpt><trkpt lat="42.0080809" lon="-8.055661"><ele>913.0</ele><time>2026-04-18T10:58:35.782Z</time></trkpt><trkpt lat="42.0080783" lon="-8.0557576"><ele>913.0</ele><time>2026-04-18T10:58:36.784Z</time></trkpt><trkpt lat="42.0080428" lon="-8.0558881"><ele>913.0</ele><time>2026-04-18T10:58:38.785Z</time></trkpt><trkpt lat="42.0079196" lon="-8.0559508"><ele>913.0</ele><time>2026-04-18T10:58:40.782Z</time></trkpt><trkpt lat="42.0078321" lon="-8.0559747"><ele>913.0</ele><time>2026-04-18T10:58:41.786Z</time></trkpt><trkpt lat="42.0077129" lon="-8.0559845"><ele>913.25</ele><time>2026-04-18T10:58:42.782Z</time></trkpt><trkpt lat="42.0075709" lon="-8.0559581"><ele>913.5</ele><time>2026-04-18T10:58:43.783Z</time></trkpt><trkpt lat="42.0074329" lon="-8.0559068"><ele>913.75</ele><time>2026-04-18T10:58:44.783Z</time></trkpt><trkpt lat="42.0073073" lon="-8.0558366"><ele>914.0</ele><time>2026-04-18T10:58:45.784Z</time></trkpt><trkpt lat="42.0072072" lon="-8.055775"><ele>914.0000000000001</ele><time>2026-04-18T10:58:46.784Z</time></trkpt><trkpt lat="42.0071261" lon="-8.0557244"><ele>914.0</ele><time>2026-04-18T10:58:47.783Z</time></trkpt><trkpt lat="42.0070597" lon="-8.0556896"><ele>914.0</ele><time>2026-04-18T10:58:48.783Z</time></trkpt><trkpt lat="42.0069744" lon="-8.0556369"><ele>914.0</ele><time>2026-04-18T10:58:50.783Z</time></trkpt><trkpt lat="42.0070172" lon="-8.0557068"><ele>914.0000000000001</ele><time>2026-04-18T10:58:59.784Z</time></trkpt><trkpt lat="42.0070948" lon="-8.0557749"><ele>914.0</ele><time>2026-04-18T10:59:35.783Z</time></trkpt><trkpt lat="42.0071389" lon="-8.0558354"><ele>916.2</ele><time>2026-04-18T10:59:36.789Z</time></trkpt><trkpt lat="42.0071982" lon="-8.0559022"><ele>918.4000000000001</ele><time>2026-04-18T10:59:37.783Z</time></trkpt><trkpt lat="42.0072733" lon="-8.0559793"><ele>920.6</ele><time>2026-04-18T10:59:38.784Z</time></trkpt><trkpt lat="42.0073646" lon="-8.0560566"><ele>922.8</ele><time>2026-04-18T10:59:39.783Z</time></trkpt><trkpt lat="42.0074674" lon="-8.0561424"><ele>925.0</ele><time>2026-04-18T10:59:40.785Z</time></trkpt><trkpt lat="42.0075796" lon="-8.0562363"><ele>925.0</ele><time>2026-04-18T10:59:41.783Z</time></trkpt><trkpt lat="42.0076955" lon="-8.0563366"><ele>925.0</ele><time>2026-04-18T10:59:42.783Z</time></trkpt><trkpt lat="42.0078138" lon="-8.0564446"><ele>925.0</ele><time>2026-04-18T10:59:43.785Z</time></trkpt><trkpt lat="42.0079324" lon="-8.0565565"><ele>925.0</ele><time>2026-04-18T10:59:44.784Z</time></trkpt><trkpt lat="42.0080519" lon="-8.0566646"><ele>927.5</ele><time>2026-04-18T10:59:45.782Z</time></trkpt><trkpt lat="42.0081695" lon="-8.0567712"><ele>930.0</ele><time>2026-04-18T10:59:46.786Z</time></trkpt><trkpt lat="42.0082845" lon="-8.0568793"><ele>932.5</ele><time>2026-04-18T10:59:47.783Z</time></trkpt><trkpt lat="42.0084021" lon="-8.0569763"><ele>935.0</ele><time>2026-04-18T10:59:48.784Z</time></trkpt><trkpt lat="42.0085285" lon="-8.0570522"><ele>935.0</ele><time>2026-04-18T10:59:49.783Z</time></trkpt><trkpt lat="42.0086511" lon="-8.0570901"><ele>935.0</ele><time>2026-04-18T10:59:50.786Z</time></trkpt><trkpt lat="42.008771" lon="-8.0571111"><ele>935.0</ele><time>2026-04-18T10:59:51.782Z</time></trkpt><trkpt lat="42.0088881" lon="-8.0571408"><ele>935.0</ele><time>2026-04-18T10:59:52.782Z</time></trkpt><trkpt lat="42.0090006" lon="-8.0571932"><ele>935.0</ele><time>2026-04-18T10:59:53.783Z</time></trkpt><trkpt lat="42.0091102" lon="-8.0572627"><ele>935.0</ele><time>2026-04-18T10:59:54.783Z</time></trkpt><trkpt lat="42.0091982" lon="-8.0573463"><ele>935.0</ele><time>2026-04-18T10:59:55.787Z</time></trkpt><trkpt lat="42.0092669" lon="-8.0574411"><ele>935.0</ele><time>2026-04-18T10:59:56.785Z</time></trkpt><trkpt lat="42.0093187" lon="-8.0575353"><ele>935.0</ele><time>2026-04-18T10:59:57.786Z</time></trkpt><trkpt lat="42.0093492" lon="-8.0576295"><ele>936.4</ele><time>2026-04-18T10:59:58.783Z</time></trkpt><trkpt lat="42.0093537" lon="-8.0577272"><ele>937.8</ele><time>2026-04-18T10:59:59.783Z</time></trkpt><trkpt lat="42.0093339" lon="-8.0578282"><ele>939.2</ele><time>2026-04-18T11:00:00.785Z</time></trkpt><trkpt lat="42.0092835" lon="-8.0579236"><ele>940.6</ele><time>2026-04-18T11:00:01.784Z</time></trkpt><trkpt lat="42.0091968" lon="-8.0580048"><ele>942.0</ele><time>2026-04-18T11:00:02.783Z</time></trkpt><trkpt lat="42.0090823" lon="-8.0580977"><ele>943.6666666666667</ele><time>2026-04-18T11:00:03.784Z</time></trkpt><trkpt lat="42.0089305" lon="-8.0582243"><ele>945.3333333333334</ele><time>2026-04-18T11:00:04.783Z</time></trkpt><trkpt lat="42.0087865" lon="-8.0583686"><ele>947.0</ele><time>2026-04-18T11:00:05.784Z</time></trkpt><trkpt lat="42.0086537" lon="-8.0585148"><ele>948.6666666666667</ele><time>2026-04-18T11:00:06.783Z</time></trkpt><trkpt lat="42.0085315" lon="-8.058663"><ele>950.3333333333333</ele><time>2026-04-18T11:00:07.783Z</time></trkpt><trkpt lat="42.0084291" lon="-8.0588231"><ele>952.0</ele><time>2026-04-18T11:00:08.784Z</time></trkpt><trkpt lat="42.0083502" lon="-8.0589969"><ele>956.6666666666666</ele><time>2026-04-18T11:00:09.783Z</time></trkpt><trkpt lat="42.00829" lon="-8.0591905"><ele>961.3333333333333</ele><time>2026-04-18T11:00:10.783Z</time></trkpt><trkpt lat="42.008244" lon="-8.0593992"><ele>966.0</ele><time>2026-04-18T11:00:11.786Z</time></trkpt><trkpt lat="42.0082082" lon="-8.0595979"><ele>966.0</ele><time>2026-04-18T11:00:12.782Z</time></trkpt><trkpt lat="42.0081687" lon="-8.0597673"><ele>966.0</ele><time>2026-04-18T11:00:13.783Z</time></trkpt><trkpt lat="42.008108" lon="-8.0599187"><ele>966.0</ele><time>2026-04-18T11:00:14.786Z</time></trkpt><trkpt lat="42.0080172" lon="-8.0600644"><ele>966.0</ele><time>2026-04-18T11:00:15.783Z</time></trkpt><trkpt lat="42.0079128" lon="-8.0602058"><ele>965.25</ele><time>2026-04-18T11:00:16.783Z</time></trkpt><trkpt lat="42.007807" lon="-8.0603463"><ele>964.5</ele><time>2026-04-18T11:00:17.786Z</time></trkpt><trkpt lat="42.007705" lon="-8.0604865"><ele>963.75</ele><time>2026-04-18T11:00:18.786Z</time></trkpt><trkpt lat="42.0076097" lon="-8.0606243"><ele>963.0</ele><time>2026-04-18T11:00:19.786Z</time></trkpt><trkpt lat="42.007523" lon="-8.0607574"><ele>962.8</ele><time>2026-04-18T11:00:20.783Z</time></trkpt><trkpt lat="42.007444" lon="-8.0608786"><ele>962.5999999999999</ele><time>2026-04-18T11:00:21.783Z</time></trkpt><trkpt lat="42.007376" lon="-8.0609824"><ele>962.4000000000001</ele><time>2026-04-18T11:00:22.783Z</time></trkpt><trkpt lat="42.0073228" lon="-8.0610685"><ele>962.2</ele><time>2026-04-18T11:00:23.783Z</time></trkpt><trkpt lat="42.0072786" lon="-8.0611469"><ele>962.0</ele><time>2026-04-18T11:00:24.786Z</time></trkpt><trkpt lat="42.0072444" lon="-8.0612639"><ele>962.0</ele><time>2026-04-18T11:00:26.783Z</time></trkpt><trkpt lat="42.007352" lon="-8.0612787"><ele>962.0</ele><time>2026-04-18T11:00:29.784Z</time></trkpt><trkpt lat="42.0074367" lon="-8.0612337"><ele>962.0</ele><time>2026-04-18T11:00:30.784Z</time></trkpt><trkpt lat="42.0075338" lon="-8.0611956"><ele>962.0</ele><time>2026-04-18T11:00:31.783Z</time></trkpt><trkpt lat="42.0076237" lon="-8.0611643"><ele>962.0</ele><time>2026-04-18T11:00:32.784Z</time></trkpt><trkpt lat="42.0077062" lon="-8.0611402"><ele>963.1666666666667</ele><time>2026-04-18T11:00:33.785Z</time></trkpt><trkpt lat="42.0077751" lon="-8.0611246"><ele>964.3333333333334</ele><time>2026-04-18T11:00:34.784Z</time></trkpt><trkpt lat="42.0078733" lon="-8.0611033"><ele>965.5</ele><time>2026-04-18T11:00:36.784Z</time></trkpt><trkpt lat="42.0079383" lon="-8.0610867"><ele>966.6666666666667</ele><time>2026-04-18T11:01:10.783Z</time></trkpt><trkpt lat="42.0080533" lon="-8.0611033"><ele>967.8333333333334</ele><time>2026-04-18T11:01:12.784Z</time></trkpt><trkpt lat="42.0081283" lon="-8.0611167"><ele>969.0</ele><time>2026-04-18T11:01:13.784Z</time></trkpt><trkpt lat="42.0082133" lon="-8.0611333"><ele>969.0</ele><time>2026-04-18T11:01:14.784Z</time></trkpt><trkpt lat="42.0083183" lon="-8.0611667"><ele>969.0</ele><time>2026-04-18T11:01:15.784Z</time></trkpt><trkpt lat="42.0084367" lon="-8.061215"><ele>969.0</ele><time>2026-04-18T11:01:16.784Z</time></trkpt><trkpt lat="42.0085667" lon="-8.0612717"><ele>969.0</ele><time>2026-04-18T11:01:17.783Z</time></trkpt><trkpt lat="42.0087017" lon="-8.0613283"><ele>968.3333333333333</ele><time>2026-04-18T11:01:18.783Z</time></trkpt><trkpt lat="42.0088467" lon="-8.061375"><ele>967.6666666666666</ele><time>2026-04-18T11:01:19.785Z</time></trkpt><trkpt lat="42.0089967" lon="-8.0614117"><ele>967.0</ele><time>2026-04-18T11:01:20.784Z</time></trkpt><trkpt lat="42.009145" lon="-8.06145"><ele>967.25</ele><time>2026-04-18T11:01:21.783Z</time></trkpt><trkpt lat="42.0092933" lon="-8.0614967"><ele>967.5</ele><time>2026-04-18T11:01:22.783Z</time></trkpt><trkpt lat="42.0094317" lon="-8.0615333"><ele>967.75</ele><time>2026-04-18T11:01:23.784Z</time></trkpt><trkpt lat="42.0095617" lon="-8.06156"><ele>968.0</ele><time>2026-04-18T11:01:24.783Z</time></trkpt><trkpt lat="42.0096833" lon="-8.0615933"><ele>971.75</ele><time>2026-04-18T11:01:25.783Z</time></trkpt><trkpt lat="42.009795" lon="-8.0616483"><ele>975.5</ele><time>2026-04-18T11:01:26.784Z</time></trkpt><trkpt lat="42.0098967" lon="-8.06173"><ele>979.25</ele><time>2026-04-18T11:01:27.784Z</time></trkpt><trkpt lat="42.0099983" lon="-8.0618267"><ele>983.0</ele><time>2026-04-18T11:01:28.785Z</time></trkpt><trkpt lat="42.0100983" lon="-8.06194"><ele>983.0</ele><time>2026-04-18T11:01:29.783Z</time></trkpt><trkpt lat="42.010195" lon="-8.062065"><ele>983.0</ele><time>2026-04-18T11:01:30.784Z</time></trkpt><trkpt lat="42.01029" lon="-8.06219"><ele>983.0</ele><time>2026-04-18T11:01:31.783Z</time></trkpt><trkpt lat="42.0103867" lon="-8.0622983"><ele>983.0</ele><time>2026-04-18T11:01:32.784Z</time></trkpt><trkpt lat="42.0104917" lon="-8.0623867"><ele>986.25</ele><time>2026-04-18T11:01:33.785Z</time></trkpt><trkpt lat="42.010605" lon="-8.0624517"><ele>989.5</ele><time>2026-04-18T11:01:34.784Z</time></trkpt><trkpt lat="42.01072" lon="-8.0624967"><ele>992.75</ele><time>2026-04-18T11:01:35.784Z</time></trkpt><trkpt lat="42.010825" lon="-8.0625367"><ele>996.0</ele><time>2026-04-18T11:01:36.784Z</time></trkpt><trkpt lat="42.0109217" lon="-8.0625933"><ele>996.0</ele><time>2026-04-18T11:01:37.784Z</time></trkpt><trkpt lat="42.0110067" lon="-8.0626717"><ele>996.0</ele><time>2026-04-18T11:01:38.785Z</time></trkpt><trkpt lat="42.0110967" lon="-8.062765"><ele>996.0</ele><time>2026-04-18T11:01:39.784Z</time></trkpt><trkpt lat="42.0111917" lon="-8.062885"><ele>996.0</ele><time>2026-04-18T11:01:40.783Z</time></trkpt><trkpt lat="42.0112883" lon="-8.0630133"><ele>996.0</ele><time>2026-04-18T11:01:41.787Z</time></trkpt><trkpt lat="42.01138" lon="-8.0631333"><ele>996.0</ele><time>2026-04-18T11:01:42.783Z</time></trkpt><trkpt lat="42.0114667" lon="-8.0632283"><ele>996.0</ele><time>2026-04-18T11:01:43.783Z</time></trkpt><trkpt lat="42.0115583" lon="-8.0632867"><ele>996.0</ele><time>2026-04-18T11:01:44.784Z</time></trkpt><trkpt lat="42.0116633" lon="-8.0633267"><ele>999.5</ele><time>2026-04-18T11:01:45.784Z</time></trkpt><trkpt lat="42.0117767" lon="-8.0633317"><ele>1003.0</ele><time>2026-04-18T11:01:46.783Z</time></trkpt><trkpt lat="42.0119067" lon="-8.0633333"><ele>1006.5</ele><time>2026-04-18T11:01:47.784Z</time></trkpt><trkpt lat="42.012045" lon="-8.06333"><ele>1010.0</ele><time>2026-04-18T11:01:48.785Z</time></trkpt><trkpt lat="42.0121883" lon="-8.063325"><ele>1010.0</ele><time>2026-04-18T11:01:49.783Z</time></trkpt><trkpt lat="42.0123333" lon="-8.06332"><ele>1010.0</ele><time>2026-04-18T11:01:50.787Z</time></trkpt><trkpt lat="42.0124733" lon="-8.0633033"><ele>1010.0</ele><time>2026-04-18T11:01:51.783Z</time></trkpt><trkpt lat="42.0126067" lon="-8.0632817"><ele>1010.0</ele><time>2026-04-18T11:01:52.783Z</time></trkpt><trkpt lat="42.0127283" lon="-8.0632617"><ele>1010.8</ele><time>2026-04-18T11:01:53.784Z</time></trkpt><trkpt lat="42.0128383" lon="-8.063255"><ele>1011.6</ele><time>2026-04-18T11:01:54.784Z</time></trkpt><trkpt lat="42.0129467" lon="-8.0632817"><ele>1012.4000000000001</ele><time>2026-04-18T11:01:55.784Z</time></trkpt><trkpt lat="42.0130417" lon="-8.063345"><ele>1013.2</ele><time>2026-04-18T11:01:56.789Z</time></trkpt><trkpt lat="42.0131283" lon="-8.0634317"><ele>1014.0</ele><time>2026-04-18T11:01:57.785Z</time></trkpt><trkpt lat="42.013215" lon="-8.0635517"><ele>1014.0</ele><time>2026-04-18T11:01:58.783Z</time></trkpt><trkpt lat="42.0133083" lon="-8.0636883"><ele>1014.0</ele><time>2026-04-18T11:01:59.784Z</time></trkpt><trkpt lat="42.0134117" lon="-8.06382"><ele>1014.0</ele><time>2026-04-18T11:02:00.784Z</time></trkpt><trkpt lat="42.01352" lon="-8.0639417"><ele>1014.0</ele><time>2026-04-18T11:02:01.784Z</time></trkpt><trkpt lat="42.0136417" lon="-8.0640717"><ele>1019.3333333333333</ele><time>2026-04-18T11:02:02.784Z</time></trkpt><trkpt lat="42.0137667" lon="-8.064215"><ele>1024.6666666666665</ele><time>2026-04-18T11:02:03.784Z</time></trkpt><trkpt lat="42.0138867" lon="-8.0643533"><ele>1030.0</ele><time>2026-04-18T11:02:04.783Z</time></trkpt><trkpt lat="42.0140033" lon="-8.0644933"><ele>1030.0</ele><time>2026-04-18T11:02:05.783Z</time></trkpt><trkpt lat="42.0141133" lon="-8.0646183"><ele>1030.0</ele><time>2026-04-18T11:02:06.784Z</time></trkpt><trkpt lat="42.01422" lon="-8.0647283"><ele>1030.0</ele><time>2026-04-18T11:02:07.782Z</time></trkpt><trkpt lat="42.0143217" lon="-8.0648133"><ele>1030.0</ele><time>2026-04-18T11:02:08.784Z</time></trkpt><trkpt lat="42.0144267" lon="-8.064895"><ele>1031.5</ele><time>2026-04-18T11:02:09.784Z</time></trkpt><trkpt lat="42.0145367" lon="-8.0649633"><ele>1033.0</ele><time>2026-04-18T11:02:10.782Z</time></trkpt><trkpt lat="42.0146467" lon="-8.065025"><ele>1034.5</ele><time>2026-04-18T11:02:11.783Z</time></trkpt><trkpt lat="42.0147517" lon="-8.065095"><ele>1036.0</ele><time>2026-04-18T11:02:12.783Z</time></trkpt><trkpt lat="42.0148483" lon="-8.06517"><ele>1036.0</ele><time>2026-04-18T11:02:13.782Z</time></trkpt><trkpt lat="42.0149233" lon="-8.065265"><ele>1036.0</ele><time>2026-04-18T11:02:14.783Z</time></trkpt><trkpt lat="42.0149933" lon="-8.0653667"><ele>1036.0</ele><time>2026-04-18T11:02:15.782Z</time></trkpt><trkpt lat="42.0150583" lon="-8.065475"><ele>1036.0</ele><time>2026-04-18T11:02:16.783Z</time></trkpt><trkpt lat="42.01512" lon="-8.0655867"><ele>1036.0</ele><time>2026-04-18T11:02:17.786Z</time></trkpt><trkpt lat="42.01518" lon="-8.065695"><ele>1036.8333333333333</ele><time>2026-04-18T11:02:18.783Z</time></trkpt><trkpt lat="42.01524" lon="-8.065795"><ele>1037.6666666666665</ele><time>2026-04-18T11:02:19.783Z</time></trkpt><trkpt lat="42.015295" lon="-8.0658817"><ele>1038.5</ele><time>2026-04-18T11:02:20.783Z</time></trkpt><trkpt lat="42.0153383" lon="-8.065975"><ele>1039.3333333333333</ele><time>2026-04-18T11:02:21.783Z</time></trkpt><trkpt lat="42.0153817" lon="-8.0660683"><ele>1040.1666666666667</ele><time>2026-04-18T11:02:22.784Z</time></trkpt><trkpt lat="42.01543" lon="-8.066155"><ele>1041.0</ele><time>2026-04-18T11:02:23.783Z</time></trkpt><trkpt lat="42.015485" lon="-8.0662317"><ele>1041.0</ele><time>2026-04-18T11:02:24.783Z</time></trkpt><trkpt lat="42.0155483" lon="-8.0663033"><ele>1041.0</ele><time>2026-04-18T11:02:25.783Z</time></trkpt><trkpt lat="42.0156133" lon="-8.0663883"><ele>1041.0</ele><time>2026-04-18T11:02:26.783Z</time></trkpt><trkpt lat="42.015675" lon="-8.06649"><ele>1041.0</ele><time>2026-04-18T11:02:27.783Z</time></trkpt><trkpt lat="42.0157233" lon="-8.0665917"><ele>1041.0</ele><time>2026-04-18T11:02:28.784Z</time></trkpt><trkpt lat="42.01576" lon="-8.0667033"><ele>1044.6</ele><time>2026-04-18T11:02:29.783Z</time></trkpt><trkpt lat="42.0157783" lon="-8.0668217"><ele>1048.1999999999998</ele><time>2026-04-18T11:02:30.782Z</time></trkpt><trkpt lat="42.01579" lon="-8.0669467"><ele>1051.8000000000002</ele><time>2026-04-18T11:02:31.784Z</time></trkpt><trkpt lat="42.0157933" lon="-8.067065"><ele>1055.4</ele><time>2026-04-18T11:02:32.784Z</time></trkpt><trkpt lat="42.0157883" lon="-8.067185"><ele>1059.0</ele><time>2026-04-18T11:02:33.783Z</time></trkpt><trkpt lat="42.0157783" lon="-8.067305"><ele>1059.0</ele><time>2026-04-18T11:02:34.783Z</time></trkpt><trkpt lat="42.0157667" lon="-8.0674283"><ele>1059.0</ele><time>2026-04-18T11:02:35.783Z</time></trkpt><trkpt lat="42.0157533" lon="-8.0675567"><ele>1059.0</ele><time>2026-04-18T11:02:36.786Z</time></trkpt><trkpt lat="42.0157383" lon="-8.0676867"><ele>1059.0</ele><time>2026-04-18T11:02:37.783Z</time></trkpt><trkpt lat="42.0157183" lon="-8.0678233"><ele>1059.0</ele><time>2026-04-18T11:02:38.783Z</time></trkpt><trkpt lat="42.0156867" lon="-8.0679583"><ele>1059.5</ele><time>2026-04-18T11:02:39.783Z</time></trkpt><trkpt lat="42.01564" lon="-8.0680933"><ele>1060.0</ele><time>2026-04-18T11:02:40.784Z</time></trkpt><trkpt lat="42.0155767" lon="-8.0682217"><ele>1060.5</ele><time>2026-04-18T11:02:41.783Z</time></trkpt><trkpt lat="42.0155083" lon="-8.0683467"><ele>1061.0</ele><time>2026-04-18T11:02:42.784Z</time></trkpt><trkpt lat="42.0154417" lon="-8.0684683"><ele>1061.0</ele><time>2026-04-18T11:02:43.784Z</time></trkpt><trkpt lat="42.0153633" lon="-8.068585"><ele>1061.0</ele><time>2026-04-18T11:02:44.783Z</time></trkpt><trkpt lat="42.015285" lon="-8.0687"><ele>1061.0</ele><time>2026-04-18T11:02:45.783Z</time></trkpt><trkpt lat="42.0151983" lon="-8.0688267"><ele>1061.0</ele><time>2026-04-18T11:02:46.783Z</time></trkpt><trkpt lat="42.0151033" lon="-8.0689567"><ele>1061.0</ele><time>2026-04-18T11:02:47.784Z</time></trkpt><trkpt lat="42.014995" lon="-8.0690883"><ele>1061.0</ele><time>2026-04-18T11:02:48.785Z</time></trkpt><trkpt lat="42.0148817" lon="-8.0692133"><ele>1061.0</ele><time>2026-04-18T11:02:49.783Z</time></trkpt><trkpt lat="42.0147633" lon="-8.0693383"><ele>1061.0</ele><time>2026-04-18T11:02:50.783Z</time></trkpt><trkpt lat="42.0146367" lon="-8.0694517"><ele>1064.0</ele><time>2026-04-18T11:02:51.786Z</time></trkpt><trkpt lat="42.0145" lon="-8.0695533"><ele>1067.0</ele><time>2026-04-18T11:02:52.782Z</time></trkpt><trkpt lat="42.0143533" lon="-8.0696467"><ele>1070.0</ele><time>2026-04-18T11:02:53.784Z</time></trkpt><trkpt lat="42.0142133" lon="-8.0697283"><ele>1072.0</ele><time>2026-04-18T11:02:54.784Z</time></trkpt><trkpt lat="42.014085" lon="-8.06981"><ele>1074.0</ele><time>2026-04-18T11:02:55.783Z</time></trkpt><trkpt lat="42.0139667" lon="-8.0699033"><ele>1076.0</ele><time>2026-04-18T11:02:56.787Z</time></trkpt><trkpt lat="42.0138617" lon="-8.0700117"><ele>1078.0</ele><time>2026-04-18T11:02:57.784Z</time></trkpt><trkpt lat="42.0137567" lon="-8.07012"><ele>1078.0</ele><time>2026-04-18T11:02:58.783Z</time></trkpt><trkpt lat="42.0136367" lon="-8.0702167"><ele>1078.0</ele><time>2026-04-18T11:02:59.786Z</time></trkpt><trkpt lat="42.0134917" lon="-8.0702983"><ele>1078.0</ele><time>2026-04-18T11:03:00.783Z</time></trkpt><trkpt lat="42.0133283" lon="-8.0703733"><ele>1083.0</ele><time>2026-04-18T11:03:01.783Z</time></trkpt><trkpt lat="42.013165" lon="-8.070455"><ele>1088.0</ele><time>2026-04-18T11:03:02.784Z</time></trkpt><trkpt lat="42.0130117" lon="-8.0705383"><ele>1093.0</ele><time>2026-04-18T11:03:03.784Z</time></trkpt><trkpt lat="42.0128533" lon="-8.0706183"><ele>1093.0</ele><time>2026-04-18T11:03:04.784Z</time></trkpt><trkpt lat="42.0126717" lon="-8.070685"><ele>1093.0</ele><time>2026-04-18T11:03:05.783Z</time></trkpt><trkpt lat="42.0124633" lon="-8.07074"><ele>1093.0</ele><time>2026-04-18T11:03:06.786Z</time></trkpt><trkpt lat="42.012255" lon="-8.0707933"><ele>1090.6666666666665</ele><time>2026-04-18T11:03:07.783Z</time></trkpt><trkpt lat="42.0120717" lon="-8.0708417"><ele>1088.3333333333333</ele><time>2026-04-18T11:03:08.783Z</time></trkpt><trkpt lat="42.011915" lon="-8.070885"><ele>1086.0</ele><time>2026-04-18T11:03:09.783Z</time></trkpt><trkpt lat="42.0117667" lon="-8.0709217"><ele>1090.2</ele><time>2026-04-18T11:03:10.783Z</time></trkpt><trkpt lat="42.01164" lon="-8.0709717"><ele>1094.3999999999999</ele><time>2026-04-18T11:03:11.786Z</time></trkpt><trkpt lat="42.01153" lon="-8.0710383"><ele>1098.6</ele><time>2026-04-18T11:03:12.783Z</time></trkpt><trkpt lat="42.0114383" lon="-8.0711083"><ele>1102.8</ele><time>2026-04-18T11:03:13.783Z</time></trkpt><trkpt lat="42.01138" lon="-8.07118"><ele>1107.0</ele><time>2026-04-18T11:03:14.786Z</time></trkpt><trkpt lat="42.01134" lon="-8.071255"><ele>1107.0</ele><time>2026-04-18T11:03:15.782Z</time></trkpt><trkpt lat="42.0113283" lon="-8.0713567"><ele>1107.0</ele><time>2026-04-18T11:03:16.783Z</time></trkpt><trkpt lat="42.0113467" lon="-8.071465"><ele>1107.0</ele><time>2026-04-18T11:03:17.784Z</time></trkpt><trkpt lat="42.01138" lon="-8.071585"><ele>1107.0</ele><time>2026-04-18T11:03:18.785Z</time></trkpt><trkpt lat="42.0114267" lon="-8.0717183"><ele>1107.0</ele><time>2026-04-18T11:03:19.783Z</time></trkpt><trkpt lat="42.0114567" lon="-8.0718433"><ele>1108.2</ele><time>2026-04-18T11:03:20.785Z</time></trkpt><trkpt lat="42.0114867" lon="-8.071975"><ele>1109.4</ele><time>2026-04-18T11:03:21.783Z</time></trkpt><trkpt lat="42.0115033" lon="-8.072115"><ele>1110.6</ele><time>2026-04-18T11:03:22.783Z</time></trkpt><trkpt lat="42.0115017" lon="-8.0722583"><ele>1111.8</ele><time>2026-04-18T11:03:23.783Z</time></trkpt><trkpt lat="42.0114867" lon="-8.0724017"><ele>1113.0</ele><time>2026-04-18T11:03:24.783Z</time></trkpt><trkpt lat="42.0114633" lon="-8.0725433"><ele>1114.0</ele><time>2026-04-18T11:03:25.783Z</time></trkpt><trkpt lat="42.0114333" lon="-8.07269"><ele>1115.0</ele><time>2026-04-18T11:03:26.783Z</time></trkpt><trkpt lat="42.011405" lon="-8.072835"><ele>1116.0</ele><time>2026-04-18T11:03:27.784Z</time></trkpt><trkpt lat="42.0113817" lon="-8.072975"><ele>1117.0</ele><time>2026-04-18T11:03:28.783Z</time></trkpt><trkpt lat="42.0113767" lon="-8.0731017"><ele>1118.0</ele><time>2026-04-18T11:03:29.785Z</time></trkpt><trkpt lat="42.0114017" lon="-8.0732217"><ele>1120.0</ele><time>2026-04-18T11:03:30.784Z</time></trkpt><trkpt lat="42.0114467" lon="-8.073335"><ele>1122.0</ele><time>2026-04-18T11:03:31.783Z</time></trkpt><trkpt lat="42.01152" lon="-8.0734533"><ele>1124.0</ele><time>2026-04-18T11:03:32.784Z</time></trkpt><trkpt lat="42.0116183" lon="-8.073565"><ele>1126.0</ele><time>2026-04-18T11:03:33.783Z</time></trkpt><trkpt lat="42.0117317" lon="-8.0736683"><ele>1118.5</ele><time>2026-04-18T11:03:34.785Z</time></trkpt><trkpt lat="42.0118483" lon="-8.0737583"><ele>1111.0</ele><time>2026-04-18T11:03:35.785Z</time></trkpt><trkpt lat="42.0119533" lon="-8.0738283"><ele>1103.5</ele><time>2026-04-18T11:03:36.783Z</time></trkpt><trkpt lat="42.0120433" lon="-8.073915"><ele>1096.0</ele><time>2026-04-18T11:03:37.783Z</time></trkpt><trkpt lat="42.0121117" lon="-8.0740217"><ele>1101.25</ele><time>2026-04-18T11:03:38.786Z</time></trkpt><trkpt lat="42.0121633" lon="-8.07416"><ele>1106.5</ele><time>2026-04-18T11:03:39.783Z</time></trkpt><trkpt lat="42.0121917" lon="-8.0743417"><ele>1111.75</ele><time>2026-04-18T11:03:40.783Z</time></trkpt><trkpt lat="42.012225" lon="-8.074515"><ele>1117.0</ele><time>2026-04-18T11:03:41.784Z</time></trkpt><trkpt lat="42.0122517" lon="-8.074685"><ele>1117.0</ele><time>2026-04-18T11:03:42.784Z</time></trkpt><trkpt lat="42.012265" lon="-8.0748517"><ele>1117.0</ele><time>2026-04-18T11:03:43.784Z</time></trkpt><trkpt lat="42.0122633" lon="-8.0750367"><ele>1117.0</ele><time>2026-04-18T11:03:44.783Z</time></trkpt><trkpt lat="42.01225" lon="-8.07524"><ele>1117.0</ele><time>2026-04-18T11:03:45.784Z</time></trkpt><trkpt lat="42.0122317" lon="-8.075455"><ele>1121.6666666666665</ele><time>2026-04-18T11:03:46.783Z</time></trkpt><trkpt lat="42.0122217" lon="-8.0756667"><ele>1126.3333333333333</ele><time>2026-04-18T11:03:47.784Z</time></trkpt><trkpt lat="42.01221" lon="-8.07588"><ele>1131.0</ele><time>2026-04-18T11:03:48.784Z</time></trkpt><trkpt lat="42.0122033" lon="-8.0760817"><ele>1133.0</ele><time>2026-04-18T11:03:49.784Z</time></trkpt><trkpt lat="42.0122033" lon="-8.0762683"><ele>1135.0</ele><time>2026-04-18T11:03:50.783Z</time></trkpt><trkpt lat="42.0122" lon="-8.0764367"><ele>1137.0</ele><time>2026-04-18T11:03:51.783Z</time></trkpt><trkpt lat="42.0121833" lon="-8.0765917"><ele>1139.0</ele><time>2026-04-18T11:03:52.784Z</time></trkpt><trkpt lat="42.0121567" lon="-8.076715"><ele>1139.5</ele><time>2026-04-18T11:03:53.786Z</time></trkpt><trkpt lat="42.0121167" lon="-8.0768133"><ele>1140.0</ele><time>2026-04-18T11:03:54.783Z</time></trkpt><trkpt lat="42.0120867" lon="-8.0769"><ele>1140.5</ele><time>2026-04-18T11:03:55.787Z</time></trkpt><trkpt lat="42.012045" lon="-8.0770483"><ele>1141.0</ele><time>2026-04-18T11:03:57.785Z</time></trkpt><trkpt lat="42.012075" lon="-8.0771517"><ele>1141.5</ele><time>2026-04-18T11:03:59.783Z</time></trkpt><trkpt lat="42.0121383" lon="-8.0771867"><ele>1142.0</ele><time>2026-04-18T11:04:00.783Z</time></trkpt><trkpt lat="42.0122233" lon="-8.0772167"><ele>1142.0</ele><time>2026-04-18T11:04:01.783Z</time></trkpt><trkpt lat="42.012335" lon="-8.077255"><ele>1142.0</ele><time>2026-04-18T11:04:02.785Z</time></trkpt><trkpt lat="42.0124317" lon="-8.07731"><ele>1142.0</ele><time>2026-04-18T11:04:03.783Z</time></trkpt><trkpt lat="42.0125267" lon="-8.0773833"><ele>1142.0</ele><time>2026-04-18T11:04:04.784Z</time></trkpt><trkpt lat="42.0126217" lon="-8.0774483"><ele>1142.0</ele><time>2026-04-18T11:04:05.784Z</time></trkpt><trkpt lat="42.0127233" lon="-8.0774717"><ele>1140.8</ele><time>2026-04-18T11:04:06.783Z</time></trkpt><trkpt lat="42.01283" lon="-8.0774583"><ele>1139.6</ele><time>2026-04-18T11:04:07.786Z</time></trkpt><trkpt lat="42.012935" lon="-8.0774283"><ele>1138.3999999999999</ele><time>2026-04-18T11:04:08.783Z</time></trkpt><trkpt lat="42.0130333" lon="-8.0773967"><ele>1137.2</ele><time>2026-04-18T11:04:09.783Z</time></trkpt><trkpt lat="42.01312" lon="-8.0773817"><ele>1136.0</ele><time>2026-04-18T11:04:10.783Z</time></trkpt><trkpt lat="42.0132033" lon="-8.0773833"><ele>1135.2</ele><time>2026-04-18T11:04:11.783Z</time></trkpt><trkpt lat="42.0132683" lon="-8.0773933"><ele>1134.3999999999999</ele><time>2026-04-18T11:04:12.784Z</time></trkpt><trkpt lat="42.013325" lon="-8.0774317"><ele>1133.6</ele><time>2026-04-18T11:04:13.784Z</time></trkpt><trkpt lat="42.0133933" lon="-8.0776017"><ele>1132.8</ele><time>2026-04-18T11:04:15.783Z</time></trkpt><trkpt lat="42.0134167" lon="-8.0777533"><ele>1132.0</ele><time>2026-04-18T11:04:16.786Z</time></trkpt><trkpt lat="42.013445" lon="-8.077905"><ele>1132.0</ele><time>2026-04-18T11:04:17.783Z</time></trkpt><trkpt lat="42.0134667" lon="-8.0780567"><ele>1132.0</ele><time>2026-04-18T11:04:18.784Z</time></trkpt><trkpt lat="42.0134783" lon="-8.0782"><ele>1132.0</ele><time>2026-04-18T11:04:19.786Z</time></trkpt><trkpt lat="42.0134783" lon="-8.0783517"><ele>1132.0</ele><time>2026-04-18T11:04:20.783Z</time></trkpt><trkpt lat="42.0134667" lon="-8.0785083"><ele>1133.2</ele><time>2026-04-18T11:04:21.783Z</time></trkpt><trkpt lat="42.0134517" lon="-8.07866"><ele>1134.4</ele><time>2026-04-18T11:04:22.784Z</time></trkpt><trkpt lat="42.013435" lon="-8.0788083"><ele>1135.6</ele><time>2026-04-18T11:04:23.783Z</time></trkpt><trkpt lat="42.013415" lon="-8.078955"><ele>1136.8</ele><time>2026-04-18T11:04:24.783Z</time></trkpt><trkpt lat="42.0133917" lon="-8.0791"><ele>1138.0</ele><time>2026-04-18T11:04:25.783Z</time></trkpt><trkpt lat="42.0133583" lon="-8.0792383"><ele>1139.2</ele><time>2026-04-18T11:04:26.787Z</time></trkpt><trkpt lat="42.0133267" lon="-8.07938"><ele>1140.4</ele><time>2026-04-18T11:04:27.783Z</time></trkpt><trkpt lat="42.01329" lon="-8.0795283"><ele>1141.6000000000001</ele><time>2026-04-18T11:04:28.783Z</time></trkpt><trkpt lat="42.01326" lon="-8.0796667"><ele>1142.8</ele><time>2026-04-18T11:04:29.786Z</time></trkpt><trkpt lat="42.0132417" lon="-8.079805"><ele>1144.0</ele><time>2026-04-18T11:04:30.783Z</time></trkpt><trkpt lat="42.0132333" lon="-8.0799483"><ele>1144.8</ele><time>2026-04-18T11:04:31.784Z</time></trkpt><trkpt lat="42.0132433" lon="-8.0800917"><ele>1145.6000000000001</ele><time>2026-04-18T11:04:32.784Z</time></trkpt><trkpt lat="42.0132567" lon="-8.080235"><ele>1146.4</ele><time>2026-04-18T11:04:33.785Z</time></trkpt><trkpt lat="42.0132817" lon="-8.0803883"><ele>1147.2</ele><time>2026-04-18T11:04:34.784Z</time></trkpt><trkpt lat="42.0133167" lon="-8.0805383"><ele>1148.0</ele><time>2026-04-18T11:04:35.783Z</time></trkpt><trkpt lat="42.01336" lon="-8.08067"><ele>1150.0</ele><time>2026-04-18T11:04:36.783Z</time></trkpt><trkpt lat="42.0134083" lon="-8.0807883"><ele>1152.0</ele><time>2026-04-18T11:04:37.784Z</time></trkpt><trkpt lat="42.0134483" lon="-8.08088"><ele>1154.0</ele><time>2026-04-18T11:04:38.784Z</time></trkpt><trkpt lat="42.013475" lon="-8.0809683"><ele>1156.0</ele><time>2026-04-18T11:04:39.783Z</time></trkpt><trkpt lat="42.0134667" lon="-8.08107"><ele>1158.0</ele><time>2026-04-18T11:04:41.785Z</time></trkpt><trkpt lat="42.01342" lon="-8.0811433"><ele>1160.0</ele><time>2026-04-18T11:04:43.785Z</time></trkpt><trkpt lat="42.0133233" lon="-8.0810817"><ele>1163.6666666666667</ele><time>2026-04-18T11:04:45.783Z</time></trkpt><trkpt lat="42.013255" lon="-8.080935"><ele>1167.3333333333333</ele><time>2026-04-18T11:04:46.784Z</time></trkpt><trkpt lat="42.0131617" lon="-8.0807233"><ele>1171.0</ele><time>2026-04-18T11:04:47.783Z</time></trkpt><trkpt lat="42.0130517" lon="-8.0805233"><ele>1171.0</ele><time>2026-04-18T11:04:48.784Z</time></trkpt><trkpt lat="42.0129117" lon="-8.080275"><ele>1171.0</ele><time>2026-04-18T11:04:49.784Z</time></trkpt><trkpt lat="42.0127517" lon="-8.0800217"><ele>1173.3333333333333</ele><time>2026-04-18T11:04:50.784Z</time></trkpt><trkpt lat="42.01261" lon="-8.07979"><ele>1175.6666666666667</ele><time>2026-04-18T11:04:51.784Z</time></trkpt><trkpt lat="42.0125133" lon="-8.07964"><ele>1178.0</ele><time>2026-04-18T11:04:52.784Z</time></trkpt><trkpt lat="42.0124317" lon="-8.0795317"><ele>1178.0</ele><time>2026-04-18T11:04:53.783Z</time></trkpt><trkpt lat="42.0123567" lon="-8.0794533"><ele>1178.0</ele><time>2026-04-18T11:04:54.784Z</time></trkpt><trkpt lat="42.0122683" lon="-8.0793883"><ele>1178.0</ele><time>2026-04-18T11:04:55.785Z</time></trkpt><trkpt lat="42.01216" lon="-8.0793467"><ele>1178.0</ele><time>2026-04-18T11:04:56.784Z</time></trkpt><trkpt lat="42.0120383" lon="-8.0792967"><ele>1178.0</ele><time>2026-04-18T11:04:57.784Z</time></trkpt><trkpt lat="42.01192" lon="-8.079235"><ele>1178.0</ele><time>2026-04-18T11:04:58.785Z</time></trkpt><trkpt lat="42.01181" lon="-8.07916"><ele>1178.0</ele><time>2026-04-18T11:04:59.787Z</time></trkpt><trkpt lat="42.01171" lon="-8.079075"><ele>1178.0</ele><time>2026-04-18T11:05:00.783Z</time></trkpt><trkpt lat="42.0116083" lon="-8.0789867"><ele>1178.0</ele><time>2026-04-18T11:05:01.783Z</time></trkpt><trkpt lat="42.0114983" lon="-8.07891"><ele>1177.25</ele><time>2026-04-18T11:05:02.785Z</time></trkpt><trkpt lat="42.0113833" lon="-8.0788533"><ele>1176.5</ele><time>2026-04-18T11:05:03.783Z</time></trkpt><trkpt lat="42.0112733" lon="-8.0788167"><ele>1175.75</ele><time>2026-04-18T11:05:04.783Z</time></trkpt><trkpt lat="42.0111583" lon="-8.0788133"><ele>1175.0</ele><time>2026-04-18T11:05:05.783Z</time></trkpt><trkpt lat="42.0110317" lon="-8.0788383"><ele>1175.0</ele><time>2026-04-18T11:05:06.783Z</time></trkpt><trkpt lat="42.0109" lon="-8.078875"><ele>1175.0</ele><time>2026-04-18T11:05:07.786Z</time></trkpt><trkpt lat="42.0107633" lon="-8.0789033"><ele>1175.0</ele><time>2026-04-18T11:05:08.783Z</time></trkpt><trkpt lat="42.0106333" lon="-8.0789133"><ele>1175.0</ele><time>2026-04-18T11:05:09.783Z</time></trkpt><trkpt lat="42.0105283" lon="-8.0789017"><ele>1178.0</ele><time>2026-04-18T11:05:10.789Z</time></trkpt><trkpt lat="42.010445" lon="-8.0788667"><ele>1181.0</ele><time>2026-04-18T11:05:11.786Z</time></trkpt><trkpt lat="42.0103667" lon="-8.0788133"><ele>1184.0</ele><time>2026-04-18T11:05:12.784Z</time></trkpt><trkpt lat="42.0102933" lon="-8.07874"><ele>1187.0</ele><time>2026-04-18T11:05:13.784Z</time></trkpt><trkpt lat="42.0102267" lon="-8.078635"><ele>1190.0</ele><time>2026-04-18T11:05:14.784Z</time></trkpt><trkpt lat="42.0101633" lon="-8.0784867"><ele>1190.0</ele><time>2026-04-18T11:05:15.783Z</time></trkpt><trkpt lat="42.0101067" lon="-8.0783467"><ele>1190.0</ele><time>2026-04-18T11:05:16.784Z</time></trkpt><trkpt lat="42.0100517" lon="-8.0782233"><ele>1190.0</ele><time>2026-04-18T11:05:17.783Z</time></trkpt><trkpt lat="42.0099983" lon="-8.0781233"><ele>1190.0</ele><time>2026-04-18T11:05:18.783Z</time></trkpt><trkpt lat="42.0099267" lon="-8.0780417"><ele>1190.0</ele><time>2026-04-18T11:05:19.784Z</time></trkpt><trkpt lat="42.0098367" lon="-8.077955"><ele>1191.5</ele><time>2026-04-18T11:05:20.786Z</time></trkpt><trkpt lat="42.0097383" lon="-8.07785"><ele>1193.0</ele><time>2026-04-18T11:05:21.784Z</time></trkpt><trkpt lat="42.0096417" lon="-8.0777117"><ele>1194.5</ele><time>2026-04-18T11:05:22.783Z</time></trkpt><trkpt lat="42.0095333" lon="-8.0775283"><ele>1196.0</ele><time>2026-04-18T11:05:23.783Z</time></trkpt><trkpt lat="42.00942" lon="-8.077335"><ele>1196.0</ele><time>2026-04-18T11:05:24.783Z</time></trkpt><trkpt lat="42.009315" lon="-8.0771617"><ele>1196.0</ele><time>2026-04-18T11:05:25.784Z</time></trkpt><trkpt lat="42.0092217" lon="-8.0770183"><ele>1196.0</ele><time>2026-04-18T11:05:26.785Z</time></trkpt><trkpt lat="42.0091267" lon="-8.0768983"><ele>1196.0</ele><time>2026-04-18T11:05:27.783Z</time></trkpt><trkpt lat="42.009015" lon="-8.0768067"><ele>1198.0</ele><time>2026-04-18T11:05:28.783Z</time></trkpt><trkpt lat="42.0088933" lon="-8.0767483"><ele>1200.0</ele><time>2026-04-18T11:05:29.785Z</time></trkpt><trkpt lat="42.0087617" lon="-8.0767067"><ele>1202.0</ele><time>2026-04-18T11:05:30.784Z</time></trkpt><trkpt lat="42.0086283" lon="-8.076685"><ele>1204.0</ele><time>2026-04-18T11:05:31.785Z</time></trkpt><trkpt lat="42.0085033" lon="-8.0766883"><ele>1204.0</ele><time>2026-04-18T11:05:32.785Z</time></trkpt><trkpt lat="42.0083883" lon="-8.07673"><ele>1204.0</ele><time>2026-04-18T11:05:33.786Z</time></trkpt><trkpt lat="42.0082767" lon="-8.0768033"><ele>1204.0</ele><time>2026-04-18T11:05:34.784Z</time></trkpt><trkpt lat="42.008155" lon="-8.076895"><ele>1204.0</ele><time>2026-04-18T11:05:35.784Z</time></trkpt><trkpt lat="42.008025" lon="-8.077"><ele>1204.0</ele><time>2026-04-18T11:05:36.784Z</time></trkpt><trkpt lat="42.007895" lon="-8.0770833"><ele>1204.0</ele><time>2026-04-18T11:05:37.784Z</time></trkpt><trkpt lat="42.007755" lon="-8.0771317"><ele>1204.0</ele><time>2026-04-18T11:05:38.783Z</time></trkpt><trkpt lat="42.0076017" lon="-8.0771617"><ele>1204.0</ele><time>2026-04-18T11:05:39.787Z</time></trkpt><trkpt lat="42.0074483" lon="-8.0771833"><ele>1203.75</ele><time>2026-04-18T11:05:40.782Z</time></trkpt><trkpt lat="42.0073083" lon="-8.0772"><ele>1203.5</ele><time>2026-04-18T11:05:41.787Z</time></trkpt><trkpt lat="42.0071767" lon="-8.0772233"><ele>1203.25</ele><time>2026-04-18T11:05:42.785Z</time></trkpt><trkpt lat="42.0070533" lon="-8.0772583"><ele>1203.0</ele><time>2026-04-18T11:05:43.782Z</time></trkpt><trkpt lat="42.00694" lon="-8.0773133"><ele>1203.0</ele><time>2026-04-18T11:05:44.783Z</time></trkpt><trkpt lat="42.00683" lon="-8.0773867"><ele>1203.0</ele><time>2026-04-18T11:05:45.782Z</time></trkpt><trkpt lat="42.00674" lon="-8.0774817"><ele>1203.0</ele><time>2026-04-18T11:05:46.784Z</time></trkpt><trkpt lat="42.0066617" lon="-8.0776033"><ele>1203.0</ele><time>2026-04-18T11:05:47.783Z</time></trkpt><trkpt lat="42.00659" lon="-8.0777467"><ele>1204.0</ele><time>2026-04-18T11:05:48.783Z</time></trkpt><trkpt lat="42.0065317" lon="-8.0779117"><ele>1205.0</ele><time>2026-04-18T11:05:49.782Z</time></trkpt><trkpt lat="42.0064833" lon="-8.0780917"><ele>1206.0</ele><time>2026-04-18T11:05:50.784Z</time></trkpt><trkpt lat="42.0064433" lon="-8.0782867"><ele>1207.0</ele><time>2026-04-18T11:05:51.782Z</time></trkpt><trkpt lat="42.006415" lon="-8.078475"><ele>1208.5</ele><time>2026-04-18T11:05:52.783Z</time></trkpt><trkpt lat="42.0063933" lon="-8.078655"><ele>1210.0</ele><time>2026-04-18T11:05:53.787Z</time></trkpt><trkpt lat="42.0063833" lon="-8.0788283"><ele>1211.5</ele><time>2026-04-18T11:05:54.783Z</time></trkpt><trkpt lat="42.0063883" lon="-8.0789983"><ele>1213.0</ele><time>2026-04-18T11:05:55.782Z</time></trkpt><trkpt lat="42.0064083" lon="-8.07918"><ele>1214.25</ele><time>2026-04-18T11:05:56.783Z</time></trkpt><trkpt lat="42.0064367" lon="-8.079375"><ele>1215.5</ele><time>2026-04-18T11:05:57.784Z</time></trkpt><trkpt lat="42.0064717" lon="-8.0795767"><ele>1216.75</ele><time>2026-04-18T11:05:58.783Z</time></trkpt><trkpt lat="42.0065" lon="-8.079745"><ele>1218.0</ele><time>2026-04-18T11:05:59.786Z</time></trkpt><trkpt lat="42.006525" lon="-8.079905"><ele>1218.75</ele><time>2026-04-18T11:06:00.783Z</time></trkpt><trkpt lat="42.0065417" lon="-8.0800717"><ele>1219.5</ele><time>2026-04-18T11:06:01.783Z</time></trkpt><trkpt lat="42.0065533" lon="-8.0802383"><ele>1220.25</ele><time>2026-04-18T11:06:02.783Z</time></trkpt><trkpt lat="42.0065667" lon="-8.0803933"><ele>1221.0</ele><time>2026-04-18T11:06:03.782Z</time></trkpt><trkpt lat="42.00659" lon="-8.08052"><ele>1221.0</ele><time>2026-04-18T11:06:04.783Z</time></trkpt><trkpt lat="42.0066283" lon="-8.0806233"><ele>1221.0</ele><time>2026-04-18T11:06:05.784Z</time></trkpt><trkpt lat="42.0066817" lon="-8.0807133"><ele>1221.0</ele><time>2026-04-18T11:06:06.786Z</time></trkpt><trkpt lat="42.0067633" lon="-8.08079"><ele>1221.0</ele><time>2026-04-18T11:06:07.784Z</time></trkpt><trkpt lat="42.0068717" lon="-8.0808283"><ele>1221.0</ele><time>2026-04-18T11:06:08.784Z</time></trkpt><trkpt lat="42.0070033" lon="-8.0808333"><ele>1223.25</ele><time>2026-04-18T11:06:09.782Z</time></trkpt><trkpt lat="42.007135" lon="-8.08084"><ele>1225.5</ele><time>2026-04-18T11:06:10.784Z</time></trkpt><trkpt lat="42.0072533" lon="-8.08088"><ele>1227.75</ele><time>2026-04-18T11:06:11.783Z</time></trkpt><trkpt lat="42.0073633" lon="-8.08093"><ele>1230.0</ele><time>2026-04-18T11:06:12.785Z</time></trkpt><trkpt lat="42.00747" lon="-8.0809717"><ele>1232.0</ele><time>2026-04-18T11:06:13.783Z</time></trkpt><trkpt lat="42.0075867" lon="-8.081005"><ele>1234.0</ele><time>2026-04-18T11:06:14.784Z</time></trkpt><trkpt lat="42.007725" lon="-8.0810317"><ele>1236.0</ele><time>2026-04-18T11:06:15.783Z</time></trkpt><trkpt lat="42.0078667" lon="-8.0810467"><ele>1238.0</ele><time>2026-04-18T11:06:16.784Z</time></trkpt><trkpt lat="42.0079933" lon="-8.0810633"><ele>1238.0</ele><time>2026-04-18T11:06:17.785Z</time></trkpt><trkpt lat="42.0080983" lon="-8.0811017"><ele>1238.0</ele><time>2026-04-18T11:06:18.785Z</time></trkpt><trkpt lat="42.0081817" lon="-8.0811633"><ele>1238.0</ele><time>2026-04-18T11:06:19.783Z</time></trkpt><trkpt lat="42.008245" lon="-8.08126"><ele>1238.0</ele><time>2026-04-18T11:06:20.782Z</time></trkpt><trkpt lat="42.0082867" lon="-8.08138"><ele>1238.0</ele><time>2026-04-18T11:06:21.782Z</time></trkpt><trkpt lat="42.00831" lon="-8.08153"><ele>1236.3333333333335</ele><time>2026-04-18T11:06:22.786Z</time></trkpt><trkpt lat="42.0083117" lon="-8.0817117"><ele>1234.6666666666667</ele><time>2026-04-18T11:06:23.783Z</time></trkpt><trkpt lat="42.0083017" lon="-8.0819383"><ele>1233.0</ele><time>2026-04-18T11:06:24.783Z</time></trkpt><trkpt lat="42.0083" lon="-8.082155"><ele>1233.0</ele><time>2026-04-18T11:06:25.783Z</time></trkpt><trkpt lat="42.008305" lon="-8.08236"><ele>1233.0</ele><time>2026-04-18T11:06:26.784Z</time></trkpt><trkpt lat="42.008315" lon="-8.082555"><ele>1233.0</ele><time>2026-04-18T11:06:27.782Z</time></trkpt><trkpt lat="42.0083433" lon="-8.0827233"><ele>1233.0</ele><time>2026-04-18T11:06:28.783Z</time></trkpt><trkpt lat="42.0083783" lon="-8.0828617"><ele>1235.75</ele><time>2026-04-18T11:06:29.784Z</time></trkpt><trkpt lat="42.00843" lon="-8.0829683"><ele>1238.5</ele><time>2026-04-18T11:06:30.782Z</time></trkpt><trkpt lat="42.008515" lon="-8.08307"><ele>1241.25</ele><time>2026-04-18T11:06:31.784Z</time></trkpt><trkpt lat="42.0086283" lon="-8.0831783"><ele>1244.0</ele><time>2026-04-18T11:06:32.786Z</time></trkpt><trkpt lat="42.0087467" lon="-8.083285"><ele>1244.0</ele><time>2026-04-18T11:06:33.786Z</time></trkpt><trkpt lat="42.0088583" lon="-8.0833917"><ele>1244.0</ele><time>2026-04-18T11:06:34.783Z</time></trkpt><trkpt lat="42.008975" lon="-8.083485"><ele>1244.0</ele><time>2026-04-18T11:06:35.784Z</time></trkpt><trkpt lat="42.0090917" lon="-8.0835683"><ele>1244.0</ele><time>2026-04-18T11:06:36.783Z</time></trkpt><trkpt lat="42.0092067" lon="-8.08366"><ele>1246.0</ele><time>2026-04-18T11:06:37.782Z</time></trkpt><trkpt lat="42.00931" lon="-8.0837683"><ele>1248.0</ele><time>2026-04-18T11:06:38.783Z</time></trkpt><trkpt lat="42.0094" lon="-8.0838717"><ele>1250.0</ele><time>2026-04-18T11:06:39.782Z</time></trkpt><trkpt lat="42.0094733" lon="-8.0839583"><ele>1252.0</ele><time>2026-04-18T11:06:40.787Z</time></trkpt><trkpt lat="42.00954" lon="-8.084045"><ele>1254.0</ele><time>2026-04-18T11:06:41.786Z</time></trkpt><trkpt lat="42.009605" lon="-8.08412"><ele>1254.0</ele><time>2026-04-18T11:06:42.785Z</time></trkpt><trkpt lat="42.0096683" lon="-8.0842"><ele>1254.0</ele><time>2026-04-18T11:06:43.786Z</time></trkpt><trkpt lat="42.009725" lon="-8.0842783"><ele>1254.0</ele><time>2026-04-18T11:06:44.783Z</time></trkpt><trkpt lat="42.0097717" lon="-8.084355"><ele>1254.0</ele><time>2026-04-18T11:06:45.782Z</time></trkpt><trkpt lat="42.0098033" lon="-8.0844283"><ele>1254.0</ele><time>2026-04-18T11:06:46.783Z</time></trkpt><trkpt lat="42.009815" lon="-8.084575"><ele>1254.0</ele><time>2026-04-18T11:06:48.783Z</time></trkpt><trkpt lat="42.009755" lon="-8.0847267"><ele>1254.0</ele><time>2026-04-18T11:06:50.784Z</time></trkpt><trkpt lat="42.0096867" lon="-8.0848617"><ele>1254.0</ele><time>2026-04-18T11:06:52.786Z</time></trkpt><trkpt lat="42.00964" lon="-8.0849817"><ele>1254.0</ele><time>2026-04-18T11:06:54.783Z</time></trkpt><trkpt lat="42.0096033" lon="-8.0850717"><ele>1254.0</ele><time>2026-04-18T11:06:56.787Z</time></trkpt><trkpt lat="42.009535" lon="-8.0850917"><ele>1254.0</ele><time>2026-04-18T11:06:58.783Z</time></trkpt><trkpt lat="42.0094467" lon="-8.085105"><ele>1253.6000000000001</ele><time>2026-04-18T11:07:00.789Z</time></trkpt><trkpt lat="42.0093267" lon="-8.0851467"><ele>1253.2</ele><time>2026-04-18T11:07:02.783Z</time></trkpt><trkpt lat="42.0092517" lon="-8.085185"><ele>1252.8000000000002</ele><time>2026-04-18T11:07:03.784Z</time></trkpt><trkpt lat="42.0091767" lon="-8.0852283"><ele>1252.4</ele><time>2026-04-18T11:07:04.786Z</time></trkpt><trkpt lat="42.0090933" lon="-8.0852667"><ele>1252.0</ele><time>2026-04-18T11:07:05.783Z</time></trkpt><trkpt lat="42.0089967" lon="-8.0853033"><ele>1252.0</ele><time>2026-04-18T11:07:06.783Z</time></trkpt><trkpt lat="42.00888" lon="-8.0853317"><ele>1252.0</ele><time>2026-04-18T11:07:07.783Z</time></trkpt><trkpt lat="42.00873" lon="-8.0853583"><ele>1252.0</ele><time>2026-04-18T11:07:08.783Z</time></trkpt><trkpt lat="42.0085667" lon="-8.0853883"><ele>1252.0</ele><time>2026-04-18T11:07:09.782Z</time></trkpt><trkpt lat="42.0084067" lon="-8.0854233"><ele>1250.0</ele><time>2026-04-18T11:07:10.784Z</time></trkpt><trkpt lat="42.0082517" lon="-8.0854583"><ele>1248.0</ele><time>2026-04-18T11:07:11.783Z</time></trkpt><trkpt lat="42.0081" lon="-8.085495"><ele>1246.0</ele><time>2026-04-18T11:07:12.784Z</time></trkpt><trkpt lat="42.0079533" lon="-8.08553"><ele>1246.0</ele><time>2026-04-18T11:07:13.785Z</time></trkpt><trkpt lat="42.0078083" lon="-8.0855683"><ele>1246.0</ele><time>2026-04-18T11:07:14.784Z</time></trkpt><trkpt lat="42.0076667" lon="-8.0856033"><ele>1246.0</ele><time>2026-04-18T11:07:15.783Z</time></trkpt><trkpt lat="42.0075267" lon="-8.08564"><ele>1246.0</ele><time>2026-04-18T11:07:16.786Z</time></trkpt><trkpt lat="42.0073933" lon="-8.0856783"><ele>1245.0</ele><time>2026-04-18T11:07:17.787Z</time></trkpt><trkpt lat="42.00727" lon="-8.0857117"><ele>1244.0</ele><time>2026-04-18T11:07:18.782Z</time></trkpt><trkpt lat="42.0071583" lon="-8.085735"><ele>1243.0</ele><time>2026-04-18T11:07:19.787Z</time></trkpt><trkpt lat="42.0070533" lon="-8.08574"><ele>1242.0</ele><time>2026-04-18T11:07:20.783Z</time></trkpt><trkpt lat="42.00695" lon="-8.0857217"><ele>1241.0</ele><time>2026-04-18T11:07:21.782Z</time></trkpt><trkpt lat="42.00685" lon="-8.0856767"><ele>1241.0</ele><time>2026-04-18T11:07:22.784Z</time></trkpt><trkpt lat="42.0067583" lon="-8.08561"><ele>1241.0</ele><time>2026-04-18T11:07:23.783Z</time></trkpt><trkpt lat="42.006675" lon="-8.08553"><ele>1241.0</ele><time>2026-04-18T11:07:24.783Z</time></trkpt><trkpt lat="42.0065933" lon="-8.0854333"><ele>1241.0</ele><time>2026-04-18T11:07:25.783Z</time></trkpt><trkpt lat="42.0065233" lon="-8.0853217"><ele>1241.0</ele><time>2026-04-18T11:07:26.783Z</time></trkpt><trkpt lat="42.00646" lon="-8.0852033"><ele>1241.6</ele><time>2026-04-18T11:07:27.783Z</time></trkpt><trkpt lat="42.0064067" lon="-8.085085"><ele>1242.1999999999998</ele><time>2026-04-18T11:07:28.783Z</time></trkpt><trkpt lat="42.00636" lon="-8.0849567"><ele>1242.8000000000002</ele><time>2026-04-18T11:07:29.783Z</time></trkpt><trkpt lat="42.00632" lon="-8.0848117"><ele>1243.4</ele><time>2026-04-18T11:07:30.783Z</time></trkpt><trkpt lat="42.0062817" lon="-8.0846683"><ele>1244.0</ele><time>2026-04-18T11:07:31.783Z</time></trkpt><trkpt lat="42.0062417" lon="-8.084525"><ele>1240.75</ele><time>2026-04-18T11:07:32.783Z</time></trkpt><trkpt lat="42.006205" lon="-8.08438"><ele>1237.5</ele><time>2026-04-18T11:07:33.782Z</time></trkpt><trkpt lat="42.0061617" lon="-8.0842383"><ele>1234.25</ele><time>2026-04-18T11:07:34.784Z</time></trkpt><trkpt lat="42.0061133" lon="-8.084095"><ele>1231.0</ele><time>2026-04-18T11:07:35.783Z</time></trkpt><trkpt lat="42.006055" lon="-8.08396"><ele>1228.2</ele><time>2026-04-18T11:07:36.783Z</time></trkpt><trkpt lat="42.0059867" lon="-8.0838433"><ele>1225.3999999999999</ele><time>2026-04-18T11:07:37.784Z</time></trkpt><trkpt lat="42.0059067" lon="-8.0837483"><ele>1222.6</ele><time>2026-04-18T11:07:38.785Z</time></trkpt><trkpt lat="42.00582" lon="-8.0836683"><ele>1219.8</ele><time>2026-04-18T11:07:39.784Z</time></trkpt><trkpt lat="42.0057267" lon="-8.0836017"><ele>1217.0</ele><time>2026-04-18T11:07:40.784Z</time></trkpt><trkpt lat="42.0056267" lon="-8.0835483"><ele>1215.8</ele><time>2026-04-18T11:07:41.783Z</time></trkpt><trkpt lat="42.0055267" lon="-8.0835083"><ele>1214.6</ele><time>2026-04-18T11:07:42.783Z</time></trkpt><trkpt lat="42.0054267" lon="-8.0834667"><ele>1213.3999999999999</ele><time>2026-04-18T11:07:43.786Z</time></trkpt><trkpt lat="42.005325" lon="-8.08342"><ele>1212.2</ele><time>2026-04-18T11:07:44.785Z</time></trkpt><trkpt lat="42.0052283" lon="-8.0833867"><ele>1211.0</ele><time>2026-04-18T11:07:45.783Z</time></trkpt><trkpt lat="42.00514" lon="-8.08338"><ele>1211.0</ele><time>2026-04-18T11:07:46.786Z</time></trkpt><trkpt lat="42.005045" lon="-8.08339"><ele>1211.0</ele><time>2026-04-18T11:07:47.783Z</time></trkpt><trkpt lat="42.00495" lon="-8.08343"><ele>1211.0</ele><time>2026-04-18T11:07:48.783Z</time></trkpt><trkpt lat="42.004865" lon="-8.0835017"><ele>1211.0</ele><time>2026-04-18T11:07:49.786Z</time></trkpt><trkpt lat="42.0047883" lon="-8.0835767"><ele>1211.0</ele><time>2026-04-18T11:07:50.784Z</time></trkpt><trkpt lat="42.0047183" lon="-8.0836467"><ele>1209.5</ele><time>2026-04-18T11:07:51.783Z</time></trkpt><trkpt lat="42.0046533" lon="-8.0836983"><ele>1208.0</ele><time>2026-04-18T11:07:52.786Z</time></trkpt><trkpt lat="42.00459" lon="-8.0837233"><ele>1206.5</ele><time>2026-04-18T11:07:53.783Z</time></trkpt><trkpt lat="42.00452" lon="-8.0837067"><ele>1205.0</ele><time>2026-04-18T11:07:54.783Z</time></trkpt><trkpt lat="42.0044233" lon="-8.0836717"><ele>1203.5</ele><time>2026-04-18T11:07:55.789Z</time></trkpt><trkpt lat="42.00432" lon="-8.0836283"><ele>1202.0</ele><time>2026-04-18T11:07:56.783Z</time></trkpt><trkpt lat="42.0042067" lon="-8.0836017"><ele>1199.75</ele><time>2026-04-18T11:07:57.784Z</time></trkpt><trkpt lat="42.0040917" lon="-8.08358"><ele>1197.5</ele><time>2026-04-18T11:07:58.786Z</time></trkpt><trkpt lat="42.0039783" lon="-8.0835583"><ele>1195.25</ele><time>2026-04-18T11:07:59.783Z</time></trkpt><trkpt lat="42.003865" lon="-8.0835383"><ele>1193.0</ele><time>2026-04-18T11:08:00.783Z</time></trkpt><trkpt lat="42.0037483" lon="-8.0835183"><ele>1193.0</ele><time>2026-04-18T11:08:01.783Z</time></trkpt><trkpt lat="42.0036317" lon="-8.0835033"><ele>1193.0</ele><time>2026-04-18T11:08:02.786Z</time></trkpt><trkpt lat="42.0035133" lon="-8.0834917"><ele>1193.0</ele><time>2026-04-18T11:08:03.786Z</time></trkpt><trkpt lat="42.0033983" lon="-8.0834783"><ele>1193.0</ele><time>2026-04-18T11:08:04.787Z</time></trkpt><trkpt lat="42.0032867" lon="-8.08347"><ele>1191.5</ele><time>2026-04-18T11:08:05.783Z</time></trkpt><trkpt lat="42.0031717" lon="-8.08347"><ele>1190.0</ele><time>2026-04-18T11:08:06.786Z</time></trkpt><trkpt lat="42.003045" lon="-8.08347"><ele>1188.5</ele><time>2026-04-18T11:08:07.786Z</time></trkpt><trkpt lat="42.002915" lon="-8.0834717"><ele>1187.0</ele><time>2026-04-18T11:08:08.787Z</time></trkpt><trkpt lat="42.0027883" lon="-8.0834717"><ele>1187.0</ele><time>2026-04-18T11:08:09.786Z</time></trkpt><trkpt lat="42.002665" lon="-8.0834683"><ele>1187.0</ele><time>2026-04-18T11:08:10.786Z</time></trkpt><trkpt lat="42.0025433" lon="-8.0834667"><ele>1187.0</ele><time>2026-04-18T11:08:11.786Z</time></trkpt><trkpt lat="42.0024317" lon="-8.0834683"><ele>1187.0</ele><time>2026-04-18T11:08:12.786Z</time></trkpt><trkpt lat="42.00232" lon="-8.08347"><ele>1185.0</ele><time>2026-04-18T11:08:13.786Z</time></trkpt><trkpt lat="42.0022017" lon="-8.0834683"><ele>1183.0</ele><time>2026-04-18T11:08:14.786Z</time></trkpt><trkpt lat="42.0020867" lon="-8.0834683"><ele>1181.0</ele><time>2026-04-18T11:08:15.786Z</time></trkpt><trkpt lat="42.001975" lon="-8.08347"><ele>1179.0</ele><time>2026-04-18T11:08:16.787Z</time></trkpt><trkpt lat="42.001855" lon="-8.0834717"><ele>1179.0</ele><time>2026-04-18T11:08:17.786Z</time></trkpt><trkpt lat="42.0017267" lon="-8.0834717"><ele>1179.0</ele><time>2026-04-18T11:08:18.786Z</time></trkpt><trkpt lat="42.001595" lon="-8.0834667"><ele>1179.0</ele><time>2026-04-18T11:08:19.786Z</time></trkpt><trkpt lat="42.0014667" lon="-8.08346"><ele>1179.0</ele><time>2026-04-18T11:08:20.786Z</time></trkpt><trkpt lat="42.0013433" lon="-8.0834617"><ele>1177.8</ele><time>2026-04-18T11:08:21.787Z</time></trkpt><trkpt lat="42.001225" lon="-8.0834633"><ele>1176.6000000000001</ele><time>2026-04-18T11:08:22.786Z</time></trkpt><trkpt lat="42.0011233" lon="-8.0834667"><ele>1175.4</ele><time>2026-04-18T11:08:23.787Z</time></trkpt><trkpt lat="42.0010283" lon="-8.0834617"><ele>1174.2</ele><time>2026-04-18T11:08:24.786Z</time></trkpt><trkpt lat="42.00094" lon="-8.0834633"><ele>1173.0</ele><time>2026-04-18T11:08:25.783Z</time></trkpt><trkpt lat="42.0008417" lon="-8.0834733"><ele>1171.5</ele><time>2026-04-18T11:08:26.784Z</time></trkpt><trkpt lat="42.0007317" lon="-8.083475"><ele>1170.0</ele><time>2026-04-18T11:08:27.786Z</time></trkpt><trkpt lat="42.0006167" lon="-8.083485"><ele>1168.5</ele><time>2026-04-18T11:08:28.783Z</time></trkpt><trkpt lat="42.0004933" lon="-8.0834867"><ele>1167.0</ele><time>2026-04-18T11:08:29.786Z</time></trkpt><trkpt lat="42.0003517" lon="-8.0834833"><ele>1167.0</ele><time>2026-04-18T11:08:30.786Z</time></trkpt><trkpt lat="42.0002017" lon="-8.0834817"><ele>1167.0</ele><time>2026-04-18T11:08:31.786Z</time></trkpt><trkpt lat="42.0000517" lon="-8.0834817"><ele>1167.0</ele><time>2026-04-18T11:08:32.787Z</time></trkpt><trkpt lat="41.9999017" lon="-8.0834783"><ele>1167.0</ele><time>2026-04-18T11:08:33.786Z</time></trkpt><trkpt lat="41.999755" lon="-8.0834767"><ele>1167.0</ele><time>2026-04-18T11:08:34.786Z</time></trkpt><trkpt lat="41.9996117" lon="-8.0834733"><ele>1167.0</ele><time>2026-04-18T11:08:35.784Z</time></trkpt><trkpt lat="41.9994733" lon="-8.0834683"><ele>1167.0</ele><time>2026-04-18T11:08:36.786Z</time></trkpt><trkpt lat="41.999335" lon="-8.0834617"><ele>1167.0</ele><time>2026-04-18T11:08:37.786Z</time></trkpt><trkpt lat="41.999205" lon="-8.083455"><ele>1167.0</ele><time>2026-04-18T11:08:38.784Z</time></trkpt><trkpt lat="41.9990817" lon="-8.0834533"><ele>1167.0</ele><time>2026-04-18T11:08:39.786Z</time></trkpt><trkpt lat="41.9989683" lon="-8.08345"><ele>1167.0</ele><time>2026-04-18T11:08:40.785Z</time></trkpt><trkpt lat="41.9988567" lon="-8.0834483"><ele>1166.5</ele><time>2026-04-18T11:08:41.784Z</time></trkpt><trkpt lat="41.998745" lon="-8.0834517"><ele>1166.0</ele><time>2026-04-18T11:08:42.783Z</time></trkpt><trkpt lat="41.9986283" lon="-8.0834467"><ele>1165.5</ele><time>2026-04-18T11:08:43.786Z</time></trkpt><trkpt lat="41.9985067" lon="-8.0834433"><ele>1165.0</ele><time>2026-04-18T11:08:44.787Z</time></trkpt><trkpt lat="41.9983733" lon="-8.0834383"><ele>1163.25</ele><time>2026-04-18T11:08:45.784Z</time></trkpt><trkpt lat="41.9982283" lon="-8.0834267"><ele>1161.5</ele><time>2026-04-18T11:08:46.786Z</time></trkpt><trkpt lat="41.99809" lon="-8.08342"><ele>1159.75</ele><time>2026-04-18T11:08:47.783Z</time></trkpt><trkpt lat="41.9979617" lon="-8.0834233"><ele>1158.0</ele><time>2026-04-18T11:08:48.786Z</time></trkpt><trkpt lat="41.9978317" lon="-8.0834367"><ele>1158.0</ele><time>2026-04-18T11:08:49.783Z</time></trkpt><trkpt lat="41.997695" lon="-8.0834583"><ele>1158.0</ele><time>2026-04-18T11:08:50.786Z</time></trkpt><trkpt lat="41.99756" lon="-8.08349"><ele>1158.0</ele><time>2026-04-18T11:08:51.787Z</time></trkpt><trkpt lat="41.9974283" lon="-8.0835267"><ele>1158.0</ele><time>2026-04-18T11:08:52.784Z</time></trkpt><trkpt lat="41.9973" lon="-8.083555"><ele>1157.0</ele><time>2026-04-18T11:08:53.786Z</time></trkpt><trkpt lat="41.997175" lon="-8.0835817"><ele>1156.0</ele><time>2026-04-18T11:08:54.784Z</time></trkpt><trkpt lat="41.997045" lon="-8.0836067"><ele>1155.0</ele><time>2026-04-18T11:08:55.783Z</time></trkpt><trkpt lat="41.9969233" lon="-8.08363"><ele>1154.0</ele><time>2026-04-18T11:08:56.787Z</time></trkpt><trkpt lat="41.9968" lon="-8.0836533"><ele>1154.0</ele><time>2026-04-18T11:08:57.783Z</time></trkpt><trkpt lat="41.9966767" lon="-8.08368"><ele>1154.0</ele><time>2026-04-18T11:08:58.785Z</time></trkpt><trkpt lat="41.99655" lon="-8.083705"><ele>1154.0</ele><time>2026-04-18T11:08:59.785Z</time></trkpt><trkpt lat="41.9964217" lon="-8.0837317"><ele>1154.0</ele><time>2026-04-18T11:09:00.783Z</time></trkpt><trkpt lat="41.996295" lon="-8.0837617"><ele>1154.0</ele><time>2026-04-18T11:09:01.783Z</time></trkpt><trkpt lat="41.9961767" lon="-8.0837917"><ele>1154.0</ele><time>2026-04-18T11:09:02.783Z</time></trkpt><trkpt lat="41.99605" lon="-8.0838167"><ele>1154.0</ele><time>2026-04-18T11:09:03.783Z</time></trkpt><trkpt lat="41.995925" lon="-8.083845"><ele>1154.0</ele><time>2026-04-18T11:09:04.784Z</time></trkpt><trkpt lat="41.9958" lon="-8.08388"><ele>1154.25</ele><time>2026-04-18T11:09:05.784Z</time></trkpt><trkpt lat="41.9956683" lon="-8.0839133"><ele>1154.5</ele><time>2026-04-18T11:09:06.783Z</time></trkpt><trkpt lat="41.995525" lon="-8.0839483"><ele>1154.75</ele><time>2026-04-18T11:09:07.785Z</time></trkpt><trkpt lat="41.99538" lon="-8.0839833"><ele>1155.0</ele><time>2026-04-18T11:09:08.785Z</time></trkpt><trkpt lat="41.995235" lon="-8.0840183"><ele>1155.0</ele><time>2026-04-18T11:09:09.786Z</time></trkpt><trkpt lat="41.9950917" lon="-8.0840567"><ele>1155.0</ele><time>2026-04-18T11:09:10.784Z</time></trkpt><trkpt lat="41.9949483" lon="-8.0840917"><ele>1155.0</ele><time>2026-04-18T11:09:11.784Z</time></trkpt><trkpt lat="41.9948033" lon="-8.0841267"><ele>1155.0</ele><time>2026-04-18T11:09:12.787Z</time></trkpt><trkpt lat="41.9946667" lon="-8.0841733"><ele>1152.5</ele><time>2026-04-18T11:09:13.783Z</time></trkpt><trkpt lat="41.9945383" lon="-8.084225"><ele>1150.0</ele><time>2026-04-18T11:09:14.783Z</time></trkpt><trkpt lat="41.9944" lon="-8.0842783"><ele>1147.5</ele><time>2026-04-18T11:09:15.786Z</time></trkpt><trkpt lat="41.9942583" lon="-8.0843367"><ele>1145.0</ele><time>2026-04-18T11:09:16.786Z</time></trkpt><trkpt lat="41.9941333" lon="-8.0844083"><ele>1143.75</ele><time>2026-04-18T11:09:17.783Z</time></trkpt><trkpt lat="41.9940117" lon="-8.084475"><ele>1142.5</ele><time>2026-04-18T11:09:18.787Z</time></trkpt><trkpt lat="41.993885" lon="-8.0845217"><ele>1141.25</ele><time>2026-04-18T11:09:19.783Z</time></trkpt><trkpt lat="41.993755" lon="-8.084545"><ele>1140.0</ele><time>2026-04-18T11:09:20.784Z</time></trkpt><trkpt lat="41.9936217" lon="-8.084565"><ele>1140.0</ele><time>2026-04-18T11:09:21.787Z</time></trkpt><trkpt lat="41.99348" lon="-8.0845967"><ele>1140.0</ele><time>2026-04-18T11:09:22.783Z</time></trkpt><trkpt lat="41.9933217" lon="-8.08466"><ele>1140.0</ele><time>2026-04-18T11:09:23.783Z</time></trkpt><trkpt lat="41.9931667" lon="-8.0847433"><ele>1139.25</ele><time>2026-04-18T11:09:24.783Z</time></trkpt><trkpt lat="41.9930233" lon="-8.0848333"><ele>1138.5</ele><time>2026-04-18T11:09:25.786Z</time></trkpt><trkpt lat="41.992895" lon="-8.08494"><ele>1137.75</ele><time>2026-04-18T11:09:26.785Z</time></trkpt><trkpt lat="41.9927883" lon="-8.0850433"><ele>1137.0</ele><time>2026-04-18T11:09:27.787Z</time></trkpt><trkpt lat="41.9926867" lon="-8.0851383"><ele>1135.2</ele><time>2026-04-18T11:09:28.783Z</time></trkpt><trkpt lat="41.992585" lon="-8.0852067"><ele>1133.4</ele><time>2026-04-18T11:09:29.783Z</time></trkpt><trkpt lat="41.992485" lon="-8.08525"><ele>1131.6</ele><time>2026-04-18T11:09:30.783Z</time></trkpt><trkpt lat="41.992385" lon="-8.0852583"><ele>1129.8</ele><time>2026-04-18T11:09:31.786Z</time></trkpt><trkpt lat="41.9922783" lon="-8.0852317"><ele>1128.0</ele><time>2026-04-18T11:09:32.786Z</time></trkpt><trkpt lat="41.9921817" lon="-8.0851967"><ele>1128.0</ele><time>2026-04-18T11:09:33.782Z</time></trkpt><trkpt lat="41.9920983" lon="-8.0851767"><ele>1128.0</ele><time>2026-04-18T11:09:34.782Z</time></trkpt><trkpt lat="41.9920267" lon="-8.0851833"><ele>1128.0</ele><time>2026-04-18T11:09:35.783Z</time></trkpt><trkpt lat="41.9919483" lon="-8.0852967"><ele>1128.0</ele><time>2026-04-18T11:09:37.782Z</time></trkpt><trkpt lat="41.9919233" lon="-8.08543"><ele>1128.0</ele><time>2026-04-18T11:09:38.784Z</time></trkpt><trkpt lat="41.9918783" lon="-8.0855567"><ele>1127.0</ele><time>2026-04-18T11:09:39.783Z</time></trkpt><trkpt lat="41.9918083" lon="-8.08577"><ele>1126.0</ele><time>2026-04-18T11:09:40.782Z</time></trkpt><trkpt lat="41.9917233" lon="-8.0859883"><ele>1125.0</ele><time>2026-04-18T11:09:41.783Z</time></trkpt><trkpt lat="41.9916467" lon="-8.0861933"><ele>1125.0</ele><time>2026-04-18T11:09:42.787Z</time></trkpt><trkpt lat="41.9915767" lon="-8.0863917"><ele>1125.0</ele><time>2026-04-18T11:09:43.783Z</time></trkpt><trkpt lat="41.9915167" lon="-8.0865767"><ele>1125.0</ele><time>2026-04-18T11:09:44.782Z</time></trkpt><trkpt lat="41.9914583" lon="-8.0867567"><ele>1123.6</ele><time>2026-04-18T11:09:45.784Z</time></trkpt><trkpt lat="41.9914033" lon="-8.0869217"><ele>1122.2</ele><time>2026-04-18T11:09:46.783Z</time></trkpt><trkpt lat="41.99135" lon="-8.0870517"><ele>1120.8</ele><time>2026-04-18T11:09:47.782Z</time></trkpt><trkpt lat="41.9913017" lon="-8.08713"><ele>1119.4</ele><time>2026-04-18T11:09:48.783Z</time></trkpt><trkpt lat="41.99122" lon="-8.0871667"><ele>1118.0</ele><time>2026-04-18T11:09:50.784Z</time></trkpt><trkpt lat="41.9911467" lon="-8.087225"><ele>1118.0</ele><time>2026-04-18T11:09:53.782Z</time></trkpt><trkpt lat="41.9911117" lon="-8.0873017"><ele>1118.0</ele><time>2026-04-18T11:09:56.784Z</time></trkpt><trkpt lat="41.9910833" lon="-8.087385"><ele>1118.0</ele><time>2026-04-18T11:09:59.784Z</time></trkpt><trkpt lat="41.9910233" lon="-8.087435"><ele>1118.0</ele><time>2026-04-18T11:10:02.783Z</time></trkpt><trkpt lat="41.99094" lon="-8.0874583"><ele>1118.0</ele><time>2026-04-18T11:10:06.784Z</time></trkpt><trkpt lat="41.9908533" lon="-8.0874767"><ele>1118.0</ele><time>2026-04-18T11:10:09.785Z</time></trkpt><trkpt lat="41.9907833" lon="-8.0875"><ele>1118.1666666666667</ele><time>2026-04-18T11:10:11.786Z</time></trkpt><trkpt lat="41.9907067" lon="-8.0875183"><ele>1118.3333333333335</ele><time>2026-04-18T11:10:13.785Z</time></trkpt><trkpt lat="41.9906283" lon="-8.08754"><ele>1118.5</ele><time>2026-04-18T11:10:15.785Z</time></trkpt><trkpt lat="41.99052" lon="-8.08756"><ele>1118.6666666666667</ele><time>2026-04-18T11:10:17.785Z</time></trkpt><trkpt lat="41.99045" lon="-8.0875667"><ele>1118.8333333333333</ele><time>2026-04-18T11:10:18.786Z</time></trkpt><trkpt lat="41.99036" lon="-8.08756"><ele>1119.0</ele><time>2026-04-18T11:10:19.785Z</time></trkpt><trkpt lat="41.9902667" lon="-8.0875517"><ele>1119.0</ele><time>2026-04-18T11:10:20.783Z</time></trkpt><trkpt lat="41.9901783" lon="-8.08755"><ele>1119.0</ele><time>2026-04-18T11:10:21.786Z</time></trkpt><trkpt lat="41.990085" lon="-8.0875483"><ele>1119.0</ele><time>2026-04-18T11:10:22.784Z</time></trkpt><trkpt lat="41.989985" lon="-8.0875517"><ele>1119.0</ele><time>2026-04-18T11:10:23.783Z</time></trkpt><trkpt lat="41.9898833" lon="-8.0875633"><ele>1119.0</ele><time>2026-04-18T11:10:24.785Z</time></trkpt><trkpt lat="41.989775" lon="-8.0875733"><ele>1117.0</ele><time>2026-04-18T11:10:25.784Z</time></trkpt><trkpt lat="41.9896583" lon="-8.08757"><ele>1115.0</ele><time>2026-04-18T11:10:26.789Z</time></trkpt><trkpt lat="41.9895317" lon="-8.08755"><ele>1113.0</ele><time>2026-04-18T11:10:27.783Z</time></trkpt><trkpt lat="41.989405" lon="-8.0875167"><ele>1111.0</ele><time>2026-04-18T11:10:28.782Z</time></trkpt><trkpt lat="41.9892883" lon="-8.08748"><ele>1111.0</ele><time>2026-04-18T11:10:29.782Z</time></trkpt><trkpt lat="41.9891833" lon="-8.08746"><ele>1111.0</ele><time>2026-04-18T11:10:30.782Z</time></trkpt><trkpt lat="41.9890833" lon="-8.087465"><ele>1111.0</ele><time>2026-04-18T11:10:31.783Z</time></trkpt><trkpt lat="41.9889833" lon="-8.08748"><ele>1111.0</ele><time>2026-04-18T11:10:32.786Z</time></trkpt><trkpt lat="41.98887" lon="-8.0875267"><ele>1111.0</ele><time>2026-04-18T11:10:33.783Z</time></trkpt><trkpt lat="41.9887533" lon="-8.0875767"><ele>1109.25</ele><time>2026-04-18T11:10:34.782Z</time></trkpt><trkpt lat="41.9886317" lon="-8.0876233"><ele>1107.5</ele><time>2026-04-18T11:10:35.782Z</time></trkpt><trkpt lat="41.9884967" lon="-8.0876683"><ele>1105.75</ele><time>2026-04-18T11:10:36.783Z</time></trkpt><trkpt lat="41.9883483" lon="-8.0877167"><ele>1104.0</ele><time>2026-04-18T11:10:37.783Z</time></trkpt><trkpt lat="41.988185" lon="-8.087755"><ele>1102.0</ele><time>2026-04-18T11:10:38.786Z</time></trkpt><trkpt lat="41.9880283" lon="-8.087785"><ele>1100.0</ele><time>2026-04-18T11:10:39.782Z</time></trkpt><trkpt lat="41.9878783" lon="-8.087815"><ele>1098.0</ele><time>2026-04-18T11:10:40.783Z</time></trkpt><trkpt lat="41.98774" lon="-8.0878617"><ele>1098.0</ele><time>2026-04-18T11:10:41.787Z</time></trkpt><trkpt lat="41.9876083" lon="-8.0879417"><ele>1098.0</ele><time>2026-04-18T11:10:42.786Z</time></trkpt><trkpt lat="41.987485" lon="-8.08804"><ele>1098.0</ele><time>2026-04-18T11:10:43.783Z</time></trkpt><trkpt lat="41.9873733" lon="-8.0881533"><ele>1098.0</ele><time>2026-04-18T11:10:44.783Z</time></trkpt><trkpt lat="41.9872767" lon="-8.08827"><ele>1094.5</ele><time>2026-04-18T11:10:45.783Z</time></trkpt><trkpt lat="41.987195" lon="-8.0883833"><ele>1091.0</ele><time>2026-04-18T11:10:46.783Z</time></trkpt><trkpt lat="41.9871033" lon="-8.088475"><ele>1087.5</ele><time>2026-04-18T11:10:47.783Z</time></trkpt><trkpt lat="41.9869933" lon="-8.088545"><ele>1084.0</ele><time>2026-04-18T11:10:48.783Z</time></trkpt><trkpt lat="41.9868767" lon="-8.0885983"><ele>1084.0</ele><time>2026-04-18T11:10:49.783Z</time></trkpt><trkpt lat="41.9867533" lon="-8.0886383"><ele>1084.0</ele><time>2026-04-18T11:10:50.785Z</time></trkpt><trkpt lat="41.9866183" lon="-8.0886733"><ele>1084.0</ele><time>2026-04-18T11:10:51.783Z</time></trkpt><trkpt lat="41.9864767" lon="-8.088715"><ele>1084.0</ele><time>2026-04-18T11:10:52.783Z</time></trkpt><trkpt lat="41.9863483" lon="-8.0887667"><ele>1083.75</ele><time>2026-04-18T11:10:53.783Z</time></trkpt><trkpt lat="41.9862217" lon="-8.0888267"><ele>1083.5</ele><time>2026-04-18T11:10:54.786Z</time></trkpt><trkpt lat="41.9861" lon="-8.08891"><ele>1083.25</ele><time>2026-04-18T11:10:55.783Z</time></trkpt><trkpt lat="41.9859883" lon="-8.0890117"><ele>1083.0</ele><time>2026-04-18T11:10:56.784Z</time></trkpt><trkpt lat="41.9858817" lon="-8.0891267"><ele>1080.25</ele><time>2026-04-18T11:10:57.786Z</time></trkpt><trkpt lat="41.9857733" lon="-8.0892433"><ele>1077.5</ele><time>2026-04-18T11:10:58.784Z</time></trkpt><trkpt lat="41.9856733" lon="-8.0893633"><ele>1074.75</ele><time>2026-04-18T11:10:59.784Z</time></trkpt><trkpt lat="41.985575" lon="-8.0894833"><ele>1072.0</ele><time>2026-04-18T11:11:00.783Z</time></trkpt><trkpt lat="41.985475" lon="-8.08961"><ele>1072.0</ele><time>2026-04-18T11:11:01.783Z</time></trkpt><trkpt lat="41.98537" lon="-8.0897317"><ele>1072.0</ele><time>2026-04-18T11:11:02.79Z</time></trkpt><trkpt lat="41.9852683" lon="-8.0898283"><ele>1072.0</ele><time>2026-04-18T11:11:03.783Z</time></trkpt><trkpt lat="41.9851533" lon="-8.0898883"><ele>1072.0</ele><time>2026-04-18T11:11:04.783Z</time></trkpt><trkpt lat="41.985075" lon="-8.0899217"><ele>1070.4</ele><time>2026-04-18T11:11:05.783Z</time></trkpt><trkpt lat="41.9850317" lon="-8.0900233"><ele>1068.8000000000002</ele><time>2026-04-18T11:11:06.786Z</time></trkpt><trkpt lat="41.9849083" lon="-8.0900617"><ele>1067.2</ele><time>2026-04-18T11:11:08.788Z</time></trkpt><trkpt lat="41.98486" lon="-8.0901317"><ele>1065.6000000000001</ele><time>2026-04-18T11:11:11.787Z</time></trkpt><trkpt lat="41.9848167" lon="-8.090265"><ele>1064.0</ele><time>2026-04-18T11:11:15.284Z</time></trkpt><trkpt lat="41.9847783" lon="-8.09034"><ele>1064.0</ele><time>2026-04-18T11:11:16.786Z</time></trkpt><trkpt lat="41.9847117" lon="-8.0904567"><ele>1064.0</ele><time>2026-04-18T11:11:18.784Z</time></trkpt><trkpt lat="41.9846617" lon="-8.0905467"><ele>1064.0</ele><time>2026-04-18T11:11:20.784Z</time></trkpt><trkpt lat="41.9845967" lon="-8.0906817"><ele>1064.0</ele><time>2026-04-18T11:11:22.785Z</time></trkpt><trkpt lat="41.984565" lon="-8.090785"><ele>1064.0</ele><time>2026-04-18T11:11:23.786Z</time></trkpt><trkpt lat="41.9845317" lon="-8.09089"><ele>1062.5</ele><time>2026-04-18T11:11:24.786Z</time></trkpt><trkpt lat="41.9845" lon="-8.0910067"><ele>1061.0</ele><time>2026-04-18T11:11:25.785Z</time></trkpt><trkpt lat="41.9844467" lon="-8.0911317"><ele>1059.5</ele><time>2026-04-18T11:11:26.784Z</time></trkpt><trkpt lat="41.9844217" lon="-8.0912333"><ele>1058.0</ele><time>2026-04-18T11:11:27.786Z</time></trkpt><trkpt lat="41.9844067" lon="-8.0913267"><ele>1056.5</ele><time>2026-04-18T11:11:28.784Z</time></trkpt><trkpt lat="41.9844017" lon="-8.0914267"><ele>1055.0</ele><time>2026-04-18T11:11:29.786Z</time></trkpt><trkpt lat="41.984415" lon="-8.0915283"><ele>1053.3333333333335</ele><time>2026-04-18T11:11:30.786Z</time></trkpt><trkpt lat="41.9844317" lon="-8.0916267"><ele>1051.6666666666667</ele><time>2026-04-18T11:11:31.786Z</time></trkpt><trkpt lat="41.9844467" lon="-8.0917133"><ele>1050.0</ele><time>2026-04-18T11:11:32.786Z</time></trkpt><trkpt lat="41.98446" lon="-8.09186"><ele>1048.3333333333333</ele><time>2026-04-18T11:11:34.784Z</time></trkpt><trkpt lat="41.9844733" lon="-8.0919983"><ele>1046.6666666666665</ele><time>2026-04-18T11:11:36.786Z</time></trkpt><trkpt lat="41.984485" lon="-8.092095"><ele>1045.0</ele><time>2026-04-18T11:11:37.786Z</time></trkpt><trkpt lat="41.9844933" lon="-8.0922233"><ele>1045.0</ele><time>2026-04-18T11:11:38.786Z</time></trkpt><trkpt lat="41.9844917" lon="-8.09238"><ele>1045.0</ele><time>2026-04-18T11:11:39.785Z</time></trkpt><trkpt lat="41.98449" lon="-8.0925233"><ele>1045.0</ele><time>2026-04-18T11:11:40.786Z</time></trkpt><trkpt lat="41.9845017" lon="-8.09264"><ele>1045.0</ele><time>2026-04-18T11:11:41.786Z</time></trkpt><trkpt lat="41.9845383" lon="-8.0927467"><ele>1045.0</ele><time>2026-04-18T11:11:42.787Z</time></trkpt><trkpt lat="41.9845933" lon="-8.0928483"><ele>1043.4</ele><time>2026-04-18T11:11:43.786Z</time></trkpt><trkpt lat="41.9846567" lon="-8.0929283"><ele>1041.8</ele><time>2026-04-18T11:11:44.786Z</time></trkpt><trkpt lat="41.9847117" lon="-8.0929917"><ele>1040.2</ele><time>2026-04-18T11:11:45.786Z</time></trkpt><trkpt lat="41.9847783" lon="-8.0930867"><ele>1038.6</ele><time>2026-04-18T11:11:47.786Z</time></trkpt><trkpt lat="41.9847233" lon="-8.09316"><ele>1037.0</ele><time>2026-04-18T11:11:50.786Z</time></trkpt><trkpt lat="41.9845933" lon="-8.0931767"><ele>1037.0</ele><time>2026-04-18T11:11:52.787Z</time></trkpt><trkpt lat="41.9845167" lon="-8.0932167"><ele>1037.0</ele><time>2026-04-18T11:11:53.785Z</time></trkpt><trkpt lat="41.9844283" lon="-8.0932917"><ele>1037.0</ele><time>2026-04-18T11:11:54.787Z</time></trkpt><trkpt lat="41.9843383" lon="-8.0933667"><ele>1037.0</ele><time>2026-04-18T11:11:55.786Z</time></trkpt><trkpt lat="41.9842433" lon="-8.09343"><ele>1037.0</ele><time>2026-04-18T11:11:56.787Z</time></trkpt><trkpt lat="41.98415" lon="-8.0934583"><ele>1036.0</ele><time>2026-04-18T11:11:57.784Z</time></trkpt><trkpt lat="41.9840633" lon="-8.0934667"><ele>1035.0</ele><time>2026-04-18T11:11:58.786Z</time></trkpt><trkpt lat="41.9839833" lon="-8.0934567"><ele>1034.0</ele><time>2026-04-18T11:11:59.784Z</time></trkpt><trkpt lat="41.9839033" lon="-8.0934217"><ele>1033.0</ele><time>2026-04-18T11:12:00.787Z</time></trkpt><trkpt lat="41.9838167" lon="-8.0933683"><ele>1032.0</ele><time>2026-04-18T11:12:01.784Z</time></trkpt><trkpt lat="41.9837117" lon="-8.0933033"><ele>1033.0</ele><time>2026-04-18T11:12:02.786Z</time></trkpt><trkpt lat="41.9835883" lon="-8.0932317"><ele>1034.0</ele><time>2026-04-18T11:12:03.786Z</time></trkpt><trkpt lat="41.9834367" lon="-8.0931567"><ele>1035.0</ele><time>2026-04-18T11:12:04.786Z</time></trkpt><trkpt lat="41.9832733" lon="-8.0930783"><ele>1031.6666666666667</ele><time>2026-04-18T11:12:05.786Z</time></trkpt><trkpt lat="41.98312" lon="-8.093005"><ele>1028.3333333333335</ele><time>2026-04-18T11:12:06.787Z</time></trkpt><trkpt lat="41.9829733" lon="-8.0929383"><ele>1025.0</ele><time>2026-04-18T11:12:07.786Z</time></trkpt><trkpt lat="41.9828283" lon="-8.092875"><ele>1025.0</ele><time>2026-04-18T11:12:08.786Z</time></trkpt><trkpt lat="41.982695" lon="-8.0928167"><ele>1025.0</ele><time>2026-04-18T11:12:09.786Z</time></trkpt><trkpt lat="41.9825733" lon="-8.0927633"><ele>1025.0</ele><time>2026-04-18T11:12:10.786Z</time></trkpt><trkpt lat="41.9824717" lon="-8.0927083"><ele>1025.0</ele><time>2026-04-18T11:12:11.786Z</time></trkpt><trkpt lat="41.9823917" lon="-8.0926583"><ele>1024.6666666666667</ele><time>2026-04-18T11:12:12.786Z</time></trkpt><trkpt lat="41.9823267" lon="-8.0926133"><ele>1024.3333333333335</ele><time>2026-04-18T11:12:13.785Z</time></trkpt><trkpt lat="41.982215" lon="-8.092535"><ele>1024.0</ele><time>2026-04-18T11:12:15.788Z</time></trkpt><trkpt lat="41.9821533" lon="-8.0925"><ele>1023.6666666666667</ele><time>2026-04-18T11:12:16.787Z</time></trkpt><trkpt lat="41.9820817" lon="-8.0924517"><ele>1023.3333333333334</ele><time>2026-04-18T11:12:17.787Z</time></trkpt><trkpt lat="41.9820017" lon="-8.0923833"><ele>1023.0</ele><time>2026-04-18T11:12:18.787Z</time></trkpt><trkpt lat="41.981905" lon="-8.092295"><ele>1023.0</ele><time>2026-04-18T11:12:19.785Z</time></trkpt><trkpt lat="41.981805" lon="-8.09219"><ele>1023.0</ele><time>2026-04-18T11:12:20.786Z</time></trkpt><trkpt lat="41.9816967" lon="-8.0920733"><ele>1023.0</ele><time>2026-04-18T11:12:21.787Z</time></trkpt><trkpt lat="41.9815967" lon="-8.0919533"><ele>1023.0</ele><time>2026-04-18T11:12:22.785Z</time></trkpt><trkpt lat="41.981505" lon="-8.0918217"><ele>1021.0</ele><time>2026-04-18T11:12:23.786Z</time></trkpt><trkpt lat="41.98142" lon="-8.0916817"><ele>1019.0</ele><time>2026-04-18T11:12:24.786Z</time></trkpt><trkpt lat="41.9813333" lon="-8.0915333"><ele>1017.0</ele><time>2026-04-18T11:12:25.786Z</time></trkpt><trkpt lat="41.9812483" lon="-8.0913883"><ele>1015.0</ele><time>2026-04-18T11:12:26.787Z</time></trkpt><trkpt lat="41.9811717" lon="-8.0912567"><ele>1015.0</ele><time>2026-04-18T11:12:27.783Z</time></trkpt><trkpt lat="41.9811117" lon="-8.0911333"><ele>1015.0</ele><time>2026-04-18T11:12:28.787Z</time></trkpt><trkpt lat="41.9810633" lon="-8.091015"><ele>1015.0</ele><time>2026-04-18T11:12:29.788Z</time></trkpt><trkpt lat="41.98103" lon="-8.0909033"><ele>1015.0</ele><time>2026-04-18T11:12:30.787Z</time></trkpt><trkpt lat="41.9809917" lon="-8.0908017"><ele>1015.0</ele><time>2026-04-18T11:12:31.788Z</time></trkpt><trkpt lat="41.9809317" lon="-8.0907067"><ele>1014.2</ele><time>2026-04-18T11:12:32.791Z</time></trkpt><trkpt lat="41.9808533" lon="-8.0906033"><ele>1013.4</ele><time>2026-04-18T11:12:33.786Z</time></trkpt><trkpt lat="41.9807783" lon="-8.0904883"><ele>1012.5999999999999</ele><time>2026-04-18T11:12:34.788Z</time></trkpt><trkpt lat="41.9807083" lon="-8.0903733"><ele>1011.8</ele><time>2026-04-18T11:12:35.788Z</time></trkpt><trkpt lat="41.9806417" lon="-8.0902483"><ele>1011.0</ele><time>2026-04-18T11:12:36.788Z</time></trkpt><trkpt lat="41.9805783" lon="-8.09011"><ele>1010.0</ele><time>2026-04-18T11:12:37.788Z</time></trkpt><trkpt lat="41.98051" lon="-8.0899783"><ele>1008.9999999999999</ele><time>2026-04-18T11:12:38.789Z</time></trkpt><trkpt lat="41.980445" lon="-8.089855"><ele>1007.9999999999999</ele><time>2026-04-18T11:12:39.788Z</time></trkpt><trkpt lat="41.9803833" lon="-8.0897517"><ele>1007.0</ele><time>2026-04-18T11:12:40.788Z</time></trkpt><trkpt lat="41.9803167" lon="-8.089675"><ele>1006.0</ele><time>2026-04-18T11:12:41.789Z</time></trkpt><trkpt lat="41.9802367" lon="-8.089625"><ele>1005.1666666666666</ele><time>2026-04-18T11:12:42.788Z</time></trkpt><trkpt lat="41.980145" lon="-8.0895967"><ele>1004.3333333333333</ele><time>2026-04-18T11:12:43.785Z</time></trkpt><trkpt lat="41.9800583" lon="-8.089575"><ele>1003.5</ele><time>2026-04-18T11:12:44.788Z</time></trkpt><trkpt lat="41.9799733" lon="-8.0895467"><ele>1002.6666666666667</ele><time>2026-04-18T11:12:45.788Z</time></trkpt><trkpt lat="41.9799067" lon="-8.089505"><ele>1001.8333333333334</ele><time>2026-04-18T11:12:46.788Z</time></trkpt><trkpt lat="41.979885" lon="-8.0894233"><ele>1001.0</ele><time>2026-04-18T11:12:47.785Z</time></trkpt><trkpt lat="41.979885" lon="-8.0893033"><ele>1000.6666666666667</ele><time>2026-04-18T11:12:48.788Z</time></trkpt><trkpt lat="41.9798783" lon="-8.089185"><ele>1000.3333333333334</ele><time>2026-04-18T11:12:49.788Z</time></trkpt><trkpt lat="41.9798467" lon="-8.0890817"><ele>1000.0</ele><time>2026-04-18T11:12:50.786Z</time></trkpt><trkpt lat="41.9798" lon="-8.0890133"><ele>999.6666666666667</ele><time>2026-04-18T11:12:51.787Z</time></trkpt><trkpt lat="41.9797417" lon="-8.0889783"><ele>999.3333333333334</ele><time>2026-04-18T11:12:52.785Z</time></trkpt><trkpt lat="41.9796583" lon="-8.089"><ele>999.0</ele><time>2026-04-18T11:12:53.785Z</time></trkpt><trkpt lat="41.97956" lon="-8.0890167"><ele>999.0</ele><time>2026-04-18T11:12:54.79Z</time></trkpt><trkpt lat="41.979455" lon="-8.0890433"><ele>999.0000000000001</ele><time>2026-04-18T11:12:55.788Z</time></trkpt><trkpt lat="41.9793517" lon="-8.08907"><ele>999.0000000000001</ele><time>2026-04-18T11:12:56.79Z</time></trkpt><trkpt lat="41.9792533" lon="-8.0890933"><ele>999.0</ele><time>2026-04-18T11:12:57.788Z</time></trkpt><trkpt lat="41.9791667" lon="-8.0891083"><ele>999.0</ele><time>2026-04-18T11:12:58.788Z</time></trkpt><trkpt lat="41.979085" lon="-8.0891233"><ele>996.8000000000001</ele><time>2026-04-18T11:12:59.788Z</time></trkpt><trkpt lat="41.9790083" lon="-8.0891433"><ele>994.6000000000001</ele><time>2026-04-18T11:13:00.786Z</time></trkpt><trkpt lat="41.97892" lon="-8.0891583"><ele>992.4</ele><time>2026-04-18T11:13:01.788Z</time></trkpt><trkpt lat="41.9788267" lon="-8.08917"><ele>990.2</ele><time>2026-04-18T11:13:02.788Z</time></trkpt><trkpt lat="41.9787267" lon="-8.0891883"><ele>988.0</ele><time>2026-04-18T11:13:03.787Z</time></trkpt><trkpt lat="41.9786283" lon="-8.08921"><ele>988.0</ele><time>2026-04-18T11:13:04.789Z</time></trkpt><trkpt lat="41.9785233" lon="-8.089225"><ele>988.0</ele><time>2026-04-18T11:13:05.787Z</time></trkpt><trkpt lat="41.978405" lon="-8.089235"><ele>988.0</ele><time>2026-04-18T11:13:06.784Z</time></trkpt><trkpt lat="41.97828" lon="-8.0892383"><ele>988.0</ele><time>2026-04-18T11:13:07.788Z</time></trkpt><trkpt lat="41.97816" lon="-8.0892417"><ele>984.25</ele><time>2026-04-18T11:13:08.789Z</time></trkpt><trkpt lat="41.978035" lon="-8.0892567"><ele>980.5</ele><time>2026-04-18T11:13:09.788Z</time></trkpt><trkpt lat="41.9779167" lon="-8.08928"><ele>976.75</ele><time>2026-04-18T11:13:10.788Z</time></trkpt><trkpt lat="41.97781" lon="-8.089305"><ele>973.0</ele><time>2026-04-18T11:13:11.787Z</time></trkpt><trkpt lat="41.9777133" lon="-8.0893317"><ele>973.0</ele><time>2026-04-18T11:13:12.788Z</time></trkpt><trkpt lat="41.97761" lon="-8.089355"><ele>973.0</ele><time>2026-04-18T11:13:13.786Z</time></trkpt><trkpt lat="41.9774933" lon="-8.0893667"><ele>973.0</ele><time>2026-04-18T11:13:14.788Z</time></trkpt><trkpt lat="41.97736" lon="-8.089365"><ele>973.0</ele><time>2026-04-18T11:13:15.788Z</time></trkpt><trkpt lat="41.977215" lon="-8.0893533"><ele>969.5</ele><time>2026-04-18T11:13:16.788Z</time></trkpt><trkpt lat="41.9770733" lon="-8.08934"><ele>966.0</ele><time>2026-04-18T11:13:17.786Z</time></trkpt><trkpt lat="41.9769467" lon="-8.0893183"><ele>962.5</ele><time>2026-04-18T11:13:18.787Z</time></trkpt><trkpt lat="41.9768317" lon="-8.0892833"><ele>959.0</ele><time>2026-04-18T11:13:19.785Z</time></trkpt><trkpt lat="41.976725" lon="-8.08923"><ele>957.0</ele><time>2026-04-18T11:13:20.785Z</time></trkpt><trkpt lat="41.9766217" lon="-8.0891483"><ele>955.0000000000001</ele><time>2026-04-18T11:13:21.786Z</time></trkpt><trkpt lat="41.976525" lon="-8.0890583"><ele>953.0000000000001</ele><time>2026-04-18T11:13:22.783Z</time></trkpt><trkpt lat="41.976435" lon="-8.0889783"><ele>951.0</ele><time>2026-04-18T11:13:23.786Z</time></trkpt><trkpt lat="41.9763467" lon="-8.0889183"><ele>949.0</ele><time>2026-04-18T11:13:24.786Z</time></trkpt><trkpt lat="41.9762567" lon="-8.088855"><ele>949.0</ele><time>2026-04-18T11:13:25.786Z</time></trkpt><trkpt lat="41.9761667" lon="-8.0887717"><ele>949.0</ele><time>2026-04-18T11:13:26.787Z</time></trkpt><trkpt lat="41.97608" lon="-8.08864"><ele>949.0</ele><time>2026-04-18T11:13:27.789Z</time></trkpt><trkpt lat="41.976005" lon="-8.0884883"><ele>949.0</ele><time>2026-04-18T11:13:28.787Z</time></trkpt><trkpt lat="41.975935" lon="-8.08834"><ele>948.0</ele><time>2026-04-18T11:13:29.788Z</time></trkpt><trkpt lat="41.9758633" lon="-8.0881967"><ele>947.0</ele><time>2026-04-18T11:13:30.787Z</time></trkpt><trkpt lat="41.97578" lon="-8.08805"><ele>946.0</ele><time>2026-04-18T11:13:31.787Z</time></trkpt><trkpt lat="41.9756933" lon="-8.0879133"><ele>945.0</ele><time>2026-04-18T11:13:32.791Z</time></trkpt><trkpt lat="41.9756233" lon="-8.0877917"><ele>942.4</ele><time>2026-04-18T11:13:33.788Z</time></trkpt><trkpt lat="41.9755767" lon="-8.087685"><ele>939.8</ele><time>2026-04-18T11:13:34.788Z</time></trkpt><trkpt lat="41.97554" lon="-8.087585"><ele>937.2</ele><time>2026-04-18T11:13:35.786Z</time></trkpt><trkpt lat="41.975515" lon="-8.08747"><ele>934.6</ele><time>2026-04-18T11:13:36.789Z</time></trkpt><trkpt lat="41.9754983" lon="-8.08734"><ele>932.0</ele><time>2026-04-18T11:13:37.788Z</time></trkpt><trkpt lat="41.9754833" lon="-8.0872017"><ele>931.8</ele><time>2026-04-18T11:13:38.788Z</time></trkpt><trkpt lat="41.975475" lon="-8.0870633"><ele>931.6</ele><time>2026-04-18T11:13:39.789Z</time></trkpt><trkpt lat="41.9754717" lon="-8.086925"><ele>931.3999999999999</ele><time>2026-04-18T11:13:40.788Z</time></trkpt><trkpt lat="41.9754667" lon="-8.0868067"><ele>931.1999999999999</ele><time>2026-04-18T11:13:41.786Z</time></trkpt><trkpt lat="41.9754533" lon="-8.0866983"><ele>931.0</ele><time>2026-04-18T11:13:42.787Z</time></trkpt><trkpt lat="41.97543" lon="-8.0865767"><ele>929.8</ele><time>2026-04-18T11:13:43.79Z</time></trkpt><trkpt lat="41.9754067" lon="-8.0864367"><ele>928.5999999999999</ele><time>2026-04-18T11:13:44.789Z</time></trkpt><trkpt lat="41.9753983" lon="-8.0862817"><ele>927.4</ele><time>2026-04-18T11:13:45.788Z</time></trkpt><trkpt lat="41.9753967" lon="-8.0861317"><ele>926.2</ele><time>2026-04-18T11:13:46.789Z</time></trkpt><trkpt lat="41.9754" lon="-8.0859883"><ele>925.0</ele><time>2026-04-18T11:13:47.789Z</time></trkpt><trkpt lat="41.97541" lon="-8.0858617"><ele>925.1666666666666</ele><time>2026-04-18T11:13:48.789Z</time></trkpt><trkpt lat="41.9754117" lon="-8.08576"><ele>925.3333333333333</ele><time>2026-04-18T11:13:49.789Z</time></trkpt><trkpt lat="41.97539" lon="-8.0856733"><ele>925.5</ele><time>2026-04-18T11:13:50.789Z</time></trkpt><trkpt lat="41.975345" lon="-8.0855717"><ele>925.6666666666667</ele><time>2026-04-18T11:13:51.789Z</time></trkpt><trkpt lat="41.9752933" lon="-8.0854667"><ele>925.8333333333334</ele><time>2026-04-18T11:13:52.788Z</time></trkpt><trkpt lat="41.975245" lon="-8.0853733"><ele>926.0</ele><time>2026-04-18T11:13:53.787Z</time></trkpt><trkpt lat="41.9751933" lon="-8.085305"><ele>926.0000000000001</ele><time>2026-04-18T11:13:54.789Z</time></trkpt><trkpt lat="41.9751233" lon="-8.0852683"><ele>926.0</ele><time>2026-04-18T11:13:55.786Z</time></trkpt><trkpt lat="41.97505" lon="-8.0852367"><ele>926.0</ele><time>2026-04-18T11:13:56.788Z</time></trkpt><trkpt lat="41.97496" lon="-8.0852217"><ele>926.0</ele><time>2026-04-18T11:13:57.788Z</time></trkpt><trkpt lat="41.9748717" lon="-8.0852083"><ele>926.0000000000001</ele><time>2026-04-18T11:13:58.79Z</time></trkpt><trkpt lat="41.9747967" lon="-8.08518"><ele>926.0</ele><time>2026-04-18T11:13:59.789Z</time></trkpt><trkpt lat="41.974735" lon="-8.0851317"><ele>926.8</ele><time>2026-04-18T11:14:00.789Z</time></trkpt><trkpt lat="41.9746667" lon="-8.0850633"><ele>927.5999999999999</ele><time>2026-04-18T11:14:01.784Z</time></trkpt><trkpt lat="41.9745833" lon="-8.0849833"><ele>928.4</ele><time>2026-04-18T11:14:02.791Z</time></trkpt><trkpt lat="41.974485" lon="-8.0848983"><ele>929.2</ele><time>2026-04-18T11:14:03.789Z</time></trkpt><trkpt lat="41.974365" lon="-8.0848217"><ele>930.0</ele><time>2026-04-18T11:14:04.788Z</time></trkpt><trkpt lat="41.9742283" lon="-8.084765"><ele>928.75</ele><time>2026-04-18T11:14:05.789Z</time></trkpt><trkpt lat="41.9740917" lon="-8.0847317"><ele>927.5</ele><time>2026-04-18T11:14:06.788Z</time></trkpt><trkpt lat="41.9739467" lon="-8.08471"><ele>926.25</ele><time>2026-04-18T11:14:07.789Z</time></trkpt><trkpt lat="41.973795" lon="-8.084685"><ele>925.0</ele><time>2026-04-18T11:14:08.789Z</time></trkpt><trkpt lat="41.9736483" lon="-8.0846517"><ele>925.0</ele><time>2026-04-18T11:14:09.788Z</time></trkpt><trkpt lat="41.9735067" lon="-8.084615"><ele>925.0</ele><time>2026-04-18T11:14:10.789Z</time></trkpt><trkpt lat="41.9733717" lon="-8.084585"><ele>925.0</ele><time>2026-04-18T11:14:11.787Z</time></trkpt><trkpt lat="41.9732283" lon="-8.08455"><ele>925.0</ele><time>2026-04-18T11:14:12.787Z</time></trkpt><trkpt lat="41.9730833" lon="-8.08451"><ele>924.0</ele><time>2026-04-18T11:14:13.787Z</time></trkpt><trkpt lat="41.9729333" lon="-8.0844617"><ele>923.0</ele><time>2026-04-18T11:14:14.787Z</time></trkpt><trkpt lat="41.9727833" lon="-8.084415"><ele>922.0</ele><time>2026-04-18T11:14:15.787Z</time></trkpt><trkpt lat="41.9726333" lon="-8.08438"><ele>921.25</ele><time>2026-04-18T11:14:16.788Z</time></trkpt><trkpt lat="41.972485" lon="-8.0843433"><ele>920.5</ele><time>2026-04-18T11:14:17.787Z</time></trkpt><trkpt lat="41.97234" lon="-8.0843017"><ele>919.75</ele><time>2026-04-18T11:14:18.788Z</time></trkpt><trkpt lat="41.9722" lon="-8.084255"><ele>919.0</ele><time>2026-04-18T11:14:19.787Z</time></trkpt><trkpt lat="41.972065" lon="-8.0841983"><ele>919.0</ele><time>2026-04-18T11:14:20.788Z</time></trkpt><trkpt lat="41.9719333" lon="-8.08413"><ele>919.0</ele><time>2026-04-18T11:14:21.788Z</time></trkpt><trkpt lat="41.9718067" lon="-8.0840517"><ele>919.0</ele><time>2026-04-18T11:14:22.788Z</time></trkpt><trkpt lat="41.97168" lon="-8.0839767"><ele>919.0</ele><time>2026-04-18T11:14:23.788Z</time></trkpt><trkpt lat="41.9715467" lon="-8.083925"><ele>919.0</ele><time>2026-04-18T11:14:24.788Z</time></trkpt><trkpt lat="41.971405" lon="-8.0839"><ele>919.0</ele><time>2026-04-18T11:14:25.788Z</time></trkpt><trkpt lat="41.9712583" lon="-8.0839"><ele>919.0</ele><time>2026-04-18T11:14:26.787Z</time></trkpt><trkpt lat="41.9711183" lon="-8.083915"><ele>919.0</ele><time>2026-04-18T11:14:27.786Z</time></trkpt><trkpt lat="41.970995" lon="-8.0839267"><ele>919.0</ele><time>2026-04-18T11:14:28.787Z</time></trkpt><trkpt lat="41.9708817" lon="-8.0839133"><ele>919.0</ele><time>2026-04-18T11:14:29.788Z</time></trkpt><trkpt lat="41.9707733" lon="-8.083875"><ele>919.0</ele><time>2026-04-18T11:14:30.788Z</time></trkpt><trkpt lat="41.97065" lon="-8.0838183"><ele>919.0</ele><time>2026-04-18T11:14:31.788Z</time></trkpt><trkpt lat="41.9705133" lon="-8.0837567"><ele>917.5</ele><time>2026-04-18T11:14:32.791Z</time></trkpt><trkpt lat="41.9703817" lon="-8.0836983"><ele>916.0</ele><time>2026-04-18T11:14:33.788Z</time></trkpt><trkpt lat="41.9702533" lon="-8.08365"><ele>914.5</ele><time>2026-04-18T11:14:34.788Z</time></trkpt><trkpt lat="41.9701383" lon="-8.0836"><ele>913.0</ele><time>2026-04-18T11:14:35.789Z</time></trkpt><trkpt lat="41.970035" lon="-8.0835467"><ele>911.0</ele><time>2026-04-18T11:14:36.785Z</time></trkpt><trkpt lat="41.9699333" lon="-8.083495"><ele>909.0</ele><time>2026-04-18T11:14:37.788Z</time></trkpt><trkpt lat="41.9698383" lon="-8.08345"><ele>907.0</ele><time>2026-04-18T11:14:38.787Z</time></trkpt><trkpt lat="41.969755" lon="-8.0833867"><ele>905.0</ele><time>2026-04-18T11:14:39.785Z</time></trkpt><trkpt lat="41.96967" lon="-8.08328"><ele>903.0</ele><time>2026-04-18T11:14:40.788Z</time></trkpt><trkpt lat="41.9695833" lon="-8.08314"><ele>902.75</ele><time>2026-04-18T11:14:41.785Z</time></trkpt><trkpt lat="41.9694983" lon="-8.0830033"><ele>902.5</ele><time>2026-04-18T11:14:42.786Z</time></trkpt><trkpt lat="41.9694117" lon="-8.0828717"><ele>902.25</ele><time>2026-04-18T11:14:43.786Z</time></trkpt><trkpt lat="41.9693233" lon="-8.0827383"><ele>902.0</ele><time>2026-04-18T11:14:44.788Z</time></trkpt><trkpt lat="41.9692283" lon="-8.0826083"><ele>900.0</ele><time>2026-04-18T11:14:45.788Z</time></trkpt><trkpt lat="41.96913" lon="-8.0824883"><ele>898.0</ele><time>2026-04-18T11:14:46.788Z</time></trkpt><trkpt lat="41.9690367" lon="-8.0823667"><ele>896.0</ele><time>2026-04-18T11:14:47.788Z</time></trkpt><trkpt lat="41.9689417" lon="-8.0822267"><ele>894.0</ele><time>2026-04-18T11:14:48.788Z</time></trkpt><trkpt lat="41.9688567" lon="-8.0820833"><ele>893.8000000000001</ele><time>2026-04-18T11:14:49.787Z</time></trkpt><trkpt lat="41.968785" lon="-8.08195"><ele>893.6000000000001</ele><time>2026-04-18T11:14:50.788Z</time></trkpt><trkpt lat="41.9687267" lon="-8.0818467"><ele>893.4</ele><time>2026-04-18T11:14:51.786Z</time></trkpt><trkpt lat="41.9686733" lon="-8.0817667"><ele>893.2</ele><time>2026-04-18T11:14:52.788Z</time></trkpt><trkpt lat="41.968585" lon="-8.0816733"><ele>893.0</ele><time>2026-04-18T11:14:54.788Z</time></trkpt><trkpt lat="41.96851" lon="-8.081665"><ele>893.0</ele><time>2026-04-18T11:14:55.789Z</time></trkpt><trkpt lat="41.968405" lon="-8.0816567"><ele>893.0</ele><time>2026-04-18T11:14:56.788Z</time></trkpt><trkpt lat="41.96829" lon="-8.0816517"><ele>893.0</ele><time>2026-04-18T11:14:57.787Z</time></trkpt><trkpt lat="41.9681733" lon="-8.0816517"><ele>893.0</ele><time>2026-04-18T11:14:58.786Z</time></trkpt><trkpt lat="41.9680567" lon="-8.0816333"><ele>891.4</ele><time>2026-04-18T11:14:59.788Z</time></trkpt><trkpt lat="41.9679517" lon="-8.0815733"><ele>889.8</ele><time>2026-04-18T11:15:00.788Z</time></trkpt><trkpt lat="41.9678517" lon="-8.0815117"><ele>888.2</ele><time>2026-04-18T11:15:01.787Z</time></trkpt><trkpt lat="41.9677617" lon="-8.0814683"><ele>886.6</ele><time>2026-04-18T11:15:02.787Z</time></trkpt><trkpt lat="41.9676683" lon="-8.0814333"><ele>885.0</ele><time>2026-04-18T11:15:03.786Z</time></trkpt><trkpt lat="41.9675633" lon="-8.08141"><ele>884.4</ele><time>2026-04-18T11:15:04.787Z</time></trkpt><trkpt lat="41.9674483" lon="-8.0813883"><ele>883.8</ele><time>2026-04-18T11:15:05.788Z</time></trkpt><trkpt lat="41.967335" lon="-8.0813667"><ele>883.2</ele><time>2026-04-18T11:15:06.788Z</time></trkpt><trkpt lat="41.9672283" lon="-8.0813517"><ele>882.6</ele><time>2026-04-18T11:15:07.787Z</time></trkpt><trkpt lat="41.9671283" lon="-8.08135"><ele>882.0</ele><time>2026-04-18T11:15:08.788Z</time></trkpt><trkpt lat="41.9670317" lon="-8.08137"><ele>882.0</ele><time>2026-04-18T11:15:09.788Z</time></trkpt><trkpt lat="41.9669383" lon="-8.0814183"><ele>882.0</ele><time>2026-04-18T11:15:10.787Z</time></trkpt><trkpt lat="41.966845" lon="-8.08149"><ele>882.0</ele><time>2026-04-18T11:15:11.788Z</time></trkpt><trkpt lat="41.9667467" lon="-8.0815867"><ele>882.0</ele><time>2026-04-18T11:15:12.787Z</time></trkpt><trkpt lat="41.96665" lon="-8.08169"><ele>881.0</ele><time>2026-04-18T11:15:13.787Z</time></trkpt><trkpt lat="41.9665767" lon="-8.0817867"><ele>880.0</ele><time>2026-04-18T11:15:14.789Z</time></trkpt><trkpt lat="41.966525" lon="-8.0818783"><ele>879.0</ele><time>2026-04-18T11:15:15.789Z</time></trkpt><trkpt lat="41.966485" lon="-8.0819617"><ele>878.0</ele><time>2026-04-18T11:15:16.788Z</time></trkpt><trkpt lat="41.9664083" lon="-8.082055"><ele>877.0</ele><time>2026-04-18T11:15:18.786Z</time></trkpt><trkpt lat="41.9663433" lon="-8.0820417"><ele>876.0</ele><time>2026-04-18T11:15:19.786Z</time></trkpt><trkpt lat="41.9662567" lon="-8.082"><ele>876.0</ele><time>2026-04-18T11:15:20.784Z</time></trkpt><trkpt lat="41.9661467" lon="-8.081925"><ele>876.0</ele><time>2026-04-18T11:15:21.786Z</time></trkpt><trkpt lat="41.966045" lon="-8.0818567"><ele>876.0</ele><time>2026-04-18T11:15:22.784Z</time></trkpt><trkpt lat="41.9659383" lon="-8.0818017"><ele>876.0</ele><time>2026-04-18T11:15:23.787Z</time></trkpt><trkpt lat="41.96583" lon="-8.08176"><ele>873.8</ele><time>2026-04-18T11:15:24.786Z</time></trkpt><trkpt lat="41.9657133" lon="-8.081745"><ele>871.5999999999999</ele><time>2026-04-18T11:15:25.786Z</time></trkpt><trkpt lat="41.9655933" lon="-8.08175"><ele>869.4</ele><time>2026-04-18T11:15:26.783Z</time></trkpt><trkpt lat="41.9654917" lon="-8.08177"><ele>867.2</ele><time>2026-04-18T11:15:27.785Z</time></trkpt><trkpt lat="41.96541" lon="-8.0817933"><ele>865.0</ele><time>2026-04-18T11:15:28.785Z</time></trkpt><trkpt lat="41.9653467" lon="-8.0818383"><ele>865.0</ele><time>2026-04-18T11:15:29.787Z</time></trkpt><trkpt lat="41.9652967" lon="-8.0819133"><ele>865.0</ele><time>2026-04-18T11:15:30.788Z</time></trkpt><trkpt lat="41.9652667" lon="-8.0820383"><ele>865.0</ele><time>2026-04-18T11:15:31.788Z</time></trkpt><trkpt lat="41.965255" lon="-8.0822117"><ele>865.0</ele><time>2026-04-18T11:15:32.787Z</time></trkpt><trkpt lat="41.9652583" lon="-8.0823967"><ele>865.0</ele><time>2026-04-18T11:15:33.787Z</time></trkpt><trkpt lat="41.9652617" lon="-8.0825683"><ele>864.4999999999999</ele><time>2026-04-18T11:15:34.788Z</time></trkpt><trkpt lat="41.9652717" lon="-8.08271"><ele>864.0</ele><time>2026-04-18T11:15:35.787Z</time></trkpt><trkpt lat="41.9652717" lon="-8.0828283"><ele>863.5</ele><time>2026-04-18T11:15:36.787Z</time></trkpt><trkpt lat="41.965255" lon="-8.0829383"><ele>863.0</ele><time>2026-04-18T11:15:37.788Z</time></trkpt><trkpt lat="41.9652217" lon="-8.0830367"><ele>862.4999999999999</ele><time>2026-04-18T11:15:38.788Z</time></trkpt><trkpt lat="41.9651817" lon="-8.0831217"><ele>862.0</ele><time>2026-04-18T11:15:39.787Z</time></trkpt><trkpt lat="41.9651217" lon="-8.083185"><ele>862.0</ele><time>2026-04-18T11:15:40.787Z</time></trkpt><trkpt lat="41.96504" lon="-8.0832367"><ele>862.0</ele><time>2026-04-18T11:15:41.788Z</time></trkpt><trkpt lat="41.96495" lon="-8.0832883"><ele>862.0</ele><time>2026-04-18T11:15:42.789Z</time></trkpt><trkpt lat="41.9648583" lon="-8.0833333"><ele>862.0</ele><time>2026-04-18T11:15:43.788Z</time></trkpt><trkpt lat="41.964765" lon="-8.08337"><ele>862.0</ele><time>2026-04-18T11:15:44.788Z</time></trkpt><trkpt lat="41.9646717" lon="-8.0833933"><ele>856.5</ele><time>2026-04-18T11:15:45.789Z</time></trkpt><trkpt lat="41.9645617" lon="-8.0833833"><ele>851.0</ele><time>2026-04-18T11:15:46.787Z</time></trkpt><trkpt lat="41.96443" lon="-8.0833533"><ele>845.5</ele><time>2026-04-18T11:15:47.789Z</time></trkpt><trkpt lat="41.9642867" lon="-8.0833167"><ele>840.0</ele><time>2026-04-18T11:15:48.786Z</time></trkpt><trkpt lat="41.9641367" lon="-8.0832617"><ele>838.6666666666667</ele><time>2026-04-18T11:15:49.786Z</time></trkpt><trkpt lat="41.9639767" lon="-8.0831867"><ele>837.3333333333334</ele><time>2026-04-18T11:15:50.785Z</time></trkpt><trkpt lat="41.9638217" lon="-8.083115"><ele>836.0</ele><time>2026-04-18T11:15:51.786Z</time></trkpt><trkpt lat="41.963675" lon="-8.083045"><ele>836.0</ele><time>2026-04-18T11:15:52.786Z</time></trkpt><trkpt lat="41.9635367" lon="-8.0829667"><ele>836.0</ele><time>2026-04-18T11:15:53.786Z</time></trkpt><trkpt lat="41.9634017" lon="-8.082875"><ele>836.0</ele><time>2026-04-18T11:15:54.785Z</time></trkpt><trkpt lat="41.9632833" lon="-8.0827967"><ele>836.0</ele><time>2026-04-18T11:15:55.785Z</time></trkpt><trkpt lat="41.9631783" lon="-8.0827283"><ele>834.0</ele><time>2026-04-18T11:15:56.786Z</time></trkpt><trkpt lat="41.9630933" lon="-8.0826483"><ele>832.0</ele><time>2026-04-18T11:15:57.786Z</time></trkpt><trkpt lat="41.9630167" lon="-8.0825717"><ele>830.0</ele><time>2026-04-18T11:15:58.786Z</time></trkpt><trkpt lat="41.962845" lon="-8.0824267"><ele>828.0</ele><time>2026-04-18T11:15:59.873Z</time></trkpt><trkpt lat="41.96276" lon="-8.0823979"><ele>827.5</ele><time>2026-04-18T11:16:01.285Z</time></trkpt><trkpt lat="41.962697" lon="-8.082338"><ele>827.0</ele><time>2026-04-18T11:16:02.786Z</time></trkpt><trkpt lat="41.9626745" lon="-8.0821473"><ele>826.5</ele><time>2026-04-18T11:16:04.786Z</time></trkpt><trkpt lat="41.9626999" lon="-8.0819911"><ele>826.0</ele><time>2026-04-18T11:16:05.785Z</time></trkpt><trkpt lat="41.9627482" lon="-8.0818209"><ele>826.0</ele><time>2026-04-18T11:16:06.784Z</time></trkpt><trkpt lat="41.9628139" lon="-8.081644"><ele>826.0</ele><time>2026-04-18T11:16:07.786Z</time></trkpt><trkpt lat="41.9628945" lon="-8.0814575"><ele>826.0</ele><time>2026-04-18T11:16:08.786Z</time></trkpt><trkpt lat="41.9629826" lon="-8.0812735"><ele>823.5</ele><time>2026-04-18T11:16:09.786Z</time></trkpt><trkpt lat="41.9630675" lon="-8.0811103"><ele>821.0</ele><time>2026-04-18T11:16:10.785Z</time></trkpt><trkpt lat="41.9631454" lon="-8.0809743"><ele>818.5</ele><time>2026-04-18T11:16:11.785Z</time></trkpt><trkpt lat="41.9632232" lon="-8.0808451"><ele>816.0</ele><time>2026-04-18T11:16:12.783Z</time></trkpt><trkpt lat="41.9633059" lon="-8.0807093"><ele>816.3333333333333</ele><time>2026-04-18T11:16:13.785Z</time></trkpt><trkpt lat="41.9634013" lon="-8.0805632"><ele>816.6666666666666</ele><time>2026-04-18T11:16:14.787Z</time></trkpt><trkpt lat="41.9635167" lon="-8.0804135"><ele>817.0</ele><time>2026-04-18T11:16:15.787Z</time></trkpt><trkpt lat="41.9636434" lon="-8.0802582"><ele>817.0</ele><time>2026-04-18T11:16:16.786Z</time></trkpt><trkpt lat="41.9637667" lon="-8.080097"><ele>817.0</ele><time>2026-04-18T11:16:17.786Z</time></trkpt><trkpt lat="41.9638809" lon="-8.0799338"><ele>817.0</ele><time>2026-04-18T11:16:18.785Z</time></trkpt><trkpt lat="41.963995" lon="-8.0797831"><ele>819.0</ele><time>2026-04-18T11:16:19.785Z</time></trkpt><trkpt lat="41.9641183" lon="-8.0796541"><ele>821.0</ele><time>2026-04-18T11:16:20.786Z</time></trkpt><trkpt lat="41.9642482" lon="-8.0795399"><ele>823.0</ele><time>2026-04-18T11:16:21.786Z</time></trkpt><trkpt lat="41.9643614" lon="-8.079427"><ele>823.0</ele><time>2026-04-18T11:16:22.785Z</time></trkpt><trkpt lat="41.9644419" lon="-8.0793022"><ele>823.0</ele><time>2026-04-18T11:16:23.785Z</time></trkpt><trkpt lat="41.9645036" lon="-8.0791398"><ele>823.0</ele><time>2026-04-18T11:16:24.786Z</time></trkpt><trkpt lat="41.9645594" lon="-8.0789451"><ele>823.0</ele><time>2026-04-18T11:16:25.786Z</time></trkpt><trkpt lat="41.9646093" lon="-8.0787535"><ele>819.25</ele><time>2026-04-18T11:16:26.786Z</time></trkpt><trkpt lat="41.9646597" lon="-8.0785794"><ele>815.5</ele><time>2026-04-18T11:16:27.786Z</time></trkpt><trkpt lat="41.964697" lon="-8.0784248"><ele>811.75</ele><time>2026-04-18T11:16:28.786Z</time></trkpt><trkpt lat="41.9647131" lon="-8.0782838"><ele>808.0</ele><time>2026-04-18T11:16:29.786Z</time></trkpt><trkpt lat="41.9647209" lon="-8.078135"><ele>806.25</ele><time>2026-04-18T11:16:30.785Z</time></trkpt><trkpt lat="41.9647451" lon="-8.0779658"><ele>804.5</ele><time>2026-04-18T11:16:31.785Z</time></trkpt><trkpt lat="41.9647856" lon="-8.0777876"><ele>802.75</ele><time>2026-04-18T11:16:32.785Z</time></trkpt><trkpt lat="41.9648244" lon="-8.0776251"><ele>801.0</ele><time>2026-04-18T11:16:33.786Z</time></trkpt><trkpt lat="41.9648407" lon="-8.0774963"><ele>802.5</ele><time>2026-04-18T11:16:34.785Z</time></trkpt><trkpt lat="41.9648383" lon="-8.07739"><ele>804.0</ele><time>2026-04-18T11:16:35.786Z</time></trkpt><trkpt lat="41.9648285" lon="-8.0772912"><ele>805.5</ele><time>2026-04-18T11:16:36.785Z</time></trkpt><trkpt lat="41.9647958" lon="-8.0772098"><ele>807.0</ele><time>2026-04-18T11:16:37.785Z</time></trkpt><trkpt lat="41.9647423" lon="-8.0771482"><ele>808.5</ele><time>2026-04-18T11:16:38.786Z</time></trkpt><trkpt lat="41.9646772" lon="-8.0771143"><ele>810.0</ele><time>2026-04-18T11:16:39.785Z</time></trkpt><trkpt lat="41.9645762" lon="-8.0770648"><ele>810.0</ele><time>2026-04-18T11:16:41.786Z</time></trkpt><trkpt lat="41.9645118" lon="-8.0770279"><ele>810.0</ele><time>2026-04-18T11:16:43.786Z</time></trkpt><trkpt lat="41.9644283" lon="-8.07698"><ele>810.0</ele><time>2026-04-18T11:16:45.786Z</time></trkpt><trkpt lat="41.9643417" lon="-8.076945"><ele>810.0</ele><time>2026-04-18T11:16:47.786Z</time></trkpt><trkpt lat="41.9642817" lon="-8.0769133"><ele>810.0</ele><time>2026-04-18T11:16:48.786Z</time></trkpt><trkpt lat="41.964205" lon="-8.076865"><ele>810.0</ele><time>2026-04-18T11:16:49.784Z</time></trkpt><trkpt lat="41.9641167" lon="-8.076825"><ele>807.25</ele><time>2026-04-18T11:16:50.787Z</time></trkpt><trkpt lat="41.964015" lon="-8.0768033"><ele>804.5</ele><time>2026-04-18T11:16:51.786Z</time></trkpt><trkpt lat="41.9639017" lon="-8.0768133"><ele>801.75</ele><time>2026-04-18T11:16:52.786Z</time></trkpt><trkpt lat="41.9637867" lon="-8.07684"><ele>799.0</ele><time>2026-04-18T11:16:53.786Z</time></trkpt><trkpt lat="41.9636733" lon="-8.0768767"><ele>799.0</ele><time>2026-04-18T11:16:54.786Z</time></trkpt><trkpt lat="41.9635617" lon="-8.0768833"><ele>799.0</ele><time>2026-04-18T11:16:55.787Z</time></trkpt><trkpt lat="41.9634367" lon="-8.07686"><ele>799.0</ele><time>2026-04-18T11:16:56.786Z</time></trkpt><trkpt lat="41.963305" lon="-8.0768067"><ele>799.0</ele><time>2026-04-18T11:16:57.785Z</time></trkpt><trkpt lat="41.96317" lon="-8.0767333"><ele>798.25</ele><time>2026-04-18T11:16:58.785Z</time></trkpt><trkpt lat="41.96304" lon="-8.0766533"><ele>797.5</ele><time>2026-04-18T11:16:59.786Z</time></trkpt><trkpt lat="41.9629183" lon="-8.0765817"><ele>796.75</ele><time>2026-04-18T11:17:00.786Z</time></trkpt><trkpt lat="41.96281" lon="-8.0765217"><ele>796.0</ele><time>2026-04-18T11:17:01.786Z</time></trkpt><trkpt lat="41.9627167" lon="-8.0764783"><ele>797.1999999999999</ele><time>2026-04-18T11:17:02.786Z</time></trkpt><trkpt lat="41.9626117" lon="-8.0764667"><ele>798.4</ele><time>2026-04-18T11:17:03.784Z</time></trkpt><trkpt lat="41.9625033" lon="-8.07648"><ele>799.6</ele><time>2026-04-18T11:17:04.785Z</time></trkpt><trkpt lat="41.9624033" lon="-8.0764967"><ele>800.8</ele><time>2026-04-18T11:17:05.786Z</time></trkpt><trkpt lat="41.9623117" lon="-8.0764933"><ele>802.0</ele><time>2026-04-18T11:17:06.786Z</time></trkpt><trkpt lat="41.96222" lon="-8.0764667"><ele>802.0</ele><time>2026-04-18T11:17:07.787Z</time></trkpt><trkpt lat="41.9621217" lon="-8.0764367"><ele>802.0</ele><time>2026-04-18T11:17:08.785Z</time></trkpt><trkpt lat="41.96202" lon="-8.0764233"><ele>802.0</ele><time>2026-04-18T11:17:09.784Z</time></trkpt><trkpt lat="41.9619017" lon="-8.0764067"><ele>802.0</ele><time>2026-04-18T11:17:10.784Z</time></trkpt><trkpt lat="41.9617833" lon="-8.0763817"><ele>802.0</ele><time>2026-04-18T11:17:11.786Z</time></trkpt><trkpt lat="41.961675" lon="-8.0763683"><ele>800.0</ele><time>2026-04-18T11:17:12.786Z</time></trkpt><trkpt lat="41.9615667" lon="-8.076385"><ele>798.0</ele><time>2026-04-18T11:17:13.786Z</time></trkpt><trkpt lat="41.96145" lon="-8.0764217"><ele>796.0</ele><time>2026-04-18T11:17:14.787Z</time></trkpt><trkpt lat="41.9613267" lon="-8.0764567"><ele>794.0</ele><time>2026-04-18T11:17:15.786Z</time></trkpt><trkpt lat="41.961185" lon="-8.0764783"><ele>794.0</ele><time>2026-04-18T11:17:16.785Z</time></trkpt><trkpt lat="41.961035" lon="-8.0764983"><ele>794.0</ele><time>2026-04-18T11:17:17.786Z</time></trkpt><trkpt lat="41.9608883" lon="-8.0765283"><ele>794.0</ele><time>2026-04-18T11:17:18.786Z</time></trkpt><trkpt lat="41.9607533" lon="-8.0765567"><ele>794.0</ele><time>2026-04-18T11:17:19.785Z</time></trkpt><trkpt lat="41.9606267" lon="-8.07659"><ele>791.5</ele><time>2026-04-18T11:17:20.784Z</time></trkpt><trkpt lat="41.9605083" lon="-8.0766083"><ele>789.0</ele><time>2026-04-18T11:17:21.786Z</time></trkpt><trkpt lat="41.9603933" lon="-8.0766017"><ele>786.5</ele><time>2026-04-18T11:17:22.786Z</time></trkpt><trkpt lat="41.960275" lon="-8.07656"><ele>784.0</ele><time>2026-04-18T11:17:23.787Z</time></trkpt><trkpt lat="41.96014" lon="-8.076505"><ele>782.0</ele><time>2026-04-18T11:17:24.786Z</time></trkpt><trkpt lat="41.960005" lon="-8.07645"><ele>780.0</ele><time>2026-04-18T11:17:25.786Z</time></trkpt><trkpt lat="41.9598733" lon="-8.0764033"><ele>778.0</ele><time>2026-04-18T11:17:26.786Z</time></trkpt><trkpt lat="41.95974" lon="-8.07639"><ele>776.0</ele><time>2026-04-18T11:17:27.785Z</time></trkpt><trkpt lat="41.9595983" lon="-8.0763833"><ele>776.0</ele><time>2026-04-18T11:17:28.786Z</time></trkpt><trkpt lat="41.9594583" lon="-8.0763767"><ele>776.0</ele><time>2026-04-18T11:17:29.785Z</time></trkpt><trkpt lat="41.9593267" lon="-8.076365"><ele>776.0</ele><time>2026-04-18T11:17:30.785Z</time></trkpt><trkpt lat="41.9592033" lon="-8.0763517"><ele>776.0</ele><time>2026-04-18T11:17:31.786Z</time></trkpt><trkpt lat="41.9590883" lon="-8.0763383"><ele>773.8</ele><time>2026-04-18T11:17:32.786Z</time></trkpt><trkpt lat="41.9589733" lon="-8.0763517"><ele>771.5999999999999</ele><time>2026-04-18T11:17:33.785Z</time></trkpt><trkpt lat="41.95886" lon="-8.0763833"><ele>769.4</ele><time>2026-04-18T11:17:34.786Z</time></trkpt><trkpt lat="41.95876" lon="-8.0764217"><ele>767.2</ele><time>2026-04-18T11:17:35.786Z</time></trkpt><trkpt lat="41.9586867" lon="-8.07647"><ele>765.0</ele><time>2026-04-18T11:17:36.786Z</time></trkpt><trkpt lat="41.9586283" lon="-8.076535"><ele>765.8</ele><time>2026-04-18T11:17:37.787Z</time></trkpt><trkpt lat="41.95858" lon="-8.0766217"><ele>766.6</ele><time>2026-04-18T11:17:38.785Z</time></trkpt><trkpt lat="41.95854" lon="-8.0767383"><ele>767.4000000000001</ele><time>2026-04-18T11:17:39.786Z</time></trkpt><trkpt lat="41.9585083" lon="-8.076875"><ele>768.2</ele><time>2026-04-18T11:17:40.786Z</time></trkpt><trkpt lat="41.9584717" lon="-8.0770033"><ele>769.0</ele><time>2026-04-18T11:17:41.785Z</time></trkpt><trkpt lat="41.9584183" lon="-8.0771033"><ele>766.2</ele><time>2026-04-18T11:17:42.786Z</time></trkpt><trkpt lat="41.95835" lon="-8.07718"><ele>763.4000000000001</ele><time>2026-04-18T11:17:43.785Z</time></trkpt><trkpt lat="41.958265" lon="-8.0772367"><ele>760.6</ele><time>2026-04-18T11:17:44.787Z</time></trkpt><trkpt lat="41.95816" lon="-8.0772683"><ele>757.8</ele><time>2026-04-18T11:17:45.785Z</time></trkpt><trkpt lat="41.9580233" lon="-8.0772517"><ele>755.0</ele><time>2026-04-18T11:17:46.787Z</time></trkpt><trkpt lat="41.9578883" lon="-8.0772317"><ele>755.0</ele><time>2026-04-18T11:17:47.786Z</time></trkpt><trkpt lat="41.95777" lon="-8.0772283"><ele>755.0</ele><time>2026-04-18T11:17:48.786Z</time></trkpt><trkpt lat="41.9576667" lon="-8.0772367"><ele>755.0</ele><time>2026-04-18T11:17:49.787Z</time></trkpt><trkpt lat="41.9575717" lon="-8.0772333"><ele>755.0</ele><time>2026-04-18T11:17:50.787Z</time></trkpt><trkpt lat="41.9574883" lon="-8.0772283"><ele>755.0</ele><time>2026-04-18T11:17:51.786Z</time></trkpt><trkpt lat="41.9574167" lon="-8.07723"><ele>754.0</ele><time>2026-04-18T11:17:52.787Z</time></trkpt><trkpt lat="41.957305" lon="-8.07725"><ele>753.0</ele><time>2026-04-18T11:17:54.783Z</time></trkpt><trkpt lat="41.9572183" lon="-8.0772983"><ele>752.0</ele><time>2026-04-18T11:17:56.786Z</time></trkpt><trkpt lat="41.957145" lon="-8.07736"><ele>751.0</ele><time>2026-04-18T11:17:58.785Z</time></trkpt><trkpt lat="41.957075" lon="-8.0774233"><ele>750.0</ele><time>2026-04-18T11:18:00.786Z</time></trkpt><trkpt lat="41.9569967" lon="-8.0775"><ele>750.0</ele><time>2026-04-18T11:18:02.786Z</time></trkpt><trkpt lat="41.95695" lon="-8.0775867"><ele>750.0</ele><time>2026-04-18T11:18:04.786Z</time></trkpt><trkpt lat="41.95695" lon="-8.0776783"><ele>750.0</ele><time>2026-04-18T11:18:06.787Z</time></trkpt><trkpt lat="41.9570067" lon="-8.07777"><ele>750.0</ele><time>2026-04-18T11:20:36.783Z</time></trkpt><trkpt lat="41.9570067" lon="-8.077895"><ele>750.0</ele><time>2026-04-18T11:20:54.789Z</time></trkpt><trkpt lat="41.95702" lon="-8.077995"><ele>750.0</ele><time>2026-04-18T11:20:55.787Z</time></trkpt><trkpt lat="41.95704" lon="-8.0781433"><ele>750.0</ele><time>2026-04-18T11:20:56.787Z</time></trkpt><trkpt lat="41.957065" lon="-8.0783067"><ele>750.0</ele><time>2026-04-18T11:20:57.787Z</time></trkpt><trkpt lat="41.957085" lon="-8.0784433"><ele>750.0</ele><time>2026-04-18T11:20:58.789Z</time></trkpt><trkpt lat="41.9571033" lon="-8.07857"><ele>750.0</ele><time>2026-04-18T11:20:59.787Z</time></trkpt><trkpt lat="41.9571183" lon="-8.07869"><ele>750.0</ele><time>2026-04-18T11:21:00.788Z</time></trkpt><trkpt lat="41.9571367" lon="-8.0787917"><ele>750.0</ele><time>2026-04-18T11:21:01.788Z</time></trkpt><trkpt lat="41.957165" lon="-8.078885"><ele>750.0</ele><time>2026-04-18T11:21:02.787Z</time></trkpt><trkpt lat="41.95721" lon="-8.0789583"><ele>750.0</ele><time>2026-04-18T11:21:03.788Z</time></trkpt><trkpt lat="41.9572683" lon="-8.0790167"><ele>750.0</ele><time>2026-04-18T11:21:04.788Z</time></trkpt><trkpt lat="41.9573317" lon="-8.0790717"><ele>750.0</ele><time>2026-04-18T11:21:05.788Z</time></trkpt><trkpt lat="41.9574017" lon="-8.07912"><ele>750.0</ele><time>2026-04-18T11:21:06.787Z</time></trkpt><trkpt lat="41.9574833" lon="-8.0791683"><ele>749.5</ele><time>2026-04-18T11:21:07.785Z</time></trkpt><trkpt lat="41.9575783" lon="-8.0792167"><ele>749.0</ele><time>2026-04-18T11:21:08.788Z</time></trkpt><trkpt lat="41.9576867" lon="-8.079265"><ele>748.5</ele><time>2026-04-18T11:21:09.787Z</time></trkpt><trkpt lat="41.9578033" lon="-8.0793117"><ele>748.0</ele><time>2026-04-18T11:21:10.787Z</time></trkpt><trkpt lat="41.9579283" lon="-8.079355"><ele>748.0</ele><time>2026-04-18T11:21:11.785Z</time></trkpt><trkpt lat="41.9580583" lon="-8.0793967"><ele>748.0</ele><time>2026-04-18T11:21:12.789Z</time></trkpt><trkpt lat="41.9581933" lon="-8.0794333"><ele>748.0</ele><time>2026-04-18T11:21:13.787Z</time></trkpt><trkpt lat="41.95833" lon="-8.0794617"><ele>748.0</ele><time>2026-04-18T11:21:14.787Z</time></trkpt><trkpt lat="41.958445" lon="-8.0794767"><ele>748.0</ele><time>2026-04-18T11:21:15.787Z</time></trkpt><trkpt lat="41.958555" lon="-8.07949"><ele>748.0</ele><time>2026-04-18T11:21:16.785Z</time></trkpt><trkpt lat="41.9586917" lon="-8.0794983"><ele>748.0</ele><time>2026-04-18T11:21:17.784Z</time></trkpt><trkpt lat="41.9588367" lon="-8.0795067"><ele>748.0</ele><time>2026-04-18T11:21:18.787Z</time></trkpt><trkpt lat="41.9589833" lon="-8.0795217"><ele>748.0</ele><time>2026-04-18T11:21:19.786Z</time></trkpt><trkpt lat="41.9591317" lon="-8.0795583"><ele>748.0</ele><time>2026-04-18T11:21:20.784Z</time></trkpt><trkpt lat="41.95927" lon="-8.0795967"><ele>748.0</ele><time>2026-04-18T11:21:21.786Z</time></trkpt><trkpt lat="41.959395" lon="-8.0796283"><ele>748.0</ele><time>2026-04-18T11:21:22.788Z</time></trkpt><trkpt lat="41.9595117" lon="-8.0796517"><ele>748.75</ele><time>2026-04-18T11:21:23.786Z</time></trkpt><trkpt lat="41.9596367" lon="-8.0796767"><ele>749.5</ele><time>2026-04-18T11:21:24.788Z</time></trkpt><trkpt lat="41.9597667" lon="-8.0796983"><ele>750.25</ele><time>2026-04-18T11:21:25.785Z</time></trkpt><trkpt lat="41.9599067" lon="-8.0797217"><ele>751.0</ele><time>2026-04-18T11:21:26.786Z</time></trkpt><trkpt lat="41.9600483" lon="-8.0797433"><ele>751.4</ele><time>2026-04-18T11:21:27.787Z</time></trkpt><trkpt lat="41.960185" lon="-8.07977"><ele>751.8</ele><time>2026-04-18T11:21:28.788Z</time></trkpt><trkpt lat="41.9603" lon="-8.07978"><ele>752.1999999999999</ele><time>2026-04-18T11:21:29.787Z</time></trkpt><trkpt lat="41.9604033" lon="-8.0797967"><ele>752.5999999999999</ele><time>2026-04-18T11:21:30.787Z</time></trkpt><trkpt lat="41.9604883" lon="-8.079825"><ele>753.0</ele><time>2026-04-18T11:21:31.784Z</time></trkpt><trkpt lat="41.960565" lon="-8.07986"><ele>751.5999999999999</ele><time>2026-04-18T11:21:32.788Z</time></trkpt><trkpt lat="41.9606383" lon="-8.07996"><ele>750.1999999999999</ele><time>2026-04-18T11:21:34.786Z</time></trkpt><trkpt lat="41.9606367" lon="-8.080085"><ele>748.8</ele><time>2026-04-18T11:21:36.786Z</time></trkpt><trkpt lat="41.96061" lon="-8.08025"><ele>747.4</ele><time>2026-04-18T11:21:38.788Z</time></trkpt><trkpt lat="41.96059" lon="-8.080345"><ele>746.0</ele><time>2026-04-18T11:21:39.783Z</time></trkpt><trkpt lat="41.9605567" lon="-8.0804383"><ele>746.0</ele><time>2026-04-18T11:21:40.788Z</time></trkpt><trkpt lat="41.9605" lon="-8.08053"><ele>746.0</ele><time>2026-04-18T11:21:41.786Z</time></trkpt><trkpt lat="41.9604133" lon="-8.0806183"><ele>746.0</ele><time>2026-04-18T11:21:42.786Z</time></trkpt><trkpt lat="41.9603317" lon="-8.080705"><ele>746.0</ele><time>2026-04-18T11:21:43.786Z</time></trkpt><trkpt lat="41.960255" lon="-8.0808033"><ele>746.0</ele><time>2026-04-18T11:21:44.786Z</time></trkpt><trkpt lat="41.9601783" lon="-8.0809183"><ele>747.75</ele><time>2026-04-18T11:21:45.786Z</time></trkpt><trkpt lat="41.9600933" lon="-8.0810383"><ele>749.5</ele><time>2026-04-18T11:21:46.783Z</time></trkpt><trkpt lat="41.96001" lon="-8.081155"><ele>751.25</ele><time>2026-04-18T11:21:47.785Z</time></trkpt><trkpt lat="41.9599367" lon="-8.081265"><ele>753.0</ele><time>2026-04-18T11:21:48.785Z</time></trkpt><trkpt lat="41.9598717" lon="-8.0814"><ele>751.75</ele><time>2026-04-18T11:21:49.786Z</time></trkpt><trkpt lat="41.9598317" lon="-8.0815567"><ele>750.5</ele><time>2026-04-18T11:21:50.786Z</time></trkpt><trkpt lat="41.9598083" lon="-8.0817283"><ele>749.25</ele><time>2026-04-18T11:21:51.788Z</time></trkpt><trkpt lat="41.9597933" lon="-8.0819183"><ele>748.0</ele><time>2026-04-18T11:21:52.786Z</time></trkpt><trkpt lat="41.95979" lon="-8.0821333"><ele>748.0</ele><time>2026-04-18T11:21:53.785Z</time></trkpt><trkpt lat="41.959795" lon="-8.08235"><ele>748.0</ele><time>2026-04-18T11:21:54.787Z</time></trkpt><trkpt lat="41.9598" lon="-8.0825383"><ele>748.0</ele><time>2026-04-18T11:21:55.788Z</time></trkpt><trkpt lat="41.9597833" lon="-8.0826767"><ele>748.0</ele><time>2026-04-18T11:21:56.787Z</time></trkpt><trkpt lat="41.9597533" lon="-8.0827833"><ele>750.0</ele><time>2026-04-18T11:21:57.787Z</time></trkpt><trkpt lat="41.9597033" lon="-8.082865"><ele>752.0</ele><time>2026-04-18T11:21:58.788Z</time></trkpt><trkpt lat="41.9596467" lon="-8.0829267"><ele>754.0</ele><time>2026-04-18T11:21:59.787Z</time></trkpt><trkpt lat="41.9595683" lon="-8.0829867"><ele>756.0</ele><time>2026-04-18T11:22:00.788Z</time></trkpt><trkpt lat="41.9595" lon="-8.08304"><ele>758.0</ele><time>2026-04-18T11:22:01.785Z</time></trkpt><trkpt lat="41.959445" lon="-8.0831033"><ele>760.0</ele><time>2026-04-18T11:22:02.785Z</time></trkpt><trkpt lat="41.9594067" lon="-8.0831767"><ele>761.8</ele><time>2026-04-18T11:22:03.786Z</time></trkpt><trkpt lat="41.95938" lon="-8.0832683"><ele>763.6</ele><time>2026-04-18T11:22:04.787Z</time></trkpt><trkpt lat="41.9593783" lon="-8.0833917"><ele>765.4000000000001</ele><time>2026-04-18T11:22:05.786Z</time></trkpt><trkpt lat="41.9593767" lon="-8.0835467"><ele>767.2</ele><time>2026-04-18T11:22:06.786Z</time></trkpt><trkpt lat="41.9593533" lon="-8.0836983"><ele>769.0</ele><time>2026-04-18T11:22:07.786Z</time></trkpt><trkpt lat="41.9593317" lon="-8.08384"><ele>769.0</ele><time>2026-04-18T11:22:08.788Z</time></trkpt><trkpt lat="41.9593233" lon="-8.083965"><ele>769.0</ele><time>2026-04-18T11:22:09.787Z</time></trkpt><trkpt lat="41.959345" lon="-8.0840933"><ele>769.0</ele><time>2026-04-18T11:22:10.787Z</time></trkpt><trkpt lat="41.959385" lon="-8.0842333"><ele>769.0</ele><time>2026-04-18T11:22:11.788Z</time></trkpt><trkpt lat="41.9594433" lon="-8.0843783"><ele>769.0</ele><time>2026-04-18T11:22:12.788Z</time></trkpt><trkpt lat="41.9595017" lon="-8.0845317"><ele>769.5</ele><time>2026-04-18T11:22:13.786Z</time></trkpt><trkpt lat="41.9595583" lon="-8.0847083"><ele>770.0</ele><time>2026-04-18T11:22:14.789Z</time></trkpt><trkpt lat="41.9596067" lon="-8.08489"><ele>770.5</ele><time>2026-04-18T11:22:15.786Z</time></trkpt><trkpt lat="41.959655" lon="-8.0850283"><ele>771.0</ele><time>2026-04-18T11:22:16.786Z</time></trkpt><trkpt lat="41.9597133" lon="-8.0851433"><ele>771.0</ele><time>2026-04-18T11:22:17.785Z</time></trkpt><trkpt lat="41.95978" lon="-8.0852517"><ele>771.0</ele><time>2026-04-18T11:22:18.787Z</time></trkpt><trkpt lat="41.9598533" lon="-8.0853533"><ele>771.0</ele><time>2026-04-18T11:22:19.787Z</time></trkpt><trkpt lat="41.9599367" lon="-8.0854367"><ele>771.0</ele><time>2026-04-18T11:22:20.786Z</time></trkpt><trkpt lat="41.960025" lon="-8.0854933"><ele>771.0</ele><time>2026-04-18T11:22:21.786Z</time></trkpt><trkpt lat="41.9601283" lon="-8.0855317"><ele>773.25</ele><time>2026-04-18T11:22:22.785Z</time></trkpt><trkpt lat="41.9602467" lon="-8.085555"><ele>775.5</ele><time>2026-04-18T11:22:23.786Z</time></trkpt><trkpt lat="41.9603733" lon="-8.0855717"><ele>777.75</ele><time>2026-04-18T11:22:24.79Z</time></trkpt><trkpt lat="41.960505" lon="-8.0855733"><ele>780.0</ele><time>2026-04-18T11:22:25.788Z</time></trkpt><trkpt lat="41.960635" lon="-8.08556"><ele>780.0</ele><time>2026-04-18T11:22:26.788Z</time></trkpt><trkpt lat="41.960765" lon="-8.0855333"><ele>780.0</ele><time>2026-04-18T11:22:27.788Z</time></trkpt><trkpt lat="41.9609067" lon="-8.085495"><ele>780.0</ele><time>2026-04-18T11:22:28.788Z</time></trkpt><trkpt lat="41.9610467" lon="-8.0854633"><ele>780.0</ele><time>2026-04-18T11:22:29.789Z</time></trkpt><trkpt lat="41.9611933" lon="-8.085455"><ele>781.75</ele><time>2026-04-18T11:22:30.788Z</time></trkpt><trkpt lat="41.9613417" lon="-8.0854617"><ele>783.5</ele><time>2026-04-18T11:22:31.786Z</time></trkpt><trkpt lat="41.96148" lon="-8.0854617"><ele>785.25</ele><time>2026-04-18T11:22:32.79Z</time></trkpt><trkpt lat="41.9616183" lon="-8.08545"><ele>787.0</ele><time>2026-04-18T11:22:33.786Z</time></trkpt><trkpt lat="41.96176" lon="-8.0854233"><ele>787.25</ele><time>2026-04-18T11:22:34.785Z</time></trkpt><trkpt lat="41.9619083" lon="-8.085385"><ele>787.5</ele><time>2026-04-18T11:22:35.786Z</time></trkpt><trkpt lat="41.9620467" lon="-8.08534"><ele>787.75</ele><time>2026-04-18T11:22:36.785Z</time></trkpt><trkpt lat="41.96219" lon="-8.0852833"><ele>788.0</ele><time>2026-04-18T11:22:37.786Z</time></trkpt><trkpt lat="41.9623433" lon="-8.0852233"><ele>788.0</ele><time>2026-04-18T11:22:38.786Z</time></trkpt><trkpt lat="41.9624883" lon="-8.0851583"><ele>788.0</ele><time>2026-04-18T11:22:39.786Z</time></trkpt><trkpt lat="41.9626233" lon="-8.0851"><ele>788.0</ele><time>2026-04-18T11:22:40.786Z</time></trkpt><trkpt lat="41.9627467" lon="-8.0850517"><ele>788.0</ele><time>2026-04-18T11:22:41.786Z</time></trkpt><trkpt lat="41.9628517" lon="-8.0850167"><ele>790.5000000000001</ele><time>2026-04-18T11:22:42.786Z</time></trkpt><trkpt lat="41.96294" lon="-8.0850017"><ele>793.0</ele><time>2026-04-18T11:22:43.788Z</time></trkpt><trkpt lat="41.9630167" lon="-8.0850067"><ele>795.5</ele><time>2026-04-18T11:22:44.788Z</time></trkpt><trkpt lat="41.9630767" lon="-8.0850567"><ele>798.0</ele><time>2026-04-18T11:22:45.788Z</time></trkpt><trkpt lat="41.9631233" lon="-8.085155"><ele>800.5000000000001</ele><time>2026-04-18T11:22:46.785Z</time></trkpt><trkpt lat="41.96316" lon="-8.0852917"><ele>803.0</ele><time>2026-04-18T11:22:47.786Z</time></trkpt><trkpt lat="41.9631767" lon="-8.085455"><ele>803.0000000000001</ele><time>2026-04-18T11:22:48.786Z</time></trkpt><trkpt lat="41.9631833" lon="-8.0856167"><ele>803.0</ele><time>2026-04-18T11:22:49.786Z</time></trkpt><trkpt lat="41.9631833" lon="-8.0857467"><ele>803.0</ele><time>2026-04-18T11:22:50.786Z</time></trkpt><trkpt lat="41.96319" lon="-8.0858467"><ele>803.0</ele><time>2026-04-18T11:22:51.786Z</time></trkpt><trkpt lat="41.9632167" lon="-8.085925"><ele>803.0000000000001</ele><time>2026-04-18T11:22:52.786Z</time></trkpt><trkpt lat="41.9632517" lon="-8.0859983"><ele>803.0</ele><time>2026-04-18T11:22:53.787Z</time></trkpt><trkpt lat="41.9633233" lon="-8.0860367"><ele>802.25</ele><time>2026-04-18T11:22:54.789Z</time></trkpt><trkpt lat="41.9634333" lon="-8.0860617"><ele>801.5</ele><time>2026-04-18T11:22:55.787Z</time></trkpt><trkpt lat="41.9635917" lon="-8.0860383"><ele>800.75</ele><time>2026-04-18T11:22:56.788Z</time></trkpt><trkpt lat="41.9637167" lon="-8.0860417"><ele>800.0</ele><time>2026-04-18T11:22:57.787Z</time></trkpt><trkpt lat="41.9638483" lon="-8.08607"><ele>800.0</ele><time>2026-04-18T11:22:58.788Z</time></trkpt><trkpt lat="41.964" lon="-8.0861133"><ele>800.0</ele><time>2026-04-18T11:22:59.788Z</time></trkpt><trkpt lat="41.9641567" lon="-8.086175"><ele>800.0</ele><time>2026-04-18T11:23:00.788Z</time></trkpt><trkpt lat="41.9643017" lon="-8.0862333"><ele>802.0</ele><time>2026-04-18T11:23:01.786Z</time></trkpt><trkpt lat="41.9644367" lon="-8.0862917"><ele>804.0</ele><time>2026-04-18T11:23:02.788Z</time></trkpt><trkpt lat="41.96457" lon="-8.0863583"><ele>806.0</ele><time>2026-04-18T11:23:03.786Z</time></trkpt><trkpt lat="41.9647" lon="-8.0864167"><ele>808.0</ele><time>2026-04-18T11:23:04.786Z</time></trkpt><trkpt lat="41.9648167" lon="-8.0864567"><ele>808.0</ele><time>2026-04-18T11:23:05.785Z</time></trkpt><trkpt lat="41.9649233" lon="-8.0864783"><ele>808.0</ele><time>2026-04-18T11:23:06.787Z</time></trkpt><trkpt lat="41.9650367" lon="-8.0864767"><ele>808.0</ele><time>2026-04-18T11:23:07.788Z</time></trkpt><trkpt lat="41.96516" lon="-8.086465"><ele>808.0</ele><time>2026-04-18T11:23:08.788Z</time></trkpt><trkpt lat="41.9652933" lon="-8.0864567"><ele>808.25</ele><time>2026-04-18T11:23:09.786Z</time></trkpt><trkpt lat="41.9654167" lon="-8.0864483"><ele>808.5</ele><time>2026-04-18T11:23:10.786Z</time></trkpt><trkpt lat="41.965535" lon="-8.0864333"><ele>808.75</ele><time>2026-04-18T11:23:11.786Z</time></trkpt><trkpt lat="41.9656633" lon="-8.0864133"><ele>809.0</ele><time>2026-04-18T11:23:12.787Z</time></trkpt><trkpt lat="41.9657817" lon="-8.0863883"><ele>808.1666666666667</ele><time>2026-04-18T11:23:13.784Z</time></trkpt><trkpt lat="41.9658833" lon="-8.0863767"><ele>807.3333333333334</ele><time>2026-04-18T11:23:14.786Z</time></trkpt><trkpt lat="41.9659617" lon="-8.0863817"><ele>806.5</ele><time>2026-04-18T11:23:15.785Z</time></trkpt><trkpt lat="41.9660317" lon="-8.0864033"><ele>805.6666666666667</ele><time>2026-04-18T11:23:16.788Z</time></trkpt><trkpt lat="41.9660933" lon="-8.086435"><ele>804.8333333333334</ele><time>2026-04-18T11:23:17.786Z</time></trkpt><trkpt lat="41.9661617" lon="-8.0865017"><ele>804.0</ele><time>2026-04-18T11:23:18.786Z</time></trkpt><trkpt lat="41.9662333" lon="-8.0866033"><ele>804.0</ele><time>2026-04-18T11:23:19.787Z</time></trkpt><trkpt lat="41.9663167" lon="-8.0867267"><ele>804.0</ele><time>2026-04-18T11:23:20.784Z</time></trkpt><trkpt lat="41.9664067" lon="-8.086875"><ele>804.0</ele><time>2026-04-18T11:23:21.786Z</time></trkpt><trkpt lat="41.9664917" lon="-8.087015"><ele>804.0</ele><time>2026-04-18T11:23:22.786Z</time></trkpt><trkpt lat="41.9665717" lon="-8.0871367"><ele>804.0</ele><time>2026-04-18T11:23:23.786Z</time></trkpt><trkpt lat="41.9666517" lon="-8.08722"><ele>804.0</ele><time>2026-04-18T11:23:24.789Z</time></trkpt><trkpt lat="41.9667517" lon="-8.0873017"><ele>804.0</ele><time>2026-04-18T11:23:25.788Z</time></trkpt><trkpt lat="41.9668633" lon="-8.08739"><ele>804.0</ele><time>2026-04-18T11:23:26.788Z</time></trkpt><trkpt lat="41.96697" lon="-8.0874867"><ele>802.0</ele><time>2026-04-18T11:23:27.788Z</time></trkpt><trkpt lat="41.9670683" lon="-8.0875833"><ele>800.0</ele><time>2026-04-18T11:23:28.785Z</time></trkpt><trkpt lat="41.9671633" lon="-8.0876783"><ele>798.0</ele><time>2026-04-18T11:23:29.786Z</time></trkpt><trkpt lat="41.96726" lon="-8.0877767"><ele>796.0</ele><time>2026-04-18T11:23:30.788Z</time></trkpt><trkpt lat="41.9673517" lon="-8.08786"><ele>796.0</ele><time>2026-04-18T11:23:31.786Z</time></trkpt><trkpt lat="41.9674467" lon="-8.0879233"><ele>796.0</ele><time>2026-04-18T11:23:32.785Z</time></trkpt><trkpt lat="41.9675483" lon="-8.0879617"><ele>796.0</ele><time>2026-04-18T11:23:33.787Z</time></trkpt><trkpt lat="41.9676567" lon="-8.08799"><ele>796.0</ele><time>2026-04-18T11:23:34.787Z</time></trkpt><trkpt lat="41.96777" lon="-8.08801"><ele>796.0</ele><time>2026-04-18T11:23:35.786Z</time></trkpt><trkpt lat="41.967895" lon="-8.088025"><ele>798.5</ele><time>2026-04-18T11:23:36.787Z</time></trkpt><trkpt lat="41.9680233" lon="-8.0880267"><ele>801.0</ele><time>2026-04-18T11:23:37.786Z</time></trkpt><trkpt lat="41.96814" lon="-8.0880233"><ele>803.5</ele><time>2026-04-18T11:23:38.788Z</time></trkpt><trkpt lat="41.968245" lon="-8.0880183"><ele>806.0</ele><time>2026-04-18T11:23:39.789Z</time></trkpt><trkpt lat="41.9683533" lon="-8.0880233"><ele>809.75</ele><time>2026-04-18T11:23:40.786Z</time></trkpt><trkpt lat="41.9684717" lon="-8.0880467"><ele>813.5</ele><time>2026-04-18T11:23:41.786Z</time></trkpt><trkpt lat="41.968595" lon="-8.0880817"><ele>817.25</ele><time>2026-04-18T11:23:42.788Z</time></trkpt><trkpt lat="41.9687117" lon="-8.0881133"><ele>821.0</ele><time>2026-04-18T11:23:43.786Z</time></trkpt><trkpt lat="41.9688233" lon="-8.0881533"><ele>821.0000000000001</ele><time>2026-04-18T11:23:44.786Z</time></trkpt><trkpt lat="41.968925" lon="-8.0881867"><ele>821.0</ele><time>2026-04-18T11:23:45.788Z</time></trkpt><trkpt lat="41.9690133" lon="-8.08821"><ele>821.0</ele><time>2026-04-18T11:23:46.786Z</time></trkpt><trkpt lat="41.9690883" lon="-8.0882317"><ele>821.0</ele><time>2026-04-18T11:23:47.786Z</time></trkpt><trkpt lat="41.9691633" lon="-8.0882483"><ele>821.0000000000001</ele><time>2026-04-18T11:23:48.786Z</time></trkpt><trkpt lat="41.969245" lon="-8.0882617"><ele>821.0</ele><time>2026-04-18T11:23:49.786Z</time></trkpt><trkpt lat="41.9693333" lon="-8.0883017"><ele>815.4</ele><time>2026-04-18T11:23:50.786Z</time></trkpt><trkpt lat="41.9694283" lon="-8.0883717"><ele>809.8</ele><time>2026-04-18T11:23:51.786Z</time></trkpt><trkpt lat="41.9695267" lon="-8.0884383"><ele>804.1999999999999</ele><time>2026-04-18T11:23:52.786Z</time></trkpt><trkpt lat="41.9696317" lon="-8.0884933"><ele>798.5999999999999</ele><time>2026-04-18T11:23:53.788Z</time></trkpt><trkpt lat="41.9697317" lon="-8.0885233"><ele>793.0</ele><time>2026-04-18T11:23:54.784Z</time></trkpt><trkpt lat="41.9698383" lon="-8.088545"><ele>792.9999999999999</ele><time>2026-04-18T11:23:55.788Z</time></trkpt><trkpt lat="41.9699467" lon="-8.088565"><ele>793.0</ele><time>2026-04-18T11:23:56.788Z</time></trkpt><trkpt lat="41.9700483" lon="-8.0885717"><ele>793.0</ele><time>2026-04-18T11:23:57.786Z</time></trkpt><trkpt lat="41.9701367" lon="-8.08856"><ele>793.0</ele><time>2026-04-18T11:23:58.786Z</time></trkpt><trkpt lat="41.9702033" lon="-8.08853"><ele>792.9999999999999</ele><time>2026-04-18T11:23:59.788Z</time></trkpt><trkpt lat="41.9702617" lon="-8.0884717"><ele>793.0</ele><time>2026-04-18T11:24:00.786Z</time></trkpt><trkpt lat="41.97031" lon="-8.0883783"><ele>797.8</ele><time>2026-04-18T11:24:01.784Z</time></trkpt><trkpt lat="41.9703683" lon="-8.0882583"><ele>802.5999999999999</ele><time>2026-04-18T11:24:02.788Z</time></trkpt><trkpt lat="41.9704433" lon="-8.0881433"><ele>807.4000000000001</ele><time>2026-04-18T11:24:03.788Z</time></trkpt><trkpt lat="41.97051" lon="-8.088045"><ele>812.2</ele><time>2026-04-18T11:24:04.789Z</time></trkpt><trkpt lat="41.9705683" lon="-8.08797"><ele>817.0</ele><time>2026-04-18T11:24:05.786Z</time></trkpt><trkpt lat="41.9706133" lon="-8.0879017"><ele>816.9999999999999</ele><time>2026-04-18T11:24:06.787Z</time></trkpt><trkpt lat="41.9706767" lon="-8.087805"><ele>817.0</ele><time>2026-04-18T11:24:08.785Z</time></trkpt><trkpt lat="41.970745" lon="-8.087785"><ele>817.0</ele><time>2026-04-18T11:24:15.786Z</time></trkpt><trkpt lat="41.9708083" lon="-8.0879017"><ele>817.0</ele><time>2026-04-18T11:24:18.787Z</time></trkpt><trkpt lat="41.97083" lon="-8.0879983"><ele>816.9999999999999</ele><time>2026-04-18T11:24:19.786Z</time></trkpt><trkpt lat="41.9708483" lon="-8.0881067"><ele>817.0</ele><time>2026-04-18T11:24:20.785Z</time></trkpt><trkpt lat="41.97086" lon="-8.0882583"><ele>824.5</ele><time>2026-04-18T11:24:21.785Z</time></trkpt><trkpt lat="41.9708767" lon="-8.0884433"><ele>832.0</ele><time>2026-04-18T11:24:22.786Z</time></trkpt><trkpt lat="41.9708733" lon="-8.088605"><ele>839.5</ele><time>2026-04-18T11:24:23.786Z</time></trkpt><trkpt lat="41.97088" lon="-8.0887333"><ele>847.0</ele><time>2026-04-18T11:24:24.788Z</time></trkpt><trkpt lat="41.9708883" lon="-8.0888717"><ele>846.9999999999999</ele><time>2026-04-18T11:24:25.788Z</time></trkpt><trkpt lat="41.970895" lon="-8.0890083"><ele>847.0</ele><time>2026-04-18T11:24:26.787Z</time></trkpt><trkpt lat="41.9709067" lon="-8.089125"><ele>847.0</ele><time>2026-04-18T11:24:27.786Z</time></trkpt><trkpt lat="41.9709333" lon="-8.08922"><ele>847.0</ele><time>2026-04-18T11:24:28.786Z</time></trkpt><trkpt lat="41.9709683" lon="-8.0893"><ele>846.9999999999999</ele><time>2026-04-18T11:24:29.785Z</time></trkpt><trkpt lat="41.9710117" lon="-8.0893633"><ele>847.0</ele><time>2026-04-18T11:24:30.787Z</time></trkpt><trkpt lat="41.971115" lon="-8.089455"><ele>843.6666666666666</ele><time>2026-04-18T11:24:32.786Z</time></trkpt><trkpt lat="41.971175" lon="-8.0895167"><ele>840.3333333333333</ele><time>2026-04-18T11:24:33.786Z</time></trkpt><trkpt lat="41.9712317" lon="-8.089595"><ele>837.0</ele><time>2026-04-18T11:24:34.786Z</time></trkpt><trkpt lat="41.9712717" lon="-8.08968"><ele>833.6666666666667</ele><time>2026-04-18T11:24:35.787Z</time></trkpt><trkpt lat="41.971305" lon="-8.089755"><ele>830.3333333333334</ele><time>2026-04-18T11:24:36.787Z</time></trkpt><trkpt lat="41.971355" lon="-8.08986"><ele>827.0</ele><time>2026-04-18T11:24:38.786Z</time></trkpt><trkpt lat="41.9713917" lon="-8.08993"><ele>824.2</ele><time>2026-04-18T11:24:40.785Z</time></trkpt><trkpt lat="41.97143" lon="-8.090005"><ele>821.4000000000001</ele><time>2026-04-18T11:24:42.786Z</time></trkpt><trkpt lat="41.97146" lon="-8.0900833"><ele>818.5999999999999</ele><time>2026-04-18T11:24:45.788Z</time></trkpt><trkpt lat="41.9714233" lon="-8.0901733"><ele>815.8</ele><time>2026-04-18T11:24:49.785Z</time></trkpt><trkpt lat="41.9713483" lon="-8.0901783"><ele>813.0</ele><time>2026-04-18T11:24:51.783Z</time></trkpt><trkpt lat="41.9712" lon="-8.0900583"><ele>813.0</ele><time>2026-04-18T11:24:54.248Z</time></trkpt><trkpt lat="41.9711533" lon="-8.090175"><ele>813.0</ele><time>2026-04-18T11:24:55.286Z</time></trkpt><trkpt lat="41.971075" lon="-8.0901617"><ele>813.0</ele><time>2026-04-18T11:24:57.785Z</time></trkpt><trkpt lat="41.9709333" lon="-8.0901667"><ele>813.0</ele><time>2026-04-18T11:24:59.785Z</time></trkpt><trkpt lat="41.9708383" lon="-8.0901967"><ele>813.0</ele><time>2026-04-18T11:25:00.785Z</time></trkpt><trkpt lat="41.9707367" lon="-8.0902167"><ele>809.3333333333334</ele><time>2026-04-18T11:25:01.785Z</time></trkpt><trkpt lat="41.97065" lon="-8.0902483"><ele>805.6666666666667</ele><time>2026-04-18T11:25:02.786Z</time></trkpt><trkpt lat="41.970575" lon="-8.0902833"><ele>802.0</ele><time>2026-04-18T11:25:03.786Z</time></trkpt><trkpt lat="41.9705067" lon="-8.0903233"><ele>798.3333333333334</ele><time>2026-04-18T11:25:04.786Z</time></trkpt><trkpt lat="41.9704333" lon="-8.0903817"><ele>794.6666666666667</ele><time>2026-04-18T11:25:06.785Z</time></trkpt><trkpt lat="41.9703467" lon="-8.090415"><ele>791.0</ele><time>2026-04-18T11:25:10.785Z</time></trkpt><trkpt lat="41.9702283" lon="-8.090445"><ele>791.0</ele><time>2026-04-18T11:25:12.785Z</time></trkpt><trkpt lat="41.9701417" lon="-8.0904667"><ele>791.0</ele><time>2026-04-18T11:25:13.786Z</time></trkpt><trkpt lat="41.970055" lon="-8.0905"><ele>791.0</ele><time>2026-04-18T11:25:14.786Z</time></trkpt><trkpt lat="41.969975" lon="-8.0905367"><ele>791.0</ele><time>2026-04-18T11:25:15.787Z</time></trkpt><trkpt lat="41.9698817" lon="-8.09059"><ele>791.0</ele><time>2026-04-18T11:25:17.786Z</time></trkpt><trkpt lat="41.9697667" lon="-8.0906583"><ele>793.5000000000001</ele><time>2026-04-18T11:25:19.786Z</time></trkpt><trkpt lat="41.969675" lon="-8.09071"><ele>796.0</ele><time>2026-04-18T11:25:20.786Z</time></trkpt><trkpt lat="41.969585" lon="-8.0907533"><ele>798.5</ele><time>2026-04-18T11:25:21.786Z</time></trkpt><trkpt lat="41.9695033" lon="-8.090785"><ele>801.0</ele><time>2026-04-18T11:25:22.785Z</time></trkpt><trkpt lat="41.9694333" lon="-8.090815"><ele>803.5000000000001</ele><time>2026-04-18T11:25:23.786Z</time></trkpt><trkpt lat="41.9693717" lon="-8.0908583"><ele>806.0</ele><time>2026-04-18T11:25:24.788Z</time></trkpt><trkpt lat="41.9693083" lon="-8.0909233"><ele>806.0000000000001</ele><time>2026-04-18T11:25:25.787Z</time></trkpt><trkpt lat="41.969245" lon="-8.091005"><ele>806.0</ele><time>2026-04-18T11:25:26.787Z</time></trkpt><trkpt lat="41.9691783" lon="-8.0910933"><ele>806.0</ele><time>2026-04-18T11:25:27.788Z</time></trkpt><trkpt lat="41.9691117" lon="-8.0911717"><ele>806.0</ele><time>2026-04-18T11:25:28.785Z</time></trkpt><trkpt lat="41.9690483" lon="-8.091235"><ele>806.0000000000001</ele><time>2026-04-18T11:25:29.786Z</time></trkpt><trkpt lat="41.9689767" lon="-8.0912833"><ele>806.0</ele><time>2026-04-18T11:25:30.787Z</time></trkpt><trkpt lat="41.9688967" lon="-8.0913217"><ele>804.5000000000001</ele><time>2026-04-18T11:25:31.786Z</time></trkpt><trkpt lat="41.9688217" lon="-8.0913617"><ele>803.0</ele><time>2026-04-18T11:25:32.789Z</time></trkpt><trkpt lat="41.9687567" lon="-8.091415"><ele>801.5</ele><time>2026-04-18T11:25:33.786Z</time></trkpt><trkpt lat="41.9686917" lon="-8.0914867"><ele>800.0</ele><time>2026-04-18T11:25:34.786Z</time></trkpt><trkpt lat="41.9686317" lon="-8.091565"><ele>798.5000000000001</ele><time>2026-04-18T11:25:35.787Z</time></trkpt><trkpt lat="41.9685817" lon="-8.0916483"><ele>797.0</ele><time>2026-04-18T11:25:36.787Z</time></trkpt><trkpt lat="41.9685433" lon="-8.0917383"><ele>802.2</ele><time>2026-04-18T11:25:37.788Z</time></trkpt><trkpt lat="41.968525" lon="-8.091825"><ele>807.4000000000001</ele><time>2026-04-18T11:25:38.787Z</time></trkpt><trkpt lat="41.9685633" lon="-8.0919817"><ele>812.5999999999999</ele><time>2026-04-18T11:25:40.786Z</time></trkpt><trkpt lat="41.9686267" lon="-8.0920717"><ele>817.8</ele><time>2026-04-18T11:25:41.785Z</time></trkpt><trkpt lat="41.9686983" lon="-8.0921667"><ele>823.0</ele><time>2026-04-18T11:25:42.785Z</time></trkpt><trkpt lat="41.96876" lon="-8.0922617"><ele>822.9999999999999</ele><time>2026-04-18T11:25:43.785Z</time></trkpt><trkpt lat="41.96882" lon="-8.0923583"><ele>823.0</ele><time>2026-04-18T11:25:44.786Z</time></trkpt><trkpt lat="41.9688783" lon="-8.0924383"><ele>823.0</ele><time>2026-04-18T11:25:45.785Z</time></trkpt><trkpt lat="41.9689367" lon="-8.092495"><ele>823.0</ele><time>2026-04-18T11:25:46.785Z</time></trkpt><trkpt lat="41.9689917" lon="-8.09255"><ele>822.9999999999999</ele><time>2026-04-18T11:25:47.786Z</time></trkpt><trkpt lat="41.9690517" lon="-8.0925917"><ele>823.0</ele><time>2026-04-18T11:25:48.787Z</time></trkpt><trkpt lat="41.9691217" lon="-8.0926167"><ele>825.6666666666666</ele><time>2026-04-18T11:25:49.786Z</time></trkpt><trkpt lat="41.9692017" lon="-8.0926333"><ele>828.3333333333333</ele><time>2026-04-18T11:25:50.787Z</time></trkpt><trkpt lat="41.969285" lon="-8.09265"><ele>831.0</ele><time>2026-04-18T11:25:51.785Z</time></trkpt><trkpt lat="41.9693583" lon="-8.092685"><ele>833.6666666666667</ele><time>2026-04-18T11:25:52.786Z</time></trkpt><trkpt lat="41.9694367" lon="-8.0927217"><ele>836.3333333333334</ele><time>2026-04-18T11:25:53.786Z</time></trkpt><trkpt lat="41.9695217" lon="-8.0927567"><ele>839.0</ele><time>2026-04-18T11:25:54.787Z</time></trkpt><trkpt lat="41.9696067" lon="-8.09279"><ele>839.0000000000001</ele><time>2026-04-18T11:25:55.788Z</time></trkpt><trkpt lat="41.9696733" lon="-8.0928183"><ele>839.0</ele><time>2026-04-18T11:25:56.788Z</time></trkpt><trkpt lat="41.969775" lon="-8.0928833"><ele>839.0</ele><time>2026-04-18T11:25:58.788Z</time></trkpt><trkpt lat="41.9698383" lon="-8.092905"><ele>839.0</ele><time>2026-04-18T11:25:59.788Z</time></trkpt><trkpt lat="41.9699133" lon="-8.0929183"><ele>839.0000000000001</ele><time>2026-04-18T11:26:00.785Z</time></trkpt><trkpt lat="41.9699983" lon="-8.0929417"><ele>839.0</ele><time>2026-04-18T11:26:01.788Z</time></trkpt><trkpt lat="41.9700867" lon="-8.0929667"><ele>842.8000000000001</ele><time>2026-04-18T11:26:02.785Z</time></trkpt><trkpt lat="41.970175" lon="-8.0930033"><ele>846.6</ele><time>2026-04-18T11:26:03.786Z</time></trkpt><trkpt lat="41.9702433" lon="-8.093045"><ele>850.4</ele><time>2026-04-18T11:26:04.785Z</time></trkpt><trkpt lat="41.9703167" lon="-8.0931633"><ele>854.2</ele><time>2026-04-18T11:26:06.788Z</time></trkpt><trkpt lat="41.9703167" lon="-8.09326"><ele>858.0</ele><time>2026-04-18T11:26:07.788Z</time></trkpt><trkpt lat="41.970285" lon="-8.09339"><ele>859.75</ele><time>2026-04-18T11:26:08.789Z</time></trkpt><trkpt lat="41.9702517" lon="-8.0935283"><ele>861.5</ele><time>2026-04-18T11:26:09.787Z</time></trkpt><trkpt lat="41.970205" lon="-8.0936933"><ele>863.25</ele><time>2026-04-18T11:26:10.787Z</time></trkpt><trkpt lat="41.97018" lon="-8.0938617"><ele>865.0</ele><time>2026-04-18T11:26:11.786Z</time></trkpt><trkpt lat="41.9701617" lon="-8.09403"><ele>867.5</ele><time>2026-04-18T11:26:12.788Z</time></trkpt><trkpt lat="41.970135" lon="-8.09422"><ele>870.0</ele><time>2026-04-18T11:26:13.787Z</time></trkpt><trkpt lat="41.9701017" lon="-8.0944017"><ele>872.5</ele><time>2026-04-18T11:26:14.789Z</time></trkpt><trkpt lat="41.9700683" lon="-8.0945717"><ele>875.0</ele><time>2026-04-18T11:26:15.787Z</time></trkpt><trkpt lat="41.97004" lon="-8.09475"><ele>869.0</ele><time>2026-04-18T11:26:16.788Z</time></trkpt><trkpt lat="41.97002" lon="-8.09492"><ele>863.0</ele><time>2026-04-18T11:26:17.788Z</time></trkpt><trkpt lat="41.9700067" lon="-8.09508"><ele>857.0</ele><time>2026-04-18T11:26:18.788Z</time></trkpt><trkpt lat="41.9700017" lon="-8.095255"><ele>851.0</ele><time>2026-04-18T11:26:19.788Z</time></trkpt><trkpt lat="41.9699967" lon="-8.0954233"><ele>851.0</ele><time>2026-04-18T11:26:20.788Z</time></trkpt><trkpt lat="41.96999" lon="-8.09556"><ele>851.0</ele><time>2026-04-18T11:26:21.788Z</time></trkpt><trkpt lat="41.9699883" lon="-8.095685"><ele>851.0</ele><time>2026-04-18T11:26:22.788Z</time></trkpt><trkpt lat="41.9700017" lon="-8.0958117"><ele>851.0</ele><time>2026-04-18T11:26:23.788Z</time></trkpt><trkpt lat="41.9700283" lon="-8.0959483"><ele>851.0</ele><time>2026-04-18T11:26:24.788Z</time></trkpt><trkpt lat="41.9700567" lon="-8.0961"><ele>858.25</ele><time>2026-04-18T11:26:25.788Z</time></trkpt><trkpt lat="41.970085" lon="-8.096275"><ele>865.5</ele><time>2026-04-18T11:26:26.789Z</time></trkpt><trkpt lat="41.970115" lon="-8.0964483"><ele>872.75</ele><time>2026-04-18T11:26:27.787Z</time></trkpt><trkpt lat="41.9701433" lon="-8.0966217"><ele>880.0</ele><time>2026-04-18T11:26:28.787Z</time></trkpt><trkpt lat="41.970165" lon="-8.0967967"><ele>880.0</ele><time>2026-04-18T11:26:29.788Z</time></trkpt><trkpt lat="41.9701767" lon="-8.0969567"><ele>880.0</ele><time>2026-04-18T11:26:30.786Z</time></trkpt><trkpt lat="41.9701783" lon="-8.0971067"><ele>880.0</ele><time>2026-04-18T11:26:31.786Z</time></trkpt><trkpt lat="41.9701833" lon="-8.0972483"><ele>880.0</ele><time>2026-04-18T11:26:32.786Z</time></trkpt><trkpt lat="41.970185" lon="-8.0973683"><ele>880.0</ele><time>2026-04-18T11:26:33.786Z</time></trkpt><trkpt lat="41.970185" lon="-8.0974833"><ele>879.8</ele><time>2026-04-18T11:26:34.786Z</time></trkpt><trkpt lat="41.9701983" lon="-8.0975967"><ele>879.6</ele><time>2026-04-18T11:26:35.789Z</time></trkpt><trkpt lat="41.970225" lon="-8.09773"><ele>879.4000000000001</ele><time>2026-04-18T11:26:36.788Z</time></trkpt><trkpt lat="41.9702583" lon="-8.0978817"><ele>879.2</ele><time>2026-04-18T11:26:37.788Z</time></trkpt><trkpt lat="41.9702883" lon="-8.0980233"><ele>879.0</ele><time>2026-04-18T11:26:38.788Z</time></trkpt><trkpt lat="41.970325" lon="-8.0981633"><ele>877.25</ele><time>2026-04-18T11:26:39.788Z</time></trkpt><trkpt lat="41.97037" lon="-8.0983067"><ele>875.5</ele><time>2026-04-18T11:26:40.788Z</time></trkpt><trkpt lat="41.970425" lon="-8.0984483"><ele>873.75</ele><time>2026-04-18T11:26:41.788Z</time></trkpt><trkpt lat="41.9704867" lon="-8.098585"><ele>872.0</ele><time>2026-04-18T11:26:42.788Z</time></trkpt><trkpt lat="41.97055" lon="-8.0987317"><ele>872.0</ele><time>2026-04-18T11:26:43.788Z</time></trkpt><trkpt lat="41.970615" lon="-8.098865"><ele>872.0</ele><time>2026-04-18T11:26:44.788Z</time></trkpt><trkpt lat="41.9706717" lon="-8.098975"><ele>872.0</ele><time>2026-04-18T11:26:45.788Z</time></trkpt><trkpt lat="41.9707317" lon="-8.09907"><ele>872.0</ele><time>2026-04-18T11:26:46.788Z</time></trkpt><trkpt lat="41.9708" lon="-8.09916"><ele>872.0</ele><time>2026-04-18T11:26:47.788Z</time></trkpt><trkpt lat="41.9708667" lon="-8.099245"><ele>873.8</ele><time>2026-04-18T11:26:48.788Z</time></trkpt><trkpt lat="41.9709333" lon="-8.0993283"><ele>875.6</ele><time>2026-04-18T11:26:49.787Z</time></trkpt><trkpt lat="41.9710183" lon="-8.0994317"><ele>877.3999999999999</ele><time>2026-04-18T11:26:50.788Z</time></trkpt><trkpt lat="41.9711" lon="-8.09953"><ele>879.1999999999999</ele><time>2026-04-18T11:26:51.789Z</time></trkpt><trkpt lat="41.97118" lon="-8.099635"><ele>881.0</ele><time>2026-04-18T11:26:52.789Z</time></trkpt><trkpt lat="41.9712567" lon="-8.099765"><ele>881.0000000000001</ele><time>2026-04-18T11:26:53.789Z</time></trkpt><trkpt lat="41.9713333" lon="-8.0998817"><ele>881.0</ele><time>2026-04-18T11:26:54.788Z</time></trkpt><trkpt lat="41.9713983" lon="-8.0999783"><ele>881.0</ele><time>2026-04-18T11:26:55.788Z</time></trkpt><trkpt lat="41.9714483" lon="-8.100065"><ele>881.0</ele><time>2026-04-18T11:26:56.789Z</time></trkpt><trkpt lat="41.9714917" lon="-8.1001317"><ele>881.0000000000001</ele><time>2026-04-18T11:26:57.788Z</time></trkpt><trkpt lat="41.971555" lon="-8.1001833"><ele>881.0</ele><time>2026-04-18T11:26:59.788Z</time></trkpt><trkpt lat="41.9716383" lon="-8.10019"><ele>883.1428571428571</ele><time>2026-04-18T11:27:02.787Z</time></trkpt><trkpt lat="41.971695" lon="-8.100125"><ele>885.2857142857143</ele><time>2026-04-18T11:27:04.787Z</time></trkpt><trkpt lat="41.9717583" lon="-8.100085"><ele>887.4285714285714</ele><time>2026-04-18T11:27:07.786Z</time></trkpt><trkpt lat="41.971815" lon="-8.1001267"><ele>889.5714285714286</ele><time>2026-04-18T11:27:10.788Z</time></trkpt><trkpt lat="41.971835" lon="-8.100215"><ele>891.7142857142858</ele><time>2026-04-18T11:29:46.785Z</time></trkpt><trkpt lat="41.9718617" lon="-8.100315"><ele>893.8571428571429</ele><time>2026-04-18T11:29:48.786Z</time></trkpt><trkpt lat="41.9718633" lon="-8.100435"><ele>896.0</ele><time>2026-04-18T11:29:50.785Z</time></trkpt><trkpt lat="41.971855" lon="-8.1006017"><ele>896.0000000000001</ele><time>2026-04-18T11:29:52.784Z</time></trkpt><trkpt lat="41.97186" lon="-8.1007117"><ele>896.0</ele><time>2026-04-18T11:29:53.787Z</time></trkpt><trkpt lat="41.9718733" lon="-8.1008267"><ele>896.0</ele><time>2026-04-18T11:29:54.786Z</time></trkpt><trkpt lat="41.9718833" lon="-8.1009167"><ele>896.0</ele><time>2026-04-18T11:29:55.788Z</time></trkpt><trkpt lat="41.9719133" lon="-8.10104"><ele>896.0000000000001</ele><time>2026-04-18T11:29:57.785Z</time></trkpt><trkpt lat="41.9719433" lon="-8.1011233"><ele>896.0</ele><time>2026-04-18T11:29:59.787Z</time></trkpt><trkpt lat="41.9719767" lon="-8.1012383"><ele>894.3333333333334</ele><time>2026-04-18T11:30:01.783Z</time></trkpt><trkpt lat="41.9720467" lon="-8.101375"><ele>892.6666666666667</ele><time>2026-04-18T11:30:03.784Z</time></trkpt><trkpt lat="41.9721117" lon="-8.101445"><ele>891.0</ele><time>2026-04-18T11:30:05.787Z</time></trkpt><trkpt lat="41.9721783" lon="-8.10151"><ele>889.3333333333333</ele><time>2026-04-18T11:30:07.786Z</time></trkpt><trkpt lat="41.97223" lon="-8.1015617"><ele>887.6666666666666</ele><time>2026-04-18T11:30:09.785Z</time></trkpt><trkpt lat="41.972295" lon="-8.1016183"><ele>886.0</ele><time>2026-04-18T11:30:12.787Z</time></trkpt><trkpt lat="41.9723533" lon="-8.1016967"><ele>885.1666666666666</ele><time>2026-04-18T11:30:15.786Z</time></trkpt><trkpt lat="41.972415" lon="-8.10175"><ele>884.3333333333333</ele><time>2026-04-18T11:30:17.786Z</time></trkpt><trkpt lat="41.9724883" lon="-8.10182"><ele>883.5</ele><time>2026-04-18T11:30:19.787Z</time></trkpt><trkpt lat="41.972545" lon="-8.1018933"><ele>882.6666666666667</ele><time>2026-04-18T11:30:21.787Z</time></trkpt><trkpt lat="41.9725917" lon="-8.1019667"><ele>881.8333333333334</ele><time>2026-04-18T11:30:23.788Z</time></trkpt><trkpt lat="41.972645" lon="-8.10202"><ele>881.0</ele><time>2026-04-18T11:30:25.787Z</time></trkpt><trkpt lat="41.9727083" lon="-8.1020833"><ele>881.0000000000001</ele><time>2026-04-18T11:30:27.787Z</time></trkpt><trkpt lat="41.97277" lon="-8.1021383"><ele>881.0</ele><time>2026-04-18T11:30:29.784Z</time></trkpt><trkpt lat="41.9728267" lon="-8.1021967"><ele>881.0</ele><time>2026-04-18T11:30:31.784Z</time></trkpt><trkpt lat="41.9728817" lon="-8.102245"><ele>881.0</ele><time>2026-04-18T11:30:33.785Z</time></trkpt><trkpt lat="41.97294" lon="-8.1023033"><ele>881.0000000000001</ele><time>2026-04-18T11:30:35.785Z</time></trkpt><trkpt lat="41.9729983" lon="-8.1023767"><ele>881.0</ele><time>2026-04-18T11:30:38.785Z</time></trkpt><trkpt lat="41.9730767" lon="-8.1024583"><ele>876.5000000000001</ele><time>2026-04-18T11:30:41.786Z</time></trkpt><trkpt lat="41.9731483" lon="-8.102505"><ele>872.0</ele><time>2026-04-18T11:30:43.789Z</time></trkpt><trkpt lat="41.973205" lon="-8.1025433"><ele>867.5</ele><time>2026-04-18T11:30:45.786Z</time></trkpt><trkpt lat="41.9732783" lon="-8.1026"><ele>863.0</ele><time>2026-04-18T11:30:48.787Z</time></trkpt><trkpt lat="41.9733333" lon="-8.1026533"><ele>858.5000000000001</ele><time>2026-04-18T11:30:50.787Z</time></trkpt><trkpt lat="41.9734" lon="-8.10273"><ele>854.0</ele><time>2026-04-18T11:30:52.787Z</time></trkpt><trkpt lat="41.973455" lon="-8.1027867"><ele>854.0</ele><time>2026-04-18T11:30:54.787Z</time></trkpt><trkpt lat="41.9735367" lon="-8.1028167"><ele>854.0</ele><time>2026-04-18T11:30:57.789Z</time></trkpt><trkpt lat="41.973595" lon="-8.1028617"><ele>854.0</ele><time>2026-04-18T11:30:59.784Z</time></trkpt><trkpt lat="41.9736517" lon="-8.1029133"><ele>854.0</ele><time>2026-04-18T11:31:01.784Z</time></trkpt><trkpt lat="41.9737117" lon="-8.10297"><ele>854.0</ele><time>2026-04-18T11:31:03.785Z</time></trkpt><trkpt lat="41.9737783" lon="-8.1030233"><ele>854.0</ele><time>2026-04-18T11:31:05.786Z</time></trkpt><trkpt lat="41.9738367" lon="-8.10307"><ele>854.0</ele><time>2026-04-18T11:31:07.786Z</time></trkpt><trkpt lat="41.9738917" lon="-8.103115"><ele>854.0000000000001</ele><time>2026-04-18T11:31:09.786Z</time></trkpt><trkpt lat="41.9739767" lon="-8.103185"><ele>854.0</ele><time>2026-04-18T11:31:12.786Z</time></trkpt><trkpt lat="41.974025" lon="-8.103255"><ele>854.0</ele><time>2026-04-18T11:31:14.788Z</time></trkpt><trkpt lat="41.9740833" lon="-8.10332"><ele>854.0</ele><time>2026-04-18T11:31:17.786Z</time></trkpt><trkpt lat="41.9741517" lon="-8.103355"><ele>854.0000000000001</ele><time>2026-04-18T11:31:21.785Z</time></trkpt><trkpt lat="41.9742183" lon="-8.1033917"><ele>854.0</ele><time>2026-04-18T11:31:49.788Z</time></trkpt><trkpt lat="41.9742867" lon="-8.1034483"><ele>848.8333333333334</ele><time>2026-04-18T11:31:53.785Z</time></trkpt><trkpt lat="41.974365" lon="-8.1035167"><ele>843.6666666666667</ele><time>2026-04-18T11:31:56.788Z</time></trkpt><trkpt lat="41.974435" lon="-8.103555"><ele>838.5</ele><time>2026-04-18T11:31:59.787Z</time></trkpt><trkpt lat="41.974505" lon="-8.1035917"><ele>833.3333333333333</ele><time>2026-04-18T11:32:01.785Z</time></trkpt><trkpt lat="41.97458" lon="-8.1036167"><ele>828.1666666666666</ele><time>2026-04-18T11:32:04.785Z</time></trkpt><trkpt lat="41.974635" lon="-8.10367"><ele>823.0</ele><time>2026-04-18T11:32:46.786Z</time></trkpt><trkpt lat="41.9746867" lon="-8.103755"><ele>822.9999999999999</ele><time>2026-04-18T11:39:13.786Z</time></trkpt><trkpt lat="41.9746933" lon="-8.1039083"><ele>823.0</ele><time>2026-04-18T11:39:45.787Z</time></trkpt><trkpt lat="41.9746917" lon="-8.1040067"><ele>823.0</ele><time>2026-04-18T11:40:17.786Z</time></trkpt><trkpt lat="41.97461" lon="-8.10407"><ele>823.0</ele><time>2026-04-18T11:41:47.784Z</time></trkpt><trkpt lat="41.9745383" lon="-8.1041017"><ele>822.9999999999999</ele><time>2026-04-18T11:42:20.787Z</time></trkpt><trkpt lat="41.97448" lon="-8.104165"><ele>823.0</ele><time>2026-04-18T11:42:23.788Z</time></trkpt><trkpt lat="41.9744117" lon="-8.1041633"><ele>823.2857142857143</ele><time>2026-04-18T11:42:28.787Z</time></trkpt><trkpt lat="41.9743517" lon="-8.10419"><ele>823.5714285714287</ele><time>2026-04-18T11:42:55.786Z</time></trkpt><trkpt lat="41.974265" lon="-8.1041917"><ele>823.8571428571429</ele><time>2026-04-18T11:42:58.787Z</time></trkpt><trkpt lat="41.9742017" lon="-8.1041767"><ele>824.1428571428571</ele><time>2026-04-18T11:43:00.788Z</time></trkpt><trkpt lat="41.9741333" lon="-8.1041867"><ele>824.4285714285714</ele><time>2026-04-18T11:43:03.785Z</time></trkpt><trkpt lat="41.9740667" lon="-8.1041517"><ele>824.7142857142857</ele><time>2026-04-18T11:44:17.787Z</time></trkpt><trkpt lat="41.9739917" lon="-8.104155"><ele>825.0</ele><time>2026-04-18T11:44:47.787Z</time></trkpt><trkpt lat="41.97393" lon="-8.1041117"><ele>824.6666666666666</ele><time>2026-04-18T11:44:49.788Z</time></trkpt><trkpt lat="41.9738633" lon="-8.1040717"><ele>824.3333333333333</ele><time>2026-04-18T11:44:51.788Z</time></trkpt><trkpt lat="41.9737833" lon="-8.1040383"><ele>824.0</ele><time>2026-04-18T11:44:54.786Z</time></trkpt><trkpt lat="41.9737183" lon="-8.1040033"><ele>823.6666666666666</ele><time>2026-04-18T11:44:57.786Z</time></trkpt><trkpt lat="41.973605" lon="-8.1039683"><ele>823.3333333333333</ele><time>2026-04-18T11:52:09.787Z</time></trkpt><trkpt lat="41.97352" lon="-8.103935"><ele>823.0</ele><time>2026-04-18T11:52:48.785Z</time></trkpt><trkpt lat="41.9734567" lon="-8.1039333"><ele>822.9999999999999</ele><time>2026-04-18T11:52:51.786Z</time></trkpt><trkpt lat="41.9733667" lon="-8.10391"><ele>823.0</ele><time>2026-04-18T11:53:12.789Z</time></trkpt><trkpt lat="41.9732933" lon="-8.1039017"><ele>823.0</ele><time>2026-04-18T11:53:15.785Z</time></trkpt><trkpt lat="41.973215" lon="-8.103885"><ele>823.0</ele><time>2026-04-18T11:53:17.785Z</time></trkpt><trkpt lat="41.9731383" lon="-8.103875"><ele>822.9999999999999</ele><time>2026-04-18T11:53:19.784Z</time></trkpt><trkpt lat="41.9730533" lon="-8.1038633"><ele>823.0</ele><time>2026-04-18T11:53:21.784Z</time></trkpt><trkpt lat="41.9729767" lon="-8.1038533"><ele>821.5999999999999</ele><time>2026-04-18T11:53:23.785Z</time></trkpt><trkpt lat="41.9728367" lon="-8.10386"><ele>820.1999999999999</ele><time>2026-04-18T11:55:03.788Z</time></trkpt><trkpt lat="41.97277" lon="-8.1038733"><ele>818.8</ele><time>2026-04-18T11:55:05.787Z</time></trkpt><trkpt lat="41.9727" lon="-8.1038883"><ele>817.4</ele><time>2026-04-18T11:55:08.786Z</time></trkpt><trkpt lat="41.9726317" lon="-8.1039417"><ele>816.0</ele><time>2026-04-18T11:56:21.784Z</time></trkpt><trkpt lat="41.9725333" lon="-8.1039817"><ele>815.4285714285714</ele><time>2026-04-18T11:56:24.785Z</time></trkpt><trkpt lat="41.97247" lon="-8.1040167"><ele>814.8571428571429</ele><time>2026-04-18T11:56:26.79Z</time></trkpt><trkpt lat="41.9724083" lon="-8.10405"><ele>814.2857142857142</ele><time>2026-04-18T11:56:28.788Z</time></trkpt><trkpt lat="41.972345" lon="-8.10409"><ele>813.7142857142858</ele><time>2026-04-18T11:56:30.786Z</time></trkpt><trkpt lat="41.9722733" lon="-8.1041383"><ele>813.1428571428571</ele><time>2026-04-18T11:56:33.786Z</time></trkpt><trkpt lat="41.97222" lon="-8.104205"><ele>812.5714285714286</ele><time>2026-04-18T11:56:35.788Z</time></trkpt><trkpt lat="41.97217" lon="-8.1042783"><ele>812.0</ele><time>2026-04-18T11:56:37.786Z</time></trkpt><trkpt lat="41.9721433" lon="-8.104375"><ele>816.0000000000001</ele><time>2026-04-18T11:56:39.784Z</time></trkpt><trkpt lat="41.9721067" lon="-8.1044467"><ele>820.0</ele><time>2026-04-18T11:56:42.788Z</time></trkpt><trkpt lat="41.9720717" lon="-8.1045267"><ele>824.0</ele><time>2026-04-18T11:58:01.788Z</time></trkpt><trkpt lat="41.9720867" lon="-8.1046267"><ele>828.0</ele><time>2026-04-18T11:58:03.787Z</time></trkpt><trkpt lat="41.9721133" lon="-8.1047467"><ele>832.0000000000001</ele><time>2026-04-18T11:58:05.787Z</time></trkpt><trkpt lat="41.9721433" lon="-8.104875"><ele>836.0</ele><time>2026-04-18T11:58:07.788Z</time></trkpt><trkpt lat="41.9721417" lon="-8.1049783"><ele>839.0000000000001</ele><time>2026-04-18T11:58:09.786Z</time></trkpt><trkpt lat="41.9721017" lon="-8.1050617"><ele>842.0</ele><time>2026-04-18T11:58:11.787Z</time></trkpt><trkpt lat="41.9720283" lon="-8.105165"><ele>845.0</ele><time>2026-04-18T11:58:13.787Z</time></trkpt><trkpt lat="41.9719733" lon="-8.105255"><ele>848.0</ele><time>2026-04-18T11:58:15.788Z</time></trkpt><trkpt lat="41.9719267" lon="-8.105335"><ele>851.0000000000001</ele><time>2026-04-18T11:58:17.786Z</time></trkpt><trkpt lat="41.97191" lon="-8.1054317"><ele>854.0</ele><time>2026-04-18T11:58:19.788Z</time></trkpt><trkpt lat="41.9719183" lon="-8.1055567"><ele>854.0</ele><time>2026-04-18T11:58:21.785Z</time></trkpt><trkpt lat="41.9719193" lon="-8.1056639"><ele>854.0000000000001</ele><time>2026-04-18T11:58:23.786Z</time></trkpt><trkpt lat="41.9718873" lon="-8.105757"><ele>854.0000000000001</ele><time>2026-04-18T11:58:25.788Z</time></trkpt><trkpt lat="41.9718294" lon="-8.1058828"><ele>854.0</ele><time>2026-04-18T11:58:27.788Z</time></trkpt><trkpt lat="41.9717644" lon="-8.1060037"><ele>854.0</ele><time>2026-04-18T11:58:29.788Z</time></trkpt><trkpt lat="41.9716797" lon="-8.1060999"><ele>855.0000000000001</ele><time>2026-04-18T11:58:31.788Z</time></trkpt><trkpt lat="41.9715869" lon="-8.1061923"><ele>856.0</ele><time>2026-04-18T11:58:33.788Z</time></trkpt><trkpt lat="41.9714984" lon="-8.1062197"><ele>857.0</ele><time>2026-04-18T11:58:35.788Z</time></trkpt><trkpt lat="41.9714282" lon="-8.1061938"><ele>858.0</ele><time>2026-04-18T11:58:37.788Z</time></trkpt><trkpt lat="41.9713619" lon="-8.106157"><ele>859.0000000000001</ele><time>2026-04-18T11:58:39.787Z</time></trkpt><trkpt lat="41.9712862" lon="-8.1061327"><ele>860.0</ele><time>2026-04-18T11:58:41.787Z</time></trkpt><trkpt lat="41.9712042" lon="-8.1061052"><ele>860.0000000000001</ele><time>2026-04-18T11:58:43.787Z</time></trkpt><trkpt lat="41.9711183" lon="-8.1060999"><ele>860.0</ele><time>2026-04-18T11:58:45.788Z</time></trkpt><trkpt lat="41.971032" lon="-8.1061128"><ele>860.0</ele><time>2026-04-18T11:58:47.786Z</time></trkpt><trkpt lat="41.970943" lon="-8.1061314"><ele>860.0</ele><time>2026-04-18T11:58:49.786Z</time></trkpt><trkpt lat="41.9708548" lon="-8.1061545"><ele>860.0000000000001</ele><time>2026-04-18T11:58:51.786Z</time></trkpt><trkpt lat="41.9707776" lon="-8.106187"><ele>860.0</ele><time>2026-04-18T11:58:53.786Z</time></trkpt><trkpt lat="41.9707152" lon="-8.1062466"><ele>859.5000000000001</ele><time>2026-04-18T11:58:56.789Z</time></trkpt><trkpt lat="41.9706585" lon="-8.1062862"><ele>859.0</ele><time>2026-04-18T11:58:58.789Z</time></trkpt><trkpt lat="41.9706026" lon="-8.1063267"><ele>858.5</ele><time>2026-04-18T11:59:00.789Z</time></trkpt><trkpt lat="41.9705505" lon="-8.1063938"><ele>858.0</ele><time>2026-04-18T11:59:03.786Z</time></trkpt><trkpt lat="41.9704705" lon="-8.106479"><ele>857.5000000000001</ele><time>2026-04-18T11:59:06.785Z</time></trkpt><trkpt lat="41.9703988" lon="-8.1065455"><ele>857.0</ele><time>2026-04-18T11:59:08.785Z</time></trkpt><trkpt lat="41.9703355" lon="-8.106603"><ele>859.0</ele><time>2026-04-18T11:59:10.788Z</time></trkpt><trkpt lat="41.9702803" lon="-8.1066562"><ele>861.0</ele><time>2026-04-18T11:59:12.789Z</time></trkpt><trkpt lat="41.9701948" lon="-8.1066564"><ele>863.0</ele><time>2026-04-18T11:59:15.788Z</time></trkpt><trkpt lat="41.9701271" lon="-8.1066451"><ele>865.0</ele><time>2026-04-18T11:59:17.784Z</time></trkpt><trkpt lat="41.9700634" lon="-8.1066393"><ele>867.0</ele><time>2026-04-18T11:59:19.786Z</time></trkpt><trkpt lat="41.9699768" lon="-8.106618"><ele>869.0</ele><time>2026-04-18T11:59:22.787Z</time></trkpt><trkpt lat="41.969906" lon="-8.1066156"><ele>871.0</ele><time>2026-04-18T11:59:24.789Z</time></trkpt><trkpt lat="41.9698319" lon="-8.106606"><ele>871.0</ele><time>2026-04-18T11:59:26.79Z</time></trkpt><trkpt lat="41.9697482" lon="-8.1065843"><ele>871.0</ele><time>2026-04-18T11:59:28.788Z</time></trkpt><trkpt lat="41.9696921" lon="-8.1065317"><ele>871.0</ele><time>2026-04-18T11:59:30.788Z</time></trkpt><trkpt lat="41.9696454" lon="-8.1064723"><ele>871.0</ele><time>2026-04-18T11:59:32.788Z</time></trkpt><trkpt lat="41.9695837" lon="-8.1064524"><ele>871.0</ele><time>2026-04-18T11:59:34.788Z</time></trkpt><trkpt lat="41.9695106" lon="-8.1064299"><ele>871.0</ele><time>2026-04-18T11:59:36.787Z</time></trkpt><trkpt lat="41.9694511" lon="-8.1063996"><ele>871.0</ele><time>2026-04-18T11:59:38.787Z</time></trkpt><trkpt lat="41.9693936" lon="-8.1063433"><ele>868.4285714285714</ele><time>2026-04-18T11:59:40.786Z</time></trkpt><trkpt lat="41.9693384" lon="-8.1062988"><ele>865.8571428571429</ele><time>2026-04-18T11:59:42.788Z</time></trkpt><trkpt lat="41.9692798" lon="-8.1062447"><ele>863.2857142857142</ele><time>2026-04-18T11:59:44.786Z</time></trkpt><trkpt lat="41.9692176" lon="-8.1061925"><ele>860.7142857142858</ele><time>2026-04-18T11:59:46.786Z</time></trkpt><trkpt lat="41.9691627" lon="-8.1061347"><ele>858.1428571428572</ele><time>2026-04-18T11:59:48.786Z</time></trkpt><trkpt lat="41.9691059" lon="-8.1060574"><ele>855.5714285714286</ele><time>2026-04-18T11:59:50.787Z</time></trkpt><trkpt lat="41.96904" lon="-8.1059779"><ele>853.0</ele><time>2026-04-18T11:59:52.785Z</time></trkpt><trkpt lat="41.9689633" lon="-8.1059167"><ele>852.9999999999999</ele><time>2026-04-18T11:59:54.79Z</time></trkpt><trkpt lat="41.9688967" lon="-8.105885"><ele>853.0</ele><time>2026-04-18T11:59:57.788Z</time></trkpt><trkpt lat="41.9689883" lon="-8.10594"><ele>853.0</ele><time>2026-04-18T12:01:01.787Z</time></trkpt><trkpt lat="41.9690733" lon="-8.1060267"><ele>853.0</ele><time>2026-04-18T12:01:03.786Z</time></trkpt><trkpt lat="41.9691233" lon="-8.1061083"><ele>852.9999999999999</ele><time>2026-04-18T12:01:05.787Z</time></trkpt><trkpt lat="41.9691633" lon="-8.106175"><ele>853.0</ele><time>2026-04-18T12:01:07.787Z</time></trkpt><trkpt lat="41.9692383" lon="-8.106225"><ele>852.9999999999999</ele><time>2026-04-18T12:01:10.786Z</time></trkpt><trkpt lat="41.9692717" lon="-8.1063117"><ele>853.0</ele><time>2026-04-18T12:01:14.787Z</time></trkpt><trkpt lat="41.9692067" lon="-8.1064117"><ele>853.0</ele><time>2026-04-18T12:01:17.784Z</time></trkpt><trkpt lat="41.9691433" lon="-8.10649"><ele>853.0</ele><time>2026-04-18T12:01:19.784Z</time></trkpt><trkpt lat="41.9690667" lon="-8.1065983"><ele>852.9999999999999</ele><time>2026-04-18T12:01:21.786Z</time></trkpt><trkpt lat="41.9690217" lon="-8.1066783"><ele>853.0</ele><time>2026-04-18T12:01:22.787Z</time></trkpt><trkpt lat="41.9689767" lon="-8.1067667"><ele>854.3333333333333</ele><time>2026-04-18T12:01:23.784Z</time></trkpt><trkpt lat="41.9689283" lon="-8.1068633"><ele>855.6666666666666</ele><time>2026-04-18T12:01:24.786Z</time></trkpt><trkpt lat="41.9688783" lon="-8.1069733"><ele>857.0</ele><time>2026-04-18T12:01:25.787Z</time></trkpt><trkpt lat="41.96884" lon="-8.1070933"><ele>858.3333333333333</ele><time>2026-04-18T12:01:26.788Z</time></trkpt><trkpt lat="41.9688033" lon="-8.1072017"><ele>859.6666666666666</ele><time>2026-04-18T12:01:27.788Z</time></trkpt><trkpt lat="41.9687783" lon="-8.1072983"><ele>861.0</ele><time>2026-04-18T12:01:28.787Z</time></trkpt><trkpt lat="41.9687567" lon="-8.1073817"><ele>863.0</ele><time>2026-04-18T12:01:29.788Z</time></trkpt><trkpt lat="41.9687433" lon="-8.107465"><ele>864.9999999999999</ele><time>2026-04-18T12:01:30.788Z</time></trkpt><trkpt lat="41.9687167" lon="-8.107615"><ele>866.9999999999999</ele><time>2026-04-18T12:01:32.788Z</time></trkpt><trkpt lat="41.96869" lon="-8.10775"><ele>869.0</ele><time>2026-04-18T12:01:34.786Z</time></trkpt><trkpt lat="41.96865" lon="-8.107865"><ele>871.0</ele><time>2026-04-18T12:01:36.785Z</time></trkpt><trkpt lat="41.96859" lon="-8.1079383"><ele>870.9999999999999</ele><time>2026-04-18T12:01:38.785Z</time></trkpt><trkpt lat="41.9685167" lon="-8.10797"><ele>871.0</ele><time>2026-04-18T12:01:40.786Z</time></trkpt><trkpt lat="41.9684383" lon="-8.1079617"><ele>871.0</ele><time>2026-04-18T12:01:42.785Z</time></trkpt><trkpt lat="41.9683567" lon="-8.1079183"><ele>871.0</ele><time>2026-04-18T12:01:44.787Z</time></trkpt><trkpt lat="41.9682917" lon="-8.1078633"><ele>870.9999999999999</ele><time>2026-04-18T12:01:46.787Z</time></trkpt><trkpt lat="41.968225" lon="-8.1077983"><ele>871.0</ele><time>2026-04-18T12:01:48.787Z</time></trkpt><trkpt lat="41.9681567" lon="-8.1077433"><ele>866.5999999999999</ele><time>2026-04-18T12:01:50.785Z</time></trkpt><trkpt lat="41.968065" lon="-8.1076817"><ele>862.1999999999999</ele><time>2026-04-18T12:01:52.786Z</time></trkpt><trkpt lat="41.9679683" lon="-8.10764"><ele>857.8</ele><time>2026-04-18T12:01:54.788Z</time></trkpt><trkpt lat="41.9678633" lon="-8.1075983"><ele>853.4000000000001</ele><time>2026-04-18T12:01:56.788Z</time></trkpt><trkpt lat="41.96776" lon="-8.1075517"><ele>849.0</ele><time>2026-04-18T12:01:58.785Z</time></trkpt><trkpt lat="41.96764" lon="-8.1075067"><ele>849.0000000000001</ele><time>2026-04-18T12:02:00.785Z</time></trkpt><trkpt lat="41.9675767" lon="-8.1074967"><ele>849.0</ele><time>2026-04-18T12:02:01.785Z</time></trkpt><trkpt lat="41.9675133" lon="-8.1074983"><ele>849.0</ele><time>2026-04-18T12:02:02.787Z</time></trkpt><trkpt lat="41.9674467" lon="-8.1075117"><ele>849.0</ele><time>2026-04-18T12:02:03.785Z</time></trkpt><trkpt lat="41.967375" lon="-8.1075283"><ele>849.0</ele><time>2026-04-18T12:02:04.786Z</time></trkpt><trkpt lat="41.9673" lon="-8.1075567"><ele>849.0000000000001</ele><time>2026-04-18T12:02:05.786Z</time></trkpt><trkpt lat="41.9672283" lon="-8.1075983"><ele>849.0</ele><time>2026-04-18T12:02:06.787Z</time></trkpt><trkpt lat="41.96716" lon="-8.1076383"><ele>848.6666666666666</ele><time>2026-04-18T12:02:07.786Z</time></trkpt><trkpt lat="41.9671033" lon="-8.1076817"><ele>848.3333333333333</ele><time>2026-04-18T12:02:08.787Z</time></trkpt><trkpt lat="41.9669917" lon="-8.107705"><ele>848.0</ele><time>2026-04-18T12:02:10.786Z</time></trkpt><trkpt lat="41.9669283" lon="-8.1076717"><ele>847.6666666666666</ele><time>2026-04-18T12:02:11.786Z</time></trkpt><trkpt lat="41.9668667" lon="-8.1076"><ele>847.3333333333333</ele><time>2026-04-18T12:02:12.787Z</time></trkpt><trkpt lat="41.9668033" lon="-8.1074983"><ele>847.0</ele><time>2026-04-18T12:02:13.786Z</time></trkpt><trkpt lat="41.9667533" lon="-8.107395"><ele>845.9999999999999</ele><time>2026-04-18T12:02:14.787Z</time></trkpt><trkpt lat="41.9666983" lon="-8.1073117"><ele>845.0</ele><time>2026-04-18T12:02:15.789Z</time></trkpt><trkpt lat="41.9666467" lon="-8.10723"><ele>844.0</ele><time>2026-04-18T12:02:16.787Z</time></trkpt><trkpt lat="41.9665917" lon="-8.1071517"><ele>843.0</ele><time>2026-04-18T12:02:17.786Z</time></trkpt><trkpt lat="41.9665333" lon="-8.1070717"><ele>841.9999999999999</ele><time>2026-04-18T12:02:18.785Z</time></trkpt><trkpt lat="41.9664717" lon="-8.1070033"><ele>841.0</ele><time>2026-04-18T12:02:19.786Z</time></trkpt><trkpt lat="41.96641" lon="-8.1069433"><ele>840.9999999999999</ele><time>2026-04-18T12:02:20.785Z</time></trkpt><trkpt lat="41.9663417" lon="-8.1068867"><ele>841.0</ele><time>2026-04-18T12:02:21.787Z</time></trkpt><trkpt lat="41.9662717" lon="-8.106835"><ele>841.0</ele><time>2026-04-18T12:02:22.787Z</time></trkpt><trkpt lat="41.9662" lon="-8.1067817"><ele>841.0</ele><time>2026-04-18T12:02:23.788Z</time></trkpt><trkpt lat="41.9661267" lon="-8.1067317"><ele>840.9999999999999</ele><time>2026-04-18T12:02:24.788Z</time></trkpt><trkpt lat="41.966055" lon="-8.1066783"><ele>841.0</ele><time>2026-04-18T12:02:25.788Z</time></trkpt><trkpt lat="41.9659917" lon="-8.106625"><ele>841.1666666666666</ele><time>2026-04-18T12:02:26.79Z</time></trkpt><trkpt lat="41.965925" lon="-8.1065683"><ele>841.3333333333333</ele><time>2026-04-18T12:02:27.788Z</time></trkpt><trkpt lat="41.965855" lon="-8.10651"><ele>841.5</ele><time>2026-04-18T12:02:28.786Z</time></trkpt><trkpt lat="41.965785" lon="-8.1064517"><ele>841.6666666666667</ele><time>2026-04-18T12:02:29.786Z</time></trkpt><trkpt lat="41.9657183" lon="-8.1063917"><ele>841.8333333333334</ele><time>2026-04-18T12:02:30.786Z</time></trkpt><trkpt lat="41.96565" lon="-8.106325"><ele>842.0</ele><time>2026-04-18T12:02:31.786Z</time></trkpt><trkpt lat="41.9655983" lon="-8.1062617"><ele>842.0</ele><time>2026-04-18T12:02:32.786Z</time></trkpt><trkpt lat="41.9655617" lon="-8.1061683"><ele>842.0</ele><time>2026-04-18T12:02:33.786Z</time></trkpt><trkpt lat="41.965535" lon="-8.106045"><ele>842.0</ele><time>2026-04-18T12:02:34.786Z</time></trkpt><trkpt lat="41.9655167" lon="-8.1059267"><ele>842.0</ele><time>2026-04-18T12:02:35.786Z</time></trkpt><trkpt lat="41.9654917" lon="-8.1058017"><ele>842.0</ele><time>2026-04-18T12:02:36.786Z</time></trkpt><trkpt lat="41.9654767" lon="-8.1056717"><ele>839.0</ele><time>2026-04-18T12:02:37.786Z</time></trkpt><trkpt lat="41.965455" lon="-8.1055417"><ele>836.0</ele><time>2026-04-18T12:02:38.786Z</time></trkpt><trkpt lat="41.9654283" lon="-8.10541"><ele>833.0</ele><time>2026-04-18T12:02:39.786Z</time></trkpt><trkpt lat="41.9653833" lon="-8.105285"><ele>830.0</ele><time>2026-04-18T12:02:40.785Z</time></trkpt><trkpt lat="41.9653317" lon="-8.1051617"><ele>827.0</ele><time>2026-04-18T12:02:41.787Z</time></trkpt><trkpt lat="41.96527" lon="-8.105045"><ele>827.0</ele><time>2026-04-18T12:02:42.788Z</time></trkpt><trkpt lat="41.9652067" lon="-8.10493"><ele>827.0</ele><time>2026-04-18T12:02:43.788Z</time></trkpt><trkpt lat="41.9651467" lon="-8.1048217"><ele>827.0</ele><time>2026-04-18T12:02:44.787Z</time></trkpt><trkpt lat="41.9650883" lon="-8.1047183"><ele>827.0</ele><time>2026-04-18T12:02:45.788Z</time></trkpt><trkpt lat="41.9650167" lon="-8.1046383"><ele>827.0</ele><time>2026-04-18T12:02:46.786Z</time></trkpt><trkpt lat="41.9649433" lon="-8.1045833"><ele>828.5000000000001</ele><time>2026-04-18T12:02:47.786Z</time></trkpt><trkpt lat="41.9648617" lon="-8.1045417"><ele>830.0</ele><time>2026-04-18T12:02:48.79Z</time></trkpt><trkpt lat="41.9647733" lon="-8.1045117"><ele>831.5</ele><time>2026-04-18T12:02:49.788Z</time></trkpt><trkpt lat="41.9646867" lon="-8.1044817"><ele>833.0</ele><time>2026-04-18T12:02:50.79Z</time></trkpt><trkpt lat="41.9646117" lon="-8.104445"><ele>834.5000000000001</ele><time>2026-04-18T12:02:51.788Z</time></trkpt><trkpt lat="41.9645483" lon="-8.1043933"><ele>836.0</ele><time>2026-04-18T12:02:52.786Z</time></trkpt><trkpt lat="41.9645" lon="-8.1043183"><ele>836.0</ele><time>2026-04-18T12:02:53.789Z</time></trkpt><trkpt lat="41.9644883" lon="-8.1042083"><ele>836.0</ele><time>2026-04-18T12:02:54.786Z</time></trkpt><trkpt lat="41.9645117" lon="-8.1040883"><ele>836.0</ele><time>2026-04-18T12:02:55.787Z</time></trkpt><trkpt lat="41.96453" lon="-8.1039633"><ele>836.0</ele><time>2026-04-18T12:02:56.786Z</time></trkpt><trkpt lat="41.9646017" lon="-8.103825"><ele>836.0</ele><time>2026-04-18T12:02:57.79Z</time></trkpt><trkpt lat="41.9646367" lon="-8.1036983"><ele>834.1999999999999</ele><time>2026-04-18T12:02:58.785Z</time></trkpt><trkpt lat="41.964665" lon="-8.103565"><ele>832.4</ele><time>2026-04-18T12:02:59.786Z</time></trkpt><trkpt lat="41.9646933" lon="-8.1034233"><ele>830.6</ele><time>2026-04-18T12:03:00.787Z</time></trkpt><trkpt lat="41.9647133" lon="-8.1032817"><ele>828.8</ele><time>2026-04-18T12:03:01.786Z</time></trkpt><trkpt lat="41.9647333" lon="-8.1031433"><ele>827.0</ele><time>2026-04-18T12:03:02.787Z</time></trkpt><trkpt lat="41.9647417" lon="-8.1030067"><ele>826.6</ele><time>2026-04-18T12:03:03.786Z</time></trkpt><trkpt lat="41.9647517" lon="-8.1028683"><ele>826.2</ele><time>2026-04-18T12:03:04.787Z</time></trkpt><trkpt lat="41.9647567" lon="-8.1027333"><ele>825.8</ele><time>2026-04-18T12:03:05.788Z</time></trkpt><trkpt lat="41.9647567" lon="-8.1025967"><ele>825.4</ele><time>2026-04-18T12:03:06.788Z</time></trkpt><trkpt lat="41.9647417" lon="-8.10246"><ele>825.0</ele><time>2026-04-18T12:03:07.788Z</time></trkpt><trkpt lat="41.964715" lon="-8.1023333"><ele>823.6</ele><time>2026-04-18T12:03:08.789Z</time></trkpt><trkpt lat="41.9646817" lon="-8.10221"><ele>822.2</ele><time>2026-04-18T12:03:09.788Z</time></trkpt><trkpt lat="41.964645" lon="-8.10209"><ele>820.8</ele><time>2026-04-18T12:03:10.788Z</time></trkpt><trkpt lat="41.964605" lon="-8.101975"><ele>819.4</ele><time>2026-04-18T12:03:11.788Z</time></trkpt><trkpt lat="41.9645617" lon="-8.1018583"><ele>818.0</ele><time>2026-04-18T12:03:12.788Z</time></trkpt><trkpt lat="41.9645217" lon="-8.10174"><ele>818.0</ele><time>2026-04-18T12:03:13.788Z</time></trkpt><trkpt lat="41.9644783" lon="-8.10162"><ele>818.0</ele><time>2026-04-18T12:03:14.79Z</time></trkpt><trkpt lat="41.964435" lon="-8.1015"><ele>818.0</ele><time>2026-04-18T12:03:15.788Z</time></trkpt><trkpt lat="41.9643917" lon="-8.1013833"><ele>818.0</ele><time>2026-04-18T12:03:16.788Z</time></trkpt><trkpt lat="41.9643433" lon="-8.10127"><ele>818.0</ele><time>2026-04-18T12:03:17.787Z</time></trkpt><trkpt lat="41.9642933" lon="-8.10116"><ele>819.4</ele><time>2026-04-18T12:03:18.785Z</time></trkpt><trkpt lat="41.96424" lon="-8.1010533"><ele>820.8</ele><time>2026-04-18T12:03:19.787Z</time></trkpt><trkpt lat="41.9641867" lon="-8.100945"><ele>822.2</ele><time>2026-04-18T12:03:20.785Z</time></trkpt><trkpt lat="41.9641333" lon="-8.1008367"><ele>823.6</ele><time>2026-04-18T12:03:21.786Z</time></trkpt><trkpt lat="41.9640767" lon="-8.1007267"><ele>825.0</ele><time>2026-04-18T12:03:22.786Z</time></trkpt><trkpt lat="41.9640167" lon="-8.1006167"><ele>825.0</ele><time>2026-04-18T12:03:23.787Z</time></trkpt><trkpt lat="41.9639567" lon="-8.1005067"><ele>825.0</ele><time>2026-04-18T12:03:24.787Z</time></trkpt><trkpt lat="41.963895" lon="-8.100395"><ele>825.0</ele><time>2026-04-18T12:03:25.787Z</time></trkpt><trkpt lat="41.96383" lon="-8.1002817"><ele>825.0</ele><time>2026-04-18T12:03:26.787Z</time></trkpt><trkpt lat="41.963765" lon="-8.1001767"><ele>825.0</ele><time>2026-04-18T12:03:27.786Z</time></trkpt><trkpt lat="41.9636917" lon="-8.1000967"><ele>825.0</ele><time>2026-04-18T12:03:28.786Z</time></trkpt><trkpt lat="41.963605" lon="-8.1000467"><ele>825.0</ele><time>2026-04-18T12:03:29.788Z</time></trkpt><trkpt lat="41.963505" lon="-8.100025"><ele>825.0</ele><time>2026-04-18T12:03:30.785Z</time></trkpt><trkpt lat="41.9634067" lon="-8.1000217"><ele>825.0</ele><time>2026-04-18T12:03:31.788Z</time></trkpt><trkpt lat="41.9633217" lon="-8.1000283"><ele>825.0</ele><time>2026-04-18T12:03:32.79Z</time></trkpt><trkpt lat="41.963235" lon="-8.1000367"><ele>825.1666666666666</ele><time>2026-04-18T12:03:33.787Z</time></trkpt><trkpt lat="41.9631483" lon="-8.100035"><ele>825.3333333333333</ele><time>2026-04-18T12:03:34.787Z</time></trkpt><trkpt lat="41.9630683" lon="-8.1000183"><ele>825.5</ele><time>2026-04-18T12:03:35.787Z</time></trkpt><trkpt lat="41.9629817" lon="-8.099975"><ele>825.6666666666666</ele><time>2026-04-18T12:03:36.788Z</time></trkpt><trkpt lat="41.9629117" lon="-8.099915"><ele>825.8333333333333</ele><time>2026-04-18T12:03:37.786Z</time></trkpt><trkpt lat="41.9628533" lon="-8.099835"><ele>826.0</ele><time>2026-04-18T12:03:38.787Z</time></trkpt><trkpt lat="41.9627933" lon="-8.0997383"><ele>826.0</ele><time>2026-04-18T12:03:39.788Z</time></trkpt><trkpt lat="41.9627367" lon="-8.0996233"><ele>826.0</ele><time>2026-04-18T12:03:40.788Z</time></trkpt><trkpt lat="41.96268" lon="-8.0995033"><ele>826.0</ele><time>2026-04-18T12:03:41.787Z</time></trkpt><trkpt lat="41.96262" lon="-8.0993833"><ele>826.0</ele><time>2026-04-18T12:03:42.787Z</time></trkpt><trkpt lat="41.9625717" lon="-8.0992517"><ele>826.0</ele><time>2026-04-18T12:03:43.789Z</time></trkpt><trkpt lat="41.96255" lon="-8.0991"><ele>826.4</ele><time>2026-04-18T12:03:44.789Z</time></trkpt><trkpt lat="41.9625367" lon="-8.0989467"><ele>826.8</ele><time>2026-04-18T12:03:45.787Z</time></trkpt><trkpt lat="41.9625267" lon="-8.0987983"><ele>827.1999999999999</ele><time>2026-04-18T12:03:46.788Z</time></trkpt><trkpt lat="41.9625217" lon="-8.098655"><ele>827.5999999999999</ele><time>2026-04-18T12:03:47.788Z</time></trkpt><trkpt lat="41.9625167" lon="-8.098515"><ele>828.0</ele><time>2026-04-18T12:03:48.783Z</time></trkpt><trkpt lat="41.96251" lon="-8.098375"><ele>829.0</ele><time>2026-04-18T12:03:49.786Z</time></trkpt><trkpt lat="41.962505" lon="-8.0982383"><ele>830.0</ele><time>2026-04-18T12:03:50.787Z</time></trkpt><trkpt lat="41.9624967" lon="-8.0981117"><ele>831.0</ele><time>2026-04-18T12:03:51.784Z</time></trkpt><trkpt lat="41.96248" lon="-8.0979983"><ele>832.0</ele><time>2026-04-18T12:03:52.786Z</time></trkpt><trkpt lat="41.9624533" lon="-8.0978933"><ele>833.0</ele><time>2026-04-18T12:03:53.787Z</time></trkpt><trkpt lat="41.9624083" lon="-8.0977983"><ele>834.0</ele><time>2026-04-18T12:03:54.787Z</time></trkpt><trkpt lat="41.9623433" lon="-8.0977183"><ele>834.0</ele><time>2026-04-18T12:03:55.787Z</time></trkpt><trkpt lat="41.9622583" lon="-8.0976567"><ele>834.0</ele><time>2026-04-18T12:03:56.787Z</time></trkpt><trkpt lat="41.9621617" lon="-8.097615"><ele>834.0</ele><time>2026-04-18T12:03:57.786Z</time></trkpt><trkpt lat="41.9620567" lon="-8.0975867"><ele>834.0</ele><time>2026-04-18T12:03:58.786Z</time></trkpt><trkpt lat="41.9619583" lon="-8.0975533"><ele>834.0</ele><time>2026-04-18T12:03:59.787Z</time></trkpt><trkpt lat="41.9618583" lon="-8.0975233"><ele>834.0</ele><time>2026-04-18T12:04:00.787Z</time></trkpt><trkpt lat="41.9617533" lon="-8.0975033"><ele>834.0</ele><time>2026-04-18T12:04:01.785Z</time></trkpt><trkpt lat="41.961645" lon="-8.09749"><ele>834.0</ele><time>2026-04-18T12:04:02.786Z</time></trkpt><trkpt lat="41.9615317" lon="-8.0974917"><ele>834.0</ele><time>2026-04-18T12:04:03.786Z</time></trkpt><trkpt lat="41.96142" lon="-8.097495"><ele>834.0</ele><time>2026-04-18T12:04:04.784Z</time></trkpt><trkpt lat="41.9613067" lon="-8.0975"><ele>833.5</ele><time>2026-04-18T12:04:05.787Z</time></trkpt><trkpt lat="41.9611883" lon="-8.097505"><ele>833.0</ele><time>2026-04-18T12:04:06.791Z</time></trkpt><trkpt lat="41.96107" lon="-8.09751"><ele>832.5</ele><time>2026-04-18T12:04:07.788Z</time></trkpt><trkpt lat="41.9609517" lon="-8.097515"><ele>832.0</ele><time>2026-04-18T12:04:08.791Z</time></trkpt><trkpt lat="41.96083" lon="-8.0975233"><ele>832.0</ele><time>2026-04-18T12:04:09.788Z</time></trkpt><trkpt lat="41.9607067" lon="-8.0975317"><ele>832.0</ele><time>2026-04-18T12:04:10.788Z</time></trkpt><trkpt lat="41.960585" lon="-8.0975383"><ele>832.0</ele><time>2026-04-18T12:04:11.786Z</time></trkpt><trkpt lat="41.960465" lon="-8.097545"><ele>832.0</ele><time>2026-04-18T12:04:12.786Z</time></trkpt><trkpt lat="41.9603433" lon="-8.0975467"><ele>832.0</ele><time>2026-04-18T12:04:13.788Z</time></trkpt><trkpt lat="41.9602267" lon="-8.0975333"><ele>832.0</ele><time>2026-04-18T12:04:14.791Z</time></trkpt><trkpt lat="41.960105" lon="-8.0975017"><ele>832.0</ele><time>2026-04-18T12:04:15.788Z</time></trkpt><trkpt lat="41.95998" lon="-8.0974667"><ele>832.0</ele><time>2026-04-18T12:04:16.788Z</time></trkpt><trkpt lat="41.9598517" lon="-8.0974333"><ele>828.25</ele><time>2026-04-18T12:04:17.787Z</time></trkpt><trkpt lat="41.9597267" lon="-8.0974"><ele>824.5</ele><time>2026-04-18T12:04:18.787Z</time></trkpt><trkpt lat="41.9596033" lon="-8.097365"><ele>820.75</ele><time>2026-04-18T12:04:19.787Z</time></trkpt><trkpt lat="41.9594783" lon="-8.0973317"><ele>817.0</ele><time>2026-04-18T12:04:20.787Z</time></trkpt><trkpt lat="41.9593583" lon="-8.0972983"><ele>817.0</ele><time>2026-04-18T12:04:21.786Z</time></trkpt><trkpt lat="41.9592417" lon="-8.09727"><ele>817.0</ele><time>2026-04-18T12:04:22.787Z</time></trkpt><trkpt lat="41.959125" lon="-8.0972433"><ele>817.0</ele><time>2026-04-18T12:04:23.786Z</time></trkpt><trkpt lat="41.9590083" lon="-8.0972333"><ele>817.0</ele><time>2026-04-18T12:04:24.786Z</time></trkpt><trkpt lat="41.9588933" lon="-8.0972467"><ele>818.5</ele><time>2026-04-18T12:04:25.785Z</time></trkpt><trkpt lat="41.9587783" lon="-8.097285"><ele>820.0</ele><time>2026-04-18T12:04:26.785Z</time></trkpt><trkpt lat="41.9586633" lon="-8.0973367"><ele>821.5</ele><time>2026-04-18T12:04:27.786Z</time></trkpt><trkpt lat="41.9585483" lon="-8.097395"><ele>823.0</ele><time>2026-04-18T12:04:28.786Z</time></trkpt><trkpt lat="41.9584333" lon="-8.0974667"><ele>825.25</ele><time>2026-04-18T12:04:29.789Z</time></trkpt><trkpt lat="41.958315" lon="-8.097535"><ele>827.5</ele><time>2026-04-18T12:04:30.787Z</time></trkpt><trkpt lat="41.9581917" lon="-8.0976"><ele>829.75</ele><time>2026-04-18T12:04:31.788Z</time></trkpt><trkpt lat="41.9580717" lon="-8.09767"><ele>832.0</ele><time>2026-04-18T12:04:32.787Z</time></trkpt><trkpt lat="41.9579517" lon="-8.097735"><ele>832.0</ele><time>2026-04-18T12:04:33.788Z</time></trkpt><trkpt lat="41.9578333" lon="-8.0978017"><ele>832.0</ele><time>2026-04-18T12:04:34.789Z</time></trkpt><trkpt lat="41.9577183" lon="-8.0978667"><ele>832.0</ele><time>2026-04-18T12:04:35.788Z</time></trkpt><trkpt lat="41.9576083" lon="-8.0979217"><ele>832.0</ele><time>2026-04-18T12:04:36.788Z</time></trkpt><trkpt lat="41.957495" lon="-8.0979617"><ele>828.5</ele><time>2026-04-18T12:04:37.788Z</time></trkpt><trkpt lat="41.9573717" lon="-8.0979683"><ele>825.0</ele><time>2026-04-18T12:04:38.791Z</time></trkpt><trkpt lat="41.9572483" lon="-8.0979483"><ele>821.5</ele><time>2026-04-18T12:04:39.788Z</time></trkpt><trkpt lat="41.9571267" lon="-8.097925"><ele>818.0</ele><time>2026-04-18T12:04:40.788Z</time></trkpt><trkpt lat="41.9570033" lon="-8.0979233"><ele>818.0</ele><time>2026-04-18T12:04:41.788Z</time></trkpt><trkpt lat="41.9568767" lon="-8.0979467"><ele>818.0</ele><time>2026-04-18T12:04:42.788Z</time></trkpt><trkpt lat="41.9567517" lon="-8.0979833"><ele>818.0</ele><time>2026-04-18T12:04:43.787Z</time></trkpt><trkpt lat="41.9566283" lon="-8.0980217"><ele>818.0</ele><time>2026-04-18T12:04:44.789Z</time></trkpt><trkpt lat="41.956505" lon="-8.0980633"><ele>816.25</ele><time>2026-04-18T12:04:45.785Z</time></trkpt><trkpt lat="41.95638" lon="-8.098105"><ele>814.5</ele><time>2026-04-18T12:04:46.788Z</time></trkpt><trkpt lat="41.9562567" lon="-8.0981417"><ele>812.75</ele><time>2026-04-18T12:04:47.787Z</time></trkpt><trkpt lat="41.956135" lon="-8.09816"><ele>811.0</ele><time>2026-04-18T12:04:48.787Z</time></trkpt><trkpt lat="41.9560167" lon="-8.0981483"><ele>811.0</ele><time>2026-04-18T12:04:49.787Z</time></trkpt><trkpt lat="41.9559017" lon="-8.0981067"><ele>811.0</ele><time>2026-04-18T12:04:50.788Z</time></trkpt><trkpt lat="41.9557867" lon="-8.0980533"><ele>811.0</ele><time>2026-04-18T12:04:51.787Z</time></trkpt><trkpt lat="41.9556767" lon="-8.097985"><ele>811.0</ele><time>2026-04-18T12:04:52.786Z</time></trkpt><trkpt lat="41.9555683" lon="-8.09791"><ele>812.0</ele><time>2026-04-18T12:04:53.788Z</time></trkpt><trkpt lat="41.9554567" lon="-8.0978467"><ele>813.0</ele><time>2026-04-18T12:04:54.787Z</time></trkpt><trkpt lat="41.9553433" lon="-8.0977833"><ele>814.0</ele><time>2026-04-18T12:04:55.787Z</time></trkpt><trkpt lat="41.9552283" lon="-8.0977233"><ele>815.0</ele><time>2026-04-18T12:04:56.786Z</time></trkpt><trkpt lat="41.955115" lon="-8.0976633"><ele>816.0</ele><time>2026-04-18T12:04:57.786Z</time></trkpt><trkpt lat="41.9549967" lon="-8.0976133"><ele>817.0</ele><time>2026-04-18T12:04:58.786Z</time></trkpt><trkpt lat="41.9548767" lon="-8.0975767"><ele>818.0</ele><time>2026-04-18T12:04:59.787Z</time></trkpt><trkpt lat="41.9547517" lon="-8.0975517"><ele>819.0</ele><time>2026-04-18T12:05:00.788Z</time></trkpt><trkpt lat="41.95463" lon="-8.09754"><ele>819.0</ele><time>2026-04-18T12:05:01.789Z</time></trkpt><trkpt lat="41.9545133" lon="-8.097535"><ele>819.0</ele><time>2026-04-18T12:05:02.789Z</time></trkpt><trkpt lat="41.9544017" lon="-8.09753"><ele>819.0</ele><time>2026-04-18T12:05:03.788Z</time></trkpt><trkpt lat="41.9542917" lon="-8.09754"><ele>819.0</ele><time>2026-04-18T12:05:04.788Z</time></trkpt><trkpt lat="41.954175" lon="-8.09756"><ele>817.0</ele><time>2026-04-18T12:05:05.79Z</time></trkpt><trkpt lat="41.95406" lon="-8.0975967"><ele>815.0</ele><time>2026-04-18T12:05:06.789Z</time></trkpt><trkpt lat="41.95395" lon="-8.09765"><ele>813.0</ele><time>2026-04-18T12:05:07.788Z</time></trkpt><trkpt lat="41.9538433" lon="-8.0977117"><ele>811.0</ele><time>2026-04-18T12:05:08.788Z</time></trkpt><trkpt lat="41.953745" lon="-8.09778"><ele>810.9999999999999</ele><time>2026-04-18T12:05:09.789Z</time></trkpt><trkpt lat="41.9536633" lon="-8.097865"><ele>811.0</ele><time>2026-04-18T12:05:10.788Z</time></trkpt><trkpt lat="41.9536" lon="-8.097965"><ele>811.0</ele><time>2026-04-18T12:05:11.787Z</time></trkpt><trkpt lat="41.9535617" lon="-8.0980733"><ele>811.0</ele><time>2026-04-18T12:05:12.788Z</time></trkpt><trkpt lat="41.9535417" lon="-8.0981767"><ele>810.9999999999999</ele><time>2026-04-18T12:05:13.789Z</time></trkpt><trkpt lat="41.9535333" lon="-8.0982733"><ele>811.0</ele><time>2026-04-18T12:05:14.789Z</time></trkpt><trkpt lat="41.9535267" lon="-8.0983667"><ele>812.6666666666666</ele><time>2026-04-18T12:05:15.787Z</time></trkpt><trkpt lat="41.9535167" lon="-8.098455"><ele>814.3333333333333</ele><time>2026-04-18T12:05:16.788Z</time></trkpt><trkpt lat="41.9534967" lon="-8.0985433"><ele>816.0</ele><time>2026-04-18T12:05:17.787Z</time></trkpt><trkpt lat="41.953485" lon="-8.0986267"><ele>817.6666666666667</ele><time>2026-04-18T12:05:18.787Z</time></trkpt><trkpt lat="41.9534733" lon="-8.098785"><ele>819.3333333333334</ele><time>2026-04-18T12:05:20.786Z</time></trkpt><trkpt lat="41.9534683" lon="-8.09887"><ele>821.0</ele><time>2026-04-18T12:05:21.786Z</time></trkpt><trkpt lat="41.95347" lon="-8.0990317"><ele>821.5000000000001</ele><time>2026-04-18T12:05:23.787Z</time></trkpt><trkpt lat="41.9534633" lon="-8.0991283"><ele>822.0</ele><time>2026-04-18T12:05:24.791Z</time></trkpt><trkpt lat="41.9534533" lon="-8.0992367"><ele>822.5</ele><time>2026-04-18T12:05:25.789Z</time></trkpt><trkpt lat="41.9534517" lon="-8.0993567"><ele>823.0</ele><time>2026-04-18T12:05:26.79Z</time></trkpt><trkpt lat="41.9534583" lon="-8.0994867"><ele>823.5000000000001</ele><time>2026-04-18T12:05:27.787Z</time></trkpt><trkpt lat="41.9534617" lon="-8.0996217"><ele>824.0</ele><time>2026-04-18T12:05:28.786Z</time></trkpt><trkpt lat="41.953445" lon="-8.0997483"><ele>824.0</ele><time>2026-04-18T12:05:29.789Z</time></trkpt><trkpt lat="41.9534033" lon="-8.099865"><ele>824.0</ele><time>2026-04-18T12:05:30.788Z</time></trkpt><trkpt lat="41.9533417" lon="-8.0999567"><ele>824.0</ele><time>2026-04-18T12:05:31.787Z</time></trkpt><trkpt lat="41.953265" lon="-8.1000333"><ele>824.0</ele><time>2026-04-18T12:05:32.787Z</time></trkpt><trkpt lat="41.9531783" lon="-8.1001167"><ele>824.0</ele><time>2026-04-18T12:05:33.789Z</time></trkpt><trkpt lat="41.9530983" lon="-8.10021"><ele>819.8000000000001</ele><time>2026-04-18T12:05:34.788Z</time></trkpt><trkpt lat="41.9530267" lon="-8.100315"><ele>815.6</ele><time>2026-04-18T12:05:35.788Z</time></trkpt><trkpt lat="41.95295" lon="-8.10042"><ele>811.4</ele><time>2026-04-18T12:05:36.788Z</time></trkpt><trkpt lat="41.9528717" lon="-8.1005217"><ele>807.2</ele><time>2026-04-18T12:05:37.788Z</time></trkpt><trkpt lat="41.9527933" lon="-8.1006167"><ele>803.0</ele><time>2026-04-18T12:05:38.791Z</time></trkpt><trkpt lat="41.952715" lon="-8.1006933"><ele>801.0</ele><time>2026-04-18T12:05:39.787Z</time></trkpt><trkpt lat="41.9526283" lon="-8.1007667"><ele>799.0</ele><time>2026-04-18T12:05:40.786Z</time></trkpt><trkpt lat="41.9525333" lon="-8.10084"><ele>797.0</ele><time>2026-04-18T12:05:41.787Z</time></trkpt><trkpt lat="41.952435" lon="-8.100915"><ele>795.0</ele><time>2026-04-18T12:05:42.787Z</time></trkpt><trkpt lat="41.95234" lon="-8.10099"><ele>793.0</ele><time>2026-04-18T12:05:43.787Z</time></trkpt><trkpt lat="41.9522483" lon="-8.101065"><ele>793.0</ele><time>2026-04-18T12:05:44.787Z</time></trkpt><trkpt lat="41.95216" lon="-8.10113"><ele>793.0</ele><time>2026-04-18T12:05:45.787Z</time></trkpt><trkpt lat="41.95207" lon="-8.1011833"><ele>793.0</ele><time>2026-04-18T12:05:46.788Z</time></trkpt><trkpt lat="41.95198" lon="-8.1012217"><ele>793.0</ele><time>2026-04-18T12:05:47.786Z</time></trkpt><trkpt lat="41.9518967" lon="-8.101235"><ele>793.0</ele><time>2026-04-18T12:05:48.786Z</time></trkpt><trkpt lat="41.9518167" lon="-8.1012267"><ele>793.0000000000001</ele><time>2026-04-18T12:05:49.786Z</time></trkpt><trkpt lat="41.9517417" lon="-8.101205"><ele>793.0</ele><time>2026-04-18T12:05:50.786Z</time></trkpt><trkpt lat="41.95167" lon="-8.1011717"><ele>793.0</ele><time>2026-04-18T12:05:51.785Z</time></trkpt><trkpt lat="41.9515983" lon="-8.101135"><ele>793.0</ele><time>2026-04-18T12:05:52.786Z</time></trkpt><trkpt lat="41.95153" lon="-8.1010933"><ele>793.0</ele><time>2026-04-18T12:05:53.784Z</time></trkpt><trkpt lat="41.9514617" lon="-8.1010517"><ele>793.0000000000001</ele><time>2026-04-18T12:05:54.79Z</time></trkpt><trkpt lat="41.9513967" lon="-8.1010167"><ele>793.0</ele><time>2026-04-18T12:05:55.787Z</time></trkpt><trkpt lat="41.9513" lon="-8.1009683"><ele>790.5999999999999</ele><time>2026-04-18T12:05:57.786Z</time></trkpt><trkpt lat="41.9513933" lon="-8.10092"><ele>788.1999999999999</ele><time>2026-04-18T12:06:04.786Z</time></trkpt><trkpt lat="41.951485" lon="-8.1009033"><ele>785.8</ele><time>2026-04-18T12:06:06.787Z</time></trkpt><trkpt lat="41.9515583" lon="-8.100825"><ele>783.4</ele><time>2026-04-18T12:06:08.79Z</time></trkpt><trkpt lat="41.9515983" lon="-8.1007067"><ele>781.0</ele><time>2026-04-18T12:06:10.786Z</time></trkpt><trkpt lat="41.9516583" lon="-8.1006267"><ele>778.9999999999999</ele><time>2026-04-18T12:06:12.786Z</time></trkpt><trkpt lat="41.95169" lon="-8.10052"><ele>777.0</ele><time>2026-04-18T12:06:14.787Z</time></trkpt><trkpt lat="41.9516683" lon="-8.1004083"><ele>775.0</ele><time>2026-04-18T12:06:16.786Z</time></trkpt><trkpt lat="41.9516033" lon="-8.1003183"><ele>773.0</ele><time>2026-04-18T12:06:18.786Z</time></trkpt><trkpt lat="41.9515617" lon="-8.1002367"><ele>770.9999999999999</ele><time>2026-04-18T12:06:20.787Z</time></trkpt><trkpt lat="41.9515583" lon="-8.1001483"><ele>769.0</ele><time>2026-04-18T12:06:23.788Z</time></trkpt><trkpt lat="41.9515617" lon="-8.10003"><ele>768.9999999999999</ele><time>2026-04-18T12:06:26.787Z</time></trkpt><trkpt lat="41.951525" lon="-8.0999533"><ele>769.0</ele><time>2026-04-18T12:06:28.787Z</time></trkpt><trkpt lat="41.9515067" lon="-8.09987"><ele>769.0</ele><time>2026-04-18T12:06:30.788Z</time></trkpt><trkpt lat="41.9515233" lon="-8.099745"><ele>769.0</ele><time>2026-04-18T12:06:33.785Z</time></trkpt><trkpt lat="41.9515183" lon="-8.0996433"><ele>768.9999999999999</ele><time>2026-04-18T12:06:35.788Z</time></trkpt><trkpt lat="41.9515133" lon="-8.0995367"><ele>769.0</ele><time>2026-04-18T12:06:37.787Z</time></trkpt><trkpt lat="41.951515" lon="-8.0994133"><ele>768.9999999999999</ele><time>2026-04-18T12:06:39.788Z</time></trkpt><trkpt lat="41.9515" lon="-8.0993133"><ele>769.0</ele><time>2026-04-18T12:06:41.788Z</time></trkpt><trkpt lat="41.95143" lon="-8.0992883"><ele>769.0</ele><time>2026-04-18T12:06:45.787Z</time></trkpt><trkpt lat="41.9513383" lon="-8.0992733"><ele>769.0</ele><time>2026-04-18T12:06:48.787Z</time></trkpt><trkpt lat="41.9512583" lon="-8.09923"><ele>768.9999999999999</ele><time>2026-04-18T12:06:50.788Z</time></trkpt><trkpt lat="41.9511817" lon="-8.0991867"><ele>769.0</ele><time>2026-04-18T12:06:52.786Z</time></trkpt><trkpt lat="41.9511" lon="-8.0991183"><ele>768.4999999999999</ele><time>2026-04-18T12:06:54.787Z</time></trkpt><trkpt lat="41.9510483" lon="-8.0990667"><ele>768.0</ele><time>2026-04-18T12:06:55.787Z</time></trkpt><trkpt lat="41.950975" lon="-8.0989433"><ele>767.5</ele><time>2026-04-18T12:06:57.788Z</time></trkpt><trkpt lat="41.9509317" lon="-8.098875"><ele>767.0</ele><time>2026-04-18T12:06:58.783Z</time></trkpt><trkpt lat="41.9508917" lon="-8.098805"><ele>766.5</ele><time>2026-04-18T12:06:59.788Z</time></trkpt><trkpt lat="41.95085" lon="-8.0987283"><ele>766.0</ele><time>2026-04-18T12:07:00.788Z</time></trkpt><trkpt lat="41.9508117" lon="-8.098655"><ele>766.0</ele><time>2026-04-18T12:07:01.788Z</time></trkpt><trkpt lat="41.950735" lon="-8.09854"><ele>766.0</ele><time>2026-04-18T12:07:03.788Z</time></trkpt><trkpt lat="41.95064" lon="-8.098485"><ele>766.0</ele><time>2026-04-18T12:07:05.788Z</time></trkpt><trkpt lat="41.950575" lon="-8.0984833"><ele>766.0</ele><time>2026-04-18T12:07:06.789Z</time></trkpt><trkpt lat="41.9505117" lon="-8.0984983"><ele>766.0</ele><time>2026-04-18T12:07:07.786Z</time></trkpt><trkpt lat="41.9504467" lon="-8.09852"><ele>766.0</ele><time>2026-04-18T12:07:08.789Z</time></trkpt><trkpt lat="41.9503817" lon="-8.0985383"><ele>766.0</ele><time>2026-04-18T12:07:09.787Z</time></trkpt><trkpt lat="41.95031" lon="-8.0985333"><ele>766.0</ele><time>2026-04-18T12:07:10.787Z</time></trkpt><trkpt lat="41.9502383" lon="-8.0985083"><ele>766.0</ele><time>2026-04-18T12:07:11.789Z</time></trkpt><trkpt lat="41.95017" lon="-8.0984733"><ele>766.0</ele><time>2026-04-18T12:07:12.788Z</time></trkpt><trkpt lat="41.9501033" lon="-8.0984333"><ele>766.0</ele><time>2026-04-18T12:07:13.787Z</time></trkpt><trkpt lat="41.9500383" lon="-8.0983767"><ele>766.0</ele><time>2026-04-18T12:07:14.789Z</time></trkpt><trkpt lat="41.949975" lon="-8.09832"><ele>766.0</ele><time>2026-04-18T12:07:15.787Z</time></trkpt><trkpt lat="41.9499167" lon="-8.09828"><ele>759.75</ele><time>2026-04-18T12:07:16.787Z</time></trkpt><trkpt lat="41.949815" lon="-8.0981883"><ele>753.5</ele><time>2026-04-18T12:07:18.788Z</time></trkpt><trkpt lat="41.9497233" lon="-8.0980833"><ele>747.25</ele><time>2026-04-18T12:07:20.788Z</time></trkpt><trkpt lat="41.9496317" lon="-8.0979667"><ele>741.0</ele><time>2026-04-18T12:07:22.788Z</time></trkpt><trkpt lat="41.9495617" lon="-8.09783"><ele>741.0</ele><time>2026-04-18T12:07:24.788Z</time></trkpt><trkpt lat="41.9495167" lon="-8.097725"><ele>741.0</ele><time>2026-04-18T12:07:26.789Z</time></trkpt><trkpt lat="41.9495167" lon="-8.097615"><ele>741.0</ele><time>2026-04-18T12:07:28.787Z</time></trkpt><trkpt lat="41.9495283" lon="-8.0974867"><ele>741.0</ele><time>2026-04-18T12:07:30.787Z</time></trkpt><trkpt lat="41.9495517" lon="-8.0973633"><ele>741.0</ele><time>2026-04-18T12:07:32.787Z</time></trkpt><trkpt lat="41.9495583" lon="-8.0972333"><ele>738.7142857142857</ele><time>2026-04-18T12:07:34.788Z</time></trkpt><trkpt lat="41.9495867" lon="-8.097095"><ele>736.4285714285714</ele><time>2026-04-18T12:07:36.787Z</time></trkpt><trkpt lat="41.949625" lon="-8.0970183"><ele>734.1428571428571</ele><time>2026-04-18T12:07:38.79Z</time></trkpt><trkpt lat="41.9496733" lon="-8.09696"><ele>731.8571428571429</ele><time>2026-04-18T12:07:40.788Z</time></trkpt><trkpt lat="41.9496567" lon="-8.0968733"><ele>729.5714285714287</ele><time>2026-04-18T12:07:48.788Z</time></trkpt><trkpt lat="41.9495933" lon="-8.096905"><ele>727.2857142857143</ele><time>2026-04-18T12:07:52.785Z</time></trkpt><trkpt lat="41.9495383" lon="-8.0969683"><ele>725.0</ele><time>2026-04-18T12:07:55.785Z</time></trkpt><trkpt lat="41.9494933" lon="-8.097035"><ele>725.0</ele><time>2026-04-18T12:07:57.787Z</time></trkpt><trkpt lat="41.9494117" lon="-8.0970883"><ele>725.0</ele><time>2026-04-18T12:07:59.786Z</time></trkpt><trkpt lat="41.9493183" lon="-8.097135"><ele>725.0</ele><time>2026-04-18T12:08:01.784Z</time></trkpt><trkpt lat="41.949225" lon="-8.097195"><ele>725.0</ele><time>2026-04-18T12:08:03.786Z</time></trkpt><trkpt lat="41.9491417" lon="-8.0972767"><ele>725.0</ele><time>2026-04-18T12:08:05.786Z</time></trkpt><trkpt lat="41.94907" lon="-8.0973633"><ele>722.3333333333333</ele><time>2026-04-18T12:08:07.786Z</time></trkpt><trkpt lat="41.9489867" lon="-8.097485"><ele>719.6666666666666</ele><time>2026-04-18T12:08:09.788Z</time></trkpt><trkpt lat="41.9489317" lon="-8.0975517"><ele>717.0</ele><time>2026-04-18T12:08:10.785Z</time></trkpt><trkpt lat="41.9488717" lon="-8.0976233"><ele>714.3333333333334</ele><time>2026-04-18T12:08:11.788Z</time></trkpt><trkpt lat="41.9488217" lon="-8.0976917"><ele>711.6666666666667</ele><time>2026-04-18T12:08:12.786Z</time></trkpt><trkpt lat="41.948775" lon="-8.0977633"><ele>709.0</ele><time>2026-04-18T12:08:13.788Z</time></trkpt><trkpt lat="41.9487317" lon="-8.0978267"><ele>709.0</ele><time>2026-04-18T12:08:14.787Z</time></trkpt><trkpt lat="41.948645" lon="-8.0979417"><ele>709.0</ele><time>2026-04-18T12:08:16.786Z</time></trkpt><trkpt lat="41.948565" lon="-8.098035"><ele>709.0</ele><time>2026-04-18T12:08:18.791Z</time></trkpt><trkpt lat="41.9484783" lon="-8.0981033"><ele>709.0</ele><time>2026-04-18T12:08:20.789Z</time></trkpt><trkpt lat="41.94842" lon="-8.0981467"><ele>709.0</ele><time>2026-04-18T12:08:21.788Z</time></trkpt><trkpt lat="41.948365" lon="-8.0982017"><ele>704.6666666666667</ele><time>2026-04-18T12:08:22.786Z</time></trkpt><trkpt lat="41.9483033" lon="-8.0982633"><ele>700.3333333333334</ele><time>2026-04-18T12:08:23.788Z</time></trkpt><trkpt lat="41.9482417" lon="-8.09832"><ele>696.0</ele><time>2026-04-18T12:08:24.787Z</time></trkpt><trkpt lat="41.94819" lon="-8.09837"><ele>691.6666666666666</ele><time>2026-04-18T12:08:25.788Z</time></trkpt><trkpt lat="41.948115" lon="-8.0984417"><ele>687.3333333333333</ele><time>2026-04-18T12:08:27.788Z</time></trkpt><trkpt lat="41.9480683" lon="-8.098515"><ele>683.0</ele><time>2026-04-18T12:08:29.787Z</time></trkpt><trkpt lat="41.9480283" lon="-8.0986083"><ele>683.0</ele><time>2026-04-18T12:08:31.788Z</time></trkpt><trkpt lat="41.94801" lon="-8.0987283"><ele>683.0</ele><time>2026-04-18T12:08:33.787Z</time></trkpt><trkpt lat="41.9479717" lon="-8.0987967"><ele>683.0</ele><time>2026-04-18T12:08:35.788Z</time></trkpt><trkpt lat="41.9478933" lon="-8.098765"><ele>683.0</ele><time>2026-04-18T12:08:38.787Z</time></trkpt><trkpt lat="41.947845" lon="-8.098705"><ele>683.0</ele><time>2026-04-18T12:08:40.787Z</time></trkpt><trkpt lat="41.94778" lon="-8.0986333"><ele>683.0</ele><time>2026-04-18T12:08:42.786Z</time></trkpt><trkpt lat="41.9477483" lon="-8.0985283"><ele>683.0</ele><time>2026-04-18T12:08:45.787Z</time></trkpt><trkpt lat="41.94776" lon="-8.09842"><ele>683.0</ele><time>2026-04-18T12:08:48.787Z</time></trkpt><trkpt lat="41.9477667" lon="-8.09831"><ele>683.0</ele><time>2026-04-18T12:08:50.788Z</time></trkpt><trkpt lat="41.947805" lon="-8.09818"><ele>683.0</ele><time>2026-04-18T12:08:52.788Z</time></trkpt><trkpt lat="41.9478683" lon="-8.098055"><ele>683.0</ele><time>2026-04-18T12:08:54.787Z</time></trkpt><trkpt lat="41.9479283" lon="-8.0979517"><ele>681.0</ele><time>2026-04-18T12:08:56.788Z</time></trkpt><trkpt lat="41.9479583" lon="-8.0978483"><ele>679.0</ele><time>2026-04-18T12:08:58.787Z</time></trkpt><trkpt lat="41.9479633" lon="-8.0977417"><ele>677.0</ele><time>2026-04-18T12:09:01.784Z</time></trkpt><trkpt lat="41.9478933" lon="-8.09778"><ele>675.0</ele><time>2026-04-18T12:09:06.788Z</time></trkpt><trkpt lat="41.9478233" lon="-8.097775"><ele>673.0</ele><time>2026-04-18T12:09:09.788Z</time></trkpt><trkpt lat="41.9477733" lon="-8.0976533"><ele>671.0</ele><time>2026-04-18T12:09:12.786Z</time></trkpt><trkpt lat="41.94777" lon="-8.0975217"><ele>668.6666666666666</ele><time>2026-04-18T12:09:14.787Z</time></trkpt><trkpt lat="41.9477717" lon="-8.097385"><ele>666.3333333333333</ele><time>2026-04-18T12:09:16.788Z</time></trkpt><trkpt lat="41.947775" lon="-8.0972767"><ele>664.0</ele><time>2026-04-18T12:09:18.788Z</time></trkpt><trkpt lat="41.9477433" lon="-8.097175"><ele>661.6666666666666</ele><time>2026-04-18T12:09:21.787Z</time></trkpt><trkpt lat="41.94773" lon="-8.0970883"><ele>659.3333333333334</ele><time>2026-04-18T12:09:23.785Z</time></trkpt><trkpt lat="41.9477317" lon="-8.0969583"><ele>657.0</ele><time>2026-04-18T12:09:25.787Z</time></trkpt><trkpt lat="41.9477033" lon="-8.0968133"><ele>657.0</ele><time>2026-04-18T12:09:27.786Z</time></trkpt><trkpt lat="41.947685" lon="-8.0967217"><ele>657.0</ele><time>2026-04-18T12:09:28.786Z</time></trkpt><trkpt lat="41.94767" lon="-8.0966267"><ele>657.0</ele><time>2026-04-18T12:09:29.788Z</time></trkpt><trkpt lat="41.9476667" lon="-8.0965217"><ele>657.0</ele><time>2026-04-18T12:09:30.786Z</time></trkpt><trkpt lat="41.94767" lon="-8.0964217"><ele>657.0</ele><time>2026-04-18T12:09:31.787Z</time></trkpt><trkpt lat="41.9476633" lon="-8.09633"><ele>657.0</ele><time>2026-04-18T12:09:32.789Z</time></trkpt><trkpt lat="41.9476267" lon="-8.09618"><ele>655.6666666666666</ele><time>2026-04-18T12:09:34.788Z</time></trkpt><trkpt lat="41.9475767" lon="-8.096065"><ele>654.3333333333334</ele><time>2026-04-18T12:09:36.789Z</time></trkpt><trkpt lat="41.94752" lon="-8.0959983"><ele>653.0</ele><time>2026-04-18T12:09:37.786Z</time></trkpt><trkpt lat="41.9474667" lon="-8.095945"><ele>651.6666666666667</ele><time>2026-04-18T12:09:38.789Z</time></trkpt><trkpt lat="41.9474033" lon="-8.095895"><ele>650.3333333333334</ele><time>2026-04-18T12:09:39.788Z</time></trkpt><trkpt lat="41.9473417" lon="-8.0958367"><ele>649.0</ele><time>2026-04-18T12:09:40.786Z</time></trkpt><trkpt lat="41.947285" lon="-8.09578"><ele>642.0</ele><time>2026-04-18T12:09:41.787Z</time></trkpt><trkpt lat="41.9472317" lon="-8.09573"><ele>635.0</ele><time>2026-04-18T12:09:42.785Z</time></trkpt><trkpt lat="41.9471333" lon="-8.0956783"><ele>628.0</ele><time>2026-04-18T12:09:44.787Z</time></trkpt><trkpt lat="41.9470583" lon="-8.0957217"><ele>621.0</ele><time>2026-04-18T12:09:46.789Z</time></trkpt><trkpt lat="41.946975" lon="-8.095825"><ele>614.0</ele><time>2026-04-18T12:09:48.786Z</time></trkpt><trkpt lat="41.9469033" lon="-8.0959"><ele>614.0</ele><time>2026-04-18T12:09:50.787Z</time></trkpt><trkpt lat="41.9468267" lon="-8.0958667"><ele>614.0</ele><time>2026-04-18T12:09:53.787Z</time></trkpt><trkpt lat="41.9467983" lon="-8.0957667"><ele>614.0</ele><time>2026-04-18T12:09:55.787Z</time></trkpt><trkpt lat="41.9468033" lon="-8.095655"><ele>614.0</ele><time>2026-04-18T12:09:57.788Z</time></trkpt><trkpt lat="41.9468467" lon="-8.0955467"><ele>614.0</ele><time>2026-04-18T12:09:59.79Z</time></trkpt><trkpt lat="41.946885" lon="-8.0954717"><ele>614.0</ele><time>2026-04-18T12:10:01.788Z</time></trkpt><trkpt lat="41.9469517" lon="-8.0953633"><ele>612.2</ele><time>2026-04-18T12:10:03.788Z</time></trkpt><trkpt lat="41.9469733" lon="-8.0952567"><ele>610.4</ele><time>2026-04-18T12:10:05.789Z</time></trkpt><trkpt lat="41.946985" lon="-8.0951417"><ele>608.6</ele><time>2026-04-18T12:10:07.787Z</time></trkpt><trkpt lat="41.9470317" lon="-8.0950233"><ele>606.8</ele><time>2026-04-18T12:10:09.786Z</time></trkpt><trkpt lat="41.947095" lon="-8.0949283"><ele>605.0</ele><time>2026-04-18T12:10:11.788Z</time></trkpt><trkpt lat="41.9471467" lon="-8.0948283"><ele>602.8333333333333</ele><time>2026-04-18T12:10:13.788Z</time></trkpt><trkpt lat="41.9472017" lon="-8.0947433"><ele>600.6666666666666</ele><time>2026-04-18T12:10:15.787Z</time></trkpt><trkpt lat="41.9472333" lon="-8.094635"><ele>598.5</ele><time>2026-04-18T12:10:17.785Z</time></trkpt><trkpt lat="41.9472483" lon="-8.09454"><ele>596.3333333333334</ele><time>2026-04-18T12:10:19.784Z</time></trkpt><trkpt lat="41.94723" lon="-8.0944567"><ele>594.1666666666667</ele><time>2026-04-18T12:10:22.787Z</time></trkpt><trkpt lat="41.9471783" lon="-8.0944033"><ele>592.0</ele><time>2026-04-18T12:10:24.787Z</time></trkpt><trkpt lat="41.9470883" lon="-8.09432"><ele>592.0</ele><time>2026-04-18T12:10:26.788Z</time></trkpt><trkpt lat="41.947015" lon="-8.0942317"><ele>592.0</ele><time>2026-04-18T12:10:28.788Z</time></trkpt><trkpt lat="41.94695" lon="-8.094085"><ele>592.0</ele><time>2026-04-18T12:10:30.786Z</time></trkpt><trkpt lat="41.9469033" lon="-8.09401"><ele>592.0</ele><time>2026-04-18T12:10:31.789Z</time></trkpt><trkpt lat="41.9468433" lon="-8.0938867"><ele>592.0</ele><time>2026-04-18T12:10:33.786Z</time></trkpt><trkpt lat="41.9468183" lon="-8.09379"><ele>591.0</ele><time>2026-04-18T12:10:37.786Z</time></trkpt><trkpt lat="41.94678" lon="-8.0937083"><ele>590.0</ele><time>2026-04-18T12:10:39.786Z</time></trkpt><trkpt lat="41.9467133" lon="-8.0936033"><ele>589.0</ele><time>2026-04-18T12:10:41.787Z</time></trkpt><trkpt lat="41.9466283" lon="-8.0934917"><ele>588.0</ele><time>2026-04-18T12:10:43.787Z</time></trkpt><trkpt lat="41.946565" lon="-8.0933783"><ele>587.0</ele><time>2026-04-18T12:10:45.787Z</time></trkpt><trkpt lat="41.9465233" lon="-8.0932783"><ele>580.1666666666666</ele><time>2026-04-18T12:10:47.785Z</time></trkpt><trkpt lat="41.9464717" lon="-8.0931783"><ele>573.3333333333333</ele><time>2026-04-18T12:10:49.784Z</time></trkpt><trkpt lat="41.9464317" lon="-8.0930867"><ele>566.5</ele><time>2026-04-18T12:10:51.784Z</time></trkpt><trkpt lat="41.9464533" lon="-8.092985"><ele>559.6666666666666</ele><time>2026-04-18T12:10:54.788Z</time></trkpt><trkpt lat="41.9464867" lon="-8.0928733"><ele>552.8333333333334</ele><time>2026-04-18T12:10:57.786Z</time></trkpt><trkpt lat="41.946475" lon="-8.092785"><ele>546.0</ele><time>2026-04-18T12:10:59.786Z</time></trkpt><trkpt lat="41.9464917" lon="-8.0926983"><ele>546.0</ele><time>2026-04-18T12:11:02.788Z</time></trkpt><trkpt lat="41.9464667" lon="-8.0926067"><ele>546.0</ele><time>2026-04-18T12:11:05.788Z</time></trkpt><trkpt lat="41.9465183" lon="-8.0925133"><ele>546.0</ele><time>2026-04-18T12:11:08.79Z</time></trkpt><trkpt lat="41.9465417" lon="-8.092405"><ele>546.0</ele><time>2026-04-18T12:11:11.785Z</time></trkpt><trkpt lat="41.9465467" lon="-8.0922667"><ele>546.0</ele><time>2026-04-18T12:11:13.784Z</time></trkpt><trkpt lat="41.946525" lon="-8.0921067"><ele>544.8333333333334</ele><time>2026-04-18T12:11:15.789Z</time></trkpt><trkpt lat="41.9465167" lon="-8.092015"><ele>543.6666666666666</ele><time>2026-04-18T12:11:16.787Z</time></trkpt><trkpt lat="41.94652" lon="-8.091905"><ele>542.5</ele><time>2026-04-18T12:11:17.786Z</time></trkpt><trkpt lat="41.946555" lon="-8.0917633"><ele>541.3333333333333</ele><time>2026-04-18T12:11:19.785Z</time></trkpt><trkpt lat="41.9465783" lon="-8.09165"><ele>540.1666666666666</ele><time>2026-04-18T12:11:21.785Z</time></trkpt><trkpt lat="41.946535" lon="-8.0915617"><ele>539.0</ele><time>2026-04-18T12:11:23.785Z</time></trkpt><trkpt lat="41.9464683" lon="-8.0914333"><ele>537.5</ele><time>2026-04-18T12:11:25.785Z</time></trkpt><trkpt lat="41.946435" lon="-8.0913383"><ele>536.0</ele><time>2026-04-18T12:11:26.785Z</time></trkpt><trkpt lat="41.946405" lon="-8.0912333"><ele>534.5</ele><time>2026-04-18T12:11:27.788Z</time></trkpt><trkpt lat="41.9463817" lon="-8.0911217"><ele>533.0</ele><time>2026-04-18T12:11:28.788Z</time></trkpt><trkpt lat="41.9463567" lon="-8.09101"><ele>531.5</ele><time>2026-04-18T12:11:29.789Z</time></trkpt><trkpt lat="41.946335" lon="-8.0909"><ele>530.0</ele><time>2026-04-18T12:11:30.786Z</time></trkpt><trkpt lat="41.946315" lon="-8.090795"><ele>527.2</ele><time>2026-04-18T12:11:31.786Z</time></trkpt><trkpt lat="41.946285" lon="-8.090715"><ele>524.4</ele><time>2026-04-18T12:11:32.79Z</time></trkpt><trkpt lat="41.9462033" lon="-8.0905883"><ele>521.6</ele><time>2026-04-18T12:11:34.788Z</time></trkpt><trkpt lat="41.9461267" lon="-8.0904983"><ele>518.8</ele><time>2026-04-18T12:11:36.786Z</time></trkpt><trkpt lat="41.94606" lon="-8.0904167"><ele>516.0</ele><time>2026-04-18T12:11:38.786Z</time></trkpt><trkpt lat="41.9461233" lon="-8.09032"><ele>516.0</ele><time>2026-04-18T12:11:42.786Z</time></trkpt><trkpt lat="41.9461817" lon="-8.0902867"><ele>516.0</ele><time>2026-04-18T12:11:43.788Z</time></trkpt><trkpt lat="41.94625" lon="-8.0902517"><ele>516.0</ele><time>2026-04-18T12:11:44.788Z</time></trkpt><trkpt lat="41.94636" lon="-8.0902183"><ele>516.0</ele><time>2026-04-18T12:11:45.788Z</time></trkpt><trkpt lat="41.9464567" lon="-8.0901817"><ele>516.0</ele><time>2026-04-18T12:11:46.788Z</time></trkpt><trkpt lat="41.946575" lon="-8.0901317"><ele>516.0</ele><time>2026-04-18T12:11:47.786Z</time></trkpt><trkpt lat="41.9466983" lon="-8.09007"><ele>516.0</ele><time>2026-04-18T12:11:48.786Z</time></trkpt><trkpt lat="41.9468333" lon="-8.089995"><ele>516.0</ele><time>2026-04-18T12:11:49.786Z</time></trkpt><trkpt lat="41.9469533" lon="-8.0899217"><ele>516.0</ele><time>2026-04-18T12:11:50.786Z</time></trkpt><trkpt lat="41.9470883" lon="-8.0898433"><ele>517.25</ele><time>2026-04-18T12:11:51.786Z</time></trkpt><trkpt lat="41.947225" lon="-8.0897667"><ele>518.5</ele><time>2026-04-18T12:11:52.786Z</time></trkpt><trkpt lat="41.9473667" lon="-8.0896867"><ele>519.75</ele><time>2026-04-18T12:11:53.786Z</time></trkpt><trkpt lat="41.947495" lon="-8.0896033"><ele>521.0</ele><time>2026-04-18T12:11:54.786Z</time></trkpt><trkpt lat="41.94762" lon="-8.0895333"><ele>522.0</ele><time>2026-04-18T12:11:55.786Z</time></trkpt><trkpt lat="41.947735" lon="-8.0894833"><ele>523.0</ele><time>2026-04-18T12:11:56.787Z</time></trkpt><trkpt lat="41.9478317" lon="-8.08946"><ele>524.0</ele><time>2026-04-18T12:11:57.786Z</time></trkpt><trkpt lat="41.9479283" lon="-8.0894517"><ele>525.0</ele><time>2026-04-18T12:11:58.786Z</time></trkpt><trkpt lat="41.9480117" lon="-8.0894583"><ele>526.0</ele><time>2026-04-18T12:11:59.786Z</time></trkpt><trkpt lat="41.94809" lon="-8.0894617"><ele>526.0</ele><time>2026-04-18T12:12:00.785Z</time></trkpt><trkpt lat="41.94817" lon="-8.0894567"><ele>526.0</ele><time>2026-04-18T12:12:01.785Z</time></trkpt><trkpt lat="41.948245" lon="-8.0894417"><ele>526.0</ele><time>2026-04-18T12:12:02.786Z</time></trkpt><trkpt lat="41.9483083" lon="-8.0894383"><ele>526.0</ele><time>2026-04-18T12:12:03.786Z</time></trkpt><trkpt lat="41.9483717" lon="-8.0894217"><ele>526.0</ele><time>2026-04-18T12:12:04.786Z</time></trkpt><trkpt lat="41.9485017" lon="-8.0894167"><ele>526.0</ele><time>2026-04-18T12:12:06.788Z</time></trkpt><trkpt lat="41.9485733" lon="-8.0894133"><ele>529.6666666666667</ele><time>2026-04-18T12:12:07.786Z</time></trkpt><trkpt lat="41.9486467" lon="-8.0894033"><ele>533.3333333333334</ele><time>2026-04-18T12:12:08.789Z</time></trkpt><trkpt lat="41.9487167" lon="-8.0893983"><ele>537.0</ele><time>2026-04-18T12:12:09.788Z</time></trkpt><trkpt lat="41.9487933" lon="-8.0893917"><ele>540.6666666666666</ele><time>2026-04-18T12:12:10.788Z</time></trkpt><trkpt lat="41.9488817" lon="-8.08938"><ele>544.3333333333333</ele><time>2026-04-18T12:12:11.788Z</time></trkpt><trkpt lat="41.9489717" lon="-8.0893683"><ele>548.0</ele><time>2026-04-18T12:12:12.787Z</time></trkpt><trkpt lat="41.9490583" lon="-8.08936"><ele>548.0</ele><time>2026-04-18T12:12:13.786Z</time></trkpt><trkpt lat="41.9491283" lon="-8.0893417"><ele>548.0</ele><time>2026-04-18T12:12:14.787Z</time></trkpt><trkpt lat="41.9492333" lon="-8.0892917"><ele>548.0</ele><time>2026-04-18T12:12:16.786Z</time></trkpt><trkpt lat="41.9492933" lon="-8.0892283"><ele>548.0</ele><time>2026-04-18T12:12:17.784Z</time></trkpt><trkpt lat="41.9493617" lon="-8.0891483"><ele>548.0</ele><time>2026-04-18T12:12:18.786Z</time></trkpt><trkpt lat="41.949435" lon="-8.0890583"><ele>548.0</ele><time>2026-04-18T12:12:19.786Z</time></trkpt><trkpt lat="41.9495017" lon="-8.088975"><ele>545.3333333333333</ele><time>2026-04-18T12:12:20.786Z</time></trkpt><trkpt lat="41.9495683" lon="-8.0888883"><ele>542.6666666666666</ele><time>2026-04-18T12:12:21.786Z</time></trkpt><trkpt lat="41.9496356" lon="-8.0888233"><ele>540.0</ele><time>2026-04-18T12:12:22.786Z</time></trkpt><trkpt lat="41.9497019" lon="-8.0887689"><ele>537.3333333333334</ele><time>2026-04-18T12:12:23.786Z</time></trkpt><trkpt lat="41.9497662" lon="-8.0887316"><ele>534.6666666666667</ele><time>2026-04-18T12:12:24.788Z</time></trkpt><trkpt lat="41.9498734" lon="-8.0887118"><ele>532.0</ele><time>2026-04-18T12:12:26.788Z</time></trkpt><trkpt lat="41.9499612" lon="-8.0888293"><ele>532.0</ele><time>2026-04-18T12:12:28.788Z</time></trkpt><trkpt lat="41.9499931" lon="-8.0889456"><ele>532.0</ele><time>2026-04-18T12:12:29.786Z</time></trkpt><trkpt lat="41.9500327" lon="-8.0890613"><ele>532.0</ele><time>2026-04-18T12:12:30.787Z</time></trkpt><trkpt lat="41.9500836" lon="-8.0891757"><ele>532.0</ele><time>2026-04-18T12:12:31.787Z</time></trkpt><trkpt lat="41.9501421" lon="-8.0892824"><ele>532.0</ele><time>2026-04-18T12:12:32.788Z</time></trkpt><trkpt lat="41.9502069" lon="-8.08938"><ele>533.8000000000001</ele><time>2026-04-18T12:12:33.788Z</time></trkpt><trkpt lat="41.9502746" lon="-8.0894699"><ele>535.6</ele><time>2026-04-18T12:12:34.788Z</time></trkpt><trkpt lat="41.9503483" lon="-8.0895499"><ele>537.4000000000001</ele><time>2026-04-18T12:12:35.788Z</time></trkpt><trkpt lat="41.9504296" lon="-8.0896199"><ele>539.2</ele><time>2026-04-18T12:12:36.789Z</time></trkpt><trkpt lat="41.9505172" lon="-8.0896725"><ele>541.0</ele><time>2026-04-18T12:12:37.788Z</time></trkpt><trkpt lat="41.9506093" lon="-8.0897173"><ele>541.0</ele><time>2026-04-18T12:12:38.788Z</time></trkpt><trkpt lat="41.9506977" lon="-8.0897659"><ele>541.0</ele><time>2026-04-18T12:12:39.789Z</time></trkpt><trkpt lat="41.9507721" lon="-8.0898078"><ele>541.0</ele><time>2026-04-18T12:12:40.787Z</time></trkpt><trkpt lat="41.9508386" lon="-8.0898307"><ele>541.0</ele><time>2026-04-18T12:12:41.788Z</time></trkpt><trkpt lat="41.9509492" lon="-8.0898319"><ele>541.0</ele><time>2026-04-18T12:12:43.788Z</time></trkpt><trkpt lat="41.9510454" lon="-8.0897986"><ele>543.3333333333334</ele><time>2026-04-18T12:12:45.786Z</time></trkpt><trkpt lat="41.951145" lon="-8.0897617"><ele>545.6666666666667</ele><time>2026-04-18T12:12:47.785Z</time></trkpt><trkpt lat="41.9512467" lon="-8.0897583"><ele>548.0</ele><time>2026-04-18T12:12:49.786Z</time></trkpt><trkpt lat="41.9513283" lon="-8.0897933"><ele>550.3333333333334</ele><time>2026-04-18T12:12:51.786Z</time></trkpt><trkpt lat="41.951405" lon="-8.089825"><ele>552.6666666666666</ele><time>2026-04-18T12:12:53.785Z</time></trkpt><trkpt lat="41.9513333" lon="-8.0898167"><ele>555.0</ele><time>2026-04-18T12:23:17.787Z</time></trkpt><trkpt lat="41.951225" lon="-8.0898367"><ele>555.0</ele><time>2026-04-18T12:30:46.789Z</time></trkpt><trkpt lat="41.9511333" lon="-8.0898517"><ele>555.0</ele><time>2026-04-18T12:30:47.786Z</time></trkpt><trkpt lat="41.951025" lon="-8.0898567"><ele>555.0</ele><time>2026-04-18T12:30:49.785Z</time></trkpt><trkpt lat="41.9509283" lon="-8.08989"><ele>555.0</ele><time>2026-04-18T12:30:51.785Z</time></trkpt><trkpt lat="41.95084" lon="-8.0898867"><ele>555.0</ele><time>2026-04-18T12:30:53.787Z</time></trkpt><trkpt lat="41.9507767" lon="-8.0898983"><ele>553.0000000000001</ele><time>2026-04-18T12:30:55.788Z</time></trkpt><trkpt lat="41.9507183" lon="-8.0898633"><ele>551.0</ele><time>2026-04-18T12:30:57.785Z</time></trkpt><trkpt lat="41.9506517" lon="-8.0898283"><ele>549.0</ele><time>2026-04-18T12:30:59.786Z</time></trkpt><trkpt lat="41.9505933" lon="-8.08978"><ele>547.0</ele><time>2026-04-18T12:31:02.786Z</time></trkpt><trkpt lat="41.95054" lon="-8.0897133"><ele>545.0</ele><time>2026-04-18T12:32:46.787Z</time></trkpt><trkpt lat="41.9504467" lon="-8.0896617"><ele>543.0000000000001</ele><time>2026-04-18T12:32:48.788Z</time></trkpt><trkpt lat="41.9503867" lon="-8.0896183"><ele>541.0</ele><time>2026-04-18T12:32:49.787Z</time></trkpt><trkpt lat="41.9503283" lon="-8.08956"><ele>541.0</ele><time>2026-04-18T12:32:50.788Z</time></trkpt><trkpt lat="41.9502567" lon="-8.0894733"><ele>541.0</ele><time>2026-04-18T12:32:51.788Z</time></trkpt><trkpt lat="41.9501783" lon="-8.08937"><ele>541.0</ele><time>2026-04-18T12:32:52.788Z</time></trkpt><trkpt lat="41.95011" lon="-8.0892567"><ele>541.0</ele><time>2026-04-18T12:32:53.788Z</time></trkpt><trkpt lat="41.9500467" lon="-8.0891467"><ele>541.0</ele><time>2026-04-18T12:32:54.787Z</time></trkpt><trkpt lat="41.9499933" lon="-8.0890333"><ele>539.2</ele><time>2026-04-18T12:32:55.788Z</time></trkpt><trkpt lat="41.94995" lon="-8.088925"><ele>537.4000000000001</ele><time>2026-04-18T12:32:56.789Z</time></trkpt><trkpt lat="41.9499133" lon="-8.08882"><ele>535.6</ele><time>2026-04-18T12:32:57.788Z</time></trkpt><trkpt lat="41.9498767" lon="-8.0887333"><ele>533.8000000000001</ele><time>2026-04-18T12:32:58.785Z</time></trkpt><trkpt lat="41.9497733" lon="-8.088645"><ele>532.0</ele><time>2026-04-18T12:33:00.785Z</time></trkpt><trkpt lat="41.9496467" lon="-8.088655"><ele>532.0</ele><time>2026-04-18T12:33:02.786Z</time></trkpt><trkpt lat="41.9495733" lon="-8.0887033"><ele>532.0</ele><time>2026-04-18T12:33:03.787Z</time></trkpt><trkpt lat="41.949505" lon="-8.0887583"><ele>532.0</ele><time>2026-04-18T12:33:04.788Z</time></trkpt><trkpt lat="41.9494383" lon="-8.0888233"><ele>532.0</ele><time>2026-04-18T12:33:05.786Z</time></trkpt><trkpt lat="41.94937" lon="-8.08888"><ele>532.0</ele><time>2026-04-18T12:33:06.787Z</time></trkpt><trkpt lat="41.9492967" lon="-8.0889833"><ele>532.0</ele><time>2026-04-18T12:33:07.786Z</time></trkpt><trkpt lat="41.9492267" lon="-8.08909"><ele>534.6666666666667</ele><time>2026-04-18T12:33:08.786Z</time></trkpt><trkpt lat="41.94917" lon="-8.0891833"><ele>537.3333333333334</ele><time>2026-04-18T12:33:09.788Z</time></trkpt><trkpt lat="41.9491" lon="-8.0892383"><ele>540.0</ele><time>2026-04-18T12:33:10.786Z</time></trkpt><trkpt lat="41.949025" lon="-8.0892767"><ele>542.6666666666666</ele><time>2026-04-18T12:33:11.788Z</time></trkpt><trkpt lat="41.9489467" lon="-8.0892917"><ele>545.3333333333333</ele><time>2026-04-18T12:33:12.787Z</time></trkpt><trkpt lat="41.9488617" lon="-8.0892967"><ele>548.0</ele><time>2026-04-18T12:33:13.788Z</time></trkpt><trkpt lat="41.948785" lon="-8.0893067"><ele>548.0</ele><time>2026-04-18T12:33:14.789Z</time></trkpt><trkpt lat="41.948715" lon="-8.0893183"><ele>548.0</ele><time>2026-04-18T12:33:15.788Z</time></trkpt><trkpt lat="41.948645" lon="-8.0893217"><ele>548.0</ele><time>2026-04-18T12:33:16.788Z</time></trkpt><trkpt lat="41.948575" lon="-8.08933"><ele>548.0</ele><time>2026-04-18T12:33:17.787Z</time></trkpt><trkpt lat="41.9485083" lon="-8.08934"><ele>548.0</ele><time>2026-04-18T12:33:18.785Z</time></trkpt><trkpt lat="41.94838" lon="-8.0893467"><ele>548.0</ele><time>2026-04-18T12:33:20.79Z</time></trkpt><trkpt lat="41.9483133" lon="-8.0893417"><ele>544.3333333333333</ele><time>2026-04-18T12:33:21.788Z</time></trkpt><trkpt lat="41.94825" lon="-8.0893467"><ele>540.6666666666666</ele><time>2026-04-18T12:33:22.786Z</time></trkpt><trkpt lat="41.9481833" lon="-8.089355"><ele>537.0</ele><time>2026-04-18T12:33:23.786Z</time></trkpt><trkpt lat="41.948105" lon="-8.089365"><ele>533.3333333333334</ele><time>2026-04-18T12:33:24.787Z</time></trkpt><trkpt lat="41.9479983" lon="-8.089375"><ele>529.6666666666667</ele><time>2026-04-18T12:33:25.787Z</time></trkpt><trkpt lat="41.9478917" lon="-8.08939"><ele>526.0</ele><time>2026-04-18T12:33:26.789Z</time></trkpt><trkpt lat="41.947795" lon="-8.0894167"><ele>526.0</ele><time>2026-04-18T12:33:27.785Z</time></trkpt><trkpt lat="41.9476867" lon="-8.089445"><ele>526.0</ele><time>2026-04-18T12:33:28.787Z</time></trkpt><trkpt lat="41.9475667" lon="-8.08948"><ele>526.0</ele><time>2026-04-18T12:33:29.787Z</time></trkpt><trkpt lat="41.9474483" lon="-8.089555"><ele>526.0</ele><time>2026-04-18T12:33:30.783Z</time></trkpt><trkpt lat="41.9473383" lon="-8.0896183"><ele>526.6666666666667</ele><time>2026-04-18T12:33:31.788Z</time></trkpt><trkpt lat="41.9472517" lon="-8.089675"><ele>527.3333333333334</ele><time>2026-04-18T12:33:32.788Z</time></trkpt><trkpt lat="41.947175" lon="-8.0897183"><ele>528.0</ele><time>2026-04-18T12:33:33.788Z</time></trkpt><trkpt lat="41.9471183" lon="-8.0897667"><ele>528.6666666666666</ele><time>2026-04-18T12:33:34.789Z</time></trkpt><trkpt lat="41.9470167" lon="-8.0898217"><ele>529.3333333333333</ele><time>2026-04-18T12:33:36.788Z</time></trkpt><trkpt lat="41.9469417" lon="-8.0898783"><ele>530.0</ele><time>2026-04-18T12:33:38.787Z</time></trkpt><trkpt lat="41.94688" lon="-8.0899283"><ele>530.0</ele><time>2026-04-18T12:33:40.786Z</time></trkpt><trkpt lat="41.946815" lon="-8.0899867"><ele>530.0</ele><time>2026-04-18T12:33:42.788Z</time></trkpt><trkpt lat="41.94674" lon="-8.0900317"><ele>530.0</ele><time>2026-04-18T12:33:44.788Z</time></trkpt><trkpt lat="41.9466633" lon="-8.090085"><ele>530.0</ele><time>2026-04-18T12:33:46.788Z</time></trkpt><trkpt lat="41.9465867" lon="-8.0901283"><ele>530.0</ele><time>2026-04-18T12:33:48.786Z</time></trkpt><trkpt lat="41.94651" lon="-8.0901667"><ele>530.0</ele><time>2026-04-18T12:33:50.786Z</time></trkpt><trkpt lat="41.9464167" lon="-8.0902183"><ele>527.6666666666666</ele><time>2026-04-18T12:33:52.785Z</time></trkpt><trkpt lat="41.946295" lon="-8.0902783"><ele>525.3333333333333</ele><time>2026-04-18T12:33:54.787Z</time></trkpt><trkpt lat="41.9462283" lon="-8.09031"><ele>523.0</ele><time>2026-04-18T12:33:55.788Z</time></trkpt><trkpt lat="41.94616" lon="-8.090345"><ele>520.6666666666666</ele><time>2026-04-18T12:33:56.786Z</time></trkpt><trkpt lat="41.9460867" lon="-8.09039"><ele>518.3333333333334</ele><time>2026-04-18T12:33:57.786Z</time></trkpt><trkpt lat="41.946005" lon="-8.0904417"><ele>516.0</ele><time>2026-04-18T12:33:58.786Z</time></trkpt><trkpt lat="41.945925" lon="-8.0905067"><ele>515.25</ele><time>2026-04-18T12:33:59.784Z</time></trkpt><trkpt lat="41.945845" lon="-8.0905883"><ele>514.5</ele><time>2026-04-18T12:34:00.787Z</time></trkpt><trkpt lat="41.945775" lon="-8.0907017"><ele>513.75</ele><time>2026-04-18T12:34:01.784Z</time></trkpt><trkpt lat="41.9456983" lon="-8.0908233"><ele>513.0</ele><time>2026-04-18T12:34:02.787Z</time></trkpt><trkpt lat="41.945615" lon="-8.0909467"><ele>514.5</ele><time>2026-04-18T12:34:03.788Z</time></trkpt><trkpt lat="41.9455333" lon="-8.091075"><ele>516.0</ele><time>2026-04-18T12:34:04.785Z</time></trkpt><trkpt lat="41.9454533" lon="-8.0911967"><ele>517.5</ele><time>2026-04-18T12:34:05.787Z</time></trkpt><trkpt lat="41.9453683" lon="-8.0913133"><ele>519.0</ele><time>2026-04-18T12:34:06.786Z</time></trkpt><trkpt lat="41.9452817" lon="-8.091415"><ele>519.0</ele><time>2026-04-18T12:34:07.788Z</time></trkpt><trkpt lat="41.9451917" lon="-8.09151"><ele>519.0</ele><time>2026-04-18T12:34:08.787Z</time></trkpt><trkpt lat="41.9450867" lon="-8.0915933"><ele>519.0</ele><time>2026-04-18T12:34:09.787Z</time></trkpt><trkpt lat="41.945" lon="-8.091655"><ele>519.0</ele><time>2026-04-18T12:34:10.789Z</time></trkpt><trkpt lat="41.9449317" lon="-8.0917083"><ele>519.0</ele><time>2026-04-18T12:34:11.789Z</time></trkpt><trkpt lat="41.9448717" lon="-8.091755"><ele>518.4</ele><time>2026-04-18T12:34:12.787Z</time></trkpt><trkpt lat="41.944765" lon="-8.09183"><ele>517.8</ele><time>2026-04-18T12:34:14.787Z</time></trkpt><trkpt lat="41.9447017" lon="-8.0918583"><ele>517.2</ele><time>2026-04-18T12:34:15.787Z</time></trkpt><trkpt lat="41.944615" lon="-8.0918933"><ele>516.6</ele><time>2026-04-18T12:34:16.787Z</time></trkpt><trkpt lat="41.9444933" lon="-8.091925"><ele>516.0</ele><time>2026-04-18T12:34:17.787Z</time></trkpt><trkpt lat="41.9443817" lon="-8.0919583"><ele>516.0</ele><time>2026-04-18T12:34:18.787Z</time></trkpt><trkpt lat="41.94426" lon="-8.0919933"><ele>516.0</ele><time>2026-04-18T12:34:19.786Z</time></trkpt><trkpt lat="41.9441583" lon="-8.0920383"><ele>516.0</ele><time>2026-04-18T12:34:20.786Z</time></trkpt><trkpt lat="41.9440567" lon="-8.092085"><ele>516.0</ele><time>2026-04-18T12:34:21.786Z</time></trkpt><trkpt lat="41.9439433" lon="-8.092135"><ele>514.5</ele><time>2026-04-18T12:34:22.787Z</time></trkpt><trkpt lat="41.9438367" lon="-8.0921883"><ele>513.0</ele><time>2026-04-18T12:34:23.786Z</time></trkpt><trkpt lat="41.9437367" lon="-8.0922583"><ele>511.5</ele><time>2026-04-18T12:34:24.79Z</time></trkpt><trkpt lat="41.9436417" lon="-8.092345"><ele>510.0</ele><time>2026-04-18T12:34:25.788Z</time></trkpt><trkpt lat="41.9435467" lon="-8.09244"><ele>510.25</ele><time>2026-04-18T12:34:26.789Z</time></trkpt><trkpt lat="41.94345" lon="-8.0925317"><ele>510.5</ele><time>2026-04-18T12:34:27.787Z</time></trkpt><trkpt lat="41.943355" lon="-8.092625"><ele>510.75</ele><time>2026-04-18T12:34:28.785Z</time></trkpt><trkpt lat="41.94326" lon="-8.092715"><ele>511.0</ele><time>2026-04-18T12:34:29.786Z</time></trkpt><trkpt lat="41.943165" lon="-8.0928067"><ele>511.00000000000006</ele><time>2026-04-18T12:34:30.785Z</time></trkpt><trkpt lat="41.9430767" lon="-8.0929017"><ele>511.0</ele><time>2026-04-18T12:34:31.789Z</time></trkpt><trkpt lat="41.943" lon="-8.09299"><ele>511.0</ele><time>2026-04-18T12:34:32.785Z</time></trkpt><trkpt lat="41.942935" lon="-8.0930667"><ele>511.0</ele><time>2026-04-18T12:34:33.786Z</time></trkpt><trkpt lat="41.94288" lon="-8.0931333"><ele>511.00000000000006</ele><time>2026-04-18T12:34:34.787Z</time></trkpt><trkpt lat="41.942825" lon="-8.0931817"><ele>511.0</ele><time>2026-04-18T12:34:35.787Z</time></trkpt><trkpt lat="41.9427133" lon="-8.09318"><ele>511.0</ele><time>2026-04-18T12:34:37.788Z</time></trkpt><trkpt lat="41.9425917" lon="-8.0931283"><ele>511.0</ele><time>2026-04-18T12:34:39.787Z</time></trkpt><trkpt lat="41.9425183" lon="-8.0930783"><ele>511.0</ele><time>2026-04-18T12:34:40.789Z</time></trkpt><trkpt lat="41.942455" lon="-8.0930133"><ele>511.0</ele><time>2026-04-18T12:34:41.788Z</time></trkpt><trkpt lat="41.9423933" lon="-8.092945"><ele>511.0</ele><time>2026-04-18T12:34:42.788Z</time></trkpt><trkpt lat="41.942335" lon="-8.0928617"><ele>510.00000000000006</ele><time>2026-04-18T12:34:43.787Z</time></trkpt><trkpt lat="41.9422817" lon="-8.0927717"><ele>509.0</ele><time>2026-04-18T12:34:44.787Z</time></trkpt><trkpt lat="41.9422267" lon="-8.0926783"><ele>508.0</ele><time>2026-04-18T12:34:45.787Z</time></trkpt><trkpt lat="41.9421683" lon="-8.0925833"><ele>507.0</ele><time>2026-04-18T12:34:46.788Z</time></trkpt><trkpt lat="41.9421117" lon="-8.09249"><ele>506.00000000000006</ele><time>2026-04-18T12:34:47.786Z</time></trkpt><trkpt lat="41.94206" lon="-8.0924183"><ele>505.0</ele><time>2026-04-18T12:34:48.786Z</time></trkpt><trkpt lat="41.942" lon="-8.092365"><ele>505.0</ele><time>2026-04-18T12:34:49.786Z</time></trkpt><trkpt lat="41.9419267" lon="-8.0923217"><ele>505.0</ele><time>2026-04-18T12:34:50.786Z</time></trkpt><trkpt lat="41.9418533" lon="-8.0922933"><ele>505.0</ele><time>2026-04-18T12:34:51.786Z</time></trkpt><trkpt lat="41.94177" lon="-8.0923"><ele>505.0</ele><time>2026-04-18T12:34:52.785Z</time></trkpt><trkpt lat="41.9416917" lon="-8.0923283"><ele>505.0</ele><time>2026-04-18T12:34:53.786Z</time></trkpt><trkpt lat="41.9415767" lon="-8.0924117"><ele>504.75</ele><time>2026-04-18T12:34:54.786Z</time></trkpt><trkpt lat="41.941445" lon="-8.09247"><ele>504.5</ele><time>2026-04-18T12:34:55.786Z</time></trkpt><trkpt lat="41.9413167" lon="-8.09252"><ele>504.25</ele><time>2026-04-18T12:34:56.788Z</time></trkpt><trkpt lat="41.9411883" lon="-8.0925683"><ele>504.0</ele><time>2026-04-18T12:34:57.787Z</time></trkpt><trkpt lat="41.9410633" lon="-8.0926317"><ele>504.0</ele><time>2026-04-18T12:34:58.787Z</time></trkpt><trkpt lat="41.940935" lon="-8.0926883"><ele>504.0</ele><time>2026-04-18T12:34:59.786Z</time></trkpt><trkpt lat="41.9408067" lon="-8.0927217"><ele>504.0</ele><time>2026-04-18T12:35:00.786Z</time></trkpt><trkpt lat="41.9406767" lon="-8.09274"><ele>504.0</ele><time>2026-04-18T12:35:01.787Z</time></trkpt><trkpt lat="41.9405417" lon="-8.0927733"><ele>504.75</ele><time>2026-04-18T12:35:02.788Z</time></trkpt><trkpt lat="41.940415" lon="-8.09283"><ele>505.5</ele><time>2026-04-18T12:35:03.788Z</time></trkpt><trkpt lat="41.9403" lon="-8.0929083"><ele>506.25</ele><time>2026-04-18T12:35:04.785Z</time></trkpt><trkpt lat="41.940195" lon="-8.0929883"><ele>507.0</ele><time>2026-04-18T12:35:05.786Z</time></trkpt><trkpt lat="41.940085" lon="-8.0930567"><ele>508.25</ele><time>2026-04-18T12:35:06.788Z</time></trkpt><trkpt lat="41.939965" lon="-8.0930933"><ele>509.5</ele><time>2026-04-18T12:35:07.789Z</time></trkpt><trkpt lat="41.939845" lon="-8.093105"><ele>510.75</ele><time>2026-04-18T12:35:08.786Z</time></trkpt><trkpt lat="41.9397233" lon="-8.0931"><ele>512.0</ele><time>2026-04-18T12:35:09.786Z</time></trkpt><trkpt lat="41.9396133" lon="-8.09311"><ele>512.0</ele><time>2026-04-18T12:35:10.787Z</time></trkpt><trkpt lat="41.9395117" lon="-8.0931517"><ele>512.0</ele><time>2026-04-18T12:35:11.788Z</time></trkpt><trkpt lat="41.9394217" lon="-8.09323"><ele>512.0</ele><time>2026-04-18T12:35:12.787Z</time></trkpt><trkpt lat="41.9393467" lon="-8.093335"><ele>512.0</ele><time>2026-04-18T12:35:13.786Z</time></trkpt><trkpt lat="41.9392667" lon="-8.0934367"><ele>512.0</ele><time>2026-04-18T12:35:14.788Z</time></trkpt><trkpt lat="41.939175" lon="-8.0935217"><ele>512.2</ele><time>2026-04-18T12:35:15.788Z</time></trkpt><trkpt lat="41.9390733" lon="-8.0935733"><ele>512.4000000000001</ele><time>2026-04-18T12:35:16.789Z</time></trkpt><trkpt lat="41.9389633" lon="-8.093585"><ele>512.5999999999999</ele><time>2026-04-18T12:35:17.786Z</time></trkpt><trkpt lat="41.93886" lon="-8.09357"><ele>512.8</ele><time>2026-04-18T12:35:18.786Z</time></trkpt><trkpt lat="41.9387733" lon="-8.0935617"><ele>513.0</ele><time>2026-04-18T12:35:19.786Z</time></trkpt><trkpt lat="41.9386933" lon="-8.09356"><ele>513.0</ele><time>2026-04-18T12:35:20.785Z</time></trkpt><trkpt lat="41.9386283" lon="-8.0935783"><ele>513.0</ele><time>2026-04-18T12:35:21.784Z</time></trkpt><trkpt lat="41.93856" lon="-8.09375"><ele>513.0</ele><time>2026-04-18T12:35:23.786Z</time></trkpt><trkpt lat="41.938505" lon="-8.093845"><ele>513.0</ele><time>2026-04-18T12:35:24.788Z</time></trkpt><trkpt lat="41.93843" lon="-8.09393"><ele>513.0</ele><time>2026-04-18T12:35:25.788Z</time></trkpt><trkpt lat="41.93834" lon="-8.0939933"><ele>515.1999999999999</ele><time>2026-04-18T12:35:26.786Z</time></trkpt><trkpt lat="41.9382467" lon="-8.094015"><ele>517.4</ele><time>2026-04-18T12:35:27.788Z</time></trkpt><trkpt lat="41.9381433" lon="-8.0940183"><ele>519.5999999999999</ele><time>2026-04-18T12:35:28.786Z</time></trkpt><trkpt lat="41.9380383" lon="-8.0940233"><ele>521.8</ele><time>2026-04-18T12:35:29.786Z</time></trkpt><trkpt lat="41.9379283" lon="-8.094035"><ele>524.0</ele><time>2026-04-18T12:35:30.787Z</time></trkpt><trkpt lat="41.937815" lon="-8.0940617"><ele>522.6</ele><time>2026-04-18T12:35:31.787Z</time></trkpt><trkpt lat="41.9377133" lon="-8.094115"><ele>521.2</ele><time>2026-04-18T12:35:32.787Z</time></trkpt><trkpt lat="41.937605" lon="-8.094165"><ele>519.8000000000001</ele><time>2026-04-18T12:35:33.787Z</time></trkpt><trkpt lat="41.9375017" lon="-8.0941983"><ele>518.4</ele><time>2026-04-18T12:35:34.789Z</time></trkpt><trkpt lat="41.9374" lon="-8.0942017"><ele>517.0</ele><time>2026-04-18T12:35:35.788Z</time></trkpt><trkpt lat="41.9372933" lon="-8.094175"><ele>517.0</ele><time>2026-04-18T12:35:36.788Z</time></trkpt><trkpt lat="41.937195" lon="-8.0941333"><ele>517.0</ele><time>2026-04-18T12:35:37.788Z</time></trkpt><trkpt lat="41.9370833" lon="-8.0940817"><ele>517.0</ele><time>2026-04-18T12:35:38.788Z</time></trkpt><trkpt lat="41.9369683" lon="-8.094045"><ele>517.0</ele><time>2026-04-18T12:35:39.788Z</time></trkpt><trkpt lat="41.9368533" lon="-8.0940367"><ele>518.0</ele><time>2026-04-18T12:35:40.786Z</time></trkpt><trkpt lat="41.9367417" lon="-8.0940483"><ele>519.0</ele><time>2026-04-18T12:35:41.786Z</time></trkpt><trkpt lat="41.9366333" lon="-8.0940783"><ele>520.0</ele><time>2026-04-18T12:35:42.786Z</time></trkpt><trkpt lat="41.9365233" lon="-8.0941233"><ele>521.0</ele><time>2026-04-18T12:35:43.787Z</time></trkpt><trkpt lat="41.936415" lon="-8.094175"><ele>521.0</ele><time>2026-04-18T12:35:44.787Z</time></trkpt><trkpt lat="41.936305" lon="-8.09423"><ele>521.0</ele><time>2026-04-18T12:35:45.789Z</time></trkpt><trkpt lat="41.93619" lon="-8.0942867"><ele>521.0</ele><time>2026-04-18T12:35:46.786Z</time></trkpt><trkpt lat="41.9360667" lon="-8.0943417"><ele>521.0</ele><time>2026-04-18T12:35:47.786Z</time></trkpt><trkpt lat="41.9359383" lon="-8.0943967"><ele>522.4</ele><time>2026-04-18T12:35:48.787Z</time></trkpt><trkpt lat="41.9358167" lon="-8.094445"><ele>523.8</ele><time>2026-04-18T12:35:49.787Z</time></trkpt><trkpt lat="41.9357067" lon="-8.09448"><ele>525.1999999999999</ele><time>2026-04-18T12:35:50.786Z</time></trkpt><trkpt lat="41.9356133" lon="-8.0945017"><ele>526.6</ele><time>2026-04-18T12:35:51.786Z</time></trkpt><trkpt lat="41.9355383" lon="-8.094525"><ele>528.0</ele><time>2026-04-18T12:35:52.787Z</time></trkpt><trkpt lat="41.93547" lon="-8.0945583"><ele>528.0</ele><time>2026-04-18T12:35:53.786Z</time></trkpt><trkpt lat="41.9354167" lon="-8.0946083"><ele>528.0</ele><time>2026-04-18T12:35:54.787Z</time></trkpt><trkpt lat="41.9353633" lon="-8.0946683"><ele>528.0</ele><time>2026-04-18T12:35:55.787Z</time></trkpt><trkpt lat="41.93531" lon="-8.0947383"><ele>528.0</ele><time>2026-04-18T12:35:56.788Z</time></trkpt><trkpt lat="41.935255" lon="-8.0948083"><ele>528.0</ele><time>2026-04-18T12:35:57.787Z</time></trkpt><trkpt lat="41.9351933" lon="-8.0948833"><ele>528.0</ele><time>2026-04-18T12:35:58.787Z</time></trkpt><trkpt lat="41.9351267" lon="-8.0949617"><ele>527.4</ele><time>2026-04-18T12:35:59.786Z</time></trkpt><trkpt lat="41.9350583" lon="-8.09505"><ele>526.8</ele><time>2026-04-18T12:36:00.787Z</time></trkpt><trkpt lat="41.935005" lon="-8.0951517"><ele>526.2</ele><time>2026-04-18T12:36:01.787Z</time></trkpt><trkpt lat="41.93496" lon="-8.0952617"><ele>525.6</ele><time>2026-04-18T12:36:02.789Z</time></trkpt><trkpt lat="41.9349167" lon="-8.0953767"><ele>525.0</ele><time>2026-04-18T12:36:03.788Z</time></trkpt><trkpt lat="41.9348667" lon="-8.095485"><ele>525.0</ele><time>2026-04-18T12:36:04.786Z</time></trkpt><trkpt lat="41.9348" lon="-8.09558"><ele>525.0</ele><time>2026-04-18T12:36:05.786Z</time></trkpt><trkpt lat="41.9347317" lon="-8.0956533"><ele>525.0</ele><time>2026-04-18T12:36:06.786Z</time></trkpt><trkpt lat="41.93464" lon="-8.0957067"><ele>525.0</ele><time>2026-04-18T12:36:07.788Z</time></trkpt><trkpt lat="41.9345383" lon="-8.0957467"><ele>525.0</ele><time>2026-04-18T12:36:08.788Z</time></trkpt><trkpt lat="41.934435" lon="-8.0957767"><ele>526.0</ele><time>2026-04-18T12:36:09.786Z</time></trkpt><trkpt lat="41.9343383" lon="-8.0958033"><ele>527.0</ele><time>2026-04-18T12:36:10.786Z</time></trkpt><trkpt lat="41.9342417" lon="-8.0958267"><ele>528.0</ele><time>2026-04-18T12:36:11.788Z</time></trkpt><trkpt lat="41.93414" lon="-8.09584"><ele>529.0</ele><time>2026-04-18T12:36:12.788Z</time></trkpt><trkpt lat="41.934045" lon="-8.0958467"><ele>530.0</ele><time>2026-04-18T12:36:13.788Z</time></trkpt><trkpt lat="41.9339517" lon="-8.09585"><ele>530.0</ele><time>2026-04-18T12:36:14.789Z</time></trkpt><trkpt lat="41.9338517" lon="-8.095855"><ele>530.0</ele><time>2026-04-18T12:36:15.788Z</time></trkpt><trkpt lat="41.93375" lon="-8.0958633"><ele>530.0</ele><time>2026-04-18T12:36:16.788Z</time></trkpt><trkpt lat="41.9336367" lon="-8.0958767"><ele>530.0</ele><time>2026-04-18T12:36:17.786Z</time></trkpt><trkpt lat="41.9335217" lon="-8.095885"><ele>530.0</ele><time>2026-04-18T12:36:18.786Z</time></trkpt><trkpt lat="41.9334117" lon="-8.0958983"><ele>529.6</ele><time>2026-04-18T12:36:19.786Z</time></trkpt><trkpt lat="41.93331" lon="-8.0959033"><ele>529.2</ele><time>2026-04-18T12:36:20.787Z</time></trkpt><trkpt lat="41.9332183" lon="-8.0959033"><ele>528.8</ele><time>2026-04-18T12:36:21.787Z</time></trkpt><trkpt lat="41.9331317" lon="-8.0958983"><ele>528.4</ele><time>2026-04-18T12:36:22.786Z</time></trkpt><trkpt lat="41.933045" lon="-8.09587"><ele>528.0</ele><time>2026-04-18T12:36:23.786Z</time></trkpt><trkpt lat="41.9329417" lon="-8.09581"><ele>529.6</ele><time>2026-04-18T12:36:24.788Z</time></trkpt><trkpt lat="41.9328417" lon="-8.09574"><ele>531.1999999999999</ele><time>2026-04-18T12:36:25.787Z</time></trkpt><trkpt lat="41.9327483" lon="-8.0956667"><ele>532.8</ele><time>2026-04-18T12:36:26.789Z</time></trkpt><trkpt lat="41.932655" lon="-8.0956033"><ele>534.4</ele><time>2026-04-18T12:36:27.789Z</time></trkpt><trkpt lat="41.9325667" lon="-8.09557"><ele>536.0</ele><time>2026-04-18T12:36:28.786Z</time></trkpt><trkpt lat="41.932485" lon="-8.0955567"><ele>536.0</ele><time>2026-04-18T12:36:29.789Z</time></trkpt><trkpt lat="41.932405" lon="-8.0955567"><ele>536.0</ele><time>2026-04-18T12:36:30.789Z</time></trkpt><trkpt lat="41.9323433" lon="-8.095605"><ele>536.0</ele><time>2026-04-18T12:36:31.786Z</time></trkpt><trkpt lat="41.9322633" lon="-8.0956533"><ele>536.0</ele><time>2026-04-18T12:36:32.787Z</time></trkpt><trkpt lat="41.9321817" lon="-8.09575"><ele>536.0</ele><time>2026-04-18T12:36:33.786Z</time></trkpt><trkpt lat="41.9321133" lon="-8.0959367"><ele>532.5</ele><time>2026-04-18T12:36:34.786Z</time></trkpt><trkpt lat="41.9320467" lon="-8.09611"><ele>529.0</ele><time>2026-04-18T12:36:35.787Z</time></trkpt><trkpt lat="41.931975" lon="-8.096245"><ele>525.5</ele><time>2026-04-18T12:36:36.786Z</time></trkpt><trkpt lat="41.9318917" lon="-8.096345"><ele>522.0</ele><time>2026-04-18T12:36:37.786Z</time></trkpt><trkpt lat="41.9317867" lon="-8.0964117"><ele>524.8333333333334</ele><time>2026-04-18T12:36:38.785Z</time></trkpt><trkpt lat="41.93169" lon="-8.09645"><ele>527.6666666666666</ele><time>2026-04-18T12:36:39.786Z</time></trkpt><trkpt lat="41.9316083" lon="-8.0964717"><ele>530.5</ele><time>2026-04-18T12:36:40.784Z</time></trkpt><trkpt lat="41.9315433" lon="-8.0964883"><ele>533.3333333333333</ele><time>2026-04-18T12:36:41.787Z</time></trkpt><trkpt lat="41.9314367" lon="-8.0965133"><ele>536.1666666666666</ele><time>2026-04-18T12:36:43.786Z</time></trkpt><trkpt lat="41.9313617" lon="-8.0965267"><ele>539.0</ele><time>2026-04-18T12:36:45.787Z</time></trkpt><trkpt lat="41.9312933" lon="-8.0965217"><ele>539.0</ele><time>2026-04-18T12:36:48.787Z</time></trkpt><trkpt lat="41.9311967" lon="-8.0964867"><ele>539.0</ele><time>2026-04-18T12:36:50.785Z</time></trkpt><trkpt lat="41.9311267" lon="-8.0964767"><ele>539.0</ele><time>2026-04-18T12:36:51.787Z</time></trkpt><trkpt lat="41.931045" lon="-8.0964667"><ele>539.0</ele><time>2026-04-18T12:36:52.786Z</time></trkpt><trkpt lat="41.9309517" lon="-8.0964617"><ele>539.0</ele><time>2026-04-18T12:36:53.787Z</time></trkpt><trkpt lat="41.930855" lon="-8.09646"><ele>539.0</ele><time>2026-04-18T12:36:54.789Z</time></trkpt><trkpt lat="41.9307583" lon="-8.09646"><ele>538.8</ele><time>2026-04-18T12:36:55.788Z</time></trkpt><trkpt lat="41.9306533" lon="-8.0964567"><ele>538.5999999999999</ele><time>2026-04-18T12:36:56.79Z</time></trkpt><trkpt lat="41.9305483" lon="-8.09645"><ele>538.4</ele><time>2026-04-18T12:36:57.788Z</time></trkpt><trkpt lat="41.930435" lon="-8.0964333"><ele>538.1999999999999</ele><time>2026-04-18T12:36:58.789Z</time></trkpt><trkpt lat="41.9303133" lon="-8.09641"><ele>538.0</ele><time>2026-04-18T12:36:59.788Z</time></trkpt><trkpt lat="41.9301867" lon="-8.0963883"><ele>537.25</ele><time>2026-04-18T12:37:00.788Z</time></trkpt><trkpt lat="41.9300567" lon="-8.0963717"><ele>536.5</ele><time>2026-04-18T12:37:01.788Z</time></trkpt><trkpt lat="41.9299217" lon="-8.0963633"><ele>535.75</ele><time>2026-04-18T12:37:02.788Z</time></trkpt><trkpt lat="41.9297917" lon="-8.096365"><ele>535.0</ele><time>2026-04-18T12:37:03.788Z</time></trkpt><trkpt lat="41.9296583" lon="-8.0963767"><ele>535.0</ele><time>2026-04-18T12:37:04.788Z</time></trkpt><trkpt lat="41.9295183" lon="-8.0964017"><ele>535.0</ele><time>2026-04-18T12:37:05.788Z</time></trkpt><trkpt lat="41.9293783" lon="-8.0964333"><ele>535.0</ele><time>2026-04-18T12:37:06.787Z</time></trkpt><trkpt lat="41.9292367" lon="-8.0964717"><ele>535.0</ele><time>2026-04-18T12:37:07.786Z</time></trkpt><trkpt lat="41.9290917" lon="-8.09651"><ele>533.5</ele><time>2026-04-18T12:37:08.787Z</time></trkpt><trkpt lat="41.92895" lon="-8.0965533"><ele>532.0</ele><time>2026-04-18T12:37:09.787Z</time></trkpt><trkpt lat="41.92881" lon="-8.0966017"><ele>530.5</ele><time>2026-04-18T12:37:10.786Z</time></trkpt><trkpt lat="41.9286717" lon="-8.0966467"><ele>529.0</ele><time>2026-04-18T12:37:11.788Z</time></trkpt><trkpt lat="41.92854" lon="-8.0966933"><ele>528.25</ele><time>2026-04-18T12:37:12.788Z</time></trkpt><trkpt lat="41.9284183" lon="-8.0967433"><ele>527.5</ele><time>2026-04-18T12:37:13.788Z</time></trkpt><trkpt lat="41.9282983" lon="-8.0967933"><ele>526.75</ele><time>2026-04-18T12:37:14.789Z</time></trkpt><trkpt lat="41.9281733" lon="-8.0968367"><ele>526.0</ele><time>2026-04-18T12:37:15.788Z</time></trkpt><trkpt lat="41.9280433" lon="-8.096875"><ele>526.0</ele><time>2026-04-18T12:37:16.788Z</time></trkpt><trkpt lat="41.9279133" lon="-8.0969083"><ele>526.0</ele><time>2026-04-18T12:37:17.786Z</time></trkpt><trkpt lat="41.9277717" lon="-8.0969317"><ele>526.0</ele><time>2026-04-18T12:37:18.787Z</time></trkpt><trkpt lat="41.9276333" lon="-8.0969533"><ele>526.0</ele><time>2026-04-18T12:37:19.786Z</time></trkpt><trkpt lat="41.9275" lon="-8.09698"><ele>524.5</ele><time>2026-04-18T12:37:20.786Z</time></trkpt><trkpt lat="41.927375" lon="-8.097"><ele>523.0</ele><time>2026-04-18T12:37:21.787Z</time></trkpt><trkpt lat="41.927255" lon="-8.0970133"><ele>521.5</ele><time>2026-04-18T12:37:22.786Z</time></trkpt><trkpt lat="41.927125" lon="-8.0970133"><ele>520.0</ele><time>2026-04-18T12:37:23.787Z</time></trkpt><trkpt lat="41.9269933" lon="-8.0969933"><ele>520.0</ele><time>2026-04-18T12:37:24.788Z</time></trkpt><trkpt lat="41.9268617" lon="-8.0969533"><ele>520.0</ele><time>2026-04-18T12:37:25.789Z</time></trkpt><trkpt lat="41.92673" lon="-8.0968983"><ele>520.0</ele><time>2026-04-18T12:37:26.789Z</time></trkpt><trkpt lat="41.926605" lon="-8.0968433"><ele>520.0</ele><time>2026-04-18T12:37:27.786Z</time></trkpt><trkpt lat="41.9264933" lon="-8.0967967"><ele>519.25</ele><time>2026-04-18T12:37:28.787Z</time></trkpt><trkpt lat="41.9263783" lon="-8.0967833"><ele>518.5</ele><time>2026-04-18T12:37:29.786Z</time></trkpt><trkpt lat="41.9262583" lon="-8.096805"><ele>517.75</ele><time>2026-04-18T12:37:30.79Z</time></trkpt><trkpt lat="41.9261317" lon="-8.09684"><ele>517.0</ele><time>2026-04-18T12:37:31.786Z</time></trkpt><trkpt lat="41.926" lon="-8.0968767"><ele>516.0</ele><time>2026-04-18T12:37:32.786Z</time></trkpt><trkpt lat="41.9258633" lon="-8.0969117"><ele>515.0</ele><time>2026-04-18T12:37:33.789Z</time></trkpt><trkpt lat="41.925725" lon="-8.0969433"><ele>514.0</ele><time>2026-04-18T12:37:34.786Z</time></trkpt><trkpt lat="41.92559" lon="-8.0969617"><ele>513.0</ele><time>2026-04-18T12:37:35.788Z</time></trkpt><trkpt lat="41.92545" lon="-8.09695"><ele>513.0</ele><time>2026-04-18T12:37:36.788Z</time></trkpt><trkpt lat="41.92531" lon="-8.0969283"><ele>513.0</ele><time>2026-04-18T12:37:37.787Z</time></trkpt><trkpt lat="41.925165" lon="-8.0969167"><ele>513.0</ele><time>2026-04-18T12:37:38.788Z</time></trkpt><trkpt lat="41.92503" lon="-8.0969167"><ele>513.0</ele><time>2026-04-18T12:37:39.787Z</time></trkpt><trkpt lat="41.9249067" lon="-8.0969283"><ele>512.6</ele><time>2026-04-18T12:37:40.789Z</time></trkpt><trkpt lat="41.9247983" lon="-8.0969683"><ele>512.1999999999999</ele><time>2026-04-18T12:37:41.787Z</time></trkpt><trkpt lat="41.92471" lon="-8.09703"><ele>511.8</ele><time>2026-04-18T12:37:42.788Z</time></trkpt><trkpt lat="41.924645" lon="-8.09712"><ele>511.4</ele><time>2026-04-18T12:37:43.786Z</time></trkpt><trkpt lat="41.9245917" lon="-8.097235"><ele>511.0</ele><time>2026-04-18T12:37:44.787Z</time></trkpt><trkpt lat="41.924535" lon="-8.0973717"><ele>510.20000000000005</ele><time>2026-04-18T12:37:45.788Z</time></trkpt><trkpt lat="41.9244667" lon="-8.0975"><ele>509.40000000000003</ele><time>2026-04-18T12:37:46.787Z</time></trkpt><trkpt lat="41.92439" lon="-8.097605"><ele>508.6</ele><time>2026-04-18T12:37:47.788Z</time></trkpt><trkpt lat="41.9243067" lon="-8.0976967"><ele>507.8</ele><time>2026-04-18T12:37:48.788Z</time></trkpt><trkpt lat="41.92422" lon="-8.09778"><ele>507.0</ele><time>2026-04-18T12:37:49.788Z</time></trkpt><trkpt lat="41.9241367" lon="-8.0978533"><ele>507.0</ele><time>2026-04-18T12:37:50.789Z</time></trkpt><trkpt lat="41.9240517" lon="-8.0979117"><ele>507.00000000000006</ele><time>2026-04-18T12:37:51.789Z</time></trkpt><trkpt lat="41.923965" lon="-8.0979517"><ele>507.00000000000006</ele><time>2026-04-18T12:37:52.788Z</time></trkpt><trkpt lat="41.9238867" lon="-8.0979717"><ele>507.0</ele><time>2026-04-18T12:37:53.788Z</time></trkpt><trkpt lat="41.923815" lon="-8.0979783"><ele>507.0</ele><time>2026-04-18T12:37:54.788Z</time></trkpt><trkpt lat="41.9237" lon="-8.0979767"><ele>507.0</ele><time>2026-04-18T12:37:56.789Z</time></trkpt><trkpt lat="41.9235667" lon="-8.0979917"><ele>507.00000000000006</ele><time>2026-04-18T12:37:58.789Z</time></trkpt><trkpt lat="41.9234817" lon="-8.0980067"><ele>507.00000000000006</ele><time>2026-04-18T12:37:59.786Z</time></trkpt><trkpt lat="41.9233833" lon="-8.0980183"><ele>507.0</ele><time>2026-04-18T12:38:00.786Z</time></trkpt><trkpt lat="41.9232883" lon="-8.098025"><ele>507.0</ele><time>2026-04-18T12:38:01.786Z</time></trkpt><trkpt lat="41.9231967" lon="-8.09803"><ele>507.0</ele><time>2026-04-18T12:38:02.788Z</time></trkpt><trkpt lat="41.923115" lon="-8.0980267"><ele>507.0</ele><time>2026-04-18T12:38:03.784Z</time></trkpt><trkpt lat="41.9230417" lon="-8.0980333"><ele>507.0</ele><time>2026-04-18T12:38:04.786Z</time></trkpt><trkpt lat="41.9229767" lon="-8.0980717"><ele>507.0</ele><time>2026-04-18T12:38:05.786Z</time></trkpt><trkpt lat="41.92293" lon="-8.09815"><ele>507.0</ele><time>2026-04-18T12:38:06.79Z</time></trkpt><trkpt lat="41.9229033" lon="-8.0982433"><ele>507.0</ele><time>2026-04-18T12:38:07.785Z</time></trkpt><trkpt lat="41.922885" lon="-8.0983367"><ele>507.0</ele><time>2026-04-18T12:38:08.79Z</time></trkpt><trkpt lat="41.922885" lon="-8.0984417"><ele>508.75</ele><time>2026-04-18T12:38:09.788Z</time></trkpt><trkpt lat="41.9229567" lon="-8.0985967"><ele>510.5</ele><time>2026-04-18T12:38:10.788Z</time></trkpt><trkpt lat="41.9230167" lon="-8.098745"><ele>512.25</ele><time>2026-04-18T12:38:11.787Z</time></trkpt><trkpt lat="41.923065" lon="-8.0988817"><ele>514.0</ele><time>2026-04-18T12:38:12.79Z</time></trkpt><trkpt lat="41.9230967" lon="-8.0990133"><ele>513.8</ele><time>2026-04-18T12:38:13.789Z</time></trkpt><trkpt lat="41.923105" lon="-8.0991383"><ele>513.5999999999999</ele><time>2026-04-18T12:38:14.789Z</time></trkpt><trkpt lat="41.9230967" lon="-8.099255"><ele>513.4</ele><time>2026-04-18T12:38:15.787Z</time></trkpt><trkpt lat="41.9230633" lon="-8.0993717"><ele>513.1999999999999</ele><time>2026-04-18T12:38:16.788Z</time></trkpt><trkpt lat="41.923" lon="-8.0994783"><ele>513.0</ele><time>2026-04-18T12:38:17.789Z</time></trkpt><trkpt lat="41.9229167" lon="-8.0995683"><ele>513.0</ele><time>2026-04-18T12:38:18.789Z</time></trkpt><trkpt lat="41.9228283" lon="-8.0996467"><ele>513.0</ele><time>2026-04-18T12:38:19.788Z</time></trkpt><trkpt lat="41.9227333" lon="-8.099715"><ele>513.0</ele><time>2026-04-18T12:38:20.789Z</time></trkpt><trkpt lat="41.9226317" lon="-8.0997633"><ele>513.0</ele><time>2026-04-18T12:38:21.788Z</time></trkpt><trkpt lat="41.9225283" lon="-8.0997883"><ele>513.0</ele><time>2026-04-18T12:38:22.789Z</time></trkpt><trkpt lat="41.9224317" lon="-8.099795"><ele>512.6666666666666</ele><time>2026-04-18T12:38:23.787Z</time></trkpt><trkpt lat="41.9223467" lon="-8.099785"><ele>512.3333333333334</ele><time>2026-04-18T12:38:24.789Z</time></trkpt><trkpt lat="41.92227" lon="-8.099775"><ele>512.0</ele><time>2026-04-18T12:38:25.788Z</time></trkpt><trkpt lat="41.9222017" lon="-8.0997717"><ele>511.6666666666667</ele><time>2026-04-18T12:38:26.789Z</time></trkpt><trkpt lat="41.9221317" lon="-8.0997783"><ele>511.33333333333337</ele><time>2026-04-18T12:38:27.788Z</time></trkpt><trkpt lat="41.9220517" lon="-8.099785"><ele>511.0</ele><time>2026-04-18T12:38:28.785Z</time></trkpt><trkpt lat="41.9219717" lon="-8.0997817"><ele>511.0</ele><time>2026-04-18T12:38:29.787Z</time></trkpt><trkpt lat="41.9218883" lon="-8.0997667"><ele>511.0</ele><time>2026-04-18T12:38:30.789Z</time></trkpt><trkpt lat="41.921795" lon="-8.099735"><ele>511.0</ele><time>2026-04-18T12:38:31.788Z</time></trkpt><trkpt lat="41.9217033" lon="-8.0997"><ele>511.0</ele><time>2026-04-18T12:38:32.788Z</time></trkpt><trkpt lat="41.921605" lon="-8.0996667"><ele>511.0</ele><time>2026-04-18T12:38:33.788Z</time></trkpt><trkpt lat="41.921505" lon="-8.0996333"><ele>509.0</ele><time>2026-04-18T12:38:34.788Z</time></trkpt><trkpt lat="41.9214067" lon="-8.099605"><ele>507.0</ele><time>2026-04-18T12:38:35.787Z</time></trkpt><trkpt lat="41.9213083" lon="-8.099575"><ele>505.0</ele><time>2026-04-18T12:38:36.787Z</time></trkpt><trkpt lat="41.9212133" lon="-8.0995417"><ele>503.0</ele><time>2026-04-18T12:38:37.788Z</time></trkpt><trkpt lat="41.921125" lon="-8.09951"><ele>501.0</ele><time>2026-04-18T12:38:38.786Z</time></trkpt><trkpt lat="41.9210367" lon="-8.0994783"><ele>501.0</ele><time>2026-04-18T12:38:39.788Z</time></trkpt><trkpt lat="41.9209583" lon="-8.0994533"><ele>501.0</ele><time>2026-04-18T12:38:40.788Z</time></trkpt><trkpt lat="41.92088" lon="-8.099435"><ele>501.0</ele><time>2026-04-18T12:38:41.788Z</time></trkpt><trkpt lat="41.92081" lon="-8.09943"><ele>501.0</ele><time>2026-04-18T12:38:42.788Z</time></trkpt><trkpt lat="41.9207117" lon="-8.0994383"><ele>501.0</ele><time>2026-04-18T12:38:44.788Z</time></trkpt><trkpt lat="41.9206533" lon="-8.0994767"><ele>501.0</ele><time>2026-04-18T12:38:47.788Z</time></trkpt><trkpt lat="41.9205667" lon="-8.0995083"><ele>499.8333333333333</ele><time>2026-04-18T12:38:49.786Z</time></trkpt><trkpt lat="41.9204567" lon="-8.0995267"><ele>498.66666666666663</ele><time>2026-04-18T12:38:51.788Z</time></trkpt><trkpt lat="41.9203917" lon="-8.0995467"><ele>497.5</ele><time>2026-04-18T12:38:52.788Z</time></trkpt><trkpt lat="41.9203217" lon="-8.0995733"><ele>496.3333333333333</ele><time>2026-04-18T12:38:53.787Z</time></trkpt><trkpt lat="41.92025" lon="-8.099605"><ele>495.16666666666663</ele><time>2026-04-18T12:38:54.788Z</time></trkpt><trkpt lat="41.920175" lon="-8.0996383"><ele>494.0</ele><time>2026-04-18T12:38:55.789Z</time></trkpt><trkpt lat="41.920095" lon="-8.0996717"><ele>493.79999999999995</ele><time>2026-04-18T12:38:56.79Z</time></trkpt><trkpt lat="41.9200117" lon="-8.0997"><ele>493.59999999999997</ele><time>2026-04-18T12:38:57.786Z</time></trkpt><trkpt lat="41.9199233" lon="-8.0997283"><ele>493.4</ele><time>2026-04-18T12:38:58.785Z</time></trkpt><trkpt lat="41.9198283" lon="-8.0997583"><ele>493.2</ele><time>2026-04-18T12:38:59.786Z</time></trkpt><trkpt lat="41.9197333" lon="-8.0997933"><ele>493.0</ele><time>2026-04-18T12:39:00.785Z</time></trkpt><trkpt lat="41.9196383" lon="-8.0998267"><ele>493.00000000000006</ele><time>2026-04-18T12:39:01.784Z</time></trkpt><trkpt lat="41.919545" lon="-8.09986"><ele>493.0</ele><time>2026-04-18T12:39:02.786Z</time></trkpt><trkpt lat="41.9194567" lon="-8.0998883"><ele>493.0</ele><time>2026-04-18T12:39:03.786Z</time></trkpt><trkpt lat="41.9193783" lon="-8.0999183"><ele>493.0</ele><time>2026-04-18T12:39:04.787Z</time></trkpt><trkpt lat="41.9193067" lon="-8.0999433"><ele>493.00000000000006</ele><time>2026-04-18T12:39:05.785Z</time></trkpt><trkpt lat="41.9192433" lon="-8.0999683"><ele>493.0</ele><time>2026-04-18T12:39:06.786Z</time></trkpt><trkpt lat="41.9191467" lon="-8.1000133"><ele>493.0</ele><time>2026-04-18T12:39:08.786Z</time></trkpt><trkpt lat="41.91908" lon="-8.1000483"><ele>492.99999999999994</ele><time>2026-04-18T12:41:11.786Z</time></trkpt><trkpt lat="41.9190917" lon="-8.0999583"><ele>492.99999999999994</ele><time>2026-04-18T12:41:14.789Z</time></trkpt><trkpt lat="41.9191633" lon="-8.0999133"><ele>493.0</ele><time>2026-04-18T12:41:16.788Z</time></trkpt><trkpt lat="41.9193" lon="-8.0998433"><ele>493.0</ele><time>2026-04-18T12:41:18.787Z</time></trkpt><trkpt lat="41.91941" lon="-8.0997967"><ele>493.0</ele><time>2026-04-18T12:41:19.785Z</time></trkpt><trkpt lat="41.9195567" lon="-8.0997533"><ele>493.0</ele><time>2026-04-18T12:41:20.789Z</time></trkpt><trkpt lat="41.919685" lon="-8.0997167"><ele>493.0</ele><time>2026-04-18T12:41:21.786Z</time></trkpt><trkpt lat="41.9197967" lon="-8.09968"><ele>493.0</ele><time>2026-04-18T12:41:22.787Z</time></trkpt><trkpt lat="41.9199" lon="-8.0996433"><ele>493.0</ele><time>2026-04-18T12:41:23.787Z</time></trkpt><trkpt lat="41.9200033" lon="-8.0996067"><ele>492.99999999999994</ele><time>2026-04-18T12:41:24.787Z</time></trkpt><trkpt lat="41.9201117" lon="-8.099565"><ele>492.99999999999994</ele><time>2026-04-18T12:41:25.788Z</time></trkpt><trkpt lat="41.9202217" lon="-8.0995283"><ele>493.0</ele><time>2026-04-18T12:41:26.787Z</time></trkpt><trkpt lat="41.9203217" lon="-8.0994967"><ele>493.0</ele><time>2026-04-18T12:41:27.788Z</time></trkpt><trkpt lat="41.9204033" lon="-8.0994717"><ele>493.1666666666667</ele><time>2026-04-18T12:41:28.788Z</time></trkpt><trkpt lat="41.9204733" lon="-8.0994517"><ele>493.33333333333337</ele><time>2026-04-18T12:41:29.785Z</time></trkpt><trkpt lat="41.92057" lon="-8.0994017"><ele>493.5</ele><time>2026-04-18T12:41:31.788Z</time></trkpt><trkpt lat="41.9206067" lon="-8.099305"><ele>493.66666666666663</ele><time>2026-04-18T12:41:34.786Z</time></trkpt><trkpt lat="41.9205683" lon="-8.0992333"><ele>493.8333333333333</ele><time>2026-04-18T12:41:37.787Z</time></trkpt><trkpt lat="41.9205367" lon="-8.0991517"><ele>494.0</ele><time>2026-04-18T12:41:41.789Z</time></trkpt><trkpt lat="41.9206" lon="-8.099205"><ele>493.99999999999994</ele><time>2026-04-18T14:32:12.786Z</time></trkpt><trkpt lat="41.92063" lon="-8.09928"><ele>494.0</ele><time>2026-04-18T14:32:14.786Z</time></trkpt><trkpt lat="41.92064" lon="-8.0993683"><ele>494.0</ele><time>2026-04-18T14:32:16.788Z</time></trkpt><trkpt lat="41.920605" lon="-8.099455"><ele>494.0</ele><time>2026-04-18T14:32:18.788Z</time></trkpt><trkpt lat="41.9204967" lon="-8.0995183"><ele>493.99999999999994</ele><time>2026-04-18T14:32:20.79Z</time></trkpt><trkpt lat="41.92042" lon="-8.09955"><ele>494.0</ele><time>2026-04-18T14:32:21.787Z</time></trkpt><trkpt lat="41.9203383" lon="-8.0995817"><ele>494.0</ele><time>2026-04-18T14:32:22.788Z</time></trkpt><trkpt lat="41.920245" lon="-8.0996117"><ele>494.0</ele><time>2026-04-18T14:32:23.788Z</time></trkpt><trkpt lat="41.9201483" lon="-8.099645"><ele>494.0</ele><time>2026-04-18T14:32:24.789Z</time></trkpt><trkpt lat="41.92005" lon="-8.0996783"><ele>494.0</ele><time>2026-04-18T14:32:25.788Z</time></trkpt><trkpt lat="41.91995" lon="-8.09971"><ele>494.0</ele><time>2026-04-18T14:32:26.789Z</time></trkpt><trkpt lat="41.9198483" lon="-8.0997433"><ele>493.79999999999995</ele><time>2026-04-18T14:32:27.788Z</time></trkpt><trkpt lat="41.9197467" lon="-8.09978"><ele>493.59999999999997</ele><time>2026-04-18T14:32:28.785Z</time></trkpt><trkpt lat="41.9196433" lon="-8.0998167"><ele>493.4</ele><time>2026-04-18T14:32:29.787Z</time></trkpt><trkpt lat="41.91954" lon="-8.099855"><ele>493.2</ele><time>2026-04-18T14:32:30.786Z</time></trkpt><trkpt lat="41.919435" lon="-8.0998917"><ele>493.0</ele><time>2026-04-18T14:32:31.786Z</time></trkpt><trkpt lat="41.9193333" lon="-8.09993"><ele>492.0</ele><time>2026-04-18T14:32:32.785Z</time></trkpt><trkpt lat="41.9192283" lon="-8.0999683"><ele>490.99999999999994</ele><time>2026-04-18T14:32:33.787Z</time></trkpt><trkpt lat="41.91912" lon="-8.1000067"><ele>489.99999999999994</ele><time>2026-04-18T14:32:34.785Z</time></trkpt><trkpt lat="41.9190133" lon="-8.100045"><ele>489.0</ele><time>2026-04-18T14:32:35.786Z</time></trkpt><trkpt lat="41.9189067" lon="-8.1000833"><ele>488.0</ele><time>2026-04-18T14:32:36.784Z</time></trkpt><trkpt lat="41.9187967" lon="-8.100125"><ele>488.0</ele><time>2026-04-18T14:32:37.786Z</time></trkpt><trkpt lat="41.918685" lon="-8.1001667"><ele>488.0</ele><time>2026-04-18T14:32:38.787Z</time></trkpt><trkpt lat="41.918565" lon="-8.1002067"><ele>488.0</ele><time>2026-04-18T14:32:39.786Z</time></trkpt><trkpt lat="41.918445" lon="-8.10024"><ele>488.0</ele><time>2026-04-18T14:32:40.788Z</time></trkpt><trkpt lat="41.9183267" lon="-8.1002583"><ele>487.5</ele><time>2026-04-18T14:32:41.788Z</time></trkpt><trkpt lat="41.9182083" lon="-8.100265"><ele>487.0</ele><time>2026-04-18T14:32:42.788Z</time></trkpt><trkpt lat="41.9180883" lon="-8.10025"><ele>486.5</ele><time>2026-04-18T14:32:43.786Z</time></trkpt><trkpt lat="41.917965" lon="-8.1002133"><ele>486.0</ele><time>2026-04-18T14:32:44.79Z</time></trkpt><trkpt lat="41.917845" lon="-8.100145"><ele>486.0</ele><time>2026-04-18T14:32:45.787Z</time></trkpt><trkpt lat="41.9177333" lon="-8.1000467"><ele>486.0</ele><time>2026-04-18T14:32:46.786Z</time></trkpt><trkpt lat="41.917625" lon="-8.0999367"><ele>486.0</ele><time>2026-04-18T14:32:47.788Z</time></trkpt><trkpt lat="41.9175283" lon="-8.0998267"><ele>486.0</ele><time>2026-04-18T14:32:48.788Z</time></trkpt><trkpt lat="41.9174383" lon="-8.0997217"><ele>484.8</ele><time>2026-04-18T14:32:49.788Z</time></trkpt><trkpt lat="41.9173517" lon="-8.0996217"><ele>483.6</ele><time>2026-04-18T14:32:50.788Z</time></trkpt><trkpt lat="41.91727" lon="-8.099525"><ele>482.4</ele><time>2026-04-18T14:32:51.788Z</time></trkpt><trkpt lat="41.9171917" lon="-8.0994383"><ele>481.2</ele><time>2026-04-18T14:32:52.788Z</time></trkpt><trkpt lat="41.917115" lon="-8.099355"><ele>480.0</ele><time>2026-04-18T14:32:53.787Z</time></trkpt><trkpt lat="41.9170433" lon="-8.0992817"><ele>480.0</ele><time>2026-04-18T14:32:54.788Z</time></trkpt><trkpt lat="41.916975" lon="-8.09922"><ele>480.0</ele><time>2026-04-18T14:32:55.787Z</time></trkpt><trkpt lat="41.9169067" lon="-8.099165"><ele>480.0</ele><time>2026-04-18T14:32:56.79Z</time></trkpt><trkpt lat="41.916835" lon="-8.0991183"><ele>480.0</ele><time>2026-04-18T14:32:57.788Z</time></trkpt><trkpt lat="41.9167683" lon="-8.0990667"><ele>480.0</ele><time>2026-04-18T14:32:58.786Z</time></trkpt><trkpt lat="41.9166967" lon="-8.099025"><ele>480.0</ele><time>2026-04-18T14:32:59.787Z</time></trkpt><trkpt lat="41.91662" lon="-8.0989917"><ele>478.0</ele><time>2026-04-18T14:33:00.784Z</time></trkpt><trkpt lat="41.916535" lon="-8.0989567"><ele>476.0</ele><time>2026-04-18T14:33:01.786Z</time></trkpt><trkpt lat="41.9164333" lon="-8.0989167"><ele>474.0</ele><time>2026-04-18T14:33:02.786Z</time></trkpt><trkpt lat="41.91632" lon="-8.0988683"><ele>472.0</ele><time>2026-04-18T14:33:03.786Z</time></trkpt><trkpt lat="41.9161917" lon="-8.0988167"><ele>470.0</ele><time>2026-04-18T14:33:04.786Z</time></trkpt><trkpt lat="41.9160533" lon="-8.0987583"><ele>468.3333333333333</ele><time>2026-04-18T14:33:05.786Z</time></trkpt><trkpt lat="41.9159033" lon="-8.0986933"><ele>466.66666666666663</ele><time>2026-04-18T14:33:06.785Z</time></trkpt><trkpt lat="41.91575" lon="-8.0986283"><ele>465.0</ele><time>2026-04-18T14:33:07.785Z</time></trkpt><trkpt lat="41.9155933" lon="-8.0985683"><ele>465.0</ele><time>2026-04-18T14:33:08.79Z</time></trkpt><trkpt lat="41.91544" lon="-8.098515"><ele>465.0</ele><time>2026-04-18T14:33:09.786Z</time></trkpt><trkpt lat="41.9152917" lon="-8.0984733"><ele>465.0</ele><time>2026-04-18T14:33:10.785Z</time></trkpt><trkpt lat="41.9151483" lon="-8.09844"><ele>464.0</ele><time>2026-04-18T14:33:11.788Z</time></trkpt><trkpt lat="41.9150067" lon="-8.0984217"><ele>463.0</ele><time>2026-04-18T14:33:12.788Z</time></trkpt><trkpt lat="41.91487" lon="-8.0984117"><ele>462.0</ele><time>2026-04-18T14:33:13.788Z</time></trkpt><trkpt lat="41.914745" lon="-8.0983917"><ele>461.0</ele><time>2026-04-18T14:33:14.789Z</time></trkpt><trkpt lat="41.9146233" lon="-8.09835"><ele>461.0</ele><time>2026-04-18T14:33:15.787Z</time></trkpt><trkpt lat="41.9145167" lon="-8.0982767"><ele>461.0</ele><time>2026-04-18T14:33:16.787Z</time></trkpt><trkpt lat="41.9144317" lon="-8.09817"><ele>461.0</ele><time>2026-04-18T14:33:17.784Z</time></trkpt><trkpt lat="41.9143683" lon="-8.0980367"><ele>461.0</ele><time>2026-04-18T14:33:18.789Z</time></trkpt><trkpt lat="41.91434" lon="-8.09788"><ele>458.25</ele><time>2026-04-18T14:33:19.788Z</time></trkpt><trkpt lat="41.91436" lon="-8.0977167"><ele>455.5</ele><time>2026-04-18T14:33:20.788Z</time></trkpt><trkpt lat="41.91442" lon="-8.097555"><ele>452.75</ele><time>2026-04-18T14:33:21.788Z</time></trkpt><trkpt lat="41.914515" lon="-8.097415"><ele>450.0</ele><time>2026-04-18T14:33:22.787Z</time></trkpt><trkpt lat="41.9146233" lon="-8.0972833"><ele>447.25</ele><time>2026-04-18T14:33:23.787Z</time></trkpt><trkpt lat="41.9147383" lon="-8.09716"><ele>444.5</ele><time>2026-04-18T14:33:24.788Z</time></trkpt><trkpt lat="41.91485" lon="-8.0970417"><ele>441.75</ele><time>2026-04-18T14:33:25.789Z</time></trkpt><trkpt lat="41.91495" lon="-8.096915"><ele>439.0</ele><time>2026-04-18T14:33:26.788Z</time></trkpt><trkpt lat="41.91504" lon="-8.0967833"><ele>439.0</ele><time>2026-04-18T14:33:27.786Z</time></trkpt><trkpt lat="41.9151167" lon="-8.09664"><ele>439.0</ele><time>2026-04-18T14:33:28.787Z</time></trkpt><trkpt lat="41.9151717" lon="-8.0964833"><ele>439.0</ele><time>2026-04-18T14:33:29.786Z</time></trkpt><trkpt lat="41.915195" lon="-8.096305"><ele>439.0</ele><time>2026-04-18T14:33:30.789Z</time></trkpt><trkpt lat="41.91518" lon="-8.0961283"><ele>439.0</ele><time>2026-04-18T14:33:31.787Z</time></trkpt><trkpt lat="41.9151733" lon="-8.095945"><ele>439.0</ele><time>2026-04-18T14:33:32.788Z</time></trkpt><trkpt lat="41.9151633" lon="-8.0957633"><ele>439.0</ele><time>2026-04-18T14:33:33.786Z</time></trkpt><trkpt lat="41.915155" lon="-8.0955917"><ele>439.0</ele><time>2026-04-18T14:33:34.789Z</time></trkpt><trkpt lat="41.915145" lon="-8.095425"><ele>437.0</ele><time>2026-04-18T14:33:35.789Z</time></trkpt><trkpt lat="41.9151333" lon="-8.0952683"><ele>435.0</ele><time>2026-04-18T14:33:36.786Z</time></trkpt><trkpt lat="41.915125" lon="-8.09512"><ele>433.0</ele><time>2026-04-18T14:33:37.786Z</time></trkpt><trkpt lat="41.9151233" lon="-8.0949833"><ele>431.0</ele><time>2026-04-18T14:33:38.79Z</time></trkpt><trkpt lat="41.91513" lon="-8.09485"><ele>429.0</ele><time>2026-04-18T14:33:39.786Z</time></trkpt><trkpt lat="41.9151417" lon="-8.094725"><ele>427.8333333333333</ele><time>2026-04-18T14:33:40.786Z</time></trkpt><trkpt lat="41.915155" lon="-8.09461"><ele>426.66666666666663</ele><time>2026-04-18T14:33:41.788Z</time></trkpt><trkpt lat="41.9151633" lon="-8.09452"><ele>425.5</ele><time>2026-04-18T14:33:42.787Z</time></trkpt><trkpt lat="41.9151817" lon="-8.0943783"><ele>424.3333333333333</ele><time>2026-04-18T14:33:44.786Z</time></trkpt><trkpt lat="41.9151617" lon="-8.0942867"><ele>423.16666666666663</ele><time>2026-04-18T14:33:46.786Z</time></trkpt><trkpt lat="41.9150917" lon="-8.0943333"><ele>422.0</ele><time>2026-04-18T14:33:50.787Z</time></trkpt><trkpt lat="41.9149817" lon="-8.0944917"><ele>420.3333333333333</ele><time>2026-04-18T14:33:52.787Z</time></trkpt><trkpt lat="41.91493" lon="-8.094545"><ele>418.66666666666663</ele><time>2026-04-18T14:33:53.786Z</time></trkpt><trkpt lat="41.91485" lon="-8.0945917"><ele>417.0</ele><time>2026-04-18T14:33:55.787Z</time></trkpt><trkpt lat="41.9147333" lon="-8.0945683"><ele>415.33333333333337</ele><time>2026-04-18T14:33:57.788Z</time></trkpt><trkpt lat="41.9146433" lon="-8.0945633"><ele>413.6666666666667</ele><time>2026-04-18T14:33:59.783Z</time></trkpt><trkpt lat="41.9145733" lon="-8.0946"><ele>412.0</ele><time>2026-04-18T14:34:01.786Z</time></trkpt><trkpt lat="41.9144967" lon="-8.0946083"><ele>412.00000000000006</ele><time>2026-04-18T14:34:04.788Z</time></trkpt><trkpt lat="41.9144283" lon="-8.0946367"><ele>412.0</ele><time>2026-04-18T14:34:08.785Z</time></trkpt><trkpt lat="41.9143633" lon="-8.0946533"><ele>412.0</ele><time>2026-04-18T14:35:39.786Z</time></trkpt><trkpt lat="41.9142983" lon="-8.0947"><ele>412.0</ele><time>2026-04-18T14:35:42.785Z</time></trkpt><trkpt lat="41.9142267" lon="-8.0947217"><ele>412.00000000000006</ele><time>2026-04-18T14:35:44.785Z</time></trkpt><trkpt lat="41.9141533" lon="-8.09472"><ele>412.0</ele><time>2026-04-18T14:35:46.786Z</time></trkpt><trkpt lat="41.914055" lon="-8.0947383"><ele>410.00000000000006</ele><time>2026-04-18T14:35:49.785Z</time></trkpt><trkpt lat="41.9139767" lon="-8.0947817"><ele>408.0</ele><time>2026-04-18T14:35:51.786Z</time></trkpt><trkpt lat="41.913895" lon="-8.0948333"><ele>406.0</ele><time>2026-04-18T14:35:53.786Z</time></trkpt><trkpt lat="41.9138233" lon="-8.09485"><ele>404.0</ele><time>2026-04-18T14:35:55.786Z</time></trkpt><trkpt lat="41.9137467" lon="-8.0948433"><ele>402.00000000000006</ele><time>2026-04-18T14:35:57.787Z</time></trkpt><trkpt lat="41.9136683" lon="-8.0948467"><ele>400.0</ele><time>2026-04-18T14:35:59.788Z</time></trkpt><trkpt lat="41.9136167" lon="-8.0949083"><ele>398.5</ele><time>2026-04-18T14:36:01.787Z</time></trkpt><trkpt lat="41.91354" lon="-8.0950017"><ele>397.0</ele><time>2026-04-18T14:36:03.787Z</time></trkpt><trkpt lat="41.913465" lon="-8.0950767"><ele>395.5</ele><time>2026-04-18T14:36:05.785Z</time></trkpt><trkpt lat="41.91334" lon="-8.09509"><ele>394.0</ele><time>2026-04-18T14:36:07.788Z</time></trkpt><trkpt lat="41.913205" lon="-8.09513"><ele>394.00000000000006</ele><time>2026-04-18T14:36:09.786Z</time></trkpt><trkpt lat="41.9131267" lon="-8.09516"><ele>394.0</ele><time>2026-04-18T14:36:10.786Z</time></trkpt><trkpt lat="41.9130567" lon="-8.095195"><ele>394.0</ele><time>2026-04-18T14:36:11.788Z</time></trkpt><trkpt lat="41.9129833" lon="-8.095215"><ele>394.0</ele><time>2026-04-18T14:36:12.786Z</time></trkpt><trkpt lat="41.9128967" lon="-8.0952117"><ele>394.00000000000006</ele><time>2026-04-18T14:36:13.785Z</time></trkpt><trkpt lat="41.91281" lon="-8.0952033"><ele>394.0</ele><time>2026-04-18T14:36:14.784Z</time></trkpt><trkpt lat="41.91272" lon="-8.0951883"><ele>394.00000000000006</ele><time>2026-04-18T14:36:15.786Z</time></trkpt><trkpt lat="41.9126433" lon="-8.095185"><ele>394.0</ele><time>2026-04-18T14:36:16.788Z</time></trkpt><trkpt lat="41.9125717" lon="-8.095185"><ele>394.0</ele><time>2026-04-18T14:36:17.786Z</time></trkpt><trkpt lat="41.91251" lon="-8.0952067"><ele>394.0</ele><time>2026-04-18T14:36:18.786Z</time></trkpt><trkpt lat="41.9124483" lon="-8.0952367"><ele>394.00000000000006</ele><time>2026-04-18T14:36:19.786Z</time></trkpt><trkpt lat="41.91235" lon="-8.0953133"><ele>394.0</ele><time>2026-04-18T14:36:21.787Z</time></trkpt><trkpt lat="41.9122583" lon="-8.095345"><ele>391.33333333333337</ele><time>2026-04-18T14:36:23.785Z</time></trkpt><trkpt lat="41.912195" lon="-8.095345"><ele>388.6666666666667</ele><time>2026-04-18T14:36:24.787Z</time></trkpt><trkpt lat="41.9121083" lon="-8.0953483"><ele>386.0</ele><time>2026-04-18T14:36:25.786Z</time></trkpt><trkpt lat="41.9120117" lon="-8.0953617"><ele>383.33333333333337</ele><time>2026-04-18T14:36:26.787Z</time></trkpt><trkpt lat="41.911915" lon="-8.0953733"><ele>380.6666666666667</ele><time>2026-04-18T14:36:27.787Z</time></trkpt><trkpt lat="41.9118183" lon="-8.09537"><ele>378.0</ele><time>2026-04-18T14:36:28.786Z</time></trkpt><trkpt lat="41.91174" lon="-8.0953633"><ele>374.79999999999995</ele><time>2026-04-18T14:36:29.788Z</time></trkpt><trkpt lat="41.91165" lon="-8.09535"><ele>371.6</ele><time>2026-04-18T14:36:30.788Z</time></trkpt><trkpt lat="41.9115733" lon="-8.0953333"><ele>368.4</ele><time>2026-04-18T14:36:31.787Z</time></trkpt><trkpt lat="41.9114967" lon="-8.0952317"><ele>365.20000000000005</ele><time>2026-04-18T14:36:33.787Z</time></trkpt><trkpt lat="41.9114933" lon="-8.095065"><ele>362.0</ele><time>2026-04-18T14:36:35.786Z</time></trkpt><trkpt lat="41.911515" lon="-8.0949633"><ele>360.6</ele><time>2026-04-18T14:36:36.787Z</time></trkpt><trkpt lat="41.91153" lon="-8.0948667"><ele>359.20000000000005</ele><time>2026-04-18T14:36:37.788Z</time></trkpt><trkpt lat="41.9115467" lon="-8.0947767"><ele>357.8</ele><time>2026-04-18T14:36:38.788Z</time></trkpt><trkpt lat="41.91158" lon="-8.09464"><ele>356.4</ele><time>2026-04-18T14:36:40.788Z</time></trkpt><trkpt lat="41.9115867" lon="-8.09455"><ele>355.0</ele><time>2026-04-18T14:36:42.788Z</time></trkpt><trkpt lat="41.9114917" lon="-8.09441"><ele>355.0</ele><time>2026-04-18T14:43:16.786Z</time></trkpt><trkpt lat="41.9114533" lon="-8.0944967"><ele>355.0</ele><time>2026-04-18T14:45:21.785Z</time></trkpt><trkpt lat="41.9114317" lon="-8.0945967"><ele>355.0</ele><time>2026-04-18T14:45:23.786Z</time></trkpt><trkpt lat="41.9114867" lon="-8.0947017"><ele>355.0</ele><time>2026-04-18T14:45:26.785Z</time></trkpt><trkpt lat="41.9115267" lon="-8.0948317"><ele>355.0</ele><time>2026-04-18T14:45:28.786Z</time></trkpt><trkpt lat="41.9115417" lon="-8.094975"><ele>356.16666666666663</ele><time>2026-04-18T14:45:30.787Z</time></trkpt><trkpt lat="41.911525" lon="-8.0951117"><ele>357.3333333333333</ele><time>2026-04-18T14:45:32.788Z</time></trkpt><trkpt lat="41.9115283" lon="-8.0952283"><ele>358.5</ele><time>2026-04-18T14:45:34.787Z</time></trkpt><trkpt lat="41.911575" lon="-8.0953017"><ele>359.6666666666667</ele><time>2026-04-18T14:45:36.786Z</time></trkpt><trkpt lat="41.9116767" lon="-8.0953283"><ele>360.83333333333337</ele><time>2026-04-18T14:45:38.786Z</time></trkpt><trkpt lat="41.9117433" lon="-8.09534"><ele>362.0</ele><time>2026-04-18T14:45:39.788Z</time></trkpt><trkpt lat="41.91183" lon="-8.09535"><ele>364.6666666666667</ele><time>2026-04-18T14:45:40.786Z</time></trkpt><trkpt lat="41.9119067" lon="-8.0953517"><ele>367.33333333333337</ele><time>2026-04-18T14:45:41.786Z</time></trkpt><trkpt lat="41.91198" lon="-8.095345"><ele>370.0</ele><time>2026-04-18T14:45:42.785Z</time></trkpt><trkpt lat="41.9120583" lon="-8.0953483"><ele>372.6666666666667</ele><time>2026-04-18T14:45:43.785Z</time></trkpt><trkpt lat="41.91214" lon="-8.095365"><ele>375.3333333333333</ele><time>2026-04-18T14:45:44.787Z</time></trkpt><trkpt lat="41.9122117" lon="-8.095375"><ele>378.0</ele><time>2026-04-18T14:45:45.786Z</time></trkpt><trkpt lat="41.9122883" lon="-8.0953833"><ele>378.0</ele><time>2026-04-18T14:45:46.785Z</time></trkpt><trkpt lat="41.9124" lon="-8.0953517"><ele>378.0</ele><time>2026-04-18T14:45:48.786Z</time></trkpt><trkpt lat="41.912505" lon="-8.0953017"><ele>378.0</ele><time>2026-04-18T14:45:50.786Z</time></trkpt><trkpt lat="41.91263" lon="-8.0952517"><ele>378.0</ele><time>2026-04-18T14:45:52.786Z</time></trkpt><trkpt lat="41.912705" lon="-8.0952583"><ele>378.0</ele><time>2026-04-18T14:45:53.785Z</time></trkpt><trkpt lat="41.912795" lon="-8.0952683"><ele>380.6666666666667</ele><time>2026-04-18T14:45:54.787Z</time></trkpt><trkpt lat="41.9128833" lon="-8.09528"><ele>383.33333333333337</ele><time>2026-04-18T14:45:55.786Z</time></trkpt><trkpt lat="41.9129783" lon="-8.09529"><ele>386.0</ele><time>2026-04-18T14:45:56.787Z</time></trkpt><trkpt lat="41.91306" lon="-8.0952933"><ele>388.6666666666667</ele><time>2026-04-18T14:45:57.785Z</time></trkpt><trkpt lat="41.9131333" lon="-8.09527"><ele>391.33333333333337</ele><time>2026-04-18T14:45:58.786Z</time></trkpt><trkpt lat="41.9132033" lon="-8.0952517"><ele>394.0</ele><time>2026-04-18T14:45:59.786Z</time></trkpt><trkpt lat="41.9132733" lon="-8.0952283"><ele>394.0</ele><time>2026-04-18T14:46:00.787Z</time></trkpt><trkpt lat="41.9133817" lon="-8.095205"><ele>394.0</ele><time>2026-04-18T14:46:02.786Z</time></trkpt><trkpt lat="41.913465" lon="-8.0951467"><ele>394.0</ele><time>2026-04-18T14:46:04.786Z</time></trkpt><trkpt lat="41.9135367" lon="-8.0950333"><ele>394.0</ele><time>2026-04-18T14:46:06.786Z</time></trkpt><trkpt lat="41.9135883" lon="-8.094935"><ele>394.0</ele><time>2026-04-18T14:46:08.785Z</time></trkpt><trkpt lat="41.91367" lon="-8.0948983"><ele>395.00000000000006</ele><time>2026-04-18T14:46:11.787Z</time></trkpt><trkpt lat="41.9137433" lon="-8.0949017"><ele>396.0</ele><time>2026-04-18T14:46:13.788Z</time></trkpt><trkpt lat="41.91383" lon="-8.0948933"><ele>397.0</ele><time>2026-04-18T14:46:16.786Z</time></trkpt><trkpt lat="41.913885" lon="-8.0948283"><ele>398.0</ele><time>2026-04-18T14:46:18.787Z</time></trkpt><trkpt lat="41.9139817" lon="-8.0947533"><ele>399.00000000000006</ele><time>2026-04-18T14:46:20.785Z</time></trkpt><trkpt lat="41.9140517" lon="-8.0947333"><ele>400.0</ele><time>2026-04-18T14:46:21.785Z</time></trkpt><trkpt lat="41.9141683" lon="-8.0947033"><ele>400.00000000000006</ele><time>2026-04-18T14:46:23.785Z</time></trkpt><trkpt lat="41.9142333" lon="-8.094675"><ele>400.0</ele><time>2026-04-18T14:46:24.786Z</time></trkpt><trkpt lat="41.914295" lon="-8.094655"><ele>400.0</ele><time>2026-04-18T14:46:25.786Z</time></trkpt><trkpt lat="41.9143833" lon="-8.0946267"><ele>400.0</ele><time>2026-04-18T14:46:27.785Z</time></trkpt><trkpt lat="41.9144433" lon="-8.0945933"><ele>400.0</ele><time>2026-04-18T14:46:30.785Z</time></trkpt><trkpt lat="41.914525" lon="-8.0945917"><ele>400.00000000000006</ele><time>2026-04-18T14:46:35.786Z</time></trkpt><trkpt lat="41.9145933" lon="-8.0945683"><ele>400.0</ele><time>2026-04-18T14:46:37.786Z</time></trkpt><trkpt lat="41.914675" lon="-8.0945417"><ele>402.4</ele><time>2026-04-18T14:46:39.785Z</time></trkpt><trkpt lat="41.9147967" lon="-8.09457"><ele>404.8</ele><time>2026-04-18T14:46:41.786Z</time></trkpt><trkpt lat="41.9149133" lon="-8.094575"><ele>407.20000000000005</ele><time>2026-04-18T14:46:43.785Z</time></trkpt><trkpt lat="41.9150167" lon="-8.0944967"><ele>409.6</ele><time>2026-04-18T14:46:45.785Z</time></trkpt><trkpt lat="41.9150667" lon="-8.0944367"><ele>412.0</ele><time>2026-04-18T14:46:46.786Z</time></trkpt><trkpt lat="41.91514" lon="-8.0943283"><ele>413.6666666666667</ele><time>2026-04-18T14:46:48.786Z</time></trkpt><trkpt lat="41.9151917" lon="-8.09427"><ele>415.33333333333337</ele><time>2026-04-18T14:46:50.784Z</time></trkpt><trkpt lat="41.9152683" lon="-8.0943067"><ele>417.0</ele><time>2026-04-18T14:46:55.786Z</time></trkpt><trkpt lat="41.9152783" lon="-8.0944267"><ele>418.66666666666663</ele><time>2026-04-18T14:46:57.786Z</time></trkpt><trkpt lat="41.91523" lon="-8.0945667"><ele>420.3333333333333</ele><time>2026-04-18T14:46:59.786Z</time></trkpt><trkpt lat="41.9152083" lon="-8.0946617"><ele>422.0</ele><time>2026-04-18T14:47:00.787Z</time></trkpt><trkpt lat="41.9152017" lon="-8.0947717"><ele>422.0</ele><time>2026-04-18T14:47:01.785Z</time></trkpt><trkpt lat="41.91519" lon="-8.0948983"><ele>422.0</ele><time>2026-04-18T14:47:02.787Z</time></trkpt><trkpt lat="41.915185" lon="-8.095035"><ele>422.0</ele><time>2026-04-18T14:47:03.788Z</time></trkpt><trkpt lat="41.9151883" lon="-8.09518"><ele>422.0</ele><time>2026-04-18T14:47:04.786Z</time></trkpt><trkpt lat="41.9152" lon="-8.09533"><ele>422.0</ele><time>2026-04-18T14:47:05.786Z</time></trkpt><trkpt lat="41.9152117" lon="-8.0954883"><ele>423.75</ele><time>2026-04-18T14:47:06.786Z</time></trkpt><trkpt lat="41.915225" lon="-8.0956483"><ele>425.5</ele><time>2026-04-18T14:47:07.786Z</time></trkpt><trkpt lat="41.91524" lon="-8.0958233"><ele>427.25</ele><time>2026-04-18T14:47:08.787Z</time></trkpt><trkpt lat="41.9152417" lon="-8.096"><ele>429.0</ele><time>2026-04-18T14:47:09.787Z</time></trkpt><trkpt lat="41.9152417" lon="-8.0961833"><ele>431.5</ele><time>2026-04-18T14:47:10.788Z</time></trkpt><trkpt lat="41.9152367" lon="-8.0963683"><ele>434.0</ele><time>2026-04-18T14:47:11.787Z</time></trkpt><trkpt lat="41.915215" lon="-8.09655"><ele>436.5</ele><time>2026-04-18T14:47:12.786Z</time></trkpt><trkpt lat="41.9151633" lon="-8.09672"><ele>439.0</ele><time>2026-04-18T14:47:13.788Z</time></trkpt><trkpt lat="41.9150867" lon="-8.0968733"><ele>439.0</ele><time>2026-04-18T14:47:14.787Z</time></trkpt><trkpt lat="41.9149867" lon="-8.09701"><ele>439.0</ele><time>2026-04-18T14:47:15.786Z</time></trkpt><trkpt lat="41.9148783" lon="-8.0971333"><ele>439.0</ele><time>2026-04-18T14:47:16.786Z</time></trkpt><trkpt lat="41.9147617" lon="-8.09725"><ele>439.0</ele><time>2026-04-18T14:47:17.786Z</time></trkpt><trkpt lat="41.914655" lon="-8.0973767"><ele>441.75</ele><time>2026-04-18T14:47:18.787Z</time></trkpt><trkpt lat="41.9145567" lon="-8.0975033"><ele>444.5</ele><time>2026-04-18T14:47:19.786Z</time></trkpt><trkpt lat="41.9144817" lon="-8.0976483"><ele>447.25</ele><time>2026-04-18T14:47:20.787Z</time></trkpt><trkpt lat="41.914435" lon="-8.097805"><ele>450.0</ele><time>2026-04-18T14:47:21.786Z</time></trkpt><trkpt lat="41.91442" lon="-8.0979617"><ele>450.0</ele><time>2026-04-18T14:47:22.786Z</time></trkpt><trkpt lat="41.9144533" lon="-8.09811"><ele>450.0</ele><time>2026-04-18T14:47:23.786Z</time></trkpt><trkpt lat="41.9145283" lon="-8.09824"><ele>450.0</ele><time>2026-04-18T14:47:24.786Z</time></trkpt><trkpt lat="41.9146267" lon="-8.09835"><ele>450.0</ele><time>2026-04-18T14:47:25.786Z</time></trkpt><trkpt lat="41.9147267" lon="-8.0984233"><ele>452.75</ele><time>2026-04-18T14:47:26.789Z</time></trkpt><trkpt lat="41.91484" lon="-8.0984533"><ele>455.5</ele><time>2026-04-18T14:47:27.786Z</time></trkpt><trkpt lat="41.91496" lon="-8.0984617"><ele>458.25</ele><time>2026-04-18T14:47:28.786Z</time></trkpt><trkpt lat="41.91509" lon="-8.0984583"><ele>461.0</ele><time>2026-04-18T14:47:29.786Z</time></trkpt><trkpt lat="41.9152133" lon="-8.09847"><ele>462.0</ele><time>2026-04-18T14:47:30.787Z</time></trkpt><trkpt lat="41.91534" lon="-8.098485"><ele>463.0</ele><time>2026-04-18T14:47:31.786Z</time></trkpt><trkpt lat="41.915475" lon="-8.0985133"><ele>464.0</ele><time>2026-04-18T14:47:32.787Z</time></trkpt><trkpt lat="41.91561" lon="-8.09856"><ele>465.0</ele><time>2026-04-18T14:47:33.787Z</time></trkpt><trkpt lat="41.9157483" lon="-8.0986183"><ele>465.0</ele><time>2026-04-18T14:47:34.788Z</time></trkpt><trkpt lat="41.9158867" lon="-8.0986667"><ele>465.0</ele><time>2026-04-18T14:47:35.786Z</time></trkpt><trkpt lat="41.91603" lon="-8.09871"><ele>465.0</ele><time>2026-04-18T14:47:36.788Z</time></trkpt><trkpt lat="41.91617" lon="-8.09876"><ele>465.0</ele><time>2026-04-18T14:47:37.787Z</time></trkpt><trkpt lat="41.9163117" lon="-8.098815"><ele>466.25</ele><time>2026-04-18T14:47:38.79Z</time></trkpt><trkpt lat="41.91645" lon="-8.0988683"><ele>467.5</ele><time>2026-04-18T14:47:39.788Z</time></trkpt><trkpt lat="41.9165883" lon="-8.098925"><ele>468.75</ele><time>2026-04-18T14:47:40.788Z</time></trkpt><trkpt lat="41.916725" lon="-8.09899"><ele>470.0</ele><time>2026-04-18T14:47:41.788Z</time></trkpt><trkpt lat="41.91686" lon="-8.099065"><ele>472.5</ele><time>2026-04-18T14:47:42.786Z</time></trkpt><trkpt lat="41.9169867" lon="-8.0991567"><ele>475.0</ele><time>2026-04-18T14:47:43.789Z</time></trkpt><trkpt lat="41.917105" lon="-8.0992617"><ele>477.5</ele><time>2026-04-18T14:47:44.789Z</time></trkpt><trkpt lat="41.9172183" lon="-8.0993717"><ele>480.0</ele><time>2026-04-18T14:47:45.788Z</time></trkpt><trkpt lat="41.9173317" lon="-8.0994917"><ele>480.0</ele><time>2026-04-18T14:47:46.788Z</time></trkpt><trkpt lat="41.9174433" lon="-8.099615"><ele>480.0</ele><time>2026-04-18T14:47:47.787Z</time></trkpt><trkpt lat="41.9175533" lon="-8.0997417"><ele>480.0</ele><time>2026-04-18T14:47:48.787Z</time></trkpt><trkpt lat="41.9176617" lon="-8.0998717"><ele>480.0</ele><time>2026-04-18T14:47:49.786Z</time></trkpt><trkpt lat="41.9177717" lon="-8.0999933"><ele>481.5</ele><time>2026-04-18T14:47:50.787Z</time></trkpt><trkpt lat="41.91788" lon="-8.1000917"><ele>483.0</ele><time>2026-04-18T14:47:51.785Z</time></trkpt><trkpt lat="41.9179933" lon="-8.100165"><ele>484.5</ele><time>2026-04-18T14:47:52.787Z</time></trkpt><trkpt lat="41.9181167" lon="-8.100205"><ele>486.0</ele><time>2026-04-18T14:47:53.786Z</time></trkpt><trkpt lat="41.91824" lon="-8.1002217"><ele>486.0</ele><time>2026-04-18T14:47:54.787Z</time></trkpt><trkpt lat="41.91837" lon="-8.1002167"><ele>486.0</ele><time>2026-04-18T14:47:55.787Z</time></trkpt><trkpt lat="41.9185017" lon="-8.1001917"><ele>486.0</ele><time>2026-04-18T14:47:56.787Z</time></trkpt><trkpt lat="41.91863" lon="-8.1001467"><ele>486.0</ele><time>2026-04-18T14:47:57.789Z</time></trkpt><trkpt lat="41.91876" lon="-8.1000983"><ele>486.5</ele><time>2026-04-18T14:47:58.787Z</time></trkpt><trkpt lat="41.91889" lon="-8.1000467"><ele>487.0</ele><time>2026-04-18T14:47:59.788Z</time></trkpt><trkpt lat="41.9190133" lon="-8.0999967"><ele>487.5</ele><time>2026-04-18T14:48:00.789Z</time></trkpt><trkpt lat="41.9191317" lon="-8.09995"><ele>488.0</ele><time>2026-04-18T14:48:01.788Z</time></trkpt><trkpt lat="41.9192517" lon="-8.0999067"><ele>489.25</ele><time>2026-04-18T14:48:02.791Z</time></trkpt><trkpt lat="41.9193767" lon="-8.0998617"><ele>490.5</ele><time>2026-04-18T14:48:03.788Z</time></trkpt><trkpt lat="41.9195017" lon="-8.0998133"><ele>491.75</ele><time>2026-04-18T14:48:04.788Z</time></trkpt><trkpt lat="41.9196317" lon="-8.0997683"><ele>493.0</ele><time>2026-04-18T14:48:05.788Z</time></trkpt><trkpt lat="41.91976" lon="-8.0997217"><ele>493.0</ele><time>2026-04-18T14:48:06.786Z</time></trkpt><trkpt lat="41.9198867" lon="-8.099675"><ele>493.0</ele><time>2026-04-18T14:48:07.787Z</time></trkpt><trkpt lat="41.920015" lon="-8.0996317"><ele>493.0</ele><time>2026-04-18T14:48:08.79Z</time></trkpt><trkpt lat="41.92014" lon="-8.09959"><ele>493.0</ele><time>2026-04-18T14:48:09.788Z</time></trkpt><trkpt lat="41.9202583" lon="-8.09955"><ele>493.2</ele><time>2026-04-18T14:48:10.788Z</time></trkpt><trkpt lat="41.92037" lon="-8.09951"><ele>493.4</ele><time>2026-04-18T14:48:11.787Z</time></trkpt><trkpt lat="41.9204717" lon="-8.099475"><ele>493.59999999999997</ele><time>2026-04-18T14:48:12.788Z</time></trkpt><trkpt lat="41.9205683" lon="-8.099445"><ele>493.79999999999995</ele><time>2026-04-18T14:48:13.787Z</time></trkpt><trkpt lat="41.9206633" lon="-8.0994167"><ele>494.0</ele><time>2026-04-18T14:48:14.79Z</time></trkpt><trkpt lat="41.92076" lon="-8.0994033"><ele>494.0</ele><time>2026-04-18T14:48:15.788Z</time></trkpt><trkpt lat="41.92086" lon="-8.0994067"><ele>494.0</ele><time>2026-04-18T14:48:16.788Z</time></trkpt><trkpt lat="41.9209617" lon="-8.099425"><ele>494.0</ele><time>2026-04-18T14:48:17.786Z</time></trkpt><trkpt lat="41.921065" lon="-8.0994583"><ele>494.0</ele><time>2026-04-18T14:48:18.786Z</time></trkpt><trkpt lat="41.9211733" lon="-8.0995017"><ele>494.0</ele><time>2026-04-18T14:48:19.787Z</time></trkpt><trkpt lat="41.92128" lon="-8.0995467"><ele>495.75</ele><time>2026-04-18T14:48:20.787Z</time></trkpt><trkpt lat="41.9213933" lon="-8.099585"><ele>497.5</ele><time>2026-04-18T14:48:21.787Z</time></trkpt><trkpt lat="41.9215033" lon="-8.0996217"><ele>499.25</ele><time>2026-04-18T14:48:22.785Z</time></trkpt><trkpt lat="41.921615" lon="-8.0996583"><ele>501.0</ele><time>2026-04-18T14:48:23.787Z</time></trkpt><trkpt lat="41.921725" lon="-8.0996967"><ele>503.0</ele><time>2026-04-18T14:48:24.789Z</time></trkpt><trkpt lat="41.9218367" lon="-8.0997367"><ele>505.0</ele><time>2026-04-18T14:48:25.789Z</time></trkpt><trkpt lat="41.92194" lon="-8.0997683"><ele>507.0</ele><time>2026-04-18T14:48:26.789Z</time></trkpt><trkpt lat="41.9220383" lon="-8.099785"><ele>509.0</ele><time>2026-04-18T14:48:27.788Z</time></trkpt><trkpt lat="41.9221367" lon="-8.0997867"><ele>511.0</ele><time>2026-04-18T14:48:28.788Z</time></trkpt><trkpt lat="41.922245" lon="-8.09979"><ele>511.0</ele><time>2026-04-18T14:48:29.787Z</time></trkpt><trkpt lat="41.92236" lon="-8.0997967"><ele>511.0</ele><time>2026-04-18T14:48:30.788Z</time></trkpt><trkpt lat="41.922475" lon="-8.0998017"><ele>511.0</ele><time>2026-04-18T14:48:31.788Z</time></trkpt><trkpt lat="41.9225917" lon="-8.09979"><ele>511.0</ele><time>2026-04-18T14:48:32.79Z</time></trkpt><trkpt lat="41.9227067" lon="-8.0997483"><ele>511.5</ele><time>2026-04-18T14:48:33.789Z</time></trkpt><trkpt lat="41.922815" lon="-8.09968"><ele>512.0</ele><time>2026-04-18T14:48:34.787Z</time></trkpt><trkpt lat="41.9229133" lon="-8.099595"><ele>512.5</ele><time>2026-04-18T14:48:35.787Z</time></trkpt><trkpt lat="41.9230033" lon="-8.0995033"><ele>513.0</ele><time>2026-04-18T14:48:36.788Z</time></trkpt><trkpt lat="41.9230767" lon="-8.0994017"><ele>513.0</ele><time>2026-04-18T14:48:37.788Z</time></trkpt><trkpt lat="41.9231217" lon="-8.0992867"><ele>513.0</ele><time>2026-04-18T14:48:38.789Z</time></trkpt><trkpt lat="41.92314" lon="-8.0991567"><ele>513.0</ele><time>2026-04-18T14:48:39.789Z</time></trkpt><trkpt lat="41.923135" lon="-8.0990167"><ele>513.0</ele><time>2026-04-18T14:48:40.788Z</time></trkpt><trkpt lat="41.923105" lon="-8.0988733"><ele>513.0</ele><time>2026-04-18T14:48:41.788Z</time></trkpt><trkpt lat="41.9230633" lon="-8.0987233"><ele>513.1999999999999</ele><time>2026-04-18T14:48:42.788Z</time></trkpt><trkpt lat="41.9230183" lon="-8.0985733"><ele>513.4</ele><time>2026-04-18T14:48:43.789Z</time></trkpt><trkpt lat="41.9229783" lon="-8.0984317"><ele>513.5999999999999</ele><time>2026-04-18T14:48:44.788Z</time></trkpt><trkpt lat="41.9229533" lon="-8.098305"><ele>513.8</ele><time>2026-04-18T14:48:45.788Z</time></trkpt><trkpt lat="41.9229467" lon="-8.09819"><ele>514.0</ele><time>2026-04-18T14:48:46.787Z</time></trkpt><trkpt lat="41.92296" lon="-8.0980817"><ele>512.6</ele><time>2026-04-18T14:48:47.786Z</time></trkpt><trkpt lat="41.9229933" lon="-8.098"><ele>511.2</ele><time>2026-04-18T14:48:48.788Z</time></trkpt><trkpt lat="41.9230583" lon="-8.09795"><ele>509.80000000000007</ele><time>2026-04-18T14:48:49.787Z</time></trkpt><trkpt lat="41.923145" lon="-8.0979283"><ele>508.40000000000003</ele><time>2026-04-18T14:48:50.787Z</time></trkpt><trkpt lat="41.923255" lon="-8.0979233"><ele>507.0</ele><time>2026-04-18T14:48:51.788Z</time></trkpt><trkpt lat="41.9233667" lon="-8.0979083"><ele>507.0</ele><time>2026-04-18T14:48:52.786Z</time></trkpt><trkpt lat="41.923515" lon="-8.09792"><ele>507.0</ele><time>2026-04-18T14:48:53.786Z</time></trkpt><trkpt lat="41.9236483" lon="-8.0979267"><ele>507.0</ele><time>2026-04-18T14:48:54.791Z</time></trkpt><trkpt lat="41.92378" lon="-8.097945"><ele>507.0</ele><time>2026-04-18T14:48:55.789Z</time></trkpt><trkpt lat="41.9239" lon="-8.0979433"><ele>507.0</ele><time>2026-04-18T14:48:56.787Z</time></trkpt><trkpt lat="41.9240133" lon="-8.097915"><ele>507.0</ele><time>2026-04-18T14:48:57.789Z</time></trkpt><trkpt lat="41.9241267" lon="-8.0978667"><ele>507.0</ele><time>2026-04-18T14:48:58.789Z</time></trkpt><trkpt lat="41.9242183" lon="-8.0977817"><ele>507.0</ele><time>2026-04-18T14:48:59.787Z</time></trkpt><trkpt lat="41.9243067" lon="-8.09768"><ele>507.0</ele><time>2026-04-18T14:49:00.787Z</time></trkpt><trkpt lat="41.9243967" lon="-8.0975767"><ele>507.0</ele><time>2026-04-18T14:49:01.788Z</time></trkpt><trkpt lat="41.9244833" lon="-8.09747"><ele>507.0</ele><time>2026-04-18T14:49:02.79Z</time></trkpt><trkpt lat="41.9245617" lon="-8.0973417"><ele>507.0</ele><time>2026-04-18T14:49:03.788Z</time></trkpt><trkpt lat="41.92462" lon="-8.0972033"><ele>507.8</ele><time>2026-04-18T14:49:04.787Z</time></trkpt><trkpt lat="41.9246633" lon="-8.09708"><ele>508.6</ele><time>2026-04-18T14:49:05.788Z</time></trkpt><trkpt lat="41.9247317" lon="-8.09698"><ele>509.40000000000003</ele><time>2026-04-18T14:49:06.79Z</time></trkpt><trkpt lat="41.9248067" lon="-8.0969117"><ele>510.20000000000005</ele><time>2026-04-18T14:49:07.785Z</time></trkpt><trkpt lat="41.9249033" lon="-8.0968683"><ele>511.0</ele><time>2026-04-18T14:49:08.787Z</time></trkpt><trkpt lat="41.9250233" lon="-8.0968567"><ele>511.5</ele><time>2026-04-18T14:49:09.788Z</time></trkpt><trkpt lat="41.9251467" lon="-8.09686"><ele>512.0</ele><time>2026-04-18T14:49:10.788Z</time></trkpt><trkpt lat="41.9252733" lon="-8.0968767"><ele>512.5</ele><time>2026-04-18T14:49:11.788Z</time></trkpt><trkpt lat="41.9254" lon="-8.096895"><ele>513.0</ele><time>2026-04-18T14:49:12.788Z</time></trkpt><trkpt lat="41.9255333" lon="-8.0969133"><ele>513.0</ele><time>2026-04-18T14:49:13.786Z</time></trkpt><trkpt lat="41.9256633" lon="-8.0969117"><ele>513.0</ele><time>2026-04-18T14:49:14.789Z</time></trkpt><trkpt lat="41.9258033" lon="-8.09689"><ele>513.0</ele><time>2026-04-18T14:49:15.787Z</time></trkpt><trkpt lat="41.9259333" lon="-8.096865"><ele>513.0</ele><time>2026-04-18T14:49:16.786Z</time></trkpt><trkpt lat="41.9260633" lon="-8.0968333"><ele>514.0</ele><time>2026-04-18T14:49:17.785Z</time></trkpt><trkpt lat="41.92619" lon="-8.0967933"><ele>515.0</ele><time>2026-04-18T14:49:18.786Z</time></trkpt><trkpt lat="41.9263017" lon="-8.0967583"><ele>516.0</ele><time>2026-04-18T14:49:19.787Z</time></trkpt><trkpt lat="41.9264117" lon="-8.0967317"><ele>517.0</ele><time>2026-04-18T14:49:20.787Z</time></trkpt><trkpt lat="41.9265183" lon="-8.0967333"><ele>517.0</ele><time>2026-04-18T14:49:21.786Z</time></trkpt><trkpt lat="41.92663" lon="-8.0967783"><ele>517.0</ele><time>2026-04-18T14:49:22.787Z</time></trkpt><trkpt lat="41.926745" lon="-8.0968433"><ele>517.0</ele><time>2026-04-18T14:49:23.786Z</time></trkpt><trkpt lat="41.92686" lon="-8.096905"><ele>517.0</ele><time>2026-04-18T14:49:24.787Z</time></trkpt><trkpt lat="41.926985" lon="-8.0969567"><ele>517.75</ele><time>2026-04-18T14:49:25.787Z</time></trkpt><trkpt lat="41.92711" lon="-8.096995"><ele>518.5</ele><time>2026-04-18T14:49:26.787Z</time></trkpt><trkpt lat="41.9272467" lon="-8.0970167"><ele>519.25</ele><time>2026-04-18T14:49:27.787Z</time></trkpt><trkpt lat="41.92738" lon="-8.0970133"><ele>520.0</ele><time>2026-04-18T14:49:28.789Z</time></trkpt><trkpt lat="41.9275117" lon="-8.0969967"><ele>521.5</ele><time>2026-04-18T14:49:29.786Z</time></trkpt><trkpt lat="41.9276417" lon="-8.09696"><ele>523.0</ele><time>2026-04-18T14:49:30.787Z</time></trkpt><trkpt lat="41.9277733" lon="-8.096925"><ele>524.5</ele><time>2026-04-18T14:49:31.789Z</time></trkpt><trkpt lat="41.9279067" lon="-8.0969"><ele>526.0</ele><time>2026-04-18T14:49:32.791Z</time></trkpt><trkpt lat="41.9280367" lon="-8.0968733"><ele>526.0</ele><time>2026-04-18T14:49:33.786Z</time></trkpt><trkpt lat="41.9281683" lon="-8.0968333"><ele>526.0</ele><time>2026-04-18T14:49:34.788Z</time></trkpt><trkpt lat="41.92829" lon="-8.0967833"><ele>526.0</ele><time>2026-04-18T14:49:35.787Z</time></trkpt><trkpt lat="41.9284133" lon="-8.0967317"><ele>526.0</ele><time>2026-04-18T14:49:36.788Z</time></trkpt><trkpt lat="41.9285467" lon="-8.0966783"><ele>526.75</ele><time>2026-04-18T14:49:37.786Z</time></trkpt><trkpt lat="41.928675" lon="-8.0966333"><ele>527.5</ele><time>2026-04-18T14:49:38.789Z</time></trkpt><trkpt lat="41.9287967" lon="-8.09659"><ele>528.25</ele><time>2026-04-18T14:49:39.785Z</time></trkpt><trkpt lat="41.9289233" lon="-8.0965467"><ele>529.0</ele><time>2026-04-18T14:49:40.786Z</time></trkpt><trkpt lat="41.9290483" lon="-8.0965"><ele>529.0</ele><time>2026-04-18T14:49:41.787Z</time></trkpt><trkpt lat="41.9291783" lon="-8.0964583"><ele>529.0</ele><time>2026-04-18T14:49:42.788Z</time></trkpt><trkpt lat="41.9293133" lon="-8.09642"><ele>529.0</ele><time>2026-04-18T14:49:43.787Z</time></trkpt><trkpt lat="41.9294483" lon="-8.0963867"><ele>529.0</ele><time>2026-04-18T14:49:44.788Z</time></trkpt><trkpt lat="41.9295867" lon="-8.09636"><ele>530.5</ele><time>2026-04-18T14:49:45.789Z</time></trkpt><trkpt lat="41.9297267" lon="-8.0963417"><ele>532.0</ele><time>2026-04-18T14:49:46.786Z</time></trkpt><trkpt lat="41.9298633" lon="-8.096335"><ele>533.5</ele><time>2026-04-18T14:49:47.788Z</time></trkpt><trkpt lat="41.9299983" lon="-8.09634"><ele>535.0</ele><time>2026-04-18T14:49:48.787Z</time></trkpt><trkpt lat="41.93013" lon="-8.0963533"><ele>535.75</ele><time>2026-04-18T14:49:49.789Z</time></trkpt><trkpt lat="41.9302633" lon="-8.0963733"><ele>536.5</ele><time>2026-04-18T14:49:50.79Z</time></trkpt><trkpt lat="41.9303883" lon="-8.0963933"><ele>537.25</ele><time>2026-04-18T14:49:51.787Z</time></trkpt><trkpt lat="41.9305083" lon="-8.0964183"><ele>538.0</ele><time>2026-04-18T14:49:52.788Z</time></trkpt><trkpt lat="41.930615" lon="-8.0964367"><ele>538.0</ele><time>2026-04-18T14:49:53.787Z</time></trkpt><trkpt lat="41.93071" lon="-8.0964483"><ele>538.0</ele><time>2026-04-18T14:49:54.788Z</time></trkpt><trkpt lat="41.9307833" lon="-8.0964517"><ele>538.0</ele><time>2026-04-18T14:49:55.788Z</time></trkpt><trkpt lat="41.9308467" lon="-8.0963933"><ele>538.0</ele><time>2026-04-18T14:49:57.787Z</time></trkpt><trkpt lat="41.9308383" lon="-8.0962817"><ele>538.0</ele><time>2026-04-18T14:49:59.789Z</time></trkpt><trkpt lat="41.930785" lon="-8.0962217"><ele>538.0</ele><time>2026-04-18T14:50:00.789Z</time></trkpt><trkpt lat="41.930725" lon="-8.0961767"><ele>538.0</ele><time>2026-04-18T14:50:01.788Z</time></trkpt><trkpt lat="41.93065" lon="-8.09613"><ele>538.0</ele><time>2026-04-18T14:50:02.791Z</time></trkpt><trkpt lat="41.9305667" lon="-8.0960783"><ele>538.0</ele><time>2026-04-18T14:50:03.787Z</time></trkpt><trkpt lat="41.9304833" lon="-8.0960233"><ele>538.0</ele><time>2026-04-18T14:50:04.788Z</time></trkpt><trkpt lat="41.930405" lon="-8.095965"><ele>538.0</ele><time>2026-04-18T14:50:05.787Z</time></trkpt><trkpt lat="41.9303333" lon="-8.0959067"><ele>538.0</ele><time>2026-04-18T14:50:06.789Z</time></trkpt><trkpt lat="41.9302617" lon="-8.0958517"><ele>538.0</ele><time>2026-04-18T14:50:07.788Z</time></trkpt><trkpt lat="41.9301933" lon="-8.0958017"><ele>538.0</ele><time>2026-04-18T14:50:08.79Z</time></trkpt><trkpt lat="41.9301233" lon="-8.0957517"><ele>538.0</ele><time>2026-04-18T14:50:09.787Z</time></trkpt><trkpt lat="41.93006" lon="-8.095705"><ele>538.0</ele><time>2026-04-18T14:50:10.789Z</time></trkpt><trkpt lat="41.92997" lon="-8.0956333"><ele>538.0</ele><time>2026-04-18T14:50:12.789Z</time></trkpt><trkpt lat="41.9298883" lon="-8.0955767"><ele>538.0</ele><time>2026-04-18T14:50:14.791Z</time></trkpt><trkpt lat="41.929785" lon="-8.0955067"><ele>540.5</ele><time>2026-04-18T14:50:16.785Z</time></trkpt><trkpt lat="41.929725" lon="-8.0954583"><ele>543.0</ele><time>2026-04-18T14:50:17.788Z</time></trkpt><trkpt lat="41.9296617" lon="-8.0954183"><ele>545.5</ele><time>2026-04-18T14:50:18.788Z</time></trkpt><trkpt lat="41.92959" lon="-8.0953783"><ele>548.0</ele><time>2026-04-18T14:50:19.787Z</time></trkpt><trkpt lat="41.9295117" lon="-8.0953333"><ele>550.5</ele><time>2026-04-18T14:50:20.789Z</time></trkpt><trkpt lat="41.9294317" lon="-8.0952833"><ele>553.0</ele><time>2026-04-18T14:50:21.786Z</time></trkpt><trkpt lat="41.9293533" lon="-8.0952333"><ele>553.0</ele><time>2026-04-18T14:50:22.789Z</time></trkpt><trkpt lat="41.9292667" lon="-8.0951783"><ele>553.0</ele><time>2026-04-18T14:50:23.787Z</time></trkpt><trkpt lat="41.9291933" lon="-8.09511"><ele>553.0</ele><time>2026-04-18T14:50:24.788Z</time></trkpt><trkpt lat="41.9291367" lon="-8.0950233"><ele>553.0</ele><time>2026-04-18T14:50:25.789Z</time></trkpt><trkpt lat="41.9290817" lon="-8.0949117"><ele>553.0</ele><time>2026-04-18T14:50:26.787Z</time></trkpt><trkpt lat="41.9290433" lon="-8.0947783"><ele>554.75</ele><time>2026-04-18T14:50:27.789Z</time></trkpt><trkpt lat="41.929015" lon="-8.094635"><ele>556.5</ele><time>2026-04-18T14:50:28.788Z</time></trkpt><trkpt lat="41.9290017" lon="-8.094485"><ele>558.25</ele><time>2026-04-18T14:50:29.788Z</time></trkpt><trkpt lat="41.92899" lon="-8.09433"><ele>560.0</ele><time>2026-04-18T14:50:30.788Z</time></trkpt><trkpt lat="41.9289683" lon="-8.0941767"><ele>562.6</ele><time>2026-04-18T14:50:31.789Z</time></trkpt><trkpt lat="41.9289467" lon="-8.0940233"><ele>565.2</ele><time>2026-04-18T14:50:32.79Z</time></trkpt><trkpt lat="41.928925" lon="-8.0938817"><ele>567.8</ele><time>2026-04-18T14:50:33.788Z</time></trkpt><trkpt lat="41.9288933" lon="-8.0937667"><ele>570.4</ele><time>2026-04-18T14:50:34.789Z</time></trkpt><trkpt lat="41.9288517" lon="-8.0936767"><ele>573.0</ele><time>2026-04-18T14:50:35.788Z</time></trkpt><trkpt lat="41.9287867" lon="-8.093615"><ele>573.0</ele><time>2026-04-18T14:50:36.788Z</time></trkpt><trkpt lat="41.9287183" lon="-8.0935733"><ele>573.0</ele><time>2026-04-18T14:50:37.788Z</time></trkpt><trkpt lat="41.92864" lon="-8.0935533"><ele>573.0</ele><time>2026-04-18T14:50:38.787Z</time></trkpt><trkpt lat="41.9285733" lon="-8.0935383"><ele>573.0</ele><time>2026-04-18T14:50:39.785Z</time></trkpt><trkpt lat="41.9284833" lon="-8.0934983"><ele>573.0</ele><time>2026-04-18T14:50:41.788Z</time></trkpt><trkpt lat="41.9284817" lon="-8.09339"><ele>573.0</ele><time>2026-04-18T14:50:43.788Z</time></trkpt><trkpt lat="41.9285467" lon="-8.0932317"><ele>575.0</ele><time>2026-04-18T14:50:45.788Z</time></trkpt><trkpt lat="41.9285833" lon="-8.093135"><ele>577.0</ele><time>2026-04-18T14:50:46.788Z</time></trkpt><trkpt lat="41.928625" lon="-8.0930217"><ele>579.0</ele><time>2026-04-18T14:50:47.789Z</time></trkpt><trkpt lat="41.92867" lon="-8.0928967"><ele>581.0</ele><time>2026-04-18T14:50:48.788Z</time></trkpt><trkpt lat="41.9287233" lon="-8.092775"><ele>583.0</ele><time>2026-04-18T14:50:49.787Z</time></trkpt><trkpt lat="41.92879" lon="-8.09268"><ele>583.0</ele><time>2026-04-18T14:50:50.787Z</time></trkpt><trkpt lat="41.928875" lon="-8.0926017"><ele>583.0</ele><time>2026-04-18T14:50:51.788Z</time></trkpt><trkpt lat="41.9289633" lon="-8.0925267"><ele>583.0</ele><time>2026-04-18T14:50:52.788Z</time></trkpt><trkpt lat="41.9290417" lon="-8.0924517"><ele>583.0</ele><time>2026-04-18T14:50:53.788Z</time></trkpt><trkpt lat="41.9291233" lon="-8.0923667"><ele>583.0</ele><time>2026-04-18T14:50:54.788Z</time></trkpt><trkpt lat="41.9292017" lon="-8.092275"><ele>586.3333333333334</ele><time>2026-04-18T14:50:55.787Z</time></trkpt><trkpt lat="41.92926" lon="-8.092185"><ele>589.6666666666667</ele><time>2026-04-18T14:50:56.788Z</time></trkpt><trkpt lat="41.9293067" lon="-8.0920917"><ele>593.0</ele><time>2026-04-18T14:50:57.787Z</time></trkpt><trkpt lat="41.929345" lon="-8.0919883"><ele>596.3333333333334</ele><time>2026-04-18T14:50:58.788Z</time></trkpt><trkpt lat="41.929375" lon="-8.0918767"><ele>599.6666666666666</ele><time>2026-04-18T14:50:59.787Z</time></trkpt><trkpt lat="41.9294183" lon="-8.091765"><ele>603.0</ele><time>2026-04-18T14:51:00.784Z</time></trkpt><trkpt lat="41.92947" lon="-8.0916667"><ele>600.0</ele><time>2026-04-18T14:51:01.788Z</time></trkpt><trkpt lat="41.9295317" lon="-8.09159"><ele>597.0</ele><time>2026-04-18T14:51:02.79Z</time></trkpt><trkpt lat="41.929615" lon="-8.091535"><ele>594.0</ele><time>2026-04-18T14:51:03.788Z</time></trkpt><trkpt lat="41.929715" lon="-8.0914817"><ele>591.0</ele><time>2026-04-18T14:51:04.788Z</time></trkpt><trkpt lat="41.929815" lon="-8.091425"><ele>588.0</ele><time>2026-04-18T14:51:05.786Z</time></trkpt><trkpt lat="41.9299033" lon="-8.091365"><ele>588.0</ele><time>2026-04-18T14:51:06.789Z</time></trkpt><trkpt lat="41.9299817" lon="-8.0913233"><ele>588.0</ele><time>2026-04-18T14:51:07.788Z</time></trkpt><trkpt lat="41.9300667" lon="-8.0912967"><ele>588.0</ele><time>2026-04-18T14:51:08.787Z</time></trkpt><trkpt lat="41.9301633" lon="-8.0912833"><ele>588.0</ele><time>2026-04-18T14:51:09.788Z</time></trkpt><trkpt lat="41.9302567" lon="-8.09126"><ele>588.0</ele><time>2026-04-18T14:51:10.789Z</time></trkpt><trkpt lat="41.9303433" lon="-8.091255"><ele>591.1999999999999</ele><time>2026-04-18T14:51:11.788Z</time></trkpt><trkpt lat="41.9304283" lon="-8.091265"><ele>594.4</ele><time>2026-04-18T14:51:12.788Z</time></trkpt><trkpt lat="41.9305167" lon="-8.0912967"><ele>597.5999999999999</ele><time>2026-04-18T14:51:13.787Z</time></trkpt><trkpt lat="41.9306067" lon="-8.091315"><ele>600.8</ele><time>2026-04-18T14:51:14.787Z</time></trkpt><trkpt lat="41.9307067" lon="-8.0913283"><ele>604.0</ele><time>2026-04-18T14:51:15.786Z</time></trkpt><trkpt lat="41.9308083" lon="-8.0913517"><ele>606.8333333333334</ele><time>2026-04-18T14:51:16.787Z</time></trkpt><trkpt lat="41.930905" lon="-8.09138"><ele>609.6666666666667</ele><time>2026-04-18T14:51:17.788Z</time></trkpt><trkpt lat="41.9309983" lon="-8.091395"><ele>612.5</ele><time>2026-04-18T14:51:18.786Z</time></trkpt><trkpt lat="41.931075" lon="-8.0914033"><ele>615.3333333333334</ele><time>2026-04-18T14:51:19.787Z</time></trkpt><trkpt lat="41.9311467" lon="-8.09142"><ele>618.1666666666666</ele><time>2026-04-18T14:51:20.786Z</time></trkpt><trkpt lat="41.9312117" lon="-8.0914533"><ele>621.0</ele><time>2026-04-18T14:51:21.787Z</time></trkpt><trkpt lat="41.9312733" lon="-8.0915017"><ele>621.0</ele><time>2026-04-18T14:51:22.787Z</time></trkpt><trkpt lat="41.9313383" lon="-8.0915683"><ele>621.0</ele><time>2026-04-18T14:51:23.786Z</time></trkpt><trkpt lat="41.9314117" lon="-8.0916383"><ele>621.0</ele><time>2026-04-18T14:51:24.787Z</time></trkpt><trkpt lat="41.931475" lon="-8.091695"><ele>621.0</ele><time>2026-04-18T14:51:25.786Z</time></trkpt><trkpt lat="41.9315483" lon="-8.0917367"><ele>621.0</ele><time>2026-04-18T14:51:26.787Z</time></trkpt><trkpt lat="41.9316233" lon="-8.0917433"><ele>621.0</ele><time>2026-04-18T14:51:27.788Z</time></trkpt><trkpt lat="41.93172" lon="-8.091735"><ele>621.6</ele><time>2026-04-18T14:51:28.787Z</time></trkpt><trkpt lat="41.9318167" lon="-8.0917233"><ele>622.2</ele><time>2026-04-18T14:51:29.789Z</time></trkpt><trkpt lat="41.9319233" lon="-8.0917"><ele>622.8</ele><time>2026-04-18T14:51:30.787Z</time></trkpt><trkpt lat="41.9320367" lon="-8.0916617"><ele>623.4</ele><time>2026-04-18T14:51:31.787Z</time></trkpt><trkpt lat="41.9321467" lon="-8.0916317"><ele>624.0</ele><time>2026-04-18T14:51:32.79Z</time></trkpt><trkpt lat="41.93225" lon="-8.091605"><ele>626.6</ele><time>2026-04-18T14:51:33.788Z</time></trkpt><trkpt lat="41.9323383" lon="-8.0915583"><ele>629.2</ele><time>2026-04-18T14:51:34.788Z</time></trkpt><trkpt lat="41.9324267" lon="-8.0914967"><ele>631.8000000000001</ele><time>2026-04-18T14:51:35.788Z</time></trkpt><trkpt lat="41.9325067" lon="-8.0914233"><ele>634.4</ele><time>2026-04-18T14:51:36.788Z</time></trkpt><trkpt lat="41.9325817" lon="-8.09133"><ele>637.0</ele><time>2026-04-18T14:51:37.787Z</time></trkpt><trkpt lat="41.9326517" lon="-8.09122"><ele>640.4000000000001</ele><time>2026-04-18T14:51:38.79Z</time></trkpt><trkpt lat="41.9327283" lon="-8.0910983"><ele>643.8000000000001</ele><time>2026-04-18T14:51:39.789Z</time></trkpt><trkpt lat="41.932805" lon="-8.0909783"><ele>647.2</ele><time>2026-04-18T14:51:40.789Z</time></trkpt><trkpt lat="41.9328733" lon="-8.090875"><ele>650.6</ele><time>2026-04-18T14:51:41.788Z</time></trkpt><trkpt lat="41.93293" lon="-8.09077"><ele>654.0</ele><time>2026-04-18T14:51:42.788Z</time></trkpt><trkpt lat="41.9329717" lon="-8.0906517"><ele>654.75</ele><time>2026-04-18T14:51:43.788Z</time></trkpt><trkpt lat="41.9330083" lon="-8.090515"><ele>655.5</ele><time>2026-04-18T14:51:44.787Z</time></trkpt><trkpt lat="41.9330533" lon="-8.0903633"><ele>656.25</ele><time>2026-04-18T14:51:45.788Z</time></trkpt><trkpt lat="41.9331017" lon="-8.0902117"><ele>657.0</ele><time>2026-04-18T14:51:46.788Z</time></trkpt><trkpt lat="41.933155" lon="-8.0900617"><ele>657.0</ele><time>2026-04-18T14:51:47.787Z</time></trkpt><trkpt lat="41.9332083" lon="-8.0899117"><ele>657.0</ele><time>2026-04-18T14:51:48.788Z</time></trkpt><trkpt lat="41.9332683" lon="-8.08976"><ele>657.0</ele><time>2026-04-18T14:51:49.787Z</time></trkpt><trkpt lat="41.9333233" lon="-8.0896017"><ele>657.0</ele><time>2026-04-18T14:51:50.787Z</time></trkpt><trkpt lat="41.9333733" lon="-8.08945"><ele>658.75</ele><time>2026-04-18T14:51:51.787Z</time></trkpt><trkpt lat="41.93342" lon="-8.0892933"><ele>660.5</ele><time>2026-04-18T14:51:52.788Z</time></trkpt><trkpt lat="41.9334617" lon="-8.0891267"><ele>662.25</ele><time>2026-04-18T14:51:53.787Z</time></trkpt><trkpt lat="41.9334967" lon="-8.0889667"><ele>664.0</ele><time>2026-04-18T14:51:54.787Z</time></trkpt><trkpt lat="41.933525" lon="-8.0888183"><ele>660.5</ele><time>2026-04-18T14:51:55.786Z</time></trkpt><trkpt lat="41.933555" lon="-8.0886667"><ele>657.0</ele><time>2026-04-18T14:51:56.788Z</time></trkpt><trkpt lat="41.933585" lon="-8.0885067"><ele>653.5</ele><time>2026-04-18T14:51:57.787Z</time></trkpt><trkpt lat="41.9336133" lon="-8.088345"><ele>650.0</ele><time>2026-04-18T14:51:58.787Z</time></trkpt><trkpt lat="41.9336383" lon="-8.08819"><ele>647.2</ele><time>2026-04-18T14:51:59.79Z</time></trkpt><trkpt lat="41.9336617" lon="-8.0880317"><ele>644.4</ele><time>2026-04-18T14:52:00.786Z</time></trkpt><trkpt lat="41.9336833" lon="-8.0878867"><ele>641.6</ele><time>2026-04-18T14:52:01.784Z</time></trkpt><trkpt lat="41.93371" lon="-8.0877567"><ele>638.8</ele><time>2026-04-18T14:52:02.786Z</time></trkpt><trkpt lat="41.933735" lon="-8.0876617"><ele>636.0</ele><time>2026-04-18T14:52:03.789Z</time></trkpt><trkpt lat="41.9337617" lon="-8.0875717"><ele>636.0</ele><time>2026-04-18T14:52:04.786Z</time></trkpt><trkpt lat="41.933815" lon="-8.0875067"><ele>636.0</ele><time>2026-04-18T14:52:06.786Z</time></trkpt><trkpt lat="41.9339083" lon="-8.0875867"><ele>636.0</ele><time>2026-04-18T14:52:08.788Z</time></trkpt><trkpt lat="41.9339717" lon="-8.08763"><ele>636.0</ele><time>2026-04-18T14:52:09.789Z</time></trkpt><trkpt lat="41.9340533" lon="-8.08769"><ele>636.0</ele><time>2026-04-18T14:52:10.787Z</time></trkpt><trkpt lat="41.93415" lon="-8.0877483"><ele>635.0</ele><time>2026-04-18T14:52:11.789Z</time></trkpt><trkpt lat="41.934265" lon="-8.0878083"><ele>634.0</ele><time>2026-04-18T14:52:12.788Z</time></trkpt><trkpt lat="41.9343833" lon="-8.087875"><ele>633.0</ele><time>2026-04-18T14:52:13.789Z</time></trkpt><trkpt lat="41.9345033" lon="-8.08793"><ele>632.0</ele><time>2026-04-18T14:52:14.789Z</time></trkpt><trkpt lat="41.9346267" lon="-8.087975"><ele>632.0</ele><time>2026-04-18T14:52:15.788Z</time></trkpt><trkpt lat="41.9347433" lon="-8.0879917"><ele>632.0</ele><time>2026-04-18T14:52:16.786Z</time></trkpt><trkpt lat="41.934845" lon="-8.088"><ele>632.0</ele><time>2026-04-18T14:52:17.789Z</time></trkpt><trkpt lat="41.9349417" lon="-8.088025"><ele>632.0</ele><time>2026-04-18T14:52:18.787Z</time></trkpt><trkpt lat="41.9350433" lon="-8.0880717"><ele>632.0</ele><time>2026-04-18T14:52:19.787Z</time></trkpt><trkpt lat="41.93514" lon="-8.08814"><ele>632.75</ele><time>2026-04-18T14:52:20.787Z</time></trkpt><trkpt lat="41.935235" lon="-8.0882367"><ele>633.5</ele><time>2026-04-18T14:52:21.786Z</time></trkpt><trkpt lat="41.9353217" lon="-8.0883483"><ele>634.25</ele><time>2026-04-18T14:52:22.786Z</time></trkpt><trkpt lat="41.9354" lon="-8.0884733"><ele>635.0</ele><time>2026-04-18T14:52:23.787Z</time></trkpt><trkpt lat="41.9354817" lon="-8.0885917"><ele>635.0</ele><time>2026-04-18T14:52:24.787Z</time></trkpt><trkpt lat="41.9355583" lon="-8.08869"><ele>635.0</ele><time>2026-04-18T14:52:25.787Z</time></trkpt><trkpt lat="41.93565" lon="-8.088775"><ele>635.0</ele><time>2026-04-18T14:52:26.787Z</time></trkpt><trkpt lat="41.935745" lon="-8.0888533"><ele>635.0</ele><time>2026-04-18T14:52:27.785Z</time></trkpt><trkpt lat="41.93585" lon="-8.088915"><ele>635.0</ele><time>2026-04-18T14:52:28.787Z</time></trkpt><trkpt lat="41.9359617" lon="-8.08897"><ele>634.75</ele><time>2026-04-18T14:52:29.788Z</time></trkpt><trkpt lat="41.936085" lon="-8.0890017"><ele>634.5</ele><time>2026-04-18T14:52:30.791Z</time></trkpt><trkpt lat="41.9362" lon="-8.0890167"><ele>634.25</ele><time>2026-04-18T14:52:31.788Z</time></trkpt><trkpt lat="41.936325" lon="-8.0890383"><ele>634.0</ele><time>2026-04-18T14:52:32.788Z</time></trkpt><trkpt lat="41.9364467" lon="-8.0890733"><ele>634.5</ele><time>2026-04-18T14:52:33.787Z</time></trkpt><trkpt lat="41.9365533" lon="-8.0891"><ele>635.0</ele><time>2026-04-18T14:52:34.786Z</time></trkpt><trkpt lat="41.9366483" lon="-8.0891267"><ele>635.5</ele><time>2026-04-18T14:52:35.787Z</time></trkpt><trkpt lat="41.9367217" lon="-8.0891317"><ele>636.0</ele><time>2026-04-18T14:52:36.788Z</time></trkpt><trkpt lat="41.936785" lon="-8.0891133"><ele>636.5</ele><time>2026-04-18T14:52:37.789Z</time></trkpt><trkpt lat="41.936855" lon="-8.0890883"><ele>637.0</ele><time>2026-04-18T14:52:38.787Z</time></trkpt><trkpt lat="41.9369267" lon="-8.089055"><ele>637.0</ele><time>2026-04-18T14:52:39.786Z</time></trkpt><trkpt lat="41.9370083" lon="-8.0890217"><ele>637.0</ele><time>2026-04-18T14:52:40.79Z</time></trkpt><trkpt lat="41.93708" lon="-8.0889633"><ele>637.0</ele><time>2026-04-18T14:52:41.788Z</time></trkpt><trkpt lat="41.9371383" lon="-8.0888833"><ele>637.0</ele><time>2026-04-18T14:52:42.789Z</time></trkpt><trkpt lat="41.9371883" lon="-8.0887783"><ele>637.0</ele><time>2026-04-18T14:52:43.788Z</time></trkpt><trkpt lat="41.9372483" lon="-8.08866"><ele>637.0</ele><time>2026-04-18T14:52:44.791Z</time></trkpt><trkpt lat="41.93732" lon="-8.0885483"><ele>637.0</ele><time>2026-04-18T14:52:45.789Z</time></trkpt><trkpt lat="41.937395" lon="-8.08845"><ele>637.0</ele><time>2026-04-18T14:52:46.789Z</time></trkpt><trkpt lat="41.9374683" lon="-8.0883583"><ele>637.0</ele><time>2026-04-18T14:52:47.786Z</time></trkpt><trkpt lat="41.9375417" lon="-8.08828"><ele>637.0</ele><time>2026-04-18T14:52:48.788Z</time></trkpt><trkpt lat="41.93763" lon="-8.0882"><ele>637.25</ele><time>2026-04-18T14:52:49.787Z</time></trkpt><trkpt lat="41.9377167" lon="-8.088115"><ele>637.5</ele><time>2026-04-18T14:52:50.787Z</time></trkpt><trkpt lat="41.9378067" lon="-8.0880133"><ele>637.75</ele><time>2026-04-18T14:52:51.787Z</time></trkpt><trkpt lat="41.9379017" lon="-8.087905"><ele>638.0</ele><time>2026-04-18T14:52:52.787Z</time></trkpt><trkpt lat="41.9380017" lon="-8.0877933"><ele>638.0</ele><time>2026-04-18T14:52:53.787Z</time></trkpt><trkpt lat="41.938095" lon="-8.087685"><ele>638.0</ele><time>2026-04-18T14:52:54.787Z</time></trkpt><trkpt lat="41.9381783" lon="-8.0875833"><ele>638.0</ele><time>2026-04-18T14:52:55.788Z</time></trkpt><trkpt lat="41.93825" lon="-8.08749"><ele>638.0</ele><time>2026-04-18T14:52:56.787Z</time></trkpt><trkpt lat="41.9383317" lon="-8.0874217"><ele>638.0</ele><time>2026-04-18T14:52:57.787Z</time></trkpt><trkpt lat="41.938405" lon="-8.0873667"><ele>639.5</ele><time>2026-04-18T14:52:58.787Z</time></trkpt><trkpt lat="41.938475" lon="-8.08732"><ele>641.0</ele><time>2026-04-18T14:52:59.785Z</time></trkpt><trkpt lat="41.9385567" lon="-8.0872833"><ele>642.5</ele><time>2026-04-18T14:53:00.788Z</time></trkpt><trkpt lat="41.9386383" lon="-8.0872367"><ele>644.0</ele><time>2026-04-18T14:53:01.787Z</time></trkpt><trkpt lat="41.9387217" lon="-8.087175"><ele>645.5</ele><time>2026-04-18T14:53:02.784Z</time></trkpt><trkpt lat="41.9388033" lon="-8.0871283"><ele>647.0</ele><time>2026-04-18T14:53:03.786Z</time></trkpt><trkpt lat="41.9388833" lon="-8.087095"><ele>647.0</ele><time>2026-04-18T14:53:04.787Z</time></trkpt><trkpt lat="41.93895" lon="-8.0870833"><ele>647.0</ele><time>2026-04-18T14:53:05.788Z</time></trkpt><trkpt lat="41.9390283" lon="-8.0871067"><ele>647.0</ele><time>2026-04-18T14:53:06.787Z</time></trkpt><trkpt lat="41.93911" lon="-8.087125"><ele>647.0</ele><time>2026-04-18T14:53:07.787Z</time></trkpt><trkpt lat="41.9392017" lon="-8.0871317"><ele>647.0</ele><time>2026-04-18T14:53:08.787Z</time></trkpt><trkpt lat="41.9393017" lon="-8.087125"><ele>647.0</ele><time>2026-04-18T14:53:09.787Z</time></trkpt><trkpt lat="41.93941" lon="-8.0870933"><ele>648.0</ele><time>2026-04-18T14:53:10.787Z</time></trkpt><trkpt lat="41.9395267" lon="-8.08706"><ele>649.0</ele><time>2026-04-18T14:53:11.79Z</time></trkpt><trkpt lat="41.9396333" lon="-8.0870283"><ele>650.0</ele><time>2026-04-18T14:53:12.79Z</time></trkpt><trkpt lat="41.93973" lon="-8.087"><ele>651.0</ele><time>2026-04-18T14:53:13.788Z</time></trkpt><trkpt lat="41.9398017" lon="-8.0869683"><ele>652.0</ele><time>2026-04-18T14:53:14.787Z</time></trkpt><trkpt lat="41.9398617" lon="-8.086935"><ele>652.0</ele><time>2026-04-18T14:53:15.787Z</time></trkpt><trkpt lat="41.939945" lon="-8.086845"><ele>652.0</ele><time>2026-04-18T14:53:17.787Z</time></trkpt><trkpt lat="41.9399333" lon="-8.0866967"><ele>652.0</ele><time>2026-04-18T14:53:19.786Z</time></trkpt><trkpt lat="41.9398167" lon="-8.0866183"><ele>652.0</ele><time>2026-04-18T14:53:21.788Z</time></trkpt><trkpt lat="41.9397083" lon="-8.0866217"><ele>652.0</ele><time>2026-04-18T14:53:22.788Z</time></trkpt><trkpt lat="41.93963" lon="-8.0866167"><ele>652.0</ele><time>2026-04-18T14:53:23.786Z</time></trkpt><trkpt lat="41.93955" lon="-8.0865683"><ele>652.0</ele><time>2026-04-18T14:53:25.788Z</time></trkpt><trkpt lat="41.9395817" lon="-8.08647"><ele>652.0</ele><time>2026-04-18T14:53:27.787Z</time></trkpt><trkpt lat="41.9396383" lon="-8.0864117"><ele>652.0</ele><time>2026-04-18T14:53:28.785Z</time></trkpt><trkpt lat="41.9397083" lon="-8.08635"><ele>652.0</ele><time>2026-04-18T14:53:29.787Z</time></trkpt><trkpt lat="41.9397933" lon="-8.0862833"><ele>652.0</ele><time>2026-04-18T14:53:30.786Z</time></trkpt><trkpt lat="41.9398817" lon="-8.0862317"><ele>652.0</ele><time>2026-04-18T14:53:31.788Z</time></trkpt><trkpt lat="41.9399733" lon="-8.08619"><ele>652.0</ele><time>2026-04-18T14:53:32.788Z</time></trkpt><trkpt lat="41.9400683" lon="-8.086155"><ele>652.0</ele><time>2026-04-18T14:53:33.786Z</time></trkpt><trkpt lat="41.94015" lon="-8.0861267"><ele>652.0</ele><time>2026-04-18T14:53:34.786Z</time></trkpt><trkpt lat="41.9402167" lon="-8.0860633"><ele>652.0</ele><time>2026-04-18T14:53:35.789Z</time></trkpt><trkpt lat="41.940275" lon="-8.0859817"><ele>652.0</ele><time>2026-04-18T14:53:36.786Z</time></trkpt><trkpt lat="41.9403183" lon="-8.0859033"><ele>652.0</ele><time>2026-04-18T14:53:37.788Z</time></trkpt><trkpt lat="41.9403183" lon="-8.0857733"><ele>652.0</ele><time>2026-04-18T14:53:39.788Z</time></trkpt><trkpt lat="41.9402833" lon="-8.08562"><ele>652.0</ele><time>2026-04-18T14:53:41.788Z</time></trkpt><trkpt lat="41.9403" lon="-8.0854733"><ele>653.1666666666667</ele><time>2026-04-18T14:53:43.788Z</time></trkpt><trkpt lat="41.9403533" lon="-8.0854083"><ele>654.3333333333334</ele><time>2026-04-18T14:53:44.79Z</time></trkpt><trkpt lat="41.94041" lon="-8.0853333"><ele>655.5</ele><time>2026-04-18T14:53:45.787Z</time></trkpt><trkpt lat="41.9404667" lon="-8.0852367"><ele>656.6666666666666</ele><time>2026-04-18T14:53:46.788Z</time></trkpt><trkpt lat="41.9405083" lon="-8.0851383"><ele>657.8333333333333</ele><time>2026-04-18T14:53:47.786Z</time></trkpt><trkpt lat="41.940525" lon="-8.085045"><ele>659.0</ele><time>2026-04-18T14:53:48.785Z</time></trkpt><trkpt lat="41.9405317" lon="-8.0849517"><ele>661.3333333333333</ele><time>2026-04-18T14:53:49.786Z</time></trkpt><trkpt lat="41.9405217" lon="-8.0848617"><ele>663.6666666666666</ele><time>2026-04-18T14:53:50.787Z</time></trkpt><trkpt lat="41.9404867" lon="-8.0847767"><ele>666.0</ele><time>2026-04-18T14:53:51.784Z</time></trkpt><trkpt lat="41.9404367" lon="-8.084685"><ele>668.3333333333334</ele><time>2026-04-18T14:53:52.786Z</time></trkpt><trkpt lat="41.940395" lon="-8.0845833"><ele>670.6666666666667</ele><time>2026-04-18T14:53:53.786Z</time></trkpt><trkpt lat="41.940355" lon="-8.0844833"><ele>673.0</ele><time>2026-04-18T14:53:54.788Z</time></trkpt><trkpt lat="41.94031" lon="-8.0843983"><ele>673.0</ele><time>2026-04-18T14:53:55.786Z</time></trkpt><trkpt lat="41.9402583" lon="-8.08431"><ele>673.0</ele><time>2026-04-18T14:53:56.79Z</time></trkpt><trkpt lat="41.940225" lon="-8.0842217"><ele>673.0</ele><time>2026-04-18T14:53:57.788Z</time></trkpt><trkpt lat="41.94021" lon="-8.08413"><ele>673.0</ele><time>2026-04-18T14:53:58.789Z</time></trkpt><trkpt lat="41.9402033" lon="-8.0840367"><ele>673.0</ele><time>2026-04-18T14:53:59.788Z</time></trkpt><trkpt lat="41.9402083" lon="-8.083915"><ele>673.0</ele><time>2026-04-18T14:54:00.786Z</time></trkpt><trkpt lat="41.9402083" lon="-8.0838133"><ele>672.8333333333334</ele><time>2026-04-18T14:54:01.786Z</time></trkpt><trkpt lat="41.9402083" lon="-8.08372"><ele>672.6666666666667</ele><time>2026-04-18T14:54:02.79Z</time></trkpt><trkpt lat="41.9402183" lon="-8.083635"><ele>672.5</ele><time>2026-04-18T14:54:03.785Z</time></trkpt><trkpt lat="41.9402567" lon="-8.0835367"><ele>672.3333333333334</ele><time>2026-04-18T14:54:04.788Z</time></trkpt><trkpt lat="41.940305" lon="-8.083435"><ele>672.1666666666666</ele><time>2026-04-18T14:54:05.786Z</time></trkpt><trkpt lat="41.940355" lon="-8.0833217"><ele>672.0</ele><time>2026-04-18T14:54:06.788Z</time></trkpt><trkpt lat="41.9403967" lon="-8.0831917"><ele>672.0</ele><time>2026-04-18T14:54:07.788Z</time></trkpt><trkpt lat="41.9404433" lon="-8.083045"><ele>672.0</ele><time>2026-04-18T14:54:08.79Z</time></trkpt><trkpt lat="41.94049" lon="-8.0829117"><ele>672.0</ele><time>2026-04-18T14:54:09.788Z</time></trkpt><trkpt lat="41.9405333" lon="-8.0827883"><ele>672.0</ele><time>2026-04-18T14:54:10.786Z</time></trkpt><trkpt lat="41.9405767" lon="-8.0826583"><ele>672.0</ele><time>2026-04-18T14:54:11.789Z</time></trkpt><trkpt lat="41.9406233" lon="-8.0825217"><ele>670.5</ele><time>2026-04-18T14:54:12.787Z</time></trkpt><trkpt lat="41.9406767" lon="-8.082395"><ele>669.0</ele><time>2026-04-18T14:54:13.787Z</time></trkpt><trkpt lat="41.9407417" lon="-8.0822683"><ele>667.5</ele><time>2026-04-18T14:54:14.786Z</time></trkpt><trkpt lat="41.940815" lon="-8.0821517"><ele>666.0</ele><time>2026-04-18T14:54:15.788Z</time></trkpt><trkpt lat="41.9408917" lon="-8.0820383"><ele>666.0</ele><time>2026-04-18T14:54:16.785Z</time></trkpt><trkpt lat="41.940985" lon="-8.0819217"><ele>666.0</ele><time>2026-04-18T14:54:17.785Z</time></trkpt><trkpt lat="41.941085" lon="-8.0818133"><ele>666.0</ele><time>2026-04-18T14:54:18.79Z</time></trkpt><trkpt lat="41.9411917" lon="-8.081695"><ele>666.0</ele><time>2026-04-18T14:54:19.788Z</time></trkpt><trkpt lat="41.9412917" lon="-8.081585"><ele>665.5</ele><time>2026-04-18T14:54:20.787Z</time></trkpt><trkpt lat="41.9413833" lon="-8.0814633"><ele>665.0</ele><time>2026-04-18T14:54:21.788Z</time></trkpt><trkpt lat="41.9414617" lon="-8.0813317"><ele>664.5</ele><time>2026-04-18T14:54:22.787Z</time></trkpt><trkpt lat="41.9415383" lon="-8.0812033"><ele>664.0</ele><time>2026-04-18T14:54:23.786Z</time></trkpt><trkpt lat="41.9416083" lon="-8.0810833"><ele>664.0</ele><time>2026-04-18T14:54:24.79Z</time></trkpt><trkpt lat="41.9416733" lon="-8.0809767"><ele>664.0</ele><time>2026-04-18T14:54:25.788Z</time></trkpt><trkpt lat="41.9417333" lon="-8.080885"><ele>664.0</ele><time>2026-04-18T14:54:26.788Z</time></trkpt><trkpt lat="41.941785" lon="-8.0808067"><ele>664.0</ele><time>2026-04-18T14:54:27.787Z</time></trkpt><trkpt lat="41.94182" lon="-8.0806933"><ele>664.0</ele><time>2026-04-18T14:54:29.788Z</time></trkpt><trkpt lat="41.9417533" lon="-8.08059"><ele>663.6666666666667</ele><time>2026-04-18T14:54:32.79Z</time></trkpt><trkpt lat="41.9416767" lon="-8.08055"><ele>663.3333333333334</ele><time>2026-04-18T14:54:34.787Z</time></trkpt><trkpt lat="41.9417367" lon="-8.0806283"><ele>663.0</ele><time>2026-04-18T14:58:06.787Z</time></trkpt><trkpt lat="41.9417967" lon="-8.0806583"><ele>662.6666666666666</ele><time>2026-04-18T14:58:08.787Z</time></trkpt><trkpt lat="41.941885" lon="-8.0806683"><ele>662.3333333333333</ele><time>2026-04-18T14:58:11.787Z</time></trkpt><trkpt lat="41.9419333" lon="-8.080605"><ele>662.0</ele><time>2026-04-18T14:58:13.787Z</time></trkpt><trkpt lat="41.942005" lon="-8.080495"><ele>662.0</ele><time>2026-04-18T14:58:15.787Z</time></trkpt><trkpt lat="41.9421183" lon="-8.080405"><ele>662.0</ele><time>2026-04-18T14:58:17.788Z</time></trkpt><trkpt lat="41.9421817" lon="-8.0803583"><ele>662.0</ele><time>2026-04-18T14:58:18.786Z</time></trkpt><trkpt lat="41.9422483" lon="-8.0803017"><ele>662.0</ele><time>2026-04-18T14:58:19.785Z</time></trkpt><trkpt lat="41.942315" lon="-8.0802433"><ele>662.0</ele><time>2026-04-18T14:58:20.787Z</time></trkpt><trkpt lat="41.942385" lon="-8.080185"><ele>662.0</ele><time>2026-04-18T14:58:21.787Z</time></trkpt><trkpt lat="41.9424567" lon="-8.08011"><ele>662.0</ele><time>2026-04-18T14:58:22.788Z</time></trkpt><trkpt lat="41.9425217" lon="-8.0800183"><ele>662.0</ele><time>2026-04-18T14:58:23.786Z</time></trkpt><trkpt lat="41.942585" lon="-8.0799267"><ele>662.0</ele><time>2026-04-18T14:58:24.79Z</time></trkpt><trkpt lat="41.9426417" lon="-8.079845"><ele>662.0</ele><time>2026-04-18T14:58:25.788Z</time></trkpt><trkpt lat="41.9426967" lon="-8.0797783"><ele>662.0</ele><time>2026-04-18T14:58:26.788Z</time></trkpt><trkpt lat="41.942755" lon="-8.0797233"><ele>662.0</ele><time>2026-04-18T14:58:27.788Z</time></trkpt><trkpt lat="41.942825" lon="-8.0796733"><ele>663.0</ele><time>2026-04-18T14:58:28.788Z</time></trkpt><trkpt lat="41.9429067" lon="-8.0796233"><ele>664.0</ele><time>2026-04-18T14:58:29.788Z</time></trkpt><trkpt lat="41.94301" lon="-8.079585"><ele>665.0</ele><time>2026-04-18T14:58:30.788Z</time></trkpt><trkpt lat="41.9431367" lon="-8.07955"><ele>666.0</ele><time>2026-04-18T14:58:31.787Z</time></trkpt><trkpt lat="41.94328" lon="-8.0795083"><ele>668.75</ele><time>2026-04-18T14:58:32.79Z</time></trkpt><trkpt lat="41.9434117" lon="-8.0794483"><ele>671.5</ele><time>2026-04-18T14:58:33.788Z</time></trkpt><trkpt lat="41.943535" lon="-8.0793667"><ele>674.25</ele><time>2026-04-18T14:58:34.787Z</time></trkpt><trkpt lat="41.943655" lon="-8.07928"><ele>677.0</ele><time>2026-04-18T14:58:35.787Z</time></trkpt><trkpt lat="41.943775" lon="-8.07919"><ele>677.0</ele><time>2026-04-18T14:58:36.79Z</time></trkpt><trkpt lat="41.9438933" lon="-8.0791083"><ele>677.0</ele><time>2026-04-18T14:58:37.787Z</time></trkpt><trkpt lat="41.943995" lon="-8.07904"><ele>677.0</ele><time>2026-04-18T14:58:38.787Z</time></trkpt><trkpt lat="41.9440783" lon="-8.078995"><ele>677.0</ele><time>2026-04-18T14:58:39.788Z</time></trkpt><trkpt lat="41.9441517" lon="-8.0789717"><ele>677.0</ele><time>2026-04-18T14:58:40.788Z</time></trkpt><trkpt lat="41.944215" lon="-8.07898"><ele>676.6</ele><time>2026-04-18T14:58:41.786Z</time></trkpt><trkpt lat="41.9442933" lon="-8.0790967"><ele>676.2</ele><time>2026-04-18T14:58:43.787Z</time></trkpt><trkpt lat="41.9443233" lon="-8.0791967"><ele>675.8</ele><time>2026-04-18T14:58:44.789Z</time></trkpt><trkpt lat="41.944365" lon="-8.0792933"><ele>675.4</ele><time>2026-04-18T14:58:45.788Z</time></trkpt><trkpt lat="41.94441" lon="-8.0794333"><ele>675.0</ele><time>2026-04-18T14:58:46.788Z</time></trkpt><trkpt lat="41.9444683" lon="-8.0795517"><ele>676.6</ele><time>2026-04-18T14:58:47.785Z</time></trkpt><trkpt lat="41.944535" lon="-8.0796583"><ele>678.2</ele><time>2026-04-18T14:58:48.787Z</time></trkpt><trkpt lat="41.944605" lon="-8.0797517"><ele>679.8</ele><time>2026-04-18T14:58:49.787Z</time></trkpt><trkpt lat="41.944675" lon="-8.0798333"><ele>681.4</ele><time>2026-04-18T14:58:50.787Z</time></trkpt><trkpt lat="41.9447417" lon="-8.0799133"><ele>683.0</ele><time>2026-04-18T14:58:51.785Z</time></trkpt><trkpt lat="41.9448033" lon="-8.0799917"><ele>683.6666666666666</ele><time>2026-04-18T14:58:52.785Z</time></trkpt><trkpt lat="41.9448583" lon="-8.0800667"><ele>684.3333333333333</ele><time>2026-04-18T14:58:53.787Z</time></trkpt><trkpt lat="41.9449167" lon="-8.080145"><ele>685.0</ele><time>2026-04-18T14:58:54.788Z</time></trkpt><trkpt lat="41.9449733" lon="-8.0802267"><ele>685.6666666666666</ele><time>2026-04-18T14:58:55.788Z</time></trkpt><trkpt lat="41.9450267" lon="-8.0803133"><ele>686.3333333333334</ele><time>2026-04-18T14:58:56.789Z</time></trkpt><trkpt lat="41.9450833" lon="-8.0804067"><ele>687.0</ele><time>2026-04-18T14:58:57.787Z</time></trkpt><trkpt lat="41.9451433" lon="-8.0805017"><ele>687.6666666666666</ele><time>2026-04-18T14:58:58.788Z</time></trkpt><trkpt lat="41.9452067" lon="-8.080585"><ele>688.3333333333334</ele><time>2026-04-18T14:58:59.789Z</time></trkpt><trkpt lat="41.94527" lon="-8.08065"><ele>689.0</ele><time>2026-04-18T14:59:00.788Z</time></trkpt><trkpt lat="41.945345" lon="-8.0806933"><ele>689.6666666666667</ele><time>2026-04-18T14:59:01.788Z</time></trkpt><trkpt lat="41.9454233" lon="-8.080735"><ele>690.3333333333334</ele><time>2026-04-18T14:59:02.79Z</time></trkpt><trkpt lat="41.9454967" lon="-8.08078"><ele>691.0</ele><time>2026-04-18T14:59:03.787Z</time></trkpt><trkpt lat="41.9455683" lon="-8.080825"><ele>691.0</ele><time>2026-04-18T14:59:04.787Z</time></trkpt><trkpt lat="41.945635" lon="-8.080865"><ele>691.0</ele><time>2026-04-18T14:59:05.788Z</time></trkpt><trkpt lat="41.9457033" lon="-8.0808867"><ele>691.0</ele><time>2026-04-18T14:59:06.786Z</time></trkpt><trkpt lat="41.9457667" lon="-8.0808883"><ele>691.0</ele><time>2026-04-18T14:59:07.789Z</time></trkpt><trkpt lat="41.9458783" lon="-8.0808567"><ele>691.0</ele><time>2026-04-18T14:59:09.787Z</time></trkpt><trkpt lat="41.94598" lon="-8.0808183"><ele>691.0</ele><time>2026-04-18T14:59:11.788Z</time></trkpt><trkpt lat="41.9460917" lon="-8.0808183"><ele>692.1666666666667</ele><time>2026-04-18T14:59:13.788Z</time></trkpt><trkpt lat="41.9461583" lon="-8.08085"><ele>693.3333333333334</ele><time>2026-04-18T14:59:14.789Z</time></trkpt><trkpt lat="41.9462317" lon="-8.0809083"><ele>694.5</ele><time>2026-04-18T14:59:15.788Z</time></trkpt><trkpt lat="41.9463183" lon="-8.08097"><ele>695.6666666666666</ele><time>2026-04-18T14:59:16.788Z</time></trkpt><trkpt lat="41.9464067" lon="-8.0810267"><ele>696.8333333333333</ele><time>2026-04-18T14:59:17.788Z</time></trkpt><trkpt lat="41.9464933" lon="-8.0810833"><ele>698.0</ele><time>2026-04-18T14:59:18.787Z</time></trkpt><trkpt lat="41.94657" lon="-8.0811533"><ele>698.0</ele><time>2026-04-18T14:59:19.785Z</time></trkpt><trkpt lat="41.9466433" lon="-8.08124"><ele>698.0</ele><time>2026-04-18T14:59:20.786Z</time></trkpt><trkpt lat="41.94671" lon="-8.08134"><ele>698.0</ele><time>2026-04-18T14:59:21.787Z</time></trkpt><trkpt lat="41.946775" lon="-8.0814417"><ele>698.0</ele><time>2026-04-18T14:59:22.786Z</time></trkpt><trkpt lat="41.94684" lon="-8.08154"><ele>698.0</ele><time>2026-04-18T14:59:23.787Z</time></trkpt><trkpt lat="41.9469033" lon="-8.0816317"><ele>697.4</ele><time>2026-04-18T14:59:24.788Z</time></trkpt><trkpt lat="41.9469617" lon="-8.08171"><ele>696.8</ele><time>2026-04-18T14:59:25.788Z</time></trkpt><trkpt lat="41.9470167" lon="-8.0817817"><ele>696.2</ele><time>2026-04-18T14:59:26.788Z</time></trkpt><trkpt lat="41.9470667" lon="-8.0818483"><ele>695.6</ele><time>2026-04-18T14:59:27.789Z</time></trkpt><trkpt lat="41.9471583" lon="-8.0819467"><ele>695.0</ele><time>2026-04-18T14:59:29.788Z</time></trkpt><trkpt lat="41.9472533" lon="-8.0820317"><ele>695.0000000000001</ele><time>2026-04-18T14:59:31.789Z</time></trkpt><trkpt lat="41.9473533" lon="-8.0821067"><ele>695.0</ele><time>2026-04-18T14:59:33.788Z</time></trkpt><trkpt lat="41.9474117" lon="-8.0821417"><ele>695.0</ele><time>2026-04-18T14:59:34.787Z</time></trkpt><trkpt lat="41.9474733" lon="-8.0821633"><ele>695.0</ele><time>2026-04-18T14:59:35.787Z</time></trkpt><trkpt lat="41.9475417" lon="-8.0821683"><ele>695.0</ele><time>2026-04-18T14:59:36.788Z</time></trkpt><trkpt lat="41.9476083" lon="-8.0821633"><ele>695.0000000000001</ele><time>2026-04-18T14:59:37.788Z</time></trkpt><trkpt lat="41.9476783" lon="-8.0821417"><ele>695.0</ele><time>2026-04-18T14:59:38.789Z</time></trkpt><trkpt lat="41.9477533" lon="-8.0821067"><ele>694.8333333333333</ele><time>2026-04-18T14:59:39.787Z</time></trkpt><trkpt lat="41.9478333" lon="-8.082065"><ele>694.6666666666666</ele><time>2026-04-18T14:59:40.789Z</time></trkpt><trkpt lat="41.9479133" lon="-8.0820317"><ele>694.5</ele><time>2026-04-18T14:59:41.786Z</time></trkpt><trkpt lat="41.9479917" lon="-8.08201"><ele>694.3333333333334</ele><time>2026-04-18T14:59:42.787Z</time></trkpt><trkpt lat="41.9480633" lon="-8.0820017"><ele>694.1666666666667</ele><time>2026-04-18T14:59:43.788Z</time></trkpt><trkpt lat="41.9481433" lon="-8.0820167"><ele>694.0</ele><time>2026-04-18T14:59:44.79Z</time></trkpt><trkpt lat="41.94823" lon="-8.0820417"><ele>694.0</ele><time>2026-04-18T14:59:45.787Z</time></trkpt><trkpt lat="41.9483183" lon="-8.082065"><ele>694.0</ele><time>2026-04-18T14:59:46.787Z</time></trkpt><trkpt lat="41.9484017" lon="-8.08208"><ele>694.0</ele><time>2026-04-18T14:59:47.786Z</time></trkpt><trkpt lat="41.948485" lon="-8.082085"><ele>694.0</ele><time>2026-04-18T14:59:48.786Z</time></trkpt><trkpt lat="41.94857" lon="-8.0820717"><ele>694.0</ele><time>2026-04-18T14:59:49.786Z</time></trkpt><trkpt lat="41.9486533" lon="-8.0820467"><ele>694.0</ele><time>2026-04-18T14:59:50.787Z</time></trkpt><trkpt lat="41.9487217" lon="-8.082015"><ele>694.6666666666667</ele><time>2026-04-18T14:59:51.786Z</time></trkpt><trkpt lat="41.9487833" lon="-8.081965"><ele>695.3333333333334</ele><time>2026-04-18T14:59:52.786Z</time></trkpt><trkpt lat="41.9488383" lon="-8.0818917"><ele>696.0</ele><time>2026-04-18T14:59:53.787Z</time></trkpt><trkpt lat="41.9488883" lon="-8.081805"><ele>696.6666666666666</ele><time>2026-04-18T14:59:54.79Z</time></trkpt><trkpt lat="41.948945" lon="-8.08172"><ele>697.3333333333333</ele><time>2026-04-18T14:59:55.788Z</time></trkpt><trkpt lat="41.9490033" lon="-8.08164"><ele>698.0</ele><time>2026-04-18T14:59:56.79Z</time></trkpt><trkpt lat="41.94906" lon="-8.081565"><ele>698.0</ele><time>2026-04-18T14:59:57.787Z</time></trkpt><trkpt lat="41.9491133" lon="-8.0814983"><ele>698.0</ele><time>2026-04-18T14:59:58.786Z</time></trkpt><trkpt lat="41.94917" lon="-8.081445"><ele>698.0</ele><time>2026-04-18T14:59:59.787Z</time></trkpt><trkpt lat="41.9492333" lon="-8.0813917"><ele>698.0</ele><time>2026-04-18T15:00:00.786Z</time></trkpt><trkpt lat="41.949305" lon="-8.0813383"><ele>698.0</ele><time>2026-04-18T15:00:01.787Z</time></trkpt><trkpt lat="41.949375" lon="-8.08129"><ele>698.0</ele><time>2026-04-18T15:00:02.787Z</time></trkpt><trkpt lat="41.9494483" lon="-8.08125"><ele>697.8333333333333</ele><time>2026-04-18T15:00:03.786Z</time></trkpt><trkpt lat="41.9495217" lon="-8.0812233"><ele>697.6666666666666</ele><time>2026-04-18T15:00:04.786Z</time></trkpt><trkpt lat="41.949595" lon="-8.08121"><ele>697.5</ele><time>2026-04-18T15:00:05.786Z</time></trkpt><trkpt lat="41.9496733" lon="-8.08121"><ele>697.3333333333334</ele><time>2026-04-18T15:00:06.787Z</time></trkpt><trkpt lat="41.949765" lon="-8.0812517"><ele>697.1666666666667</ele><time>2026-04-18T15:00:07.787Z</time></trkpt><trkpt lat="41.9498617" lon="-8.08131"><ele>697.0</ele><time>2026-04-18T15:00:08.788Z</time></trkpt><trkpt lat="41.9499733" lon="-8.0813417"><ele>699.4000000000001</ele><time>2026-04-18T15:00:09.788Z</time></trkpt><trkpt lat="41.9500783" lon="-8.0813633"><ele>701.8000000000001</ele><time>2026-04-18T15:00:10.786Z</time></trkpt><trkpt lat="41.9501767" lon="-8.0813733"><ele>704.2</ele><time>2026-04-18T15:00:11.786Z</time></trkpt><trkpt lat="41.9502717" lon="-8.0813717"><ele>706.6</ele><time>2026-04-18T15:00:12.787Z</time></trkpt><trkpt lat="41.9503517" lon="-8.081375"><ele>709.0</ele><time>2026-04-18T15:00:13.787Z</time></trkpt><trkpt lat="41.9504267" lon="-8.0813933"><ele>709.0</ele><time>2026-04-18T15:00:14.787Z</time></trkpt><trkpt lat="41.950495" lon="-8.081425"><ele>709.0</ele><time>2026-04-18T15:00:15.787Z</time></trkpt><trkpt lat="41.9505483" lon="-8.081495"><ele>709.0</ele><time>2026-04-18T15:00:16.787Z</time></trkpt><trkpt lat="41.9505867" lon="-8.0815767"><ele>709.0</ele><time>2026-04-18T15:00:17.786Z</time></trkpt><trkpt lat="41.9506433" lon="-8.08167"><ele>709.0</ele><time>2026-04-18T15:00:19.787Z</time></trkpt><trkpt lat="41.9507017" lon="-8.08173"><ele>709.0</ele><time>2026-04-18T15:00:21.787Z</time></trkpt><trkpt lat="41.950805" lon="-8.081755"><ele>707.2857142857143</ele><time>2026-04-18T15:00:23.787Z</time></trkpt><trkpt lat="41.9508717" lon="-8.0817583"><ele>705.5714285714286</ele><time>2026-04-18T15:00:24.787Z</time></trkpt><trkpt lat="41.9509383" lon="-8.0817617"><ele>703.8571428571429</ele><time>2026-04-18T15:00:25.787Z</time></trkpt><trkpt lat="41.9510117" lon="-8.0817517"><ele>702.1428571428571</ele><time>2026-04-18T15:00:26.786Z</time></trkpt><trkpt lat="41.9510883" lon="-8.0817383"><ele>700.4285714285714</ele><time>2026-04-18T15:00:27.787Z</time></trkpt><trkpt lat="41.951155" lon="-8.08172"><ele>698.7142857142858</ele><time>2026-04-18T15:00:28.787Z</time></trkpt><trkpt lat="41.95123" lon="-8.081715"><ele>697.0</ele><time>2026-04-18T15:00:29.786Z</time></trkpt><trkpt lat="41.9513117" lon="-8.08173"><ele>697.0</ele><time>2026-04-18T15:00:30.788Z</time></trkpt><trkpt lat="41.95139" lon="-8.0817633"><ele>697.0</ele><time>2026-04-18T15:00:31.787Z</time></trkpt><trkpt lat="41.9514517" lon="-8.081805"><ele>697.0</ele><time>2026-04-18T15:00:32.786Z</time></trkpt><trkpt lat="41.951505" lon="-8.0818717"><ele>697.0</ele><time>2026-04-18T15:00:33.786Z</time></trkpt><trkpt lat="41.9515583" lon="-8.081935"><ele>697.0</ele><time>2026-04-18T15:00:34.785Z</time></trkpt><trkpt lat="41.951625" lon="-8.0819883"><ele>697.0</ele><time>2026-04-18T15:00:35.787Z</time></trkpt><trkpt lat="41.9516983" lon="-8.0820233"><ele>697.6</ele><time>2026-04-18T15:00:36.787Z</time></trkpt><trkpt lat="41.9518083" lon="-8.0820717"><ele>698.2</ele><time>2026-04-18T15:00:38.787Z</time></trkpt><trkpt lat="41.9518783" lon="-8.0820917"><ele>698.8</ele><time>2026-04-18T15:00:39.787Z</time></trkpt><trkpt lat="41.95196" lon="-8.0820767"><ele>699.4</ele><time>2026-04-18T15:00:40.786Z</time></trkpt><trkpt lat="41.9520617" lon="-8.08205"><ele>700.0</ele><time>2026-04-18T15:00:41.789Z</time></trkpt><trkpt lat="41.95216" lon="-8.0820217"><ele>700.0</ele><time>2026-04-18T15:00:42.789Z</time></trkpt><trkpt lat="41.952255" lon="-8.0819967"><ele>700.0</ele><time>2026-04-18T15:00:43.788Z</time></trkpt><trkpt lat="41.9523383" lon="-8.0819867"><ele>700.0</ele><time>2026-04-18T15:00:44.791Z</time></trkpt><trkpt lat="41.9524283" lon="-8.0819833"><ele>700.0</ele><time>2026-04-18T15:00:45.786Z</time></trkpt><trkpt lat="41.9525217" lon="-8.0819717"><ele>700.0</ele><time>2026-04-18T15:00:46.789Z</time></trkpt><trkpt lat="41.952615" lon="-8.081945"><ele>700.1666666666667</ele><time>2026-04-18T15:00:47.785Z</time></trkpt><trkpt lat="41.9527067" lon="-8.0819117"><ele>700.3333333333334</ele><time>2026-04-18T15:00:48.788Z</time></trkpt><trkpt lat="41.9527883" lon="-8.081875"><ele>700.5</ele><time>2026-04-18T15:00:49.788Z</time></trkpt><trkpt lat="41.9528583" lon="-8.0818383"><ele>700.6666666666666</ele><time>2026-04-18T15:00:50.787Z</time></trkpt><trkpt lat="41.9529183" lon="-8.0817983"><ele>700.8333333333333</ele><time>2026-04-18T15:00:51.786Z</time></trkpt><trkpt lat="41.9530017" lon="-8.0817183"><ele>701.0</ele><time>2026-04-18T15:00:53.787Z</time></trkpt><trkpt lat="41.9530133" lon="-8.0816017"><ele>702.5999999999999</ele><time>2026-04-18T15:00:55.788Z</time></trkpt><trkpt lat="41.9529933" lon="-8.081515"><ele>704.2</ele><time>2026-04-18T15:00:56.79Z</time></trkpt><trkpt lat="41.9529617" lon="-8.0814033"><ele>705.8</ele><time>2026-04-18T15:00:57.788Z</time></trkpt><trkpt lat="41.9529317" lon="-8.0812533"><ele>707.4000000000001</ele><time>2026-04-18T15:00:58.785Z</time></trkpt><trkpt lat="41.9529083" lon="-8.0810983"><ele>709.0</ele><time>2026-04-18T15:00:59.786Z</time></trkpt><trkpt lat="41.9528817" lon="-8.0809583"><ele>709.0</ele><time>2026-04-18T15:01:00.787Z</time></trkpt><trkpt lat="41.9528517" lon="-8.08086"><ele>709.0</ele><time>2026-04-18T15:01:01.787Z</time></trkpt><trkpt lat="41.9528017" lon="-8.0807983"><ele>709.0</ele><time>2026-04-18T15:01:02.786Z</time></trkpt><trkpt lat="41.952745" lon="-8.0807517"><ele>709.0</ele><time>2026-04-18T15:01:03.787Z</time></trkpt><trkpt lat="41.9526683" lon="-8.0807417"><ele>709.0</ele><time>2026-04-18T15:01:04.786Z</time></trkpt><trkpt lat="41.952585" lon="-8.080665"><ele>709.0</ele><time>2026-04-18T15:01:06.787Z</time></trkpt><trkpt lat="41.9525733" lon="-8.0805267"><ele>711.0</ele><time>2026-04-18T15:01:08.788Z</time></trkpt><trkpt lat="41.9525633" lon="-8.080405"><ele>713.0</ele><time>2026-04-18T15:01:09.787Z</time></trkpt><trkpt lat="41.9525417" lon="-8.08029"><ele>715.0</ele><time>2026-04-18T15:01:10.785Z</time></trkpt><trkpt lat="41.9525067" lon="-8.0802033"><ele>717.0</ele><time>2026-04-18T15:01:11.787Z</time></trkpt><trkpt lat="41.952425" lon="-8.0801667"><ele>719.0</ele><time>2026-04-18T15:01:12.787Z</time></trkpt><trkpt lat="41.9523317" lon="-8.0801467"><ele>721.0</ele><time>2026-04-18T15:01:13.787Z</time></trkpt><trkpt lat="41.9522" lon="-8.0801167"><ele>721.5</ele><time>2026-04-18T15:01:14.788Z</time></trkpt><trkpt lat="41.9520617" lon="-8.0800833"><ele>722.0</ele><time>2026-04-18T15:01:15.788Z</time></trkpt><trkpt lat="41.9519367" lon="-8.0800517"><ele>722.5</ele><time>2026-04-18T15:01:16.788Z</time></trkpt><trkpt lat="41.951835" lon="-8.0800033"><ele>723.0</ele><time>2026-04-18T15:01:17.784Z</time></trkpt><trkpt lat="41.9517717" lon="-8.079935"><ele>724.2</ele><time>2026-04-18T15:01:18.786Z</time></trkpt><trkpt lat="41.9517283" lon="-8.07985"><ele>725.4</ele><time>2026-04-18T15:01:19.786Z</time></trkpt><trkpt lat="41.951695" lon="-8.07976"><ele>726.6</ele><time>2026-04-18T15:01:20.786Z</time></trkpt><trkpt lat="41.9516783" lon="-8.079675"><ele>727.8000000000001</ele><time>2026-04-18T15:01:21.784Z</time></trkpt><trkpt lat="41.95166" lon="-8.07951"><ele>729.0</ele><time>2026-04-18T15:01:23.786Z</time></trkpt><trkpt lat="41.9516067" lon="-8.07936"><ele>729.0</ele><time>2026-04-18T15:01:25.787Z</time></trkpt><trkpt lat="41.9515983" lon="-8.079225"><ele>729.0</ele><time>2026-04-18T15:01:27.788Z</time></trkpt><trkpt lat="41.9516017" lon="-8.07914"><ele>729.0</ele><time>2026-04-18T15:01:29.786Z</time></trkpt><trkpt lat="41.95165" lon="-8.0790767"><ele>729.0</ele><time>2026-04-18T15:05:38.785Z</time></trkpt><trkpt lat="41.951645" lon="-8.0792083"><ele>729.0</ele><time>2026-04-18T15:05:42.788Z</time></trkpt><trkpt lat="41.9516333" lon="-8.07937"><ele>729.0</ele><time>2026-04-18T15:05:44.788Z</time></trkpt><trkpt lat="41.9516333" lon="-8.079455"><ele>729.0</ele><time>2026-04-18T15:05:45.788Z</time></trkpt><trkpt lat="41.9516533" lon="-8.0795467"><ele>729.0</ele><time>2026-04-18T15:05:46.788Z</time></trkpt><trkpt lat="41.9516733" lon="-8.0796383"><ele>729.0</ele><time>2026-04-18T15:05:47.786Z</time></trkpt><trkpt lat="41.9516883" lon="-8.0797233"><ele>729.0</ele><time>2026-04-18T15:05:48.788Z</time></trkpt><trkpt lat="41.9517367" lon="-8.0798583"><ele>729.0</ele><time>2026-04-18T15:05:50.786Z</time></trkpt><trkpt lat="41.9518167" lon="-8.079975"><ele>728.0</ele><time>2026-04-18T15:05:52.786Z</time></trkpt><trkpt lat="41.9518683" lon="-8.080035"><ele>727.0</ele><time>2026-04-18T15:05:53.787Z</time></trkpt><trkpt lat="41.9519333" lon="-8.0800867"><ele>726.0</ele><time>2026-04-18T15:05:54.789Z</time></trkpt><trkpt lat="41.95202" lon="-8.0801217"><ele>725.0</ele><time>2026-04-18T15:05:55.787Z</time></trkpt><trkpt lat="41.95214" lon="-8.0801383"><ele>724.0</ele><time>2026-04-18T15:05:56.789Z</time></trkpt><trkpt lat="41.9522317" lon="-8.0801583"><ele>723.0</ele><time>2026-04-18T15:05:57.788Z</time></trkpt><trkpt lat="41.9523117" lon="-8.0801767"><ele>723.0</ele><time>2026-04-18T15:05:58.786Z</time></trkpt><trkpt lat="41.9524117" lon="-8.080195"><ele>723.0</ele><time>2026-04-18T15:06:00.786Z</time></trkpt><trkpt lat="41.9524767" lon="-8.08021"><ele>723.0</ele><time>2026-04-18T15:06:03.788Z</time></trkpt><trkpt lat="41.9524083" lon="-8.08023"><ele>723.0</ele><time>2026-04-18T15:06:09.788Z</time></trkpt><trkpt lat="41.952285" lon="-8.0801833"><ele>723.0</ele><time>2026-04-18T15:06:11.788Z</time></trkpt><trkpt lat="41.95218" lon="-8.0801533"><ele>723.0</ele><time>2026-04-18T15:06:12.788Z</time></trkpt><trkpt lat="41.95206" lon="-8.0801217"><ele>723.0</ele><time>2026-04-18T15:06:13.788Z</time></trkpt><trkpt lat="41.951945" lon="-8.0800783"><ele>723.0</ele><time>2026-04-18T15:06:14.787Z</time></trkpt><trkpt lat="41.951865" lon="-8.08003"><ele>723.0</ele><time>2026-04-18T15:06:15.788Z</time></trkpt><trkpt lat="41.9517967" lon="-8.0799717"><ele>723.0</ele><time>2026-04-18T15:06:16.788Z</time></trkpt><trkpt lat="41.9517367" lon="-8.0799017"><ele>724.2</ele><time>2026-04-18T15:06:17.787Z</time></trkpt><trkpt lat="41.9516933" lon="-8.0798067"><ele>725.4</ele><time>2026-04-18T15:06:18.788Z</time></trkpt><trkpt lat="41.9516617" lon="-8.0797133"><ele>726.6</ele><time>2026-04-18T15:06:19.788Z</time></trkpt><trkpt lat="41.951655" lon="-8.0796267"><ele>727.8000000000001</ele><time>2026-04-18T15:06:20.788Z</time></trkpt><trkpt lat="41.95163" lon="-8.07947"><ele>729.0</ele><time>2026-04-18T15:06:22.788Z</time></trkpt><trkpt lat="41.9515867" lon="-8.079325"><ele>729.0</ele><time>2026-04-18T15:06:24.788Z</time></trkpt><trkpt lat="41.95159" lon="-8.07919"><ele>729.0</ele><time>2026-04-18T15:06:26.789Z</time></trkpt><trkpt lat="41.9516233" lon="-8.0790883"><ele>729.0</ele><time>2026-04-18T15:06:28.786Z</time></trkpt><trkpt lat="41.9516833" lon="-8.079035"><ele>729.0</ele><time>2026-04-18T15:06:30.788Z</time></trkpt><trkpt lat="41.9518133" lon="-8.0790117"><ele>729.0</ele><time>2026-04-18T15:06:32.789Z</time></trkpt><trkpt lat="41.9519" lon="-8.079005"><ele>730.8000000000001</ele><time>2026-04-18T15:06:33.788Z</time></trkpt><trkpt lat="41.952" lon="-8.07898"><ele>732.6</ele><time>2026-04-18T15:06:34.788Z</time></trkpt><trkpt lat="41.9521067" lon="-8.0789367"><ele>734.4</ele><time>2026-04-18T15:06:35.788Z</time></trkpt><trkpt lat="41.9522183" lon="-8.078885"><ele>736.2</ele><time>2026-04-18T15:06:36.787Z</time></trkpt><trkpt lat="41.952325" lon="-8.078835"><ele>738.0</ele><time>2026-04-18T15:06:37.788Z</time></trkpt><trkpt lat="41.9524367" lon="-8.078795"><ele>738.25</ele><time>2026-04-18T15:06:38.789Z</time></trkpt><trkpt lat="41.952545" lon="-8.0787517"><ele>738.5</ele><time>2026-04-18T15:06:39.788Z</time></trkpt><trkpt lat="41.9526567" lon="-8.0787033"><ele>738.75</ele><time>2026-04-18T15:06:40.789Z</time></trkpt><trkpt lat="41.9527767" lon="-8.0786483"><ele>739.0</ele><time>2026-04-18T15:06:41.788Z</time></trkpt><trkpt lat="41.9529033" lon="-8.0786"><ele>739.0</ele><time>2026-04-18T15:06:42.788Z</time></trkpt><trkpt lat="41.9530417" lon="-8.0785583"><ele>739.0</ele><time>2026-04-18T15:06:43.789Z</time></trkpt><trkpt lat="41.9531917" lon="-8.078515"><ele>739.0</ele><time>2026-04-18T15:06:44.789Z</time></trkpt><trkpt lat="41.9533533" lon="-8.07847"><ele>738.3333333333334</ele><time>2026-04-18T15:06:45.789Z</time></trkpt><trkpt lat="41.953515" lon="-8.0784267"><ele>737.6666666666666</ele><time>2026-04-18T15:06:46.788Z</time></trkpt><trkpt lat="41.9536817" lon="-8.0783833"><ele>737.0</ele><time>2026-04-18T15:06:47.788Z</time></trkpt><trkpt lat="41.95385" lon="-8.07834"><ele>737.0</ele><time>2026-04-18T15:06:48.788Z</time></trkpt><trkpt lat="41.9540067" lon="-8.078295"><ele>737.0</ele><time>2026-04-18T15:06:49.788Z</time></trkpt><trkpt lat="41.95416" lon="-8.078265"><ele>737.0</ele><time>2026-04-18T15:06:50.788Z</time></trkpt><trkpt lat="41.9543133" lon="-8.078245"><ele>737.75</ele><time>2026-04-18T15:06:51.788Z</time></trkpt><trkpt lat="41.954455" lon="-8.0782183"><ele>738.5</ele><time>2026-04-18T15:06:52.788Z</time></trkpt><trkpt lat="41.9545917" lon="-8.078185"><ele>739.25</ele><time>2026-04-18T15:06:53.787Z</time></trkpt><trkpt lat="41.9547267" lon="-8.078145"><ele>740.0</ele><time>2026-04-18T15:06:54.786Z</time></trkpt><trkpt lat="41.9548533" lon="-8.07808"><ele>740.0</ele><time>2026-04-18T15:06:55.789Z</time></trkpt><trkpt lat="41.9549783" lon="-8.078005"><ele>740.0</ele><time>2026-04-18T15:06:56.787Z</time></trkpt><trkpt lat="41.9551117" lon="-8.0779333"><ele>740.0</ele><time>2026-04-18T15:06:57.789Z</time></trkpt><trkpt lat="41.9552417" lon="-8.0778733"><ele>740.0</ele><time>2026-04-18T15:06:58.787Z</time></trkpt><trkpt lat="41.955365" lon="-8.0778267"><ele>740.5</ele><time>2026-04-18T15:06:59.788Z</time></trkpt><trkpt lat="41.95548" lon="-8.077805"><ele>741.0</ele><time>2026-04-18T15:07:00.788Z</time></trkpt><trkpt lat="41.95558" lon="-8.0778083"><ele>741.5</ele><time>2026-04-18T15:07:01.79Z</time></trkpt><trkpt lat="41.9556617" lon="-8.0778283"><ele>742.0</ele><time>2026-04-18T15:07:02.789Z</time></trkpt><trkpt lat="41.9557317" lon="-8.077865"><ele>742.5</ele><time>2026-04-18T15:07:03.788Z</time></trkpt><trkpt lat="41.955795" lon="-8.0779167"><ele>743.0</ele><time>2026-04-18T15:07:04.788Z</time></trkpt><trkpt lat="41.9558467" lon="-8.077965"><ele>744.0</ele><time>2026-04-18T15:07:05.787Z</time></trkpt><trkpt lat="41.9559083" lon="-8.0779967"><ele>745.0</ele><time>2026-04-18T15:07:06.787Z</time></trkpt><trkpt lat="41.95598" lon="-8.0779917"><ele>746.0</ele><time>2026-04-18T15:07:07.787Z</time></trkpt><trkpt lat="41.9560667" lon="-8.0779617"><ele>747.0</ele><time>2026-04-18T15:07:08.79Z</time></trkpt><trkpt lat="41.95617" lon="-8.077915"><ele>748.0</ele><time>2026-04-18T15:07:09.788Z</time></trkpt><trkpt lat="41.956305" lon="-8.0778633"><ele>748.0</ele><time>2026-04-18T15:07:10.788Z</time></trkpt><trkpt lat="41.95645" lon="-8.0778017"><ele>748.0</ele><time>2026-04-18T15:07:11.787Z</time></trkpt><trkpt lat="41.956605" lon="-8.077735"><ele>748.0</ele><time>2026-04-18T15:07:12.788Z</time></trkpt><trkpt lat="41.9567517" lon="-8.0776633"><ele>747.8</ele><time>2026-04-18T15:07:13.788Z</time></trkpt><trkpt lat="41.956875" lon="-8.0775933"><ele>747.5999999999999</ele><time>2026-04-18T15:07:14.786Z</time></trkpt><trkpt lat="41.9569717" lon="-8.077515"><ele>747.4000000000001</ele><time>2026-04-18T15:07:15.789Z</time></trkpt><trkpt lat="41.9570583" lon="-8.0774317"><ele>747.2</ele><time>2026-04-18T15:07:16.789Z</time></trkpt><trkpt lat="41.957135" lon="-8.0773583"><ele>747.0</ele><time>2026-04-18T15:07:17.786Z</time></trkpt><trkpt lat="41.95719" lon="-8.0772967"><ele>747.0</ele><time>2026-04-18T15:07:18.787Z</time></trkpt><trkpt lat="41.95726" lon="-8.0772133"><ele>747.0</ele><time>2026-04-18T15:07:20.787Z</time></trkpt><trkpt lat="41.9572617" lon="-8.0771183"><ele>747.0</ele><time>2026-04-18T15:07:24.788Z</time></trkpt><trkpt lat="41.9574033" lon="-8.077125"><ele>747.0</ele><time>2026-04-18T15:11:48.834Z</time></trkpt><trkpt lat="41.9573367" lon="-8.0771517"><ele>747.0</ele><time>2026-04-18T15:11:56.785Z</time></trkpt><trkpt lat="41.957265" lon="-8.07714"><ele>747.0</ele><time>2026-04-18T15:12:00.784Z</time></trkpt><trkpt lat="41.9572517" lon="-8.0770383"><ele>747.0</ele><time>2026-04-18T15:13:56.787Z</time></trkpt><trkpt lat="41.9573" lon="-8.0769817"><ele>747.0</ele><time>2026-04-18T15:13:59.787Z</time></trkpt><trkpt lat="41.957385" lon="-8.0770017"><ele>747.0</ele><time>2026-04-18T15:14:02.785Z</time></trkpt><trkpt lat="41.9574267" lon="-8.077105"><ele>747.0</ele><time>2026-04-18T15:14:05.787Z</time></trkpt><trkpt lat="41.9573983" lon="-8.077205"><ele>747.0</ele><time>2026-04-18T15:14:08.786Z</time></trkpt><trkpt lat="41.9573183" lon="-8.0772817"><ele>747.0</ele><time>2026-04-18T15:14:11.786Z</time></trkpt><trkpt lat="41.95725" lon="-8.0773383"><ele>747.0</ele><time>2026-04-18T15:14:13.785Z</time></trkpt><trkpt lat="41.9571583" lon="-8.0773933"><ele>747.0</ele><time>2026-04-18T15:14:15.785Z</time></trkpt><trkpt lat="41.9570817" lon="-8.0774533"><ele>747.0</ele><time>2026-04-18T15:14:17.785Z</time></trkpt><trkpt lat="41.957005" lon="-8.0775317"><ele>747.0</ele><time>2026-04-18T15:14:19.785Z</time></trkpt><trkpt lat="41.9569183" lon="-8.0776167"><ele>747.0</ele><time>2026-04-18T15:14:21.786Z</time></trkpt><trkpt lat="41.9568133" lon="-8.0776833"><ele>747.2</ele><time>2026-04-18T15:14:23.785Z</time></trkpt><trkpt lat="41.9567467" lon="-8.0777133"><ele>747.4000000000001</ele><time>2026-04-18T15:14:24.786Z</time></trkpt><trkpt lat="41.956665" lon="-8.077745"><ele>747.5999999999999</ele><time>2026-04-18T15:14:25.786Z</time></trkpt><trkpt lat="41.956565" lon="-8.0777817"><ele>747.8</ele><time>2026-04-18T15:14:26.787Z</time></trkpt><trkpt lat="41.956455" lon="-8.07783"><ele>748.0</ele><time>2026-04-18T15:14:27.785Z</time></trkpt><trkpt lat="41.9563367" lon="-8.0778767"><ele>748.0</ele><time>2026-04-18T15:14:28.786Z</time></trkpt><trkpt lat="41.9562183" lon="-8.077915"><ele>748.0</ele><time>2026-04-18T15:14:29.785Z</time></trkpt><trkpt lat="41.95611" lon="-8.077945"><ele>748.0</ele><time>2026-04-18T15:14:30.787Z</time></trkpt><trkpt lat="41.95601" lon="-8.0779733"><ele>748.0</ele><time>2026-04-18T15:14:31.786Z</time></trkpt><trkpt lat="41.955925" lon="-8.0779833"><ele>748.0</ele><time>2026-04-18T15:14:32.785Z</time></trkpt><trkpt lat="41.9558433" lon="-8.077985"><ele>747.0</ele><time>2026-04-18T15:14:33.787Z</time></trkpt><trkpt lat="41.9557733" lon="-8.07797"><ele>746.0</ele><time>2026-04-18T15:14:34.787Z</time></trkpt><trkpt lat="41.9556733" lon="-8.0778933"><ele>745.0</ele><time>2026-04-18T15:14:36.786Z</time></trkpt><trkpt lat="41.9555583" lon="-8.0778383"><ele>744.0</ele><time>2026-04-18T15:14:38.787Z</time></trkpt><trkpt lat="41.9554833" lon="-8.077835"><ele>743.0</ele><time>2026-04-18T15:14:39.785Z</time></trkpt><trkpt lat="41.9554083" lon="-8.0778533"><ele>743.0</ele><time>2026-04-18T15:14:40.786Z</time></trkpt><trkpt lat="41.9553317" lon="-8.07788"><ele>743.0</ele><time>2026-04-18T15:14:41.786Z</time></trkpt><trkpt lat="41.9552483" lon="-8.0779117"><ele>743.0</ele><time>2026-04-18T15:14:42.786Z</time></trkpt><trkpt lat="41.9551583" lon="-8.0779517"><ele>743.0</ele><time>2026-04-18T15:14:43.785Z</time></trkpt><trkpt lat="41.95506" lon="-8.0779983"><ele>743.0</ele><time>2026-04-18T15:14:44.787Z</time></trkpt><trkpt lat="41.9549583" lon="-8.0780517"><ele>742.4</ele><time>2026-04-18T15:14:45.785Z</time></trkpt><trkpt lat="41.95486" lon="-8.0781067"><ele>741.8</ele><time>2026-04-18T15:14:46.787Z</time></trkpt><trkpt lat="41.9547633" lon="-8.0781583"><ele>741.2</ele><time>2026-04-18T15:14:47.785Z</time></trkpt><trkpt lat="41.95466" lon="-8.0782033"><ele>740.6</ele><time>2026-04-18T15:14:48.786Z</time></trkpt><trkpt lat="41.9545517" lon="-8.0782383"><ele>740.0</ele><time>2026-04-18T15:14:49.786Z</time></trkpt><trkpt lat="41.95444" lon="-8.078265"><ele>739.25</ele><time>2026-04-18T15:14:50.787Z</time></trkpt><trkpt lat="41.9543233" lon="-8.0782817"><ele>738.5</ele><time>2026-04-18T15:14:51.785Z</time></trkpt><trkpt lat="41.9541983" lon="-8.0782967"><ele>737.75</ele><time>2026-04-18T15:14:52.785Z</time></trkpt><trkpt lat="41.95407" lon="-8.0783183"><ele>737.0</ele><time>2026-04-18T15:14:53.786Z</time></trkpt><trkpt lat="41.9539417" lon="-8.0783467"><ele>737.0</ele><time>2026-04-18T15:14:54.785Z</time></trkpt><trkpt lat="41.9538183" lon="-8.0783833"><ele>737.0</ele><time>2026-04-18T15:14:55.786Z</time></trkpt><trkpt lat="41.9536967" lon="-8.0784183"><ele>737.0</ele><time>2026-04-18T15:14:56.787Z</time></trkpt><trkpt lat="41.9535783" lon="-8.0784467"><ele>737.0</ele><time>2026-04-18T15:14:57.785Z</time></trkpt><trkpt lat="41.95346" lon="-8.0784767"><ele>737.5</ele><time>2026-04-18T15:14:58.785Z</time></trkpt><trkpt lat="41.9533417" lon="-8.0785133"><ele>738.0</ele><time>2026-04-18T15:14:59.786Z</time></trkpt><trkpt lat="41.9532217" lon="-8.0785517"><ele>738.5</ele><time>2026-04-18T15:15:00.786Z</time></trkpt><trkpt lat="41.9531033" lon="-8.0785867"><ele>739.0</ele><time>2026-04-18T15:15:01.786Z</time></trkpt><trkpt lat="41.952985" lon="-8.0786217"><ele>739.0</ele><time>2026-04-18T15:15:02.786Z</time></trkpt><trkpt lat="41.95287" lon="-8.0786583"><ele>739.0</ele><time>2026-04-18T15:15:03.787Z</time></trkpt><trkpt lat="41.9527633" lon="-8.0787033"><ele>739.0</ele><time>2026-04-18T15:15:04.785Z</time></trkpt><trkpt lat="41.9526633" lon="-8.0787533"><ele>739.0</ele><time>2026-04-18T15:15:05.786Z</time></trkpt><trkpt lat="41.9525583" lon="-8.0787983"><ele>739.0</ele><time>2026-04-18T15:15:06.785Z</time></trkpt><trkpt lat="41.952445" lon="-8.0788333"><ele>738.75</ele><time>2026-04-18T15:15:07.786Z</time></trkpt><trkpt lat="41.9523267" lon="-8.0788717"><ele>738.5</ele><time>2026-04-18T15:15:08.787Z</time></trkpt><trkpt lat="41.95221" lon="-8.0789217"><ele>738.25</ele><time>2026-04-18T15:15:09.785Z</time></trkpt><trkpt lat="41.9521017" lon="-8.0789767"><ele>738.0</ele><time>2026-04-18T15:15:10.786Z</time></trkpt><trkpt lat="41.951995" lon="-8.0790167"><ele>738.0</ele><time>2026-04-18T15:15:11.784Z</time></trkpt><trkpt lat="41.95189" lon="-8.0790417"><ele>738.0</ele><time>2026-04-18T15:15:12.785Z</time></trkpt><trkpt lat="41.9517833" lon="-8.0790617"><ele>738.0</ele><time>2026-04-18T15:15:13.786Z</time></trkpt><trkpt lat="41.9516667" lon="-8.07909"><ele>738.0</ele><time>2026-04-18T15:15:14.786Z</time></trkpt><trkpt lat="41.9515517" lon="-8.0791433"><ele>736.2</ele><time>2026-04-18T15:15:15.785Z</time></trkpt><trkpt lat="41.9514433" lon="-8.0792067"><ele>734.4</ele><time>2026-04-18T15:15:16.785Z</time></trkpt><trkpt lat="41.95134" lon="-8.0792567"><ele>732.6</ele><time>2026-04-18T15:15:17.787Z</time></trkpt><trkpt lat="41.9512417" lon="-8.0792983"><ele>730.8000000000001</ele><time>2026-04-18T15:15:18.785Z</time></trkpt><trkpt lat="41.9511433" lon="-8.079335"><ele>729.0</ele><time>2026-04-18T15:15:19.786Z</time></trkpt><trkpt lat="41.9510533" lon="-8.079385"><ele>729.0</ele><time>2026-04-18T15:15:20.786Z</time></trkpt><trkpt lat="41.9509617" lon="-8.0794583"><ele>729.0</ele><time>2026-04-18T15:15:21.785Z</time></trkpt><trkpt lat="41.9508667" lon="-8.0795317"><ele>729.0</ele><time>2026-04-18T15:15:22.787Z</time></trkpt><trkpt lat="41.9507683" lon="-8.0795917"><ele>729.0</ele><time>2026-04-18T15:15:23.786Z</time></trkpt><trkpt lat="41.9506733" lon="-8.079645"><ele>729.0</ele><time>2026-04-18T15:15:24.786Z</time></trkpt><trkpt lat="41.9505833" lon="-8.079685"><ele>729.0</ele><time>2026-04-18T15:15:25.786Z</time></trkpt><trkpt lat="41.9504967" lon="-8.0797017"><ele>729.0</ele><time>2026-04-18T15:15:26.786Z</time></trkpt><trkpt lat="41.95041" lon="-8.07968"><ele>729.0</ele><time>2026-04-18T15:15:27.786Z</time></trkpt><trkpt lat="41.9503183" lon="-8.0796217"><ele>729.0</ele><time>2026-04-18T15:15:28.786Z</time></trkpt><trkpt lat="41.950225" lon="-8.0795633"><ele>729.0</ele><time>2026-04-18T15:15:29.785Z</time></trkpt><trkpt lat="41.9501333" lon="-8.0795217"><ele>728.25</ele><time>2026-04-18T15:15:30.786Z</time></trkpt><trkpt lat="41.9500283" lon="-8.0795133"><ele>727.5</ele><time>2026-04-18T15:15:31.787Z</time></trkpt><trkpt lat="41.9499117" lon="-8.0795317"><ele>726.75</ele><time>2026-04-18T15:15:32.787Z</time></trkpt><trkpt lat="41.9497867" lon="-8.0795633"><ele>726.0</ele><time>2026-04-18T15:15:33.784Z</time></trkpt><trkpt lat="41.9496583" lon="-8.0796033"><ele>726.0</ele><time>2026-04-18T15:15:34.785Z</time></trkpt><trkpt lat="41.949525" lon="-8.0796467"><ele>726.0</ele><time>2026-04-18T15:15:35.786Z</time></trkpt><trkpt lat="41.94939" lon="-8.079695"><ele>726.0</ele><time>2026-04-18T15:15:36.786Z</time></trkpt><trkpt lat="41.9492583" lon="-8.0797517"><ele>726.0</ele><time>2026-04-18T15:15:37.785Z</time></trkpt><trkpt lat="41.94913" lon="-8.0798217"><ele>726.75</ele><time>2026-04-18T15:15:38.785Z</time></trkpt><trkpt lat="41.9490083" lon="-8.0798983"><ele>727.5</ele><time>2026-04-18T15:15:39.787Z</time></trkpt><trkpt lat="41.9489017" lon="-8.0799817"><ele>728.25</ele><time>2026-04-18T15:15:40.785Z</time></trkpt><trkpt lat="41.948805" lon="-8.08007"><ele>729.0</ele><time>2026-04-18T15:15:41.787Z</time></trkpt><trkpt lat="41.9487117" lon="-8.0801417"><ele>727.0</ele><time>2026-04-18T15:15:42.784Z</time></trkpt><trkpt lat="41.94861" lon="-8.0802"><ele>725.0</ele><time>2026-04-18T15:15:43.785Z</time></trkpt><trkpt lat="41.948505" lon="-8.080255"><ele>723.0</ele><time>2026-04-18T15:15:44.786Z</time></trkpt><trkpt lat="41.9483983" lon="-8.0803183"><ele>721.0</ele><time>2026-04-18T15:15:45.785Z</time></trkpt><trkpt lat="41.9482933" lon="-8.0803967"><ele>721.0</ele><time>2026-04-18T15:15:46.785Z</time></trkpt><trkpt lat="41.9481967" lon="-8.080475"><ele>721.0</ele><time>2026-04-18T15:15:47.784Z</time></trkpt><trkpt lat="41.9481117" lon="-8.0805383"><ele>721.0</ele><time>2026-04-18T15:15:48.784Z</time></trkpt><trkpt lat="41.9480283" lon="-8.0805817"><ele>721.0</ele><time>2026-04-18T15:15:49.785Z</time></trkpt><trkpt lat="41.9479383" lon="-8.080605"><ele>721.0</ele><time>2026-04-18T15:15:50.786Z</time></trkpt><trkpt lat="41.9478383" lon="-8.080615"><ele>721.0</ele><time>2026-04-18T15:15:51.785Z</time></trkpt><trkpt lat="41.9477233" lon="-8.080625"><ele>721.0</ele><time>2026-04-18T15:15:52.785Z</time></trkpt><trkpt lat="41.947605" lon="-8.080635"><ele>721.0</ele><time>2026-04-18T15:15:53.786Z</time></trkpt><trkpt lat="41.9474917" lon="-8.0806383"><ele>721.0</ele><time>2026-04-18T15:15:54.787Z</time></trkpt><trkpt lat="41.947385" lon="-8.0806333"><ele>720.5999999999999</ele><time>2026-04-18T15:15:55.786Z</time></trkpt><trkpt lat="41.9472833" lon="-8.08062"><ele>720.2</ele><time>2026-04-18T15:15:56.785Z</time></trkpt><trkpt lat="41.947175" lon="-8.080605"><ele>719.8</ele><time>2026-04-18T15:15:57.785Z</time></trkpt><trkpt lat="41.9470583" lon="-8.08059"><ele>719.4000000000001</ele><time>2026-04-18T15:15:58.784Z</time></trkpt><trkpt lat="41.9469417" lon="-8.0805783"><ele>719.0</ele><time>2026-04-18T15:15:59.786Z</time></trkpt><trkpt lat="41.94682" lon="-8.0805767"><ele>715.75</ele><time>2026-04-18T15:16:00.786Z</time></trkpt><trkpt lat="41.946695" lon="-8.0805883"><ele>712.5</ele><time>2026-04-18T15:16:01.785Z</time></trkpt><trkpt lat="41.94657" lon="-8.0806133"><ele>709.25</ele><time>2026-04-18T15:16:02.786Z</time></trkpt><trkpt lat="41.94645" lon="-8.0806333"><ele>706.0</ele><time>2026-04-18T15:16:03.786Z</time></trkpt><trkpt lat="41.9463317" lon="-8.0806533"><ele>706.0</ele><time>2026-04-18T15:16:04.786Z</time></trkpt><trkpt lat="41.9462183" lon="-8.0806833"><ele>706.0</ele><time>2026-04-18T15:16:05.785Z</time></trkpt><trkpt lat="41.9461117" lon="-8.0807233"><ele>706.0</ele><time>2026-04-18T15:16:06.785Z</time></trkpt><trkpt lat="41.9460117" lon="-8.08077"><ele>706.0</ele><time>2026-04-18T15:16:07.784Z</time></trkpt><trkpt lat="41.9459183" lon="-8.0808233"><ele>706.0</ele><time>2026-04-18T15:16:08.787Z</time></trkpt><trkpt lat="41.94583" lon="-8.0808767"><ele>704.1666666666667</ele><time>2026-04-18T15:16:09.785Z</time></trkpt><trkpt lat="41.9457533" lon="-8.0809133"><ele>702.3333333333334</ele><time>2026-04-18T15:16:10.784Z</time></trkpt><trkpt lat="41.945685" lon="-8.0809233"><ele>700.5</ele><time>2026-04-18T15:16:11.786Z</time></trkpt><trkpt lat="41.94562" lon="-8.0809133"><ele>698.6666666666666</ele><time>2026-04-18T15:16:12.786Z</time></trkpt><trkpt lat="41.9455267" lon="-8.0808517"><ele>696.8333333333333</ele><time>2026-04-18T15:16:14.786Z</time></trkpt><trkpt lat="41.94545" lon="-8.0807883"><ele>695.0</ele><time>2026-04-18T15:16:16.784Z</time></trkpt><trkpt lat="41.9453617" lon="-8.080735"><ele>695.0</ele><time>2026-04-18T15:16:18.785Z</time></trkpt><trkpt lat="41.945265" lon="-8.0806817"><ele>695.0</ele><time>2026-04-18T15:16:20.785Z</time></trkpt><trkpt lat="41.9451817" lon="-8.080605"><ele>695.0</ele><time>2026-04-18T15:16:22.785Z</time></trkpt><trkpt lat="41.9451017" lon="-8.0804733"><ele>695.0</ele><time>2026-04-18T15:16:24.784Z</time></trkpt><trkpt lat="41.945055" lon="-8.0803867"><ele>695.0</ele><time>2026-04-18T15:16:25.788Z</time></trkpt><trkpt lat="41.944995" lon="-8.0802867"><ele>693.4</ele><time>2026-04-18T15:16:26.786Z</time></trkpt><trkpt lat="41.9449283" lon="-8.0801783"><ele>691.8</ele><time>2026-04-18T15:16:27.785Z</time></trkpt><trkpt lat="41.94485" lon="-8.0800817"><ele>690.2</ele><time>2026-04-18T15:16:28.784Z</time></trkpt><trkpt lat="41.9447683" lon="-8.079985"><ele>688.6</ele><time>2026-04-18T15:16:29.784Z</time></trkpt><trkpt lat="41.9446867" lon="-8.0798917"><ele>687.0</ele><time>2026-04-18T15:16:30.786Z</time></trkpt><trkpt lat="41.9446" lon="-8.0797917"><ele>686.3333333333334</ele><time>2026-04-18T15:16:31.785Z</time></trkpt><trkpt lat="41.9445267" lon="-8.0797033"><ele>685.6666666666666</ele><time>2026-04-18T15:16:32.788Z</time></trkpt><trkpt lat="41.9444717" lon="-8.0796267"><ele>685.0</ele><time>2026-04-18T15:16:33.786Z</time></trkpt><trkpt lat="41.9444217" lon="-8.079505"><ele>684.3333333333333</ele><time>2026-04-18T15:16:35.785Z</time></trkpt><trkpt lat="41.94441" lon="-8.0793967"><ele>683.6666666666666</ele><time>2026-04-18T15:16:37.784Z</time></trkpt><trkpt lat="41.9444683" lon="-8.0793133"><ele>683.0</ele><time>2026-04-18T15:16:39.785Z</time></trkpt><trkpt lat="41.94454" lon="-8.07929"><ele>683.0</ele><time>2026-04-18T15:16:40.784Z</time></trkpt><trkpt lat="41.944635" lon="-8.079275"><ele>683.0</ele><time>2026-04-18T15:16:41.784Z</time></trkpt><trkpt lat="41.9447267" lon="-8.07926"><ele>683.0</ele><time>2026-04-18T15:16:42.787Z</time></trkpt><trkpt lat="41.9448283" lon="-8.0792317"><ele>683.0</ele><time>2026-04-18T15:16:43.785Z</time></trkpt><trkpt lat="41.9450033" lon="-8.0792017"><ele>683.6666666666666</ele><time>2026-04-18T15:16:44.786Z</time></trkpt><trkpt lat="41.94517" lon="-8.07915"><ele>684.3333333333334</ele><time>2026-04-18T15:16:45.785Z</time></trkpt><trkpt lat="41.945315" lon="-8.07909"><ele>685.0</ele><time>2026-04-18T15:16:46.784Z</time></trkpt><trkpt lat="41.9454383" lon="-8.0790483"><ele>685.0</ele><time>2026-04-18T15:16:47.785Z</time></trkpt><trkpt lat="41.9455483" lon="-8.0790133"><ele>685.0</ele><time>2026-04-18T15:16:48.786Z</time></trkpt><trkpt lat="41.9456567" lon="-8.0789817"><ele>685.0</ele><time>2026-04-18T15:16:49.785Z</time></trkpt><trkpt lat="41.945755" lon="-8.078925"><ele>685.0</ele><time>2026-04-18T15:16:50.785Z</time></trkpt><trkpt lat="41.94585" lon="-8.07884"><ele>685.0</ele><time>2026-04-18T15:16:51.784Z</time></trkpt><trkpt lat="41.9459333" lon="-8.0787217"><ele>688.25</ele><time>2026-04-18T15:16:52.784Z</time></trkpt><trkpt lat="41.9460067" lon="-8.0785817"><ele>691.5</ele><time>2026-04-18T15:16:53.784Z</time></trkpt><trkpt lat="41.9460733" lon="-8.078435"><ele>694.75</ele><time>2026-04-18T15:16:54.785Z</time></trkpt><trkpt lat="41.94614" lon="-8.0782917"><ele>698.0</ele><time>2026-04-18T15:16:55.785Z</time></trkpt><trkpt lat="41.9462283" lon="-8.0781483"><ele>698.0</ele><time>2026-04-18T15:16:56.785Z</time></trkpt><trkpt lat="41.946335" lon="-8.0780067"><ele>698.0</ele><time>2026-04-18T15:16:57.785Z</time></trkpt><trkpt lat="41.9464283" lon="-8.0778917"><ele>698.0</ele><time>2026-04-18T15:16:58.785Z</time></trkpt><trkpt lat="41.9465" lon="-8.0777967"><ele>698.0</ele><time>2026-04-18T15:16:59.784Z</time></trkpt><trkpt lat="41.94654" lon="-8.0776933"><ele>698.0</ele><time>2026-04-18T15:17:00.785Z</time></trkpt><trkpt lat="41.9465683" lon="-8.0775667"><ele>698.0</ele><time>2026-04-18T15:17:01.786Z</time></trkpt><trkpt lat="41.9465967" lon="-8.0774283"><ele>698.0</ele><time>2026-04-18T15:17:02.785Z</time></trkpt><trkpt lat="41.946635" lon="-8.0772867"><ele>698.0</ele><time>2026-04-18T15:17:03.786Z</time></trkpt><trkpt lat="41.9466817" lon="-8.0771367"><ele>698.0</ele><time>2026-04-18T15:17:04.786Z</time></trkpt><trkpt lat="41.9467333" lon="-8.0769817"><ele>699.25</ele><time>2026-04-18T15:17:05.785Z</time></trkpt><trkpt lat="41.946785" lon="-8.0768217"><ele>700.5</ele><time>2026-04-18T15:17:06.787Z</time></trkpt><trkpt lat="41.94683" lon="-8.0766667"><ele>701.75</ele><time>2026-04-18T15:17:07.786Z</time></trkpt><trkpt lat="41.946865" lon="-8.0765233"><ele>703.0</ele><time>2026-04-18T15:17:08.787Z</time></trkpt><trkpt lat="41.9468733" lon="-8.07638"><ele>698.5</ele><time>2026-04-18T15:17:09.784Z</time></trkpt><trkpt lat="41.9468817" lon="-8.0762083"><ele>694.0</ele><time>2026-04-18T15:17:10.785Z</time></trkpt><trkpt lat="41.94689" lon="-8.0760317"><ele>689.5</ele><time>2026-04-18T15:17:11.786Z</time></trkpt><trkpt lat="41.946895" lon="-8.0758517"><ele>685.0</ele><time>2026-04-18T15:17:12.785Z</time></trkpt><trkpt lat="41.9468967" lon="-8.0756783"><ele>682.8</ele><time>2026-04-18T15:17:13.785Z</time></trkpt><trkpt lat="41.946905" lon="-8.075525"><ele>680.6</ele><time>2026-04-18T15:17:14.786Z</time></trkpt><trkpt lat="41.9469233" lon="-8.0753783"><ele>678.4000000000001</ele><time>2026-04-18T15:17:15.786Z</time></trkpt><trkpt lat="41.9469517" lon="-8.07524"><ele>676.2</ele><time>2026-04-18T15:17:16.784Z</time></trkpt><trkpt lat="41.946985" lon="-8.075115"><ele>674.0</ele><time>2026-04-18T15:17:17.784Z</time></trkpt><trkpt lat="41.9470233" lon="-8.075005"><ele>672.0</ele><time>2026-04-18T15:17:18.786Z</time></trkpt><trkpt lat="41.9470717" lon="-8.07491"><ele>670.0</ele><time>2026-04-18T15:17:19.786Z</time></trkpt><trkpt lat="41.9471333" lon="-8.0748367"><ele>668.0</ele><time>2026-04-18T15:17:20.786Z</time></trkpt><trkpt lat="41.9472133" lon="-8.07478"><ele>666.0</ele><time>2026-04-18T15:17:21.784Z</time></trkpt><trkpt lat="41.9472983" lon="-8.0747333"><ele>664.0</ele><time>2026-04-18T15:17:22.784Z</time></trkpt><trkpt lat="41.9473833" lon="-8.0747"><ele>662.0</ele><time>2026-04-18T15:17:23.785Z</time></trkpt><trkpt lat="41.9474817" lon="-8.0746783"><ele>662.8</ele><time>2026-04-18T15:17:24.784Z</time></trkpt><trkpt lat="41.9475783" lon="-8.074665"><ele>663.6</ele><time>2026-04-18T15:17:25.785Z</time></trkpt><trkpt lat="41.9476733" lon="-8.0746617"><ele>664.4</ele><time>2026-04-18T15:17:26.786Z</time></trkpt><trkpt lat="41.9477667" lon="-8.07465"><ele>665.1999999999999</ele><time>2026-04-18T15:17:27.784Z</time></trkpt><trkpt lat="41.94785" lon="-8.0746433"><ele>666.0</ele><time>2026-04-18T15:17:28.785Z</time></trkpt><trkpt lat="41.9479417" lon="-8.0746517"><ele>666.0</ele><time>2026-04-18T15:17:29.786Z</time></trkpt><trkpt lat="41.9480333" lon="-8.074655"><ele>666.0</ele><time>2026-04-18T15:17:30.786Z</time></trkpt><trkpt lat="41.9481217" lon="-8.0746417"><ele>666.0</ele><time>2026-04-18T15:17:31.784Z</time></trkpt><trkpt lat="41.948205" lon="-8.07461"><ele>666.0</ele><time>2026-04-18T15:17:32.786Z</time></trkpt><trkpt lat="41.9482883" lon="-8.0745667"><ele>666.0</ele><time>2026-04-18T15:17:33.786Z</time></trkpt><trkpt lat="41.94838" lon="-8.0745"><ele>668.4</ele><time>2026-04-18T15:17:34.786Z</time></trkpt><trkpt lat="41.9484833" lon="-8.0744367"><ele>670.8</ele><time>2026-04-18T15:17:35.786Z</time></trkpt><trkpt lat="41.948575" lon="-8.0743717"><ele>673.1999999999999</ele><time>2026-04-18T15:17:36.787Z</time></trkpt><trkpt lat="41.9486583" lon="-8.0742983"><ele>675.5999999999999</ele><time>2026-04-18T15:17:37.785Z</time></trkpt><trkpt lat="41.9487367" lon="-8.0742283"><ele>678.0</ele><time>2026-04-18T15:17:38.786Z</time></trkpt><trkpt lat="41.9488267" lon="-8.0741567"><ele>677.75</ele><time>2026-04-18T15:17:39.785Z</time></trkpt><trkpt lat="41.9489333" lon="-8.0740667"><ele>677.5</ele><time>2026-04-18T15:17:40.784Z</time></trkpt><trkpt lat="41.9490417" lon="-8.07396"><ele>677.25</ele><time>2026-04-18T15:17:41.785Z</time></trkpt><trkpt lat="41.94914" lon="-8.073845"><ele>677.0</ele><time>2026-04-18T15:17:42.785Z</time></trkpt><trkpt lat="41.9492333" lon="-8.0737417"><ele>677.0</ele><time>2026-04-18T15:17:43.786Z</time></trkpt><trkpt lat="41.9493183" lon="-8.073635"><ele>677.0</ele><time>2026-04-18T15:17:44.786Z</time></trkpt><trkpt lat="41.949405" lon="-8.0735333"><ele>677.0</ele><time>2026-04-18T15:17:45.786Z</time></trkpt><trkpt lat="41.949495" lon="-8.073425"><ele>677.0</ele><time>2026-04-18T15:17:46.786Z</time></trkpt><trkpt lat="41.9495933" lon="-8.0733183"><ele>674.25</ele><time>2026-04-18T15:17:47.784Z</time></trkpt><trkpt lat="41.9497" lon="-8.0732167"><ele>671.5</ele><time>2026-04-18T15:17:48.786Z</time></trkpt><trkpt lat="41.949815" lon="-8.07311"><ele>668.75</ele><time>2026-04-18T15:17:49.786Z</time></trkpt><trkpt lat="41.9499333" lon="-8.073005"><ele>666.0</ele><time>2026-04-18T15:17:50.786Z</time></trkpt><trkpt lat="41.9500567" lon="-8.0728933"><ele>666.0</ele><time>2026-04-18T15:17:51.786Z</time></trkpt><trkpt lat="41.9501817" lon="-8.0727817"><ele>666.0</ele><time>2026-04-18T15:17:52.783Z</time></trkpt><trkpt lat="41.9502917" lon="-8.0726617"><ele>666.0</ele><time>2026-04-18T15:17:53.784Z</time></trkpt><trkpt lat="41.9503867" lon="-8.0725417"><ele>666.0</ele><time>2026-04-18T15:17:54.786Z</time></trkpt><trkpt lat="41.9504733" lon="-8.0724417"><ele>665.5999999999999</ele><time>2026-04-18T15:17:55.783Z</time></trkpt><trkpt lat="41.9505617" lon="-8.0723683"><ele>665.2</ele><time>2026-04-18T15:17:56.786Z</time></trkpt><trkpt lat="41.950655" lon="-8.0723167"><ele>664.8</ele><time>2026-04-18T15:17:57.785Z</time></trkpt><trkpt lat="41.95075" lon="-8.0722833"><ele>664.4000000000001</ele><time>2026-04-18T15:17:58.787Z</time></trkpt><trkpt lat="41.9508517" lon="-8.0722483"><ele>664.0</ele><time>2026-04-18T15:17:59.786Z</time></trkpt><trkpt lat="41.950945" lon="-8.072185"><ele>664.0</ele><time>2026-04-18T15:18:00.786Z</time></trkpt><trkpt lat="41.95102" lon="-8.0721017"><ele>664.0</ele><time>2026-04-18T15:18:01.787Z</time></trkpt><trkpt lat="41.9510783" lon="-8.0719867"><ele>664.0</ele><time>2026-04-18T15:18:02.786Z</time></trkpt><trkpt lat="41.95113" lon="-8.071845"><ele>664.0</ele><time>2026-04-18T15:18:03.783Z</time></trkpt><trkpt lat="41.9511817" lon="-8.07169"><ele>664.0</ele><time>2026-04-18T15:18:04.786Z</time></trkpt><trkpt lat="41.9512217" lon="-8.071545"><ele>662.0</ele><time>2026-04-18T15:18:05.786Z</time></trkpt><trkpt lat="41.9512433" lon="-8.0714083"><ele>660.0</ele><time>2026-04-18T15:18:06.785Z</time></trkpt><trkpt lat="41.95126" lon="-8.0712583"><ele>658.0</ele><time>2026-04-18T15:18:07.784Z</time></trkpt><trkpt lat="41.9512767" lon="-8.0711083"><ele>656.0</ele><time>2026-04-18T15:18:08.787Z</time></trkpt><trkpt lat="41.951295" lon="-8.0709617"><ele>654.0</ele><time>2026-04-18T15:18:09.786Z</time></trkpt><trkpt lat="41.951305" lon="-8.070825"><ele>652.3333333333334</ele><time>2026-04-18T15:18:10.784Z</time></trkpt><trkpt lat="41.9513067" lon="-8.0706883"><ele>650.6666666666666</ele><time>2026-04-18T15:18:11.786Z</time></trkpt><trkpt lat="41.951315" lon="-8.0705617"><ele>649.0</ele><time>2026-04-18T15:18:12.786Z</time></trkpt><trkpt lat="41.9513317" lon="-8.0704467"><ele>647.3333333333333</ele><time>2026-04-18T15:18:13.784Z</time></trkpt><trkpt lat="41.9513583" lon="-8.0703483"><ele>645.6666666666666</ele><time>2026-04-18T15:18:14.786Z</time></trkpt><trkpt lat="41.9513883" lon="-8.0702667"><ele>644.0</ele><time>2026-04-18T15:18:15.787Z</time></trkpt><trkpt lat="41.9514117" lon="-8.0701583"><ele>644.0</ele><time>2026-04-18T15:18:17.785Z</time></trkpt><trkpt lat="41.9513983" lon="-8.0700283"><ele>644.0</ele><time>2026-04-18T15:18:20.785Z</time></trkpt><trkpt lat="41.95141" lon="-8.069875"><ele>644.0</ele><time>2026-04-18T15:18:22.786Z</time></trkpt><trkpt lat="41.9514383" lon="-8.069765"><ele>644.0</ele><time>2026-04-18T15:18:23.786Z</time></trkpt><trkpt lat="41.9514683" lon="-8.0696717"><ele>644.0</ele><time>2026-04-18T15:18:24.786Z</time></trkpt><trkpt lat="41.9515117" lon="-8.0696017"><ele>644.0</ele><time>2026-04-18T15:18:25.786Z</time></trkpt><trkpt lat="41.951645" lon="-8.0695283"><ele>640.4000000000001</ele><time>2026-04-18T15:18:27.786Z</time></trkpt><trkpt lat="41.9517433" lon="-8.06953"><ele>636.8000000000001</ele><time>2026-04-18T15:18:28.784Z</time></trkpt><trkpt lat="41.951835" lon="-8.0695283"><ele>633.2</ele><time>2026-04-18T15:18:29.786Z</time></trkpt><trkpt lat="41.951925" lon="-8.0695217"><ele>629.6</ele><time>2026-04-18T15:18:30.785Z</time></trkpt><trkpt lat="41.9520217" lon="-8.069505"><ele>626.0</ele><time>2026-04-18T15:18:31.785Z</time></trkpt><trkpt lat="41.9521183" lon="-8.0694767"><ele>626.0</ele><time>2026-04-18T15:18:32.786Z</time></trkpt><trkpt lat="41.9522017" lon="-8.0694283"><ele>626.0</ele><time>2026-04-18T15:18:33.785Z</time></trkpt><trkpt lat="41.9522817" lon="-8.0693717"><ele>626.0</ele><time>2026-04-18T15:18:34.786Z</time></trkpt><trkpt lat="41.9523433" lon="-8.0693083"><ele>626.0</ele><time>2026-04-18T15:18:35.786Z</time></trkpt><trkpt lat="41.9523933" lon="-8.0692317"><ele>626.0</ele><time>2026-04-18T15:18:36.786Z</time></trkpt><trkpt lat="41.952445" lon="-8.06914"><ele>626.0</ele><time>2026-04-18T15:18:37.787Z</time></trkpt><trkpt lat="41.9524883" lon="-8.0690483"><ele>623.3333333333333</ele><time>2026-04-18T15:18:38.785Z</time></trkpt><trkpt lat="41.9525283" lon="-8.068955"><ele>620.6666666666666</ele><time>2026-04-18T15:18:39.786Z</time></trkpt><trkpt lat="41.952575" lon="-8.0688483"><ele>618.0</ele><time>2026-04-18T15:18:40.786Z</time></trkpt><trkpt lat="41.95262" lon="-8.0687433"><ele>615.3333333333334</ele><time>2026-04-18T15:18:41.786Z</time></trkpt><trkpt lat="41.952665" lon="-8.0686383"><ele>612.6666666666667</ele><time>2026-04-18T15:18:42.785Z</time></trkpt><trkpt lat="41.95271" lon="-8.0685367"><ele>610.0</ele><time>2026-04-18T15:18:43.786Z</time></trkpt><trkpt lat="41.9527633" lon="-8.0684483"><ele>608.8333333333334</ele><time>2026-04-18T15:18:44.785Z</time></trkpt><trkpt lat="41.952825" lon="-8.0683717"><ele>607.6666666666667</ele><time>2026-04-18T15:18:45.785Z</time></trkpt><trkpt lat="41.9529017" lon="-8.06831"><ele>606.5</ele><time>2026-04-18T15:18:46.785Z</time></trkpt><trkpt lat="41.9529883" lon="-8.0682783"><ele>605.3333333333334</ele><time>2026-04-18T15:18:47.786Z</time></trkpt><trkpt lat="41.9530683" lon="-8.06827"><ele>604.1666666666666</ele><time>2026-04-18T15:18:48.786Z</time></trkpt><trkpt lat="41.9531483" lon="-8.0682867"><ele>603.0</ele><time>2026-04-18T15:18:49.787Z</time></trkpt><trkpt lat="41.95323" lon="-8.0683483"><ele>603.0</ele><time>2026-04-18T15:18:50.786Z</time></trkpt><trkpt lat="41.9532983" lon="-8.0684167"><ele>603.0</ele><time>2026-04-18T15:18:51.784Z</time></trkpt><trkpt lat="41.9533633" lon="-8.0684867"><ele>603.0</ele><time>2026-04-18T15:18:52.785Z</time></trkpt><trkpt lat="41.9534283" lon="-8.0685667"><ele>603.0</ele><time>2026-04-18T15:18:53.786Z</time></trkpt><trkpt lat="41.9535033" lon="-8.06866"><ele>603.0</ele><time>2026-04-18T15:18:54.786Z</time></trkpt><trkpt lat="41.9535933" lon="-8.0687667"><ele>601.8</ele><time>2026-04-18T15:18:55.786Z</time></trkpt><trkpt lat="41.9536733" lon="-8.0688667"><ele>600.5999999999999</ele><time>2026-04-18T15:18:56.785Z</time></trkpt><trkpt lat="41.9537567" lon="-8.0689583"><ele>599.4000000000001</ele><time>2026-04-18T15:18:57.786Z</time></trkpt><trkpt lat="41.9538417" lon="-8.0690517"><ele>598.2</ele><time>2026-04-18T15:18:58.785Z</time></trkpt><trkpt lat="41.9539167" lon="-8.0691467"><ele>597.0</ele><time>2026-04-18T15:18:59.786Z</time></trkpt><trkpt lat="41.9539767" lon="-8.06924"><ele>597.0</ele><time>2026-04-18T15:19:00.786Z</time></trkpt><trkpt lat="41.95403" lon="-8.0693217"><ele>597.0</ele><time>2026-04-18T15:19:01.784Z</time></trkpt><trkpt lat="41.954095" lon="-8.06939"><ele>597.0</ele><time>2026-04-18T15:19:02.786Z</time></trkpt><trkpt lat="41.9541783" lon="-8.0694433"><ele>597.0</ele><time>2026-04-18T15:19:04.786Z</time></trkpt><trkpt lat="41.9541717" lon="-8.06934"><ele>597.0</ele><time>2026-04-18T15:19:08.785Z</time></trkpt><trkpt lat="41.9541367" lon="-8.0692417"><ele>597.0</ele><time>2026-04-18T15:19:10.785Z</time></trkpt><trkpt lat="41.9541067" lon="-8.0691633"><ele>595.5</ele><time>2026-04-18T15:19:11.785Z</time></trkpt><trkpt lat="41.9540717" lon="-8.069075"><ele>594.0</ele><time>2026-04-18T15:19:12.786Z</time></trkpt><trkpt lat="41.9540333" lon="-8.068975"><ele>592.5</ele><time>2026-04-18T15:19:13.786Z</time></trkpt><trkpt lat="41.9539917" lon="-8.0688783"><ele>591.0</ele><time>2026-04-18T15:19:14.785Z</time></trkpt><trkpt lat="41.9539583" lon="-8.068765"><ele>589.5</ele><time>2026-04-18T15:19:15.785Z</time></trkpt><trkpt lat="41.953935" lon="-8.068655"><ele>588.0</ele><time>2026-04-18T15:19:16.786Z</time></trkpt><trkpt lat="41.9539083" lon="-8.0685417"><ele>588.0</ele><time>2026-04-18T15:19:17.786Z</time></trkpt><trkpt lat="41.95389" lon="-8.068405"><ele>588.0</ele><time>2026-04-18T15:19:18.787Z</time></trkpt><trkpt lat="41.9538817" lon="-8.0682933"><ele>588.0</ele><time>2026-04-18T15:19:19.787Z</time></trkpt><trkpt lat="41.95388" lon="-8.0681867"><ele>588.0</ele><time>2026-04-18T15:19:20.785Z</time></trkpt><trkpt lat="41.9538667" lon="-8.0680933"><ele>588.0</ele><time>2026-04-18T15:19:21.785Z</time></trkpt><trkpt lat="41.9538533" lon="-8.0679467"><ele>588.0</ele><time>2026-04-18T15:19:23.785Z</time></trkpt><trkpt lat="41.9538417" lon="-8.0678383"><ele>586.0</ele><time>2026-04-18T15:19:25.786Z</time></trkpt><trkpt lat="41.9538333" lon="-8.0677483"><ele>584.0</ele><time>2026-04-18T15:19:28.787Z</time></trkpt><trkpt lat="41.9538633" lon="-8.06765"><ele>582.0</ele><time>2026-04-18T15:19:56.785Z</time></trkpt><trkpt lat="41.9538617" lon="-8.0675533"><ele>580.0</ele><time>2026-04-18T15:20:01.785Z</time></trkpt><trkpt lat="41.953835" lon="-8.0674583"><ele>578.0</ele><time>2026-04-18T15:20:06.785Z</time></trkpt><trkpt lat="41.953785" lon="-8.0673567"><ele>576.0</ele><time>2026-04-18T15:20:09.786Z</time></trkpt><trkpt lat="41.9536767" lon="-8.0672733"><ele>575.1666666666666</ele><time>2026-04-18T15:20:11.785Z</time></trkpt><trkpt lat="41.9536233" lon="-8.0672233"><ele>574.3333333333334</ele><time>2026-04-18T15:20:12.785Z</time></trkpt><trkpt lat="41.9535717" lon="-8.0671617"><ele>573.5</ele><time>2026-04-18T15:20:13.785Z</time></trkpt><trkpt lat="41.9535167" lon="-8.0670733"><ele>572.6666666666667</ele><time>2026-04-18T15:20:14.786Z</time></trkpt><trkpt lat="41.9534617" lon="-8.066965"><ele>571.8333333333334</ele><time>2026-04-18T15:20:15.786Z</time></trkpt><trkpt lat="41.9534017" lon="-8.0668533"><ele>571.0</ele><time>2026-04-18T15:20:16.786Z</time></trkpt><trkpt lat="41.95334" lon="-8.0667167"><ele>567.8</ele><time>2026-04-18T15:20:17.786Z</time></trkpt><trkpt lat="41.95329" lon="-8.0665933"><ele>564.6</ele><time>2026-04-18T15:20:18.787Z</time></trkpt><trkpt lat="41.9532417" lon="-8.066475"><ele>561.4</ele><time>2026-04-18T15:20:19.786Z</time></trkpt><trkpt lat="41.9531933" lon="-8.0663517"><ele>558.2</ele><time>2026-04-18T15:20:20.786Z</time></trkpt><trkpt lat="41.953145" lon="-8.0662417"><ele>555.0</ele><time>2026-04-18T15:20:21.786Z</time></trkpt><trkpt lat="41.9531033" lon="-8.0661433"><ele>555.0000000000001</ele><time>2026-04-18T15:20:22.785Z</time></trkpt><trkpt lat="41.9530567" lon="-8.066065"><ele>555.0</ele><time>2026-04-18T15:20:23.785Z</time></trkpt><trkpt lat="41.953005" lon="-8.0659867"><ele>555.0</ele><time>2026-04-18T15:20:24.786Z</time></trkpt><trkpt lat="41.95295" lon="-8.0659183"><ele>555.0</ele><time>2026-04-18T15:20:25.786Z</time></trkpt><trkpt lat="41.9528933" lon="-8.0658517"><ele>555.0</ele><time>2026-04-18T15:20:26.784Z</time></trkpt><trkpt lat="41.9528317" lon="-8.0657817"><ele>555.0000000000001</ele><time>2026-04-18T15:20:27.785Z</time></trkpt><trkpt lat="41.9527817" lon="-8.0657283"><ele>555.0</ele><time>2026-04-18T15:20:28.785Z</time></trkpt><trkpt lat="41.952725" lon="-8.06568"><ele>553.4</ele><time>2026-04-18T15:20:29.786Z</time></trkpt><trkpt lat="41.952665" lon="-8.0656383"><ele>551.8</ele><time>2026-04-18T15:20:30.785Z</time></trkpt><trkpt lat="41.9526033" lon="-8.0656183"><ele>550.2</ele><time>2026-04-18T15:20:31.786Z</time></trkpt><trkpt lat="41.9524833" lon="-8.0656117"><ele>548.6</ele><time>2026-04-18T15:20:33.787Z</time></trkpt><trkpt lat="41.9523633" lon="-8.0656433"><ele>547.0</ele><time>2026-04-18T15:20:35.784Z</time></trkpt><trkpt lat="41.952265" lon="-8.0656633"><ele>546.1428571428571</ele><time>2026-04-18T15:20:37.785Z</time></trkpt><trkpt lat="41.9522033" lon="-8.0656433"><ele>545.2857142857142</ele><time>2026-04-18T15:20:40.784Z</time></trkpt><trkpt lat="41.952215" lon="-8.065555"><ele>544.4285714285714</ele><time>2026-04-18T15:20:42.786Z</time></trkpt><trkpt lat="41.9522633" lon="-8.0654917"><ele>543.5714285714286</ele><time>2026-04-18T15:20:43.786Z</time></trkpt><trkpt lat="41.9522783" lon="-8.0653917"><ele>542.7142857142858</ele><time>2026-04-18T15:20:45.785Z</time></trkpt><trkpt lat="41.9522333" lon="-8.065305"><ele>541.8571428571429</ele><time>2026-04-18T15:20:49.785Z</time></trkpt><trkpt lat="41.9522133" lon="-8.0652217"><ele>541.0</ele><time>2026-04-18T15:20:54.786Z</time></trkpt><trkpt lat="41.9523033" lon="-8.0651933"><ele>541.0000000000001</ele><time>2026-04-18T15:21:13.784Z</time></trkpt><trkpt lat="41.952305" lon="-8.0652883"><ele>541.0</ele><time>2026-04-18T15:21:16.784Z</time></trkpt><trkpt lat="41.9522533" lon="-8.0653483"><ele>541.0</ele><time>2026-04-18T15:26:57.784Z</time></trkpt><trkpt lat="41.95219" lon="-8.0653167"><ele>541.0</ele><time>2026-04-18T15:27:02.784Z</time></trkpt><trkpt lat="41.95223" lon="-8.0652467"><ele>541.0</ele><time>2026-04-18T15:27:05.783Z</time></trkpt><trkpt lat="41.9522933" lon="-8.065235"><ele>541.0000000000001</ele><time>2026-04-18T15:27:08.784Z</time></trkpt><trkpt lat="41.95233" lon="-8.06535"><ele>541.0</ele><time>2026-04-18T15:27:11.783Z</time></trkpt><trkpt lat="41.9523117" lon="-8.06545"><ele>541.0</ele><time>2026-04-18T15:27:13.783Z</time></trkpt><trkpt lat="41.9522883" lon="-8.065555"><ele>541.0</ele><time>2026-04-18T15:27:15.784Z</time></trkpt><trkpt lat="41.9522817" lon="-8.065675"><ele>541.0</ele><time>2026-04-18T15:27:17.784Z</time></trkpt><trkpt lat="41.95234" lon="-8.06575"><ele>541.0</ele><time>2026-04-18T15:27:20.783Z</time></trkpt><trkpt lat="41.95242" lon="-8.0657283"><ele>541.0</ele><time>2026-04-18T15:27:22.787Z</time></trkpt><trkpt lat="41.952535" lon="-8.065705"><ele>542.0</ele><time>2026-04-18T15:27:24.784Z</time></trkpt><trkpt lat="41.9525983" lon="-8.0657117"><ele>543.0</ele><time>2026-04-18T15:27:25.785Z</time></trkpt><trkpt lat="41.95266" lon="-8.06573"><ele>544.0</ele><time>2026-04-18T15:27:26.783Z</time></trkpt><trkpt lat="41.9527233" lon="-8.0657617"><ele>545.0</ele><time>2026-04-18T15:27:27.783Z</time></trkpt><trkpt lat="41.952785" lon="-8.0658017"><ele>546.0</ele><time>2026-04-18T15:27:28.783Z</time></trkpt><trkpt lat="41.9528883" lon="-8.0658933"><ele>547.0</ele><time>2026-04-18T15:27:30.783Z</time></trkpt><trkpt lat="41.952935" lon="-8.0659533"><ele>548.3333333333334</ele><time>2026-04-18T15:27:31.785Z</time></trkpt><trkpt lat="41.9529783" lon="-8.0660183"><ele>549.6666666666667</ele><time>2026-04-18T15:27:32.784Z</time></trkpt><trkpt lat="41.9530217" lon="-8.06609"><ele>551.0</ele><time>2026-04-18T15:27:33.782Z</time></trkpt><trkpt lat="41.9530617" lon="-8.0661733"><ele>552.3333333333334</ele><time>2026-04-18T15:27:34.783Z</time></trkpt><trkpt lat="41.953105" lon="-8.0662633"><ele>553.6666666666666</ele><time>2026-04-18T15:27:35.785Z</time></trkpt><trkpt lat="41.95315" lon="-8.066365"><ele>555.0</ele><time>2026-04-18T15:27:36.783Z</time></trkpt><trkpt lat="41.9531967" lon="-8.0664717"><ele>555.0</ele><time>2026-04-18T15:27:37.783Z</time></trkpt><trkpt lat="41.9532483" lon="-8.06659"><ele>555.0</ele><time>2026-04-18T15:27:38.783Z</time></trkpt><trkpt lat="41.9533033" lon="-8.066705"><ele>555.0</ele><time>2026-04-18T15:27:39.783Z</time></trkpt><trkpt lat="41.953355" lon="-8.0667967"><ele>555.0</ele><time>2026-04-18T15:27:40.782Z</time></trkpt><trkpt lat="41.9534017" lon="-8.06689"><ele>555.0</ele><time>2026-04-18T15:27:41.783Z</time></trkpt><trkpt lat="41.9534467" lon="-8.0669717"><ele>555.0</ele><time>2026-04-18T15:27:42.784Z</time></trkpt><trkpt lat="41.95349" lon="-8.06705"><ele>558.2</ele><time>2026-04-18T15:27:43.783Z</time></trkpt><trkpt lat="41.953575" lon="-8.0671567"><ele>561.4</ele><time>2026-04-18T15:27:45.782Z</time></trkpt><trkpt lat="41.9536833" lon="-8.0672083"><ele>564.6</ele><time>2026-04-18T15:27:47.784Z</time></trkpt><trkpt lat="41.9537867" lon="-8.06725"><ele>567.8</ele><time>2026-04-18T15:27:49.783Z</time></trkpt><trkpt lat="41.953855" lon="-8.0673417"><ele>571.0</ele><time>2026-04-18T15:27:51.784Z</time></trkpt><trkpt lat="41.953895" lon="-8.06746"><ele>571.8333333333334</ele><time>2026-04-18T15:27:53.785Z</time></trkpt><trkpt lat="41.9538967" lon="-8.0675467"><ele>572.6666666666667</ele><time>2026-04-18T15:27:54.784Z</time></trkpt><trkpt lat="41.95389" lon="-8.0676467"><ele>573.5</ele><time>2026-04-18T15:27:55.785Z</time></trkpt><trkpt lat="41.9538967" lon="-8.0678233"><ele>574.3333333333334</ele><time>2026-04-18T15:27:57.784Z</time></trkpt><trkpt lat="41.9538983" lon="-8.0679233"><ele>575.1666666666666</ele><time>2026-04-18T15:27:58.783Z</time></trkpt><trkpt lat="41.9539167" lon="-8.0680317"><ele>576.0</ele><time>2026-04-18T15:27:59.784Z</time></trkpt><trkpt lat="41.953935" lon="-8.068155"><ele>578.4</ele><time>2026-04-18T15:28:00.784Z</time></trkpt><trkpt lat="41.9539483" lon="-8.0682867"><ele>580.8</ele><time>2026-04-18T15:28:01.783Z</time></trkpt><trkpt lat="41.9539583" lon="-8.0684417"><ele>583.1999999999999</ele><time>2026-04-18T15:28:02.783Z</time></trkpt><trkpt lat="41.9539683" lon="-8.0685983"><ele>585.6</ele><time>2026-04-18T15:28:03.783Z</time></trkpt><trkpt lat="41.953995" lon="-8.0687433"><ele>588.0</ele><time>2026-04-18T15:28:04.785Z</time></trkpt><trkpt lat="41.9540283" lon="-8.0688783"><ele>588.0</ele><time>2026-04-18T15:28:05.783Z</time></trkpt><trkpt lat="41.95406" lon="-8.0690017"><ele>588.0</ele><time>2026-04-18T15:28:06.783Z</time></trkpt><trkpt lat="41.9540967" lon="-8.0691167"><ele>588.0</ele><time>2026-04-18T15:28:07.785Z</time></trkpt><trkpt lat="41.954125" lon="-8.0692217"><ele>588.0</ele><time>2026-04-18T15:28:08.785Z</time></trkpt><trkpt lat="41.954145" lon="-8.0693083"><ele>588.0</ele><time>2026-04-18T15:28:09.782Z</time></trkpt><trkpt lat="41.9541617" lon="-8.069405"><ele>588.0</ele><time>2026-04-18T15:28:10.783Z</time></trkpt><trkpt lat="41.95421" lon="-8.06957"><ele>589.3333333333334</ele><time>2026-04-18T15:28:12.783Z</time></trkpt><trkpt lat="41.9542317" lon="-8.069705"><ele>590.6666666666666</ele><time>2026-04-18T15:28:14.784Z</time></trkpt><trkpt lat="41.9542067" lon="-8.0698167"><ele>592.0</ele><time>2026-04-18T15:28:16.782Z</time></trkpt><trkpt lat="41.9541917" lon="-8.069915"><ele>593.3333333333333</ele><time>2026-04-18T15:28:18.783Z</time></trkpt><trkpt lat="41.9541967" lon="-8.07003"><ele>594.6666666666666</ele><time>2026-04-18T15:28:20.783Z</time></trkpt><trkpt lat="41.95419" lon="-8.07015"><ele>596.0</ele><time>2026-04-18T15:28:22.784Z</time></trkpt><trkpt lat="41.9541767" lon="-8.0702767"><ele>598.0</ele><time>2026-04-18T15:28:24.783Z</time></trkpt><trkpt lat="41.9541783" lon="-8.0703967"><ele>600.0</ele><time>2026-04-18T15:28:26.784Z</time></trkpt><trkpt lat="41.954185" lon="-8.0705017"><ele>602.0</ele><time>2026-04-18T15:28:28.785Z</time></trkpt><trkpt lat="41.9541867" lon="-8.0706317"><ele>604.0</ele><time>2026-04-18T15:28:30.783Z</time></trkpt><trkpt lat="41.9541783" lon="-8.0707617"><ele>606.0</ele><time>2026-04-18T15:28:32.784Z</time></trkpt><trkpt lat="41.9541733" lon="-8.0708583"><ele>608.0</ele><time>2026-04-18T15:28:35.783Z</time></trkpt><trkpt lat="41.95421" lon="-8.0709283"><ele>609.3333333333333</ele><time>2026-04-18T15:28:38.785Z</time></trkpt><trkpt lat="41.9542367" lon="-8.0710067"><ele>610.6666666666666</ele><time>2026-04-18T15:28:41.784Z</time></trkpt><trkpt lat="41.9542583" lon="-8.071115"><ele>612.0</ele><time>2026-04-18T15:28:45.783Z</time></trkpt><trkpt lat="41.9542783" lon="-8.0712017"><ele>613.3333333333334</ele><time>2026-04-18T15:28:48.783Z</time></trkpt><trkpt lat="41.95429" lon="-8.0713183"><ele>614.6666666666667</ele><time>2026-04-18T15:28:51.783Z</time></trkpt><trkpt lat="41.9542933" lon="-8.0714067"><ele>616.0</ele><time>2026-04-18T15:28:52.783Z</time></trkpt><trkpt lat="41.9543" lon="-8.0715417"><ele>618.3333333333334</ele><time>2026-04-18T15:28:54.784Z</time></trkpt><trkpt lat="41.95432" lon="-8.0716533"><ele>620.6666666666667</ele><time>2026-04-18T15:28:56.784Z</time></trkpt><trkpt lat="41.95438" lon="-8.0717417"><ele>623.0</ele><time>2026-04-18T15:28:59.783Z</time></trkpt><trkpt lat="41.9544433" lon="-8.0718083"><ele>625.3333333333334</ele><time>2026-04-18T15:29:02.785Z</time></trkpt><trkpt lat="41.9545133" lon="-8.071805"><ele>627.6666666666666</ele><time>2026-04-18T15:29:07.783Z</time></trkpt><trkpt lat="41.9545383" lon="-8.0719133"><ele>630.0</ele><time>2026-04-18T15:29:23.785Z</time></trkpt><trkpt lat="41.9544733" lon="-8.0719517"><ele>630.0</ele><time>2026-04-18T15:29:27.783Z</time></trkpt><trkpt lat="41.9543867" lon="-8.0718967"><ele>630.0</ele><time>2026-04-18T15:29:30.783Z</time></trkpt><trkpt lat="41.954345" lon="-8.07181"><ele>630.0</ele><time>2026-04-18T15:29:32.784Z</time></trkpt><trkpt lat="41.954325" lon="-8.071695"><ele>630.0</ele><time>2026-04-18T15:29:34.784Z</time></trkpt><trkpt lat="41.9543017" lon="-8.071565"><ele>630.0</ele><time>2026-04-18T15:29:36.783Z</time></trkpt><trkpt lat="41.9542933" lon="-8.0714667"><ele>630.0</ele><time>2026-04-18T15:29:38.784Z</time></trkpt><trkpt lat="41.9542667" lon="-8.07135"><ele>628.1666666666666</ele><time>2026-04-18T15:30:11.784Z</time></trkpt><trkpt lat="41.9542383" lon="-8.0712667"><ele>626.3333333333334</ele><time>2026-04-18T15:30:15.783Z</time></trkpt><trkpt lat="41.9542217" lon="-8.07117"><ele>624.5</ele><time>2026-04-18T15:30:18.783Z</time></trkpt><trkpt lat="41.9541683" lon="-8.0711167"><ele>622.6666666666667</ele><time>2026-04-18T15:30:21.784Z</time></trkpt><trkpt lat="41.9541317" lon="-8.0710383"><ele>620.8333333333334</ele><time>2026-04-18T15:30:24.784Z</time></trkpt><trkpt lat="41.9541033" lon="-8.070875"><ele>619.0</ele><time>2026-04-18T15:30:27.784Z</time></trkpt><trkpt lat="41.954145" lon="-8.0707433"><ele>616.8</ele><time>2026-04-18T15:30:29.786Z</time></trkpt><trkpt lat="41.9542" lon="-8.0705833"><ele>614.5999999999999</ele><time>2026-04-18T15:30:31.784Z</time></trkpt><trkpt lat="41.95422" lon="-8.0704683"><ele>612.4</ele><time>2026-04-18T15:30:33.783Z</time></trkpt><trkpt lat="41.95423" lon="-8.0703833"><ele>610.1999999999999</ele><time>2026-04-18T15:30:35.784Z</time></trkpt><trkpt lat="41.9542233" lon="-8.070245"><ele>608.0</ele><time>2026-04-18T15:30:37.784Z</time></trkpt><trkpt lat="41.954225" lon="-8.0701217"><ele>606.6</ele><time>2026-04-18T15:30:39.785Z</time></trkpt><trkpt lat="41.954235" lon="-8.07002"><ele>605.1999999999999</ele><time>2026-04-18T15:30:41.784Z</time></trkpt><trkpt lat="41.9542533" lon="-8.0698383"><ele>603.8</ele><time>2026-04-18T15:30:43.784Z</time></trkpt><trkpt lat="41.9542483" lon="-8.0696817"><ele>602.4</ele><time>2026-04-18T15:30:45.784Z</time></trkpt><trkpt lat="41.9541967" lon="-8.06959"><ele>601.0</ele><time>2026-04-18T15:30:47.784Z</time></trkpt><trkpt lat="41.95414" lon="-8.0695067"><ele>600.3333333333334</ele><time>2026-04-18T15:30:49.784Z</time></trkpt><trkpt lat="41.9540583" lon="-8.0693983"><ele>599.6666666666667</ele><time>2026-04-18T15:30:51.782Z</time></trkpt><trkpt lat="41.9540083" lon="-8.0693267"><ele>599.0</ele><time>2026-04-18T15:30:52.783Z</time></trkpt><trkpt lat="41.9539633" lon="-8.06926"><ele>598.3333333333334</ele><time>2026-04-18T15:30:53.783Z</time></trkpt><trkpt lat="41.953915" lon="-8.0692"><ele>597.6666666666666</ele><time>2026-04-18T15:30:54.783Z</time></trkpt><trkpt lat="41.9538117" lon="-8.0691017"><ele>597.0</ele><time>2026-04-18T15:30:56.783Z</time></trkpt><trkpt lat="41.9537567" lon="-8.0690583"><ele>595.5</ele><time>2026-04-18T15:30:57.783Z</time></trkpt><trkpt lat="41.9536983" lon="-8.069"><ele>594.0</ele><time>2026-04-18T15:30:58.783Z</time></trkpt><trkpt lat="41.9536383" lon="-8.0689467"><ele>592.5</ele><time>2026-04-18T15:30:59.785Z</time></trkpt><trkpt lat="41.9535867" lon="-8.0688967"><ele>591.0</ele><time>2026-04-18T15:31:00.783Z</time></trkpt><trkpt lat="41.953535" lon="-8.0688483"><ele>589.5</ele><time>2026-04-18T15:31:01.783Z</time></trkpt><trkpt lat="41.95348" lon="-8.06879"><ele>588.0</ele><time>2026-04-18T15:31:02.783Z</time></trkpt><trkpt lat="41.9533967" lon="-8.068665"><ele>590.1428571428571</ele><time>2026-04-18T15:31:04.784Z</time></trkpt><trkpt lat="41.9533517" lon="-8.0686"><ele>592.2857142857142</ele><time>2026-04-18T15:31:05.783Z</time></trkpt><trkpt lat="41.953295" lon="-8.0685533"><ele>594.4285714285714</ele><time>2026-04-18T15:31:06.783Z</time></trkpt><trkpt lat="41.9532383" lon="-8.0685067"><ele>596.5714285714286</ele><time>2026-04-18T15:31:07.784Z</time></trkpt><trkpt lat="41.9531817" lon="-8.06846"><ele>598.7142857142857</ele><time>2026-04-18T15:31:08.783Z</time></trkpt><trkpt lat="41.95312" lon="-8.06842"><ele>600.8571428571429</ele><time>2026-04-18T15:31:09.783Z</time></trkpt><trkpt lat="41.9530517" lon="-8.0683933"><ele>603.0</ele><time>2026-04-18T15:31:10.784Z</time></trkpt><trkpt lat="41.9529817" lon="-8.06837"><ele>603.0</ele><time>2026-04-18T15:31:11.783Z</time></trkpt><trkpt lat="41.9529133" lon="-8.0683633"><ele>603.0</ele><time>2026-04-18T15:31:12.782Z</time></trkpt><trkpt lat="41.9528367" lon="-8.0683833"><ele>603.0</ele><time>2026-04-18T15:31:13.783Z</time></trkpt><trkpt lat="41.9527667" lon="-8.0684333"><ele>603.0</ele><time>2026-04-18T15:31:14.784Z</time></trkpt><trkpt lat="41.952705" lon="-8.0685283"><ele>603.0</ele><time>2026-04-18T15:31:15.782Z</time></trkpt><trkpt lat="41.9526533" lon="-8.06864"><ele>603.0</ele><time>2026-04-18T15:31:16.784Z</time></trkpt><trkpt lat="41.9526083" lon="-8.0687633"><ele>603.0</ele><time>2026-04-18T15:31:17.783Z</time></trkpt><trkpt lat="41.9525583" lon="-8.0688833"><ele>603.0</ele><time>2026-04-18T15:31:18.783Z</time></trkpt><trkpt lat="41.952505" lon="-8.0689967"><ele>603.0</ele><time>2026-04-18T15:31:19.788Z</time></trkpt><trkpt lat="41.95245" lon="-8.069105"><ele>603.0</ele><time>2026-04-18T15:31:20.783Z</time></trkpt><trkpt lat="41.9524017" lon="-8.0691983"><ele>603.0</ele><time>2026-04-18T15:31:21.784Z</time></trkpt><trkpt lat="41.9523517" lon="-8.06928"><ele>607.6</ele><time>2026-04-18T15:31:22.783Z</time></trkpt><trkpt lat="41.9523" lon="-8.06935"><ele>612.1999999999999</ele><time>2026-04-18T15:31:23.783Z</time></trkpt><trkpt lat="41.9522317" lon="-8.069415"><ele>616.8</ele><time>2026-04-18T15:31:24.783Z</time></trkpt><trkpt lat="41.952145" lon="-8.06948"><ele>621.4</ele><time>2026-04-18T15:31:25.783Z</time></trkpt><trkpt lat="41.9520517" lon="-8.0695233"><ele>626.0</ele><time>2026-04-18T15:31:26.785Z</time></trkpt><trkpt lat="41.95194" lon="-8.0695367"><ele>626.0</ele><time>2026-04-18T15:31:27.783Z</time></trkpt><trkpt lat="41.951825" lon="-8.0695483"><ele>626.0</ele><time>2026-04-18T15:31:28.783Z</time></trkpt><trkpt lat="41.9517117" lon="-8.0695583"><ele>626.0</ele><time>2026-04-18T15:31:29.782Z</time></trkpt><trkpt lat="41.9516133" lon="-8.0695767"><ele>626.0</ele><time>2026-04-18T15:31:30.783Z</time></trkpt><trkpt lat="41.951535" lon="-8.069605"><ele>626.0</ele><time>2026-04-18T15:31:31.783Z</time></trkpt><trkpt lat="41.9514717" lon="-8.0696433"><ele>626.5</ele><time>2026-04-18T15:31:32.783Z</time></trkpt><trkpt lat="41.9514217" lon="-8.0697"><ele>627.0</ele><time>2026-04-18T15:31:33.783Z</time></trkpt><trkpt lat="41.9513717" lon="-8.0697617"><ele>627.5</ele><time>2026-04-18T15:31:34.782Z</time></trkpt><trkpt lat="41.9513383" lon="-8.0698367"><ele>628.0</ele><time>2026-04-18T15:31:35.783Z</time></trkpt><trkpt lat="41.9513217" lon="-8.0699233"><ele>628.5</ele><time>2026-04-18T15:31:36.784Z</time></trkpt><trkpt lat="41.9512883" lon="-8.0700683"><ele>629.0</ele><time>2026-04-18T15:31:38.783Z</time></trkpt><trkpt lat="41.9513133" lon="-8.0701633"><ele>631.5</ele><time>2026-04-18T15:31:41.784Z</time></trkpt><trkpt lat="41.951375" lon="-8.070145"><ele>634.0</ele><time>2026-04-18T15:32:02.785Z</time></trkpt><trkpt lat="41.9514433" lon="-8.0702683"><ele>636.5</ele><time>2026-04-18T15:32:04.786Z</time></trkpt><trkpt lat="41.95149" lon="-8.0703567"><ele>639.0</ele><time>2026-04-18T15:32:05.787Z</time></trkpt><trkpt lat="41.951525" lon="-8.0704467"><ele>641.5</ele><time>2026-04-18T15:32:06.784Z</time></trkpt><trkpt lat="41.9515633" lon="-8.070545"><ele>644.0</ele><time>2026-04-18T15:32:07.784Z</time></trkpt><trkpt lat="41.9516133" lon="-8.0706383"><ele>644.0</ele><time>2026-04-18T15:32:08.784Z</time></trkpt><trkpt lat="41.9516767" lon="-8.0707133"><ele>644.0</ele><time>2026-04-18T15:32:09.786Z</time></trkpt><trkpt lat="41.95174" lon="-8.0707867"><ele>644.0</ele><time>2026-04-18T15:32:10.786Z</time></trkpt><trkpt lat="41.9517983" lon="-8.0708583"><ele>644.0</ele><time>2026-04-18T15:32:11.785Z</time></trkpt><trkpt lat="41.951855" lon="-8.07095"><ele>644.0</ele><time>2026-04-18T15:32:12.786Z</time></trkpt><trkpt lat="41.95192" lon="-8.07105"><ele>644.0</ele><time>2026-04-18T15:32:13.788Z</time></trkpt><trkpt lat="41.9519617" lon="-8.0711633"><ele>646.25</ele><time>2026-04-18T15:32:14.786Z</time></trkpt><trkpt lat="41.9520067" lon="-8.071285"><ele>648.5</ele><time>2026-04-18T15:32:15.785Z</time></trkpt><trkpt lat="41.9520433" lon="-8.0714333"><ele>650.75</ele><time>2026-04-18T15:32:16.786Z</time></trkpt><trkpt lat="41.952075" lon="-8.07159"><ele>653.0</ele><time>2026-04-18T15:32:17.784Z</time></trkpt><trkpt lat="41.95211" lon="-8.0717417"><ele>654.0</ele><time>2026-04-18T15:32:18.785Z</time></trkpt><trkpt lat="41.9521483" lon="-8.0718817"><ele>655.0</ele><time>2026-04-18T15:32:19.785Z</time></trkpt><trkpt lat="41.9521917" lon="-8.072005"><ele>656.0</ele><time>2026-04-18T15:32:20.786Z</time></trkpt><trkpt lat="41.9522467" lon="-8.0721133"><ele>657.0</ele><time>2026-04-18T15:32:21.785Z</time></trkpt><trkpt lat="41.9523033" lon="-8.07221"><ele>658.0</ele><time>2026-04-18T15:32:22.785Z</time></trkpt><trkpt lat="41.9523633" lon="-8.072305"><ele>658.0</ele><time>2026-04-18T15:32:23.786Z</time></trkpt><trkpt lat="41.9524183" lon="-8.0723983"><ele>658.0</ele><time>2026-04-18T15:32:24.786Z</time></trkpt><trkpt lat="41.9524617" lon="-8.0725017"><ele>658.0</ele><time>2026-04-18T15:32:25.786Z</time></trkpt><trkpt lat="41.95249" lon="-8.07259"><ele>658.0</ele><time>2026-04-18T15:32:26.784Z</time></trkpt><trkpt lat="41.95251" lon="-8.0726783"><ele>658.0</ele><time>2026-04-18T15:32:27.786Z</time></trkpt><trkpt lat="41.9525317" lon="-8.0727683"><ele>658.0</ele><time>2026-04-18T15:32:28.785Z</time></trkpt><trkpt lat="41.9525333" lon="-8.0729283"><ele>658.2</ele><time>2026-04-18T15:32:30.786Z</time></trkpt><trkpt lat="41.9525317" lon="-8.0731033"><ele>658.4</ele><time>2026-04-18T15:32:32.784Z</time></trkpt><trkpt lat="41.9525467" lon="-8.07321"><ele>658.6</ele><time>2026-04-18T15:32:33.785Z</time></trkpt><trkpt lat="41.9525683" lon="-8.0733317"><ele>658.8000000000001</ele><time>2026-04-18T15:32:34.786Z</time></trkpt><trkpt lat="41.95259" lon="-8.0734483"><ele>659.0</ele><time>2026-04-18T15:32:35.786Z</time></trkpt><trkpt lat="41.9526083" lon="-8.073565"><ele>662.0</ele><time>2026-04-18T15:32:36.787Z</time></trkpt><trkpt lat="41.9526267" lon="-8.0736883"><ele>665.0</ele><time>2026-04-18T15:32:37.784Z</time></trkpt><trkpt lat="41.952655" lon="-8.0738083"><ele>668.0</ele><time>2026-04-18T15:32:38.786Z</time></trkpt><trkpt lat="41.95269" lon="-8.0739467"><ele>671.0</ele><time>2026-04-18T15:32:39.785Z</time></trkpt><trkpt lat="41.952725" lon="-8.0740967"><ele>674.0</ele><time>2026-04-18T15:32:40.786Z</time></trkpt><trkpt lat="41.9527617" lon="-8.0742517"><ele>677.2</ele><time>2026-04-18T15:32:41.786Z</time></trkpt><trkpt lat="41.9527867" lon="-8.0744"><ele>680.4000000000001</ele><time>2026-04-18T15:32:42.786Z</time></trkpt><trkpt lat="41.9528067" lon="-8.0745483"><ele>683.6</ele><time>2026-04-18T15:32:43.785Z</time></trkpt><trkpt lat="41.952835" lon="-8.07469"><ele>686.8</ele><time>2026-04-18T15:32:44.786Z</time></trkpt><trkpt lat="41.95285" lon="-8.074815"><ele>690.0</ele><time>2026-04-18T15:32:45.784Z</time></trkpt><trkpt lat="41.9528717" lon="-8.0749233"><ele>693.1666666666666</ele><time>2026-04-18T15:32:46.785Z</time></trkpt><trkpt lat="41.952885" lon="-8.07502"><ele>696.3333333333334</ele><time>2026-04-18T15:32:47.784Z</time></trkpt><trkpt lat="41.9528967" lon="-8.07512"><ele>699.5</ele><time>2026-04-18T15:32:48.785Z</time></trkpt><trkpt lat="41.95292" lon="-8.0752017"><ele>702.6666666666667</ele><time>2026-04-18T15:32:49.785Z</time></trkpt><trkpt lat="41.9529983" lon="-8.0752883"><ele>705.8333333333334</ele><time>2026-04-18T15:32:51.786Z</time></trkpt><trkpt lat="41.95311" lon="-8.0752583"><ele>709.0</ele><time>2026-04-18T15:32:53.786Z</time></trkpt><trkpt lat="41.9532583" lon="-8.075175"><ele>709.0</ele><time>2026-04-18T15:32:55.786Z</time></trkpt><trkpt lat="41.9533683" lon="-8.07513"><ele>709.0</ele><time>2026-04-18T15:32:56.786Z</time></trkpt><trkpt lat="41.953485" lon="-8.0750983"><ele>709.0</ele><time>2026-04-18T15:32:57.786Z</time></trkpt><trkpt lat="41.9535917" lon="-8.0750783"><ele>709.0</ele><time>2026-04-18T15:32:58.785Z</time></trkpt><trkpt lat="41.95369" lon="-8.0750683"><ele>709.0</ele><time>2026-04-18T15:32:59.785Z</time></trkpt><trkpt lat="41.9537833" lon="-8.0750767"><ele>708.8000000000001</ele><time>2026-04-18T15:33:00.785Z</time></trkpt><trkpt lat="41.9538683" lon="-8.07509"><ele>708.6</ele><time>2026-04-18T15:33:01.787Z</time></trkpt><trkpt lat="41.95395" lon="-8.0751233"><ele>708.4</ele><time>2026-04-18T15:33:02.787Z</time></trkpt><trkpt lat="41.9540367" lon="-8.0751717"><ele>708.2</ele><time>2026-04-18T15:33:03.786Z</time></trkpt><trkpt lat="41.9541283" lon="-8.07522"><ele>708.0</ele><time>2026-04-18T15:33:04.785Z</time></trkpt><trkpt lat="41.9542333" lon="-8.07528"><ele>708.0</ele><time>2026-04-18T15:33:05.786Z</time></trkpt><trkpt lat="41.9543433" lon="-8.0753367"><ele>708.0</ele><time>2026-04-18T15:33:06.786Z</time></trkpt><trkpt lat="41.9544483" lon="-8.0753917"><ele>708.0</ele><time>2026-04-18T15:33:07.786Z</time></trkpt><trkpt lat="41.9545383" lon="-8.07544"><ele>708.0</ele><time>2026-04-18T15:33:08.786Z</time></trkpt><trkpt lat="41.95462" lon="-8.0754883"><ele>708.0</ele><time>2026-04-18T15:33:09.786Z</time></trkpt><trkpt lat="41.9546917" lon="-8.0755333"><ele>708.0</ele><time>2026-04-18T15:33:10.786Z</time></trkpt><trkpt lat="41.9547533" lon="-8.0755783"><ele>708.0</ele><time>2026-04-18T15:33:11.786Z</time></trkpt><trkpt lat="41.954815" lon="-8.075635"><ele>708.0</ele><time>2026-04-18T15:33:12.785Z</time></trkpt><trkpt lat="41.9548617" lon="-8.075725"><ele>708.0</ele><time>2026-04-18T15:33:13.785Z</time></trkpt><trkpt lat="41.95491" lon="-8.0758367"><ele>708.0</ele><time>2026-04-18T15:33:14.787Z</time></trkpt><trkpt lat="41.9549583" lon="-8.07595"><ele>708.0</ele><time>2026-04-18T15:33:15.786Z</time></trkpt><trkpt lat="41.95501" lon="-8.0760883"><ele>711.5999999999999</ele><time>2026-04-18T15:33:16.784Z</time></trkpt><trkpt lat="41.9550633" lon="-8.0762167"><ele>715.1999999999999</ele><time>2026-04-18T15:33:17.785Z</time></trkpt><trkpt lat="41.9551017" lon="-8.0763333"><ele>718.8</ele><time>2026-04-18T15:33:18.786Z</time></trkpt><trkpt lat="41.9551283" lon="-8.0764517"><ele>722.4</ele><time>2026-04-18T15:33:19.785Z</time></trkpt><trkpt lat="41.9551383" lon="-8.0765667"><ele>726.0</ele><time>2026-04-18T15:33:20.787Z</time></trkpt><trkpt lat="41.9551433" lon="-8.0766767"><ele>728.0</ele><time>2026-04-18T15:33:21.785Z</time></trkpt><trkpt lat="41.9551567" lon="-8.076785"><ele>730.0</ele><time>2026-04-18T15:33:22.786Z</time></trkpt><trkpt lat="41.9551817" lon="-8.0768883"><ele>732.0</ele><time>2026-04-18T15:33:23.786Z</time></trkpt><trkpt lat="41.95522" lon="-8.076985"><ele>734.0</ele><time>2026-04-18T15:33:24.785Z</time></trkpt><trkpt lat="41.955275" lon="-8.0770817"><ele>736.0</ele><time>2026-04-18T15:33:25.787Z</time></trkpt><trkpt lat="41.95534" lon="-8.0771783"><ele>738.0</ele><time>2026-04-18T15:33:26.786Z</time></trkpt><trkpt lat="41.9553967" lon="-8.0772717"><ele>738.0</ele><time>2026-04-18T15:33:27.786Z</time></trkpt><trkpt lat="41.955435" lon="-8.0773783"><ele>738.0</ele><time>2026-04-18T15:33:28.786Z</time></trkpt><trkpt lat="41.9554683" lon="-8.0774883"><ele>738.0</ele><time>2026-04-18T15:33:29.787Z</time></trkpt><trkpt lat="41.9555083" lon="-8.0775817"><ele>738.0</ele><time>2026-04-18T15:33:30.787Z</time></trkpt><trkpt lat="41.9555567" lon="-8.077665"><ele>738.0</ele><time>2026-04-18T15:33:31.785Z</time></trkpt><trkpt lat="41.95561" lon="-8.0777383"><ele>738.0</ele><time>2026-04-18T15:33:32.788Z</time></trkpt><trkpt lat="41.9556733" lon="-8.077805"><ele>738.8333333333334</ele><time>2026-04-18T15:33:33.786Z</time></trkpt><trkpt lat="41.9557417" lon="-8.0778667"><ele>739.6666666666666</ele><time>2026-04-18T15:33:34.785Z</time></trkpt><trkpt lat="41.9558" lon="-8.07792"><ele>740.5</ele><time>2026-04-18T15:33:35.785Z</time></trkpt><trkpt lat="41.9559083" lon="-8.077975"><ele>741.3333333333333</ele><time>2026-04-18T15:33:37.785Z</time></trkpt><trkpt lat="41.955975" lon="-8.0779667"><ele>742.1666666666666</ele><time>2026-04-18T15:33:38.786Z</time></trkpt><trkpt lat="41.956055" lon="-8.07795"><ele>743.0</ele><time>2026-04-18T15:33:39.786Z</time></trkpt><trkpt lat="41.9561417" lon="-8.0779283"><ele>744.0</ele><time>2026-04-18T15:33:40.784Z</time></trkpt><trkpt lat="41.956235" lon="-8.077895"><ele>745.0</ele><time>2026-04-18T15:33:41.786Z</time></trkpt><trkpt lat="41.95634" lon="-8.077855"><ele>746.0</ele><time>2026-04-18T15:33:42.787Z</time></trkpt><trkpt lat="41.956435" lon="-8.0778133"><ele>747.0</ele><time>2026-04-18T15:33:43.786Z</time></trkpt><trkpt lat="41.9565317" lon="-8.0777733"><ele>748.0</ele><time>2026-04-18T15:33:44.786Z</time></trkpt><trkpt lat="41.9566217" lon="-8.07773"><ele>747.8333333333334</ele><time>2026-04-18T15:33:45.786Z</time></trkpt><trkpt lat="41.956705" lon="-8.0776933"><ele>747.6666666666667</ele><time>2026-04-18T15:33:46.786Z</time></trkpt><trkpt lat="41.9567833" lon="-8.0776517"><ele>747.5</ele><time>2026-04-18T15:33:47.786Z</time></trkpt><trkpt lat="41.9568617" lon="-8.0776083"><ele>747.3333333333334</ele><time>2026-04-18T15:33:48.786Z</time></trkpt><trkpt lat="41.9569383" lon="-8.0775567"><ele>747.1666666666666</ele><time>2026-04-18T15:33:49.784Z</time></trkpt><trkpt lat="41.9570067" lon="-8.0774983"><ele>747.0</ele><time>2026-04-18T15:33:50.786Z</time></trkpt><trkpt lat="41.9570717" lon="-8.077425"><ele>747.0</ele><time>2026-04-18T15:33:51.786Z</time></trkpt><trkpt lat="41.957135" lon="-8.0773567"><ele>747.0</ele><time>2026-04-18T15:33:52.786Z</time></trkpt><trkpt lat="41.9571917" lon="-8.0772933"><ele>747.0</ele><time>2026-04-18T15:33:53.786Z</time></trkpt><trkpt lat="41.95729" lon="-8.07721"><ele>747.0</ele><time>2026-04-18T15:33:55.786Z</time></trkpt><trkpt lat="41.95741" lon="-8.0771817"><ele>747.0</ele><time>2026-04-18T15:33:57.786Z</time></trkpt><trkpt lat="41.95748" lon="-8.0771833"><ele>748.3333333333334</ele><time>2026-04-18T15:33:58.786Z</time></trkpt><trkpt lat="41.9575567" lon="-8.07719"><ele>749.6666666666666</ele><time>2026-04-18T15:33:59.785Z</time></trkpt><trkpt lat="41.957635" lon="-8.0771967"><ele>751.0</ele><time>2026-04-18T15:34:00.786Z</time></trkpt><trkpt lat="41.9577167" lon="-8.0772"><ele>752.3333333333333</ele><time>2026-04-18T15:34:01.785Z</time></trkpt><trkpt lat="41.9578033" lon="-8.0771917"><ele>753.6666666666666</ele><time>2026-04-18T15:34:02.788Z</time></trkpt><trkpt lat="41.9578983" lon="-8.0771933"><ele>755.0</ele><time>2026-04-18T15:34:03.787Z</time></trkpt><trkpt lat="41.958015" lon="-8.0772067"><ele>755.0</ele><time>2026-04-18T15:34:04.785Z</time></trkpt><trkpt lat="41.9581233" lon="-8.0772167"><ele>755.0</ele><time>2026-04-18T15:34:05.787Z</time></trkpt><trkpt lat="41.9582267" lon="-8.0772117"><ele>755.0</ele><time>2026-04-18T15:34:06.785Z</time></trkpt><trkpt lat="41.958305" lon="-8.0771867"><ele>755.0</ele><time>2026-04-18T15:34:07.786Z</time></trkpt><trkpt lat="41.9583767" lon="-8.0771433"><ele>755.0</ele><time>2026-04-18T15:34:08.787Z</time></trkpt><trkpt lat="41.95844" lon="-8.0770867"><ele>755.0</ele><time>2026-04-18T15:34:09.785Z</time></trkpt><trkpt lat="41.958485" lon="-8.07702"><ele>756.6666666666666</ele><time>2026-04-18T15:34:10.785Z</time></trkpt><trkpt lat="41.9585133" lon="-8.07693"><ele>758.3333333333333</ele><time>2026-04-18T15:34:11.787Z</time></trkpt><trkpt lat="41.9585283" lon="-8.0768267"><ele>760.0</ele><time>2026-04-18T15:34:12.787Z</time></trkpt><trkpt lat="41.9585433" lon="-8.07672"><ele>761.6666666666666</ele><time>2026-04-18T15:34:13.785Z</time></trkpt><trkpt lat="41.9585683" lon="-8.07662"><ele>763.3333333333334</ele><time>2026-04-18T15:34:14.785Z</time></trkpt><trkpt lat="41.9586" lon="-8.076535"><ele>765.0</ele><time>2026-04-18T15:34:15.787Z</time></trkpt><trkpt lat="41.9586883" lon="-8.0764183"><ele>765.0</ele><time>2026-04-18T15:34:17.786Z</time></trkpt><trkpt lat="41.9587483" lon="-8.0763867"><ele>765.0</ele><time>2026-04-18T15:34:18.787Z</time></trkpt><trkpt lat="41.95882" lon="-8.0763733"><ele>765.0</ele><time>2026-04-18T15:34:19.787Z</time></trkpt><trkpt lat="41.9589017" lon="-8.0763633"><ele>765.0</ele><time>2026-04-18T15:34:20.787Z</time></trkpt><trkpt lat="41.9589933" lon="-8.076345"><ele>765.0</ele><time>2026-04-18T15:34:21.787Z</time></trkpt><trkpt lat="41.9590917" lon="-8.0763333"><ele>765.0</ele><time>2026-04-18T15:34:22.784Z</time></trkpt><trkpt lat="41.9592033" lon="-8.07634"><ele>767.75</ele><time>2026-04-18T15:34:23.786Z</time></trkpt><trkpt lat="41.95932" lon="-8.076355"><ele>770.5</ele><time>2026-04-18T15:34:24.787Z</time></trkpt><trkpt lat="41.9594383" lon="-8.0763667"><ele>773.25</ele><time>2026-04-18T15:34:25.787Z</time></trkpt><trkpt lat="41.9595567" lon="-8.076375"><ele>776.0</ele><time>2026-04-18T15:34:26.787Z</time></trkpt><trkpt lat="41.95967" lon="-8.0763783"><ele>776.0</ele><time>2026-04-18T15:34:27.786Z</time></trkpt><trkpt lat="41.9597767" lon="-8.076375"><ele>776.0</ele><time>2026-04-18T15:34:28.787Z</time></trkpt><trkpt lat="41.9598767" lon="-8.0763767"><ele>776.0</ele><time>2026-04-18T15:34:29.786Z</time></trkpt><trkpt lat="41.95997" lon="-8.0763967"><ele>776.0</ele><time>2026-04-18T15:34:30.787Z</time></trkpt><trkpt lat="41.9600617" lon="-8.0764283"><ele>776.0</ele><time>2026-04-18T15:34:31.787Z</time></trkpt><trkpt lat="41.9601533" lon="-8.0764667"><ele>777.5999999999999</ele><time>2026-04-18T15:34:32.787Z</time></trkpt><trkpt lat="41.9602433" lon="-8.0765067"><ele>779.2</ele><time>2026-04-18T15:34:33.787Z</time></trkpt><trkpt lat="41.9603367" lon="-8.0765483"><ele>780.8</ele><time>2026-04-18T15:34:34.785Z</time></trkpt><trkpt lat="41.9604317" lon="-8.07658"><ele>782.4000000000001</ele><time>2026-04-18T15:34:35.785Z</time></trkpt><trkpt lat="41.9605233" lon="-8.0765883"><ele>784.0</ele><time>2026-04-18T15:34:36.786Z</time></trkpt><trkpt lat="41.9606167" lon="-8.0765717"><ele>784.0</ele><time>2026-04-18T15:34:37.787Z</time></trkpt><trkpt lat="41.9607183" lon="-8.0765483"><ele>784.0</ele><time>2026-04-18T15:34:38.786Z</time></trkpt><trkpt lat="41.9608233" lon="-8.07652"><ele>784.0</ele><time>2026-04-18T15:34:39.787Z</time></trkpt><trkpt lat="41.9609383" lon="-8.076495"><ele>784.0</ele><time>2026-04-18T15:34:40.786Z</time></trkpt><trkpt lat="41.9610633" lon="-8.076475"><ele>786.5</ele><time>2026-04-18T15:34:41.786Z</time></trkpt><trkpt lat="41.96119" lon="-8.07646"><ele>789.0</ele><time>2026-04-18T15:34:42.786Z</time></trkpt><trkpt lat="41.9613117" lon="-8.0764383"><ele>791.5</ele><time>2026-04-18T15:34:43.786Z</time></trkpt><trkpt lat="41.961425" lon="-8.0764083"><ele>794.0</ele><time>2026-04-18T15:34:44.788Z</time></trkpt><trkpt lat="41.9615317" lon="-8.0763733"><ele>794.0</ele><time>2026-04-18T15:34:45.787Z</time></trkpt><trkpt lat="41.9616267" lon="-8.0763433"><ele>794.0</ele><time>2026-04-18T15:34:46.786Z</time></trkpt><trkpt lat="41.96172" lon="-8.0763333"><ele>794.0</ele><time>2026-04-18T15:34:47.786Z</time></trkpt><trkpt lat="41.9618083" lon="-8.0763467"><ele>794.0</ele><time>2026-04-18T15:34:48.787Z</time></trkpt><trkpt lat="41.961895" lon="-8.076375"><ele>794.0</ele><time>2026-04-18T15:34:49.787Z</time></trkpt><trkpt lat="41.9619767" lon="-8.0764017"><ele>795.3333333333334</ele><time>2026-04-18T15:34:50.787Z</time></trkpt><trkpt lat="41.96206" lon="-8.0764167"><ele>796.6666666666667</ele><time>2026-04-18T15:34:51.786Z</time></trkpt><trkpt lat="41.9621417" lon="-8.07642"><ele>798.0</ele><time>2026-04-18T15:34:52.785Z</time></trkpt><trkpt lat="41.9622183" lon="-8.076415"><ele>799.3333333333333</ele><time>2026-04-18T15:34:53.786Z</time></trkpt><trkpt lat="41.9622983" lon="-8.0763967"><ele>800.6666666666666</ele><time>2026-04-18T15:34:54.787Z</time></trkpt><trkpt lat="41.962385" lon="-8.0763733"><ele>802.0</ele><time>2026-04-18T15:34:55.787Z</time></trkpt><trkpt lat="41.96247" lon="-8.0763483"><ele>802.6666666666666</ele><time>2026-04-18T15:34:56.787Z</time></trkpt><trkpt lat="41.9625533" lon="-8.07633"><ele>803.3333333333333</ele><time>2026-04-18T15:34:57.786Z</time></trkpt><trkpt lat="41.9626367" lon="-8.07632"><ele>804.0</ele><time>2026-04-18T15:34:58.786Z</time></trkpt><trkpt lat="41.96272" lon="-8.07631"><ele>804.6666666666667</ele><time>2026-04-18T15:34:59.787Z</time></trkpt><trkpt lat="41.9628117" lon="-8.076295"><ele>805.3333333333334</ele><time>2026-04-18T15:35:00.786Z</time></trkpt><trkpt lat="41.962905" lon="-8.076275"><ele>806.0</ele><time>2026-04-18T15:35:01.786Z</time></trkpt><trkpt lat="41.962995" lon="-8.0762467"><ele>806.0</ele><time>2026-04-18T15:35:02.786Z</time></trkpt><trkpt lat="41.9630867" lon="-8.0762167"><ele>806.0</ele><time>2026-04-18T15:35:03.787Z</time></trkpt><trkpt lat="41.9631767" lon="-8.076195"><ele>806.0</ele><time>2026-04-18T15:35:04.783Z</time></trkpt><trkpt lat="41.96327" lon="-8.07618"><ele>806.0</ele><time>2026-04-18T15:35:05.787Z</time></trkpt><trkpt lat="41.9633667" lon="-8.07617"><ele>806.0</ele><time>2026-04-18T15:35:06.787Z</time></trkpt><trkpt lat="41.9634667" lon="-8.0761683"><ele>807.5</ele><time>2026-04-18T15:35:07.785Z</time></trkpt><trkpt lat="41.963585" lon="-8.076175"><ele>809.0</ele><time>2026-04-18T15:35:08.788Z</time></trkpt><trkpt lat="41.963705" lon="-8.0761767"><ele>810.5</ele><time>2026-04-18T15:35:09.787Z</time></trkpt><trkpt lat="41.9638233" lon="-8.0761767"><ele>812.0</ele><time>2026-04-18T15:35:10.785Z</time></trkpt><trkpt lat="41.9639383" lon="-8.0761833"><ele>812.0</ele><time>2026-04-18T15:35:11.787Z</time></trkpt><trkpt lat="41.9640567" lon="-8.0762"><ele>812.0</ele><time>2026-04-18T15:35:12.787Z</time></trkpt><trkpt lat="41.964175" lon="-8.0762283"><ele>812.0</ele><time>2026-04-18T15:35:13.787Z</time></trkpt><trkpt lat="41.9642833" lon="-8.0762667"><ele>812.0</ele><time>2026-04-18T15:35:14.786Z</time></trkpt><trkpt lat="41.9643883" lon="-8.0763133"><ele>814.0</ele><time>2026-04-18T15:35:15.786Z</time></trkpt><trkpt lat="41.9644883" lon="-8.0763667"><ele>816.0</ele><time>2026-04-18T15:35:16.786Z</time></trkpt><trkpt lat="41.9645817" lon="-8.0764033"><ele>818.0</ele><time>2026-04-18T15:35:17.785Z</time></trkpt><trkpt lat="41.96468" lon="-8.0764283"><ele>820.0</ele><time>2026-04-18T15:35:18.787Z</time></trkpt><trkpt lat="41.96478" lon="-8.0764467"><ele>822.0</ele><time>2026-04-18T15:35:19.786Z</time></trkpt><trkpt lat="41.9648783" lon="-8.0764583"><ele>822.0</ele><time>2026-04-18T15:35:20.786Z</time></trkpt><trkpt lat="41.9649767" lon="-8.07647"><ele>822.0</ele><time>2026-04-18T15:35:21.785Z</time></trkpt><trkpt lat="41.9650733" lon="-8.0764817"><ele>822.0</ele><time>2026-04-18T15:35:22.784Z</time></trkpt><trkpt lat="41.9651717" lon="-8.0765"><ele>822.0</ele><time>2026-04-18T15:35:23.786Z</time></trkpt><trkpt lat="41.9652617" lon="-8.0765117"><ele>822.0</ele><time>2026-04-18T15:35:24.788Z</time></trkpt><trkpt lat="41.965345" lon="-8.0765117"><ele>822.1666666666666</ele><time>2026-04-18T15:35:25.785Z</time></trkpt><trkpt lat="41.9654167" lon="-8.076505"><ele>822.3333333333333</ele><time>2026-04-18T15:35:26.786Z</time></trkpt><trkpt lat="41.96549" lon="-8.0764867"><ele>822.5</ele><time>2026-04-18T15:35:28.784Z</time></trkpt><trkpt lat="41.9655583" lon="-8.0764817"><ele>822.6666666666666</ele><time>2026-04-18T15:35:44.788Z</time></trkpt><trkpt lat="41.9656367" lon="-8.0765433"><ele>822.8333333333333</ele><time>2026-04-18T15:35:47.786Z</time></trkpt><trkpt lat="41.9657" lon="-8.076605"><ele>823.0</ele><time>2026-04-18T15:35:49.785Z</time></trkpt><trkpt lat="41.9657583" lon="-8.0766617"><ele>822.3333333333333</ele><time>2026-04-18T15:35:51.785Z</time></trkpt><trkpt lat="41.9658417" lon="-8.0767333"><ele>821.6666666666666</ele><time>2026-04-18T15:35:53.783Z</time></trkpt><trkpt lat="41.9659383" lon="-8.0768083"><ele>821.0</ele><time>2026-04-18T15:35:55.784Z</time></trkpt><trkpt lat="41.9659933" lon="-8.0768583"><ele>820.3333333333333</ele><time>2026-04-18T15:35:57.784Z</time></trkpt><trkpt lat="41.9660483" lon="-8.0769183"><ele>819.6666666666666</ele><time>2026-04-18T15:36:42.787Z</time></trkpt><trkpt lat="41.966105" lon="-8.077025"><ele>819.0</ele><time>2026-04-18T15:36:44.787Z</time></trkpt><trkpt lat="41.966135" lon="-8.07711"><ele>819.0</ele><time>2026-04-18T15:36:45.787Z</time></trkpt><trkpt lat="41.966155" lon="-8.0771967"><ele>819.0</ele><time>2026-04-18T15:36:46.786Z</time></trkpt><trkpt lat="41.96617" lon="-8.07728"><ele>819.0</ele><time>2026-04-18T15:36:47.784Z</time></trkpt><trkpt lat="41.9661867" lon="-8.0773667"><ele>819.0</ele><time>2026-04-18T15:36:48.787Z</time></trkpt><trkpt lat="41.966245" lon="-8.077485"><ele>819.0</ele><time>2026-04-18T15:36:50.786Z</time></trkpt><trkpt lat="41.966345" lon="-8.0775467"><ele>819.0</ele><time>2026-04-18T15:36:52.785Z</time></trkpt><trkpt lat="41.9664117" lon="-8.077565"><ele>820.8333333333334</ele><time>2026-04-18T15:36:53.786Z</time></trkpt><trkpt lat="41.9664933" lon="-8.077585"><ele>822.6666666666667</ele><time>2026-04-18T15:36:54.785Z</time></trkpt><trkpt lat="41.966585" lon="-8.0776083"><ele>824.5</ele><time>2026-04-18T15:36:55.785Z</time></trkpt><trkpt lat="41.966665" lon="-8.0776333"><ele>826.3333333333334</ele><time>2026-04-18T15:36:56.786Z</time></trkpt><trkpt lat="41.966735" lon="-8.0776683"><ele>828.1666666666667</ele><time>2026-04-18T15:36:57.784Z</time></trkpt><trkpt lat="41.9667933" lon="-8.077715"><ele>830.0</ele><time>2026-04-18T15:36:58.784Z</time></trkpt><trkpt lat="41.9668533" lon="-8.0778167"><ele>830.4</ele><time>2026-04-18T15:37:00.787Z</time></trkpt><trkpt lat="41.9669067" lon="-8.0779233"><ele>830.8</ele><time>2026-04-18T15:37:03.785Z</time></trkpt><trkpt lat="41.966975" lon="-8.07799"><ele>831.2</ele><time>2026-04-18T15:37:05.784Z</time></trkpt><trkpt lat="41.9670533" lon="-8.078055"><ele>831.6</ele><time>2026-04-18T15:37:07.785Z</time></trkpt><trkpt lat="41.9671417" lon="-8.0781567"><ele>832.0</ele><time>2026-04-18T15:37:09.786Z</time></trkpt><trkpt lat="41.9671983" lon="-8.0782167"><ele>834.4000000000001</ele><time>2026-04-18T15:37:10.786Z</time></trkpt><trkpt lat="41.9672583" lon="-8.0782783"><ele>836.8000000000001</ele><time>2026-04-18T15:37:11.786Z</time></trkpt><trkpt lat="41.96733" lon="-8.0783417"><ele>839.2</ele><time>2026-04-18T15:37:12.789Z</time></trkpt><trkpt lat="41.9674067" lon="-8.078405"><ele>841.6</ele><time>2026-04-18T15:37:13.787Z</time></trkpt><trkpt lat="41.96749" lon="-8.0784733"><ele>844.0</ele><time>2026-04-18T15:37:14.785Z</time></trkpt><trkpt lat="41.9675817" lon="-8.0785633"><ele>844.0</ele><time>2026-04-18T15:37:15.784Z</time></trkpt><trkpt lat="41.96768" lon="-8.0786867"><ele>844.0</ele><time>2026-04-18T15:37:16.785Z</time></trkpt><trkpt lat="41.9677767" lon="-8.0788"><ele>844.0</ele><time>2026-04-18T15:37:17.786Z</time></trkpt><trkpt lat="41.9678683" lon="-8.0789083"><ele>844.0</ele><time>2026-04-18T15:37:18.785Z</time></trkpt><trkpt lat="41.9679517" lon="-8.07901"><ele>846.0</ele><time>2026-04-18T15:37:19.785Z</time></trkpt><trkpt lat="41.9680333" lon="-8.0791033"><ele>848.0</ele><time>2026-04-18T15:37:20.785Z</time></trkpt><trkpt lat="41.96811" lon="-8.0791983"><ele>850.0000000000001</ele><time>2026-04-18T15:37:21.786Z</time></trkpt><trkpt lat="41.9681733" lon="-8.07929"><ele>852.0</ele><time>2026-04-18T15:37:22.799Z</time></trkpt><trkpt lat="41.9682333" lon="-8.0793867"><ele>854.0</ele><time>2026-04-18T15:37:23.786Z</time></trkpt><trkpt lat="41.968285" lon="-8.07949"><ele>854.0</ele><time>2026-04-18T15:37:24.786Z</time></trkpt><trkpt lat="41.968325" lon="-8.079575"><ele>854.0000000000001</ele><time>2026-04-18T15:37:25.784Z</time></trkpt><trkpt lat="41.9684" lon="-8.0796817"><ele>854.0000000000001</ele><time>2026-04-18T15:37:27.787Z</time></trkpt><trkpt lat="41.96849" lon="-8.079735"><ele>854.0</ele><time>2026-04-18T15:37:29.787Z</time></trkpt><trkpt lat="41.9685683" lon="-8.079735"><ele>854.0</ele><time>2026-04-18T15:37:30.787Z</time></trkpt><trkpt lat="41.96866" lon="-8.0797367"><ele>855.1666666666667</ele><time>2026-04-18T15:37:31.784Z</time></trkpt><trkpt lat="41.9687517" lon="-8.07974"><ele>856.3333333333334</ele><time>2026-04-18T15:37:32.787Z</time></trkpt><trkpt lat="41.9688433" lon="-8.07974"><ele>857.5</ele><time>2026-04-18T15:37:33.786Z</time></trkpt><trkpt lat="41.96893" lon="-8.0797433"><ele>858.6666666666667</ele><time>2026-04-18T15:37:34.785Z</time></trkpt><trkpt lat="41.9690083" lon="-8.07976"><ele>859.8333333333334</ele><time>2026-04-18T15:37:35.786Z</time></trkpt><trkpt lat="41.9690783" lon="-8.0797833"><ele>861.0</ele><time>2026-04-18T15:37:36.787Z</time></trkpt><trkpt lat="41.9691517" lon="-8.079815"><ele>863.1666666666666</ele><time>2026-04-18T15:37:37.786Z</time></trkpt><trkpt lat="41.969225" lon="-8.079845"><ele>865.3333333333333</ele><time>2026-04-18T15:37:38.787Z</time></trkpt><trkpt lat="41.9693017" lon="-8.079885"><ele>867.5</ele><time>2026-04-18T15:37:39.786Z</time></trkpt><trkpt lat="41.9693783" lon="-8.07993"><ele>869.6666666666666</ele><time>2026-04-18T15:37:40.787Z</time></trkpt><trkpt lat="41.969455" lon="-8.0799767"><ele>871.8333333333333</ele><time>2026-04-18T15:37:41.787Z</time></trkpt><trkpt lat="41.9695283" lon="-8.0800217"><ele>874.0</ele><time>2026-04-18T15:37:42.787Z</time></trkpt><trkpt lat="41.9695833" lon="-8.080075"><ele>875.0</ele><time>2026-04-18T15:37:43.787Z</time></trkpt><trkpt lat="41.9696733" lon="-8.080205"><ele>876.0000000000001</ele><time>2026-04-18T15:37:45.788Z</time></trkpt><trkpt lat="41.9697283" lon="-8.0802683"><ele>877.0000000000001</ele><time>2026-04-18T15:37:46.786Z</time></trkpt><trkpt lat="41.9697783" lon="-8.0803417"><ele>878.0</ele><time>2026-04-18T15:37:47.786Z</time></trkpt><trkpt lat="41.969825" lon="-8.0804367"><ele>879.0</ele><time>2026-04-18T15:37:48.787Z</time></trkpt><trkpt lat="41.9698667" lon="-8.0805467"><ele>879.0</ele><time>2026-04-18T15:37:49.787Z</time></trkpt><trkpt lat="41.9699067" lon="-8.0806717"><ele>879.0</ele><time>2026-04-18T15:37:50.789Z</time></trkpt><trkpt lat="41.9699617" lon="-8.0808167"><ele>879.0</ele><time>2026-04-18T15:37:51.788Z</time></trkpt><trkpt lat="41.970025" lon="-8.08097"><ele>879.0</ele><time>2026-04-18T15:37:52.787Z</time></trkpt><trkpt lat="41.970085" lon="-8.08111"><ele>882.2</ele><time>2026-04-18T15:37:53.787Z</time></trkpt><trkpt lat="41.9701383" lon="-8.081235"><ele>885.4000000000001</ele><time>2026-04-18T15:37:54.787Z</time></trkpt><trkpt lat="41.9701883" lon="-8.0813467"><ele>888.6</ele><time>2026-04-18T15:37:55.787Z</time></trkpt><trkpt lat="41.9702417" lon="-8.08145"><ele>891.8</ele><time>2026-04-18T15:37:56.786Z</time></trkpt><trkpt lat="41.9703" lon="-8.0815533"><ele>895.0</ele><time>2026-04-18T15:37:57.787Z</time></trkpt><trkpt lat="41.97036" lon="-8.0816583"><ele>896.1666666666666</ele><time>2026-04-18T15:37:58.786Z</time></trkpt><trkpt lat="41.970425" lon="-8.081755"><ele>897.3333333333333</ele><time>2026-04-18T15:37:59.785Z</time></trkpt><trkpt lat="41.9704883" lon="-8.0818333"><ele>898.5</ele><time>2026-04-18T15:38:00.785Z</time></trkpt><trkpt lat="41.9705417" lon="-8.0818917"><ele>899.6666666666667</ele><time>2026-04-18T15:38:01.784Z</time></trkpt><trkpt lat="41.970615" lon="-8.081945"><ele>900.8333333333334</ele><time>2026-04-18T15:38:03.787Z</time></trkpt><trkpt lat="41.9707067" lon="-8.082025"><ele>902.0</ele><time>2026-04-18T15:38:05.786Z</time></trkpt><trkpt lat="41.97077" lon="-8.0820983"><ele>902.0</ele><time>2026-04-18T15:38:06.786Z</time></trkpt><trkpt lat="41.9708433" lon="-8.0821783"><ele>902.0</ele><time>2026-04-18T15:38:07.786Z</time></trkpt><trkpt lat="41.9709133" lon="-8.0822833"><ele>902.0</ele><time>2026-04-18T15:38:08.786Z</time></trkpt><trkpt lat="41.9709633" lon="-8.0823833"><ele>902.0</ele><time>2026-04-18T15:38:09.787Z</time></trkpt><trkpt lat="41.9710067" lon="-8.0824883"><ele>902.0</ele><time>2026-04-18T15:38:10.786Z</time></trkpt><trkpt lat="41.9710433" lon="-8.0825967"><ele>904.5000000000001</ele><time>2026-04-18T15:38:11.788Z</time></trkpt><trkpt lat="41.9710817" lon="-8.082685"><ele>907.0</ele><time>2026-04-18T15:38:12.787Z</time></trkpt><trkpt lat="41.9711283" lon="-8.0827583"><ele>909.5</ele><time>2026-04-18T15:38:13.786Z</time></trkpt><trkpt lat="41.971185" lon="-8.0828333"><ele>912.0</ele><time>2026-04-18T15:38:14.789Z</time></trkpt><trkpt lat="41.97125" lon="-8.0829117"><ele>914.5000000000001</ele><time>2026-04-18T15:38:15.787Z</time></trkpt><trkpt lat="41.9713133" lon="-8.082995"><ele>917.0</ele><time>2026-04-18T15:38:16.787Z</time></trkpt><trkpt lat="41.9713717" lon="-8.083085"><ele>917.0</ele><time>2026-04-18T15:38:17.787Z</time></trkpt><trkpt lat="41.9714283" lon="-8.083175"><ele>917.0</ele><time>2026-04-18T15:38:18.787Z</time></trkpt><trkpt lat="41.9714783" lon="-8.0832717"><ele>917.0</ele><time>2026-04-18T15:38:19.787Z</time></trkpt><trkpt lat="41.97152" lon="-8.0834067"><ele>917.0</ele><time>2026-04-18T15:38:20.787Z</time></trkpt><trkpt lat="41.971565" lon="-8.083545"><ele>917.0</ele><time>2026-04-18T15:38:21.787Z</time></trkpt><trkpt lat="41.971625" lon="-8.0836783"><ele>917.4000000000001</ele><time>2026-04-18T15:38:22.787Z</time></trkpt><trkpt lat="41.9716967" lon="-8.0838083"><ele>917.8000000000001</ele><time>2026-04-18T15:38:23.787Z</time></trkpt><trkpt lat="41.9717667" lon="-8.083915"><ele>918.2</ele><time>2026-04-18T15:38:24.787Z</time></trkpt><trkpt lat="41.9718417" lon="-8.0840067"><ele>918.6</ele><time>2026-04-18T15:38:25.786Z</time></trkpt><trkpt lat="41.9719383" lon="-8.0840883"><ele>919.0</ele><time>2026-04-18T15:38:26.788Z</time></trkpt><trkpt lat="41.972055" lon="-8.0841567"><ele>919.0</ele><time>2026-04-18T15:38:27.787Z</time></trkpt><trkpt lat="41.9721683" lon="-8.084205"><ele>919.0000000000001</ele><time>2026-04-18T15:38:28.787Z</time></trkpt><trkpt lat="41.97227" lon="-8.08424"><ele>919.0000000000001</ele><time>2026-04-18T15:38:29.788Z</time></trkpt><trkpt lat="41.9723733" lon="-8.0842833"><ele>919.0</ele><time>2026-04-18T15:38:30.785Z</time></trkpt><trkpt lat="41.9724817" lon="-8.0843283"><ele>919.0</ele><time>2026-04-18T15:38:31.787Z</time></trkpt><trkpt lat="41.972595" lon="-8.0843617"><ele>919.75</ele><time>2026-04-18T15:38:32.786Z</time></trkpt><trkpt lat="41.9727117" lon="-8.084395"><ele>920.5</ele><time>2026-04-18T15:38:33.785Z</time></trkpt><trkpt lat="41.97283" lon="-8.0844267"><ele>921.25</ele><time>2026-04-18T15:38:34.786Z</time></trkpt><trkpt lat="41.9729467" lon="-8.0844633"><ele>922.0</ele><time>2026-04-18T15:38:35.787Z</time></trkpt><trkpt lat="41.9730617" lon="-8.0845017"><ele>922.0</ele><time>2026-04-18T15:38:36.786Z</time></trkpt><trkpt lat="41.9731733" lon="-8.0845367"><ele>922.0</ele><time>2026-04-18T15:38:37.785Z</time></trkpt><trkpt lat="41.973285" lon="-8.0845633"><ele>922.0</ele><time>2026-04-18T15:38:38.787Z</time></trkpt><trkpt lat="41.9733983" lon="-8.0845833"><ele>922.0</ele><time>2026-04-18T15:38:39.787Z</time></trkpt><trkpt lat="41.9735167" lon="-8.084605"><ele>922.75</ele><time>2026-04-18T15:38:40.788Z</time></trkpt><trkpt lat="41.9736383" lon="-8.08463"><ele>923.5</ele><time>2026-04-18T15:38:41.787Z</time></trkpt><trkpt lat="41.9737617" lon="-8.0846567"><ele>924.25</ele><time>2026-04-18T15:38:42.788Z</time></trkpt><trkpt lat="41.97388" lon="-8.08468"><ele>925.0</ele><time>2026-04-18T15:38:43.787Z</time></trkpt><trkpt lat="41.9739917" lon="-8.0847017"><ele>925.0</ele><time>2026-04-18T15:38:44.787Z</time></trkpt><trkpt lat="41.9740883" lon="-8.0847167"><ele>925.0</ele><time>2026-04-18T15:38:45.786Z</time></trkpt><trkpt lat="41.9741817" lon="-8.0847317"><ele>925.0</ele><time>2026-04-18T15:38:46.787Z</time></trkpt><trkpt lat="41.9742717" lon="-8.084755"><ele>925.0</ele><time>2026-04-18T15:38:47.786Z</time></trkpt><trkpt lat="41.97437" lon="-8.0847917"><ele>925.0</ele><time>2026-04-18T15:38:48.786Z</time></trkpt><trkpt lat="41.9744617" lon="-8.0848367"><ele>925.8333333333333</ele><time>2026-04-18T15:38:49.787Z</time></trkpt><trkpt lat="41.9745367" lon="-8.0848983"><ele>926.6666666666666</ele><time>2026-04-18T15:38:50.787Z</time></trkpt><trkpt lat="41.974605" lon="-8.0849717"><ele>927.5</ele><time>2026-04-18T15:38:51.787Z</time></trkpt><trkpt lat="41.9746717" lon="-8.0850467"><ele>928.3333333333333</ele><time>2026-04-18T15:38:52.786Z</time></trkpt><trkpt lat="41.97474" lon="-8.0851183"><ele>929.1666666666666</ele><time>2026-04-18T15:38:53.786Z</time></trkpt><trkpt lat="41.974805" lon="-8.0851817"><ele>930.0</ele><time>2026-04-18T15:38:54.788Z</time></trkpt><trkpt lat="41.97487" lon="-8.08523"><ele>929.3333333333334</ele><time>2026-04-18T15:38:55.787Z</time></trkpt><trkpt lat="41.97494" lon="-8.08525"><ele>928.6666666666667</ele><time>2026-04-18T15:38:56.787Z</time></trkpt><trkpt lat="41.9750167" lon="-8.0852667"><ele>928.0</ele><time>2026-04-18T15:38:57.786Z</time></trkpt><trkpt lat="41.975095" lon="-8.0852867"><ele>927.3333333333334</ele><time>2026-04-18T15:38:58.786Z</time></trkpt><trkpt lat="41.9751717" lon="-8.085315"><ele>926.6666666666667</ele><time>2026-04-18T15:38:59.785Z</time></trkpt><trkpt lat="41.9752433" lon="-8.0853617"><ele>926.0</ele><time>2026-04-18T15:39:00.786Z</time></trkpt><trkpt lat="41.9752967" lon="-8.085425"><ele>926.0000000000001</ele><time>2026-04-18T15:39:01.786Z</time></trkpt><trkpt lat="41.9753467" lon="-8.08551"><ele>926.0</ele><time>2026-04-18T15:39:02.785Z</time></trkpt><trkpt lat="41.97539" lon="-8.085605"><ele>926.0</ele><time>2026-04-18T15:39:03.786Z</time></trkpt><trkpt lat="41.9754083" lon="-8.085715"><ele>926.0</ele><time>2026-04-18T15:39:04.785Z</time></trkpt><trkpt lat="41.9754183" lon="-8.08582"><ele>926.0000000000001</ele><time>2026-04-18T15:39:05.787Z</time></trkpt><trkpt lat="41.9754217" lon="-8.08593"><ele>926.0</ele><time>2026-04-18T15:39:06.787Z</time></trkpt><trkpt lat="41.975425" lon="-8.0860383"><ele>925.8333333333334</ele><time>2026-04-18T15:39:07.785Z</time></trkpt><trkpt lat="41.9754283" lon="-8.08615"><ele>925.6666666666667</ele><time>2026-04-18T15:39:08.789Z</time></trkpt><trkpt lat="41.97543" lon="-8.086265"><ele>925.5</ele><time>2026-04-18T15:39:09.787Z</time></trkpt><trkpt lat="41.9754283" lon="-8.0863817"><ele>925.3333333333333</ele><time>2026-04-18T15:39:10.787Z</time></trkpt><trkpt lat="41.97543" lon="-8.0864917"><ele>925.1666666666666</ele><time>2026-04-18T15:39:11.787Z</time></trkpt><trkpt lat="41.9754383" lon="-8.0866017"><ele>925.0</ele><time>2026-04-18T15:39:12.787Z</time></trkpt><trkpt lat="41.975455" lon="-8.0867083"><ele>926.2</ele><time>2026-04-18T15:39:13.787Z</time></trkpt><trkpt lat="41.975475" lon="-8.0868183"><ele>927.4</ele><time>2026-04-18T15:39:14.788Z</time></trkpt><trkpt lat="41.9754883" lon="-8.0869367"><ele>928.5999999999999</ele><time>2026-04-18T15:39:15.788Z</time></trkpt><trkpt lat="41.9754883" lon="-8.087065"><ele>929.8</ele><time>2026-04-18T15:39:16.787Z</time></trkpt><trkpt lat="41.9754867" lon="-8.0871933"><ele>931.0</ele><time>2026-04-18T15:39:17.787Z</time></trkpt><trkpt lat="41.9754983" lon="-8.087335"><ele>931.1999999999999</ele><time>2026-04-18T15:39:18.786Z</time></trkpt><trkpt lat="41.9755233" lon="-8.0874833"><ele>931.3999999999999</ele><time>2026-04-18T15:39:19.786Z</time></trkpt><trkpt lat="41.9755583" lon="-8.08762"><ele>931.6</ele><time>2026-04-18T15:39:20.784Z</time></trkpt><trkpt lat="41.975605" lon="-8.08774"><ele>931.8</ele><time>2026-04-18T15:39:21.785Z</time></trkpt><trkpt lat="41.97566" lon="-8.0878467"><ele>932.0</ele><time>2026-04-18T15:39:22.786Z</time></trkpt><trkpt lat="41.9757217" lon="-8.0879483"><ele>932.0</ele><time>2026-04-18T15:39:23.787Z</time></trkpt><trkpt lat="41.9757817" lon="-8.08805"><ele>932.0</ele><time>2026-04-18T15:39:24.788Z</time></trkpt><trkpt lat="41.97584" lon="-8.0881533"><ele>932.0</ele><time>2026-04-18T15:39:25.786Z</time></trkpt><trkpt lat="41.975895" lon="-8.0882517"><ele>932.0</ele><time>2026-04-18T15:39:26.787Z</time></trkpt><trkpt lat="41.9759483" lon="-8.0883583"><ele>932.0</ele><time>2026-04-18T15:39:27.786Z</time></trkpt><trkpt lat="41.9760033" lon="-8.0884767"><ele>935.4000000000001</ele><time>2026-04-18T15:39:28.784Z</time></trkpt><trkpt lat="41.9760683" lon="-8.0886017"><ele>938.8000000000001</ele><time>2026-04-18T15:39:29.787Z</time></trkpt><trkpt lat="41.9761383" lon="-8.0887167"><ele>942.2</ele><time>2026-04-18T15:39:30.787Z</time></trkpt><trkpt lat="41.9762117" lon="-8.0888067"><ele>945.6</ele><time>2026-04-18T15:39:31.787Z</time></trkpt><trkpt lat="41.9762933" lon="-8.0888783"><ele>949.0</ele><time>2026-04-18T15:39:32.786Z</time></trkpt><trkpt lat="41.97638" lon="-8.0889383"><ele>949.0</ele><time>2026-04-18T15:39:33.784Z</time></trkpt><trkpt lat="41.97647" lon="-8.0890083"><ele>949.0</ele><time>2026-04-18T15:39:34.788Z</time></trkpt><trkpt lat="41.9765733" lon="-8.08909"><ele>949.0</ele><time>2026-04-18T15:39:35.787Z</time></trkpt><trkpt lat="41.9766833" lon="-8.089175"><ele>949.0</ele><time>2026-04-18T15:39:36.787Z</time></trkpt><trkpt lat="41.976795" lon="-8.0892467"><ele>951.0</ele><time>2026-04-18T15:39:37.785Z</time></trkpt><trkpt lat="41.9769067" lon="-8.089295"><ele>953.0000000000001</ele><time>2026-04-18T15:39:38.788Z</time></trkpt><trkpt lat="41.977015" lon="-8.0893267"><ele>955.0000000000001</ele><time>2026-04-18T15:39:39.787Z</time></trkpt><trkpt lat="41.97712" lon="-8.0893467"><ele>957.0</ele><time>2026-04-18T15:39:40.785Z</time></trkpt><trkpt lat="41.9772267" lon="-8.0893583"><ele>959.0</ele><time>2026-04-18T15:39:41.788Z</time></trkpt><trkpt lat="41.9773317" lon="-8.0893667"><ele>959.0</ele><time>2026-04-18T15:39:42.787Z</time></trkpt><trkpt lat="41.9774317" lon="-8.0893733"><ele>959.0000000000001</ele><time>2026-04-18T15:39:43.787Z</time></trkpt><trkpt lat="41.9775283" lon="-8.0893667"><ele>959.0000000000001</ele><time>2026-04-18T15:39:44.789Z</time></trkpt><trkpt lat="41.9776267" lon="-8.0893567"><ele>959.0</ele><time>2026-04-18T15:39:45.787Z</time></trkpt><trkpt lat="41.9777317" lon="-8.0893367"><ele>959.0</ele><time>2026-04-18T15:39:46.788Z</time></trkpt><trkpt lat="41.977845" lon="-8.0893067"><ele>962.5</ele><time>2026-04-18T15:39:47.787Z</time></trkpt><trkpt lat="41.9779567" lon="-8.0892733"><ele>966.0</ele><time>2026-04-18T15:39:48.784Z</time></trkpt><trkpt lat="41.9780667" lon="-8.0892517"><ele>969.5</ele><time>2026-04-18T15:39:49.787Z</time></trkpt><trkpt lat="41.97818" lon="-8.08924"><ele>973.0</ele><time>2026-04-18T15:39:50.787Z</time></trkpt><trkpt lat="41.978305" lon="-8.0892333"><ele>976.0</ele><time>2026-04-18T15:39:51.785Z</time></trkpt><trkpt lat="41.9784217" lon="-8.0892283"><ele>979.0</ele><time>2026-04-18T15:39:52.786Z</time></trkpt><trkpt lat="41.9785217" lon="-8.0892183"><ele>982.0</ele><time>2026-04-18T15:39:53.787Z</time></trkpt><trkpt lat="41.978605" lon="-8.089205"><ele>985.0</ele><time>2026-04-18T15:39:54.787Z</time></trkpt><trkpt lat="41.97869" lon="-8.089185"><ele>988.0</ele><time>2026-04-18T15:39:55.786Z</time></trkpt><trkpt lat="41.9787767" lon="-8.0891633"><ele>987.9999999999999</ele><time>2026-04-18T15:39:56.785Z</time></trkpt><trkpt lat="41.9788633" lon="-8.0891417"><ele>988.0</ele><time>2026-04-18T15:39:57.785Z</time></trkpt><trkpt lat="41.97895" lon="-8.0891233"><ele>988.0</ele><time>2026-04-18T15:39:58.786Z</time></trkpt><trkpt lat="41.9790383" lon="-8.0891067"><ele>988.0</ele><time>2026-04-18T15:39:59.787Z</time></trkpt><trkpt lat="41.979125" lon="-8.0890883"><ele>987.9999999999999</ele><time>2026-04-18T15:40:00.787Z</time></trkpt><trkpt lat="41.9792083" lon="-8.0890733"><ele>988.0</ele><time>2026-04-18T15:40:01.785Z</time></trkpt><trkpt lat="41.9792883" lon="-8.0890567"><ele>990.2</ele><time>2026-04-18T15:40:02.789Z</time></trkpt><trkpt lat="41.9793767" lon="-8.0890417"><ele>992.4</ele><time>2026-04-18T15:40:03.787Z</time></trkpt><trkpt lat="41.97948" lon="-8.08902"><ele>994.6000000000001</ele><time>2026-04-18T15:40:04.787Z</time></trkpt><trkpt lat="41.9795767" lon="-8.0889983"><ele>996.8000000000001</ele><time>2026-04-18T15:40:05.787Z</time></trkpt><trkpt lat="41.9796683" lon="-8.0889833"><ele>999.0</ele><time>2026-04-18T15:40:06.787Z</time></trkpt><trkpt lat="41.979745" lon="-8.0889783"><ele>999.0</ele><time>2026-04-18T15:40:07.786Z</time></trkpt><trkpt lat="41.9798533" lon="-8.0890183"><ele>999.0000000000001</ele><time>2026-04-18T15:40:09.787Z</time></trkpt><trkpt lat="41.9799417" lon="-8.0891617"><ele>999.0000000000001</ele><time>2026-04-18T15:40:11.788Z</time></trkpt><trkpt lat="41.9799667" lon="-8.0892633"><ele>999.0</ele><time>2026-04-18T15:40:12.787Z</time></trkpt><trkpt lat="41.9799867" lon="-8.0893583"><ele>999.0</ele><time>2026-04-18T15:40:13.788Z</time></trkpt><trkpt lat="41.98002" lon="-8.0895083"><ele>999.3333333333334</ele><time>2026-04-18T15:40:15.787Z</time></trkpt><trkpt lat="41.9800967" lon="-8.0896083"><ele>999.6666666666667</ele><time>2026-04-18T15:40:17.787Z</time></trkpt><trkpt lat="41.9801683" lon="-8.0896283"><ele>1000.0</ele><time>2026-04-18T15:40:18.787Z</time></trkpt><trkpt lat="41.9802417" lon="-8.0896517"><ele>1000.3333333333334</ele><time>2026-04-18T15:40:19.786Z</time></trkpt><trkpt lat="41.98032" lon="-8.0896867"><ele>1000.6666666666667</ele><time>2026-04-18T15:40:20.787Z</time></trkpt><trkpt lat="41.9803917" lon="-8.0897417"><ele>1001.0</ele><time>2026-04-18T15:40:21.786Z</time></trkpt><trkpt lat="41.9804617" lon="-8.0898367"><ele>1002.25</ele><time>2026-04-18T15:40:22.786Z</time></trkpt><trkpt lat="41.98054" lon="-8.089995"><ele>1003.5</ele><time>2026-04-18T15:40:23.788Z</time></trkpt><trkpt lat="41.9806217" lon="-8.0901633"><ele>1004.75</ele><time>2026-04-18T15:40:24.786Z</time></trkpt><trkpt lat="41.980705" lon="-8.0903267"><ele>1006.0</ele><time>2026-04-18T15:40:25.787Z</time></trkpt><trkpt lat="41.9807867" lon="-8.09047"><ele>1007.25</ele><time>2026-04-18T15:40:26.787Z</time></trkpt><trkpt lat="41.9808667" lon="-8.0905933"><ele>1008.5</ele><time>2026-04-18T15:40:27.785Z</time></trkpt><trkpt lat="41.9809417" lon="-8.0907117"><ele>1009.75</ele><time>2026-04-18T15:40:28.785Z</time></trkpt><trkpt lat="41.9810033" lon="-8.090835"><ele>1011.0</ele><time>2026-04-18T15:40:29.787Z</time></trkpt><trkpt lat="41.981065" lon="-8.0909733"><ele>1011.8</ele><time>2026-04-18T15:40:30.787Z</time></trkpt><trkpt lat="41.981125" lon="-8.0911167"><ele>1012.5999999999999</ele><time>2026-04-18T15:40:31.788Z</time></trkpt><trkpt lat="41.9811867" lon="-8.09124"><ele>1013.4</ele><time>2026-04-18T15:40:32.788Z</time></trkpt><trkpt lat="41.98125" lon="-8.0913567"><ele>1014.2</ele><time>2026-04-18T15:40:33.788Z</time></trkpt><trkpt lat="41.9813117" lon="-8.091465"><ele>1015.0</ele><time>2026-04-18T15:40:34.785Z</time></trkpt><trkpt lat="41.981375" lon="-8.091575"><ele>1014.5</ele><time>2026-04-18T15:40:35.787Z</time></trkpt><trkpt lat="41.9814433" lon="-8.091695"><ele>1014.0</ele><time>2026-04-18T15:40:36.788Z</time></trkpt><trkpt lat="41.981515" lon="-8.0918117"><ele>1013.5</ele><time>2026-04-18T15:40:37.786Z</time></trkpt><trkpt lat="41.9815933" lon="-8.0919233"><ele>1013.0</ele><time>2026-04-18T15:40:38.789Z</time></trkpt><trkpt lat="41.9816767" lon="-8.0920267"><ele>1013.5999999999999</ele><time>2026-04-18T15:40:39.787Z</time></trkpt><trkpt lat="41.9817633" lon="-8.092125"><ele>1014.1999999999999</ele><time>2026-04-18T15:40:40.785Z</time></trkpt><trkpt lat="41.9818517" lon="-8.0922167"><ele>1014.8</ele><time>2026-04-18T15:40:41.787Z</time></trkpt><trkpt lat="41.9819383" lon="-8.0923083"><ele>1015.4</ele><time>2026-04-18T15:40:42.788Z</time></trkpt><trkpt lat="41.9820267" lon="-8.0923933"><ele>1016.0</ele><time>2026-04-18T15:40:43.787Z</time></trkpt><trkpt lat="41.98211" lon="-8.0924667"><ele>1016.0000000000001</ele><time>2026-04-18T15:40:44.789Z</time></trkpt><trkpt lat="41.982185" lon="-8.0925267"><ele>1016.0</ele><time>2026-04-18T15:40:45.787Z</time></trkpt><trkpt lat="41.98225" lon="-8.09257"><ele>1016.0</ele><time>2026-04-18T15:40:46.787Z</time></trkpt><trkpt lat="41.982315" lon="-8.09261"><ele>1016.0</ele><time>2026-04-18T15:40:47.786Z</time></trkpt><trkpt lat="41.9823817" lon="-8.0926467"><ele>1016.0000000000001</ele><time>2026-04-18T15:40:48.786Z</time></trkpt><trkpt lat="41.9824567" lon="-8.0926967"><ele>1016.0</ele><time>2026-04-18T15:40:49.785Z</time></trkpt><trkpt lat="41.9825367" lon="-8.0927467"><ele>1017.8</ele><time>2026-04-18T15:40:50.787Z</time></trkpt><trkpt lat="41.98262" lon="-8.0927867"><ele>1019.5999999999999</ele><time>2026-04-18T15:40:51.786Z</time></trkpt><trkpt lat="41.9827083" lon="-8.0928233"><ele>1021.4</ele><time>2026-04-18T15:40:52.785Z</time></trkpt><trkpt lat="41.98281" lon="-8.0928617"><ele>1023.2</ele><time>2026-04-18T15:40:53.786Z</time></trkpt><trkpt lat="41.9829167" lon="-8.0929083"><ele>1025.0</ele><time>2026-04-18T15:40:54.785Z</time></trkpt><trkpt lat="41.9830233" lon="-8.0929567"><ele>1025.0</ele><time>2026-04-18T15:40:55.786Z</time></trkpt><trkpt lat="41.9831317" lon="-8.0930083"><ele>1025.0</ele><time>2026-04-18T15:40:56.787Z</time></trkpt><trkpt lat="41.98324" lon="-8.09306"><ele>1025.0</ele><time>2026-04-18T15:40:57.787Z</time></trkpt><trkpt lat="41.9833617" lon="-8.0931167"><ele>1025.0</ele><time>2026-04-18T15:40:58.785Z</time></trkpt><trkpt lat="41.9835" lon="-8.093185"><ele>1026.75</ele><time>2026-04-18T15:40:59.788Z</time></trkpt><trkpt lat="41.9836367" lon="-8.093255"><ele>1028.5</ele><time>2026-04-18T15:41:00.786Z</time></trkpt><trkpt lat="41.9837517" lon="-8.0933217"><ele>1030.25</ele><time>2026-04-18T15:41:01.786Z</time></trkpt><trkpt lat="41.9838533" lon="-8.0933817"><ele>1032.0</ele><time>2026-04-18T15:41:02.787Z</time></trkpt><trkpt lat="41.983945" lon="-8.0934267"><ele>1032.0</ele><time>2026-04-18T15:41:03.785Z</time></trkpt><trkpt lat="41.9840333" lon="-8.093455"><ele>1032.0</ele><time>2026-04-18T15:41:04.787Z</time></trkpt><trkpt lat="41.984115" lon="-8.093465"><ele>1032.0</ele><time>2026-04-18T15:41:05.785Z</time></trkpt><trkpt lat="41.9841917" lon="-8.0934533"><ele>1032.0</ele><time>2026-04-18T15:41:06.789Z</time></trkpt><trkpt lat="41.9842733" lon="-8.0934083"><ele>1032.0</ele><time>2026-04-18T15:41:07.786Z</time></trkpt><trkpt lat="41.98435" lon="-8.0933417"><ele>1032.0</ele><time>2026-04-18T15:41:08.788Z</time></trkpt><trkpt lat="41.984425" lon="-8.093265"><ele>1032.8333333333333</ele><time>2026-04-18T15:41:09.786Z</time></trkpt><trkpt lat="41.9844967" lon="-8.0932"><ele>1033.6666666666667</ele><time>2026-04-18T15:41:10.787Z</time></trkpt><trkpt lat="41.9845633" lon="-8.093155"><ele>1034.5</ele><time>2026-04-18T15:41:11.788Z</time></trkpt><trkpt lat="41.9846733" lon="-8.09312"><ele>1035.3333333333335</ele><time>2026-04-18T15:41:13.788Z</time></trkpt><trkpt lat="41.9847367" lon="-8.0930783"><ele>1036.1666666666667</ele><time>2026-04-18T15:41:15.787Z</time></trkpt><trkpt lat="41.9847167" lon="-8.0929883"><ele>1037.0</ele><time>2026-04-18T15:41:18.786Z</time></trkpt><trkpt lat="41.9846233" lon="-8.0928933"><ele>1037.0</ele><time>2026-04-18T15:41:20.785Z</time></trkpt><trkpt lat="41.9845683" lon="-8.0928033"><ele>1037.0</ele><time>2026-04-18T15:41:21.785Z</time></trkpt><trkpt lat="41.98452" lon="-8.0927017"><ele>1037.0</ele><time>2026-04-18T15:41:22.785Z</time></trkpt><trkpt lat="41.98449" lon="-8.092595"><ele>1037.0</ele><time>2026-04-18T15:41:23.787Z</time></trkpt><trkpt lat="41.9844783" lon="-8.09249"><ele>1037.0</ele><time>2026-04-18T15:41:24.789Z</time></trkpt><trkpt lat="41.9844817" lon="-8.092375"><ele>1037.0</ele><time>2026-04-18T15:41:25.788Z</time></trkpt><trkpt lat="41.9844833" lon="-8.0922633"><ele>1038.142857142857</ele><time>2026-04-18T15:41:26.788Z</time></trkpt><trkpt lat="41.9844817" lon="-8.0921517"><ele>1039.2857142857142</ele><time>2026-04-18T15:41:27.788Z</time></trkpt><trkpt lat="41.9844783" lon="-8.0920467"><ele>1040.4285714285713</ele><time>2026-04-18T15:41:28.788Z</time></trkpt><trkpt lat="41.9844733" lon="-8.09195"><ele>1041.5714285714284</ele><time>2026-04-18T15:41:29.785Z</time></trkpt><trkpt lat="41.98447" lon="-8.0918567"><ele>1042.7142857142856</ele><time>2026-04-18T15:41:30.786Z</time></trkpt><trkpt lat="41.9844617" lon="-8.09177"><ele>1043.857142857143</ele><time>2026-04-18T15:41:31.786Z</time></trkpt><trkpt lat="41.9844533" lon="-8.0916833"><ele>1045.0</ele><time>2026-04-18T15:41:32.789Z</time></trkpt><trkpt lat="41.9844367" lon="-8.0915867"><ele>1046.6666666666665</ele><time>2026-04-18T15:41:33.787Z</time></trkpt><trkpt lat="41.9844133" lon="-8.0914683"><ele>1048.3333333333333</ele><time>2026-04-18T15:41:34.788Z</time></trkpt><trkpt lat="41.9843933" lon="-8.0913517"><ele>1050.0</ele><time>2026-04-18T15:41:35.787Z</time></trkpt><trkpt lat="41.98439" lon="-8.09125"><ele>1051.6666666666667</ele><time>2026-04-18T15:41:36.787Z</time></trkpt><trkpt lat="41.98441" lon="-8.09115"><ele>1053.3333333333335</ele><time>2026-04-18T15:41:37.786Z</time></trkpt><trkpt lat="41.9844383" lon="-8.091045"><ele>1055.0</ele><time>2026-04-18T15:41:38.787Z</time></trkpt><trkpt lat="41.98447" lon="-8.0909217"><ele>1055.0</ele><time>2026-04-18T15:41:39.786Z</time></trkpt><trkpt lat="41.984505" lon="-8.0907883"><ele>1055.0</ele><time>2026-04-18T15:41:40.786Z</time></trkpt><trkpt lat="41.9845383" lon="-8.090675"><ele>1055.0</ele><time>2026-04-18T15:41:41.787Z</time></trkpt><trkpt lat="41.9845733" lon="-8.0905833"><ele>1055.0</ele><time>2026-04-18T15:41:42.787Z</time></trkpt><trkpt lat="41.9846133" lon="-8.0905067"><ele>1055.0</ele><time>2026-04-18T15:41:43.786Z</time></trkpt><trkpt lat="41.9846883" lon="-8.09042"><ele>1055.0</ele><time>2026-04-18T15:41:45.788Z</time></trkpt><trkpt lat="41.9847633" lon="-8.0903117"><ele>1056.5</ele><time>2026-04-18T15:41:47.787Z</time></trkpt><trkpt lat="41.98483" lon="-8.0901633"><ele>1058.0</ele><time>2026-04-18T15:41:49.785Z</time></trkpt><trkpt lat="41.984865" lon="-8.0900867"><ele>1059.5</ele><time>2026-04-18T15:41:50.786Z</time></trkpt><trkpt lat="41.9849083" lon="-8.0900183"><ele>1061.0</ele><time>2026-04-18T15:41:51.784Z</time></trkpt><trkpt lat="41.98497" lon="-8.089955"><ele>1062.5</ele><time>2026-04-18T15:41:52.785Z</time></trkpt><trkpt lat="41.9850517" lon="-8.0898917"><ele>1064.0</ele><time>2026-04-18T15:41:53.785Z</time></trkpt><trkpt lat="41.985165" lon="-8.0898267"><ele>1066.0</ele><time>2026-04-18T15:41:54.787Z</time></trkpt><trkpt lat="41.9852783" lon="-8.08975"><ele>1068.0</ele><time>2026-04-18T15:41:55.786Z</time></trkpt><trkpt lat="41.9853833" lon="-8.08966"><ele>1070.0</ele><time>2026-04-18T15:41:56.787Z</time></trkpt><trkpt lat="41.98548" lon="-8.0895583"><ele>1072.0</ele><time>2026-04-18T15:41:57.786Z</time></trkpt><trkpt lat="41.985565" lon="-8.089455"><ele>1072.0</ele><time>2026-04-18T15:41:58.787Z</time></trkpt><trkpt lat="41.98565" lon="-8.0893517"><ele>1072.0</ele><time>2026-04-18T15:41:59.785Z</time></trkpt><trkpt lat="41.9857383" lon="-8.0892467"><ele>1072.0</ele><time>2026-04-18T15:42:00.785Z</time></trkpt><trkpt lat="41.9858267" lon="-8.0891467"><ele>1072.0</ele><time>2026-04-18T15:42:01.787Z</time></trkpt><trkpt lat="41.9859133" lon="-8.0890583"><ele>1074.2</ele><time>2026-04-18T15:42:02.788Z</time></trkpt><trkpt lat="41.9860033" lon="-8.08898"><ele>1076.4</ele><time>2026-04-18T15:42:03.784Z</time></trkpt><trkpt lat="41.986095" lon="-8.0889033"><ele>1078.6</ele><time>2026-04-18T15:42:04.786Z</time></trkpt><trkpt lat="41.9861867" lon="-8.0888367"><ele>1080.8</ele><time>2026-04-18T15:42:05.785Z</time></trkpt><trkpt lat="41.9862733" lon="-8.0887833"><ele>1083.0</ele><time>2026-04-18T15:42:06.787Z</time></trkpt><trkpt lat="41.9863617" lon="-8.08874"><ele>1083.0</ele><time>2026-04-18T15:42:07.787Z</time></trkpt><trkpt lat="41.9864533" lon="-8.0887"><ele>1083.0</ele><time>2026-04-18T15:42:08.787Z</time></trkpt><trkpt lat="41.98655" lon="-8.088665"><ele>1083.0</ele><time>2026-04-18T15:42:09.786Z</time></trkpt><trkpt lat="41.9866617" lon="-8.0886317"><ele>1083.0</ele><time>2026-04-18T15:42:10.786Z</time></trkpt><trkpt lat="41.9867833" lon="-8.0885983"><ele>1083.0</ele><time>2026-04-18T15:42:11.787Z</time></trkpt><trkpt lat="41.9868933" lon="-8.0885533"><ele>1083.2</ele><time>2026-04-18T15:42:12.787Z</time></trkpt><trkpt lat="41.986995" lon="-8.0884967"><ele>1083.4</ele><time>2026-04-18T15:42:13.788Z</time></trkpt><trkpt lat="41.987095" lon="-8.08843"><ele>1083.6000000000001</ele><time>2026-04-18T15:42:14.787Z</time></trkpt><trkpt lat="41.98719" lon="-8.088355"><ele>1083.8</ele><time>2026-04-18T15:42:15.787Z</time></trkpt><trkpt lat="41.987285" lon="-8.0882617"><ele>1084.0</ele><time>2026-04-18T15:42:16.787Z</time></trkpt><trkpt lat="41.9873817" lon="-8.0881567"><ele>1087.0</ele><time>2026-04-18T15:42:17.787Z</time></trkpt><trkpt lat="41.9874817" lon="-8.08805"><ele>1090.0</ele><time>2026-04-18T15:42:18.787Z</time></trkpt><trkpt lat="41.98759" lon="-8.08796"><ele>1093.0</ele><time>2026-04-18T15:42:19.788Z</time></trkpt><trkpt lat="41.9877017" lon="-8.0878817"><ele>1096.0</ele><time>2026-04-18T15:42:20.786Z</time></trkpt><trkpt lat="41.9878183" lon="-8.0878233"><ele>1096.5</ele><time>2026-04-18T15:42:21.785Z</time></trkpt><trkpt lat="41.98795" lon="-8.0877817"><ele>1097.0</ele><time>2026-04-18T15:42:22.787Z</time></trkpt><trkpt lat="41.9880783" lon="-8.087755"><ele>1097.5</ele><time>2026-04-18T15:42:23.786Z</time></trkpt><trkpt lat="41.9881983" lon="-8.087745"><ele>1098.0</ele><time>2026-04-18T15:42:24.787Z</time></trkpt><trkpt lat="41.9883183" lon="-8.087735"><ele>1099.5</ele><time>2026-04-18T15:42:25.786Z</time></trkpt><trkpt lat="41.9884417" lon="-8.087715"><ele>1101.0</ele><time>2026-04-18T15:42:26.787Z</time></trkpt><trkpt lat="41.9885717" lon="-8.0876833"><ele>1102.5</ele><time>2026-04-18T15:42:27.787Z</time></trkpt><trkpt lat="41.9887017" lon="-8.0876317"><ele>1104.0</ele><time>2026-04-18T15:42:28.786Z</time></trkpt><trkpt lat="41.9888367" lon="-8.0875683"><ele>1104.0</ele><time>2026-04-18T15:42:29.786Z</time></trkpt><trkpt lat="41.9889633" lon="-8.0875117"><ele>1104.0</ele><time>2026-04-18T15:42:30.786Z</time></trkpt><trkpt lat="41.989065" lon="-8.0874733"><ele>1104.0</ele><time>2026-04-18T15:42:31.787Z</time></trkpt><trkpt lat="41.9891533" lon="-8.0874633"><ele>1104.0</ele><time>2026-04-18T15:42:32.787Z</time></trkpt><trkpt lat="41.98925" lon="-8.0874717"><ele>1104.0</ele><time>2026-04-18T15:42:33.786Z</time></trkpt><trkpt lat="41.9893717" lon="-8.0874967"><ele>1105.75</ele><time>2026-04-18T15:42:34.786Z</time></trkpt><trkpt lat="41.9895183" lon="-8.0875183"><ele>1107.5</ele><time>2026-04-18T15:42:35.787Z</time></trkpt><trkpt lat="41.9896717" lon="-8.087535"><ele>1109.25</ele><time>2026-04-18T15:42:36.786Z</time></trkpt><trkpt lat="41.989815" lon="-8.0875367"><ele>1111.0</ele><time>2026-04-18T15:42:37.786Z</time></trkpt><trkpt lat="41.9899517" lon="-8.0875283"><ele>1113.0</ele><time>2026-04-18T15:42:38.787Z</time></trkpt><trkpt lat="41.9900883" lon="-8.087525"><ele>1115.0</ele><time>2026-04-18T15:42:39.787Z</time></trkpt><trkpt lat="41.990215" lon="-8.0875267"><ele>1117.0</ele><time>2026-04-18T15:42:40.787Z</time></trkpt><trkpt lat="41.990335" lon="-8.0875267"><ele>1119.0</ele><time>2026-04-18T15:42:41.786Z</time></trkpt><trkpt lat="41.9904517" lon="-8.0875233"><ele>1119.0</ele><time>2026-04-18T15:42:42.786Z</time></trkpt><trkpt lat="41.9905667" lon="-8.08751"><ele>1119.0</ele><time>2026-04-18T15:42:43.786Z</time></trkpt><trkpt lat="41.9906867" lon="-8.0874883"><ele>1119.0</ele><time>2026-04-18T15:42:44.788Z</time></trkpt><trkpt lat="41.9908083" lon="-8.087455"><ele>1119.0</ele><time>2026-04-18T15:42:45.787Z</time></trkpt><trkpt lat="41.9909133" lon="-8.0874217"><ele>1118.8</ele><time>2026-04-18T15:42:46.786Z</time></trkpt><trkpt lat="41.9910017" lon="-8.0873967"><ele>1118.6000000000001</ele><time>2026-04-18T15:42:47.786Z</time></trkpt><trkpt lat="41.99107" lon="-8.0873633"><ele>1118.4</ele><time>2026-04-18T15:42:48.786Z</time></trkpt><trkpt lat="41.9911567" lon="-8.08728"><ele>1118.2</ele><time>2026-04-18T15:42:50.789Z</time></trkpt><trkpt lat="41.9912117" lon="-8.087145"><ele>1118.0</ele><time>2026-04-18T15:42:52.786Z</time></trkpt><trkpt lat="41.9912583" lon="-8.08708"><ele>1118.0</ele><time>2026-04-18T15:42:53.788Z</time></trkpt><trkpt lat="41.991325" lon="-8.0869967"><ele>1118.0</ele><time>2026-04-18T15:42:54.787Z</time></trkpt><trkpt lat="41.9913967" lon="-8.0868933"><ele>1118.0</ele><time>2026-04-18T15:42:55.786Z</time></trkpt><trkpt lat="41.9914483" lon="-8.08676"><ele>1118.0</ele><time>2026-04-18T15:42:56.787Z</time></trkpt><trkpt lat="41.9914933" lon="-8.0866217"><ele>1118.0</ele><time>2026-04-18T15:42:57.786Z</time></trkpt><trkpt lat="41.9915417" lon="-8.0864817"><ele>1117.8</ele><time>2026-04-18T15:42:58.785Z</time></trkpt><trkpt lat="41.991585" lon="-8.0863583"><ele>1117.6</ele><time>2026-04-18T15:42:59.785Z</time></trkpt><trkpt lat="41.991685" lon="-8.0862767"><ele>1117.4</ele><time>2026-04-18T15:43:00.804Z</time></trkpt><trkpt lat="41.9916887" lon="-8.086187"><ele>1117.2</ele><time>2026-04-18T15:43:02.285Z</time></trkpt><trkpt lat="41.9916787" lon="-8.0860842"><ele>1117.0</ele><time>2026-04-18T16:04:18.787Z</time></trkpt><trkpt lat="41.9917302" lon="-8.085946"><ele>1117.0</ele><time>2026-04-18T16:04:20.786Z</time></trkpt><trkpt lat="41.9917795" lon="-8.0858252"><ele>1117.0</ele><time>2026-04-18T16:04:22.786Z</time></trkpt><trkpt lat="41.9918552" lon="-8.0856651"><ele>1117.0</ele><time>2026-04-18T16:04:24.785Z</time></trkpt><trkpt lat="41.9918996" lon="-8.085563"><ele>1117.0</ele><time>2026-04-18T16:04:25.786Z</time></trkpt><trkpt lat="41.9919399" lon="-8.0854643"><ele>1117.0</ele><time>2026-04-18T16:04:26.785Z</time></trkpt><trkpt lat="41.9919697" lon="-8.0853782"><ele>1118.8333333333333</ele><time>2026-04-18T16:04:27.786Z</time></trkpt><trkpt lat="41.9920076" lon="-8.0852538"><ele>1120.6666666666665</ele><time>2026-04-18T16:04:29.785Z</time></trkpt><trkpt lat="41.9920505" lon="-8.0851834"><ele>1122.5</ele><time>2026-04-18T16:04:31.787Z</time></trkpt><trkpt lat="41.992112" lon="-8.0851526"><ele>1124.3333333333333</ele><time>2026-04-18T16:04:33.787Z</time></trkpt><trkpt lat="41.9922219" lon="-8.0851621"><ele>1126.1666666666667</ele><time>2026-04-18T16:04:35.786Z</time></trkpt><trkpt lat="41.9922985" lon="-8.0851831"><ele>1128.0</ele><time>2026-04-18T16:04:36.786Z</time></trkpt><trkpt lat="41.9923756" lon="-8.0852013"><ele>1128.0</ele><time>2026-04-18T16:04:37.787Z</time></trkpt><trkpt lat="41.9924491" lon="-8.0852027"><ele>1128.0</ele><time>2026-04-18T16:04:38.786Z</time></trkpt><trkpt lat="41.9925171" lon="-8.0851847"><ele>1128.0</ele><time>2026-04-18T16:04:39.786Z</time></trkpt><trkpt lat="41.9925831" lon="-8.0851554"><ele>1128.0</ele><time>2026-04-18T16:04:40.785Z</time></trkpt><trkpt lat="41.9926468" lon="-8.0851178"><ele>1128.0</ele><time>2026-04-18T16:04:41.786Z</time></trkpt><trkpt lat="41.9927121" lon="-8.0850666"><ele>1128.0</ele><time>2026-04-18T16:04:42.787Z</time></trkpt><trkpt lat="41.9927799" lon="-8.0850019"><ele>1128.0</ele><time>2026-04-18T16:04:43.787Z</time></trkpt><trkpt lat="41.9928521" lon="-8.0849352"><ele>1129.5</ele><time>2026-04-18T16:04:44.788Z</time></trkpt><trkpt lat="41.9929218" lon="-8.0848774"><ele>1131.0</ele><time>2026-04-18T16:04:45.786Z</time></trkpt><trkpt lat="41.9929911" lon="-8.0848281"><ele>1132.5</ele><time>2026-04-18T16:04:46.787Z</time></trkpt><trkpt lat="41.9930651" lon="-8.084783"><ele>1134.0</ele><time>2026-04-18T16:04:47.787Z</time></trkpt><trkpt lat="41.9931366" lon="-8.0847374"><ele>1135.5</ele><time>2026-04-18T16:04:48.784Z</time></trkpt><trkpt lat="41.9932116" lon="-8.0846891"><ele>1137.0</ele><time>2026-04-18T16:04:49.786Z</time></trkpt><trkpt lat="41.9932924" lon="-8.084643"><ele>1137.6</ele><time>2026-04-18T16:04:50.785Z</time></trkpt><trkpt lat="41.9933774" lon="-8.0845977"><ele>1138.2</ele><time>2026-04-18T16:04:51.786Z</time></trkpt><trkpt lat="41.9934697" lon="-8.0845569"><ele>1138.8</ele><time>2026-04-18T16:04:52.786Z</time></trkpt><trkpt lat="41.9935647" lon="-8.0845191"><ele>1139.4</ele><time>2026-04-18T16:04:53.786Z</time></trkpt><trkpt lat="41.9936572" lon="-8.0844924"><ele>1140.0</ele><time>2026-04-18T16:04:54.785Z</time></trkpt><trkpt lat="41.9937464" lon="-8.0844816"><ele>1140.0</ele><time>2026-04-18T16:04:55.786Z</time></trkpt><trkpt lat="41.9938346" lon="-8.0844695"><ele>1140.0</ele><time>2026-04-18T16:04:56.786Z</time></trkpt><trkpt lat="41.9939239" lon="-8.0844474"><ele>1140.0</ele><time>2026-04-18T16:04:57.786Z</time></trkpt><trkpt lat="41.9940139" lon="-8.0844165"><ele>1140.0</ele><time>2026-04-18T16:04:58.786Z</time></trkpt><trkpt lat="41.9941039" lon="-8.0843789"><ele>1140.0</ele><time>2026-04-18T16:04:59.786Z</time></trkpt><trkpt lat="41.9941913" lon="-8.0843296"><ele>1141.0</ele><time>2026-04-18T16:05:00.787Z</time></trkpt><trkpt lat="41.9942792" lon="-8.0842788"><ele>1142.0</ele><time>2026-04-18T16:05:01.784Z</time></trkpt><trkpt lat="41.9943679" lon="-8.0842373"><ele>1143.0</ele><time>2026-04-18T16:05:02.786Z</time></trkpt><trkpt lat="41.9944565" lon="-8.0842028"><ele>1144.0</ele><time>2026-04-18T16:05:03.786Z</time></trkpt><trkpt lat="41.9945446" lon="-8.0841658"><ele>1145.0</ele><time>2026-04-18T16:05:04.785Z</time></trkpt><trkpt lat="41.99463" lon="-8.0841295"><ele>1147.0</ele><time>2026-04-18T16:05:05.787Z</time></trkpt><trkpt lat="41.9947138" lon="-8.0840905"><ele>1149.0</ele><time>2026-04-18T16:05:06.786Z</time></trkpt><trkpt lat="41.9948051" lon="-8.0840593"><ele>1151.0</ele><time>2026-04-18T16:05:07.785Z</time></trkpt><trkpt lat="41.9948986" lon="-8.0840341"><ele>1153.0</ele><time>2026-04-18T16:05:08.787Z</time></trkpt><trkpt lat="41.9949905" lon="-8.0840121"><ele>1155.0</ele><time>2026-04-18T16:05:09.786Z</time></trkpt><trkpt lat="41.9950789" lon="-8.0839906"><ele>1155.0</ele><time>2026-04-18T16:05:10.786Z</time></trkpt><trkpt lat="41.9951631" lon="-8.0839692"><ele>1155.0</ele><time>2026-04-18T16:05:11.787Z</time></trkpt><trkpt lat="41.9952436" lon="-8.0839494"><ele>1155.0</ele><time>2026-04-18T16:05:12.786Z</time></trkpt><trkpt lat="41.9953233" lon="-8.083931"><ele>1155.0</ele><time>2026-04-18T16:05:13.786Z</time></trkpt><trkpt lat="41.9954076" lon="-8.0839118"><ele>1155.0</ele><time>2026-04-18T16:05:14.787Z</time></trkpt><trkpt lat="41.9954942" lon="-8.0838946"><ele>1155.0</ele><time>2026-04-18T16:05:15.787Z</time></trkpt><trkpt lat="41.9955754" lon="-8.0838826"><ele>1155.0</ele><time>2026-04-18T16:05:16.788Z</time></trkpt><trkpt lat="41.9956524" lon="-8.0838671"><ele>1155.0</ele><time>2026-04-18T16:05:17.785Z</time></trkpt><trkpt lat="41.9957262" lon="-8.0838518"><ele>1155.0</ele><time>2026-04-18T16:05:18.785Z</time></trkpt><trkpt lat="41.995798" lon="-8.0838314"><ele>1155.0</ele><time>2026-04-18T16:05:19.786Z</time></trkpt><trkpt lat="41.9958652" lon="-8.0838028"><ele>1155.0</ele><time>2026-04-18T16:05:20.786Z</time></trkpt><trkpt lat="41.9959266" lon="-8.0837806"><ele>1155.0</ele><time>2026-04-18T16:05:21.787Z</time></trkpt><trkpt lat="41.9960265" lon="-8.0837548"><ele>1154.8333333333333</ele><time>2026-04-18T16:05:23.785Z</time></trkpt><trkpt lat="41.9961146" lon="-8.0837364"><ele>1154.6666666666667</ele><time>2026-04-18T16:05:25.786Z</time></trkpt><trkpt lat="41.9961868" lon="-8.0837327"><ele>1154.5</ele><time>2026-04-18T16:05:27.787Z</time></trkpt><trkpt lat="41.9962788" lon="-8.0837316"><ele>1154.3333333333335</ele><time>2026-04-18T16:05:30.788Z</time></trkpt><trkpt lat="41.9963547" lon="-8.0837221"><ele>1154.1666666666667</ele><time>2026-04-18T16:05:32.784Z</time></trkpt><trkpt lat="41.9964352" lon="-8.0837"><ele>1154.0</ele><time>2026-04-18T16:05:34.786Z</time></trkpt><trkpt lat="41.9965456" lon="-8.0836666"><ele>1154.0</ele><time>2026-04-18T16:05:36.787Z</time></trkpt><trkpt lat="41.9966189" lon="-8.0836451"><ele>1154.0</ele><time>2026-04-18T16:05:37.786Z</time></trkpt><trkpt lat="41.9967048" lon="-8.0836218"><ele>1154.0</ele><time>2026-04-18T16:05:38.785Z</time></trkpt><trkpt lat="41.9968015" lon="-8.0835985"><ele>1154.0</ele><time>2026-04-18T16:05:39.785Z</time></trkpt><trkpt lat="41.9969024" lon="-8.0835768"><ele>1154.0</ele><time>2026-04-18T16:05:40.785Z</time></trkpt><trkpt lat="41.9970009" lon="-8.0835561"><ele>1154.0</ele><time>2026-04-18T16:05:41.787Z</time></trkpt><trkpt lat="41.9970925" lon="-8.0835389"><ele>1154.0</ele><time>2026-04-18T16:05:42.788Z</time></trkpt><trkpt lat="41.9971751" lon="-8.0835233"><ele>1154.0</ele><time>2026-04-18T16:05:43.786Z</time></trkpt><trkpt lat="41.9972536" lon="-8.0835068"><ele>1154.0</ele><time>2026-04-18T16:05:44.788Z</time></trkpt><trkpt lat="41.997334" lon="-8.0834883"><ele>1154.0</ele><time>2026-04-18T16:05:45.787Z</time></trkpt><trkpt lat="41.997418" lon="-8.0834718"><ele>1154.0</ele><time>2026-04-18T16:05:46.787Z</time></trkpt><trkpt lat="41.9975058" lon="-8.0834537"><ele>1154.8</ele><time>2026-04-18T16:05:47.786Z</time></trkpt><trkpt lat="41.9975973" lon="-8.0834292"><ele>1155.6000000000001</ele><time>2026-04-18T16:05:48.784Z</time></trkpt><trkpt lat="41.9976939" lon="-8.083405"><ele>1156.4</ele><time>2026-04-18T16:05:49.785Z</time></trkpt><trkpt lat="41.9977939" lon="-8.0833849"><ele>1157.2</ele><time>2026-04-18T16:05:50.785Z</time></trkpt><trkpt lat="41.9978957" lon="-8.0833726"><ele>1158.0</ele><time>2026-04-18T16:05:51.787Z</time></trkpt><trkpt lat="41.9979964" lon="-8.0833669"><ele>1158.0</ele><time>2026-04-18T16:05:52.785Z</time></trkpt><trkpt lat="41.9981034" lon="-8.0833702"><ele>1158.0</ele><time>2026-04-18T16:05:53.785Z</time></trkpt><trkpt lat="41.9982296" lon="-8.0833775"><ele>1158.0</ele><time>2026-04-18T16:05:54.788Z</time></trkpt><trkpt lat="41.9983612" lon="-8.083389"><ele>1158.0</ele><time>2026-04-18T16:05:55.787Z</time></trkpt><trkpt lat="41.9984864" lon="-8.0833957"><ele>1159.75</ele><time>2026-04-18T16:05:56.787Z</time></trkpt><trkpt lat="41.9986083" lon="-8.0834005"><ele>1161.5</ele><time>2026-04-18T16:05:57.787Z</time></trkpt><trkpt lat="41.9987267" lon="-8.083404"><ele>1163.25</ele><time>2026-04-18T16:05:58.786Z</time></trkpt><trkpt lat="41.9988363" lon="-8.0834055"><ele>1165.0</ele><time>2026-04-18T16:05:59.786Z</time></trkpt><trkpt lat="41.9989412" lon="-8.0834054"><ele>1165.0</ele><time>2026-04-18T16:06:00.788Z</time></trkpt><trkpt lat="41.9990398" lon="-8.0834082"><ele>1165.0</ele><time>2026-04-18T16:06:01.785Z</time></trkpt><trkpt lat="41.9991361" lon="-8.083412"><ele>1165.0</ele><time>2026-04-18T16:06:02.789Z</time></trkpt><trkpt lat="41.9992292" lon="-8.0834156"><ele>1165.0</ele><time>2026-04-18T16:06:03.788Z</time></trkpt><trkpt lat="41.9993264" lon="-8.0834145"><ele>1165.0</ele><time>2026-04-18T16:06:04.784Z</time></trkpt><trkpt lat="41.9994308" lon="-8.0834111"><ele>1165.5</ele><time>2026-04-18T16:06:05.786Z</time></trkpt><trkpt lat="41.9995366" lon="-8.0834142"><ele>1166.0</ele><time>2026-04-18T16:06:06.788Z</time></trkpt><trkpt lat="41.9996487" lon="-8.0834187"><ele>1166.5</ele><time>2026-04-18T16:06:07.787Z</time></trkpt><trkpt lat="41.9997653" lon="-8.0834288"><ele>1167.0</ele><time>2026-04-18T16:06:08.787Z</time></trkpt><trkpt lat="41.9998881" lon="-8.0834416"><ele>1167.0</ele><time>2026-04-18T16:06:09.785Z</time></trkpt><trkpt lat="42.0000204" lon="-8.083449"><ele>1167.0</ele><time>2026-04-18T16:06:10.785Z</time></trkpt><trkpt lat="42.0001521" lon="-8.0834561"><ele>1167.0</ele><time>2026-04-18T16:06:11.787Z</time></trkpt><trkpt lat="42.0002746" lon="-8.0834621"><ele>1167.0</ele><time>2026-04-18T16:06:12.787Z</time></trkpt><trkpt lat="42.0003962" lon="-8.0834616"><ele>1167.0</ele><time>2026-04-18T16:06:13.788Z</time></trkpt><trkpt lat="42.0005172" lon="-8.083461"><ele>1167.0</ele><time>2026-04-18T16:06:14.787Z</time></trkpt><trkpt lat="42.0006284" lon="-8.0834597"><ele>1167.0</ele><time>2026-04-18T16:06:15.787Z</time></trkpt><trkpt lat="42.0007282" lon="-8.0834571"><ele>1167.0</ele><time>2026-04-18T16:06:16.787Z</time></trkpt><trkpt lat="42.0008158" lon="-8.0834506"><ele>1167.0</ele><time>2026-04-18T16:06:17.787Z</time></trkpt><trkpt lat="42.0008968" lon="-8.0834411"><ele>1168.2</ele><time>2026-04-18T16:06:18.787Z</time></trkpt><trkpt lat="42.000979" lon="-8.0834308"><ele>1169.4</ele><time>2026-04-18T16:06:19.788Z</time></trkpt><trkpt lat="42.0010703" lon="-8.0834203"><ele>1170.6</ele><time>2026-04-18T16:06:20.787Z</time></trkpt><trkpt lat="42.0011795" lon="-8.083412"><ele>1171.8</ele><time>2026-04-18T16:06:21.788Z</time></trkpt><trkpt lat="42.0013091" lon="-8.083409"><ele>1173.0</ele><time>2026-04-18T16:06:22.787Z</time></trkpt><trkpt lat="42.0014466" lon="-8.083408"><ele>1173.0</ele><time>2026-04-18T16:06:23.787Z</time></trkpt><trkpt lat="42.0015833" lon="-8.0834116"><ele>1173.0</ele><time>2026-04-18T16:06:24.787Z</time></trkpt><trkpt lat="42.0017177" lon="-8.0834156"><ele>1173.0</ele><time>2026-04-18T16:06:25.787Z</time></trkpt><trkpt lat="42.0018471" lon="-8.083416"><ele>1173.0</ele><time>2026-04-18T16:06:26.787Z</time></trkpt><trkpt lat="42.0019808" lon="-8.0834129"><ele>1174.5</ele><time>2026-04-18T16:06:27.787Z</time></trkpt><trkpt lat="42.0021146" lon="-8.0834089"><ele>1176.0</ele><time>2026-04-18T16:06:28.788Z</time></trkpt><trkpt lat="42.0022407" lon="-8.0834098"><ele>1177.5</ele><time>2026-04-18T16:06:29.785Z</time></trkpt><trkpt lat="42.0023586" lon="-8.0834138"><ele>1179.0</ele><time>2026-04-18T16:06:30.786Z</time></trkpt><trkpt lat="42.0024673" lon="-8.0834161"><ele>1180.6000000000001</ele><time>2026-04-18T16:06:31.785Z</time></trkpt><trkpt lat="42.0025731" lon="-8.0834205"><ele>1182.2</ele><time>2026-04-18T16:06:32.788Z</time></trkpt><trkpt lat="42.002678" lon="-8.0834231"><ele>1183.8000000000002</ele><time>2026-04-18T16:06:33.788Z</time></trkpt><trkpt lat="42.0027896" lon="-8.0834212"><ele>1185.4</ele><time>2026-04-18T16:06:34.785Z</time></trkpt><trkpt lat="42.0029044" lon="-8.0834196"><ele>1187.0</ele><time>2026-04-18T16:06:35.788Z</time></trkpt><trkpt lat="42.0030168" lon="-8.0834199"><ele>1187.0</ele><time>2026-04-18T16:06:36.787Z</time></trkpt><trkpt lat="42.0031238" lon="-8.083421"><ele>1187.0</ele><time>2026-04-18T16:06:37.786Z</time></trkpt><trkpt lat="42.0032231" lon="-8.0834213"><ele>1187.0</ele><time>2026-04-18T16:06:38.785Z</time></trkpt><trkpt lat="42.0033224" lon="-8.0834178"><ele>1187.0</ele><time>2026-04-18T16:06:39.786Z</time></trkpt><trkpt lat="42.0034223" lon="-8.0834195"><ele>1187.0</ele><time>2026-04-18T16:06:40.788Z</time></trkpt><trkpt lat="42.0035238" lon="-8.0834284"><ele>1188.2</ele><time>2026-04-18T16:06:41.787Z</time></trkpt><trkpt lat="42.0036284" lon="-8.0834407"><ele>1189.4</ele><time>2026-04-18T16:06:42.787Z</time></trkpt><trkpt lat="42.0037366" lon="-8.083457"><ele>1190.6</ele><time>2026-04-18T16:06:43.787Z</time></trkpt><trkpt lat="42.0038468" lon="-8.0834775"><ele>1191.8</ele><time>2026-04-18T16:06:44.788Z</time></trkpt><trkpt lat="42.0039568" lon="-8.0835024"><ele>1193.0</ele><time>2026-04-18T16:06:45.787Z</time></trkpt><trkpt lat="42.0040724" lon="-8.0835246"><ele>1194.8</ele><time>2026-04-18T16:06:46.787Z</time></trkpt><trkpt lat="42.0041853" lon="-8.0835436"><ele>1196.6</ele><time>2026-04-18T16:06:47.786Z</time></trkpt><trkpt lat="42.0042885" lon="-8.0835595"><ele>1198.4</ele><time>2026-04-18T16:06:48.787Z</time></trkpt><trkpt lat="42.004391" lon="-8.0835807"><ele>1200.2</ele><time>2026-04-18T16:06:49.787Z</time></trkpt><trkpt lat="42.0044954" lon="-8.0836099"><ele>1202.0</ele><time>2026-04-18T16:06:50.787Z</time></trkpt><trkpt lat="42.0045933" lon="-8.0836345"><ele>1202.0</ele><time>2026-04-18T16:06:51.787Z</time></trkpt><trkpt lat="42.0046733" lon="-8.0836468"><ele>1202.0</ele><time>2026-04-18T16:06:52.787Z</time></trkpt><trkpt lat="42.0047405" lon="-8.0836462"><ele>1202.0</ele><time>2026-04-18T16:06:53.787Z</time></trkpt><trkpt lat="42.0048573" lon="-8.0835972"><ele>1202.0</ele><time>2026-04-18T16:06:55.787Z</time></trkpt><trkpt lat="42.0049213" lon="-8.0835389"><ele>1202.0</ele><time>2026-04-18T16:06:56.787Z</time></trkpt><trkpt lat="42.0049948" lon="-8.0834711"><ele>1202.0</ele><time>2026-04-18T16:06:57.787Z</time></trkpt><trkpt lat="42.0050742" lon="-8.0834172"><ele>1203.8</ele><time>2026-04-18T16:06:58.786Z</time></trkpt><trkpt lat="42.0051531" lon="-8.0833833"><ele>1205.6</ele><time>2026-04-18T16:06:59.788Z</time></trkpt><trkpt lat="42.0052339" lon="-8.0833778"><ele>1207.3999999999999</ele><time>2026-04-18T16:07:00.787Z</time></trkpt><trkpt lat="42.0053221" lon="-8.0834037"><ele>1209.2</ele><time>2026-04-18T16:07:01.787Z</time></trkpt><trkpt lat="42.0054218" lon="-8.0834542"><ele>1211.0</ele><time>2026-04-18T16:07:02.787Z</time></trkpt><trkpt lat="42.0055371" lon="-8.0835188"><ele>1211.0</ele><time>2026-04-18T16:07:03.787Z</time></trkpt><trkpt lat="42.0056508" lon="-8.0835767"><ele>1211.0</ele><time>2026-04-18T16:07:04.787Z</time></trkpt><trkpt lat="42.0057504" lon="-8.0836326"><ele>1211.0</ele><time>2026-04-18T16:07:05.787Z</time></trkpt><trkpt lat="42.0058389" lon="-8.0836901"><ele>1211.0</ele><time>2026-04-18T16:07:06.79Z</time></trkpt><trkpt lat="42.0059233" lon="-8.0837618"><ele>1211.0</ele><time>2026-04-18T16:07:07.787Z</time></trkpt><trkpt lat="42.0060057" lon="-8.0838506"><ele>1212.5</ele><time>2026-04-18T16:07:08.789Z</time></trkpt><trkpt lat="42.0060778" lon="-8.0839564"><ele>1214.0</ele><time>2026-04-18T16:07:09.787Z</time></trkpt><trkpt lat="42.0061387" lon="-8.0840804"><ele>1215.5</ele><time>2026-04-18T16:07:10.787Z</time></trkpt><trkpt lat="42.0061949" lon="-8.0842271"><ele>1217.0</ele><time>2026-04-18T16:07:11.788Z</time></trkpt><trkpt lat="42.0062463" lon="-8.0843922"><ele>1220.5</ele><time>2026-04-18T16:07:12.787Z</time></trkpt><trkpt lat="42.0062941" lon="-8.0845657"><ele>1224.0</ele><time>2026-04-18T16:07:13.787Z</time></trkpt><trkpt lat="42.0063377" lon="-8.0847294"><ele>1227.5</ele><time>2026-04-18T16:07:14.788Z</time></trkpt><trkpt lat="42.0063808" lon="-8.0848672"><ele>1231.0</ele><time>2026-04-18T16:07:15.787Z</time></trkpt><trkpt lat="42.0064284" lon="-8.0849853"><ele>1233.0</ele><time>2026-04-18T16:07:16.787Z</time></trkpt><trkpt lat="42.0064755" lon="-8.0850919"><ele>1235.0</ele><time>2026-04-18T16:07:17.787Z</time></trkpt><trkpt lat="42.0065249" lon="-8.0852004"><ele>1237.0</ele><time>2026-04-18T16:07:18.787Z</time></trkpt><trkpt lat="42.006578" lon="-8.0853084"><ele>1239.0</ele><time>2026-04-18T16:07:19.788Z</time></trkpt><trkpt lat="42.0066419" lon="-8.0854071"><ele>1241.0</ele><time>2026-04-18T16:07:20.787Z</time></trkpt><trkpt lat="42.006718" lon="-8.0854985"><ele>1241.0</ele><time>2026-04-18T16:07:21.787Z</time></trkpt><trkpt lat="42.0067973" lon="-8.0855758"><ele>1241.0</ele><time>2026-04-18T16:07:22.787Z</time></trkpt><trkpt lat="42.0068803" lon="-8.0856334"><ele>1241.0</ele><time>2026-04-18T16:07:23.787Z</time></trkpt><trkpt lat="42.0069657" lon="-8.0856699"><ele>1241.0</ele><time>2026-04-18T16:07:24.789Z</time></trkpt><trkpt lat="42.0070538" lon="-8.0856802"><ele>1241.0</ele><time>2026-04-18T16:07:25.787Z</time></trkpt><trkpt lat="42.0071469" lon="-8.0856747"><ele>1241.0</ele><time>2026-04-18T16:07:26.788Z</time></trkpt><trkpt lat="42.0072562" lon="-8.0856489"><ele>1241.0</ele><time>2026-04-18T16:07:27.786Z</time></trkpt><trkpt lat="42.0073818" lon="-8.0856129"><ele>1241.0</ele><time>2026-04-18T16:07:28.786Z</time></trkpt><trkpt lat="42.0075114" lon="-8.0855751"><ele>1241.0</ele><time>2026-04-18T16:07:29.786Z</time></trkpt><trkpt lat="42.0076337" lon="-8.0855453"><ele>1242.25</ele><time>2026-04-18T16:07:30.789Z</time></trkpt><trkpt lat="42.0077498" lon="-8.0855184"><ele>1243.5</ele><time>2026-04-18T16:07:31.786Z</time></trkpt><trkpt lat="42.0078666" lon="-8.0854915"><ele>1244.75</ele><time>2026-04-18T16:07:32.786Z</time></trkpt><trkpt lat="42.0079877" lon="-8.085458"><ele>1246.0</ele><time>2026-04-18T16:07:33.786Z</time></trkpt><trkpt lat="42.0081125" lon="-8.0854255"><ele>1246.0</ele><time>2026-04-18T16:07:34.785Z</time></trkpt><trkpt lat="42.0082409" lon="-8.0853977"><ele>1246.0</ele><time>2026-04-18T16:07:35.788Z</time></trkpt><trkpt lat="42.0083695" lon="-8.085375"><ele>1246.0</ele><time>2026-04-18T16:07:36.786Z</time></trkpt><trkpt lat="42.0084967" lon="-8.0853506"><ele>1246.0</ele><time>2026-04-18T16:07:37.786Z</time></trkpt><trkpt lat="42.0086195" lon="-8.0853219"><ele>1247.5</ele><time>2026-04-18T16:07:38.788Z</time></trkpt><trkpt lat="42.0087451" lon="-8.0852891"><ele>1249.0</ele><time>2026-04-18T16:07:39.787Z</time></trkpt><trkpt lat="42.0088774" lon="-8.085257"><ele>1250.5</ele><time>2026-04-18T16:07:40.786Z</time></trkpt><trkpt lat="42.0090122" lon="-8.0852234"><ele>1252.0</ele><time>2026-04-18T16:07:41.787Z</time></trkpt><trkpt lat="42.0091361" lon="-8.0851843"><ele>1253.2</ele><time>2026-04-18T16:07:42.787Z</time></trkpt><trkpt lat="42.0092412" lon="-8.0851423"><ele>1254.4</ele><time>2026-04-18T16:07:43.787Z</time></trkpt><trkpt lat="42.0093363" lon="-8.0851003"><ele>1255.6</ele><time>2026-04-18T16:07:44.787Z</time></trkpt><trkpt lat="42.0094188" lon="-8.0850687"><ele>1256.8</ele><time>2026-04-18T16:07:45.787Z</time></trkpt><trkpt lat="42.0095038" lon="-8.0850494"><ele>1258.0</ele><time>2026-04-18T16:07:46.788Z</time></trkpt><trkpt lat="42.0095993" lon="-8.0850327"><ele>1258.0</ele><time>2026-04-18T16:07:47.787Z</time></trkpt><trkpt lat="42.0096986" lon="-8.0850101"><ele>1258.0</ele><time>2026-04-18T16:07:48.787Z</time></trkpt><trkpt lat="42.009794" lon="-8.08498"><ele>1258.0</ele><time>2026-04-18T16:07:49.787Z</time></trkpt><trkpt lat="42.009886" lon="-8.0849516"><ele>1258.0</ele><time>2026-04-18T16:07:50.788Z</time></trkpt><trkpt lat="42.0099774" lon="-8.0849322"><ele>1258.0</ele><time>2026-04-18T16:07:51.787Z</time></trkpt><trkpt lat="42.0100672" lon="-8.084919"><ele>1259.3333333333333</ele><time>2026-04-18T16:07:52.787Z</time></trkpt><trkpt lat="42.0101529" lon="-8.084909"><ele>1260.6666666666665</ele><time>2026-04-18T16:07:53.787Z</time></trkpt><trkpt lat="42.0102379" lon="-8.0848997"><ele>1262.0</ele><time>2026-04-18T16:07:54.788Z</time></trkpt><trkpt lat="42.0103266" lon="-8.084893"><ele>1263.3333333333333</ele><time>2026-04-18T16:07:55.787Z</time></trkpt><trkpt lat="42.0104165" lon="-8.0848882"><ele>1264.6666666666667</ele><time>2026-04-18T16:07:56.788Z</time></trkpt><trkpt lat="42.0105051" lon="-8.0848913"><ele>1266.0</ele><time>2026-04-18T16:07:57.787Z</time></trkpt><trkpt lat="42.0105863" lon="-8.0849051"><ele>1266.3333333333333</ele><time>2026-04-18T16:07:58.788Z</time></trkpt><trkpt lat="42.0106632" lon="-8.0849336"><ele>1266.6666666666667</ele><time>2026-04-18T16:07:59.787Z</time></trkpt><trkpt lat="42.0107363" lon="-8.0849841"><ele>1267.0</ele><time>2026-04-18T16:08:00.787Z</time></trkpt><trkpt lat="42.010805" lon="-8.0850425"><ele>1267.3333333333335</ele><time>2026-04-18T16:08:01.788Z</time></trkpt><trkpt lat="42.0108785" lon="-8.0850929"><ele>1267.6666666666667</ele><time>2026-04-18T16:08:02.789Z</time></trkpt><trkpt lat="42.0109642" lon="-8.0851263"><ele>1268.0</ele><time>2026-04-18T16:08:03.787Z</time></trkpt><trkpt lat="42.0110601" lon="-8.085148"><ele>1268.8</ele><time>2026-04-18T16:08:04.788Z</time></trkpt><trkpt lat="42.0111648" lon="-8.0851542"><ele>1269.6</ele><time>2026-04-18T16:08:05.787Z</time></trkpt><trkpt lat="42.0112747" lon="-8.085157"><ele>1270.4</ele><time>2026-04-18T16:08:06.787Z</time></trkpt><trkpt lat="42.011379" lon="-8.0851618"><ele>1271.2</ele><time>2026-04-18T16:08:07.787Z</time></trkpt><trkpt lat="42.0114811" lon="-8.0851705"><ele>1272.0</ele><time>2026-04-18T16:08:08.788Z</time></trkpt><trkpt lat="42.011576" lon="-8.085175"><ele>1271.2</ele><time>2026-04-18T16:08:09.787Z</time></trkpt><trkpt lat="42.011672" lon="-8.0851792"><ele>1270.4</ele><time>2026-04-18T16:08:10.787Z</time></trkpt><trkpt lat="42.0117715" lon="-8.0851858"><ele>1269.6</ele><time>2026-04-18T16:08:11.787Z</time></trkpt><trkpt lat="42.0118706" lon="-8.0851938"><ele>1268.8</ele><time>2026-04-18T16:08:12.787Z</time></trkpt><trkpt lat="42.0119685" lon="-8.0852022"><ele>1268.0</ele><time>2026-04-18T16:08:13.787Z</time></trkpt><trkpt lat="42.0120622" lon="-8.0852038"><ele>1268.0</ele><time>2026-04-18T16:08:14.788Z</time></trkpt><trkpt lat="42.0121538" lon="-8.0852025"><ele>1268.0</ele><time>2026-04-18T16:08:15.787Z</time></trkpt><trkpt lat="42.012244" lon="-8.0852033"><ele>1268.0</ele><time>2026-04-18T16:08:16.787Z</time></trkpt><trkpt lat="42.0123384" lon="-8.0852041"><ele>1268.0</ele><time>2026-04-18T16:08:17.787Z</time></trkpt><trkpt lat="42.0124347" lon="-8.0852102"><ele>1268.0</ele><time>2026-04-18T16:08:18.786Z</time></trkpt><trkpt lat="42.0125257" lon="-8.0852187"><ele>1266.6</ele><time>2026-04-18T16:08:19.787Z</time></trkpt><trkpt lat="42.0126111" lon="-8.0852305"><ele>1265.1999999999998</ele><time>2026-04-18T16:08:20.789Z</time></trkpt><trkpt lat="42.0126915" lon="-8.0852324"><ele>1263.8</ele><time>2026-04-18T16:08:21.787Z</time></trkpt><trkpt lat="42.0127761" lon="-8.0852267"><ele>1262.3999999999999</ele><time>2026-04-18T16:08:22.788Z</time></trkpt><trkpt lat="42.0128739" lon="-8.0852249"><ele>1261.0</ele><time>2026-04-18T16:08:23.788Z</time></trkpt><trkpt lat="42.0129802" lon="-8.0852321"><ele>1261.0</ele><time>2026-04-18T16:08:24.787Z</time></trkpt><trkpt lat="42.0130847" lon="-8.0852422"><ele>1261.0</ele><time>2026-04-18T16:08:25.787Z</time></trkpt><trkpt lat="42.0131796" lon="-8.085254"><ele>1261.0</ele><time>2026-04-18T16:08:26.789Z</time></trkpt><trkpt lat="42.0132671" lon="-8.0852604"><ele>1261.0</ele><time>2026-04-18T16:08:27.787Z</time></trkpt><trkpt lat="42.0133528" lon="-8.0852592"><ele>1261.0</ele><time>2026-04-18T16:08:28.787Z</time></trkpt><trkpt lat="42.0134336" lon="-8.0852509"><ele>1260.0</ele><time>2026-04-18T16:08:29.787Z</time></trkpt><trkpt lat="42.0135093" lon="-8.085246"><ele>1259.0</ele><time>2026-04-18T16:08:30.788Z</time></trkpt><trkpt lat="42.0135849" lon="-8.0852448"><ele>1258.0</ele><time>2026-04-18T16:08:31.787Z</time></trkpt><trkpt lat="42.0136638" lon="-8.0852352"><ele>1257.0</ele><time>2026-04-18T16:08:32.787Z</time></trkpt><trkpt lat="42.0137502" lon="-8.0852254"><ele>1256.0</ele><time>2026-04-18T16:08:33.789Z</time></trkpt><trkpt lat="42.0138416" lon="-8.0852266"><ele>1255.0</ele><time>2026-04-18T16:08:34.787Z</time></trkpt><trkpt lat="42.0139365" lon="-8.0852453"><ele>1255.0</ele><time>2026-04-18T16:08:35.788Z</time></trkpt><trkpt lat="42.0140307" lon="-8.0852828"><ele>1255.0</ele><time>2026-04-18T16:08:36.788Z</time></trkpt><trkpt lat="42.0141269" lon="-8.0853357"><ele>1255.0</ele><time>2026-04-18T16:08:37.787Z</time></trkpt><trkpt lat="42.0142228" lon="-8.0853941"><ele>1255.0</ele><time>2026-04-18T16:08:38.789Z</time></trkpt><trkpt lat="42.0143193" lon="-8.0854547"><ele>1255.0</ele><time>2026-04-18T16:08:39.786Z</time></trkpt><trkpt lat="42.0144197" lon="-8.0855188"><ele>1255.2</ele><time>2026-04-18T16:08:40.788Z</time></trkpt><trkpt lat="42.0145189" lon="-8.0855838"><ele>1255.4</ele><time>2026-04-18T16:08:41.787Z</time></trkpt><trkpt lat="42.0146162" lon="-8.0856366"><ele>1255.6</ele><time>2026-04-18T16:08:42.787Z</time></trkpt><trkpt lat="42.014713" lon="-8.0856754"><ele>1255.8</ele><time>2026-04-18T16:08:43.788Z</time></trkpt><trkpt lat="42.0148069" lon="-8.0857097"><ele>1256.0</ele><time>2026-04-18T16:08:44.788Z</time></trkpt><trkpt lat="42.0148971" lon="-8.0857419"><ele>1256.8</ele><time>2026-04-18T16:08:45.787Z</time></trkpt><trkpt lat="42.0149854" lon="-8.0857759"><ele>1257.6</ele><time>2026-04-18T16:08:46.787Z</time></trkpt><trkpt lat="42.0150721" lon="-8.0858123"><ele>1258.4</ele><time>2026-04-18T16:08:47.787Z</time></trkpt><trkpt lat="42.0151557" lon="-8.0858572"><ele>1259.2</ele><time>2026-04-18T16:08:48.787Z</time></trkpt><trkpt lat="42.0152425" lon="-8.0859015"><ele>1260.0</ele><time>2026-04-18T16:08:49.787Z</time></trkpt><trkpt lat="42.0153349" lon="-8.0859434"><ele>1261.4</ele><time>2026-04-18T16:08:50.788Z</time></trkpt><trkpt lat="42.0154303" lon="-8.0859805"><ele>1262.8</ele><time>2026-04-18T16:08:51.787Z</time></trkpt><trkpt lat="42.0155305" lon="-8.0860096"><ele>1264.2</ele><time>2026-04-18T16:08:52.787Z</time></trkpt><trkpt lat="42.0156324" lon="-8.0860287"><ele>1265.6</ele><time>2026-04-18T16:08:53.788Z</time></trkpt><trkpt lat="42.015729" lon="-8.0860293"><ele>1267.0</ele><time>2026-04-18T16:08:54.787Z</time></trkpt><trkpt lat="42.0158216" lon="-8.086016"><ele>1269.0</ele><time>2026-04-18T16:08:55.788Z</time></trkpt><trkpt lat="42.01592" lon="-8.0860026"><ele>1271.0</ele><time>2026-04-18T16:08:56.789Z</time></trkpt><trkpt lat="42.0160195" lon="-8.0859905"><ele>1273.0</ele><time>2026-04-18T16:08:57.787Z</time></trkpt><trkpt lat="42.0161137" lon="-8.0859724"><ele>1275.0</ele><time>2026-04-18T16:08:58.787Z</time></trkpt><trkpt lat="42.0162039" lon="-8.0859498"><ele>1277.0</ele><time>2026-04-18T16:08:59.787Z</time></trkpt><trkpt lat="42.0162911" lon="-8.0859195"><ele>1277.0</ele><time>2026-04-18T16:09:00.788Z</time></trkpt><trkpt lat="42.0163847" lon="-8.0858854"><ele>1277.0</ele><time>2026-04-18T16:09:01.787Z</time></trkpt><trkpt lat="42.0164843" lon="-8.085854"><ele>1277.0</ele><time>2026-04-18T16:09:02.788Z</time></trkpt><trkpt lat="42.0165945" lon="-8.0858266"><ele>1277.0</ele><time>2026-04-18T16:09:03.787Z</time></trkpt><trkpt lat="42.0167115" lon="-8.0858037"><ele>1277.0</ele><time>2026-04-18T16:09:04.787Z</time></trkpt><trkpt lat="42.0168446" lon="-8.0857782"><ele>1277.3333333333335</ele><time>2026-04-18T16:09:05.787Z</time></trkpt><trkpt lat="42.0169919" lon="-8.0857436"><ele>1277.6666666666667</ele><time>2026-04-18T16:09:06.787Z</time></trkpt><trkpt lat="42.0171501" lon="-8.0856996"><ele>1278.0</ele><time>2026-04-18T16:09:07.787Z</time></trkpt><trkpt lat="42.0173029" lon="-8.0856521"><ele>1278.0</ele><time>2026-04-18T16:09:08.789Z</time></trkpt><trkpt lat="42.0174468" lon="-8.0856103"><ele>1278.0</ele><time>2026-04-18T16:09:09.788Z</time></trkpt><trkpt lat="42.0175862" lon="-8.0855729"><ele>1278.0</ele><time>2026-04-18T16:09:10.789Z</time></trkpt><trkpt lat="42.0177247" lon="-8.0855378"><ele>1278.0</ele><time>2026-04-18T16:09:11.788Z</time></trkpt><trkpt lat="42.0178628" lon="-8.0855104"><ele>1278.5</ele><time>2026-04-18T16:09:12.787Z</time></trkpt><trkpt lat="42.0180005" lon="-8.0854871"><ele>1279.0</ele><time>2026-04-18T16:09:13.788Z</time></trkpt><trkpt lat="42.018131" lon="-8.0854658"><ele>1279.5</ele><time>2026-04-18T16:09:14.789Z</time></trkpt><trkpt lat="42.0182449" lon="-8.0854425"><ele>1280.0</ele><time>2026-04-18T16:09:15.787Z</time></trkpt><trkpt lat="42.0183432" lon="-8.0854211"><ele>1280.4</ele><time>2026-04-18T16:09:16.787Z</time></trkpt><trkpt lat="42.0184342" lon="-8.0853981"><ele>1280.8</ele><time>2026-04-18T16:09:17.787Z</time></trkpt><trkpt lat="42.0185228" lon="-8.0853723"><ele>1281.1999999999998</ele><time>2026-04-18T16:09:18.787Z</time></trkpt><trkpt lat="42.0186132" lon="-8.0853566"><ele>1281.6</ele><time>2026-04-18T16:09:19.787Z</time></trkpt><trkpt lat="42.0187086" lon="-8.0853387"><ele>1282.0</ele><time>2026-04-18T16:09:20.788Z</time></trkpt><trkpt lat="42.0188064" lon="-8.0853133"><ele>1282.0</ele><time>2026-04-18T16:09:21.787Z</time></trkpt><trkpt lat="42.0189103" lon="-8.0852843"><ele>1282.0</ele><time>2026-04-18T16:09:22.787Z</time></trkpt><trkpt lat="42.0190199" lon="-8.0852527"><ele>1282.0</ele><time>2026-04-18T16:09:23.787Z</time></trkpt><trkpt lat="42.0191291" lon="-8.0852189"><ele>1282.0</ele><time>2026-04-18T16:09:24.788Z</time></trkpt><trkpt lat="42.019238" lon="-8.0851816"><ele>1282.0</ele><time>2026-04-18T16:09:25.787Z</time></trkpt><trkpt lat="42.0193521" lon="-8.0851484"><ele>1283.0</ele><time>2026-04-18T16:09:26.788Z</time></trkpt><trkpt lat="42.0194771" lon="-8.0851179"><ele>1284.0</ele><time>2026-04-18T16:09:27.788Z</time></trkpt><trkpt lat="42.0196084" lon="-8.0850907"><ele>1285.0</ele><time>2026-04-18T16:09:28.787Z</time></trkpt><trkpt lat="42.0197321" lon="-8.0850646"><ele>1286.0</ele><time>2026-04-18T16:09:29.787Z</time></trkpt><trkpt lat="42.0198473" lon="-8.085034"><ele>1286.0</ele><time>2026-04-18T16:09:30.787Z</time></trkpt><trkpt lat="42.0199562" lon="-8.0850049"><ele>1286.0</ele><time>2026-04-18T16:09:31.787Z</time></trkpt><trkpt lat="42.0200612" lon="-8.0849763"><ele>1286.0</ele><time>2026-04-18T16:09:32.788Z</time></trkpt><trkpt lat="42.0201715" lon="-8.0849491"><ele>1286.0</ele><time>2026-04-18T16:09:33.787Z</time></trkpt><trkpt lat="42.0202903" lon="-8.0849199"><ele>1286.75</ele><time>2026-04-18T16:09:34.787Z</time></trkpt><trkpt lat="42.0204141" lon="-8.0848838"><ele>1287.5</ele><time>2026-04-18T16:09:35.787Z</time></trkpt><trkpt lat="42.0205398" lon="-8.0848425"><ele>1288.25</ele><time>2026-04-18T16:09:36.787Z</time></trkpt><trkpt lat="42.0206653" lon="-8.0847963"><ele>1289.0</ele><time>2026-04-18T16:09:37.787Z</time></trkpt><trkpt lat="42.0207977" lon="-8.0847484"><ele>1288.5</ele><time>2026-04-18T16:09:38.789Z</time></trkpt><trkpt lat="42.0209399" lon="-8.0846996"><ele>1288.0</ele><time>2026-04-18T16:09:39.787Z</time></trkpt><trkpt lat="42.0210834" lon="-8.0846586"><ele>1287.5</ele><time>2026-04-18T16:09:40.787Z</time></trkpt><trkpt lat="42.0212143" lon="-8.0846298"><ele>1287.0</ele><time>2026-04-18T16:09:41.788Z</time></trkpt><trkpt lat="42.0213338" lon="-8.0846097"><ele>1287.0</ele><time>2026-04-18T16:09:42.787Z</time></trkpt><trkpt lat="42.0214435" lon="-8.0845872"><ele>1287.0</ele><time>2026-04-18T16:09:43.787Z</time></trkpt><trkpt lat="42.0215402" lon="-8.0845596"><ele>1287.0</ele><time>2026-04-18T16:09:44.789Z</time></trkpt><trkpt lat="42.0216308" lon="-8.0845301"><ele>1287.0</ele><time>2026-04-18T16:09:45.788Z</time></trkpt><trkpt lat="42.0217182" lon="-8.0845044"><ele>1287.0</ele><time>2026-04-18T16:09:46.787Z</time></trkpt><trkpt lat="42.0218042" lon="-8.084486"><ele>1287.8</ele><time>2026-04-18T16:09:47.786Z</time></trkpt><trkpt lat="42.0218921" lon="-8.0844699"><ele>1288.6</ele><time>2026-04-18T16:09:48.786Z</time></trkpt><trkpt lat="42.0219814" lon="-8.0844468"><ele>1289.3999999999999</ele><time>2026-04-18T16:09:49.786Z</time></trkpt><trkpt lat="42.0220726" lon="-8.0844246"><ele>1290.1999999999998</ele><time>2026-04-18T16:09:50.787Z</time></trkpt><trkpt lat="42.0221631" lon="-8.0844057"><ele>1291.0</ele><time>2026-04-18T16:09:51.786Z</time></trkpt><trkpt lat="42.0222503" lon="-8.0843907"><ele>1291.0</ele><time>2026-04-18T16:09:52.786Z</time></trkpt><trkpt lat="42.0223343" lon="-8.0843737"><ele>1291.0</ele><time>2026-04-18T16:09:53.787Z</time></trkpt><trkpt lat="42.0224229" lon="-8.08435"><ele>1291.0</ele><time>2026-04-18T16:09:54.788Z</time></trkpt><trkpt lat="42.0225298" lon="-8.0843159"><ele>1291.0</ele><time>2026-04-18T16:09:55.787Z</time></trkpt><trkpt lat="42.0226439" lon="-8.0842811"><ele>1291.0</ele><time>2026-04-18T16:09:56.788Z</time></trkpt><trkpt lat="42.0227569" lon="-8.0842432"><ele>1290.8</ele><time>2026-04-18T16:09:57.787Z</time></trkpt><trkpt lat="42.0228667" lon="-8.0842115"><ele>1290.6</ele><time>2026-04-18T16:09:58.787Z</time></trkpt><trkpt lat="42.0229711" lon="-8.0841793"><ele>1290.4</ele><time>2026-04-18T16:09:59.786Z</time></trkpt><trkpt lat="42.0230758" lon="-8.0841415"><ele>1290.2</ele><time>2026-04-18T16:10:00.789Z</time></trkpt><trkpt lat="42.0231849" lon="-8.0841143"><ele>1290.0</ele><time>2026-04-18T16:10:01.787Z</time></trkpt><trkpt lat="42.0233005" lon="-8.0840928"><ele>1291.75</ele><time>2026-04-18T16:10:02.788Z</time></trkpt><trkpt lat="42.0234134" lon="-8.0840635"><ele>1293.5</ele><time>2026-04-18T16:10:03.787Z</time></trkpt><trkpt lat="42.0235253" lon="-8.0840239"><ele>1295.25</ele><time>2026-04-18T16:10:04.789Z</time></trkpt><trkpt lat="42.023633" lon="-8.0839856"><ele>1297.0</ele><time>2026-04-18T16:10:05.788Z</time></trkpt><trkpt lat="42.0237421" lon="-8.0839567"><ele>1297.0</ele><time>2026-04-18T16:10:06.787Z</time></trkpt><trkpt lat="42.0238568" lon="-8.0839276"><ele>1297.0</ele><time>2026-04-18T16:10:07.788Z</time></trkpt><trkpt lat="42.0239722" lon="-8.0838979"><ele>1297.0</ele><time>2026-04-18T16:10:08.788Z</time></trkpt><trkpt lat="42.0240835" lon="-8.083864"><ele>1297.0</ele><time>2026-04-18T16:10:09.787Z</time></trkpt><trkpt lat="42.0241978" lon="-8.0838266"><ele>1299.6</ele><time>2026-04-18T16:10:10.786Z</time></trkpt><trkpt lat="42.0243144" lon="-8.0837936"><ele>1302.1999999999998</ele><time>2026-04-18T16:10:11.788Z</time></trkpt><trkpt lat="42.0244231" lon="-8.083759"><ele>1304.8</ele><time>2026-04-18T16:10:12.787Z</time></trkpt><trkpt lat="42.0245268" lon="-8.0837251"><ele>1307.4</ele><time>2026-04-18T16:10:13.788Z</time></trkpt><trkpt lat="42.0246309" lon="-8.0836925"><ele>1310.0</ele><time>2026-04-18T16:10:14.787Z</time></trkpt><trkpt lat="42.0247366" lon="-8.083661"><ele>1310.0</ele><time>2026-04-18T16:10:15.787Z</time></trkpt><trkpt lat="42.0248346" lon="-8.0836311"><ele>1310.0</ele><time>2026-04-18T16:10:16.788Z</time></trkpt><trkpt lat="42.0249268" lon="-8.0836017"><ele>1310.0</ele><time>2026-04-18T16:10:17.786Z</time></trkpt><trkpt lat="42.0250193" lon="-8.0835735"><ele>1310.0</ele><time>2026-04-18T16:10:18.787Z</time></trkpt><trkpt lat="42.0251096" lon="-8.0835464"><ele>1310.0</ele><time>2026-04-18T16:10:19.786Z</time></trkpt><trkpt lat="42.0252061" lon="-8.0835153"><ele>1312.0</ele><time>2026-04-18T16:10:20.785Z</time></trkpt><trkpt lat="42.0253071" lon="-8.0834794"><ele>1314.0</ele><time>2026-04-18T16:10:21.787Z</time></trkpt><trkpt lat="42.0254075" lon="-8.0834427"><ele>1316.0</ele><time>2026-04-18T16:10:22.786Z</time></trkpt><trkpt lat="42.0255089" lon="-8.083402"><ele>1318.0</ele><time>2026-04-18T16:10:23.787Z</time></trkpt><trkpt lat="42.0256536" lon="-8.0833336"><ele>1318.0</ele><time>2026-04-18T16:10:25.246Z</time></trkpt><trkpt lat="42.0257499" lon="-8.0833213"><ele>1318.0</ele><time>2026-04-18T16:10:26.285Z</time></trkpt><trkpt lat="42.0258652" lon="-8.0832973"><ele>1318.0</ele><time>2026-04-18T16:10:27.785Z</time></trkpt><trkpt lat="42.0259299" lon="-8.0832832"><ele>1318.0</ele><time>2026-04-18T16:10:28.785Z</time></trkpt><trkpt lat="42.0260477" lon="-8.0832425"><ele>1318.0</ele><time>2026-04-18T16:10:30.785Z</time></trkpt><trkpt lat="42.026139" lon="-8.0832039"><ele>1319.1666666666665</ele><time>2026-04-18T16:10:32.786Z</time></trkpt><trkpt lat="42.0261982" lon="-8.0831708"><ele>1320.3333333333333</ele><time>2026-04-18T16:10:35.786Z</time></trkpt><trkpt lat="42.0262458" lon="-8.0830816"><ele>1321.5</ele><time>2026-04-18T16:13:33.787Z</time></trkpt><trkpt lat="42.0263013" lon="-8.0829601"><ele>1322.6666666666667</ele><time>2026-04-18T16:13:35.787Z</time></trkpt><trkpt lat="42.0263424" lon="-8.082882"><ele>1323.8333333333335</ele><time>2026-04-18T16:13:36.786Z</time></trkpt><trkpt lat="42.0263848" lon="-8.0828015"><ele>1325.0</ele><time>2026-04-18T16:13:37.787Z</time></trkpt><trkpt lat="42.026431" lon="-8.0827075"><ele>1325.0</ele><time>2026-04-18T16:13:38.786Z</time></trkpt><trkpt lat="42.0264786" lon="-8.082608"><ele>1325.0</ele><time>2026-04-18T16:13:39.786Z</time></trkpt><trkpt lat="42.0265285" lon="-8.0824978"><ele>1325.0</ele><time>2026-04-18T16:13:40.786Z</time></trkpt><trkpt lat="42.0265776" lon="-8.0823899"><ele>1325.0</ele><time>2026-04-18T16:13:41.788Z</time></trkpt><trkpt lat="42.0266267" lon="-8.0822879"><ele>1325.0</ele><time>2026-04-18T16:13:42.787Z</time></trkpt><trkpt lat="42.0266785" lon="-8.0821887"><ele>1325.8333333333335</ele><time>2026-04-18T16:13:43.788Z</time></trkpt><trkpt lat="42.0267266" lon="-8.0820903"><ele>1326.6666666666667</ele><time>2026-04-18T16:13:44.786Z</time></trkpt><trkpt lat="42.0267733" lon="-8.0819906"><ele>1327.5</ele><time>2026-04-18T16:13:45.788Z</time></trkpt><trkpt lat="42.0268187" lon="-8.0818952"><ele>1328.3333333333333</ele><time>2026-04-18T16:13:46.786Z</time></trkpt><trkpt lat="42.026864" lon="-8.0818002"><ele>1329.1666666666665</ele><time>2026-04-18T16:13:47.786Z</time></trkpt><trkpt lat="42.0269089" lon="-8.0817069"><ele>1330.0</ele><time>2026-04-18T16:13:48.787Z</time></trkpt><trkpt lat="42.0269533" lon="-8.0816153"><ele>1329.8</ele><time>2026-04-18T16:13:49.787Z</time></trkpt><trkpt lat="42.0269965" lon="-8.08153"><ele>1329.6</ele><time>2026-04-18T16:13:50.788Z</time></trkpt><trkpt lat="42.0270354" lon="-8.0814501"><ele>1329.4</ele><time>2026-04-18T16:13:51.787Z</time></trkpt><trkpt lat="42.0271016" lon="-8.0813237"><ele>1329.2</ele><time>2026-04-18T16:13:53.787Z</time></trkpt><trkpt lat="42.0272004" lon="-8.0812172"><ele>1329.0</ele><time>2026-04-18T16:13:55.785Z</time></trkpt><trkpt lat="42.0272609" lon="-8.0811805"><ele>1329.0</ele><time>2026-04-18T16:13:56.786Z</time></trkpt><trkpt lat="42.0273262" lon="-8.0811555"><ele>1329.0</ele><time>2026-04-18T16:13:57.786Z</time></trkpt><trkpt lat="42.0273949" lon="-8.081139"><ele>1329.0</ele><time>2026-04-18T16:13:58.787Z</time></trkpt><trkpt lat="42.027471" lon="-8.0811259"><ele>1329.0</ele><time>2026-04-18T16:13:59.787Z</time></trkpt><trkpt lat="42.027554" lon="-8.0811127"><ele>1329.0</ele><time>2026-04-18T16:14:00.787Z</time></trkpt><trkpt lat="42.0276353" lon="-8.0810972"><ele>1329.0</ele><time>2026-04-18T16:14:01.787Z</time></trkpt><trkpt lat="42.0277073" lon="-8.0810818"><ele>1328.8000000000002</ele><time>2026-04-18T16:14:02.789Z</time></trkpt><trkpt lat="42.0277688" lon="-8.0810635"><ele>1328.6000000000001</ele><time>2026-04-18T16:14:03.787Z</time></trkpt><trkpt lat="42.0278307" lon="-8.0810466"><ele>1328.4</ele><time>2026-04-18T16:14:04.786Z</time></trkpt><trkpt lat="42.0279485" lon="-8.0810181"><ele>1328.2</ele><time>2026-04-18T16:14:06.787Z</time></trkpt><trkpt lat="42.0280607" lon="-8.0809894"><ele>1328.0</ele><time>2026-04-18T16:14:08.787Z</time></trkpt><trkpt lat="42.0281654" lon="-8.080972"><ele>1328.0</ele><time>2026-04-18T16:14:10.786Z</time></trkpt><trkpt lat="42.0282645" lon="-8.0809509"><ele>1328.0</ele><time>2026-04-18T16:14:12.786Z</time></trkpt><trkpt lat="42.0283807" lon="-8.0809307"><ele>1328.0</ele><time>2026-04-18T16:14:14.788Z</time></trkpt><trkpt lat="42.0284933" lon="-8.0808941"><ele>1328.0</ele><time>2026-04-18T16:14:16.787Z</time></trkpt><trkpt lat="42.0285472" lon="-8.0808"><ele>1328.0</ele><time>2026-04-18T16:14:18.787Z</time></trkpt><trkpt lat="42.0285602" lon="-8.0807155"><ele>1326.8333333333335</ele><time>2026-04-18T16:14:19.787Z</time></trkpt><trkpt lat="42.0285673" lon="-8.0806063"><ele>1325.6666666666667</ele><time>2026-04-18T16:14:20.787Z</time></trkpt><trkpt lat="42.0285741" lon="-8.0804825"><ele>1324.5</ele><time>2026-04-18T16:14:21.786Z</time></trkpt><trkpt lat="42.028589" lon="-8.0803629"><ele>1323.3333333333333</ele><time>2026-04-18T16:14:22.787Z</time></trkpt><trkpt lat="42.0286109" lon="-8.0802596"><ele>1322.1666666666665</ele><time>2026-04-18T16:14:23.787Z</time></trkpt><trkpt lat="42.0286398" lon="-8.0801763"><ele>1321.0</ele><time>2026-04-18T16:14:24.785Z</time></trkpt><trkpt lat="42.0287245" lon="-8.0800924"><ele>1321.0</ele><time>2026-04-18T16:14:26.786Z</time></trkpt><trkpt lat="42.0287931" lon="-8.080092"><ele>1321.0</ele><time>2026-04-18T16:14:27.786Z</time></trkpt><trkpt lat="42.0288797" lon="-8.0801107"><ele>1321.0</ele><time>2026-04-18T16:14:28.786Z</time></trkpt><trkpt lat="42.028958" lon="-8.0801275"><ele>1321.0</ele><time>2026-04-18T16:14:29.786Z</time></trkpt><trkpt lat="42.0290596" lon="-8.0801462"><ele>1321.0</ele><time>2026-04-18T16:14:31.787Z</time></trkpt><trkpt lat="42.0291145" lon="-8.08008"><ele>1321.0</ele><time>2026-04-18T16:14:34.785Z</time></trkpt><trkpt lat="42.0291479" lon="-8.0799906"><ele>1320.7142857142856</ele><time>2026-04-18T16:14:36.786Z</time></trkpt><trkpt lat="42.0291799" lon="-8.0798977"><ele>1320.4285714285716</ele><time>2026-04-18T16:14:38.785Z</time></trkpt><trkpt lat="42.0292165" lon="-8.0798127"><ele>1320.142857142857</ele><time>2026-04-18T16:14:41.785Z</time></trkpt><trkpt lat="42.0291615" lon="-8.0797623"><ele>1319.8571428571427</ele><time>2026-04-18T16:16:06.785Z</time></trkpt><trkpt lat="42.0291061" lon="-8.0798192"><ele>1319.5714285714284</ele><time>2026-04-18T16:16:10.785Z</time></trkpt><trkpt lat="42.0291379" lon="-8.0799167"><ele>1319.2857142857142</ele><time>2026-04-18T16:16:13.786Z</time></trkpt><trkpt lat="42.0291636" lon="-8.0799971"><ele>1319.0</ele><time>2026-04-18T16:16:15.785Z</time></trkpt><trkpt lat="42.0291765" lon="-8.0801002"><ele>1319.0</ele><time>2026-04-18T16:16:18.785Z</time></trkpt><trkpt lat="42.0292051" lon="-8.0801831"><ele>1319.0</ele><time>2026-04-18T16:16:33.784Z</time></trkpt><trkpt lat="42.0292955" lon="-8.0801885"><ele>1319.0</ele><time>2026-04-18T16:16:35.787Z</time></trkpt><trkpt lat="42.0293831" lon="-8.0801635"><ele>1319.0</ele><time>2026-04-18T16:16:37.787Z</time></trkpt><trkpt lat="42.0294735" lon="-8.0801006"><ele>1319.0</ele><time>2026-04-18T16:16:39.787Z</time></trkpt><trkpt lat="42.029567" lon="-8.08003"><ele>1319.0</ele><time>2026-04-18T16:16:41.787Z</time></trkpt><trkpt lat="42.0296627" lon="-8.0799532"><ele>1319.0</ele><time>2026-04-18T16:16:43.786Z</time></trkpt><trkpt lat="42.029738" lon="-8.0798957"><ele>1319.0</ele><time>2026-04-18T16:16:45.788Z</time></trkpt><trkpt lat="42.0298503" lon="-8.079854"><ele>1319.0</ele><time>2026-04-18T16:16:47.787Z</time></trkpt><trkpt lat="42.0299216" lon="-8.0798439"><ele>1319.0</ele><time>2026-04-18T16:16:48.785Z</time></trkpt><trkpt lat="42.0300021" lon="-8.0798441"><ele>1315.4</ele><time>2026-04-18T16:16:49.787Z</time></trkpt><trkpt lat="42.0300919" lon="-8.0798507"><ele>1311.8000000000002</ele><time>2026-04-18T16:16:50.786Z</time></trkpt><trkpt lat="42.0301902" lon="-8.0798596"><ele>1308.1999999999998</ele><time>2026-04-18T16:16:51.787Z</time></trkpt><trkpt lat="42.030286" lon="-8.0798659"><ele>1304.6</ele><time>2026-04-18T16:16:52.784Z</time></trkpt><trkpt lat="42.0303741" lon="-8.0798736"><ele>1301.0</ele><time>2026-04-18T16:16:53.786Z</time></trkpt><trkpt lat="42.0304529" lon="-8.0798876"><ele>1301.0</ele><time>2026-04-18T16:16:54.787Z</time></trkpt><trkpt lat="42.0305212" lon="-8.0799194"><ele>1301.0</ele><time>2026-04-18T16:16:55.786Z</time></trkpt><trkpt lat="42.0305912" lon="-8.0799765"><ele>1301.0</ele><time>2026-04-18T16:16:56.786Z</time></trkpt><trkpt lat="42.0306657" lon="-8.0800609"><ele>1301.0</ele><time>2026-04-18T16:16:57.786Z</time></trkpt><trkpt lat="42.0307417" lon="-8.0801594"><ele>1301.0</ele><time>2026-04-18T16:16:58.783Z</time></trkpt><trkpt lat="42.0308214" lon="-8.0802547"><ele>1301.5</ele><time>2026-04-18T16:16:59.786Z</time></trkpt><trkpt lat="42.0308965" lon="-8.0803392"><ele>1302.0</ele><time>2026-04-18T16:17:00.787Z</time></trkpt><trkpt lat="42.0309607" lon="-8.0804088"><ele>1302.5</ele><time>2026-04-18T16:17:01.786Z</time></trkpt><trkpt lat="42.0310208" lon="-8.0804569"><ele>1303.0</ele><time>2026-04-18T16:17:02.787Z</time></trkpt><trkpt lat="42.0310803" lon="-8.0804902"><ele>1303.5</ele><time>2026-04-18T16:17:03.787Z</time></trkpt><trkpt lat="42.0311476" lon="-8.0805093"><ele>1304.0</ele><time>2026-04-18T16:17:04.787Z</time></trkpt><trkpt lat="42.0312339" lon="-8.0805238"><ele>1304.0</ele><time>2026-04-18T16:17:05.786Z</time></trkpt><trkpt lat="42.0313308" lon="-8.0805481"><ele>1304.0</ele><time>2026-04-18T16:17:06.788Z</time></trkpt><trkpt lat="42.0314423" lon="-8.0805708"><ele>1304.0</ele><time>2026-04-18T16:17:07.786Z</time></trkpt><trkpt lat="42.0315568" lon="-8.080591"><ele>1304.0</ele><time>2026-04-18T16:17:08.786Z</time></trkpt><trkpt lat="42.0316692" lon="-8.0806123"><ele>1304.0</ele><time>2026-04-18T16:17:09.787Z</time></trkpt><trkpt lat="42.0317822" lon="-8.0806351"><ele>1303.6</ele><time>2026-04-18T16:17:10.785Z</time></trkpt><trkpt lat="42.0318977" lon="-8.0806577"><ele>1303.2</ele><time>2026-04-18T16:17:11.786Z</time></trkpt><trkpt lat="42.0320008" lon="-8.0806789"><ele>1302.8</ele><time>2026-04-18T16:17:12.787Z</time></trkpt><trkpt lat="42.0320904" lon="-8.0806922"><ele>1302.3999999999999</ele><time>2026-04-18T16:17:13.786Z</time></trkpt><trkpt lat="42.0321746" lon="-8.0807031"><ele>1302.0</ele><time>2026-04-18T16:17:14.786Z</time></trkpt><trkpt lat="42.0322586" lon="-8.0807184"><ele>1302.0</ele><time>2026-04-18T16:17:15.787Z</time></trkpt><trkpt lat="42.0323459" lon="-8.0807378"><ele>1302.0</ele><time>2026-04-18T16:17:16.787Z</time></trkpt><trkpt lat="42.0324317" lon="-8.0807572"><ele>1302.0</ele><time>2026-04-18T16:17:17.788Z</time></trkpt><trkpt lat="42.0325168" lon="-8.0807802"><ele>1302.0</ele><time>2026-04-18T16:17:18.786Z</time></trkpt><trkpt lat="42.0325954" lon="-8.0807993"><ele>1302.0</ele><time>2026-04-18T16:17:19.788Z</time></trkpt><trkpt lat="42.0326744" lon="-8.0808157"><ele>1302.0</ele><time>2026-04-18T16:17:20.786Z</time></trkpt><trkpt lat="42.0327499" lon="-8.0808303"><ele>1301.3999999999999</ele><time>2026-04-18T16:17:21.787Z</time></trkpt><trkpt lat="42.0328299" lon="-8.0808449"><ele>1300.8</ele><time>2026-04-18T16:17:22.786Z</time></trkpt><trkpt lat="42.032914" lon="-8.080858"><ele>1300.2</ele><time>2026-04-18T16:17:23.786Z</time></trkpt><trkpt lat="42.0330105" lon="-8.080869"><ele>1299.6</ele><time>2026-04-18T16:17:24.785Z</time></trkpt><trkpt lat="42.0331071" lon="-8.0808827"><ele>1299.0</ele><time>2026-04-18T16:17:25.785Z</time></trkpt><trkpt lat="42.0332146" lon="-8.0808988"><ele>1297.6</ele><time>2026-04-18T16:17:26.786Z</time></trkpt><trkpt lat="42.0333281" lon="-8.0809202"><ele>1296.2</ele><time>2026-04-18T16:17:27.787Z</time></trkpt><trkpt lat="42.033437" lon="-8.080942"><ele>1294.8</ele><time>2026-04-18T16:17:28.786Z</time></trkpt><trkpt lat="42.0335428" lon="-8.0809593"><ele>1293.3999999999999</ele><time>2026-04-18T16:17:29.785Z</time></trkpt><trkpt lat="42.0336465" lon="-8.0809758"><ele>1292.0</ele><time>2026-04-18T16:17:30.786Z</time></trkpt><trkpt lat="42.0337498" lon="-8.080993"><ele>1292.0</ele><time>2026-04-18T16:17:31.787Z</time></trkpt><trkpt lat="42.0338546" lon="-8.0810132"><ele>1292.0</ele><time>2026-04-18T16:17:32.786Z</time></trkpt><trkpt lat="42.0339637" lon="-8.0810369"><ele>1292.0</ele><time>2026-04-18T16:17:33.787Z</time></trkpt><trkpt lat="42.0340698" lon="-8.0810631"><ele>1292.0</ele><time>2026-04-18T16:17:34.787Z</time></trkpt><trkpt lat="42.0341711" lon="-8.0810836"><ele>1292.0</ele><time>2026-04-18T16:17:35.786Z</time></trkpt><trkpt lat="42.0342726" lon="-8.0811073"><ele>1290.3999999999999</ele><time>2026-04-18T16:17:36.786Z</time></trkpt><trkpt lat="42.0343766" lon="-8.08113"><ele>1288.8</ele><time>2026-04-18T16:17:37.787Z</time></trkpt><trkpt lat="42.0344799" lon="-8.0811494"><ele>1287.2</ele><time>2026-04-18T16:17:38.787Z</time></trkpt><trkpt lat="42.0345804" lon="-8.081173"><ele>1285.6</ele><time>2026-04-18T16:17:39.787Z</time></trkpt><trkpt lat="42.034683" lon="-8.081198"><ele>1284.0</ele><time>2026-04-18T16:17:40.787Z</time></trkpt><trkpt lat="42.0347895" lon="-8.0812202"><ele>1284.0</ele><time>2026-04-18T16:17:41.787Z</time></trkpt><trkpt lat="42.0349007" lon="-8.0812418"><ele>1284.0</ele><time>2026-04-18T16:17:42.786Z</time></trkpt><trkpt lat="42.0350125" lon="-8.0812648"><ele>1284.0</ele><time>2026-04-18T16:17:43.787Z</time></trkpt><trkpt lat="42.0351176" lon="-8.0812826"><ele>1284.0</ele><time>2026-04-18T16:17:44.788Z</time></trkpt><trkpt lat="42.0352164" lon="-8.0812964"><ele>1284.0</ele><time>2026-04-18T16:17:45.787Z</time></trkpt><trkpt lat="42.0353059" lon="-8.0813092"><ele>1282.6000000000001</ele><time>2026-04-18T16:17:46.787Z</time></trkpt><trkpt lat="42.0353931" lon="-8.0813244"><ele>1281.2</ele><time>2026-04-18T16:17:47.788Z</time></trkpt><trkpt lat="42.0354833" lon="-8.0813456"><ele>1279.8000000000002</ele><time>2026-04-18T16:17:48.787Z</time></trkpt><trkpt lat="42.035585" lon="-8.081375"><ele>1278.4</ele><time>2026-04-18T16:17:49.787Z</time></trkpt><trkpt lat="42.0356893" lon="-8.081403"><ele>1277.0</ele><time>2026-04-18T16:17:50.789Z</time></trkpt><trkpt lat="42.0357943" lon="-8.0814277"><ele>1275.8</ele><time>2026-04-18T16:17:51.787Z</time></trkpt><trkpt lat="42.0358999" lon="-8.0814519"><ele>1274.6</ele><time>2026-04-18T16:17:52.787Z</time></trkpt><trkpt lat="42.0360078" lon="-8.0814741"><ele>1273.3999999999999</ele><time>2026-04-18T16:17:53.788Z</time></trkpt><trkpt lat="42.0361078" lon="-8.0814884"><ele>1272.2</ele><time>2026-04-18T16:17:54.788Z</time></trkpt><trkpt lat="42.0361935" lon="-8.081493"><ele>1271.0</ele><time>2026-04-18T16:17:55.787Z</time></trkpt><trkpt lat="42.0362697" lon="-8.0814778"><ele>1271.0</ele><time>2026-04-18T16:17:56.789Z</time></trkpt><trkpt lat="42.0363387" lon="-8.0814389"><ele>1271.0</ele><time>2026-04-18T16:17:57.787Z</time></trkpt><trkpt lat="42.0364137" lon="-8.0813699"><ele>1271.0</ele><time>2026-04-18T16:17:58.787Z</time></trkpt><trkpt lat="42.0365003" lon="-8.0812861"><ele>1271.0</ele><time>2026-04-18T16:17:59.787Z</time></trkpt><trkpt lat="42.0365927" lon="-8.0812077"><ele>1271.0</ele><time>2026-04-18T16:18:00.787Z</time></trkpt><trkpt lat="42.036685" lon="-8.0811334"><ele>1270.6666666666667</ele><time>2026-04-18T16:18:01.787Z</time></trkpt><trkpt lat="42.0367731" lon="-8.0810599"><ele>1270.3333333333335</ele><time>2026-04-18T16:18:02.789Z</time></trkpt><trkpt lat="42.0368569" lon="-8.0809976"><ele>1270.0</ele><time>2026-04-18T16:18:03.787Z</time></trkpt><trkpt lat="42.0369329" lon="-8.080947"><ele>1269.6666666666667</ele><time>2026-04-18T16:18:04.787Z</time></trkpt><trkpt lat="42.0370002" lon="-8.0809035"><ele>1269.3333333333333</ele><time>2026-04-18T16:18:05.787Z</time></trkpt><trkpt lat="42.0370635" lon="-8.0808554"><ele>1269.0</ele><time>2026-04-18T16:18:06.788Z</time></trkpt><trkpt lat="42.0371302" lon="-8.0807982"><ele>1268.1666666666667</ele><time>2026-04-18T16:18:07.787Z</time></trkpt><trkpt lat="42.0371997" lon="-8.080735"><ele>1267.3333333333333</ele><time>2026-04-18T16:18:08.788Z</time></trkpt><trkpt lat="42.0372696" lon="-8.0806768"><ele>1266.5</ele><time>2026-04-18T16:18:09.786Z</time></trkpt><trkpt lat="42.0373408" lon="-8.08063"><ele>1265.6666666666665</ele><time>2026-04-18T16:18:10.787Z</time></trkpt><trkpt lat="42.0374111" lon="-8.0805998"><ele>1264.8333333333333</ele><time>2026-04-18T16:18:11.787Z</time></trkpt><trkpt lat="42.0374852" lon="-8.0805945"><ele>1264.0</ele><time>2026-04-18T16:18:12.787Z</time></trkpt><trkpt lat="42.0375717" lon="-8.0806262"><ele>1264.0</ele><time>2026-04-18T16:18:13.788Z</time></trkpt><trkpt lat="42.0376773" lon="-8.0806971"><ele>1264.0</ele><time>2026-04-18T16:18:14.789Z</time></trkpt><trkpt lat="42.0377999" lon="-8.0807954"><ele>1264.0</ele><time>2026-04-18T16:18:15.787Z</time></trkpt><trkpt lat="42.0379008" lon="-8.0808815"><ele>1264.0</ele><time>2026-04-18T16:18:16.787Z</time></trkpt><trkpt lat="42.0379983" lon="-8.0809596"><ele>1264.0</ele><time>2026-04-18T16:18:17.787Z</time></trkpt><trkpt lat="42.0380985" lon="-8.0810196"><ele>1264.0</ele><time>2026-04-18T16:18:18.787Z</time></trkpt><trkpt lat="42.0381977" lon="-8.0810728"><ele>1264.0</ele><time>2026-04-18T16:18:19.787Z</time></trkpt><trkpt lat="42.0382938" lon="-8.0811378"><ele>1264.0</ele><time>2026-04-18T16:18:20.788Z</time></trkpt><trkpt lat="42.0383864" lon="-8.0812138"><ele>1264.0</ele><time>2026-04-18T16:18:21.786Z</time></trkpt><trkpt lat="42.0384794" lon="-8.0812871"><ele>1264.0</ele><time>2026-04-18T16:18:22.787Z</time></trkpt><trkpt lat="42.0385728" lon="-8.0813537"><ele>1264.0</ele><time>2026-04-18T16:18:23.787Z</time></trkpt><trkpt lat="42.0386698" lon="-8.0814199"><ele>1264.0</ele><time>2026-04-18T16:18:24.787Z</time></trkpt><trkpt lat="42.0387641" lon="-8.0814888"><ele>1264.0</ele><time>2026-04-18T16:18:25.788Z</time></trkpt><trkpt lat="42.0388616" lon="-8.0815491"><ele>1264.0</ele><time>2026-04-18T16:18:26.786Z</time></trkpt><trkpt lat="42.0389587" lon="-8.0815996"><ele>1263.4</ele><time>2026-04-18T16:18:27.788Z</time></trkpt><trkpt lat="42.0390483" lon="-8.0816391"><ele>1262.8000000000002</ele><time>2026-04-18T16:18:28.788Z</time></trkpt><trkpt lat="42.0391298" lon="-8.0816816"><ele>1262.1999999999998</ele><time>2026-04-18T16:18:29.788Z</time></trkpt><trkpt lat="42.0392163" lon="-8.0817234"><ele>1261.6</ele><time>2026-04-18T16:18:30.785Z</time></trkpt><trkpt lat="42.0393109" lon="-8.0817778"><ele>1261.0</ele><time>2026-04-18T16:18:31.788Z</time></trkpt><trkpt lat="42.039405" lon="-8.0818295"><ele>1262.2</ele><time>2026-04-18T16:18:32.787Z</time></trkpt><trkpt lat="42.0395001" lon="-8.0818813"><ele>1263.3999999999999</ele><time>2026-04-18T16:18:33.787Z</time></trkpt><trkpt lat="42.0395941" lon="-8.0819327"><ele>1264.6</ele><time>2026-04-18T16:18:34.787Z</time></trkpt><trkpt lat="42.0396889" lon="-8.0819817"><ele>1265.8</ele><time>2026-04-18T16:18:35.788Z</time></trkpt><trkpt lat="42.0397856" lon="-8.082033"><ele>1267.0</ele><time>2026-04-18T16:18:36.787Z</time></trkpt><trkpt lat="42.0398813" lon="-8.0820875"><ele>1269.2</ele><time>2026-04-18T16:18:37.787Z</time></trkpt><trkpt lat="42.039979" lon="-8.0821417"><ele>1271.4</ele><time>2026-04-18T16:18:38.788Z</time></trkpt><trkpt lat="42.0400761" lon="-8.0821959"><ele>1273.6</ele><time>2026-04-18T16:18:39.788Z</time></trkpt><trkpt lat="42.0401716" lon="-8.0822522"><ele>1275.8</ele><time>2026-04-18T16:18:40.787Z</time></trkpt><trkpt lat="42.0402667" lon="-8.0823075"><ele>1278.0</ele><time>2026-04-18T16:18:41.787Z</time></trkpt><trkpt lat="42.0403643" lon="-8.0823568"><ele>1278.0</ele><time>2026-04-18T16:18:42.785Z</time></trkpt><trkpt lat="42.0404655" lon="-8.0823963"><ele>1278.0</ele><time>2026-04-18T16:18:43.787Z</time></trkpt><trkpt lat="42.040569" lon="-8.0824224"><ele>1278.0</ele><time>2026-04-18T16:18:44.789Z</time></trkpt><trkpt lat="42.0406745" lon="-8.0824384"><ele>1278.0</ele><time>2026-04-18T16:18:45.787Z</time></trkpt><trkpt lat="42.0407842" lon="-8.082452"><ele>1278.0</ele><time>2026-04-18T16:18:46.788Z</time></trkpt><trkpt lat="42.0408999" lon="-8.0824682"><ele>1277.25</ele><time>2026-04-18T16:18:47.787Z</time></trkpt><trkpt lat="42.0410237" lon="-8.0824835"><ele>1276.5</ele><time>2026-04-18T16:18:48.788Z</time></trkpt><trkpt lat="42.0411493" lon="-8.082501"><ele>1275.75</ele><time>2026-04-18T16:18:49.787Z</time></trkpt><trkpt lat="42.0412693" lon="-8.0825124"><ele>1275.0</ele><time>2026-04-18T16:18:50.786Z</time></trkpt><trkpt lat="42.041376" lon="-8.0825031"><ele>1275.0</ele><time>2026-04-18T16:18:51.789Z</time></trkpt><trkpt lat="42.0414723" lon="-8.0824789"><ele>1275.0</ele><time>2026-04-18T16:18:52.788Z</time></trkpt><trkpt lat="42.0415718" lon="-8.0824378"><ele>1275.0</ele><time>2026-04-18T16:18:53.788Z</time></trkpt><trkpt lat="42.0416724" lon="-8.0823793"><ele>1275.0</ele><time>2026-04-18T16:18:54.787Z</time></trkpt><trkpt lat="42.0417616" lon="-8.0823111"><ele>1275.0</ele><time>2026-04-18T16:18:55.786Z</time></trkpt><trkpt lat="42.0418436" lon="-8.0822332"><ele>1277.8</ele><time>2026-04-18T16:18:56.788Z</time></trkpt><trkpt lat="42.041909" lon="-8.0821438"><ele>1280.6</ele><time>2026-04-18T16:18:57.788Z</time></trkpt><trkpt lat="42.0419618" lon="-8.0820493"><ele>1283.4</ele><time>2026-04-18T16:18:58.787Z</time></trkpt><trkpt lat="42.0420059" lon="-8.0819453"><ele>1286.2</ele><time>2026-04-18T16:18:59.787Z</time></trkpt><trkpt lat="42.0420421" lon="-8.0818312"><ele>1289.0</ele><time>2026-04-18T16:19:00.788Z</time></trkpt><trkpt lat="42.0420825" lon="-8.0817116"><ele>1289.6</ele><time>2026-04-18T16:19:01.787Z</time></trkpt><trkpt lat="42.042128" lon="-8.0815919"><ele>1290.2</ele><time>2026-04-18T16:19:02.786Z</time></trkpt><trkpt lat="42.0421817" lon="-8.0814754"><ele>1290.8</ele><time>2026-04-18T16:19:03.788Z</time></trkpt><trkpt lat="42.0422397" lon="-8.0813629"><ele>1291.3999999999999</ele><time>2026-04-18T16:19:04.787Z</time></trkpt><trkpt lat="42.0422987" lon="-8.0812504"><ele>1292.0</ele><time>2026-04-18T16:19:05.787Z</time></trkpt><trkpt lat="42.0423499" lon="-8.0811333"><ele>1292.0</ele><time>2026-04-18T16:19:06.787Z</time></trkpt><trkpt lat="42.0423951" lon="-8.0810134"><ele>1292.0</ele><time>2026-04-18T16:19:07.787Z</time></trkpt><trkpt lat="42.0424521" lon="-8.0809029"><ele>1292.0</ele><time>2026-04-18T16:19:08.788Z</time></trkpt><trkpt lat="42.042521" lon="-8.0808028"><ele>1292.0</ele><time>2026-04-18T16:19:09.786Z</time></trkpt><trkpt lat="42.0426005" lon="-8.080697"><ele>1292.0</ele><time>2026-04-18T16:19:10.785Z</time></trkpt><trkpt lat="42.0426848" lon="-8.0805917"><ele>1292.8</ele><time>2026-04-18T16:19:11.787Z</time></trkpt><trkpt lat="42.0427678" lon="-8.0804915"><ele>1293.6</ele><time>2026-04-18T16:19:12.787Z</time></trkpt><trkpt lat="42.0428497" lon="-8.0804007"><ele>1294.3999999999999</ele><time>2026-04-18T16:19:13.788Z</time></trkpt><trkpt lat="42.0429316" lon="-8.0803146"><ele>1295.1999999999998</ele><time>2026-04-18T16:19:14.788Z</time></trkpt><trkpt lat="42.0430076" lon="-8.0802198"><ele>1296.0</ele><time>2026-04-18T16:19:15.788Z</time></trkpt><trkpt lat="42.0430879" lon="-8.0801129"><ele>1296.0</ele><time>2026-04-18T16:19:16.787Z</time></trkpt><trkpt lat="42.0431744" lon="-8.0799989"><ele>1296.0</ele><time>2026-04-18T16:19:17.788Z</time></trkpt><trkpt lat="42.0432674" lon="-8.079872"><ele>1296.0</ele><time>2026-04-18T16:19:18.787Z</time></trkpt><trkpt lat="42.0433625" lon="-8.0797426"><ele>1296.0</ele><time>2026-04-18T16:19:19.788Z</time></trkpt><trkpt lat="42.043457" lon="-8.0796162"><ele>1296.0</ele><time>2026-04-18T16:19:20.787Z</time></trkpt><trkpt lat="42.043556" lon="-8.0794908"><ele>1296.0</ele><time>2026-04-18T16:19:21.785Z</time></trkpt><trkpt lat="42.043659" lon="-8.0793599"><ele>1296.0</ele><time>2026-04-18T16:19:22.785Z</time></trkpt><trkpt lat="42.0437603" lon="-8.0792289"><ele>1296.0</ele><time>2026-04-18T16:19:23.787Z</time></trkpt><trkpt lat="42.0438612" lon="-8.079104"><ele>1296.0</ele><time>2026-04-18T16:19:24.787Z</time></trkpt><trkpt lat="42.0439566" lon="-8.0789812"><ele>1296.0</ele><time>2026-04-18T16:19:25.787Z</time></trkpt><trkpt lat="42.0440426" lon="-8.0788544"><ele>1296.0</ele><time>2026-04-18T16:19:26.788Z</time></trkpt><trkpt lat="42.0441201" lon="-8.0787248"><ele>1296.0</ele><time>2026-04-18T16:19:27.787Z</time></trkpt><trkpt lat="42.0441967" lon="-8.0785882"><ele>1295.5</ele><time>2026-04-18T16:19:28.785Z</time></trkpt><trkpt lat="42.0442703" lon="-8.078445"><ele>1295.0</ele><time>2026-04-18T16:19:29.785Z</time></trkpt><trkpt lat="42.044343" lon="-8.078305"><ele>1294.5</ele><time>2026-04-18T16:19:30.788Z</time></trkpt><trkpt lat="42.0444085" lon="-8.078177"><ele>1294.0</ele><time>2026-04-18T16:19:31.785Z</time></trkpt><trkpt lat="42.0444647" lon="-8.0780539"><ele>1293.5</ele><time>2026-04-18T16:19:32.785Z</time></trkpt><trkpt lat="42.0445108" lon="-8.0779313"><ele>1293.0</ele><time>2026-04-18T16:19:33.787Z</time></trkpt><trkpt lat="42.0445447" lon="-8.0778216"><ele>1292.5</ele><time>2026-04-18T16:19:34.787Z</time></trkpt><trkpt lat="42.0445728" lon="-8.0777302"><ele>1292.0</ele><time>2026-04-18T16:19:35.788Z</time></trkpt><trkpt lat="42.0446068" lon="-8.0776489"><ele>1291.5</ele><time>2026-04-18T16:19:36.787Z</time></trkpt><trkpt lat="42.0446459" lon="-8.0775703"><ele>1291.0</ele><time>2026-04-18T16:19:37.787Z</time></trkpt><trkpt lat="42.0446936" lon="-8.0774881"><ele>1290.0</ele><time>2026-04-18T16:19:38.788Z</time></trkpt><trkpt lat="42.04475" lon="-8.0774058"><ele>1289.0</ele><time>2026-04-18T16:19:39.786Z</time></trkpt><trkpt lat="42.0448147" lon="-8.0773243"><ele>1288.0</ele><time>2026-04-18T16:19:40.787Z</time></trkpt><trkpt lat="42.0448871" lon="-8.0772462"><ele>1287.0</ele><time>2026-04-18T16:19:41.788Z</time></trkpt><trkpt lat="42.0449653" lon="-8.0771714"><ele>1286.0</ele><time>2026-04-18T16:19:42.787Z</time></trkpt><trkpt lat="42.045048" lon="-8.0770954"><ele>1285.4</ele><time>2026-04-18T16:19:43.786Z</time></trkpt><trkpt lat="42.0451249" lon="-8.0770214"><ele>1284.8</ele><time>2026-04-18T16:19:44.786Z</time></trkpt><trkpt lat="42.0451958" lon="-8.0769497"><ele>1284.2</ele><time>2026-04-18T16:19:45.787Z</time></trkpt><trkpt lat="42.0452654" lon="-8.0768783"><ele>1283.6000000000001</ele><time>2026-04-18T16:19:46.787Z</time></trkpt><trkpt lat="42.0453395" lon="-8.076801"><ele>1283.0</ele><time>2026-04-18T16:19:47.787Z</time></trkpt><trkpt lat="42.045413" lon="-8.0767161"><ele>1283.0</ele><time>2026-04-18T16:19:48.788Z</time></trkpt><trkpt lat="42.0454861" lon="-8.0766321"><ele>1283.0</ele><time>2026-04-18T16:19:49.787Z</time></trkpt><trkpt lat="42.0455638" lon="-8.0765646"><ele>1283.0</ele><time>2026-04-18T16:19:50.786Z</time></trkpt><trkpt lat="42.0456563" lon="-8.0765137"><ele>1283.0</ele><time>2026-04-18T16:19:51.788Z</time></trkpt><trkpt lat="42.0457596" lon="-8.0764755"><ele>1283.0</ele><time>2026-04-18T16:19:52.787Z</time></trkpt><trkpt lat="42.0458659" lon="-8.0764525"><ele>1281.2</ele><time>2026-04-18T16:19:53.787Z</time></trkpt><trkpt lat="42.0459647" lon="-8.0764378"><ele>1279.4</ele><time>2026-04-18T16:19:54.789Z</time></trkpt><trkpt lat="42.0460576" lon="-8.0764242"><ele>1277.6000000000001</ele><time>2026-04-18T16:19:55.788Z</time></trkpt><trkpt lat="42.0461491" lon="-8.0764102"><ele>1275.8000000000002</ele><time>2026-04-18T16:19:56.788Z</time></trkpt><trkpt lat="42.0462379" lon="-8.0763946"><ele>1274.0</ele><time>2026-04-18T16:19:57.789Z</time></trkpt><trkpt lat="42.0463186" lon="-8.0763855"><ele>1274.0</ele><time>2026-04-18T16:19:58.788Z</time></trkpt><trkpt lat="42.046394" lon="-8.0763862"><ele>1274.0</ele><time>2026-04-18T16:19:59.787Z</time></trkpt><trkpt lat="42.046477" lon="-8.0763948"><ele>1274.0</ele><time>2026-04-18T16:20:00.789Z</time></trkpt><trkpt lat="42.0465703" lon="-8.0764109"><ele>1274.0</ele><time>2026-04-18T16:20:01.788Z</time></trkpt><trkpt lat="42.0466678" lon="-8.0764285"><ele>1274.0</ele><time>2026-04-18T16:20:02.788Z</time></trkpt><trkpt lat="42.0467579" lon="-8.0764378"><ele>1274.0</ele><time>2026-04-18T16:20:03.787Z</time></trkpt><trkpt lat="42.0468381" lon="-8.0764455"><ele>1274.1666666666667</ele><time>2026-04-18T16:20:04.788Z</time></trkpt><trkpt lat="42.0469097" lon="-8.0764423"><ele>1274.3333333333335</ele><time>2026-04-18T16:20:05.788Z</time></trkpt><trkpt lat="42.046974" lon="-8.0764129"><ele>1274.5</ele><time>2026-04-18T16:20:06.787Z</time></trkpt><trkpt lat="42.0470587" lon="-8.0763147"><ele>1274.6666666666667</ele><time>2026-04-18T16:20:08.787Z</time></trkpt><trkpt lat="42.0470626" lon="-8.0761547"><ele>1274.8333333333333</ele><time>2026-04-18T16:20:10.787Z</time></trkpt><trkpt lat="42.0470353" lon="-8.0760681"><ele>1275.0</ele><time>2026-04-18T16:20:11.788Z</time></trkpt><trkpt lat="42.0469934" lon="-8.0759707"><ele>1275.0</ele><time>2026-04-18T16:20:12.788Z</time></trkpt><trkpt lat="42.0469337" lon="-8.0758673"><ele>1275.0</ele><time>2026-04-18T16:20:13.787Z</time></trkpt><trkpt lat="42.0468651" lon="-8.0757732"><ele>1275.0</ele><time>2026-04-18T16:20:14.789Z</time></trkpt><trkpt lat="42.0467907" lon="-8.0756814"><ele>1275.0</ele><time>2026-04-18T16:20:15.787Z</time></trkpt><trkpt lat="42.0467093" lon="-8.0755877"><ele>1275.0</ele><time>2026-04-18T16:20:16.787Z</time></trkpt><trkpt lat="42.0466316" lon="-8.0754918"><ele>1273.0</ele><time>2026-04-18T16:20:17.787Z</time></trkpt><trkpt lat="42.0465638" lon="-8.0753941"><ele>1271.0</ele><time>2026-04-18T16:20:18.788Z</time></trkpt><trkpt lat="42.0465062" lon="-8.0752996"><ele>1269.0</ele><time>2026-04-18T16:20:19.787Z</time></trkpt><trkpt lat="42.0464653" lon="-8.0752098"><ele>1267.0</ele><time>2026-04-18T16:20:20.788Z</time></trkpt><trkpt lat="42.0464367" lon="-8.0751158"><ele>1265.0</ele><time>2026-04-18T16:20:21.788Z</time></trkpt><trkpt lat="42.0464274" lon="-8.0750169"><ele>1263.0</ele><time>2026-04-18T16:20:22.787Z</time></trkpt><trkpt lat="42.0464315" lon="-8.074908"><ele>1261.4</ele><time>2026-04-18T16:20:23.788Z</time></trkpt><trkpt lat="42.046448" lon="-8.0747812"><ele>1259.8</ele><time>2026-04-18T16:20:24.787Z</time></trkpt><trkpt lat="42.046472" lon="-8.0746461"><ele>1258.2</ele><time>2026-04-18T16:20:25.788Z</time></trkpt><trkpt lat="42.0464951" lon="-8.0745107"><ele>1256.6</ele><time>2026-04-18T16:20:26.788Z</time></trkpt><trkpt lat="42.046522" lon="-8.0743658"><ele>1255.0</ele><time>2026-04-18T16:20:27.787Z</time></trkpt><trkpt lat="42.0465479" lon="-8.0742108"><ele>1253.5</ele><time>2026-04-18T16:20:28.788Z</time></trkpt><trkpt lat="42.0465721" lon="-8.0740444"><ele>1252.0</ele><time>2026-04-18T16:20:29.788Z</time></trkpt><trkpt lat="42.0465904" lon="-8.0738713"><ele>1250.5</ele><time>2026-04-18T16:20:30.788Z</time></trkpt><trkpt lat="42.0466073" lon="-8.073696"><ele>1249.0</ele><time>2026-04-18T16:20:31.787Z</time></trkpt><trkpt lat="42.0466238" lon="-8.0735201"><ele>1249.75</ele><time>2026-04-18T16:20:32.788Z</time></trkpt><trkpt lat="42.0466389" lon="-8.0733484"><ele>1250.5</ele><time>2026-04-18T16:20:33.787Z</time></trkpt><trkpt lat="42.04666" lon="-8.0731779"><ele>1251.25</ele><time>2026-04-18T16:20:34.787Z</time></trkpt><trkpt lat="42.0466977" lon="-8.0730093"><ele>1252.0</ele><time>2026-04-18T16:20:35.788Z</time></trkpt><trkpt lat="42.0467489" lon="-8.0728454"><ele>1252.0</ele><time>2026-04-18T16:20:36.788Z</time></trkpt><trkpt lat="42.0468021" lon="-8.0726893"><ele>1252.0</ele><time>2026-04-18T16:20:37.788Z</time></trkpt><trkpt lat="42.0468627" lon="-8.072541"><ele>1252.0</ele><time>2026-04-18T16:20:38.788Z</time></trkpt><trkpt lat="42.0469271" lon="-8.0723956"><ele>1252.0</ele><time>2026-04-18T16:20:39.787Z</time></trkpt><trkpt lat="42.0469932" lon="-8.0722427"><ele>1250.5</ele><time>2026-04-18T16:20:40.785Z</time></trkpt><trkpt lat="42.0470559" lon="-8.0720893"><ele>1249.0</ele><time>2026-04-18T16:20:41.788Z</time></trkpt><trkpt lat="42.0471153" lon="-8.071938"><ele>1247.5</ele><time>2026-04-18T16:20:42.788Z</time></trkpt><trkpt lat="42.0471765" lon="-8.0717885"><ele>1246.0</ele><time>2026-04-18T16:20:43.788Z</time></trkpt><trkpt lat="42.0472427" lon="-8.0716441"><ele>1245.25</ele><time>2026-04-18T16:20:44.788Z</time></trkpt><trkpt lat="42.0473095" lon="-8.0715052"><ele>1244.5</ele><time>2026-04-18T16:20:45.788Z</time></trkpt><trkpt lat="42.047376" lon="-8.0713731"><ele>1243.75</ele><time>2026-04-18T16:20:46.788Z</time></trkpt><trkpt lat="42.0474425" lon="-8.0712463"><ele>1243.0</ele><time>2026-04-18T16:20:47.788Z</time></trkpt><trkpt lat="42.0475039" lon="-8.07113"><ele>1243.0</ele><time>2026-04-18T16:20:48.789Z</time></trkpt><trkpt lat="42.0475582" lon="-8.0710171"><ele>1243.0</ele><time>2026-04-18T16:20:49.788Z</time></trkpt><trkpt lat="42.0476109" lon="-8.0709127"><ele>1243.0</ele><time>2026-04-18T16:20:50.788Z</time></trkpt><trkpt lat="42.0476624" lon="-8.0708157"><ele>1243.0</ele><time>2026-04-18T16:20:51.787Z</time></trkpt><trkpt lat="42.0477095" lon="-8.0707144"><ele>1243.0</ele><time>2026-04-18T16:20:52.788Z</time></trkpt><trkpt lat="42.0477558" lon="-8.0706101"><ele>1241.6666666666665</ele><time>2026-04-18T16:20:53.787Z</time></trkpt><trkpt lat="42.0478009" lon="-8.0705065"><ele>1240.3333333333333</ele><time>2026-04-18T16:20:54.788Z</time></trkpt><trkpt lat="42.0478443" lon="-8.0704117"><ele>1239.0</ele><time>2026-04-18T16:20:55.788Z</time></trkpt><trkpt lat="42.0478898" lon="-8.0703198"><ele>1237.6666666666667</ele><time>2026-04-18T16:20:56.787Z</time></trkpt><trkpt lat="42.0479348" lon="-8.0702302"><ele>1236.3333333333335</ele><time>2026-04-18T16:20:57.788Z</time></trkpt><trkpt lat="42.0479816" lon="-8.0701415"><ele>1235.0</ele><time>2026-04-18T16:20:58.787Z</time></trkpt><trkpt lat="42.0480317" lon="-8.0700449"><ele>1234.6</ele><time>2026-04-18T16:20:59.787Z</time></trkpt><trkpt lat="42.0480806" lon="-8.0699386"><ele>1234.2</ele><time>2026-04-18T16:21:00.789Z</time></trkpt><trkpt lat="42.048137" lon="-8.0698282"><ele>1233.8</ele><time>2026-04-18T16:21:01.788Z</time></trkpt><trkpt lat="42.0481929" lon="-8.069719"><ele>1233.4</ele><time>2026-04-18T16:21:02.788Z</time></trkpt><trkpt lat="42.0482466" lon="-8.06961"><ele>1233.0</ele><time>2026-04-18T16:21:03.788Z</time></trkpt><trkpt lat="42.0482956" lon="-8.069507"><ele>1233.0</ele><time>2026-04-18T16:21:04.788Z</time></trkpt><trkpt lat="42.0483352" lon="-8.069403"><ele>1233.0</ele><time>2026-04-18T16:21:05.787Z</time></trkpt><trkpt lat="42.0483756" lon="-8.0692961"><ele>1233.0</ele><time>2026-04-18T16:21:06.787Z</time></trkpt><trkpt lat="42.0484195" lon="-8.0691999"><ele>1233.0</ele><time>2026-04-18T16:21:07.787Z</time></trkpt><trkpt lat="42.0484747" lon="-8.0691231"><ele>1233.0</ele><time>2026-04-18T16:21:08.788Z</time></trkpt><trkpt lat="42.0485357" lon="-8.0690805"><ele>1233.0</ele><time>2026-04-18T16:21:09.789Z</time></trkpt><trkpt lat="42.0486005" lon="-8.0690681"><ele>1233.0</ele><time>2026-04-18T16:21:10.788Z</time></trkpt><trkpt lat="42.0486701" lon="-8.0690764"><ele>1233.0</ele><time>2026-04-18T16:21:11.788Z</time></trkpt><trkpt lat="42.0487436" lon="-8.0691072"><ele>1233.0</ele><time>2026-04-18T16:21:12.788Z</time></trkpt><trkpt lat="42.0488137" lon="-8.0691534"><ele>1233.0</ele><time>2026-04-18T16:21:13.787Z</time></trkpt><trkpt lat="42.0488783" lon="-8.0692183"><ele>1233.0</ele><time>2026-04-18T16:21:14.791Z</time></trkpt><trkpt lat="42.048945" lon="-8.069275"><ele>1233.0</ele><time>2026-04-18T16:21:15.788Z</time></trkpt><trkpt lat="42.049015" lon="-8.069335"><ele>1233.0</ele><time>2026-04-18T16:21:16.788Z</time></trkpt><trkpt lat="42.04909" lon="-8.0693867"><ele>1233.0</ele><time>2026-04-18T16:21:17.787Z</time></trkpt><trkpt lat="42.04917" lon="-8.0694367"><ele>1233.0</ele><time>2026-04-18T16:21:18.786Z</time></trkpt><trkpt lat="42.0492583" lon="-8.0694817"><ele>1233.0</ele><time>2026-04-18T16:21:19.787Z</time></trkpt><trkpt lat="42.04934" lon="-8.0695267"><ele>1233.0</ele><time>2026-04-18T16:21:20.789Z</time></trkpt><trkpt lat="42.049425" lon="-8.0695667"><ele>1233.0</ele><time>2026-04-18T16:21:21.787Z</time></trkpt><trkpt lat="42.0495017" lon="-8.0695933"><ele>1231.4</ele><time>2026-04-18T16:21:22.787Z</time></trkpt><trkpt lat="42.0495783" lon="-8.0696117"><ele>1229.8</ele><time>2026-04-18T16:21:23.787Z</time></trkpt><trkpt lat="42.0496533" lon="-8.0696117"><ele>1228.2</ele><time>2026-04-18T16:21:24.788Z</time></trkpt><trkpt lat="42.0497183" lon="-8.069605"><ele>1226.6</ele><time>2026-04-18T16:21:25.788Z</time></trkpt><trkpt lat="42.0498217" lon="-8.0695617"><ele>1225.0</ele><time>2026-04-18T16:21:27.788Z</time></trkpt><trkpt lat="42.0499317" lon="-8.06946"><ele>1222.8</ele><time>2026-04-18T16:21:29.787Z</time></trkpt><trkpt lat="42.0499967" lon="-8.0694017"><ele>1220.6</ele><time>2026-04-18T16:21:30.786Z</time></trkpt><trkpt lat="42.0500717" lon="-8.0693367"><ele>1218.4</ele><time>2026-04-18T16:21:31.786Z</time></trkpt><trkpt lat="42.0501517" lon="-8.0692667"><ele>1216.2</ele><time>2026-04-18T16:21:32.787Z</time></trkpt><trkpt lat="42.0502383" lon="-8.0691883"><ele>1214.0</ele><time>2026-04-18T16:21:33.786Z</time></trkpt><trkpt lat="42.0503317" lon="-8.0690983"><ele>1213.75</ele><time>2026-04-18T16:21:34.787Z</time></trkpt><trkpt lat="42.0504317" lon="-8.0690067"><ele>1213.5</ele><time>2026-04-18T16:21:35.786Z</time></trkpt><trkpt lat="42.0505417" lon="-8.068915"><ele>1213.25</ele><time>2026-04-18T16:21:36.786Z</time></trkpt><trkpt lat="42.0506583" lon="-8.0688217"><ele>1213.0</ele><time>2026-04-18T16:21:37.786Z</time></trkpt><trkpt lat="42.0507767" lon="-8.0687267"><ele>1211.0</ele><time>2026-04-18T16:21:38.787Z</time></trkpt><trkpt lat="42.0508967" lon="-8.0686267"><ele>1209.0</ele><time>2026-04-18T16:21:39.786Z</time></trkpt><trkpt lat="42.0510183" lon="-8.06852"><ele>1207.0</ele><time>2026-04-18T16:21:40.787Z</time></trkpt><trkpt lat="42.0511433" lon="-8.0684117"><ele>1205.0</ele><time>2026-04-18T16:21:41.787Z</time></trkpt><trkpt lat="42.05126" lon="-8.0683117"><ele>1204.25</ele><time>2026-04-18T16:21:42.787Z</time></trkpt><trkpt lat="42.0513667" lon="-8.0682117"><ele>1203.5</ele><time>2026-04-18T16:21:43.786Z</time></trkpt><trkpt lat="42.05147" lon="-8.06811"><ele>1202.75</ele><time>2026-04-18T16:21:44.788Z</time></trkpt><trkpt lat="42.051555" lon="-8.0680183"><ele>1202.0</ele><time>2026-04-18T16:21:45.787Z</time></trkpt><trkpt lat="42.0516267" lon="-8.0679483"><ele>1200.6666666666667</ele><time>2026-04-18T16:21:46.788Z</time></trkpt><trkpt lat="42.0516883" lon="-8.0678983"><ele>1199.3333333333335</ele><time>2026-04-18T16:21:47.786Z</time></trkpt><trkpt lat="42.0518083" lon="-8.06787"><ele>1198.0</ele><time>2026-04-18T16:21:49.786Z</time></trkpt><trkpt lat="42.0518833" lon="-8.067925"><ele>1196.6666666666667</ele><time>2026-04-18T16:21:50.787Z</time></trkpt><trkpt lat="42.051955" lon="-8.0679683"><ele>1195.3333333333333</ele><time>2026-04-18T16:21:51.787Z</time></trkpt><trkpt lat="42.0520217" lon="-8.068005"><ele>1194.0</ele><time>2026-04-18T16:21:52.786Z</time></trkpt><trkpt lat="42.0520883" lon="-8.0680217"><ele>1194.0</ele><time>2026-04-18T16:21:53.787Z</time></trkpt><trkpt lat="42.052185" lon="-8.06801"><ele>1194.0</ele><time>2026-04-18T16:21:55.787Z</time></trkpt><trkpt lat="42.0522683" lon="-8.067925"><ele>1194.0</ele><time>2026-04-18T16:21:57.786Z</time></trkpt><trkpt lat="42.0523533" lon="-8.0678033"><ele>1194.0</ele><time>2026-04-18T16:21:59.786Z</time></trkpt><trkpt lat="42.052405" lon="-8.067735"><ele>1194.0</ele><time>2026-04-18T16:22:00.787Z</time></trkpt><trkpt lat="42.05246" lon="-8.067655"><ele>1192.5</ele><time>2026-04-18T16:22:01.787Z</time></trkpt><trkpt lat="42.05251" lon="-8.06757"><ele>1191.0</ele><time>2026-04-18T16:22:02.788Z</time></trkpt><trkpt lat="42.05255" lon="-8.0674783"><ele>1189.5</ele><time>2026-04-18T16:22:03.787Z</time></trkpt><trkpt lat="42.0525817" lon="-8.0673833"><ele>1188.0</ele><time>2026-04-18T16:22:04.787Z</time></trkpt><trkpt lat="42.0526033" lon="-8.06728"><ele>1186.5</ele><time>2026-04-18T16:22:05.787Z</time></trkpt><trkpt lat="42.0526067" lon="-8.0671617"><ele>1185.0</ele><time>2026-04-18T16:22:06.787Z</time></trkpt><trkpt lat="42.0525983" lon="-8.0670517"><ele>1185.5</ele><time>2026-04-18T16:22:07.788Z</time></trkpt><trkpt lat="42.052575" lon="-8.06695"><ele>1186.0</ele><time>2026-04-18T16:22:08.787Z</time></trkpt><trkpt lat="42.0525367" lon="-8.0668783"><ele>1186.5</ele><time>2026-04-18T16:22:09.786Z</time></trkpt><trkpt lat="42.0524883" lon="-8.0668117"><ele>1187.0</ele><time>2026-04-18T16:22:10.786Z</time></trkpt><trkpt lat="42.0524333" lon="-8.066735"><ele>1187.5</ele><time>2026-04-18T16:22:11.788Z</time></trkpt><trkpt lat="42.0523667" lon="-8.066655"><ele>1188.0</ele><time>2026-04-18T16:22:12.788Z</time></trkpt><trkpt lat="42.0522967" lon="-8.0665667"><ele>1186.1666666666667</ele><time>2026-04-18T16:22:13.786Z</time></trkpt><trkpt lat="42.05223" lon="-8.0664817"><ele>1184.3333333333333</ele><time>2026-04-18T16:22:14.788Z</time></trkpt><trkpt lat="42.0521717" lon="-8.0664067"><ele>1182.5</ele><time>2026-04-18T16:22:15.786Z</time></trkpt><trkpt lat="42.0521133" lon="-8.0663367"><ele>1180.6666666666665</ele><time>2026-04-18T16:22:16.787Z</time></trkpt><trkpt lat="42.0520467" lon="-8.0662583"><ele>1178.8333333333333</ele><time>2026-04-18T16:22:17.787Z</time></trkpt><trkpt lat="42.05198" lon="-8.0661783"><ele>1177.0</ele><time>2026-04-18T16:22:18.784Z</time></trkpt><trkpt lat="42.0519233" lon="-8.0661033"><ele>1177.0</ele><time>2026-04-18T16:22:19.786Z</time></trkpt><trkpt lat="42.0518783" lon="-8.06603"><ele>1177.0</ele><time>2026-04-18T16:22:20.784Z</time></trkpt><trkpt lat="42.051825" lon="-8.0658833"><ele>1177.0</ele><time>2026-04-18T16:22:22.787Z</time></trkpt><trkpt lat="42.0518217" lon="-8.065715"><ele>1177.0</ele><time>2026-04-18T16:22:24.787Z</time></trkpt><trkpt lat="42.0518267" lon="-8.065605"><ele>1177.0</ele><time>2026-04-18T16:22:25.787Z</time></trkpt><trkpt lat="42.0518333" lon="-8.0654783"><ele>1175.4</ele><time>2026-04-18T16:22:26.787Z</time></trkpt><trkpt lat="42.0518383" lon="-8.0653533"><ele>1173.8000000000002</ele><time>2026-04-18T16:22:27.787Z</time></trkpt><trkpt lat="42.0518433" lon="-8.0652333"><ele>1172.2</ele><time>2026-04-18T16:22:28.787Z</time></trkpt><trkpt lat="42.0518517" lon="-8.0651133"><ele>1170.6000000000001</ele><time>2026-04-18T16:22:29.787Z</time></trkpt><trkpt lat="42.0518583" lon="-8.0649883"><ele>1169.0</ele><time>2026-04-18T16:22:30.786Z</time></trkpt><trkpt lat="42.0518617" lon="-8.0648633"><ele>1168.3333333333335</ele><time>2026-04-18T16:22:31.786Z</time></trkpt><trkpt lat="42.0518583" lon="-8.06474"><ele>1167.6666666666667</ele><time>2026-04-18T16:22:32.789Z</time></trkpt><trkpt lat="42.0518567" lon="-8.0646117"><ele>1167.0</ele><time>2026-04-18T16:22:33.787Z</time></trkpt><trkpt lat="42.0518517" lon="-8.06449"><ele>1166.3333333333333</ele><time>2026-04-18T16:22:34.786Z</time></trkpt><trkpt lat="42.0518533" lon="-8.0643767"><ele>1165.6666666666665</ele><time>2026-04-18T16:22:35.786Z</time></trkpt><trkpt lat="42.0518533" lon="-8.064265"><ele>1165.0</ele><time>2026-04-18T16:22:36.787Z</time></trkpt><trkpt lat="42.0518583" lon="-8.0641483"><ele>1164.5</ele><time>2026-04-18T16:22:37.787Z</time></trkpt><trkpt lat="42.0518633" lon="-8.0640317"><ele>1164.0</ele><time>2026-04-18T16:22:38.788Z</time></trkpt><trkpt lat="42.0518733" lon="-8.0639133"><ele>1163.5</ele><time>2026-04-18T16:22:39.787Z</time></trkpt><trkpt lat="42.0518817" lon="-8.0638"><ele>1163.0</ele><time>2026-04-18T16:22:40.787Z</time></trkpt><trkpt lat="42.05189" lon="-8.06369"><ele>1162.5</ele><time>2026-04-18T16:22:41.788Z</time></trkpt><trkpt lat="42.0518933" lon="-8.0635767"><ele>1162.0</ele><time>2026-04-18T16:22:42.787Z</time></trkpt><trkpt lat="42.0518967" lon="-8.0634633"><ele>1162.0</ele><time>2026-04-18T16:22:43.785Z</time></trkpt><trkpt lat="42.0518967" lon="-8.0633467"><ele>1162.0</ele><time>2026-04-18T16:22:44.789Z</time></trkpt><trkpt lat="42.0518967" lon="-8.0632267"><ele>1162.0</ele><time>2026-04-18T16:22:45.788Z</time></trkpt><trkpt lat="42.0519" lon="-8.0631033"><ele>1162.0</ele><time>2026-04-18T16:22:46.786Z</time></trkpt><trkpt lat="42.0519083" lon="-8.06299"><ele>1162.0</ele><time>2026-04-18T16:22:47.786Z</time></trkpt><trkpt lat="42.05192" lon="-8.06288"><ele>1162.0</ele><time>2026-04-18T16:22:48.787Z</time></trkpt><trkpt lat="42.0519383" lon="-8.0627817"><ele>1161.5</ele><time>2026-04-18T16:22:49.786Z</time></trkpt><trkpt lat="42.05197" lon="-8.0626867"><ele>1161.0</ele><time>2026-04-18T16:22:50.787Z</time></trkpt><trkpt lat="42.052" lon="-8.0625967"><ele>1160.5</ele><time>2026-04-18T16:22:51.786Z</time></trkpt><trkpt lat="42.0520333" lon="-8.0625217"><ele>1160.0</ele><time>2026-04-18T16:22:52.787Z</time></trkpt><trkpt lat="42.0521033" lon="-8.062405"><ele>1159.5</ele><time>2026-04-18T16:22:54.788Z</time></trkpt><trkpt lat="42.05217" lon="-8.0623517"><ele>1159.0</ele><time>2026-04-18T16:22:56.788Z</time></trkpt><trkpt lat="42.0522317" lon="-8.0623283"><ele>1159.0</ele><time>2026-04-18T16:22:58.786Z</time></trkpt><trkpt lat="42.0522933" lon="-8.062385"><ele>1159.0</ele><time>2026-04-18T16:23:01.786Z</time></trkpt><trkpt lat="42.0523333" lon="-8.0625183"><ele>1159.0</ele><time>2026-04-18T16:23:03.787Z</time></trkpt><trkpt lat="42.05235" lon="-8.062615"><ele>1159.0</ele><time>2026-04-18T16:23:04.786Z</time></trkpt><trkpt lat="42.0523767" lon="-8.06272"><ele>1159.0</ele><time>2026-04-18T16:23:05.787Z</time></trkpt><trkpt lat="42.0524167" lon="-8.0628217"><ele>1159.0</ele><time>2026-04-18T16:23:06.786Z</time></trkpt><trkpt lat="42.052465" lon="-8.062925"><ele>1159.0</ele><time>2026-04-18T16:23:07.787Z</time></trkpt><trkpt lat="42.0525167" lon="-8.0630283"><ele>1159.0</ele><time>2026-04-18T16:23:08.787Z</time></trkpt><trkpt lat="42.0525683" lon="-8.0631217"><ele>1159.0</ele><time>2026-04-18T16:23:09.785Z</time></trkpt><trkpt lat="42.0526267" lon="-8.06322"><ele>1159.0</ele><time>2026-04-18T16:23:10.786Z</time></trkpt><trkpt lat="42.05269" lon="-8.0633133"><ele>1159.0</ele><time>2026-04-18T16:23:11.787Z</time></trkpt><trkpt lat="42.0527533" lon="-8.0634083"><ele>1159.0</ele><time>2026-04-18T16:23:12.787Z</time></trkpt><trkpt lat="42.0528167" lon="-8.0635"><ele>1159.0</ele><time>2026-04-18T16:23:13.787Z</time></trkpt><trkpt lat="42.052885" lon="-8.0635933"><ele>1159.0</ele><time>2026-04-18T16:23:14.788Z</time></trkpt><trkpt lat="42.0529483" lon="-8.0636867"><ele>1159.0</ele><time>2026-04-18T16:23:15.786Z</time></trkpt><trkpt lat="42.0529983" lon="-8.063775"><ele>1159.0</ele><time>2026-04-18T16:23:16.788Z</time></trkpt><trkpt lat="42.05305" lon="-8.06386"><ele>1159.0</ele><time>2026-04-18T16:23:17.787Z</time></trkpt><trkpt lat="42.053105" lon="-8.0639417"><ele>1159.0</ele><time>2026-04-18T16:23:18.787Z</time></trkpt><trkpt lat="42.0531683" lon="-8.0640317"><ele>1159.0</ele><time>2026-04-18T16:23:19.784Z</time></trkpt><trkpt lat="42.053235" lon="-8.0641283"><ele>1159.0</ele><time>2026-04-18T16:23:20.785Z</time></trkpt><trkpt lat="42.0533067" lon="-8.06423"><ele>1159.0</ele><time>2026-04-18T16:23:21.786Z</time></trkpt><trkpt lat="42.0533767" lon="-8.06433"><ele>1159.0</ele><time>2026-04-18T16:23:22.787Z</time></trkpt><trkpt lat="42.05344" lon="-8.0644133"><ele>1156.6666666666665</ele><time>2026-04-18T16:23:23.786Z</time></trkpt><trkpt lat="42.053495" lon="-8.0644883"><ele>1154.3333333333333</ele><time>2026-04-18T16:23:24.786Z</time></trkpt><trkpt lat="42.0535483" lon="-8.0645583"><ele>1152.0</ele><time>2026-04-18T16:23:25.787Z</time></trkpt><trkpt lat="42.053595" lon="-8.0646167"><ele>1149.6666666666667</ele><time>2026-04-18T16:23:26.785Z</time></trkpt><trkpt lat="42.053685" lon="-8.064715"><ele>1147.3333333333335</ele><time>2026-04-18T16:23:28.784Z</time></trkpt><trkpt lat="42.053745" lon="-8.0647567"><ele>1145.0</ele><time>2026-04-18T16:23:29.785Z</time></trkpt><trkpt lat="42.0538083" lon="-8.0647933"><ele>1145.0</ele><time>2026-04-18T16:23:30.785Z</time></trkpt><trkpt lat="42.053925" lon="-8.0648483"><ele>1145.0</ele><time>2026-04-18T16:23:32.787Z</time></trkpt><trkpt lat="42.0539833" lon="-8.064885"><ele>1145.0</ele><time>2026-04-18T16:23:33.787Z</time></trkpt><trkpt lat="42.0540433" lon="-8.0649367"><ele>1145.0</ele><time>2026-04-18T16:23:34.788Z</time></trkpt><trkpt lat="42.0541033" lon="-8.0649867"><ele>1145.0</ele><time>2026-04-18T16:23:35.787Z</time></trkpt><trkpt lat="42.0541683" lon="-8.06505"><ele>1145.0</ele><time>2026-04-18T16:23:36.787Z</time></trkpt><trkpt lat="42.0542433" lon="-8.0651283"><ele>1143.6</ele><time>2026-04-18T16:23:37.787Z</time></trkpt><trkpt lat="42.054325" lon="-8.065225"><ele>1142.2</ele><time>2026-04-18T16:23:38.787Z</time></trkpt><trkpt lat="42.054395" lon="-8.06533"><ele>1140.8</ele><time>2026-04-18T16:23:39.787Z</time></trkpt><trkpt lat="42.0544517" lon="-8.065445"><ele>1139.4</ele><time>2026-04-18T16:23:40.786Z</time></trkpt><trkpt lat="42.0545067" lon="-8.0655683"><ele>1138.0</ele><time>2026-04-18T16:23:41.786Z</time></trkpt><trkpt lat="42.0545633" lon="-8.0656917"><ele>1138.0</ele><time>2026-04-18T16:23:42.788Z</time></trkpt><trkpt lat="42.0546217" lon="-8.0658117"><ele>1138.0</ele><time>2026-04-18T16:23:43.786Z</time></trkpt><trkpt lat="42.05468" lon="-8.0659267"><ele>1138.0</ele><time>2026-04-18T16:23:44.787Z</time></trkpt><trkpt lat="42.0547383" lon="-8.06604"><ele>1138.0</ele><time>2026-04-18T16:23:45.785Z</time></trkpt><trkpt lat="42.0547917" lon="-8.06615"><ele>1138.0</ele><time>2026-04-18T16:23:46.786Z</time></trkpt><trkpt lat="42.05486" lon="-8.0662567"><ele>1138.0</ele><time>2026-04-18T16:23:47.786Z</time></trkpt><trkpt lat="42.05494" lon="-8.0663533"><ele>1138.0</ele><time>2026-04-18T16:23:48.785Z</time></trkpt><trkpt lat="42.0550367" lon="-8.06643"><ele>1138.0</ele><time>2026-04-18T16:23:49.787Z</time></trkpt><trkpt lat="42.0551517" lon="-8.0664833"><ele>1138.0</ele><time>2026-04-18T16:23:50.789Z</time></trkpt><trkpt lat="42.0552633" lon="-8.0665383"><ele>1135.25</ele><time>2026-04-18T16:23:51.787Z</time></trkpt><trkpt lat="42.0553733" lon="-8.0665917"><ele>1132.5</ele><time>2026-04-18T16:23:52.787Z</time></trkpt><trkpt lat="42.0554933" lon="-8.0666517"><ele>1129.75</ele><time>2026-04-18T16:23:53.787Z</time></trkpt><trkpt lat="42.0556217" lon="-8.0667067"><ele>1127.0</ele><time>2026-04-18T16:23:54.787Z</time></trkpt><trkpt lat="42.055755" lon="-8.0667533"><ele>1124.75</ele><time>2026-04-18T16:23:55.786Z</time></trkpt><trkpt lat="42.05589" lon="-8.066795"><ele>1122.5</ele><time>2026-04-18T16:23:56.787Z</time></trkpt><trkpt lat="42.0560133" lon="-8.0668633"><ele>1120.25</ele><time>2026-04-18T16:23:57.786Z</time></trkpt><trkpt lat="42.056135" lon="-8.0669333"><ele>1118.0</ele><time>2026-04-18T16:23:58.787Z</time></trkpt><trkpt lat="42.05625" lon="-8.0669883"><ele>1118.0</ele><time>2026-04-18T16:23:59.787Z</time></trkpt><trkpt lat="42.0563667" lon="-8.06704"><ele>1118.0</ele><time>2026-04-18T16:24:00.788Z</time></trkpt><trkpt lat="42.0564867" lon="-8.0671033"><ele>1118.0</ele><time>2026-04-18T16:24:01.787Z</time></trkpt><trkpt lat="42.0566083" lon="-8.0671733"><ele>1118.0</ele><time>2026-04-18T16:24:02.787Z</time></trkpt><trkpt lat="42.056735" lon="-8.0672467"><ele>1117.5</ele><time>2026-04-18T16:24:03.786Z</time></trkpt><trkpt lat="42.0568617" lon="-8.0673167"><ele>1117.0</ele><time>2026-04-18T16:24:04.784Z</time></trkpt><trkpt lat="42.0569783" lon="-8.067365"><ele>1116.5</ele><time>2026-04-18T16:24:05.785Z</time></trkpt><trkpt lat="42.0570867" lon="-8.0673983"><ele>1116.0</ele><time>2026-04-18T16:24:06.788Z</time></trkpt><trkpt lat="42.0571883" lon="-8.0674267"><ele>1116.0</ele><time>2026-04-18T16:24:07.788Z</time></trkpt><trkpt lat="42.05729" lon="-8.0674417"><ele>1116.0</ele><time>2026-04-18T16:24:08.788Z</time></trkpt><trkpt lat="42.0573783" lon="-8.067455"><ele>1116.0</ele><time>2026-04-18T16:24:09.787Z</time></trkpt><trkpt lat="42.0574517" lon="-8.067475"><ele>1116.0</ele><time>2026-04-18T16:24:10.786Z</time></trkpt><trkpt lat="42.0575267" lon="-8.0675033"><ele>1116.0</ele><time>2026-04-18T16:24:11.787Z</time></trkpt><trkpt lat="42.0575983" lon="-8.0675367"><ele>1116.0</ele><time>2026-04-18T16:24:12.787Z</time></trkpt><trkpt lat="42.057675" lon="-8.067575"><ele>1115.3333333333333</ele><time>2026-04-18T16:24:13.787Z</time></trkpt><trkpt lat="42.0577567" lon="-8.067605"><ele>1114.6666666666667</ele><time>2026-04-18T16:24:14.787Z</time></trkpt><trkpt lat="42.057845" lon="-8.06762"><ele>1114.0</ele><time>2026-04-18T16:24:15.787Z</time></trkpt><trkpt lat="42.0579283" lon="-8.0676167"><ele>1113.3333333333335</ele><time>2026-04-18T16:24:16.787Z</time></trkpt><trkpt lat="42.0579967" lon="-8.0676083"><ele>1112.6666666666667</ele><time>2026-04-18T16:24:17.786Z</time></trkpt><trkpt lat="42.0580633" lon="-8.0676083"><ele>1112.0</ele><time>2026-04-18T16:24:18.785Z</time></trkpt><trkpt lat="42.058185" lon="-8.0676283"><ele>1112.0</ele><time>2026-04-18T16:24:20.785Z</time></trkpt><trkpt lat="42.0582983" lon="-8.0676483"><ele>1112.0</ele><time>2026-04-18T16:24:22.785Z</time></trkpt><trkpt lat="42.0584233" lon="-8.0676717"><ele>1112.0</ele><time>2026-04-18T16:24:24.786Z</time></trkpt><trkpt lat="42.0584883" lon="-8.0676783"><ele>1112.0</ele><time>2026-04-18T16:24:25.784Z</time></trkpt><trkpt lat="42.05856" lon="-8.0676833"><ele>1112.0</ele><time>2026-04-18T16:24:26.788Z</time></trkpt><trkpt lat="42.058635" lon="-8.0676917"><ele>1112.0</ele><time>2026-04-18T16:24:27.787Z</time></trkpt><trkpt lat="42.05871" lon="-8.0677167"><ele>1112.0</ele><time>2026-04-18T16:24:28.785Z</time></trkpt><trkpt lat="42.0587883" lon="-8.0677567"><ele>1112.0</ele><time>2026-04-18T16:24:29.786Z</time></trkpt><trkpt lat="42.0588667" lon="-8.06779"><ele>1112.0</ele><time>2026-04-18T16:24:30.785Z</time></trkpt><trkpt lat="42.0589417" lon="-8.0678183"><ele>1112.0</ele><time>2026-04-18T16:24:31.784Z</time></trkpt><trkpt lat="42.0590183" lon="-8.067845"><ele>1112.0</ele><time>2026-04-18T16:24:32.787Z</time></trkpt><trkpt lat="42.0590933" lon="-8.0678717"><ele>1111.8333333333335</ele><time>2026-04-18T16:24:33.787Z</time></trkpt><trkpt lat="42.0591667" lon="-8.0678967"><ele>1111.6666666666667</ele><time>2026-04-18T16:24:34.787Z</time></trkpt><trkpt lat="42.0592333" lon="-8.0679283"><ele>1111.5</ele><time>2026-04-18T16:24:35.786Z</time></trkpt><trkpt lat="42.0592917" lon="-8.06796"><ele>1111.3333333333333</ele><time>2026-04-18T16:24:36.786Z</time></trkpt><trkpt lat="42.059375" lon="-8.0680183"><ele>1111.1666666666665</ele><time>2026-04-18T16:24:38.785Z</time></trkpt><trkpt lat="42.0594367" lon="-8.0680933"><ele>1111.0</ele><time>2026-04-18T16:26:20.788Z</time></trkpt><trkpt lat="42.0595033" lon="-8.0681667"><ele>1111.0</ele><time>2026-04-18T16:26:22.787Z</time></trkpt><trkpt lat="42.059575" lon="-8.0682633"><ele>1111.0</ele><time>2026-04-18T16:26:24.785Z</time></trkpt><trkpt lat="42.0596317" lon="-8.0683467"><ele>1111.0</ele><time>2026-04-18T16:26:26.786Z</time></trkpt><trkpt lat="42.059675" lon="-8.06843"><ele>1111.0</ele><time>2026-04-18T16:26:30.787Z</time></trkpt><trkpt lat="42.0597267" lon="-8.0685067"><ele>1111.0</ele><time>2026-04-18T16:26:32.786Z</time></trkpt><trkpt lat="42.059795" lon="-8.0686233"><ele>1111.0</ele><time>2026-04-18T16:26:34.785Z</time></trkpt><trkpt lat="42.0598717" lon="-8.06874"><ele>1112.0</ele><time>2026-04-18T16:26:36.786Z</time></trkpt><trkpt lat="42.05995" lon="-8.068815"><ele>1113.0</ele><time>2026-04-18T16:26:38.787Z</time></trkpt><trkpt lat="42.06003" lon="-8.0688783"><ele>1114.0</ele><time>2026-04-18T16:26:40.788Z</time></trkpt><trkpt lat="42.0601117" lon="-8.0689233"><ele>1115.0</ele><time>2026-04-18T16:26:42.786Z</time></trkpt><trkpt lat="42.0602017" lon="-8.06895"><ele>1116.0</ele><time>2026-04-18T16:26:44.786Z</time></trkpt><trkpt lat="42.06031" lon="-8.0689733"><ele>1116.0</ele><time>2026-04-18T16:26:46.786Z</time></trkpt><trkpt lat="42.060425" lon="-8.0690017"><ele>1116.0</ele><time>2026-04-18T16:26:48.787Z</time></trkpt><trkpt lat="42.0605417" lon="-8.0690267"><ele>1116.0</ele><time>2026-04-18T16:26:50.787Z</time></trkpt><trkpt lat="42.06066" lon="-8.0690533"><ele>1116.0</ele><time>2026-04-18T16:26:52.786Z</time></trkpt><trkpt lat="42.060725" lon="-8.0690683"><ele>1116.0</ele><time>2026-04-18T16:26:53.785Z</time></trkpt><trkpt lat="42.0607883" lon="-8.0690833"><ele>1117.3333333333333</ele><time>2026-04-18T16:26:54.787Z</time></trkpt><trkpt lat="42.0609117" lon="-8.069115"><ele>1118.6666666666667</ele><time>2026-04-18T16:26:56.787Z</time></trkpt><trkpt lat="42.0609783" lon="-8.0691283"><ele>1120.0</ele><time>2026-04-18T16:26:57.786Z</time></trkpt><trkpt lat="42.0610467" lon="-8.06914"><ele>1121.3333333333335</ele><time>2026-04-18T16:26:58.786Z</time></trkpt><trkpt lat="42.0611133" lon="-8.0691583"><ele>1122.6666666666667</ele><time>2026-04-18T16:26:59.787Z</time></trkpt><trkpt lat="42.0611833" lon="-8.069175"><ele>1124.0</ele><time>2026-04-18T16:27:00.787Z</time></trkpt><trkpt lat="42.0612533" lon="-8.0691933"><ele>1124.0</ele><time>2026-04-18T16:27:01.786Z</time></trkpt><trkpt lat="42.0613267" lon="-8.069205"><ele>1124.0</ele><time>2026-04-18T16:27:02.788Z</time></trkpt><trkpt lat="42.0614" lon="-8.0691983"><ele>1124.0</ele><time>2026-04-18T16:27:03.787Z</time></trkpt><trkpt lat="42.061475" lon="-8.06918"><ele>1124.0</ele><time>2026-04-18T16:27:04.785Z</time></trkpt><trkpt lat="42.0615533" lon="-8.0691483"><ele>1124.0</ele><time>2026-04-18T16:27:05.785Z</time></trkpt><trkpt lat="42.0616283" lon="-8.069105"><ele>1124.0</ele><time>2026-04-18T16:27:06.79Z</time></trkpt><trkpt lat="42.0616983" lon="-8.0690417"><ele>1123.1666666666667</ele><time>2026-04-18T16:27:07.785Z</time></trkpt><trkpt lat="42.0617683" lon="-8.0689733"><ele>1122.3333333333335</ele><time>2026-04-18T16:27:08.786Z</time></trkpt><trkpt lat="42.0618367" lon="-8.0689083"><ele>1121.5</ele><time>2026-04-18T16:27:09.786Z</time></trkpt><trkpt lat="42.0619067" lon="-8.068855"><ele>1120.6666666666667</ele><time>2026-04-18T16:27:10.786Z</time></trkpt><trkpt lat="42.06198" lon="-8.068805"><ele>1119.8333333333333</ele><time>2026-04-18T16:27:11.788Z</time></trkpt><trkpt lat="42.0620567" lon="-8.0687517"><ele>1119.0</ele><time>2026-04-18T16:27:12.787Z</time></trkpt><trkpt lat="42.0621367" lon="-8.068705"><ele>1119.0</ele><time>2026-04-18T16:27:13.787Z</time></trkpt><trkpt lat="42.0622183" lon="-8.06867"><ele>1119.0</ele><time>2026-04-18T16:27:14.789Z</time></trkpt><trkpt lat="42.062305" lon="-8.0686483"><ele>1119.0</ele><time>2026-04-18T16:27:15.787Z</time></trkpt><trkpt lat="42.0623983" lon="-8.0686717"><ele>1119.0</ele><time>2026-04-18T16:27:16.787Z</time></trkpt><trkpt lat="42.0624883" lon="-8.0686967"><ele>1119.0</ele><time>2026-04-18T16:27:17.787Z</time></trkpt><trkpt lat="42.06258" lon="-8.0687133"><ele>1118.8333333333333</ele><time>2026-04-18T16:27:18.786Z</time></trkpt><trkpt lat="42.0626633" lon="-8.0687017"><ele>1118.6666666666667</ele><time>2026-04-18T16:27:19.786Z</time></trkpt><trkpt lat="42.0627433" lon="-8.068685"><ele>1118.5</ele><time>2026-04-18T16:27:20.786Z</time></trkpt><trkpt lat="42.0628133" lon="-8.0686683"><ele>1118.3333333333335</ele><time>2026-04-18T16:27:21.788Z</time></trkpt><trkpt lat="42.0628917" lon="-8.06862"><ele>1118.1666666666667</ele><time>2026-04-18T16:27:22.786Z</time></trkpt><trkpt lat="42.0629667" lon="-8.068565"><ele>1118.0</ele><time>2026-04-18T16:27:23.786Z</time></trkpt><trkpt lat="42.063045" lon="-8.068505"><ele>1118.0</ele><time>2026-04-18T16:27:24.786Z</time></trkpt><trkpt lat="42.0631167" lon="-8.0684467"><ele>1118.0</ele><time>2026-04-18T16:27:25.786Z</time></trkpt><trkpt lat="42.063185" lon="-8.0683983"><ele>1118.0</ele><time>2026-04-18T16:27:26.787Z</time></trkpt><trkpt lat="42.06326" lon="-8.068355"><ele>1118.0</ele><time>2026-04-18T16:27:27.786Z</time></trkpt><trkpt lat="42.0633383" lon="-8.068315"><ele>1118.0</ele><time>2026-04-18T16:27:28.784Z</time></trkpt><trkpt lat="42.0634167" lon="-8.0682867"><ele>1118.0</ele><time>2026-04-18T16:27:29.786Z</time></trkpt><trkpt lat="42.0634983" lon="-8.0682667"><ele>1116.3333333333335</ele><time>2026-04-18T16:27:30.787Z</time></trkpt><trkpt lat="42.0635783" lon="-8.06826"><ele>1114.6666666666667</ele><time>2026-04-18T16:27:31.789Z</time></trkpt><trkpt lat="42.06367" lon="-8.0682617"><ele>1113.0</ele><time>2026-04-18T16:27:32.787Z</time></trkpt><trkpt lat="42.0637633" lon="-8.0682567"><ele>1111.3333333333333</ele><time>2026-04-18T16:27:33.787Z</time></trkpt><trkpt lat="42.0638517" lon="-8.0682483"><ele>1109.6666666666665</ele><time>2026-04-18T16:27:34.786Z</time></trkpt><trkpt lat="42.0639383" lon="-8.06824"><ele>1108.0</ele><time>2026-04-18T16:27:35.786Z</time></trkpt><trkpt lat="42.064025" lon="-8.06822"><ele>1107.6</ele><time>2026-04-18T16:27:36.787Z</time></trkpt><trkpt lat="42.064115" lon="-8.0682033"><ele>1107.1999999999998</ele><time>2026-04-18T16:27:37.785Z</time></trkpt><trkpt lat="42.0642033" lon="-8.0681967"><ele>1106.8</ele><time>2026-04-18T16:27:38.785Z</time></trkpt><trkpt lat="42.0642967" lon="-8.0681917"><ele>1106.3999999999999</ele><time>2026-04-18T16:27:39.786Z</time></trkpt><trkpt lat="42.0643933" lon="-8.068185"><ele>1106.0</ele><time>2026-04-18T16:27:40.786Z</time></trkpt><trkpt lat="42.0645017" lon="-8.068175"><ele>1106.0</ele><time>2026-04-18T16:27:41.786Z</time></trkpt><trkpt lat="42.0646133" lon="-8.0681617"><ele>1106.0</ele><time>2026-04-18T16:27:42.785Z</time></trkpt><trkpt lat="42.0647267" lon="-8.0681517"><ele>1106.0</ele><time>2026-04-18T16:27:43.787Z</time></trkpt><trkpt lat="42.0648417" lon="-8.0681433"><ele>1106.0</ele><time>2026-04-18T16:27:44.788Z</time></trkpt><trkpt lat="42.0649567" lon="-8.0681267"><ele>1105.0</ele><time>2026-04-18T16:27:45.786Z</time></trkpt><trkpt lat="42.0650733" lon="-8.0680967"><ele>1104.0</ele><time>2026-04-18T16:27:46.788Z</time></trkpt><trkpt lat="42.06519" lon="-8.0680733"><ele>1103.0</ele><time>2026-04-18T16:27:47.788Z</time></trkpt><trkpt lat="42.0653" lon="-8.0680583"><ele>1102.0</ele><time>2026-04-18T16:27:48.785Z</time></trkpt><trkpt lat="42.06541" lon="-8.0680583"><ele>1102.0</ele><time>2026-04-18T16:27:49.787Z</time></trkpt><trkpt lat="42.0655167" lon="-8.0680417"><ele>1102.0</ele><time>2026-04-18T16:27:50.787Z</time></trkpt><trkpt lat="42.0656183" lon="-8.068"><ele>1102.0</ele><time>2026-04-18T16:27:51.786Z</time></trkpt><trkpt lat="42.0657183" lon="-8.0679417"><ele>1102.0</ele><time>2026-04-18T16:27:52.786Z</time></trkpt><trkpt lat="42.0658167" lon="-8.0678767"><ele>1102.0</ele><time>2026-04-18T16:27:53.788Z</time></trkpt><trkpt lat="42.06592" lon="-8.0678"><ele>1101.75</ele><time>2026-04-18T16:27:54.786Z</time></trkpt><trkpt lat="42.0660233" lon="-8.06773"><ele>1101.5</ele><time>2026-04-18T16:27:55.786Z</time></trkpt><trkpt lat="42.0661367" lon="-8.0676517"><ele>1101.25</ele><time>2026-04-18T16:27:56.786Z</time></trkpt><trkpt lat="42.066245" lon="-8.0675767"><ele>1101.0</ele><time>2026-04-18T16:27:57.786Z</time></trkpt><trkpt lat="42.0663533" lon="-8.067505"><ele>1101.2</ele><time>2026-04-18T16:27:58.786Z</time></trkpt><trkpt lat="42.066455" lon="-8.0674283"><ele>1101.3999999999999</ele><time>2026-04-18T16:27:59.786Z</time></trkpt><trkpt lat="42.06654" lon="-8.0673533"><ele>1101.6</ele><time>2026-04-18T16:28:00.788Z</time></trkpt><trkpt lat="42.066615" lon="-8.0672767"><ele>1101.8</ele><time>2026-04-18T16:28:01.785Z</time></trkpt><trkpt lat="42.0666717" lon="-8.067185"><ele>1102.0</ele><time>2026-04-18T16:28:02.787Z</time></trkpt><trkpt lat="42.0667067" lon="-8.067075"><ele>1102.0</ele><time>2026-04-18T16:28:03.787Z</time></trkpt><trkpt lat="42.066735" lon="-8.0669483"><ele>1102.0</ele><time>2026-04-18T16:28:04.786Z</time></trkpt><trkpt lat="42.0667617" lon="-8.0667933"><ele>1102.0</ele><time>2026-04-18T16:28:05.787Z</time></trkpt><trkpt lat="42.0667867" lon="-8.066635"><ele>1102.0</ele><time>2026-04-18T16:28:06.787Z</time></trkpt><trkpt lat="42.0668117" lon="-8.0664867"><ele>1102.0</ele><time>2026-04-18T16:28:07.786Z</time></trkpt><trkpt lat="42.06683" lon="-8.0663417"><ele>1101.8</ele><time>2026-04-18T16:28:08.788Z</time></trkpt><trkpt lat="42.0668533" lon="-8.0661967"><ele>1101.6</ele><time>2026-04-18T16:28:09.788Z</time></trkpt><trkpt lat="42.0668733" lon="-8.0660533"><ele>1101.3999999999999</ele><time>2026-04-18T16:28:10.789Z</time></trkpt><trkpt lat="42.0668967" lon="-8.0659067"><ele>1101.2</ele><time>2026-04-18T16:28:11.788Z</time></trkpt><trkpt lat="42.0669183" lon="-8.0657583"><ele>1101.0</ele><time>2026-04-18T16:28:12.788Z</time></trkpt><trkpt lat="42.066945" lon="-8.0656117"><ele>1101.0</ele><time>2026-04-18T16:28:13.788Z</time></trkpt><trkpt lat="42.0669767" lon="-8.0654633"><ele>1101.0</ele><time>2026-04-18T16:28:14.788Z</time></trkpt><trkpt lat="42.0670083" lon="-8.0653417"><ele>1101.0</ele><time>2026-04-18T16:28:15.788Z</time></trkpt><trkpt lat="42.0670367" lon="-8.065225"><ele>1101.0</ele><time>2026-04-18T16:28:16.788Z</time></trkpt><trkpt lat="42.067055" lon="-8.065125"><ele>1101.0</ele><time>2026-04-18T16:28:17.788Z</time></trkpt><trkpt lat="42.06705" lon="-8.0650283"><ele>1101.8</ele><time>2026-04-18T16:28:18.785Z</time></trkpt><trkpt lat="42.0670217" lon="-8.06494"><ele>1102.6</ele><time>2026-04-18T16:28:19.788Z</time></trkpt><trkpt lat="42.066955" lon="-8.064845"><ele>1103.4</ele><time>2026-04-18T16:28:20.786Z</time></trkpt><trkpt lat="42.0668767" lon="-8.0647433"><ele>1104.2</ele><time>2026-04-18T16:28:21.787Z</time></trkpt><trkpt lat="42.0668" lon="-8.0646367"><ele>1105.0</ele><time>2026-04-18T16:28:22.786Z</time></trkpt><trkpt lat="42.0667367" lon="-8.0645333"><ele>1105.0</ele><time>2026-04-18T16:28:23.787Z</time></trkpt><trkpt lat="42.06668" lon="-8.06441"><ele>1105.0</ele><time>2026-04-18T16:28:24.786Z</time></trkpt><trkpt lat="42.0666183" lon="-8.0642833"><ele>1105.0</ele><time>2026-04-18T16:28:25.786Z</time></trkpt><trkpt lat="42.0665583" lon="-8.0641617"><ele>1105.0</ele><time>2026-04-18T16:28:26.786Z</time></trkpt><trkpt lat="42.0665067" lon="-8.0640433"><ele>1105.0</ele><time>2026-04-18T16:28:27.787Z</time></trkpt><trkpt lat="42.0664733" lon="-8.0639333"><ele>1103.8</ele><time>2026-04-18T16:28:28.786Z</time></trkpt><trkpt lat="42.066455" lon="-8.0638267"><ele>1102.6</ele><time>2026-04-18T16:28:29.788Z</time></trkpt><trkpt lat="42.0664483" lon="-8.06371"><ele>1101.4</ele><time>2026-04-18T16:28:30.788Z</time></trkpt><trkpt lat="42.0664517" lon="-8.0635783"><ele>1100.2</ele><time>2026-04-18T16:28:31.788Z</time></trkpt><trkpt lat="42.0664583" lon="-8.06345"><ele>1099.0</ele><time>2026-04-18T16:28:32.789Z</time></trkpt><trkpt lat="42.066475" lon="-8.063325"><ele>1098.4</ele><time>2026-04-18T16:28:33.788Z</time></trkpt><trkpt lat="42.066495" lon="-8.0631983"><ele>1097.8000000000002</ele><time>2026-04-18T16:28:34.787Z</time></trkpt><trkpt lat="42.066525" lon="-8.0630583"><ele>1097.1999999999998</ele><time>2026-04-18T16:28:35.788Z</time></trkpt><trkpt lat="42.0665567" lon="-8.0629033"><ele>1096.6</ele><time>2026-04-18T16:28:36.788Z</time></trkpt><trkpt lat="42.0665883" lon="-8.0627483"><ele>1096.0</ele><time>2026-04-18T16:28:37.788Z</time></trkpt><trkpt lat="42.0666233" lon="-8.0625983"><ele>1097.2</ele><time>2026-04-18T16:28:38.788Z</time></trkpt><trkpt lat="42.06666" lon="-8.06245"><ele>1098.3999999999999</ele><time>2026-04-18T16:28:39.787Z</time></trkpt><trkpt lat="42.0666983" lon="-8.062335"><ele>1099.6</ele><time>2026-04-18T16:28:40.787Z</time></trkpt><trkpt lat="42.0667433" lon="-8.0622433"><ele>1100.8</ele><time>2026-04-18T16:28:41.788Z</time></trkpt><trkpt lat="42.0667983" lon="-8.0621617"><ele>1102.0</ele><time>2026-04-18T16:28:42.787Z</time></trkpt><trkpt lat="42.0668717" lon="-8.0620883"><ele>1102.0</ele><time>2026-04-18T16:28:43.787Z</time></trkpt><trkpt lat="42.0669583" lon="-8.0620067"><ele>1102.0</ele><time>2026-04-18T16:28:44.785Z</time></trkpt><trkpt lat="42.0670517" lon="-8.0619067"><ele>1102.0</ele><time>2026-04-18T16:28:45.785Z</time></trkpt><trkpt lat="42.06717" lon="-8.0617883"><ele>1102.0</ele><time>2026-04-18T16:28:46.785Z</time></trkpt><trkpt lat="42.0672867" lon="-8.0616683"><ele>1101.75</ele><time>2026-04-18T16:28:47.785Z</time></trkpt><trkpt lat="42.0673917" lon="-8.0615583"><ele>1101.5</ele><time>2026-04-18T16:28:48.786Z</time></trkpt><trkpt lat="42.06748" lon="-8.061455"><ele>1101.25</ele><time>2026-04-18T16:28:49.785Z</time></trkpt><trkpt lat="42.0675633" lon="-8.0613633"><ele>1101.0</ele><time>2026-04-18T16:28:50.785Z</time></trkpt><trkpt lat="42.0676383" lon="-8.0612783"><ele>1101.0</ele><time>2026-04-18T16:28:51.786Z</time></trkpt><trkpt lat="42.0677133" lon="-8.061195"><ele>1101.0</ele><time>2026-04-18T16:28:52.785Z</time></trkpt><trkpt lat="42.06778" lon="-8.0610917"><ele>1101.0</ele><time>2026-04-18T16:28:53.785Z</time></trkpt><trkpt lat="42.06784" lon="-8.060995"><ele>1101.0</ele><time>2026-04-18T16:28:54.786Z</time></trkpt><trkpt lat="42.067905" lon="-8.0608983"><ele>1101.0</ele><time>2026-04-18T16:28:55.785Z</time></trkpt><trkpt lat="42.0679717" lon="-8.0608017"><ele>1100.3999999999999</ele><time>2026-04-18T16:28:56.786Z</time></trkpt><trkpt lat="42.06804" lon="-8.0607033"><ele>1099.8</ele><time>2026-04-18T16:28:57.786Z</time></trkpt><trkpt lat="42.0681133" lon="-8.06061"><ele>1099.1999999999998</ele><time>2026-04-18T16:28:58.786Z</time></trkpt><trkpt lat="42.0681783" lon="-8.060515"><ele>1098.6</ele><time>2026-04-18T16:28:59.786Z</time></trkpt><trkpt lat="42.0682417" lon="-8.0604183"><ele>1098.0</ele><time>2026-04-18T16:29:00.786Z</time></trkpt><trkpt lat="42.068315" lon="-8.060315"><ele>1097.2</ele><time>2026-04-18T16:29:01.786Z</time></trkpt><trkpt lat="42.0683867" lon="-8.0602117"><ele>1096.4</ele><time>2026-04-18T16:29:02.785Z</time></trkpt><trkpt lat="42.06845" lon="-8.0601117"><ele>1095.6000000000001</ele><time>2026-04-18T16:29:03.786Z</time></trkpt><trkpt lat="42.0685167" lon="-8.0600183"><ele>1094.8</ele><time>2026-04-18T16:29:04.785Z</time></trkpt><trkpt lat="42.0685817" lon="-8.0599383"><ele>1094.0</ele><time>2026-04-18T16:29:05.786Z</time></trkpt><trkpt lat="42.068635" lon="-8.0598683"><ele>1094.0</ele><time>2026-04-18T16:29:06.787Z</time></trkpt><trkpt lat="42.0686783" lon="-8.0597983"><ele>1094.0</ele><time>2026-04-18T16:29:07.786Z</time></trkpt><trkpt lat="42.06871" lon="-8.0597233"><ele>1094.0</ele><time>2026-04-18T16:29:08.786Z</time></trkpt><trkpt lat="42.06873" lon="-8.059635"><ele>1094.0</ele><time>2026-04-18T16:29:09.785Z</time></trkpt><trkpt lat="42.0687183" lon="-8.0595383"><ele>1094.0</ele><time>2026-04-18T16:29:10.783Z</time></trkpt><trkpt lat="42.0686917" lon="-8.059445"><ele>1094.0</ele><time>2026-04-18T16:29:11.785Z</time></trkpt><trkpt lat="42.06865" lon="-8.0593417"><ele>1094.0</ele><time>2026-04-18T16:29:12.786Z</time></trkpt><trkpt lat="42.0686117" lon="-8.05924"><ele>1094.0</ele><time>2026-04-18T16:29:13.785Z</time></trkpt><trkpt lat="42.06857" lon="-8.059125"><ele>1094.0</ele><time>2026-04-18T16:29:14.786Z</time></trkpt><trkpt lat="42.0685317" lon="-8.059005"><ele>1094.0</ele><time>2026-04-18T16:29:15.787Z</time></trkpt><trkpt lat="42.0684833" lon="-8.05886"><ele>1094.0</ele><time>2026-04-18T16:29:16.786Z</time></trkpt><trkpt lat="42.0684317" lon="-8.0587167"><ele>1094.0</ele><time>2026-04-18T16:29:17.785Z</time></trkpt><trkpt lat="42.0683867" lon="-8.05856"><ele>1094.8</ele><time>2026-04-18T16:29:18.787Z</time></trkpt><trkpt lat="42.0683433" lon="-8.0584233"><ele>1095.6000000000001</ele><time>2026-04-18T16:29:19.785Z</time></trkpt><trkpt lat="42.0682983" lon="-8.0583033"><ele>1096.4</ele><time>2026-04-18T16:29:20.787Z</time></trkpt><trkpt lat="42.0682483" lon="-8.0581883"><ele>1097.2</ele><time>2026-04-18T16:29:21.786Z</time></trkpt><trkpt lat="42.0682017" lon="-8.0580767"><ele>1098.0</ele><time>2026-04-18T16:29:22.786Z</time></trkpt><trkpt lat="42.06817" lon="-8.057965"><ele>1097.4</ele><time>2026-04-18T16:29:23.787Z</time></trkpt><trkpt lat="42.0681467" lon="-8.057845"><ele>1096.8</ele><time>2026-04-18T16:29:24.787Z</time></trkpt><trkpt lat="42.06813" lon="-8.0577233"><ele>1096.2</ele><time>2026-04-18T16:29:25.787Z</time></trkpt><trkpt lat="42.0681217" lon="-8.0575883"><ele>1095.6</ele><time>2026-04-18T16:29:26.787Z</time></trkpt><trkpt lat="42.068115" lon="-8.0574483"><ele>1095.0</ele><time>2026-04-18T16:29:27.787Z</time></trkpt><trkpt lat="42.0681083" lon="-8.057305"><ele>1095.0</ele><time>2026-04-18T16:29:28.787Z</time></trkpt><trkpt lat="42.0681017" lon="-8.05717"><ele>1095.0</ele><time>2026-04-18T16:29:29.786Z</time></trkpt><trkpt lat="42.0681017" lon="-8.0570233"><ele>1095.0</ele><time>2026-04-18T16:29:30.787Z</time></trkpt><trkpt lat="42.0681" lon="-8.05686"><ele>1095.0</ele><time>2026-04-18T16:29:31.787Z</time></trkpt><trkpt lat="42.0680983" lon="-8.0567083"><ele>1095.0</ele><time>2026-04-18T16:29:32.789Z</time></trkpt><trkpt lat="42.0680933" lon="-8.05658"><ele>1095.6</ele><time>2026-04-18T16:29:33.785Z</time></trkpt><trkpt lat="42.0681" lon="-8.05645"><ele>1096.2</ele><time>2026-04-18T16:29:34.787Z</time></trkpt><trkpt lat="42.068115" lon="-8.0563183"><ele>1096.8</ele><time>2026-04-18T16:29:35.787Z</time></trkpt><trkpt lat="42.068135" lon="-8.0561867"><ele>1097.4</ele><time>2026-04-18T16:29:36.787Z</time></trkpt><trkpt lat="42.0681633" lon="-8.0560717"><ele>1098.0</ele><time>2026-04-18T16:29:37.789Z</time></trkpt><trkpt lat="42.0682033" lon="-8.0559683"><ele>1098.0</ele><time>2026-04-18T16:29:38.789Z</time></trkpt><trkpt lat="42.06825" lon="-8.05587"><ele>1098.0</ele><time>2026-04-18T16:29:39.787Z</time></trkpt><trkpt lat="42.0683083" lon="-8.0557883"><ele>1098.0</ele><time>2026-04-18T16:29:40.787Z</time></trkpt><trkpt lat="42.0683783" lon="-8.0557183"><ele>1098.0</ele><time>2026-04-18T16:29:41.786Z</time></trkpt><trkpt lat="42.0684583" lon="-8.0556517"><ele>1098.0</ele><time>2026-04-18T16:29:42.786Z</time></trkpt><trkpt lat="42.0685733" lon="-8.0555983"><ele>1099.4</ele><time>2026-04-18T16:29:43.786Z</time></trkpt><trkpt lat="42.0686817" lon="-8.0555517"><ele>1100.8</ele><time>2026-04-18T16:29:44.785Z</time></trkpt><trkpt lat="42.06878" lon="-8.0555083"><ele>1102.2</ele><time>2026-04-18T16:29:45.785Z</time></trkpt><trkpt lat="42.06885" lon="-8.0554533"><ele>1103.6</ele><time>2026-04-18T16:29:46.787Z</time></trkpt><trkpt lat="42.068905" lon="-8.0553717"><ele>1105.0</ele><time>2026-04-18T16:29:47.787Z</time></trkpt><trkpt lat="42.0689483" lon="-8.0552733"><ele>1105.0</ele><time>2026-04-18T16:29:48.786Z</time></trkpt><trkpt lat="42.068985" lon="-8.0551583"><ele>1105.0</ele><time>2026-04-18T16:29:49.785Z</time></trkpt><trkpt lat="42.069015" lon="-8.0550467"><ele>1105.0</ele><time>2026-04-18T16:29:50.786Z</time></trkpt><trkpt lat="42.06904" lon="-8.05492"><ele>1105.0</ele><time>2026-04-18T16:29:51.784Z</time></trkpt><trkpt lat="42.06905" lon="-8.0547883"><ele>1105.0</ele><time>2026-04-18T16:29:52.788Z</time></trkpt><trkpt lat="42.0690483" lon="-8.05464"><ele>1103.25</ele><time>2026-04-18T16:29:53.786Z</time></trkpt><trkpt lat="42.0690317" lon="-8.0544833"><ele>1101.5</ele><time>2026-04-18T16:29:54.786Z</time></trkpt><trkpt lat="42.069005" lon="-8.054305"><ele>1099.75</ele><time>2026-04-18T16:29:55.784Z</time></trkpt><trkpt lat="42.0689783" lon="-8.0541233"><ele>1098.0</ele><time>2026-04-18T16:29:56.787Z</time></trkpt><trkpt lat="42.0689617" lon="-8.05393"><ele>1096.25</ele><time>2026-04-18T16:29:57.788Z</time></trkpt><trkpt lat="42.06895" lon="-8.053735"><ele>1094.5</ele><time>2026-04-18T16:29:58.787Z</time></trkpt><trkpt lat="42.0689433" lon="-8.0535367"><ele>1092.75</ele><time>2026-04-18T16:29:59.786Z</time></trkpt><trkpt lat="42.0689333" lon="-8.0533483"><ele>1091.0</ele><time>2026-04-18T16:30:00.786Z</time></trkpt><trkpt lat="42.0689267" lon="-8.0531567"><ele>1090.75</ele><time>2026-04-18T16:30:01.786Z</time></trkpt><trkpt lat="42.06892" lon="-8.0529683"><ele>1090.5</ele><time>2026-04-18T16:30:02.786Z</time></trkpt><trkpt lat="42.0689117" lon="-8.0527933"><ele>1090.25</ele><time>2026-04-18T16:30:03.785Z</time></trkpt><trkpt lat="42.0689033" lon="-8.0526117"><ele>1090.0</ele><time>2026-04-18T16:30:04.785Z</time></trkpt><trkpt lat="42.0688883" lon="-8.0524433"><ele>1090.0</ele><time>2026-04-18T16:30:05.786Z</time></trkpt><trkpt lat="42.0688583" lon="-8.0522883"><ele>1090.0</ele><time>2026-04-18T16:30:06.788Z</time></trkpt><trkpt lat="42.0688183" lon="-8.052135"><ele>1090.0</ele><time>2026-04-18T16:30:07.786Z</time></trkpt><trkpt lat="42.068775" lon="-8.0519867"><ele>1090.0</ele><time>2026-04-18T16:30:08.785Z</time></trkpt><trkpt lat="42.068725" lon="-8.0518283"><ele>1090.0</ele><time>2026-04-18T16:30:09.785Z</time></trkpt><trkpt lat="42.0686667" lon="-8.0516717"><ele>1090.0</ele><time>2026-04-18T16:30:10.785Z</time></trkpt><trkpt lat="42.06862" lon="-8.051515"><ele>1090.0</ele><time>2026-04-18T16:30:11.787Z</time></trkpt><trkpt lat="42.068565" lon="-8.0513483"><ele>1090.0</ele><time>2026-04-18T16:30:12.787Z</time></trkpt><trkpt lat="42.06851" lon="-8.05117"><ele>1090.0</ele><time>2026-04-18T16:30:13.787Z</time></trkpt><trkpt lat="42.0684533" lon="-8.0509817"><ele>1090.0</ele><time>2026-04-18T16:30:14.786Z</time></trkpt><trkpt lat="42.0683933" lon="-8.0507817"><ele>1090.0</ele><time>2026-04-18T16:30:15.786Z</time></trkpt><trkpt lat="42.06834" lon="-8.0505983"><ele>1090.25</ele><time>2026-04-18T16:30:16.786Z</time></trkpt><trkpt lat="42.0682833" lon="-8.0504317"><ele>1090.5</ele><time>2026-04-18T16:30:17.784Z</time></trkpt><trkpt lat="42.068225" lon="-8.0502617"><ele>1090.75</ele><time>2026-04-18T16:30:18.785Z</time></trkpt><trkpt lat="42.068175" lon="-8.05009"><ele>1091.0</ele><time>2026-04-18T16:30:19.787Z</time></trkpt><trkpt lat="42.06813" lon="-8.0499183"><ele>1089.0</ele><time>2026-04-18T16:30:20.787Z</time></trkpt><trkpt lat="42.06808" lon="-8.0497667"><ele>1087.0</ele><time>2026-04-18T16:30:21.786Z</time></trkpt><trkpt lat="42.06803" lon="-8.0496317"><ele>1085.0</ele><time>2026-04-18T16:30:22.788Z</time></trkpt><trkpt lat="42.0679883" lon="-8.0495017"><ele>1083.0</ele><time>2026-04-18T16:30:23.787Z</time></trkpt><trkpt lat="42.0679467" lon="-8.049355"><ele>1083.0</ele><time>2026-04-18T16:30:24.787Z</time></trkpt><trkpt lat="42.0678967" lon="-8.0492067"><ele>1083.0</ele><time>2026-04-18T16:30:25.787Z</time></trkpt><trkpt lat="42.0678483" lon="-8.0490683"><ele>1083.0</ele><time>2026-04-18T16:30:26.787Z</time></trkpt><trkpt lat="42.0678133" lon="-8.0489267"><ele>1083.0</ele><time>2026-04-18T16:30:27.787Z</time></trkpt><trkpt lat="42.06778" lon="-8.048785"><ele>1082.8</ele><time>2026-04-18T16:30:28.786Z</time></trkpt><trkpt lat="42.0677533" lon="-8.0486433"><ele>1082.6</ele><time>2026-04-18T16:30:29.787Z</time></trkpt><trkpt lat="42.0677467" lon="-8.0485017"><ele>1082.4</ele><time>2026-04-18T16:30:30.785Z</time></trkpt><trkpt lat="42.0677583" lon="-8.0483517"><ele>1082.2</ele><time>2026-04-18T16:30:31.787Z</time></trkpt><trkpt lat="42.067775" lon="-8.04821"><ele>1082.0</ele><time>2026-04-18T16:30:32.785Z</time></trkpt><trkpt lat="42.06779" lon="-8.0480683"><ele>1080.8</ele><time>2026-04-18T16:30:33.786Z</time></trkpt><trkpt lat="42.0678067" lon="-8.0479283"><ele>1079.6</ele><time>2026-04-18T16:30:34.787Z</time></trkpt><trkpt lat="42.0678233" lon="-8.0477967"><ele>1078.3999999999999</ele><time>2026-04-18T16:30:35.786Z</time></trkpt><trkpt lat="42.0678383" lon="-8.047675"><ele>1077.2</ele><time>2026-04-18T16:30:36.785Z</time></trkpt><trkpt lat="42.067855" lon="-8.0475567"><ele>1076.0</ele><time>2026-04-18T16:30:37.785Z</time></trkpt><trkpt lat="42.0678667" lon="-8.0474533"><ele>1074.3999999999999</ele><time>2026-04-18T16:30:38.786Z</time></trkpt><trkpt lat="42.0678833" lon="-8.0473633"><ele>1072.8</ele><time>2026-04-18T16:30:39.785Z</time></trkpt><trkpt lat="42.06795" lon="-8.0472283"><ele>1071.1999999999998</ele><time>2026-04-18T16:30:41.787Z</time></trkpt><trkpt lat="42.068005" lon="-8.0471633"><ele>1069.6</ele><time>2026-04-18T16:30:42.787Z</time></trkpt><trkpt lat="42.0680833" lon="-8.04708"><ele>1068.0</ele><time>2026-04-18T16:30:43.787Z</time></trkpt><trkpt lat="42.0681717" lon="-8.0469783"><ele>1068.0</ele><time>2026-04-18T16:30:44.788Z</time></trkpt><trkpt lat="42.06824" lon="-8.046875"><ele>1068.0</ele><time>2026-04-18T16:30:45.787Z</time></trkpt><trkpt lat="42.0682883" lon="-8.0467633"><ele>1068.0</ele><time>2026-04-18T16:30:46.787Z</time></trkpt><trkpt lat="42.0683233" lon="-8.04664"><ele>1068.0</ele><time>2026-04-18T16:30:47.787Z</time></trkpt><trkpt lat="42.0683383" lon="-8.046515"><ele>1068.0</ele><time>2026-04-18T16:30:48.787Z</time></trkpt><trkpt lat="42.0683383" lon="-8.0463817"><ele>1068.0</ele><time>2026-04-18T16:30:49.787Z</time></trkpt><trkpt lat="42.0683283" lon="-8.0462283"><ele>1068.0</ele><time>2026-04-18T16:30:50.787Z</time></trkpt><trkpt lat="42.0683267" lon="-8.04606"><ele>1068.0</ele><time>2026-04-18T16:30:51.787Z</time></trkpt><trkpt lat="42.0683283" lon="-8.045895"><ele>1068.0</ele><time>2026-04-18T16:30:52.787Z</time></trkpt><trkpt lat="42.0683267" lon="-8.04574"><ele>1067.8</ele><time>2026-04-18T16:30:53.787Z</time></trkpt><trkpt lat="42.0683333" lon="-8.045595"><ele>1067.6</ele><time>2026-04-18T16:30:54.787Z</time></trkpt><trkpt lat="42.0683333" lon="-8.045465"><ele>1067.4</ele><time>2026-04-18T16:30:55.788Z</time></trkpt><trkpt lat="42.06834" lon="-8.045345"><ele>1067.2</ele><time>2026-04-18T16:30:56.788Z</time></trkpt><trkpt lat="42.0683467" lon="-8.0452233"><ele>1067.0</ele><time>2026-04-18T16:30:57.787Z</time></trkpt><trkpt lat="42.068345" lon="-8.0451"><ele>1067.0</ele><time>2026-04-18T16:30:58.786Z</time></trkpt><trkpt lat="42.06834" lon="-8.0449783"><ele>1067.0</ele><time>2026-04-18T16:30:59.787Z</time></trkpt><trkpt lat="42.0683467" lon="-8.0448617"><ele>1067.0</ele><time>2026-04-18T16:31:00.785Z</time></trkpt><trkpt lat="42.0683517" lon="-8.0447483"><ele>1067.0</ele><time>2026-04-18T16:31:01.786Z</time></trkpt><trkpt lat="42.068355" lon="-8.0446367"><ele>1067.0</ele><time>2026-04-18T16:31:02.788Z</time></trkpt><trkpt lat="42.0683567" lon="-8.0445283"><ele>1067.0</ele><time>2026-04-18T16:31:03.785Z</time></trkpt><trkpt lat="42.0683583" lon="-8.0444267"><ele>1067.0</ele><time>2026-04-18T16:31:04.785Z</time></trkpt><trkpt lat="42.0683583" lon="-8.0443167"><ele>1067.0</ele><time>2026-04-18T16:31:05.788Z</time></trkpt><trkpt lat="42.0683633" lon="-8.044205"><ele>1067.0</ele><time>2026-04-18T16:31:06.786Z</time></trkpt><trkpt lat="42.0683567" lon="-8.0440883"><ele>1067.0</ele><time>2026-04-18T16:31:07.787Z</time></trkpt><trkpt lat="42.068355" lon="-8.0439767"><ele>1067.0</ele><time>2026-04-18T16:31:08.787Z</time></trkpt><trkpt lat="42.0683517" lon="-8.0438733"><ele>1067.0</ele><time>2026-04-18T16:31:09.785Z</time></trkpt><trkpt lat="42.0683533" lon="-8.043775"><ele>1066.0</ele><time>2026-04-18T16:31:10.787Z</time></trkpt><trkpt lat="42.0683567" lon="-8.0436717"><ele>1065.0</ele><time>2026-04-18T16:31:11.787Z</time></trkpt><trkpt lat="42.068355" lon="-8.043575"><ele>1064.0</ele><time>2026-04-18T16:31:12.79Z</time></trkpt><trkpt lat="42.068355" lon="-8.04347"><ele>1063.0</ele><time>2026-04-18T16:31:13.787Z</time></trkpt><trkpt lat="42.068355" lon="-8.0433617"><ele>1062.0</ele><time>2026-04-18T16:31:14.789Z</time></trkpt><trkpt lat="42.0683567" lon="-8.0432567"><ele>1061.0</ele><time>2026-04-18T16:31:15.787Z</time></trkpt><trkpt lat="42.0683567" lon="-8.04314"><ele>1059.1666666666667</ele><time>2026-04-18T16:31:16.788Z</time></trkpt><trkpt lat="42.06836" lon="-8.04302"><ele>1057.3333333333335</ele><time>2026-04-18T16:31:17.787Z</time></trkpt><trkpt lat="42.0683717" lon="-8.0429067"><ele>1055.5</ele><time>2026-04-18T16:31:18.787Z</time></trkpt><trkpt lat="42.0683883" lon="-8.0428"><ele>1053.6666666666667</ele><time>2026-04-18T16:31:19.787Z</time></trkpt><trkpt lat="42.0684167" lon="-8.0426967"><ele>1051.8333333333333</ele><time>2026-04-18T16:31:20.787Z</time></trkpt><trkpt lat="42.0684483" lon="-8.0426033"><ele>1050.0</ele><time>2026-04-18T16:31:21.787Z</time></trkpt><trkpt lat="42.06848" lon="-8.04252"><ele>1048.4</ele><time>2026-04-18T16:31:22.785Z</time></trkpt><trkpt lat="42.0685083" lon="-8.042435"><ele>1046.8</ele><time>2026-04-18T16:31:23.787Z</time></trkpt><trkpt lat="42.0685583" lon="-8.04229"><ele>1045.2</ele><time>2026-04-18T16:31:25.785Z</time></trkpt><trkpt lat="42.0686" lon="-8.0421533"><ele>1043.6</ele><time>2026-04-18T16:31:27.787Z</time></trkpt><trkpt lat="42.0686433" lon="-8.0420267"><ele>1042.0</ele><time>2026-04-18T16:31:29.787Z</time></trkpt><trkpt lat="42.0687" lon="-8.0418733"><ele>1042.0</ele><time>2026-04-18T16:31:31.785Z</time></trkpt><trkpt lat="42.06874" lon="-8.0417717"><ele>1042.0</ele><time>2026-04-18T16:31:32.787Z</time></trkpt><trkpt lat="42.0687867" lon="-8.0416533"><ele>1042.0</ele><time>2026-04-18T16:31:33.786Z</time></trkpt><trkpt lat="42.06884" lon="-8.0415133"><ele>1042.0</ele><time>2026-04-18T16:31:34.786Z</time></trkpt><trkpt lat="42.0688967" lon="-8.041365"><ele>1042.0</ele><time>2026-04-18T16:31:35.786Z</time></trkpt><trkpt lat="42.0689483" lon="-8.0412167"><ele>1041.5</ele><time>2026-04-18T16:31:36.786Z</time></trkpt><trkpt lat="42.0689917" lon="-8.0410833"><ele>1041.0</ele><time>2026-04-18T16:31:37.786Z</time></trkpt><trkpt lat="42.06903" lon="-8.0409783"><ele>1040.5</ele><time>2026-04-18T16:31:38.785Z</time></trkpt><trkpt lat="42.0690533" lon="-8.040895"><ele>1040.0</ele><time>2026-04-18T16:31:39.786Z</time></trkpt><trkpt lat="42.0690817" lon="-8.0407767"><ele>1039.5</ele><time>2026-04-18T16:31:41.786Z</time></trkpt><trkpt lat="42.0690133" lon="-8.0406867"><ele>1039.0</ele><time>2026-04-18T16:33:13.787Z</time></trkpt><trkpt lat="42.0689067" lon="-8.0406283"><ele>1038.7142857142856</ele><time>2026-04-18T16:33:15.787Z</time></trkpt><trkpt lat="42.0688583" lon="-8.0405733"><ele>1038.4285714285713</ele><time>2026-04-18T16:33:16.786Z</time></trkpt><trkpt lat="42.0688183" lon="-8.0405033"><ele>1038.142857142857</ele><time>2026-04-18T16:33:17.785Z</time></trkpt><trkpt lat="42.068785" lon="-8.0404183"><ele>1037.8571428571427</ele><time>2026-04-18T16:33:18.787Z</time></trkpt><trkpt lat="42.0687517" lon="-8.0403333"><ele>1037.5714285714284</ele><time>2026-04-18T16:33:19.787Z</time></trkpt><trkpt lat="42.0687367" lon="-8.0402233"><ele>1037.2857142857142</ele><time>2026-04-18T16:33:20.788Z</time></trkpt><trkpt lat="42.0687217" lon="-8.0401117"><ele>1037.0</ele><time>2026-04-18T16:33:21.787Z</time></trkpt><trkpt lat="42.0687017" lon="-8.0399983"><ele>1037.4</ele><time>2026-04-18T16:33:22.786Z</time></trkpt><trkpt lat="42.0686817" lon="-8.03988"><ele>1037.8000000000002</ele><time>2026-04-18T16:33:23.787Z</time></trkpt><trkpt lat="42.0686633" lon="-8.0397567"><ele>1038.2</ele><time>2026-04-18T16:33:24.788Z</time></trkpt><trkpt lat="42.0686467" lon="-8.03963"><ele>1038.6000000000001</ele><time>2026-04-18T16:33:25.787Z</time></trkpt><trkpt lat="42.06862" lon="-8.0395"><ele>1039.0</ele><time>2026-04-18T16:33:26.787Z</time></trkpt><trkpt lat="42.0685767" lon="-8.03936"><ele>1039.0</ele><time>2026-04-18T16:33:27.787Z</time></trkpt><trkpt lat="42.0685217" lon="-8.0392283"><ele>1039.0</ele><time>2026-04-18T16:33:28.786Z</time></trkpt><trkpt lat="42.068455" lon="-8.03911"><ele>1039.0</ele><time>2026-04-18T16:33:29.786Z</time></trkpt><trkpt lat="42.0683817" lon="-8.0389983"><ele>1039.0</ele><time>2026-04-18T16:33:30.789Z</time></trkpt><trkpt lat="42.0683083" lon="-8.0388833"><ele>1039.0</ele><time>2026-04-18T16:33:31.787Z</time></trkpt><trkpt lat="42.06823" lon="-8.0387683"><ele>1038.75</ele><time>2026-04-18T16:33:32.788Z</time></trkpt><trkpt lat="42.0681483" lon="-8.038645"><ele>1038.5</ele><time>2026-04-18T16:33:33.786Z</time></trkpt><trkpt lat="42.0680683" lon="-8.038515"><ele>1038.25</ele><time>2026-04-18T16:33:34.786Z</time></trkpt><trkpt lat="42.0679883" lon="-8.038385"><ele>1038.0</ele><time>2026-04-18T16:33:35.786Z</time></trkpt><trkpt lat="42.0679117" lon="-8.038265"><ele>1038.0</ele><time>2026-04-18T16:33:36.786Z</time></trkpt><trkpt lat="42.0678417" lon="-8.03816"><ele>1038.0</ele><time>2026-04-18T16:33:37.787Z</time></trkpt><trkpt lat="42.0677783" lon="-8.0380683"><ele>1038.0</ele><time>2026-04-18T16:33:38.785Z</time></trkpt><trkpt lat="42.0677233" lon="-8.0379833"><ele>1038.0</ele><time>2026-04-18T16:33:39.786Z</time></trkpt><trkpt lat="42.0676683" lon="-8.0378983"><ele>1038.0</ele><time>2026-04-18T16:33:40.786Z</time></trkpt><trkpt lat="42.0676067" lon="-8.0378083"><ele>1038.0</ele><time>2026-04-18T16:33:41.786Z</time></trkpt><trkpt lat="42.0675483" lon="-8.037715"><ele>1038.0</ele><time>2026-04-18T16:33:42.786Z</time></trkpt><trkpt lat="42.0674933" lon="-8.03761"><ele>1038.0</ele><time>2026-04-18T16:33:43.786Z</time></trkpt><trkpt lat="42.0674233" lon="-8.037495"><ele>1038.0</ele><time>2026-04-18T16:33:44.787Z</time></trkpt><trkpt lat="42.0673417" lon="-8.0373767"><ele>1038.0</ele><time>2026-04-18T16:33:45.787Z</time></trkpt><trkpt lat="42.0672533" lon="-8.037255"><ele>1035.75</ele><time>2026-04-18T16:33:46.788Z</time></trkpt><trkpt lat="42.06716" lon="-8.0371383"><ele>1033.5</ele><time>2026-04-18T16:33:47.786Z</time></trkpt><trkpt lat="42.067065" lon="-8.0370217"><ele>1031.25</ele><time>2026-04-18T16:33:48.786Z</time></trkpt><trkpt lat="42.0669617" lon="-8.0369017"><ele>1029.0</ele><time>2026-04-18T16:33:49.783Z</time></trkpt><trkpt lat="42.0668517" lon="-8.0367817"><ele>1029.0</ele><time>2026-04-18T16:33:50.789Z</time></trkpt><trkpt lat="42.066745" lon="-8.0366683"><ele>1029.0</ele><time>2026-04-18T16:33:51.788Z</time></trkpt><trkpt lat="42.0666367" lon="-8.0365533"><ele>1029.0</ele><time>2026-04-18T16:33:52.788Z</time></trkpt><trkpt lat="42.0665317" lon="-8.036445"><ele>1029.0</ele><time>2026-04-18T16:33:53.787Z</time></trkpt><trkpt lat="42.06643" lon="-8.036345"><ele>1029.0</ele><time>2026-04-18T16:33:54.787Z</time></trkpt><trkpt lat="42.0663367" lon="-8.0362533"><ele>1029.0</ele><time>2026-04-18T16:33:55.787Z</time></trkpt><trkpt lat="42.0662467" lon="-8.0361733"><ele>1029.0</ele><time>2026-04-18T16:33:56.788Z</time></trkpt><trkpt lat="42.0661533" lon="-8.0360883"><ele>1029.0</ele><time>2026-04-18T16:33:57.788Z</time></trkpt><trkpt lat="42.0660633" lon="-8.03601"><ele>1029.0</ele><time>2026-04-18T16:33:58.785Z</time></trkpt><trkpt lat="42.0659783" lon="-8.0359383"><ele>1029.0</ele><time>2026-04-18T16:33:59.787Z</time></trkpt><trkpt lat="42.0659" lon="-8.03589"><ele>1029.0</ele><time>2026-04-18T16:34:00.786Z</time></trkpt><trkpt lat="42.065825" lon="-8.0358533"><ele>1029.0</ele><time>2026-04-18T16:34:01.787Z</time></trkpt><trkpt lat="42.0657417" lon="-8.035785"><ele>1029.0</ele><time>2026-04-18T16:34:02.786Z</time></trkpt><trkpt lat="42.0656567" lon="-8.0357133"><ele>1029.0</ele><time>2026-04-18T16:34:03.785Z</time></trkpt><trkpt lat="42.06557" lon="-8.035635"><ele>1028.6000000000001</ele><time>2026-04-18T16:34:04.787Z</time></trkpt><trkpt lat="42.0654917" lon="-8.0355383"><ele>1028.2</ele><time>2026-04-18T16:34:05.785Z</time></trkpt><trkpt lat="42.065415" lon="-8.0354333"><ele>1027.8000000000002</ele><time>2026-04-18T16:34:06.786Z</time></trkpt><trkpt lat="42.0653467" lon="-8.0353183"><ele>1027.4</ele><time>2026-04-18T16:34:07.785Z</time></trkpt><trkpt lat="42.0652933" lon="-8.0351967"><ele>1027.0</ele><time>2026-04-18T16:34:08.786Z</time></trkpt><trkpt lat="42.0652533" lon="-8.0350783"><ele>1027.0</ele><time>2026-04-18T16:34:09.785Z</time></trkpt><trkpt lat="42.06522" lon="-8.0349867"><ele>1027.0</ele><time>2026-04-18T16:34:10.786Z</time></trkpt><trkpt lat="42.06522" lon="-8.0348633"><ele>1027.0</ele><time>2026-04-18T16:34:12.787Z</time></trkpt><trkpt lat="42.065335" lon="-8.0347533"><ele>1027.0</ele><time>2026-04-18T16:34:14.789Z</time></trkpt><trkpt lat="42.0654267" lon="-8.034685"><ele>1027.0</ele><time>2026-04-18T16:34:15.787Z</time></trkpt><trkpt lat="42.06553" lon="-8.0346217"><ele>1026.6</ele><time>2026-04-18T16:34:16.787Z</time></trkpt><trkpt lat="42.0656383" lon="-8.034555"><ele>1026.2</ele><time>2026-04-18T16:34:17.788Z</time></trkpt><trkpt lat="42.0657367" lon="-8.0344783"><ele>1025.8</ele><time>2026-04-18T16:34:18.787Z</time></trkpt><trkpt lat="42.0658283" lon="-8.0344133"><ele>1025.4</ele><time>2026-04-18T16:34:19.786Z</time></trkpt><trkpt lat="42.0659133" lon="-8.0343483"><ele>1025.0</ele><time>2026-04-18T16:34:20.786Z</time></trkpt><trkpt lat="42.065995" lon="-8.0342917"><ele>1025.1666666666667</ele><time>2026-04-18T16:34:21.788Z</time></trkpt><trkpt lat="42.0660733" lon="-8.03424"><ele>1025.3333333333335</ele><time>2026-04-18T16:34:22.785Z</time></trkpt><trkpt lat="42.066145" lon="-8.0341817"><ele>1025.5</ele><time>2026-04-18T16:34:23.786Z</time></trkpt><trkpt lat="42.0662067" lon="-8.03413"><ele>1025.6666666666667</ele><time>2026-04-18T16:34:24.787Z</time></trkpt><trkpt lat="42.06627" lon="-8.0340917"><ele>1025.8333333333333</ele><time>2026-04-18T16:34:25.787Z</time></trkpt><trkpt lat="42.066375" lon="-8.0340867"><ele>1026.0</ele><time>2026-04-18T16:34:27.787Z</time></trkpt><trkpt lat="42.0664783" lon="-8.0341467"><ele>1028.0</ele><time>2026-04-18T16:34:29.785Z</time></trkpt><trkpt lat="42.0665283" lon="-8.03421"><ele>1030.0</ele><time>2026-04-18T16:34:30.787Z</time></trkpt><trkpt lat="42.0665817" lon="-8.03431"><ele>1032.0</ele><time>2026-04-18T16:34:31.786Z</time></trkpt><trkpt lat="42.0666483" lon="-8.03442"><ele>1034.0</ele><time>2026-04-18T16:34:32.786Z</time></trkpt><trkpt lat="42.0667267" lon="-8.0345233"><ele>1036.0</ele><time>2026-04-18T16:34:33.787Z</time></trkpt><trkpt lat="42.06681" lon="-8.03462"><ele>1037.6</ele><time>2026-04-18T16:34:34.786Z</time></trkpt><trkpt lat="42.0668833" lon="-8.0347033"><ele>1039.1999999999998</ele><time>2026-04-18T16:34:35.786Z</time></trkpt><trkpt lat="42.0669567" lon="-8.03477"><ele>1040.8000000000002</ele><time>2026-04-18T16:34:36.786Z</time></trkpt><trkpt lat="42.0670167" lon="-8.0348167"><ele>1042.4</ele><time>2026-04-18T16:34:37.787Z</time></trkpt><trkpt lat="42.0671167" lon="-8.034815"><ele>1044.0</ele><time>2026-04-18T16:34:39.785Z</time></trkpt><trkpt lat="42.0672283" lon="-8.0347367"><ele>1044.0</ele><time>2026-04-18T16:34:41.787Z</time></trkpt><trkpt lat="42.067305" lon="-8.0346717"><ele>1044.0</ele><time>2026-04-18T16:34:42.787Z</time></trkpt><trkpt lat="42.0673883" lon="-8.03461"><ele>1044.0</ele><time>2026-04-18T16:34:43.786Z</time></trkpt><trkpt lat="42.0674683" lon="-8.0345517"><ele>1044.0</ele><time>2026-04-18T16:34:44.787Z</time></trkpt><trkpt lat="42.067565" lon="-8.03448"><ele>1044.0</ele><time>2026-04-18T16:34:45.785Z</time></trkpt><trkpt lat="42.067665" lon="-8.03439"><ele>1045.0</ele><time>2026-04-18T16:34:46.786Z</time></trkpt><trkpt lat="42.067765" lon="-8.0343117"><ele>1046.0</ele><time>2026-04-18T16:34:47.786Z</time></trkpt><trkpt lat="42.067855" lon="-8.0342417"><ele>1047.0</ele><time>2026-04-18T16:34:48.787Z</time></trkpt><trkpt lat="42.067935" lon="-8.0341833"><ele>1048.0</ele><time>2026-04-18T16:34:49.786Z</time></trkpt><trkpt lat="42.0680033" lon="-8.0341283"><ele>1049.0</ele><time>2026-04-18T16:34:50.787Z</time></trkpt><trkpt lat="42.0680633" lon="-8.0340667"><ele>1046.6000000000001</ele><time>2026-04-18T16:34:51.785Z</time></trkpt><trkpt lat="42.068105" lon="-8.0339717"><ele>1044.2</ele><time>2026-04-18T16:34:53.787Z</time></trkpt><trkpt lat="42.0680883" lon="-8.0338783"><ele>1041.8000000000002</ele><time>2026-04-18T16:34:55.784Z</time></trkpt><trkpt lat="42.06795" lon="-8.0337383"><ele>1039.4</ele><time>2026-04-18T16:34:57.786Z</time></trkpt><trkpt lat="42.067885" lon="-8.033695"><ele>1037.0</ele><time>2026-04-18T16:34:58.785Z</time></trkpt><trkpt lat="42.06782" lon="-8.0336617"><ele>1037.0</ele><time>2026-04-18T16:34:59.785Z</time></trkpt><trkpt lat="42.06774" lon="-8.0336133"><ele>1037.0</ele><time>2026-04-18T16:35:00.786Z</time></trkpt><trkpt lat="42.06766" lon="-8.0335717"><ele>1037.0</ele><time>2026-04-18T16:35:01.785Z</time></trkpt><trkpt lat="42.0675683" lon="-8.0335583"><ele>1037.0</ele><time>2026-04-18T16:35:02.785Z</time></trkpt><trkpt lat="42.06745" lon="-8.0335467"><ele>1037.0</ele><time>2026-04-18T16:35:03.785Z</time></trkpt><trkpt lat="42.0673533" lon="-8.0335467"><ele>1035.8</ele><time>2026-04-18T16:35:04.785Z</time></trkpt><trkpt lat="42.067245" lon="-8.0335383"><ele>1034.6</ele><time>2026-04-18T16:35:05.787Z</time></trkpt><trkpt lat="42.0671817" lon="-8.0335183"><ele>1033.3999999999999</ele><time>2026-04-18T16:35:06.786Z</time></trkpt><trkpt lat="42.067125" lon="-8.033445"><ele>1032.2</ele><time>2026-04-18T16:35:08.787Z</time></trkpt><trkpt lat="42.0672033" lon="-8.033315"><ele>1031.0</ele><time>2026-04-18T16:35:11.787Z</time></trkpt><trkpt lat="42.0673417" lon="-8.0332133"><ele>1028.8333333333335</ele><time>2026-04-18T16:35:12.786Z</time></trkpt><trkpt lat="42.0673933" lon="-8.033145"><ele>1026.6666666666667</ele><time>2026-04-18T16:35:13.788Z</time></trkpt><trkpt lat="42.06747" lon="-8.033075"><ele>1024.5</ele><time>2026-04-18T16:35:14.786Z</time></trkpt><trkpt lat="42.0675233" lon="-8.033025"><ele>1022.3333333333333</ele><time>2026-04-18T16:35:15.786Z</time></trkpt><trkpt lat="42.0676283" lon="-8.0329217"><ele>1020.1666666666666</ele><time>2026-04-18T16:35:17.786Z</time></trkpt><trkpt lat="42.06769" lon="-8.0328617"><ele>1018.0</ele><time>2026-04-18T16:35:18.787Z</time></trkpt><trkpt lat="42.067755" lon="-8.032815"><ele>1018.0</ele><time>2026-04-18T16:35:19.786Z</time></trkpt><trkpt lat="42.0678233" lon="-8.0327817"><ele>1018.0</ele><time>2026-04-18T16:35:20.788Z</time></trkpt><trkpt lat="42.0678883" lon="-8.03274"><ele>1018.0</ele><time>2026-04-18T16:35:21.786Z</time></trkpt><trkpt lat="42.06799" lon="-8.0326767"><ele>1018.0</ele><time>2026-04-18T16:35:23.786Z</time></trkpt><trkpt lat="42.0680883" lon="-8.0326067"><ele>1018.0</ele><time>2026-04-18T16:35:25.785Z</time></trkpt><trkpt lat="42.0681667" lon="-8.0325533"><ele>1017.9999999999999</ele><time>2026-04-18T16:35:27.786Z</time></trkpt><trkpt lat="42.0682283" lon="-8.03253"><ele>1018.0</ele><time>2026-04-18T16:35:29.787Z</time></trkpt><trkpt lat="42.0683083" lon="-8.0325217"><ele>1018.0</ele><time>2026-04-18T16:35:32.786Z</time></trkpt><trkpt lat="42.0683717" lon="-8.0324683"><ele>1018.0</ele><time>2026-04-18T16:35:34.783Z</time></trkpt><trkpt lat="42.0684683" lon="-8.0323967"><ele>1017.9999999999999</ele><time>2026-04-18T16:35:36.786Z</time></trkpt><trkpt lat="42.0685467" lon="-8.0323517"><ele>1018.0</ele><time>2026-04-18T16:35:37.785Z</time></trkpt><trkpt lat="42.06861" lon="-8.0323083"><ele>1018.2</ele><time>2026-04-18T16:35:38.786Z</time></trkpt><trkpt lat="42.06869" lon="-8.032255"><ele>1018.4</ele><time>2026-04-18T16:35:39.786Z</time></trkpt><trkpt lat="42.06878" lon="-8.032195"><ele>1018.6000000000001</ele><time>2026-04-18T16:35:40.784Z</time></trkpt><trkpt lat="42.0688567" lon="-8.0321483"><ele>1018.8000000000001</ele><time>2026-04-18T16:35:41.786Z</time></trkpt><trkpt lat="42.0689333" lon="-8.0320933"><ele>1019.0</ele><time>2026-04-18T16:35:42.786Z</time></trkpt><trkpt lat="42.0690133" lon="-8.0320367"><ele>1019.0000000000001</ele><time>2026-04-18T16:35:43.786Z</time></trkpt><trkpt lat="42.0690867" lon="-8.03199"><ele>1019.0</ele><time>2026-04-18T16:35:44.788Z</time></trkpt><trkpt lat="42.0691633" lon="-8.0319267"><ele>1019.0</ele><time>2026-04-18T16:35:45.789Z</time></trkpt><trkpt lat="42.0692417" lon="-8.0318683"><ele>1019.0</ele><time>2026-04-18T16:35:46.786Z</time></trkpt><trkpt lat="42.0693167" lon="-8.031815"><ele>1019.0000000000001</ele><time>2026-04-18T16:35:47.789Z</time></trkpt><trkpt lat="42.0693917" lon="-8.0317617"><ele>1019.0</ele><time>2026-04-18T16:35:48.785Z</time></trkpt><trkpt lat="42.0694667" lon="-8.031705"><ele>1020.3333333333334</ele><time>2026-04-18T16:35:49.787Z</time></trkpt><trkpt lat="42.06954" lon="-8.031645"><ele>1021.6666666666667</ele><time>2026-04-18T16:35:50.787Z</time></trkpt><trkpt lat="42.0696117" lon="-8.031585"><ele>1023.0</ele><time>2026-04-18T16:35:51.787Z</time></trkpt><trkpt lat="42.06969" lon="-8.0315283"><ele>1024.3333333333333</ele><time>2026-04-18T16:35:52.786Z</time></trkpt><trkpt lat="42.06977" lon="-8.0314717"><ele>1025.6666666666665</ele><time>2026-04-18T16:35:53.787Z</time></trkpt><trkpt lat="42.0698467" lon="-8.0314067"><ele>1027.0</ele><time>2026-04-18T16:35:54.786Z</time></trkpt><trkpt lat="42.0699233" lon="-8.0313367"><ele>1028.8</ele><time>2026-04-18T16:35:55.786Z</time></trkpt><trkpt lat="42.0700033" lon="-8.0312733"><ele>1030.6</ele><time>2026-04-18T16:35:56.786Z</time></trkpt><trkpt lat="42.0700883" lon="-8.0312033"><ele>1032.3999999999999</ele><time>2026-04-18T16:35:57.787Z</time></trkpt><trkpt lat="42.0701817" lon="-8.0311333"><ele>1034.2</ele><time>2026-04-18T16:35:58.788Z</time></trkpt><trkpt lat="42.0702767" lon="-8.0310617"><ele>1036.0</ele><time>2026-04-18T16:35:59.787Z</time></trkpt><trkpt lat="42.0703733" lon="-8.03099"><ele>1036.0</ele><time>2026-04-18T16:36:00.788Z</time></trkpt><trkpt lat="42.0704633" lon="-8.03092"><ele>1036.0</ele><time>2026-04-18T16:36:01.785Z</time></trkpt><trkpt lat="42.07055" lon="-8.03085"><ele>1036.0</ele><time>2026-04-18T16:36:02.788Z</time></trkpt><trkpt lat="42.0706283" lon="-8.0307967"><ele>1036.0</ele><time>2026-04-18T16:36:03.787Z</time></trkpt><trkpt lat="42.0706983" lon="-8.0307633"><ele>1036.0</ele><time>2026-04-18T16:36:04.788Z</time></trkpt><trkpt lat="42.0707983" lon="-8.0307333"><ele>1037.2</ele><time>2026-04-18T16:36:06.787Z</time></trkpt><trkpt lat="42.0708833" lon="-8.0307167"><ele>1038.3999999999999</ele><time>2026-04-18T16:36:08.788Z</time></trkpt><trkpt lat="42.0709883" lon="-8.030725"><ele>1039.6</ele><time>2026-04-18T16:36:10.785Z</time></trkpt><trkpt lat="42.07108" lon="-8.0307733"><ele>1040.8</ele><time>2026-04-18T16:36:12.787Z</time></trkpt><trkpt lat="42.071185" lon="-8.0308367"><ele>1042.0</ele><time>2026-04-18T16:36:14.788Z</time></trkpt><trkpt lat="42.0712933" lon="-8.0309167"><ele>1042.0</ele><time>2026-04-18T16:36:16.787Z</time></trkpt><trkpt lat="42.0713467" lon="-8.0309767"><ele>1042.0</ele><time>2026-04-18T16:36:17.785Z</time></trkpt><trkpt lat="42.0713983" lon="-8.0310383"><ele>1042.0</ele><time>2026-04-18T16:36:18.787Z</time></trkpt><trkpt lat="42.071455" lon="-8.0311017"><ele>1042.0</ele><time>2026-04-18T16:36:19.786Z</time></trkpt><trkpt lat="42.0715133" lon="-8.0311633"><ele>1042.0</ele><time>2026-04-18T16:36:20.787Z</time></trkpt><trkpt lat="42.07157" lon="-8.0312283"><ele>1042.0</ele><time>2026-04-18T16:36:21.784Z</time></trkpt><trkpt lat="42.0716267" lon="-8.0313017"><ele>1042.0</ele><time>2026-04-18T16:36:22.786Z</time></trkpt><trkpt lat="42.07167" lon="-8.0313667"><ele>1039.8333333333333</ele><time>2026-04-18T16:36:23.786Z</time></trkpt><trkpt lat="42.0717617" lon="-8.0314067"><ele>1037.6666666666665</ele><time>2026-04-18T16:36:25.786Z</time></trkpt><trkpt lat="42.071825" lon="-8.0314433"><ele>1035.5</ele><time>2026-04-18T16:36:27.787Z</time></trkpt><trkpt lat="42.07187" lon="-8.03151"><ele>1033.3333333333333</ele><time>2026-04-18T16:36:31.789Z</time></trkpt><trkpt lat="42.0719183" lon="-8.0315667"><ele>1031.1666666666667</ele><time>2026-04-18T16:36:34.784Z</time></trkpt><trkpt lat="42.0719633" lon="-8.0316883"><ele>1029.0</ele><time>2026-04-18T16:36:37.784Z</time></trkpt><trkpt lat="42.0720267" lon="-8.0317983"><ele>1029.0</ele><time>2026-04-18T16:36:39.786Z</time></trkpt><trkpt lat="42.0720767" lon="-8.031855"><ele>1029.0</ele><time>2026-04-18T16:36:40.787Z</time></trkpt><trkpt lat="42.0721283" lon="-8.0319167"><ele>1029.0</ele><time>2026-04-18T16:36:41.787Z</time></trkpt><trkpt lat="42.0722117" lon="-8.032015"><ele>1029.0</ele><time>2026-04-18T16:36:43.788Z</time></trkpt><trkpt lat="42.0722917" lon="-8.03211"><ele>1029.0</ele><time>2026-04-18T16:36:45.786Z</time></trkpt><trkpt lat="42.0723667" lon="-8.0322033"><ele>1027.8333333333333</ele><time>2026-04-18T16:36:47.788Z</time></trkpt><trkpt lat="42.0724583" lon="-8.0323067"><ele>1026.6666666666667</ele><time>2026-04-18T16:36:49.786Z</time></trkpt><trkpt lat="42.0725133" lon="-8.0323583"><ele>1025.5</ele><time>2026-04-18T16:36:50.789Z</time></trkpt><trkpt lat="42.0725733" lon="-8.0324183"><ele>1024.3333333333335</ele><time>2026-04-18T16:36:51.788Z</time></trkpt><trkpt lat="42.0726383" lon="-8.0324867"><ele>1023.1666666666667</ele><time>2026-04-18T16:36:52.785Z</time></trkpt><trkpt lat="42.07271" lon="-8.03256"><ele>1022.0</ele><time>2026-04-18T16:36:53.787Z</time></trkpt><trkpt lat="42.0727917" lon="-8.0326517"><ele>1027.25</ele><time>2026-04-18T16:36:54.787Z</time></trkpt><trkpt lat="42.0728817" lon="-8.0327467"><ele>1032.5</ele><time>2026-04-18T16:36:55.787Z</time></trkpt><trkpt lat="42.0729883" lon="-8.0328633"><ele>1037.75</ele><time>2026-04-18T16:36:56.788Z</time></trkpt><trkpt lat="42.073095" lon="-8.0329817"><ele>1043.0</ele><time>2026-04-18T16:36:57.787Z</time></trkpt><trkpt lat="42.073195" lon="-8.0330967"><ele>1043.8333333333335</ele><time>2026-04-18T16:36:58.785Z</time></trkpt><trkpt lat="42.0732817" lon="-8.0331933"><ele>1044.6666666666667</ele><time>2026-04-18T16:36:59.785Z</time></trkpt><trkpt lat="42.0733533" lon="-8.0332783"><ele>1045.5</ele><time>2026-04-18T16:37:00.786Z</time></trkpt><trkpt lat="42.07341" lon="-8.03335"><ele>1046.3333333333333</ele><time>2026-04-18T16:37:01.786Z</time></trkpt><trkpt lat="42.07346" lon="-8.033405"><ele>1047.1666666666665</ele><time>2026-04-18T16:37:02.786Z</time></trkpt><trkpt lat="42.0735483" lon="-8.0334467"><ele>1048.0</ele><time>2026-04-18T16:37:04.786Z</time></trkpt><trkpt lat="42.0736283" lon="-8.03341"><ele>1048.0</ele><time>2026-04-18T16:37:06.786Z</time></trkpt><trkpt lat="42.0737017" lon="-8.033375"><ele>1048.0</ele><time>2026-04-18T16:37:08.786Z</time></trkpt><trkpt lat="42.0737533" lon="-8.0332983"><ele>1048.0</ele><time>2026-04-18T16:37:10.786Z</time></trkpt><trkpt lat="42.07381" lon="-8.0331983"><ele>1048.0</ele><time>2026-04-18T16:37:12.785Z</time></trkpt><trkpt lat="42.0738733" lon="-8.0330983"><ele>1048.0</ele><time>2026-04-18T16:37:14.786Z</time></trkpt><trkpt lat="42.073935" lon="-8.0329983"><ele>1048.0</ele><time>2026-04-18T16:37:16.788Z</time></trkpt><trkpt lat="42.07397" lon="-8.0329"><ele>1045.4</ele><time>2026-04-18T16:37:18.787Z</time></trkpt><trkpt lat="42.0740133" lon="-8.0328217"><ele>1042.8</ele><time>2026-04-18T16:37:21.785Z</time></trkpt><trkpt lat="42.0741033" lon="-8.03276"><ele>1040.2</ele><time>2026-04-18T16:37:25.787Z</time></trkpt><trkpt lat="42.0741917" lon="-8.0326817"><ele>1037.6</ele><time>2026-04-18T16:37:27.787Z</time></trkpt><trkpt lat="42.0742833" lon="-8.0325667"><ele>1035.0</ele><time>2026-04-18T16:37:29.788Z</time></trkpt><trkpt lat="42.07433" lon="-8.0325"><ele>1032.3333333333333</ele><time>2026-04-18T16:37:30.788Z</time></trkpt><trkpt lat="42.07438" lon="-8.0324283"><ele>1029.6666666666667</ele><time>2026-04-18T16:37:31.788Z</time></trkpt><trkpt lat="42.0744333" lon="-8.0323617"><ele>1027.0</ele><time>2026-04-18T16:37:32.788Z</time></trkpt><trkpt lat="42.074485" lon="-8.0323017"><ele>1024.3333333333335</ele><time>2026-04-18T16:37:33.788Z</time></trkpt><trkpt lat="42.0745667" lon="-8.0321917"><ele>1021.6666666666667</ele><time>2026-04-18T16:37:35.789Z</time></trkpt><trkpt lat="42.07464" lon="-8.0320867"><ele>1019.0</ele><time>2026-04-18T16:37:37.787Z</time></trkpt><trkpt lat="42.0747267" lon="-8.031975"><ele>1019.0000000000001</ele><time>2026-04-18T16:37:39.788Z</time></trkpt><trkpt lat="42.0747767" lon="-8.0319233"><ele>1019.0</ele><time>2026-04-18T16:37:40.788Z</time></trkpt><trkpt lat="42.0748267" lon="-8.03186"><ele>1019.0</ele><time>2026-04-18T16:37:41.788Z</time></trkpt><trkpt lat="42.0749117" lon="-8.0317617"><ele>1019.0</ele><time>2026-04-18T16:37:43.787Z</time></trkpt><trkpt lat="42.074985" lon="-8.03169"><ele>1019.0000000000001</ele><time>2026-04-18T16:37:45.788Z</time></trkpt><trkpt lat="42.0750467" lon="-8.031625"><ele>1019.0</ele><time>2026-04-18T16:37:47.788Z</time></trkpt><trkpt lat="42.07511" lon="-8.0315467"><ele>1020.0000000000001</ele><time>2026-04-18T16:37:50.79Z</time></trkpt><trkpt lat="42.0751783" lon="-8.0314817"><ele>1021.0</ele><time>2026-04-18T16:37:53.788Z</time></trkpt><trkpt lat="42.07525" lon="-8.0314117"><ele>1022.0</ele><time>2026-04-18T16:37:56.787Z</time></trkpt><trkpt lat="42.0753017" lon="-8.0313583"><ele>1023.0</ele><time>2026-04-18T16:37:59.788Z</time></trkpt><trkpt lat="42.0753633" lon="-8.0312833"><ele>1024.0</ele><time>2026-04-18T16:38:03.786Z</time></trkpt><trkpt lat="42.0754183" lon="-8.0312133"><ele>1025.0</ele><time>2026-04-18T16:38:05.786Z</time></trkpt><trkpt lat="42.0755" lon="-8.03113"><ele>1025.0</ele><time>2026-04-18T16:38:07.787Z</time></trkpt><trkpt lat="42.0755517" lon="-8.031075"><ele>1025.0</ele><time>2026-04-18T16:38:08.788Z</time></trkpt><trkpt lat="42.0756367" lon="-8.030955"><ele>1025.0</ele><time>2026-04-18T16:38:10.786Z</time></trkpt><trkpt lat="42.0757233" lon="-8.0308467"><ele>1025.0</ele><time>2026-04-18T16:38:12.787Z</time></trkpt><trkpt lat="42.0758133" lon="-8.030745"><ele>1025.0</ele><time>2026-04-18T16:38:14.789Z</time></trkpt><trkpt lat="42.0758617" lon="-8.0306817"><ele>1026.5714285714284</ele><time>2026-04-18T16:38:15.785Z</time></trkpt><trkpt lat="42.0759083" lon="-8.0306217"><ele>1028.142857142857</ele><time>2026-04-18T16:38:16.788Z</time></trkpt><trkpt lat="42.0759533" lon="-8.0305567"><ele>1029.7142857142858</ele><time>2026-04-18T16:38:17.785Z</time></trkpt><trkpt lat="42.0759983" lon="-8.03049"><ele>1031.2857142857142</ele><time>2026-04-18T16:38:18.788Z</time></trkpt><trkpt lat="42.0760433" lon="-8.0304167"><ele>1032.857142857143</ele><time>2026-04-18T16:38:19.785Z</time></trkpt><trkpt lat="42.07609" lon="-8.0303583"><ele>1034.4285714285713</ele><time>2026-04-18T16:38:20.789Z</time></trkpt><trkpt lat="42.0761417" lon="-8.030305"><ele>1036.0</ele><time>2026-04-18T16:38:21.785Z</time></trkpt><trkpt lat="42.0761983" lon="-8.03023"><ele>1036.0</ele><time>2026-04-18T16:38:22.786Z</time></trkpt><trkpt lat="42.076255" lon="-8.0301567"><ele>1036.0</ele><time>2026-04-18T16:38:23.786Z</time></trkpt><trkpt lat="42.0763133" lon="-8.030075"><ele>1036.0</ele><time>2026-04-18T16:38:24.788Z</time></trkpt><trkpt lat="42.0763817" lon="-8.0299867"><ele>1036.0</ele><time>2026-04-18T16:38:25.786Z</time></trkpt><trkpt lat="42.0764517" lon="-8.0298967"><ele>1036.0</ele><time>2026-04-18T16:38:26.787Z</time></trkpt><trkpt lat="42.07652" lon="-8.0298083"><ele>1036.0</ele><time>2026-04-18T16:38:27.786Z</time></trkpt><trkpt lat="42.0765883" lon="-8.02973"><ele>1037.2</ele><time>2026-04-18T16:38:28.787Z</time></trkpt><trkpt lat="42.0766533" lon="-8.029645"><ele>1038.3999999999999</ele><time>2026-04-18T16:38:29.786Z</time></trkpt><trkpt lat="42.0767267" lon="-8.0295533"><ele>1039.6</ele><time>2026-04-18T16:38:30.785Z</time></trkpt><trkpt lat="42.0767967" lon="-8.029465"><ele>1040.8</ele><time>2026-04-18T16:38:31.785Z</time></trkpt><trkpt lat="42.0768667" lon="-8.0293817"><ele>1042.0</ele><time>2026-04-18T16:38:32.785Z</time></trkpt><trkpt lat="42.07693" lon="-8.029285"><ele>1042.0</ele><time>2026-04-18T16:38:33.788Z</time></trkpt><trkpt lat="42.0769933" lon="-8.0292017"><ele>1042.0</ele><time>2026-04-18T16:38:34.784Z</time></trkpt><trkpt lat="42.0770533" lon="-8.0291117"><ele>1042.0</ele><time>2026-04-18T16:38:35.785Z</time></trkpt><trkpt lat="42.0771017" lon="-8.02904"><ele>1042.0</ele><time>2026-04-18T16:38:36.785Z</time></trkpt><trkpt lat="42.0771433" lon="-8.0289733"><ele>1042.0</ele><time>2026-04-18T16:38:37.787Z</time></trkpt><trkpt lat="42.07719" lon="-8.0288767"><ele>1042.0</ele><time>2026-04-18T16:38:39.785Z</time></trkpt><trkpt lat="42.0772433" lon="-8.0288133"><ele>1042.6</ele><time>2026-04-18T16:38:42.787Z</time></trkpt><trkpt lat="42.0773033" lon="-8.0287517"><ele>1043.2</ele><time>2026-04-18T16:38:50.787Z</time></trkpt><trkpt lat="42.0773817" lon="-8.0286583"><ele>1043.8</ele><time>2026-04-18T16:38:52.787Z</time></trkpt><trkpt lat="42.077465" lon="-8.0285517"><ele>1044.4</ele><time>2026-04-18T16:38:54.786Z</time></trkpt><trkpt lat="42.0775317" lon="-8.0284367"><ele>1045.0</ele><time>2026-04-18T16:38:56.787Z</time></trkpt><trkpt lat="42.07759" lon="-8.0283283"><ele>1044.8333333333333</ele><time>2026-04-18T16:38:58.787Z</time></trkpt><trkpt lat="42.0776517" lon="-8.0282683"><ele>1044.6666666666665</ele><time>2026-04-18T16:39:13.787Z</time></trkpt><trkpt lat="42.0777017" lon="-8.0281817"><ele>1044.5</ele><time>2026-04-18T16:39:16.786Z</time></trkpt><trkpt lat="42.0777517" lon="-8.0281033"><ele>1044.3333333333333</ele><time>2026-04-18T16:40:42.787Z</time></trkpt><trkpt lat="42.0777133" lon="-8.028015"><ele>1044.1666666666667</ele><time>2026-04-18T16:40:44.788Z</time></trkpt><trkpt lat="42.07763" lon="-8.0278733"><ele>1044.0</ele><time>2026-04-18T16:40:46.787Z</time></trkpt><trkpt lat="42.077585" lon="-8.0278"><ele>1044.0</ele><time>2026-04-18T16:40:47.786Z</time></trkpt><trkpt lat="42.0775233" lon="-8.0276833"><ele>1044.0</ele><time>2026-04-18T16:40:49.785Z</time></trkpt><trkpt lat="42.077475" lon="-8.02759"><ele>1044.0</ele><time>2026-04-18T16:40:51.783Z</time></trkpt><trkpt lat="42.07743" lon="-8.027505"><ele>1044.0</ele><time>2026-04-18T16:40:53.784Z</time></trkpt><trkpt lat="42.0773917" lon="-8.027415"><ele>1044.0</ele><time>2026-04-18T16:40:55.786Z</time></trkpt><trkpt lat="42.077345" lon="-8.02732"><ele>1044.0</ele><time>2026-04-18T16:40:57.784Z</time></trkpt><trkpt lat="42.0772917" lon="-8.0272133"><ele>1043.0</ele><time>2026-04-18T16:40:59.786Z</time></trkpt><trkpt lat="42.0772433" lon="-8.0271183"><ele>1042.0</ele><time>2026-04-18T16:41:01.787Z</time></trkpt><trkpt lat="42.0771833" lon="-8.0270117"><ele>1041.0</ele><time>2026-04-18T16:41:03.786Z</time></trkpt><trkpt lat="42.0771217" lon="-8.026895"><ele>1040.0</ele><time>2026-04-18T16:41:05.787Z</time></trkpt><trkpt lat="42.077065" lon="-8.0267817"><ele>1039.0</ele><time>2026-04-18T16:41:07.787Z</time></trkpt><trkpt lat="42.076995" lon="-8.0266517"><ele>1039.7142857142856</ele><time>2026-04-18T16:41:09.786Z</time></trkpt><trkpt lat="42.0769583" lon="-8.0265733"><ele>1040.4285714285713</ele><time>2026-04-18T16:41:10.787Z</time></trkpt><trkpt lat="42.0769183" lon="-8.0264917"><ele>1041.142857142857</ele><time>2026-04-18T16:41:11.786Z</time></trkpt><trkpt lat="42.0768733" lon="-8.026405"><ele>1041.8571428571427</ele><time>2026-04-18T16:41:12.788Z</time></trkpt><trkpt lat="42.0768317" lon="-8.0263167"><ele>1042.5714285714284</ele><time>2026-04-18T16:41:13.787Z</time></trkpt><trkpt lat="42.07679" lon="-8.026235"><ele>1043.2857142857142</ele><time>2026-04-18T16:41:14.787Z</time></trkpt><trkpt lat="42.07675" lon="-8.026155"><ele>1044.0</ele><time>2026-04-18T16:41:15.787Z</time></trkpt><trkpt lat="42.0767083" lon="-8.0260733"><ele>1044.0</ele><time>2026-04-18T16:41:16.785Z</time></trkpt><trkpt lat="42.0766633" lon="-8.0259867"><ele>1044.0</ele><time>2026-04-18T16:41:17.786Z</time></trkpt><trkpt lat="42.0766217" lon="-8.0259"><ele>1044.0</ele><time>2026-04-18T16:41:18.785Z</time></trkpt><trkpt lat="42.0765833" lon="-8.025815"><ele>1044.0</ele><time>2026-04-18T16:41:19.786Z</time></trkpt><trkpt lat="42.076555" lon="-8.025735"><ele>1044.0</ele><time>2026-04-18T16:41:20.785Z</time></trkpt><trkpt lat="42.0765167" lon="-8.0255817"><ele>1044.0</ele><time>2026-04-18T16:41:22.784Z</time></trkpt><trkpt lat="42.0765033" lon="-8.0254933"><ele>1044.1666666666667</ele><time>2026-04-18T16:41:23.785Z</time></trkpt><trkpt lat="42.0765" lon="-8.0253933"><ele>1044.3333333333333</ele><time>2026-04-18T16:41:24.789Z</time></trkpt><trkpt lat="42.07651" lon="-8.025295"><ele>1044.5</ele><time>2026-04-18T16:41:25.788Z</time></trkpt><trkpt lat="42.0765267" lon="-8.025205"><ele>1044.6666666666665</ele><time>2026-04-18T16:41:26.788Z</time></trkpt><trkpt lat="42.0765433" lon="-8.02512"><ele>1044.8333333333333</ele><time>2026-04-18T16:41:27.785Z</time></trkpt><trkpt lat="42.0765683" lon="-8.025"><ele>1045.0</ele><time>2026-04-18T16:41:29.787Z</time></trkpt><trkpt lat="42.076585" lon="-8.0248933"><ele>1045.0</ele><time>2026-04-18T16:41:31.787Z</time></trkpt><trkpt lat="42.076595" lon="-8.0248083"><ele>1045.0</ele><time>2026-04-18T16:41:33.787Z</time></trkpt><trkpt lat="42.0765433" lon="-8.02475"><ele>1045.0</ele><time>2026-04-18T16:41:40.787Z</time></trkpt><trkpt lat="42.0764583" lon="-8.0247467"><ele>1045.0</ele><time>2026-04-18T16:41:42.787Z</time></trkpt><trkpt lat="42.0763533" lon="-8.02474"><ele>1045.0</ele><time>2026-04-18T16:41:44.787Z</time></trkpt><trkpt lat="42.0762633" lon="-8.024735"><ele>1045.0</ele><time>2026-04-18T16:41:46.786Z</time></trkpt><trkpt lat="42.0761883" lon="-8.0247283"><ele>1045.0</ele><time>2026-04-18T16:41:48.785Z</time></trkpt><trkpt lat="42.0761067" lon="-8.0247"><ele>1045.0</ele><time>2026-04-18T16:41:52.786Z</time></trkpt><trkpt lat="42.07603" lon="-8.024635"><ele>1045.0</ele><time>2026-04-18T16:41:55.787Z</time></trkpt><trkpt lat="42.075935" lon="-8.0245483"><ele>1045.0</ele><time>2026-04-18T16:41:57.786Z</time></trkpt><trkpt lat="42.0758483" lon="-8.0244283"><ele>1045.0</ele><time>2026-04-18T16:41:59.786Z</time></trkpt><trkpt lat="42.075795" lon="-8.0243683"><ele>1045.0</ele><time>2026-04-18T16:42:00.786Z</time></trkpt><trkpt lat="42.0757233" lon="-8.0243167"><ele>1045.0</ele><time>2026-04-18T16:42:01.787Z</time></trkpt><trkpt lat="42.0756483" lon="-8.024265"><ele>1045.0</ele><time>2026-04-18T16:42:02.788Z</time></trkpt><trkpt lat="42.07558" lon="-8.0242083"><ele>1045.0</ele><time>2026-04-18T16:42:03.787Z</time></trkpt><trkpt lat="42.0755167" lon="-8.02414"><ele>1045.0</ele><time>2026-04-18T16:42:04.787Z</time></trkpt><trkpt lat="42.0754533" lon="-8.02408"><ele>1045.0</ele><time>2026-04-18T16:42:05.787Z</time></trkpt><trkpt lat="42.075395" lon="-8.0240267"><ele>1045.0</ele><time>2026-04-18T16:42:06.787Z</time></trkpt><trkpt lat="42.0753283" lon="-8.023985"><ele>1045.0</ele><time>2026-04-18T16:42:07.787Z</time></trkpt><trkpt lat="42.07526" lon="-8.0239483"><ele>1045.0</ele><time>2026-04-18T16:42:08.786Z</time></trkpt><trkpt lat="42.07519" lon="-8.0239117"><ele>1045.0</ele><time>2026-04-18T16:42:09.787Z</time></trkpt><trkpt lat="42.07512" lon="-8.0238617"><ele>1045.0</ele><time>2026-04-18T16:42:10.786Z</time></trkpt><trkpt lat="42.07505" lon="-8.0238017"><ele>1045.0</ele><time>2026-04-18T16:42:11.787Z</time></trkpt><trkpt lat="42.0749783" lon="-8.0237383"><ele>1044.8333333333333</ele><time>2026-04-18T16:42:12.787Z</time></trkpt><trkpt lat="42.0749067" lon="-8.02367"><ele>1044.6666666666665</ele><time>2026-04-18T16:42:13.787Z</time></trkpt><trkpt lat="42.0748267" lon="-8.0236083"><ele>1044.5</ele><time>2026-04-18T16:42:14.787Z</time></trkpt><trkpt lat="42.0747467" lon="-8.0235517"><ele>1044.3333333333333</ele><time>2026-04-18T16:42:15.787Z</time></trkpt><trkpt lat="42.07467" lon="-8.0234983"><ele>1044.1666666666667</ele><time>2026-04-18T16:42:16.787Z</time></trkpt><trkpt lat="42.074595" lon="-8.0234467"><ele>1044.0</ele><time>2026-04-18T16:42:17.787Z</time></trkpt><trkpt lat="42.07452" lon="-8.0233867"><ele>1044.0</ele><time>2026-04-18T16:42:18.787Z</time></trkpt><trkpt lat="42.0744483" lon="-8.0233233"><ele>1044.0</ele><time>2026-04-18T16:42:19.787Z</time></trkpt><trkpt lat="42.0743667" lon="-8.0232567"><ele>1044.0</ele><time>2026-04-18T16:42:20.788Z</time></trkpt><trkpt lat="42.0742817" lon="-8.0232017"><ele>1044.0</ele><time>2026-04-18T16:42:21.787Z</time></trkpt><trkpt lat="42.0741967" lon="-8.0231517"><ele>1044.0</ele><time>2026-04-18T16:42:22.787Z</time></trkpt><trkpt lat="42.0741117" lon="-8.0231017"><ele>1046.2</ele><time>2026-04-18T16:42:23.788Z</time></trkpt><trkpt lat="42.0740283" lon="-8.0230417"><ele>1048.4</ele><time>2026-04-18T16:42:24.787Z</time></trkpt><trkpt lat="42.0739483" lon="-8.0229767"><ele>1050.6</ele><time>2026-04-18T16:42:25.786Z</time></trkpt><trkpt lat="42.0738717" lon="-8.02291"><ele>1052.8</ele><time>2026-04-18T16:42:26.788Z</time></trkpt><trkpt lat="42.0737967" lon="-8.02284"><ele>1055.0</ele><time>2026-04-18T16:42:27.787Z</time></trkpt><trkpt lat="42.0737233" lon="-8.0227717"><ele>1055.0</ele><time>2026-04-18T16:42:28.787Z</time></trkpt><trkpt lat="42.0736533" lon="-8.0227117"><ele>1055.0</ele><time>2026-04-18T16:42:29.787Z</time></trkpt><trkpt lat="42.07358" lon="-8.0226633"><ele>1055.0</ele><time>2026-04-18T16:42:30.787Z</time></trkpt><trkpt lat="42.0735" lon="-8.022615"><ele>1055.0</ele><time>2026-04-18T16:42:31.787Z</time></trkpt><trkpt lat="42.0734167" lon="-8.02255"><ele>1055.0</ele><time>2026-04-18T16:42:32.788Z</time></trkpt><trkpt lat="42.073325" lon="-8.0224783"><ele>1055.5</ele><time>2026-04-18T16:42:33.786Z</time></trkpt><trkpt lat="42.0732383" lon="-8.0224167"><ele>1056.0</ele><time>2026-04-18T16:42:34.786Z</time></trkpt><trkpt lat="42.0731617" lon="-8.0223783"><ele>1056.5</ele><time>2026-04-18T16:42:35.787Z</time></trkpt><trkpt lat="42.0730833" lon="-8.0223567"><ele>1057.0</ele><time>2026-04-18T16:42:36.787Z</time></trkpt><trkpt lat="42.0730117" lon="-8.0223317"><ele>1057.5</ele><time>2026-04-18T16:42:37.786Z</time></trkpt><trkpt lat="42.0729417" lon="-8.0222933"><ele>1058.0</ele><time>2026-04-18T16:42:38.787Z</time></trkpt><trkpt lat="42.0728683" lon="-8.0222367"><ele>1058.0</ele><time>2026-04-18T16:42:39.787Z</time></trkpt><trkpt lat="42.07279" lon="-8.0221567"><ele>1058.0</ele><time>2026-04-18T16:42:40.787Z</time></trkpt><trkpt lat="42.0727117" lon="-8.0220683"><ele>1058.0</ele><time>2026-04-18T16:42:41.787Z</time></trkpt><trkpt lat="42.0726467" lon="-8.02198"><ele>1058.0</ele><time>2026-04-18T16:42:42.787Z</time></trkpt><trkpt lat="42.0726" lon="-8.0218783"><ele>1058.0</ele><time>2026-04-18T16:42:43.786Z</time></trkpt><trkpt lat="42.0725733" lon="-8.0217833"><ele>1058.0</ele><time>2026-04-18T16:42:44.787Z</time></trkpt><trkpt lat="42.072555" lon="-8.0216917"><ele>1058.0</ele><time>2026-04-18T16:42:45.786Z</time></trkpt><trkpt lat="42.0725233" lon="-8.0215683"><ele>1058.0</ele><time>2026-04-18T16:42:47.787Z</time></trkpt><trkpt lat="42.0724817" lon="-8.021485"><ele>1058.0</ele><time>2026-04-18T16:42:50.788Z</time></trkpt><trkpt lat="42.0723967" lon="-8.0214983"><ele>1058.0</ele><time>2026-04-18T16:42:53.787Z</time></trkpt><trkpt lat="42.0723" lon="-8.0214883"><ele>1058.0</ele><time>2026-04-18T16:42:55.784Z</time></trkpt><trkpt lat="42.0721983" lon="-8.0214283"><ele>1056.7142857142858</ele><time>2026-04-18T16:42:57.787Z</time></trkpt><trkpt lat="42.0721467" lon="-8.0213767"><ele>1055.4285714285713</ele><time>2026-04-18T16:42:58.786Z</time></trkpt><trkpt lat="42.0720917" lon="-8.0213167"><ele>1054.142857142857</ele><time>2026-04-18T16:42:59.787Z</time></trkpt><trkpt lat="42.0720367" lon="-8.0212533"><ele>1052.857142857143</ele><time>2026-04-18T16:43:00.783Z</time></trkpt><trkpt lat="42.0719833" lon="-8.02117"><ele>1051.5714285714287</ele><time>2026-04-18T16:43:01.787Z</time></trkpt><trkpt lat="42.07193" lon="-8.0210883"><ele>1050.2857142857142</ele><time>2026-04-18T16:43:02.787Z</time></trkpt><trkpt lat="42.0718767" lon="-8.0210167"><ele>1049.0</ele><time>2026-04-18T16:43:03.787Z</time></trkpt><trkpt lat="42.07182" lon="-8.020945"><ele>1049.0</ele><time>2026-04-18T16:43:04.788Z</time></trkpt><trkpt lat="42.0717583" lon="-8.0208633"><ele>1049.0</ele><time>2026-04-18T16:43:05.787Z</time></trkpt><trkpt lat="42.0716867" lon="-8.0207917"><ele>1049.0</ele><time>2026-04-18T16:43:06.786Z</time></trkpt><trkpt lat="42.0716117" lon="-8.0207233"><ele>1049.0</ele><time>2026-04-18T16:43:07.787Z</time></trkpt><trkpt lat="42.07154" lon="-8.0206567"><ele>1049.0</ele><time>2026-04-18T16:43:08.788Z</time></trkpt><trkpt lat="42.0714633" lon="-8.0205883"><ele>1049.0</ele><time>2026-04-18T16:43:09.787Z</time></trkpt><trkpt lat="42.0714" lon="-8.0205317"><ele>1047.4</ele><time>2026-04-18T16:43:10.787Z</time></trkpt><trkpt lat="42.0713417" lon="-8.0204883"><ele>1045.8000000000002</ele><time>2026-04-18T16:43:11.788Z</time></trkpt><trkpt lat="42.0712733" lon="-8.0203883"><ele>1044.1999999999998</ele><time>2026-04-18T16:43:13.787Z</time></trkpt><trkpt lat="42.0712883" lon="-8.0202167"><ele>1042.6</ele><time>2026-04-18T16:43:15.787Z</time></trkpt><trkpt lat="42.0712717" lon="-8.0200817"><ele>1041.0</ele><time>2026-04-18T16:43:17.787Z</time></trkpt><trkpt lat="42.0711867" lon="-8.0199583"><ele>1040.3999999999999</ele><time>2026-04-18T16:43:19.787Z</time></trkpt><trkpt lat="42.0711233" lon="-8.019895"><ele>1039.8</ele><time>2026-04-18T16:43:20.787Z</time></trkpt><trkpt lat="42.0710417" lon="-8.0198333"><ele>1039.1999999999998</ele><time>2026-04-18T16:43:21.787Z</time></trkpt><trkpt lat="42.0709533" lon="-8.0197733"><ele>1038.6</ele><time>2026-04-18T16:43:22.786Z</time></trkpt><trkpt lat="42.070865" lon="-8.0197083"><ele>1038.0</ele><time>2026-04-18T16:43:23.787Z</time></trkpt><trkpt lat="42.0707833" lon="-8.0196467"><ele>1036.6666666666667</ele><time>2026-04-18T16:43:24.787Z</time></trkpt><trkpt lat="42.0707033" lon="-8.01958"><ele>1035.3333333333333</ele><time>2026-04-18T16:43:25.787Z</time></trkpt><trkpt lat="42.0706267" lon="-8.01951"><ele>1034.0</ele><time>2026-04-18T16:43:26.787Z</time></trkpt><trkpt lat="42.0705517" lon="-8.01945"><ele>1032.6666666666665</ele><time>2026-04-18T16:43:27.787Z</time></trkpt><trkpt lat="42.070485" lon="-8.0193967"><ele>1031.3333333333333</ele><time>2026-04-18T16:43:28.787Z</time></trkpt><trkpt lat="42.0704233" lon="-8.0193467"><ele>1030.0</ele><time>2026-04-18T16:43:29.787Z</time></trkpt><trkpt lat="42.0703233" lon="-8.019265"><ele>1030.0</ele><time>2026-04-18T16:43:31.787Z</time></trkpt><trkpt lat="42.0702383" lon="-8.019195"><ele>1030.0</ele><time>2026-04-18T16:43:33.786Z</time></trkpt><trkpt lat="42.0701767" lon="-8.0191467"><ele>1030.0</ele><time>2026-04-18T16:43:35.786Z</time></trkpt><trkpt lat="42.07011" lon="-8.0191233"><ele>1030.0</ele><time>2026-04-18T16:43:38.788Z</time></trkpt><trkpt lat="42.07002" lon="-8.0190883"><ele>1030.0</ele><time>2026-04-18T16:43:41.786Z</time></trkpt><trkpt lat="42.069955" lon="-8.01907"><ele>1030.0</ele><time>2026-04-18T16:43:43.786Z</time></trkpt><trkpt lat="42.069875" lon="-8.0190483"><ele>1028.6666666666665</ele><time>2026-04-18T16:43:46.786Z</time></trkpt><trkpt lat="42.0698117" lon="-8.0189817"><ele>1027.3333333333333</ele><time>2026-04-18T16:43:49.788Z</time></trkpt><trkpt lat="42.0698083" lon="-8.0188733"><ele>1026.0</ele><time>2026-04-18T16:43:52.787Z</time></trkpt><trkpt lat="42.0698083" lon="-8.0187667"><ele>1024.6666666666667</ele><time>2026-04-18T16:44:28.786Z</time></trkpt><trkpt lat="42.069765" lon="-8.0186633"><ele>1023.3333333333334</ele><time>2026-04-18T16:44:30.787Z</time></trkpt><trkpt lat="42.06971" lon="-8.0185583"><ele>1022.0</ele><time>2026-04-18T16:44:32.789Z</time></trkpt><trkpt lat="42.0696717" lon="-8.0184817"><ele>1022.0000000000001</ele><time>2026-04-18T16:44:34.786Z</time></trkpt><trkpt lat="42.069635" lon="-8.0183667"><ele>1022.0</ele><time>2026-04-18T16:44:37.785Z</time></trkpt><trkpt lat="42.0696283" lon="-8.0182733"><ele>1022.0</ele><time>2026-04-18T16:44:39.787Z</time></trkpt><trkpt lat="42.0696167" lon="-8.018175"><ele>1022.0</ele><time>2026-04-18T16:44:42.787Z</time></trkpt><trkpt lat="42.06961" lon="-8.0180833"><ele>1022.0000000000001</ele><time>2026-04-18T16:44:45.788Z</time></trkpt><trkpt lat="42.0695933" lon="-8.0179717"><ele>1022.0</ele><time>2026-04-18T16:44:48.787Z</time></trkpt><trkpt lat="42.0695967" lon="-8.017875"><ele>1019.8333333333334</ele><time>2026-04-18T16:44:51.787Z</time></trkpt><trkpt lat="42.0695767" lon="-8.0177717"><ele>1017.6666666666667</ele><time>2026-04-18T16:44:55.787Z</time></trkpt><trkpt lat="42.069565" lon="-8.01768"><ele>1015.5</ele><time>2026-04-18T16:44:58.787Z</time></trkpt><trkpt lat="42.0695517" lon="-8.0175683"><ele>1013.3333333333333</ele><time>2026-04-18T16:45:02.788Z</time></trkpt><trkpt lat="42.0695683" lon="-8.0174717"><ele>1011.1666666666666</ele><time>2026-04-18T16:45:05.787Z</time></trkpt><trkpt lat="42.0696" lon="-8.01736"><ele>1009.0</ele><time>2026-04-18T16:45:08.788Z</time></trkpt><trkpt lat="42.0696467" lon="-8.017275"><ele>1006.8333333333333</ele><time>2026-04-18T16:45:12.787Z</time></trkpt><trkpt lat="42.0697133" lon="-8.01724"><ele>1004.6666666666666</ele><time>2026-04-18T16:45:36.787Z</time></trkpt><trkpt lat="42.0697617" lon="-8.01717"><ele>1002.5</ele><time>2026-04-18T16:45:39.787Z</time></trkpt><trkpt lat="42.0698033" lon="-8.01708"><ele>1000.3333333333333</ele><time>2026-04-18T16:46:06.789Z</time></trkpt><trkpt lat="42.0697617" lon="-8.017"><ele>998.1666666666666</ele><time>2026-04-18T16:46:09.788Z</time></trkpt><trkpt lat="42.0698" lon="-8.017105"><ele>996.0</ele><time>2026-04-18T16:47:23.787Z</time></trkpt><trkpt lat="42.069775" lon="-8.0171917"><ele>996.0</ele><time>2026-04-18T16:47:26.789Z</time></trkpt><trkpt lat="42.06971" lon="-8.0172417"><ele>996.0</ele><time>2026-04-18T16:47:35.787Z</time></trkpt><trkpt lat="42.0696367" lon="-8.0173"><ele>996.0</ele><time>2026-04-18T16:47:37.787Z</time></trkpt><trkpt lat="42.0696017" lon="-8.017385"><ele>996.0</ele><time>2026-04-18T16:47:39.787Z</time></trkpt><trkpt lat="42.0695717" lon="-8.0174717"><ele>996.0</ele><time>2026-04-18T16:47:41.787Z</time></trkpt><trkpt lat="42.0695517" lon="-8.017595"><ele>996.0</ele><time>2026-04-18T16:47:44.788Z</time></trkpt><trkpt lat="42.0695567" lon="-8.0177083"><ele>998.1666666666666</ele><time>2026-04-18T16:47:47.787Z</time></trkpt><trkpt lat="42.0695733" lon="-8.0178267"><ele>1000.3333333333333</ele><time>2026-04-18T16:47:51.789Z</time></trkpt><trkpt lat="42.0695833" lon="-8.01793"><ele>1002.5</ele><time>2026-04-18T16:47:53.785Z</time></trkpt><trkpt lat="42.069585" lon="-8.018015"><ele>1004.6666666666666</ele><time>2026-04-18T16:47:55.788Z</time></trkpt><trkpt lat="42.0695933" lon="-8.0181"><ele>1006.8333333333333</ele><time>2026-04-18T16:47:57.787Z</time></trkpt><trkpt lat="42.06961" lon="-8.018185"><ele>1009.0</ele><time>2026-04-18T16:47:59.787Z</time></trkpt><trkpt lat="42.0696333" lon="-8.0183033"><ele>1011.6</ele><time>2026-04-18T16:48:02.785Z</time></trkpt><trkpt lat="42.0696667" lon="-8.0184267"><ele>1014.2</ele><time>2026-04-18T16:48:05.787Z</time></trkpt><trkpt lat="42.0697183" lon="-8.0185217"><ele>1016.8000000000001</ele><time>2026-04-18T16:48:07.788Z</time></trkpt><trkpt lat="42.0697817" lon="-8.0186617"><ele>1019.4000000000001</ele><time>2026-04-18T16:48:09.787Z</time></trkpt><trkpt lat="42.0698133" lon="-8.0187417"><ele>1022.0</ele><time>2026-04-18T16:48:10.787Z</time></trkpt><trkpt lat="42.069895" lon="-8.018865"><ele>1022.1666666666667</ele><time>2026-04-18T16:48:12.787Z</time></trkpt><trkpt lat="42.0699567" lon="-8.0189183"><ele>1022.3333333333334</ele><time>2026-04-18T16:48:13.787Z</time></trkpt><trkpt lat="42.07002" lon="-8.0189683"><ele>1022.5</ele><time>2026-04-18T16:48:14.788Z</time></trkpt><trkpt lat="42.0700933" lon="-8.0190233"><ele>1022.6666666666667</ele><time>2026-04-18T16:48:15.786Z</time></trkpt><trkpt lat="42.07017" lon="-8.0190883"><ele>1022.8333333333334</ele><time>2026-04-18T16:48:16.787Z</time></trkpt><trkpt lat="42.0702517" lon="-8.0191683"><ele>1023.0</ele><time>2026-04-18T16:48:17.786Z</time></trkpt><trkpt lat="42.0703383" lon="-8.0192517"><ele>1024.75</ele><time>2026-04-18T16:48:18.789Z</time></trkpt><trkpt lat="42.0704233" lon="-8.0193317"><ele>1026.5</ele><time>2026-04-18T16:48:19.786Z</time></trkpt><trkpt lat="42.07052" lon="-8.01942"><ele>1028.25</ele><time>2026-04-18T16:48:20.788Z</time></trkpt><trkpt lat="42.0706217" lon="-8.0195133"><ele>1030.0</ele><time>2026-04-18T16:48:21.786Z</time></trkpt><trkpt lat="42.070725" lon="-8.0196083"><ele>1032.0</ele><time>2026-04-18T16:48:22.785Z</time></trkpt><trkpt lat="42.070825" lon="-8.0196983"><ele>1034.0</ele><time>2026-04-18T16:48:23.787Z</time></trkpt><trkpt lat="42.07093" lon="-8.0197833"><ele>1036.0</ele><time>2026-04-18T16:48:24.786Z</time></trkpt><trkpt lat="42.0710333" lon="-8.0198667"><ele>1038.0</ele><time>2026-04-18T16:48:25.786Z</time></trkpt><trkpt lat="42.0711233" lon="-8.019945"><ele>1038.6</ele><time>2026-04-18T16:48:26.789Z</time></trkpt><trkpt lat="42.0711933" lon="-8.0200067"><ele>1039.1999999999998</ele><time>2026-04-18T16:48:27.788Z</time></trkpt><trkpt lat="42.07125" lon="-8.0200533"><ele>1039.8</ele><time>2026-04-18T16:48:28.785Z</time></trkpt><trkpt lat="42.0713217" lon="-8.0201283"><ele>1040.3999999999999</ele><time>2026-04-18T16:48:30.788Z</time></trkpt><trkpt lat="42.0713567" lon="-8.0202417"><ele>1041.0</ele><time>2026-04-18T16:52:36.785Z</time></trkpt><trkpt lat="42.0714183" lon="-8.02038"><ele>1041.0</ele><time>2026-04-18T16:52:38.787Z</time></trkpt><trkpt lat="42.0714633" lon="-8.020475"><ele>1041.0</ele><time>2026-04-18T16:52:39.785Z</time></trkpt><trkpt lat="42.07152" lon="-8.0205417"><ele>1041.0</ele><time>2026-04-18T16:52:40.784Z</time></trkpt><trkpt lat="42.0715917" lon="-8.0205983"><ele>1041.0</ele><time>2026-04-18T16:52:41.784Z</time></trkpt><trkpt lat="42.0716617" lon="-8.02066"><ele>1041.0</ele><time>2026-04-18T16:52:42.785Z</time></trkpt><trkpt lat="42.0717267" lon="-8.0207217"><ele>1041.0</ele><time>2026-04-18T16:52:43.785Z</time></trkpt><trkpt lat="42.0717833" lon="-8.0207833"><ele>1042.142857142857</ele><time>2026-04-18T16:52:44.784Z</time></trkpt><trkpt lat="42.0718367" lon="-8.020845"><ele>1043.2857142857144</ele><time>2026-04-18T16:52:45.787Z</time></trkpt><trkpt lat="42.0719033" lon="-8.0208933"><ele>1044.4285714285716</ele><time>2026-04-18T16:52:46.784Z</time></trkpt><trkpt lat="42.071945" lon="-8.0209683"><ele>1045.5714285714287</ele><time>2026-04-18T16:52:47.784Z</time></trkpt><trkpt lat="42.0719917" lon="-8.02103"><ele>1046.7142857142858</ele><time>2026-04-18T16:52:48.785Z</time></trkpt><trkpt lat="42.0720383" lon="-8.0211017"><ele>1047.857142857143</ele><time>2026-04-18T16:52:49.785Z</time></trkpt><trkpt lat="42.0720883" lon="-8.021165"><ele>1049.0</ele><time>2026-04-18T16:52:50.785Z</time></trkpt><trkpt lat="42.07214" lon="-8.0212283"><ele>1049.0</ele><time>2026-04-18T16:52:51.785Z</time></trkpt><trkpt lat="42.0721917" lon="-8.0212917"><ele>1049.0</ele><time>2026-04-18T16:52:52.785Z</time></trkpt><trkpt lat="42.0722517" lon="-8.0213517"><ele>1049.0</ele><time>2026-04-18T16:52:53.784Z</time></trkpt><trkpt lat="42.0723217" lon="-8.021395"><ele>1049.0</ele><time>2026-04-18T16:52:54.784Z</time></trkpt><trkpt lat="42.0723917" lon="-8.0214267"><ele>1049.0</ele><time>2026-04-18T16:52:55.784Z</time></trkpt><trkpt lat="42.0724933" lon="-8.02148"><ele>1049.0</ele><time>2026-04-18T16:52:57.784Z</time></trkpt><trkpt lat="42.0725883" lon="-8.0216083"><ele>1050.5</ele><time>2026-04-18T16:52:59.787Z</time></trkpt><trkpt lat="42.072635" lon="-8.021725"><ele>1052.0</ele><time>2026-04-18T16:53:00.786Z</time></trkpt><trkpt lat="42.07267" lon="-8.0218367"><ele>1053.5</ele><time>2026-04-18T16:53:01.786Z</time></trkpt><trkpt lat="42.0727033" lon="-8.02193"><ele>1055.0</ele><time>2026-04-18T16:53:02.787Z</time></trkpt><trkpt lat="42.0727467" lon="-8.02202"><ele>1056.5</ele><time>2026-04-18T16:53:03.788Z</time></trkpt><trkpt lat="42.07279" lon="-8.0221117"><ele>1058.0</ele><time>2026-04-18T16:53:04.787Z</time></trkpt><trkpt lat="42.0728417" lon="-8.02218"><ele>1058.0</ele><time>2026-04-18T16:53:05.786Z</time></trkpt><trkpt lat="42.0729" lon="-8.022245"><ele>1058.0</ele><time>2026-04-18T16:53:06.786Z</time></trkpt><trkpt lat="42.072965" lon="-8.02231"><ele>1058.0</ele><time>2026-04-18T16:53:07.789Z</time></trkpt><trkpt lat="42.0730317" lon="-8.0223683"><ele>1058.0</ele><time>2026-04-18T16:53:08.788Z</time></trkpt><trkpt lat="42.0731033" lon="-8.0223983"><ele>1058.0</ele><time>2026-04-18T16:53:09.787Z</time></trkpt><trkpt lat="42.0731767" lon="-8.0224117"><ele>1058.0</ele><time>2026-04-18T16:53:10.787Z</time></trkpt><trkpt lat="42.07326" lon="-8.0224367"><ele>1058.5</ele><time>2026-04-18T16:53:11.787Z</time></trkpt><trkpt lat="42.07334" lon="-8.0224767"><ele>1059.0</ele><time>2026-04-18T16:53:12.787Z</time></trkpt><trkpt lat="42.073415" lon="-8.02253"><ele>1059.5</ele><time>2026-04-18T16:53:13.787Z</time></trkpt><trkpt lat="42.0734833" lon="-8.0225833"><ele>1060.0</ele><time>2026-04-18T16:53:14.787Z</time></trkpt><trkpt lat="42.073555" lon="-8.0226333"><ele>1060.5</ele><time>2026-04-18T16:53:15.786Z</time></trkpt><trkpt lat="42.0736283" lon="-8.0226867"><ele>1061.0</ele><time>2026-04-18T16:53:16.787Z</time></trkpt><trkpt lat="42.0737033" lon="-8.022745"><ele>1059.8</ele><time>2026-04-18T16:53:17.785Z</time></trkpt><trkpt lat="42.0737833" lon="-8.0228017"><ele>1058.6</ele><time>2026-04-18T16:53:18.786Z</time></trkpt><trkpt lat="42.0738733" lon="-8.0228667"><ele>1057.4</ele><time>2026-04-18T16:53:19.786Z</time></trkpt><trkpt lat="42.073965" lon="-8.022935"><ele>1056.2</ele><time>2026-04-18T16:53:20.785Z</time></trkpt><trkpt lat="42.07406" lon="-8.02301"><ele>1055.0</ele><time>2026-04-18T16:53:21.786Z</time></trkpt><trkpt lat="42.0741567" lon="-8.0230867"><ele>1054.0</ele><time>2026-04-18T16:53:22.785Z</time></trkpt><trkpt lat="42.074255" lon="-8.02316"><ele>1053.0</ele><time>2026-04-18T16:53:23.784Z</time></trkpt><trkpt lat="42.0743567" lon="-8.02323"><ele>1052.0</ele><time>2026-04-18T16:53:24.785Z</time></trkpt><trkpt lat="42.074455" lon="-8.0232983"><ele>1051.0</ele><time>2026-04-18T16:53:25.785Z</time></trkpt><trkpt lat="42.074545" lon="-8.023375"><ele>1050.0</ele><time>2026-04-18T16:53:26.785Z</time></trkpt><trkpt lat="42.0746333" lon="-8.02345"><ele>1049.0</ele><time>2026-04-18T16:53:27.783Z</time></trkpt><trkpt lat="42.07472" lon="-8.0235217"><ele>1048.0</ele><time>2026-04-18T16:53:28.785Z</time></trkpt><trkpt lat="42.0748067" lon="-8.02359"><ele>1047.0</ele><time>2026-04-18T16:53:29.784Z</time></trkpt><trkpt lat="42.074905" lon="-8.0236633"><ele>1046.0</ele><time>2026-04-18T16:53:30.786Z</time></trkpt><trkpt lat="42.075" lon="-8.0237417"><ele>1045.0</ele><time>2026-04-18T16:53:31.785Z</time></trkpt><trkpt lat="42.0750817" lon="-8.0238167"><ele>1045.0</ele><time>2026-04-18T16:53:32.784Z</time></trkpt><trkpt lat="42.0751717" lon="-8.02389"><ele>1045.0</ele><time>2026-04-18T16:53:33.787Z</time></trkpt><trkpt lat="42.0752717" lon="-8.02395"><ele>1045.0</ele><time>2026-04-18T16:53:34.787Z</time></trkpt><trkpt lat="42.0753783" lon="-8.02401"><ele>1045.0</ele><time>2026-04-18T16:53:35.787Z</time></trkpt><trkpt lat="42.075485" lon="-8.0240833"><ele>1045.0</ele><time>2026-04-18T16:53:36.787Z</time></trkpt><trkpt lat="42.0755783" lon="-8.024175"><ele>1045.0</ele><time>2026-04-18T16:53:37.786Z</time></trkpt><trkpt lat="42.0756583" lon="-8.0242683"><ele>1045.0</ele><time>2026-04-18T16:53:38.787Z</time></trkpt><trkpt lat="42.0757333" lon="-8.0243233"><ele>1045.0</ele><time>2026-04-18T16:53:39.787Z</time></trkpt><trkpt lat="42.0757967" lon="-8.0243617"><ele>1045.0</ele><time>2026-04-18T16:53:40.786Z</time></trkpt><trkpt lat="42.0758633" lon="-8.0244067"><ele>1045.0</ele><time>2026-04-18T16:53:41.787Z</time></trkpt><trkpt lat="42.0759233" lon="-8.0244533"><ele>1045.0</ele><time>2026-04-18T16:53:42.787Z</time></trkpt><trkpt lat="42.075995" lon="-8.0245417"><ele>1045.0</ele><time>2026-04-18T16:53:44.787Z</time></trkpt><trkpt lat="42.0760517" lon="-8.0246017"><ele>1045.0</ele><time>2026-04-18T16:53:46.786Z</time></trkpt><trkpt lat="42.07613" lon="-8.02466"><ele>1045.0</ele><time>2026-04-18T16:53:49.784Z</time></trkpt><trkpt lat="42.0760817" lon="-8.0247433"><ele>1045.0</ele><time>2026-04-18T16:53:53.786Z</time></trkpt><trkpt lat="42.0759467" lon="-8.0247067"><ele>1045.0</ele><time>2026-04-18T16:53:55.787Z</time></trkpt><trkpt lat="42.0758267" lon="-8.0246633"><ele>1045.0</ele><time>2026-04-18T16:53:56.787Z</time></trkpt><trkpt lat="42.07569" lon="-8.0246433"><ele>1045.0</ele><time>2026-04-18T16:53:57.787Z</time></trkpt><trkpt lat="42.0755333" lon="-8.02463"><ele>1045.0</ele><time>2026-04-18T16:53:58.786Z</time></trkpt><trkpt lat="42.07537" lon="-8.02463"><ele>1045.3333333333333</ele><time>2026-04-18T16:53:59.787Z</time></trkpt><trkpt lat="42.0752133" lon="-8.0246467"><ele>1045.6666666666667</ele><time>2026-04-18T16:54:00.788Z</time></trkpt><trkpt lat="42.0750667" lon="-8.0246583"><ele>1046.0</ele><time>2026-04-18T16:54:01.785Z</time></trkpt><trkpt lat="42.07492" lon="-8.0246567"><ele>1044.6666666666667</ele><time>2026-04-18T16:54:02.786Z</time></trkpt><trkpt lat="42.07476" lon="-8.0246433"><ele>1043.3333333333333</ele><time>2026-04-18T16:54:03.787Z</time></trkpt><trkpt lat="42.074605" lon="-8.02461"><ele>1042.0</ele><time>2026-04-18T16:54:04.787Z</time></trkpt><trkpt lat="42.07446" lon="-8.02456"><ele>1042.0</ele><time>2026-04-18T16:54:05.787Z</time></trkpt><trkpt lat="42.0743183" lon="-8.0244983"><ele>1042.0</ele><time>2026-04-18T16:54:06.787Z</time></trkpt><trkpt lat="42.0741783" lon="-8.0244333"><ele>1042.0</ele><time>2026-04-18T16:54:07.786Z</time></trkpt><trkpt lat="42.0740483" lon="-8.024375"><ele>1042.0</ele><time>2026-04-18T16:54:08.786Z</time></trkpt><trkpt lat="42.07393" lon="-8.024325"><ele>1042.75</ele><time>2026-04-18T16:54:09.786Z</time></trkpt><trkpt lat="42.0738167" lon="-8.02428"><ele>1043.5</ele><time>2026-04-18T16:54:10.787Z</time></trkpt><trkpt lat="42.0736983" lon="-8.0242383"><ele>1044.25</ele><time>2026-04-18T16:54:11.787Z</time></trkpt><trkpt lat="42.073575" lon="-8.0241967"><ele>1045.0</ele><time>2026-04-18T16:54:12.788Z</time></trkpt><trkpt lat="42.0734467" lon="-8.0241417"><ele>1045.0</ele><time>2026-04-18T16:54:13.786Z</time></trkpt><trkpt lat="42.0733133" lon="-8.024085"><ele>1045.0</ele><time>2026-04-18T16:54:14.787Z</time></trkpt><trkpt lat="42.0731767" lon="-8.024025"><ele>1045.0</ele><time>2026-04-18T16:54:15.786Z</time></trkpt><trkpt lat="42.073035" lon="-8.023965"><ele>1045.0</ele><time>2026-04-18T16:54:16.787Z</time></trkpt><trkpt lat="42.0728967" lon="-8.0239033"><ele>1044.5</ele><time>2026-04-18T16:54:17.787Z</time></trkpt><trkpt lat="42.0727617" lon="-8.0238467"><ele>1044.0</ele><time>2026-04-18T16:54:18.787Z</time></trkpt><trkpt lat="42.0726333" lon="-8.0237933"><ele>1043.5</ele><time>2026-04-18T16:54:19.787Z</time></trkpt><trkpt lat="42.072515" lon="-8.0237433"><ele>1043.0</ele><time>2026-04-18T16:54:20.787Z</time></trkpt><trkpt lat="42.0723967" lon="-8.0236917"><ele>1040.75</ele><time>2026-04-18T16:54:21.786Z</time></trkpt><trkpt lat="42.072275" lon="-8.0236383"><ele>1038.5</ele><time>2026-04-18T16:54:22.787Z</time></trkpt><trkpt lat="42.07215" lon="-8.0235817"><ele>1036.25</ele><time>2026-04-18T16:54:23.787Z</time></trkpt><trkpt lat="42.0720167" lon="-8.023525"><ele>1034.0</ele><time>2026-04-18T16:54:24.788Z</time></trkpt><trkpt lat="42.0718783" lon="-8.023465"><ele>1034.0</ele><time>2026-04-18T16:54:25.787Z</time></trkpt><trkpt lat="42.0717417" lon="-8.0234067"><ele>1034.0</ele><time>2026-04-18T16:54:26.787Z</time></trkpt><trkpt lat="42.0716033" lon="-8.023345"><ele>1034.0</ele><time>2026-04-18T16:54:27.787Z</time></trkpt><trkpt lat="42.0714667" lon="-8.0232783"><ele>1034.0</ele><time>2026-04-18T16:54:28.786Z</time></trkpt><trkpt lat="42.0713267" lon="-8.023215"><ele>1033.75</ele><time>2026-04-18T16:54:29.786Z</time></trkpt><trkpt lat="42.0711933" lon="-8.02316"><ele>1033.5</ele><time>2026-04-18T16:54:30.786Z</time></trkpt><trkpt lat="42.07107" lon="-8.023115"><ele>1033.25</ele><time>2026-04-18T16:54:31.787Z</time></trkpt><trkpt lat="42.0709517" lon="-8.02307"><ele>1033.0</ele><time>2026-04-18T16:54:32.787Z</time></trkpt><trkpt lat="42.070825" lon="-8.0230233"><ele>1029.3333333333333</ele><time>2026-04-18T16:54:33.786Z</time></trkpt><trkpt lat="42.0706783" lon="-8.02297"><ele>1025.6666666666667</ele><time>2026-04-18T16:54:34.787Z</time></trkpt><trkpt lat="42.0705033" lon="-8.0229117"><ele>1022.0</ele><time>2026-04-18T16:54:35.787Z</time></trkpt><trkpt lat="42.0703233" lon="-8.022855"><ele>1022.0</ele><time>2026-04-18T16:54:36.786Z</time></trkpt><trkpt lat="42.070155" lon="-8.0228067"><ele>1022.0</ele><time>2026-04-18T16:54:37.788Z</time></trkpt><trkpt lat="42.069995" lon="-8.02277"><ele>1022.0</ele><time>2026-04-18T16:54:38.787Z</time></trkpt><trkpt lat="42.06984" lon="-8.0227367"><ele>1020.75</ele><time>2026-04-18T16:54:39.787Z</time></trkpt><trkpt lat="42.0696983" lon="-8.0227017"><ele>1019.5</ele><time>2026-04-18T16:54:40.786Z</time></trkpt><trkpt lat="42.0695683" lon="-8.0226717"><ele>1018.25</ele><time>2026-04-18T16:54:41.787Z</time></trkpt><trkpt lat="42.06944" lon="-8.0226467"><ele>1017.0</ele><time>2026-04-18T16:54:42.786Z</time></trkpt><trkpt lat="42.0693083" lon="-8.022625"><ele>1017.0</ele><time>2026-04-18T16:54:43.787Z</time></trkpt><trkpt lat="42.0691717" lon="-8.0226033"><ele>1017.0</ele><time>2026-04-18T16:54:44.787Z</time></trkpt><trkpt lat="42.0690283" lon="-8.0225783"><ele>1017.0</ele><time>2026-04-18T16:54:45.786Z</time></trkpt><trkpt lat="42.0688783" lon="-8.0225517"><ele>1017.0</ele><time>2026-04-18T16:54:46.787Z</time></trkpt><trkpt lat="42.0687283" lon="-8.0225233"><ele>1017.0</ele><time>2026-04-18T16:54:47.787Z</time></trkpt><trkpt lat="42.068575" lon="-8.0224967"><ele>1017.0</ele><time>2026-04-18T16:54:48.787Z</time></trkpt><trkpt lat="42.0684183" lon="-8.0224667"><ele>1017.0</ele><time>2026-04-18T16:54:49.786Z</time></trkpt><trkpt lat="42.0682583" lon="-8.0224317"><ele>1016.3333333333333</ele><time>2026-04-18T16:54:50.787Z</time></trkpt><trkpt lat="42.0680933" lon="-8.0224017"><ele>1015.6666666666666</ele><time>2026-04-18T16:54:51.786Z</time></trkpt><trkpt lat="42.06793" lon="-8.0223683"><ele>1015.0</ele><time>2026-04-18T16:54:52.787Z</time></trkpt><trkpt lat="42.0677633" lon="-8.0223367"><ele>1015.0</ele><time>2026-04-18T16:54:53.786Z</time></trkpt><trkpt lat="42.0676017" lon="-8.0223033"><ele>1015.0</ele><time>2026-04-18T16:54:54.787Z</time></trkpt><trkpt lat="42.067445" lon="-8.0222717"><ele>1015.0</ele><time>2026-04-18T16:54:55.787Z</time></trkpt><trkpt lat="42.0672917" lon="-8.02224"><ele>1013.5</ele><time>2026-04-18T16:54:56.786Z</time></trkpt><trkpt lat="42.06715" lon="-8.02221"><ele>1012.0</ele><time>2026-04-18T16:54:57.786Z</time></trkpt><trkpt lat="42.0670183" lon="-8.0221833"><ele>1010.5</ele><time>2026-04-18T16:54:58.786Z</time></trkpt><trkpt lat="42.0668933" lon="-8.022155"><ele>1009.0</ele><time>2026-04-18T16:54:59.786Z</time></trkpt><trkpt lat="42.0667667" lon="-8.0221267"><ele>1009.0</ele><time>2026-04-18T16:55:00.787Z</time></trkpt><trkpt lat="42.06664" lon="-8.0221017"><ele>1009.0</ele><time>2026-04-18T16:55:01.787Z</time></trkpt><trkpt lat="42.066515" lon="-8.0220783"><ele>1009.0</ele><time>2026-04-18T16:55:02.787Z</time></trkpt><trkpt lat="42.0663967" lon="-8.0220383"><ele>1009.0</ele><time>2026-04-18T16:55:03.788Z</time></trkpt><trkpt lat="42.066285" lon="-8.02198"><ele>1007.75</ele><time>2026-04-18T16:55:04.787Z</time></trkpt><trkpt lat="42.0661733" lon="-8.0218883"><ele>1006.5</ele><time>2026-04-18T16:55:05.787Z</time></trkpt><trkpt lat="42.06606" lon="-8.02177"><ele>1005.25</ele><time>2026-04-18T16:55:06.787Z</time></trkpt><trkpt lat="42.065945" lon="-8.0216333"><ele>1004.0</ele><time>2026-04-18T16:55:07.787Z</time></trkpt><trkpt lat="42.0658233" lon="-8.0214883"><ele>999.3333333333334</ele><time>2026-04-18T16:55:08.787Z</time></trkpt><trkpt lat="42.0657" lon="-8.0213483"><ele>994.6666666666667</ele><time>2026-04-18T16:55:09.787Z</time></trkpt><trkpt lat="42.0655717" lon="-8.0212217"><ele>990.0</ele><time>2026-04-18T16:55:10.786Z</time></trkpt><trkpt lat="42.0654333" lon="-8.02112"><ele>990.0</ele><time>2026-04-18T16:55:11.787Z</time></trkpt><trkpt lat="42.0652867" lon="-8.0210367"><ele>990.0</ele><time>2026-04-18T16:55:12.787Z</time></trkpt><trkpt lat="42.0651367" lon="-8.020965"><ele>990.0</ele><time>2026-04-18T16:55:13.786Z</time></trkpt><trkpt lat="42.0649933" lon="-8.0209"><ele>991.0</ele><time>2026-04-18T16:55:14.787Z</time></trkpt><trkpt lat="42.0648533" lon="-8.0208283"><ele>992.0</ele><time>2026-04-18T16:55:15.787Z</time></trkpt><trkpt lat="42.0647067" lon="-8.0207567"><ele>993.0</ele><time>2026-04-18T16:55:16.787Z</time></trkpt><trkpt lat="42.0645583" lon="-8.0206833"><ele>993.0</ele><time>2026-04-18T16:55:17.787Z</time></trkpt><trkpt lat="42.0644067" lon="-8.0206133"><ele>993.0</ele><time>2026-04-18T16:55:18.787Z</time></trkpt><trkpt lat="42.0642583" lon="-8.0205433"><ele>993.0</ele><time>2026-04-18T16:55:19.787Z</time></trkpt><trkpt lat="42.0641133" lon="-8.0204767"><ele>990.75</ele><time>2026-04-18T16:55:20.786Z</time></trkpt><trkpt lat="42.06397" lon="-8.0204167"><ele>988.5</ele><time>2026-04-18T16:55:21.787Z</time></trkpt><trkpt lat="42.06383" lon="-8.0203683"><ele>986.25</ele><time>2026-04-18T16:55:22.786Z</time></trkpt><trkpt lat="42.0636983" lon="-8.0203367"><ele>984.0</ele><time>2026-04-18T16:55:23.788Z</time></trkpt><trkpt lat="42.06357" lon="-8.020315"><ele>984.0</ele><time>2026-04-18T16:55:24.788Z</time></trkpt><trkpt lat="42.06344" lon="-8.0202983"><ele>984.0</ele><time>2026-04-18T16:55:25.787Z</time></trkpt><trkpt lat="42.063305" lon="-8.02028"><ele>984.0</ele><time>2026-04-18T16:55:26.788Z</time></trkpt><trkpt lat="42.0631667" lon="-8.0202567"><ele>984.0</ele><time>2026-04-18T16:55:27.787Z</time></trkpt><trkpt lat="42.0630233" lon="-8.0202267"><ele>981.75</ele><time>2026-04-18T16:55:28.787Z</time></trkpt><trkpt lat="42.06288" lon="-8.0201883"><ele>979.5</ele><time>2026-04-18T16:55:29.787Z</time></trkpt><trkpt lat="42.0627383" lon="-8.0201483"><ele>977.25</ele><time>2026-04-18T16:55:30.786Z</time></trkpt><trkpt lat="42.0626033" lon="-8.0201117"><ele>975.0</ele><time>2026-04-18T16:55:31.787Z</time></trkpt><trkpt lat="42.0624717" lon="-8.0200767"><ele>975.0</ele><time>2026-04-18T16:55:32.788Z</time></trkpt><trkpt lat="42.0623483" lon="-8.0200467"><ele>975.0</ele><time>2026-04-18T16:55:33.787Z</time></trkpt><trkpt lat="42.0622267" lon="-8.020015"><ele>975.0</ele><time>2026-04-18T16:55:34.786Z</time></trkpt><trkpt lat="42.0621017" lon="-8.0199983"><ele>975.0</ele><time>2026-04-18T16:55:35.786Z</time></trkpt><trkpt lat="42.062" lon="-8.01997"><ele>975.0</ele><time>2026-04-18T16:55:36.787Z</time></trkpt><trkpt lat="42.0618833" lon="-8.0199483"><ele>975.0</ele><time>2026-04-18T16:55:37.788Z</time></trkpt><trkpt lat="42.0617733" lon="-8.0199383"><ele>975.0</ele><time>2026-04-18T16:55:38.788Z</time></trkpt><trkpt lat="42.0616633" lon="-8.0199267"><ele>975.0</ele><time>2026-04-18T16:55:39.786Z</time></trkpt><trkpt lat="42.0615517" lon="-8.0199083"><ele>973.0</ele><time>2026-04-18T16:55:40.787Z</time></trkpt><trkpt lat="42.0614383" lon="-8.01989"><ele>971.0</ele><time>2026-04-18T16:55:41.787Z</time></trkpt><trkpt lat="42.0613283" lon="-8.0198733"><ele>969.0</ele><time>2026-04-18T16:55:42.788Z</time></trkpt><trkpt lat="42.0612267" lon="-8.0198567"><ele>967.0</ele><time>2026-04-18T16:55:43.786Z</time></trkpt><trkpt lat="42.06113" lon="-8.0198383"><ele>965.0</ele><time>2026-04-18T16:55:44.787Z</time></trkpt><trkpt lat="42.0610417" lon="-8.0198167"><ele>965.0000000000001</ele><time>2026-04-18T16:55:45.787Z</time></trkpt><trkpt lat="42.0609567" lon="-8.0197967"><ele>965.0</ele><time>2026-04-18T16:55:46.787Z</time></trkpt><trkpt lat="42.06088" lon="-8.01978"><ele>965.0</ele><time>2026-04-18T16:55:47.787Z</time></trkpt><trkpt lat="42.0607867" lon="-8.0197283"><ele>965.0</ele><time>2026-04-18T16:55:49.787Z</time></trkpt><trkpt lat="42.0607617" lon="-8.0196367"><ele>965.0000000000001</ele><time>2026-04-18T16:55:51.787Z</time></trkpt><trkpt lat="42.0607533" lon="-8.0195517"><ele>965.0</ele><time>2026-04-18T16:55:52.786Z</time></trkpt><trkpt lat="42.0607383" lon="-8.0194183"><ele>964.4</ele><time>2026-04-18T16:55:53.786Z</time></trkpt><trkpt lat="42.0607217" lon="-8.0193"><ele>963.8</ele><time>2026-04-18T16:55:54.788Z</time></trkpt><trkpt lat="42.0607233" lon="-8.0191733"><ele>963.2</ele><time>2026-04-18T16:55:55.787Z</time></trkpt><trkpt lat="42.060745" lon="-8.0190367"><ele>962.6</ele><time>2026-04-18T16:55:56.789Z</time></trkpt><trkpt lat="42.06077" lon="-8.018895"><ele>962.0</ele><time>2026-04-18T16:55:57.786Z</time></trkpt><trkpt lat="42.0607783" lon="-8.018755"><ele>961.8</ele><time>2026-04-18T16:55:58.787Z</time></trkpt><trkpt lat="42.06076" lon="-8.0186317"><ele>961.6</ele><time>2026-04-18T16:55:59.787Z</time></trkpt><trkpt lat="42.0607333" lon="-8.018505"><ele>961.3999999999999</ele><time>2026-04-18T16:56:00.786Z</time></trkpt><trkpt lat="42.0606833" lon="-8.0183867"><ele>961.1999999999999</ele><time>2026-04-18T16:56:01.785Z</time></trkpt><trkpt lat="42.0606167" lon="-8.018285"><ele>961.0</ele><time>2026-04-18T16:56:02.787Z</time></trkpt><trkpt lat="42.0605467" lon="-8.01818"><ele>961.0</ele><time>2026-04-18T16:56:03.786Z</time></trkpt><trkpt lat="42.0604817" lon="-8.01807"><ele>960.9999999999999</ele><time>2026-04-18T16:56:04.786Z</time></trkpt><trkpt lat="42.0604233" lon="-8.0179467"><ele>960.9999999999999</ele><time>2026-04-18T16:56:05.787Z</time></trkpt><trkpt lat="42.06037" lon="-8.0178183"><ele>961.0</ele><time>2026-04-18T16:56:06.787Z</time></trkpt><trkpt lat="42.06032" lon="-8.0176967"><ele>961.0</ele><time>2026-04-18T16:56:07.787Z</time></trkpt><trkpt lat="42.06027" lon="-8.0175817"><ele>961.8333333333333</ele><time>2026-04-18T16:56:08.787Z</time></trkpt><trkpt lat="42.0602233" lon="-8.0174783"><ele>962.6666666666666</ele><time>2026-04-18T16:56:09.787Z</time></trkpt><trkpt lat="42.0601883" lon="-8.01737"><ele>963.5</ele><time>2026-04-18T16:56:10.787Z</time></trkpt><trkpt lat="42.0601717" lon="-8.017255"><ele>964.3333333333333</ele><time>2026-04-18T16:56:11.787Z</time></trkpt><trkpt lat="42.06017" lon="-8.0171333"><ele>965.1666666666666</ele><time>2026-04-18T16:56:12.786Z</time></trkpt><trkpt lat="42.060185" lon="-8.0170133"><ele>966.0</ele><time>2026-04-18T16:56:13.787Z</time></trkpt><trkpt lat="42.0602217" lon="-8.0168967"><ele>966.0</ele><time>2026-04-18T16:56:14.787Z</time></trkpt><trkpt lat="42.0602667" lon="-8.016795"><ele>965.9999999999999</ele><time>2026-04-18T16:56:15.787Z</time></trkpt><trkpt lat="42.0603067" lon="-8.0166917"><ele>965.9999999999999</ele><time>2026-04-18T16:56:16.788Z</time></trkpt><trkpt lat="42.06033" lon="-8.0166017"><ele>966.0</ele><time>2026-04-18T16:56:17.787Z</time></trkpt><trkpt lat="42.0603333" lon="-8.0164217"><ele>966.0</ele><time>2026-04-18T16:56:19.787Z</time></trkpt><trkpt lat="42.0603167" lon="-8.016295"><ele>965.3333333333334</ele><time>2026-04-18T16:56:20.787Z</time></trkpt><trkpt lat="42.0603067" lon="-8.016165"><ele>964.6666666666667</ele><time>2026-04-18T16:56:21.786Z</time></trkpt><trkpt lat="42.0603017" lon="-8.016045"><ele>964.0</ele><time>2026-04-18T16:56:22.788Z</time></trkpt><trkpt lat="42.060305" lon="-8.0159283"><ele>963.3333333333334</ele><time>2026-04-18T16:56:23.787Z</time></trkpt><trkpt lat="42.0603167" lon="-8.0158283"><ele>962.6666666666667</ele><time>2026-04-18T16:56:24.787Z</time></trkpt><trkpt lat="42.0603433" lon="-8.015725"><ele>962.0</ele><time>2026-04-18T16:56:25.787Z</time></trkpt><trkpt lat="42.0603767" lon="-8.0156333"><ele>957.8333333333334</ele><time>2026-04-18T16:56:26.787Z</time></trkpt><trkpt lat="42.06042" lon="-8.01554"><ele>953.6666666666667</ele><time>2026-04-18T16:56:27.787Z</time></trkpt><trkpt lat="42.0604667" lon="-8.0154383"><ele>949.5</ele><time>2026-04-18T16:56:28.788Z</time></trkpt><trkpt lat="42.0605183" lon="-8.0153467"><ele>945.3333333333333</ele><time>2026-04-18T16:56:29.787Z</time></trkpt><trkpt lat="42.0605817" lon="-8.0152667"><ele>941.1666666666666</ele><time>2026-04-18T16:56:30.787Z</time></trkpt><trkpt lat="42.0606467" lon="-8.0151933"><ele>937.0</ele><time>2026-04-18T16:56:31.787Z</time></trkpt><trkpt lat="42.060715" lon="-8.0151333"><ele>936.8333333333333</ele><time>2026-04-18T16:56:32.787Z</time></trkpt><trkpt lat="42.0607883" lon="-8.0150883"><ele>936.6666666666666</ele><time>2026-04-18T16:56:33.787Z</time></trkpt><trkpt lat="42.0608733" lon="-8.0150467"><ele>936.5</ele><time>2026-04-18T16:56:34.787Z</time></trkpt><trkpt lat="42.0609583" lon="-8.0150117"><ele>936.3333333333333</ele><time>2026-04-18T16:56:35.788Z</time></trkpt><trkpt lat="42.0610383" lon="-8.01497"><ele>936.1666666666666</ele><time>2026-04-18T16:56:36.787Z</time></trkpt><trkpt lat="42.0611317" lon="-8.0149183"><ele>936.0</ele><time>2026-04-18T16:56:37.787Z</time></trkpt><trkpt lat="42.0612317" lon="-8.0148783"><ele>936.0</ele><time>2026-04-18T16:56:38.787Z</time></trkpt><trkpt lat="42.061335" lon="-8.0148467"><ele>935.9999999999999</ele><time>2026-04-18T16:56:39.787Z</time></trkpt><trkpt lat="42.0614367" lon="-8.0148167"><ele>935.9999999999999</ele><time>2026-04-18T16:56:40.786Z</time></trkpt><trkpt lat="42.0615417" lon="-8.0147733"><ele>936.0</ele><time>2026-04-18T16:56:41.784Z</time></trkpt><trkpt lat="42.06165" lon="-8.0147033"><ele>936.0</ele><time>2026-04-18T16:56:42.787Z</time></trkpt><trkpt lat="42.0617683" lon="-8.0146067"><ele>937.25</ele><time>2026-04-18T16:56:43.788Z</time></trkpt><trkpt lat="42.06188" lon="-8.014495"><ele>938.5</ele><time>2026-04-18T16:56:44.787Z</time></trkpt><trkpt lat="42.0619783" lon="-8.0143833"><ele>939.75</ele><time>2026-04-18T16:56:45.787Z</time></trkpt><trkpt lat="42.0620617" lon="-8.014285"><ele>941.0</ele><time>2026-04-18T16:56:46.787Z</time></trkpt><trkpt lat="42.0621417" lon="-8.014175"><ele>940.1999999999999</ele><time>2026-04-18T16:56:47.787Z</time></trkpt><trkpt lat="42.062215" lon="-8.014055"><ele>939.3999999999999</ele><time>2026-04-18T16:56:48.789Z</time></trkpt><trkpt lat="42.0622817" lon="-8.0139367"><ele>938.6</ele><time>2026-04-18T16:56:49.787Z</time></trkpt><trkpt lat="42.0623367" lon="-8.0138183"><ele>937.8</ele><time>2026-04-18T16:56:50.786Z</time></trkpt><trkpt lat="42.0623917" lon="-8.0137183"><ele>937.0</ele><time>2026-04-18T16:56:51.787Z</time></trkpt><trkpt lat="42.0624567" lon="-8.0136333"><ele>937.0</ele><time>2026-04-18T16:56:52.788Z</time></trkpt><trkpt lat="42.062515" lon="-8.0135617"><ele>937.0</ele><time>2026-04-18T16:56:53.787Z</time></trkpt><trkpt lat="42.0625583" lon="-8.0135"><ele>937.0</ele><time>2026-04-18T16:56:54.787Z</time></trkpt><trkpt lat="42.0625983" lon="-8.01341"><ele>937.0</ele><time>2026-04-18T16:56:56.787Z</time></trkpt><trkpt lat="42.0625633" lon="-8.013325"><ele>937.0</ele><time>2026-04-18T16:57:00.787Z</time></trkpt><trkpt lat="42.0625233" lon="-8.013245"><ele>937.0</ele><time>2026-04-18T16:57:03.787Z</time></trkpt><trkpt lat="42.0625483" lon="-8.0131417"><ele>937.0</ele><time>2026-04-18T16:57:44.787Z</time></trkpt><trkpt lat="42.0626017" lon="-8.01306"><ele>935.6666666666666</ele><time>2026-04-18T16:57:46.785Z</time></trkpt><trkpt lat="42.0626783" lon="-8.01296"><ele>934.3333333333333</ele><time>2026-04-18T16:57:48.786Z</time></trkpt><trkpt lat="42.0627467" lon="-8.0128583"><ele>933.0</ele><time>2026-04-18T16:57:50.785Z</time></trkpt><trkpt lat="42.0627917" lon="-8.0127883"><ele>931.6666666666667</ele><time>2026-04-18T16:57:52.784Z</time></trkpt><trkpt lat="42.0628417" lon="-8.0127233"><ele>930.3333333333334</ele><time>2026-04-18T16:57:54.786Z</time></trkpt><trkpt lat="42.0628817" lon="-8.0126283"><ele>929.0</ele><time>2026-04-18T16:57:56.788Z</time></trkpt><trkpt lat="42.062935" lon="-8.012565"><ele>929.0000000000001</ele><time>2026-04-18T16:57:59.786Z</time></trkpt><trkpt lat="42.0630083" lon="-8.0125317"><ele>929.0</ele><time>2026-04-18T16:58:02.786Z</time></trkpt><trkpt lat="42.0630783" lon="-8.0125117"><ele>929.0</ele><time>2026-04-18T16:58:04.785Z</time></trkpt><trkpt lat="42.063175" lon="-8.0124683"><ele>929.0</ele><time>2026-04-18T16:58:06.787Z</time></trkpt><trkpt lat="42.0632667" lon="-8.0124017"><ele>929.0000000000001</ele><time>2026-04-18T16:58:08.787Z</time></trkpt><trkpt lat="42.0633267" lon="-8.012335"><ele>929.0</ele><time>2026-04-18T16:58:10.786Z</time></trkpt><trkpt lat="42.0633183" lon="-8.01225"><ele>928.4285714285714</ele><time>2026-04-18T16:58:12.789Z</time></trkpt><trkpt lat="42.0632317" lon="-8.0121683"><ele>927.8571428571429</ele><time>2026-04-18T16:58:14.787Z</time></trkpt><trkpt lat="42.0631683" lon="-8.0121283"><ele>927.2857142857143</ele><time>2026-04-18T16:58:15.787Z</time></trkpt><trkpt lat="42.06311" lon="-8.01209"><ele>926.7142857142858</ele><time>2026-04-18T16:58:16.787Z</time></trkpt><trkpt lat="42.063055" lon="-8.0120433"><ele>926.1428571428571</ele><time>2026-04-18T16:58:17.786Z</time></trkpt><trkpt lat="42.063005" lon="-8.0119833"><ele>925.5714285714287</ele><time>2026-04-18T16:58:18.786Z</time></trkpt><trkpt lat="42.0629667" lon="-8.0119017"><ele>925.0</ele><time>2026-04-18T16:58:19.788Z</time></trkpt><trkpt lat="42.06294" lon="-8.0118033"><ele>925.0</ele><time>2026-04-18T16:58:20.786Z</time></trkpt><trkpt lat="42.0629283" lon="-8.011685"><ele>925.0</ele><time>2026-04-18T16:58:21.786Z</time></trkpt><trkpt lat="42.06294" lon="-8.0115467"><ele>925.0</ele><time>2026-04-18T16:58:22.785Z</time></trkpt><trkpt lat="42.0629733" lon="-8.0113867"><ele>925.0</ele><time>2026-04-18T16:58:23.785Z</time></trkpt><trkpt lat="42.06303" lon="-8.0111983"><ele>924.75</ele><time>2026-04-18T16:58:24.788Z</time></trkpt><trkpt lat="42.0631" lon="-8.01101"><ele>924.5</ele><time>2026-04-18T16:58:25.787Z</time></trkpt><trkpt lat="42.06317" lon="-8.0108417"><ele>924.25</ele><time>2026-04-18T16:58:26.788Z</time></trkpt><trkpt lat="42.0632317" lon="-8.010695"><ele>924.0</ele><time>2026-04-18T16:58:27.787Z</time></trkpt><trkpt lat="42.0632717" lon="-8.0105633"><ele>923.75</ele><time>2026-04-18T16:58:28.787Z</time></trkpt><trkpt lat="42.063285" lon="-8.0104383"><ele>923.5</ele><time>2026-04-18T16:58:29.787Z</time></trkpt><trkpt lat="42.0632833" lon="-8.010295"><ele>923.25</ele><time>2026-04-18T16:58:30.786Z</time></trkpt><trkpt lat="42.0632783" lon="-8.01013"><ele>923.0</ele><time>2026-04-18T16:58:31.786Z</time></trkpt><trkpt lat="42.0632683" lon="-8.0099433"><ele>923.5999999999999</ele><time>2026-04-18T16:58:32.787Z</time></trkpt><trkpt lat="42.063255" lon="-8.0097683"><ele>924.1999999999999</ele><time>2026-04-18T16:58:33.786Z</time></trkpt><trkpt lat="42.0632467" lon="-8.00961"><ele>924.8</ele><time>2026-04-18T16:58:34.786Z</time></trkpt><trkpt lat="42.0632333" lon="-8.009485"><ele>925.4</ele><time>2026-04-18T16:58:35.787Z</time></trkpt><trkpt lat="42.06322" lon="-8.0093767"><ele>926.0</ele><time>2026-04-18T16:58:36.785Z</time></trkpt><trkpt lat="42.0632067" lon="-8.0092783"><ele>926.0000000000001</ele><time>2026-04-18T16:58:37.787Z</time></trkpt><trkpt lat="42.063185" lon="-8.0091867"><ele>926.0</ele><time>2026-04-18T16:58:38.786Z</time></trkpt><trkpt lat="42.06313" lon="-8.009115"><ele>926.0</ele><time>2026-04-18T16:58:40.785Z</time></trkpt><trkpt lat="42.0631967" lon="-8.009115"><ele>926.0</ele><time>2026-04-18T16:58:49.785Z</time></trkpt><trkpt lat="42.0632667" lon="-8.0092017"><ele>926.0000000000001</ele><time>2026-04-18T16:58:51.784Z</time></trkpt><trkpt lat="42.0633117" lon="-8.0092717"><ele>926.0</ele><time>2026-04-18T16:58:52.787Z</time></trkpt><trkpt lat="42.063365" lon="-8.009345"><ele>927.8</ele><time>2026-04-18T16:58:53.787Z</time></trkpt><trkpt lat="42.0634283" lon="-8.00943"><ele>929.5999999999999</ele><time>2026-04-18T16:58:54.787Z</time></trkpt><trkpt lat="42.0635017" lon="-8.0095167"><ele>931.4</ele><time>2026-04-18T16:58:55.787Z</time></trkpt><trkpt lat="42.0635867" lon="-8.0096117"><ele>933.2</ele><time>2026-04-18T16:58:56.788Z</time></trkpt><trkpt lat="42.063695" lon="-8.0097083"><ele>935.0</ele><time>2026-04-18T16:58:57.787Z</time></trkpt><trkpt lat="42.0638067" lon="-8.0098117"><ele>935.0</ele><time>2026-04-18T16:58:58.787Z</time></trkpt><trkpt lat="42.0639133" lon="-8.0099167"><ele>935.0</ele><time>2026-04-18T16:58:59.787Z</time></trkpt><trkpt lat="42.06401" lon="-8.01001"><ele>935.0</ele><time>2026-04-18T16:59:00.787Z</time></trkpt><trkpt lat="42.0640983" lon="-8.0100917"><ele>935.0</ele><time>2026-04-18T16:59:01.787Z</time></trkpt><trkpt lat="42.0641733" lon="-8.0101683"><ele>935.6666666666667</ele><time>2026-04-18T16:59:02.787Z</time></trkpt><trkpt lat="42.0642433" lon="-8.01025"><ele>936.3333333333334</ele><time>2026-04-18T16:59:03.787Z</time></trkpt><trkpt lat="42.0643033" lon="-8.0103333"><ele>937.0</ele><time>2026-04-18T16:59:04.787Z</time></trkpt><trkpt lat="42.0643533" lon="-8.0104233"><ele>937.6666666666667</ele><time>2026-04-18T16:59:05.787Z</time></trkpt><trkpt lat="42.0643967" lon="-8.0105217"><ele>938.3333333333334</ele><time>2026-04-18T16:59:06.787Z</time></trkpt><trkpt lat="42.064435" lon="-8.01063"><ele>939.0</ele><time>2026-04-18T16:59:07.787Z</time></trkpt><trkpt lat="42.0644733" lon="-8.0107567"><ele>939.25</ele><time>2026-04-18T16:59:08.787Z</time></trkpt><trkpt lat="42.0645117" lon="-8.0109033"><ele>939.5</ele><time>2026-04-18T16:59:09.787Z</time></trkpt><trkpt lat="42.0645483" lon="-8.01105"><ele>939.75</ele><time>2026-04-18T16:59:10.787Z</time></trkpt><trkpt lat="42.06459" lon="-8.0111933"><ele>940.0</ele><time>2026-04-18T16:59:11.787Z</time></trkpt><trkpt lat="42.06464" lon="-8.01133"><ele>940.0</ele><time>2026-04-18T16:59:12.788Z</time></trkpt><trkpt lat="42.0647" lon="-8.0114617"><ele>940.0</ele><time>2026-04-18T16:59:13.787Z</time></trkpt><trkpt lat="42.0647683" lon="-8.0115783"><ele>940.0</ele><time>2026-04-18T16:59:14.787Z</time></trkpt><trkpt lat="42.0648417" lon="-8.0116867"><ele>940.0</ele><time>2026-04-18T16:59:15.787Z</time></trkpt><trkpt lat="42.0649117" lon="-8.01179"><ele>940.0</ele><time>2026-04-18T16:59:16.787Z</time></trkpt><trkpt lat="42.0649817" lon="-8.0118867"><ele>942.2</ele><time>2026-04-18T16:59:17.785Z</time></trkpt><trkpt lat="42.0650467" lon="-8.0119783"><ele>944.4</ele><time>2026-04-18T16:59:18.788Z</time></trkpt><trkpt lat="42.0651167" lon="-8.0120717"><ele>946.5999999999999</ele><time>2026-04-18T16:59:19.785Z</time></trkpt><trkpt lat="42.0651967" lon="-8.0121633"><ele>948.8</ele><time>2026-04-18T16:59:20.786Z</time></trkpt><trkpt lat="42.0652767" lon="-8.0122433"><ele>951.0</ele><time>2026-04-18T16:59:21.784Z</time></trkpt><trkpt lat="42.0653567" lon="-8.0123183"><ele>951.0</ele><time>2026-04-18T16:59:22.784Z</time></trkpt><trkpt lat="42.06543" lon="-8.0123767"><ele>950.9999999999999</ele><time>2026-04-18T16:59:23.785Z</time></trkpt><trkpt lat="42.0655067" lon="-8.0124267"><ele>950.9999999999999</ele><time>2026-04-18T16:59:24.789Z</time></trkpt><trkpt lat="42.0655883" lon="-8.0124833"><ele>951.0</ele><time>2026-04-18T16:59:25.787Z</time></trkpt><trkpt lat="42.0656683" lon="-8.0125517"><ele>951.0</ele><time>2026-04-18T16:59:26.787Z</time></trkpt><trkpt lat="42.0657517" lon="-8.0126217"><ele>954.0</ele><time>2026-04-18T16:59:27.787Z</time></trkpt><trkpt lat="42.065835" lon="-8.01269"><ele>956.9999999999999</ele><time>2026-04-18T16:59:28.787Z</time></trkpt><trkpt lat="42.0659167" lon="-8.0127583"><ele>959.9999999999999</ele><time>2026-04-18T16:59:29.788Z</time></trkpt><trkpt lat="42.0659967" lon="-8.0128467"><ele>963.0</ele><time>2026-04-18T16:59:30.787Z</time></trkpt><trkpt lat="42.06608" lon="-8.0129283"><ele>966.0</ele><time>2026-04-18T16:59:31.787Z</time></trkpt><trkpt lat="42.0661667" lon="-8.0130017"><ele>966.0</ele><time>2026-04-18T16:59:32.787Z</time></trkpt><trkpt lat="42.0662583" lon="-8.013065"><ele>965.9999999999999</ele><time>2026-04-18T16:59:33.787Z</time></trkpt><trkpt lat="42.066355" lon="-8.0131183"><ele>965.9999999999999</ele><time>2026-04-18T16:59:34.787Z</time></trkpt><trkpt lat="42.0664533" lon="-8.0131633"><ele>966.0</ele><time>2026-04-18T16:59:35.788Z</time></trkpt><trkpt lat="42.0665433" lon="-8.0131933"><ele>966.0</ele><time>2026-04-18T16:59:36.785Z</time></trkpt><trkpt lat="42.0666283" lon="-8.0132"><ele>967.5</ele><time>2026-04-18T16:59:37.787Z</time></trkpt><trkpt lat="42.0667217" lon="-8.0131767"><ele>969.0</ele><time>2026-04-18T16:59:38.788Z</time></trkpt><trkpt lat="42.0668333" lon="-8.013135"><ele>970.5</ele><time>2026-04-18T16:59:39.787Z</time></trkpt><trkpt lat="42.066965" lon="-8.0131267"><ele>972.0</ele><time>2026-04-18T16:59:40.787Z</time></trkpt><trkpt lat="42.0671133" lon="-8.0131383"><ele>972.0</ele><time>2026-04-18T16:59:41.786Z</time></trkpt><trkpt lat="42.06726" lon="-8.0131567"><ele>972.0</ele><time>2026-04-18T16:59:42.788Z</time></trkpt><trkpt lat="42.06739" lon="-8.013155"><ele>972.0</ele><time>2026-04-18T16:59:43.787Z</time></trkpt><trkpt lat="42.0675167" lon="-8.01313"><ele>972.0</ele><time>2026-04-18T16:59:44.788Z</time></trkpt><trkpt lat="42.067635" lon="-8.0130883"><ele>972.4000000000001</ele><time>2026-04-18T16:59:45.787Z</time></trkpt><trkpt lat="42.067735" lon="-8.01303"><ele>972.8000000000001</ele><time>2026-04-18T16:59:46.787Z</time></trkpt><trkpt lat="42.0678133" lon="-8.0129567"><ele>973.2</ele><time>2026-04-18T16:59:47.788Z</time></trkpt><trkpt lat="42.0678783" lon="-8.0128633"><ele>973.6</ele><time>2026-04-18T16:59:48.787Z</time></trkpt><trkpt lat="42.06793" lon="-8.012755"><ele>974.0</ele><time>2026-04-18T16:59:49.786Z</time></trkpt><trkpt lat="42.0679783" lon="-8.0126367"><ele>974.0</ele><time>2026-04-18T16:59:50.788Z</time></trkpt><trkpt lat="42.06803" lon="-8.01252"><ele>974.0000000000001</ele><time>2026-04-18T16:59:51.786Z</time></trkpt><trkpt lat="42.0680983" lon="-8.01241"><ele>974.0000000000001</ele><time>2026-04-18T16:59:52.786Z</time></trkpt><trkpt lat="42.068175" lon="-8.0123017"><ele>974.0</ele><time>2026-04-18T16:59:53.786Z</time></trkpt><trkpt lat="42.06826" lon="-8.0121817"><ele>974.0</ele><time>2026-04-18T16:59:54.79Z</time></trkpt><trkpt lat="42.0683467" lon="-8.0120517"><ele>975.0</ele><time>2026-04-18T16:59:55.787Z</time></trkpt><trkpt lat="42.068435" lon="-8.01193"><ele>976.0</ele><time>2026-04-18T16:59:56.786Z</time></trkpt><trkpt lat="42.0685317" lon="-8.0118117"><ele>977.0</ele><time>2026-04-18T16:59:57.787Z</time></trkpt><trkpt lat="42.0686217" lon="-8.0117083"><ele>978.0</ele><time>2026-04-18T16:59:58.787Z</time></trkpt><trkpt lat="42.068695" lon="-8.011615"><ele>978.0</ele><time>2026-04-18T16:59:59.786Z</time></trkpt><trkpt lat="42.068755" lon="-8.0115183"><ele>978.0</ele><time>2026-04-18T17:00:00.786Z</time></trkpt><trkpt lat="42.06881" lon="-8.011415"><ele>978.0</ele><time>2026-04-18T17:00:01.788Z</time></trkpt><trkpt lat="42.0688617" lon="-8.0113167"><ele>978.0</ele><time>2026-04-18T17:00:02.788Z</time></trkpt><trkpt lat="42.068915" lon="-8.0112267"><ele>978.0</ele><time>2026-04-18T17:00:03.785Z</time></trkpt><trkpt lat="42.0689783" lon="-8.011155"><ele>978.0</ele><time>2026-04-18T17:00:04.783Z</time></trkpt><trkpt lat="42.069055" lon="-8.0111017"><ele>978.75</ele><time>2026-04-18T17:00:05.786Z</time></trkpt><trkpt lat="42.069145" lon="-8.011055"><ele>979.5</ele><time>2026-04-18T17:00:06.786Z</time></trkpt><trkpt lat="42.0692683" lon="-8.01105"><ele>980.25</ele><time>2026-04-18T17:00:07.786Z</time></trkpt><trkpt lat="42.0693933" lon="-8.0110467"><ele>981.0</ele><time>2026-04-18T17:00:08.786Z</time></trkpt><trkpt lat="42.0695233" lon="-8.0110483"><ele>981.0</ele><time>2026-04-18T17:00:09.788Z</time></trkpt><trkpt lat="42.069645" lon="-8.0110317"><ele>981.0</ele><time>2026-04-18T17:00:10.788Z</time></trkpt><trkpt lat="42.0697717" lon="-8.011005"><ele>981.0</ele><time>2026-04-18T17:00:11.787Z</time></trkpt><trkpt lat="42.069895" lon="-8.0109733"><ele>981.0</ele><time>2026-04-18T17:00:12.788Z</time></trkpt><trkpt lat="42.07002" lon="-8.010945"><ele>980.0</ele><time>2026-04-18T17:00:13.787Z</time></trkpt><trkpt lat="42.0701417" lon="-8.01094"><ele>979.0</ele><time>2026-04-18T17:00:14.787Z</time></trkpt><trkpt lat="42.0702617" lon="-8.0109483"><ele>978.0</ele><time>2026-04-18T17:00:15.787Z</time></trkpt><trkpt lat="42.0703783" lon="-8.010955"><ele>977.0</ele><time>2026-04-18T17:00:16.787Z</time></trkpt><trkpt lat="42.070495" lon="-8.0109567"><ele>977.0</ele><time>2026-04-18T17:00:17.788Z</time></trkpt><trkpt lat="42.07061" lon="-8.0109567"><ele>977.0</ele><time>2026-04-18T17:00:18.786Z</time></trkpt><trkpt lat="42.0707267" lon="-8.010965"><ele>977.0</ele><time>2026-04-18T17:00:19.786Z</time></trkpt><trkpt lat="42.07085" lon="-8.0109683"><ele>977.0</ele><time>2026-04-18T17:00:20.788Z</time></trkpt><trkpt lat="42.070975" lon="-8.010965"><ele>976.5</ele><time>2026-04-18T17:00:21.786Z</time></trkpt><trkpt lat="42.0710967" lon="-8.0109583"><ele>976.0</ele><time>2026-04-18T17:00:22.785Z</time></trkpt><trkpt lat="42.0712167" lon="-8.01096"><ele>975.5</ele><time>2026-04-18T17:00:23.787Z</time></trkpt><trkpt lat="42.0713283" lon="-8.0109733"><ele>975.0</ele><time>2026-04-18T17:00:24.785Z</time></trkpt><trkpt lat="42.07143" lon="-8.0109967"><ele>975.0</ele><time>2026-04-18T17:00:25.785Z</time></trkpt><trkpt lat="42.0715267" lon="-8.0110333"><ele>975.0</ele><time>2026-04-18T17:00:26.785Z</time></trkpt><trkpt lat="42.0716183" lon="-8.01108"><ele>975.0</ele><time>2026-04-18T17:00:27.787Z</time></trkpt><trkpt lat="42.0717033" lon="-8.0111483"><ele>975.0</ele><time>2026-04-18T17:00:28.786Z</time></trkpt><trkpt lat="42.07178" lon="-8.0112383"><ele>975.0</ele><time>2026-04-18T17:00:29.785Z</time></trkpt><trkpt lat="42.0718517" lon="-8.0113533"><ele>973.6666666666667</ele><time>2026-04-18T17:00:30.785Z</time></trkpt><trkpt lat="42.0719283" lon="-8.0114933"><ele>972.3333333333334</ele><time>2026-04-18T17:00:31.786Z</time></trkpt><trkpt lat="42.07202" lon="-8.0116533"><ele>971.0</ele><time>2026-04-18T17:00:32.786Z</time></trkpt><trkpt lat="42.0721333" lon="-8.0118317"><ele>971.0</ele><time>2026-04-18T17:00:33.787Z</time></trkpt><trkpt lat="42.0722517" lon="-8.0120317"><ele>971.0</ele><time>2026-04-18T17:00:34.786Z</time></trkpt><trkpt lat="42.0723617" lon="-8.0122333"><ele>971.0</ele><time>2026-04-18T17:00:35.785Z</time></trkpt><trkpt lat="42.0724817" lon="-8.01243"><ele>969.0</ele><time>2026-04-18T17:00:36.786Z</time></trkpt><trkpt lat="42.0726017" lon="-8.0126033"><ele>967.0</ele><time>2026-04-18T17:00:37.784Z</time></trkpt><trkpt lat="42.07272" lon="-8.01276"><ele>965.0</ele><time>2026-04-18T17:00:38.785Z</time></trkpt><trkpt lat="42.0728533" lon="-8.0129083"><ele>965.0</ele><time>2026-04-18T17:00:39.785Z</time></trkpt><trkpt lat="42.0729833" lon="-8.01306"><ele>965.0</ele><time>2026-04-18T17:00:40.786Z</time></trkpt><trkpt lat="42.0730917" lon="-8.013185"><ele>965.0</ele><time>2026-04-18T17:00:41.787Z</time></trkpt><trkpt lat="42.0731833" lon="-8.0132867"><ele>965.0</ele><time>2026-04-18T17:00:42.785Z</time></trkpt><trkpt lat="42.07325" lon="-8.01336"><ele>965.0</ele><time>2026-04-18T17:00:43.787Z</time></trkpt><trkpt lat="42.0733633" lon="-8.013405"><ele>965.0</ele><time>2026-04-18T17:00:45.787Z</time></trkpt><trkpt lat="42.0734333" lon="-8.0134133"><ele>965.0</ele><time>2026-04-18T17:00:46.787Z</time></trkpt><trkpt lat="42.073505" lon="-8.01339"><ele>965.0</ele><time>2026-04-18T17:00:47.787Z</time></trkpt><trkpt lat="42.0735917" lon="-8.013355"><ele>965.0</ele><time>2026-04-18T17:00:48.786Z</time></trkpt><trkpt lat="42.073705" lon="-8.0132867"><ele>965.25</ele><time>2026-04-18T17:00:49.785Z</time></trkpt><trkpt lat="42.073845" lon="-8.0132317"><ele>965.5</ele><time>2026-04-18T17:00:50.789Z</time></trkpt><trkpt lat="42.0739817" lon="-8.0131717"><ele>965.75</ele><time>2026-04-18T17:00:51.786Z</time></trkpt><trkpt lat="42.0741183" lon="-8.0131017"><ele>966.0</ele><time>2026-04-18T17:00:52.785Z</time></trkpt><trkpt lat="42.074265" lon="-8.0130167"><ele>966.0</ele><time>2026-04-18T17:00:53.785Z</time></trkpt><trkpt lat="42.0744117" lon="-8.01291"><ele>966.0</ele><time>2026-04-18T17:00:54.787Z</time></trkpt><trkpt lat="42.0745383" lon="-8.0128083"><ele>966.0</ele><time>2026-04-18T17:00:55.786Z</time></trkpt><trkpt lat="42.0746333" lon="-8.01272"><ele>966.0</ele><time>2026-04-18T17:00:56.786Z</time></trkpt><trkpt lat="42.0747133" lon="-8.012635"><ele>966.0</ele><time>2026-04-18T17:00:57.786Z</time></trkpt><trkpt lat="42.0747833" lon="-8.0125433"><ele>965.9999999999999</ele><time>2026-04-18T17:00:58.785Z</time></trkpt><trkpt lat="42.07484" lon="-8.01245"><ele>965.9999999999999</ele><time>2026-04-18T17:00:59.785Z</time></trkpt><trkpt lat="42.0748867" lon="-8.012365"><ele>966.0</ele><time>2026-04-18T17:01:00.786Z</time></trkpt><trkpt lat="42.0749217" lon="-8.0122833"><ele>966.0</ele><time>2026-04-18T17:01:01.785Z</time></trkpt><trkpt lat="42.0748983" lon="-8.0121083"><ele>966.1999999999999</ele><time>2026-04-18T17:01:03.786Z</time></trkpt><trkpt lat="42.074865" lon="-8.0120083"><ele>966.3999999999999</ele><time>2026-04-18T17:01:04.785Z</time></trkpt><trkpt lat="42.07482" lon="-8.011895"><ele>966.6</ele><time>2026-04-18T17:01:05.786Z</time></trkpt><trkpt lat="42.0747883" lon="-8.01177"><ele>966.8</ele><time>2026-04-18T17:01:06.786Z</time></trkpt><trkpt lat="42.0747533" lon="-8.0116383"><ele>967.0</ele><time>2026-04-18T17:01:07.787Z</time></trkpt><trkpt lat="42.074725" lon="-8.0115183"><ele>967.0</ele><time>2026-04-18T17:01:08.787Z</time></trkpt><trkpt lat="42.07471" lon="-8.011415"><ele>967.0</ele><time>2026-04-18T17:01:09.786Z</time></trkpt><trkpt lat="42.0747433" lon="-8.0112583"><ele>967.0</ele><time>2026-04-18T17:01:11.787Z</time></trkpt><trkpt lat="42.0748033" lon="-8.0111967"><ele>967.0</ele><time>2026-04-18T17:01:12.787Z</time></trkpt><trkpt lat="42.0749067" lon="-8.0111583"><ele>967.0</ele><time>2026-04-18T17:01:13.787Z</time></trkpt><trkpt lat="42.0749912" lon="-8.0111305"><ele>967.4000000000001</ele><time>2026-04-18T17:01:14.789Z</time></trkpt><trkpt lat="42.0750678" lon="-8.0111109"><ele>967.8000000000001</ele><time>2026-04-18T17:01:15.787Z</time></trkpt><trkpt lat="42.0751415" lon="-8.0110833"><ele>968.2</ele><time>2026-04-18T17:01:16.787Z</time></trkpt><trkpt lat="42.0752146" lon="-8.0110239"><ele>968.6</ele><time>2026-04-18T17:01:17.786Z</time></trkpt><trkpt lat="42.0752898" lon="-8.0109129"><ele>969.0</ele><time>2026-04-18T17:01:18.787Z</time></trkpt><trkpt lat="42.0753664" lon="-8.0107796"><ele>969.0</ele><time>2026-04-18T17:01:19.785Z</time></trkpt><trkpt lat="42.0754421" lon="-8.0106652"><ele>969.0000000000001</ele><time>2026-04-18T17:01:20.786Z</time></trkpt><trkpt lat="42.0755172" lon="-8.010572"><ele>969.0000000000001</ele><time>2026-04-18T17:01:21.785Z</time></trkpt><trkpt lat="42.0755882" lon="-8.0104989"><ele>969.0</ele><time>2026-04-18T17:01:22.786Z</time></trkpt><trkpt lat="42.0756535" lon="-8.0104364"><ele>969.0</ele><time>2026-04-18T17:01:23.784Z</time></trkpt><trkpt lat="42.0757106" lon="-8.0103732"><ele>969.0</ele><time>2026-04-18T17:01:24.786Z</time></trkpt><trkpt lat="42.0757583" lon="-8.0102939"><ele>969.0000000000001</ele><time>2026-04-18T17:01:25.785Z</time></trkpt><trkpt lat="42.0758023" lon="-8.010182"><ele>969.0000000000001</ele><time>2026-04-18T17:01:26.786Z</time></trkpt><trkpt lat="42.0758592" lon="-8.0100312"><ele>969.0</ele><time>2026-04-18T17:01:27.785Z</time></trkpt><trkpt lat="42.0759254" lon="-8.0098646"><ele>969.0</ele><time>2026-04-18T17:01:28.786Z</time></trkpt><trkpt lat="42.0759947" lon="-8.0096923"><ele>969.25</ele><time>2026-04-18T17:01:29.786Z</time></trkpt><trkpt lat="42.0760634" lon="-8.0095213"><ele>969.5</ele><time>2026-04-18T17:01:30.787Z</time></trkpt><trkpt lat="42.0761285" lon="-8.0093613"><ele>969.75</ele><time>2026-04-18T17:01:31.786Z</time></trkpt><trkpt lat="42.0761941" lon="-8.0092011"><ele>970.0</ele><time>2026-04-18T17:01:32.787Z</time></trkpt><trkpt lat="42.0762603" lon="-8.0090362"><ele>968.0</ele><time>2026-04-18T17:01:33.786Z</time></trkpt><trkpt lat="42.0763284" lon="-8.0088689"><ele>966.0</ele><time>2026-04-18T17:01:34.785Z</time></trkpt><trkpt lat="42.076397" lon="-8.0087015"><ele>964.0</ele><time>2026-04-18T17:01:35.786Z</time></trkpt><trkpt lat="42.0764626" lon="-8.0085404"><ele>962.0</ele><time>2026-04-18T17:01:36.787Z</time></trkpt><trkpt lat="42.0765243" lon="-8.0083897"><ele>961.8</ele><time>2026-04-18T17:01:37.786Z</time></trkpt><trkpt lat="42.0765851" lon="-8.0082502"><ele>961.6</ele><time>2026-04-18T17:01:38.786Z</time></trkpt><trkpt lat="42.0766498" lon="-8.0081293"><ele>961.3999999999999</ele><time>2026-04-18T17:01:39.783Z</time></trkpt><trkpt lat="42.0767181" lon="-8.0080223"><ele>961.1999999999999</ele><time>2026-04-18T17:01:40.785Z</time></trkpt><trkpt lat="42.0767946" lon="-8.0079185"><ele>961.0</ele><time>2026-04-18T17:01:41.787Z</time></trkpt><trkpt lat="42.076873" lon="-8.0078165"><ele>961.0</ele><time>2026-04-18T17:01:42.786Z</time></trkpt><trkpt lat="42.0769535" lon="-8.0077254"><ele>960.9999999999999</ele><time>2026-04-18T17:01:43.786Z</time></trkpt><trkpt lat="42.0770364" lon="-8.0076536"><ele>960.9999999999999</ele><time>2026-04-18T17:01:44.787Z</time></trkpt><trkpt lat="42.0771228" lon="-8.0076122"><ele>961.0</ele><time>2026-04-18T17:01:45.788Z</time></trkpt><trkpt lat="42.0772199" lon="-8.0076089"><ele>961.0</ele><time>2026-04-18T17:01:46.787Z</time></trkpt><trkpt lat="42.0773236" lon="-8.0076338"><ele>961.0</ele><time>2026-04-18T17:01:47.787Z</time></trkpt><trkpt lat="42.0774305" lon="-8.0076749"><ele>960.9999999999999</ele><time>2026-04-18T17:01:48.787Z</time></trkpt><trkpt lat="42.0775432" lon="-8.0077182"><ele>960.9999999999999</ele><time>2026-04-18T17:01:49.787Z</time></trkpt><trkpt lat="42.0776583" lon="-8.007735"><ele>961.0</ele><time>2026-04-18T17:01:50.788Z</time></trkpt><trkpt lat="42.0777617" lon="-8.00772"><ele>961.0</ele><time>2026-04-18T17:01:51.787Z</time></trkpt><trkpt lat="42.0778567" lon="-8.0076633"><ele>961.5</ele><time>2026-04-18T17:01:52.787Z</time></trkpt><trkpt lat="42.0779317" lon="-8.0075667"><ele>962.0</ele><time>2026-04-18T17:01:53.787Z</time></trkpt><trkpt lat="42.0780067" lon="-8.007455"><ele>962.5</ele><time>2026-04-18T17:01:54.786Z</time></trkpt><trkpt lat="42.0780817" lon="-8.0073317"><ele>963.0</ele><time>2026-04-18T17:01:55.787Z</time></trkpt><trkpt lat="42.0781567" lon="-8.0072067"><ele>962.8</ele><time>2026-04-18T17:01:56.788Z</time></trkpt><trkpt lat="42.0782267" lon="-8.00708"><ele>962.5999999999999</ele><time>2026-04-18T17:01:57.788Z</time></trkpt><trkpt lat="42.078285" lon="-8.006955"><ele>962.4000000000001</ele><time>2026-04-18T17:01:58.786Z</time></trkpt><trkpt lat="42.0783217" lon="-8.0068267"><ele>962.2</ele><time>2026-04-18T17:01:59.787Z</time></trkpt><trkpt lat="42.07833" lon="-8.0066983"><ele>962.0</ele><time>2026-04-18T17:02:00.786Z</time></trkpt><trkpt lat="42.0783" lon="-8.0065767"><ele>961.1666666666667</ele><time>2026-04-18T17:02:01.787Z</time></trkpt><trkpt lat="42.0782533" lon="-8.0064617"><ele>960.3333333333334</ele><time>2026-04-18T17:02:02.787Z</time></trkpt><trkpt lat="42.0781983" lon="-8.006365"><ele>959.5</ele><time>2026-04-18T17:02:03.786Z</time></trkpt><trkpt lat="42.0781483" lon="-8.0062833"><ele>958.6666666666667</ele><time>2026-04-18T17:02:04.784Z</time></trkpt><trkpt lat="42.0781033" lon="-8.0062083"><ele>957.8333333333334</ele><time>2026-04-18T17:02:05.785Z</time></trkpt><trkpt lat="42.0780733" lon="-8.0061333"><ele>957.0</ele><time>2026-04-18T17:02:06.787Z</time></trkpt><trkpt lat="42.0780633" lon="-8.00598"><ele>957.0</ele><time>2026-04-18T17:02:08.786Z</time></trkpt><trkpt lat="42.078085" lon="-8.0058917"><ele>957.0</ele><time>2026-04-18T17:02:09.785Z</time></trkpt><trkpt lat="42.0781217" lon="-8.0057917"><ele>957.0</ele><time>2026-04-18T17:02:10.787Z</time></trkpt><trkpt lat="42.078175" lon="-8.00568"><ele>957.0</ele><time>2026-04-18T17:02:11.786Z</time></trkpt><trkpt lat="42.0782433" lon="-8.0055817"><ele>957.0</ele><time>2026-04-18T17:02:12.785Z</time></trkpt><trkpt lat="42.0783283" lon="-8.005475"><ele>959.0</ele><time>2026-04-18T17:02:13.787Z</time></trkpt><trkpt lat="42.0784167" lon="-8.0053617"><ele>961.0</ele><time>2026-04-18T17:02:14.787Z</time></trkpt><trkpt lat="42.0784867" lon="-8.0052433"><ele>963.0</ele><time>2026-04-18T17:02:15.787Z</time></trkpt><trkpt lat="42.0785417" lon="-8.0051133"><ele>965.0</ele><time>2026-04-18T17:02:16.787Z</time></trkpt><trkpt lat="42.0785833" lon="-8.0049767"><ele>965.5</ele><time>2026-04-18T17:02:17.787Z</time></trkpt><trkpt lat="42.0786283" lon="-8.0048483"><ele>966.0</ele><time>2026-04-18T17:02:18.787Z</time></trkpt><trkpt lat="42.07867" lon="-8.0047117"><ele>966.5</ele><time>2026-04-18T17:02:19.787Z</time></trkpt><trkpt lat="42.078715" lon="-8.0045567"><ele>967.0</ele><time>2026-04-18T17:02:20.789Z</time></trkpt><trkpt lat="42.0787717" lon="-8.0043867"><ele>967.0</ele><time>2026-04-18T17:02:21.787Z</time></trkpt><trkpt lat="42.07883" lon="-8.004225"><ele>967.0</ele><time>2026-04-18T17:02:22.787Z</time></trkpt><trkpt lat="42.078885" lon="-8.00408"><ele>967.0</ele><time>2026-04-18T17:02:23.787Z</time></trkpt><trkpt lat="42.0789417" lon="-8.0039667"><ele>967.0</ele><time>2026-04-18T17:02:24.787Z</time></trkpt><trkpt lat="42.0790017" lon="-8.003875"><ele>967.0</ele><time>2026-04-18T17:02:25.787Z</time></trkpt><trkpt lat="42.0790567" lon="-8.003795"><ele>968.3333333333333</ele><time>2026-04-18T17:02:26.789Z</time></trkpt><trkpt lat="42.0791083" lon="-8.00371"><ele>969.6666666666666</ele><time>2026-04-18T17:02:27.786Z</time></trkpt><trkpt lat="42.079155" lon="-8.0036183"><ele>971.0</ele><time>2026-04-18T17:02:28.786Z</time></trkpt><trkpt lat="42.0792033" lon="-8.0035283"><ele>972.3333333333333</ele><time>2026-04-18T17:02:29.787Z</time></trkpt><trkpt lat="42.0792567" lon="-8.0034483"><ele>973.6666666666666</ele><time>2026-04-18T17:02:30.787Z</time></trkpt><trkpt lat="42.07932" lon="-8.00337"><ele>975.0</ele><time>2026-04-18T17:02:31.787Z</time></trkpt><trkpt lat="42.0794" lon="-8.0033033"><ele>975.0</ele><time>2026-04-18T17:02:32.787Z</time></trkpt><trkpt lat="42.0795133" lon="-8.0032367"><ele>975.0</ele><time>2026-04-18T17:02:33.785Z</time></trkpt><trkpt lat="42.0796267" lon="-8.0031683"><ele>975.0</ele><time>2026-04-18T17:02:34.787Z</time></trkpt><trkpt lat="42.0797383" lon="-8.0031017"><ele>975.0</ele><time>2026-04-18T17:02:35.787Z</time></trkpt><trkpt lat="42.0798517" lon="-8.0030333"><ele>975.5</ele><time>2026-04-18T17:02:36.786Z</time></trkpt><trkpt lat="42.0799633" lon="-8.0029633"><ele>976.0</ele><time>2026-04-18T17:02:37.786Z</time></trkpt><trkpt lat="42.080085" lon="-8.0028833"><ele>976.5</ele><time>2026-04-18T17:02:38.787Z</time></trkpt><trkpt lat="42.0802117" lon="-8.0028033"><ele>977.0</ele><time>2026-04-18T17:02:39.787Z</time></trkpt><trkpt lat="42.080335" lon="-8.0027183"><ele>977.0</ele><time>2026-04-18T17:02:40.786Z</time></trkpt><trkpt lat="42.0804567" lon="-8.002635"><ele>977.0</ele><time>2026-04-18T17:02:41.787Z</time></trkpt><trkpt lat="42.0805817" lon="-8.002555"><ele>977.0</ele><time>2026-04-18T17:02:42.787Z</time></trkpt><trkpt lat="42.080705" lon="-8.0024767"><ele>977.0</ele><time>2026-04-18T17:02:43.788Z</time></trkpt><trkpt lat="42.08083" lon="-8.0023983"><ele>976.25</ele><time>2026-04-18T17:02:44.788Z</time></trkpt><trkpt lat="42.0809567" lon="-8.0023133"><ele>975.5</ele><time>2026-04-18T17:02:45.788Z</time></trkpt><trkpt lat="42.0810783" lon="-8.002225"><ele>974.75</ele><time>2026-04-18T17:02:46.787Z</time></trkpt><trkpt lat="42.0811917" lon="-8.002135"><ele>974.0</ele><time>2026-04-18T17:02:47.788Z</time></trkpt><trkpt lat="42.0813017" lon="-8.002045"><ele>974.0</ele><time>2026-04-18T17:02:48.787Z</time></trkpt><trkpt lat="42.08141" lon="-8.0019533"><ele>974.0</ele><time>2026-04-18T17:02:49.787Z</time></trkpt><trkpt lat="42.0815217" lon="-8.0018567"><ele>974.0</ele><time>2026-04-18T17:02:50.788Z</time></trkpt><trkpt lat="42.081635" lon="-8.0017583"><ele>974.0</ele><time>2026-04-18T17:02:51.787Z</time></trkpt><trkpt lat="42.08175" lon="-8.0016567"><ele>975.0</ele><time>2026-04-18T17:02:52.787Z</time></trkpt><trkpt lat="42.0818683" lon="-8.0015567"><ele>976.0</ele><time>2026-04-18T17:02:53.787Z</time></trkpt><trkpt lat="42.0819817" lon="-8.0014617"><ele>977.0</ele><time>2026-04-18T17:02:54.786Z</time></trkpt><trkpt lat="42.08209" lon="-8.0013733"><ele>978.0</ele><time>2026-04-18T17:02:55.787Z</time></trkpt><trkpt lat="42.0822033" lon="-8.0012883"><ele>978.0</ele><time>2026-04-18T17:02:56.788Z</time></trkpt><trkpt lat="42.08232" lon="-8.00121"><ele>978.0</ele><time>2026-04-18T17:02:57.787Z</time></trkpt><trkpt lat="42.0824417" lon="-8.00113"><ele>978.0</ele><time>2026-04-18T17:02:58.787Z</time></trkpt><trkpt lat="42.0825583" lon="-8.0010383"><ele>978.0</ele><time>2026-04-18T17:02:59.787Z</time></trkpt><trkpt lat="42.0826683" lon="-8.0009467"><ele>977.75</ele><time>2026-04-18T17:03:00.786Z</time></trkpt><trkpt lat="42.08277" lon="-8.0008583"><ele>977.5</ele><time>2026-04-18T17:03:01.786Z</time></trkpt><trkpt lat="42.08287" lon="-8.0007717"><ele>977.25</ele><time>2026-04-18T17:03:02.786Z</time></trkpt><trkpt lat="42.0829667" lon="-8.0006767"><ele>977.0</ele><time>2026-04-18T17:03:03.785Z</time></trkpt><trkpt lat="42.0830633" lon="-8.0005833"><ele>977.0</ele><time>2026-04-18T17:03:04.786Z</time></trkpt><trkpt lat="42.08315" lon="-8.000495"><ele>977.0</ele><time>2026-04-18T17:03:05.786Z</time></trkpt><trkpt lat="42.0832267" lon="-8.000415"><ele>977.0</ele><time>2026-04-18T17:03:06.787Z</time></trkpt><trkpt lat="42.0832933" lon="-8.00034"><ele>977.0</ele><time>2026-04-18T17:03:07.786Z</time></trkpt><trkpt lat="42.083365" lon="-8.00027"><ele>977.0</ele><time>2026-04-18T17:03:08.786Z</time></trkpt><trkpt lat="42.0834433" lon="-8.000195"><ele>976.2</ele><time>2026-04-18T17:03:09.787Z</time></trkpt><trkpt lat="42.083525" lon="-8.00012"><ele>975.4000000000001</ele><time>2026-04-18T17:03:10.786Z</time></trkpt><trkpt lat="42.0836067" lon="-8.0000417"><ele>974.5999999999999</ele><time>2026-04-18T17:03:11.787Z</time></trkpt><trkpt lat="42.0836883" lon="-7.9999617"><ele>973.8</ele><time>2026-04-18T17:03:12.785Z</time></trkpt><trkpt lat="42.083765" lon="-7.9998867"><ele>973.0</ele><time>2026-04-18T17:03:13.785Z</time></trkpt><trkpt lat="42.0838333" lon="-7.99982"><ele>972.9999999999999</ele><time>2026-04-18T17:03:14.786Z</time></trkpt><trkpt lat="42.0838933" lon="-7.9997633"><ele>973.0</ele><time>2026-04-18T17:03:15.788Z</time></trkpt><trkpt lat="42.0839467" lon="-7.9997133"><ele>973.0</ele><time>2026-04-18T17:03:16.787Z</time></trkpt><trkpt lat="42.084035" lon="-7.9996333"><ele>973.0</ele><time>2026-04-18T17:03:18.786Z</time></trkpt><trkpt lat="42.0840883" lon="-7.9995833"><ele>972.9999999999999</ele><time>2026-04-18T17:03:21.786Z</time></trkpt><trkpt lat="42.0841567" lon="-7.99954"><ele>973.0</ele><time>2026-04-18T17:03:48.786Z</time></trkpt><trkpt lat="42.0842283" lon="-7.999495"><ele>972.0</ele><time>2026-04-18T17:04:27.786Z</time></trkpt><trkpt lat="42.0842817" lon="-7.9994467"><ele>971.0</ele><time>2026-04-18T17:04:28.786Z</time></trkpt><trkpt lat="42.0843567" lon="-7.9993867"><ele>970.0</ele><time>2026-04-18T17:04:29.787Z</time></trkpt><trkpt lat="42.0844433" lon="-7.9993283"><ele>969.0</ele><time>2026-04-18T17:04:30.788Z</time></trkpt><trkpt lat="42.0845367" lon="-7.9992683"><ele>968.0</ele><time>2026-04-18T17:04:31.787Z</time></trkpt><trkpt lat="42.0846367" lon="-7.9992067"><ele>967.0</ele><time>2026-04-18T17:04:32.789Z</time></trkpt><trkpt lat="42.08474" lon="-7.9991367"><ele>966.0</ele><time>2026-04-18T17:04:33.787Z</time></trkpt><trkpt lat="42.084845" lon="-7.9990633"><ele>965.0</ele><time>2026-04-18T17:04:34.787Z</time></trkpt><trkpt lat="42.08494" lon="-7.9989867"><ele>964.0</ele><time>2026-04-18T17:04:35.787Z</time></trkpt><trkpt lat="42.085025" lon="-7.9989017"><ele>964.0</ele><time>2026-04-18T17:04:36.788Z</time></trkpt><trkpt lat="42.0851083" lon="-7.9988067"><ele>964.0</ele><time>2026-04-18T17:04:37.788Z</time></trkpt><trkpt lat="42.0852017" lon="-7.9987133"><ele>964.0</ele><time>2026-04-18T17:04:38.791Z</time></trkpt><trkpt lat="42.0853017" lon="-7.9986283"><ele>964.0</ele><time>2026-04-18T17:04:39.786Z</time></trkpt><trkpt lat="42.0854083" lon="-7.9985483"><ele>964.0</ele><time>2026-04-18T17:04:40.787Z</time></trkpt><trkpt lat="42.0855117" lon="-7.9984683"><ele>964.0</ele><time>2026-04-18T17:04:41.788Z</time></trkpt><trkpt lat="42.0856133" lon="-7.9983833"><ele>964.0</ele><time>2026-04-18T17:04:42.787Z</time></trkpt><trkpt lat="42.0857133" lon="-7.99829"><ele>964.0</ele><time>2026-04-18T17:04:43.788Z</time></trkpt><trkpt lat="42.085815" lon="-7.9981983"><ele>964.25</ele><time>2026-04-18T17:04:44.787Z</time></trkpt><trkpt lat="42.0859183" lon="-7.9981133"><ele>964.5</ele><time>2026-04-18T17:04:45.788Z</time></trkpt><trkpt lat="42.0860233" lon="-7.998035"><ele>964.75</ele><time>2026-04-18T17:04:46.788Z</time></trkpt><trkpt lat="42.08613" lon="-7.997955"><ele>965.0</ele><time>2026-04-18T17:04:47.787Z</time></trkpt><trkpt lat="42.0862267" lon="-7.9978767"><ele>965.0</ele><time>2026-04-18T17:04:48.786Z</time></trkpt><trkpt lat="42.0863233" lon="-7.9977967"><ele>965.0</ele><time>2026-04-18T17:04:49.786Z</time></trkpt><trkpt lat="42.0864183" lon="-7.997715"><ele>965.0</ele><time>2026-04-18T17:04:50.786Z</time></trkpt><trkpt lat="42.0865267" lon="-7.997635"><ele>965.0</ele><time>2026-04-18T17:04:51.786Z</time></trkpt><trkpt lat="42.08665" lon="-7.9975533"><ele>966.25</ele><time>2026-04-18T17:04:52.784Z</time></trkpt><trkpt lat="42.0867717" lon="-7.9974667"><ele>967.5</ele><time>2026-04-18T17:04:53.785Z</time></trkpt><trkpt lat="42.0868933" lon="-7.9973733"><ele>968.75</ele><time>2026-04-18T17:04:54.786Z</time></trkpt><trkpt lat="42.0870117" lon="-7.99728"><ele>970.0</ele><time>2026-04-18T17:04:55.785Z</time></trkpt><trkpt lat="42.0871317" lon="-7.9971883"><ele>970.0</ele><time>2026-04-18T17:04:56.787Z</time></trkpt><trkpt lat="42.0872433" lon="-7.9970883"><ele>970.0</ele><time>2026-04-18T17:04:57.785Z</time></trkpt><trkpt lat="42.0873467" lon="-7.9969867"><ele>970.0</ele><time>2026-04-18T17:04:58.786Z</time></trkpt><trkpt lat="42.0874317" lon="-7.9969"><ele>970.0</ele><time>2026-04-18T17:04:59.787Z</time></trkpt><trkpt lat="42.0874883" lon="-7.9968333"><ele>970.0</ele><time>2026-04-18T17:05:00.786Z</time></trkpt><trkpt lat="42.0875733" lon="-7.9967267"><ele>970.6</ele><time>2026-04-18T17:05:02.787Z</time></trkpt><trkpt lat="42.0876583" lon="-7.9966083"><ele>971.2</ele><time>2026-04-18T17:05:04.788Z</time></trkpt><trkpt lat="42.0877467" lon="-7.99654"><ele>971.8</ele><time>2026-04-18T17:05:06.787Z</time></trkpt><trkpt lat="42.087845" lon="-7.9965083"><ele>972.4</ele><time>2026-04-18T17:05:08.786Z</time></trkpt><trkpt lat="42.0879117" lon="-7.996475"><ele>973.0</ele><time>2026-04-18T17:05:09.787Z</time></trkpt><trkpt lat="42.087985" lon="-7.9964217"><ele>972.9999999999999</ele><time>2026-04-18T17:05:10.788Z</time></trkpt><trkpt lat="42.0880633" lon="-7.9963617"><ele>973.0</ele><time>2026-04-18T17:05:11.788Z</time></trkpt><trkpt lat="42.0881467" lon="-7.9963067"><ele>973.0</ele><time>2026-04-18T17:05:12.788Z</time></trkpt><trkpt lat="42.0882283" lon="-7.9962617"><ele>973.0</ele><time>2026-04-18T17:05:13.787Z</time></trkpt><trkpt lat="42.0883067" lon="-7.99622"><ele>972.9999999999999</ele><time>2026-04-18T17:05:14.789Z</time></trkpt><trkpt lat="42.0883917" lon="-7.996175"><ele>973.0</ele><time>2026-04-18T17:05:15.789Z</time></trkpt><trkpt lat="42.0884817" lon="-7.99612"><ele>973.3333333333333</ele><time>2026-04-18T17:05:16.786Z</time></trkpt><trkpt lat="42.0885667" lon="-7.9960633"><ele>973.6666666666666</ele><time>2026-04-18T17:05:17.786Z</time></trkpt><trkpt lat="42.0886383" lon="-7.9960033"><ele>974.0</ele><time>2026-04-18T17:05:18.785Z</time></trkpt><trkpt lat="42.0887033" lon="-7.9959317"><ele>974.3333333333333</ele><time>2026-04-18T17:05:19.787Z</time></trkpt><trkpt lat="42.088765" lon="-7.9958517"><ele>974.6666666666666</ele><time>2026-04-18T17:05:20.786Z</time></trkpt><trkpt lat="42.0888217" lon="-7.9957683"><ele>975.0</ele><time>2026-04-18T17:05:21.786Z</time></trkpt><trkpt lat="42.0888883" lon="-7.9956783"><ele>975.0</ele><time>2026-04-18T17:05:22.787Z</time></trkpt><trkpt lat="42.0889583" lon="-7.9955833"><ele>975.0</ele><time>2026-04-18T17:05:23.785Z</time></trkpt><trkpt lat="42.0890283" lon="-7.9954967"><ele>975.0</ele><time>2026-04-18T17:05:24.788Z</time></trkpt><trkpt lat="42.089105" lon="-7.9954217"><ele>975.0</ele><time>2026-04-18T17:05:25.787Z</time></trkpt><trkpt lat="42.0891983" lon="-7.9953567"><ele>975.0</ele><time>2026-04-18T17:05:26.788Z</time></trkpt><trkpt lat="42.0893083" lon="-7.995295"><ele>975.5</ele><time>2026-04-18T17:05:27.788Z</time></trkpt><trkpt lat="42.0894367" lon="-7.9952167"><ele>976.0</ele><time>2026-04-18T17:05:28.789Z</time></trkpt><trkpt lat="42.0895683" lon="-7.995125"><ele>976.5</ele><time>2026-04-18T17:05:29.788Z</time></trkpt><trkpt lat="42.0896867" lon="-7.9950383"><ele>977.0</ele><time>2026-04-18T17:05:30.788Z</time></trkpt><trkpt lat="42.0897767" lon="-7.994965"><ele>977.0</ele><time>2026-04-18T17:05:31.788Z</time></trkpt><trkpt lat="42.08985" lon="-7.9948867"><ele>977.0</ele><time>2026-04-18T17:05:32.787Z</time></trkpt><trkpt lat="42.089905" lon="-7.9948017"><ele>977.0</ele><time>2026-04-18T17:05:33.788Z</time></trkpt><trkpt lat="42.0899467" lon="-7.9946917"><ele>977.0</ele><time>2026-04-18T17:05:34.788Z</time></trkpt><trkpt lat="42.0899967" lon="-7.9945533"><ele>977.0</ele><time>2026-04-18T17:05:35.787Z</time></trkpt><trkpt lat="42.0900533" lon="-7.9944417"><ele>977.4000000000001</ele><time>2026-04-18T17:05:36.787Z</time></trkpt><trkpt lat="42.090125" lon="-7.994365"><ele>977.8000000000001</ele><time>2026-04-18T17:05:37.787Z</time></trkpt><trkpt lat="42.0902217" lon="-7.9943117"><ele>978.2</ele><time>2026-04-18T17:05:38.788Z</time></trkpt><trkpt lat="42.090315" lon="-7.994255"><ele>978.6</ele><time>2026-04-18T17:05:39.788Z</time></trkpt><trkpt lat="42.0904083" lon="-7.9941733"><ele>979.0</ele><time>2026-04-18T17:05:40.787Z</time></trkpt><trkpt lat="42.0904983" lon="-7.9940883"><ele>979.0</ele><time>2026-04-18T17:05:41.788Z</time></trkpt><trkpt lat="42.09059" lon="-7.9940267"><ele>979.0000000000001</ele><time>2026-04-18T17:05:42.787Z</time></trkpt><trkpt lat="42.0906917" lon="-7.9939933"><ele>979.0000000000001</ele><time>2026-04-18T17:05:43.788Z</time></trkpt><trkpt lat="42.09081" lon="-7.993995"><ele>979.0</ele><time>2026-04-18T17:05:44.788Z</time></trkpt><trkpt lat="42.0909217" lon="-7.9940183"><ele>979.0</ele><time>2026-04-18T17:05:45.788Z</time></trkpt><trkpt lat="42.0910183" lon="-7.9940483"><ele>978.8333333333333</ele><time>2026-04-18T17:05:46.787Z</time></trkpt><trkpt lat="42.0911067" lon="-7.9940767"><ele>978.6666666666666</ele><time>2026-04-18T17:05:47.786Z</time></trkpt><trkpt lat="42.0911867" lon="-7.9940867"><ele>978.5</ele><time>2026-04-18T17:05:48.787Z</time></trkpt><trkpt lat="42.09126" lon="-7.994095"><ele>978.3333333333333</ele><time>2026-04-18T17:05:49.785Z</time></trkpt><trkpt lat="42.0913683" lon="-7.9941617"><ele>978.1666666666666</ele><time>2026-04-18T17:05:51.785Z</time></trkpt><trkpt lat="42.09143" lon="-7.9942067"><ele>978.0</ele><time>2026-04-18T17:05:52.787Z</time></trkpt><trkpt lat="42.0915283" lon="-7.9942367"><ele>976.0</ele><time>2026-04-18T17:05:54.789Z</time></trkpt><trkpt lat="42.0915883" lon="-7.994275"><ele>974.0</ele><time>2026-04-18T17:05:57.787Z</time></trkpt><trkpt lat="42.0915633" lon="-7.9943867"><ele>972.0</ele><time>2026-04-18T17:06:00.786Z</time></trkpt><trkpt lat="42.091555" lon="-7.9945483"><ele>970.0</ele><time>2026-04-18T17:06:02.788Z</time></trkpt><trkpt lat="42.0915617" lon="-7.9946683"><ele>968.0</ele><time>2026-04-18T17:06:03.787Z</time></trkpt><trkpt lat="42.0915667" lon="-7.9948167"><ele>969.75</ele><time>2026-04-18T17:06:04.786Z</time></trkpt><trkpt lat="42.0915917" lon="-7.99499"><ele>971.5</ele><time>2026-04-18T17:06:05.788Z</time></trkpt><trkpt lat="42.0916217" lon="-7.9951733"><ele>973.25</ele><time>2026-04-18T17:06:06.787Z</time></trkpt><trkpt lat="42.0916533" lon="-7.9953483"><ele>975.0</ele><time>2026-04-18T17:06:07.787Z</time></trkpt><trkpt lat="42.0916833" lon="-7.9955217"><ele>975.0</ele><time>2026-04-18T17:06:08.788Z</time></trkpt><trkpt lat="42.09172" lon="-7.9956983"><ele>975.0</ele><time>2026-04-18T17:06:09.787Z</time></trkpt><trkpt lat="42.0917583" lon="-7.9958683"><ele>975.0</ele><time>2026-04-18T17:06:10.787Z</time></trkpt><trkpt lat="42.0917983" lon="-7.9960367"><ele>975.0</ele><time>2026-04-18T17:06:11.788Z</time></trkpt><trkpt lat="42.09185" lon="-7.996195"><ele>973.75</ele><time>2026-04-18T17:06:12.789Z</time></trkpt><trkpt lat="42.0919117" lon="-7.9963483"><ele>972.5</ele><time>2026-04-18T17:06:13.787Z</time></trkpt><trkpt lat="42.0919817" lon="-7.9965017"><ele>971.25</ele><time>2026-04-18T17:06:14.788Z</time></trkpt><trkpt lat="42.09206" lon="-7.9966517"><ele>970.0</ele><time>2026-04-18T17:06:15.787Z</time></trkpt><trkpt lat="42.0921383" lon="-7.996805"><ele>968.75</ele><time>2026-04-18T17:06:16.788Z</time></trkpt><trkpt lat="42.09222" lon="-7.996955"><ele>967.5</ele><time>2026-04-18T17:06:17.787Z</time></trkpt><trkpt lat="42.092305" lon="-7.9970983"><ele>966.25</ele><time>2026-04-18T17:06:18.788Z</time></trkpt><trkpt lat="42.0923933" lon="-7.99724"><ele>965.0</ele><time>2026-04-18T17:06:19.787Z</time></trkpt><trkpt lat="42.09248" lon="-7.9973833"><ele>966.4</ele><time>2026-04-18T17:06:20.788Z</time></trkpt><trkpt lat="42.0925633" lon="-7.9975083"><ele>967.8</ele><time>2026-04-18T17:06:21.787Z</time></trkpt><trkpt lat="42.09264" lon="-7.9976067"><ele>969.2</ele><time>2026-04-18T17:06:22.788Z</time></trkpt><trkpt lat="42.0927133" lon="-7.997665"><ele>970.6</ele><time>2026-04-18T17:06:23.787Z</time></trkpt><trkpt lat="42.09277" lon="-7.997705"><ele>972.0</ele><time>2026-04-18T17:06:24.788Z</time></trkpt><trkpt lat="42.0928117" lon="-7.9977833"><ele>972.0</ele><time>2026-04-18T17:06:26.788Z</time></trkpt><trkpt lat="42.0928417" lon="-7.9979483"><ele>972.0</ele><time>2026-04-18T17:06:28.788Z</time></trkpt><trkpt lat="42.0928633" lon="-7.9980567"><ele>972.0</ele><time>2026-04-18T17:06:29.785Z</time></trkpt><trkpt lat="42.09289" lon="-7.9981683"><ele>972.0</ele><time>2026-04-18T17:06:30.789Z</time></trkpt><trkpt lat="42.0929267" lon="-7.99829"><ele>972.0</ele><time>2026-04-18T17:06:31.787Z</time></trkpt><trkpt lat="42.0929667" lon="-7.9984217"><ele>970.0</ele><time>2026-04-18T17:06:32.788Z</time></trkpt><trkpt lat="42.093005" lon="-7.9985583"><ele>968.0</ele><time>2026-04-18T17:06:33.787Z</time></trkpt><trkpt lat="42.0930433" lon="-7.9987017"><ele>966.0</ele><time>2026-04-18T17:06:34.787Z</time></trkpt><trkpt lat="42.0930783" lon="-7.9988517"><ele>964.0</ele><time>2026-04-18T17:06:35.787Z</time></trkpt><trkpt lat="42.0931083" lon="-7.99901"><ele>964.0</ele><time>2026-04-18T17:06:36.787Z</time></trkpt><trkpt lat="42.0931367" lon="-7.9991583"><ele>964.0000000000001</ele><time>2026-04-18T17:06:37.787Z</time></trkpt><trkpt lat="42.0931633" lon="-7.9993033"><ele>964.0000000000001</ele><time>2026-04-18T17:06:38.789Z</time></trkpt><trkpt lat="42.093195" lon="-7.9994383"><ele>964.0</ele><time>2026-04-18T17:06:39.788Z</time></trkpt><trkpt lat="42.0932217" lon="-7.9995567"><ele>964.0</ele><time>2026-04-18T17:06:40.787Z</time></trkpt><trkpt lat="42.093255" lon="-7.9996583"><ele>963.6</ele><time>2026-04-18T17:06:41.788Z</time></trkpt><trkpt lat="42.0932967" lon="-7.99976"><ele>963.2</ele><time>2026-04-18T17:06:42.787Z</time></trkpt><trkpt lat="42.09335" lon="-7.99987"><ele>962.8000000000001</ele><time>2026-04-18T17:06:43.787Z</time></trkpt><trkpt lat="42.09344" lon="-8.0000017"><ele>962.4000000000001</ele><time>2026-04-18T17:06:44.787Z</time></trkpt><trkpt lat="42.0935333" lon="-8.000125"><ele>962.0</ele><time>2026-04-18T17:06:45.787Z</time></trkpt><trkpt lat="42.0936183" lon="-8.0002317"><ele>962.0</ele><time>2026-04-18T17:06:46.787Z</time></trkpt><trkpt lat="42.093695" lon="-8.0003217"><ele>962.0</ele><time>2026-04-18T17:06:47.787Z</time></trkpt><trkpt lat="42.0937783" lon="-8.0004"><ele>962.0</ele><time>2026-04-18T17:06:48.788Z</time></trkpt><trkpt lat="42.0938633" lon="-8.00048"><ele>962.0</ele><time>2026-04-18T17:06:49.787Z</time></trkpt><trkpt lat="42.0939317" lon="-8.0005733"><ele>962.0</ele><time>2026-04-18T17:06:50.789Z</time></trkpt><trkpt lat="42.0939883" lon="-8.000685"><ele>962.0</ele><time>2026-04-18T17:06:51.788Z</time></trkpt><trkpt lat="42.0940467" lon="-8.00081"><ele>962.0</ele><time>2026-04-18T17:06:52.788Z</time></trkpt><trkpt lat="42.0941117" lon="-8.0009333"><ele>962.0</ele><time>2026-04-18T17:06:53.788Z</time></trkpt><trkpt lat="42.094185" lon="-8.0010483"><ele>962.0</ele><time>2026-04-18T17:06:54.788Z</time></trkpt><trkpt lat="42.0942583" lon="-8.0011617"><ele>962.0</ele><time>2026-04-18T17:06:55.787Z</time></trkpt><trkpt lat="42.0943333" lon="-8.0012667"><ele>959.8</ele><time>2026-04-18T17:06:56.788Z</time></trkpt><trkpt lat="42.0944067" lon="-8.0013683"><ele>957.6</ele><time>2026-04-18T17:06:57.787Z</time></trkpt><trkpt lat="42.094475" lon="-8.0014617"><ele>955.3999999999999</ele><time>2026-04-18T17:06:58.788Z</time></trkpt><trkpt lat="42.0945367" lon="-8.0015517"><ele>953.1999999999999</ele><time>2026-04-18T17:06:59.788Z</time></trkpt><trkpt lat="42.0946" lon="-8.0016367"><ele>951.0</ele><time>2026-04-18T17:07:00.787Z</time></trkpt><trkpt lat="42.0946633" lon="-8.0017283"><ele>949.4</ele><time>2026-04-18T17:07:01.787Z</time></trkpt><trkpt lat="42.0947283" lon="-8.00182"><ele>947.8</ele><time>2026-04-18T17:07:02.787Z</time></trkpt><trkpt lat="42.0947967" lon="-8.00191"><ele>946.1999999999999</ele><time>2026-04-18T17:07:03.787Z</time></trkpt><trkpt lat="42.0948683" lon="-8.0020067"><ele>944.5999999999999</ele><time>2026-04-18T17:07:04.787Z</time></trkpt><trkpt lat="42.0949433" lon="-8.0021167"><ele>943.0</ele><time>2026-04-18T17:07:05.784Z</time></trkpt><trkpt lat="42.095025" lon="-8.0022367"><ele>940.0</ele><time>2026-04-18T17:07:06.784Z</time></trkpt><trkpt lat="42.09511" lon="-8.0023583"><ele>937.0</ele><time>2026-04-18T17:07:07.788Z</time></trkpt><trkpt lat="42.0951967" lon="-8.0024767"><ele>934.0</ele><time>2026-04-18T17:07:08.786Z</time></trkpt><trkpt lat="42.0952833" lon="-8.0026"><ele>931.0</ele><time>2026-04-18T17:07:09.788Z</time></trkpt><trkpt lat="42.095365" lon="-8.0027317"><ele>927.5</ele><time>2026-04-18T17:07:10.787Z</time></trkpt><trkpt lat="42.09544" lon="-8.002865"><ele>924.0</ele><time>2026-04-18T17:07:11.787Z</time></trkpt><trkpt lat="42.09551" lon="-8.0030017"><ele>920.5</ele><time>2026-04-18T17:07:12.787Z</time></trkpt><trkpt lat="42.0955767" lon="-8.0031367"><ele>917.0</ele><time>2026-04-18T17:07:13.787Z</time></trkpt><trkpt lat="42.0956467" lon="-8.003275"><ele>914.5</ele><time>2026-04-18T17:07:14.788Z</time></trkpt><trkpt lat="42.0957133" lon="-8.0034133"><ele>912.0</ele><time>2026-04-18T17:07:15.788Z</time></trkpt><trkpt lat="42.09578" lon="-8.0035417"><ele>909.5</ele><time>2026-04-18T17:07:16.787Z</time></trkpt><trkpt lat="42.0958517" lon="-8.0036667"><ele>907.0</ele><time>2026-04-18T17:07:17.787Z</time></trkpt><trkpt lat="42.0959283" lon="-8.0037917"><ele>905.6</ele><time>2026-04-18T17:07:18.787Z</time></trkpt><trkpt lat="42.0960017" lon="-8.0039"><ele>904.2</ele><time>2026-04-18T17:07:19.788Z</time></trkpt><trkpt lat="42.0960917" lon="-8.0039867"><ele>902.8</ele><time>2026-04-18T17:07:20.787Z</time></trkpt><trkpt lat="42.09619" lon="-8.0040433"><ele>901.4</ele><time>2026-04-18T17:07:21.786Z</time></trkpt><trkpt lat="42.0962917" lon="-8.0040567"><ele>900.0</ele><time>2026-04-18T17:07:22.788Z</time></trkpt><trkpt lat="42.0963917" lon="-8.0040383"><ele>900.0</ele><time>2026-04-18T17:07:23.787Z</time></trkpt><trkpt lat="42.0965033" lon="-8.0039967"><ele>900.0</ele><time>2026-04-18T17:07:24.786Z</time></trkpt><trkpt lat="42.096615" lon="-8.0039333"><ele>900.0</ele><time>2026-04-18T17:07:25.787Z</time></trkpt><trkpt lat="42.0967167" lon="-8.0038567"><ele>900.0</ele><time>2026-04-18T17:07:26.788Z</time></trkpt><trkpt lat="42.0968133" lon="-8.00376"><ele>898.75</ele><time>2026-04-18T17:07:27.788Z</time></trkpt><trkpt lat="42.0969133" lon="-8.00365"><ele>897.5</ele><time>2026-04-18T17:07:28.787Z</time></trkpt><trkpt lat="42.09702" lon="-8.0035333"><ele>896.25</ele><time>2026-04-18T17:07:29.787Z</time></trkpt><trkpt lat="42.0971267" lon="-8.0034333"><ele>895.0</ele><time>2026-04-18T17:07:30.787Z</time></trkpt><trkpt lat="42.0972183" lon="-8.0033433"><ele>895.2</ele><time>2026-04-18T17:07:31.785Z</time></trkpt><trkpt lat="42.0972883" lon="-8.00325"><ele>895.4</ele><time>2026-04-18T17:07:32.787Z</time></trkpt><trkpt lat="42.0973433" lon="-8.0031517"><ele>895.5999999999999</ele><time>2026-04-18T17:07:33.786Z</time></trkpt><trkpt lat="42.09739" lon="-8.0030517"><ele>895.8</ele><time>2026-04-18T17:07:34.785Z</time></trkpt><trkpt lat="42.0974283" lon="-8.0029367"><ele>896.0</ele><time>2026-04-18T17:07:35.785Z</time></trkpt><trkpt lat="42.0974517" lon="-8.0027883"><ele>895.25</ele><time>2026-04-18T17:07:36.785Z</time></trkpt><trkpt lat="42.09746" lon="-8.00263"><ele>894.5</ele><time>2026-04-18T17:07:37.786Z</time></trkpt><trkpt lat="42.0974683" lon="-8.0024683"><ele>893.75</ele><time>2026-04-18T17:07:38.787Z</time></trkpt><trkpt lat="42.097475" lon="-8.002305"><ele>893.0</ele><time>2026-04-18T17:07:39.786Z</time></trkpt><trkpt lat="42.0974833" lon="-8.0021383"><ele>891.5999999999999</ele><time>2026-04-18T17:07:40.787Z</time></trkpt><trkpt lat="42.097495" lon="-8.0019717"><ele>890.1999999999999</ele><time>2026-04-18T17:07:41.785Z</time></trkpt><trkpt lat="42.0975067" lon="-8.0018217"><ele>888.8</ele><time>2026-04-18T17:07:42.787Z</time></trkpt><trkpt lat="42.0975217" lon="-8.0016817"><ele>887.4</ele><time>2026-04-18T17:07:43.785Z</time></trkpt><trkpt lat="42.0975433" lon="-8.00154"><ele>886.0</ele><time>2026-04-18T17:07:44.785Z</time></trkpt><trkpt lat="42.0975683" lon="-8.0013917"><ele>885.4</ele><time>2026-04-18T17:07:45.785Z</time></trkpt><trkpt lat="42.097595" lon="-8.00126"><ele>884.8</ele><time>2026-04-18T17:07:46.788Z</time></trkpt><trkpt lat="42.097625" lon="-8.00115"><ele>884.1999999999999</ele><time>2026-04-18T17:07:47.788Z</time></trkpt><trkpt lat="42.0976533" lon="-8.0010517"><ele>883.5999999999999</ele><time>2026-04-18T17:07:48.788Z</time></trkpt><trkpt lat="42.0976933" lon="-8.0009783"><ele>883.0</ele><time>2026-04-18T17:07:49.786Z</time></trkpt><trkpt lat="42.097795" lon="-8.0008867"><ele>882.9999999999999</ele><time>2026-04-18T17:07:51.787Z</time></trkpt><trkpt lat="42.0978983" lon="-8.000835"><ele>883.0</ele><time>2026-04-18T17:07:53.786Z</time></trkpt><trkpt lat="42.0979817" lon="-8.0008117"><ele>883.0</ele><time>2026-04-18T17:07:55.787Z</time></trkpt><trkpt lat="42.0980567" lon="-8.0008067"><ele>883.0</ele><time>2026-04-18T17:07:58.787Z</time></trkpt><trkpt lat="42.0981333" lon="-8.000805"><ele>882.9999999999999</ele><time>2026-04-18T17:08:02.787Z</time></trkpt><trkpt lat="42.0982067" lon="-8.0007967"><ele>883.0</ele><time>2026-04-18T17:08:04.786Z</time></trkpt><trkpt lat="42.0982817" lon="-8.000785"><ele>884.1666666666666</ele><time>2026-04-18T17:08:06.786Z</time></trkpt><trkpt lat="42.0983467" lon="-8.0007783"><ele>885.3333333333333</ele><time>2026-04-18T17:08:08.786Z</time></trkpt><trkpt lat="42.0984383" lon="-8.0007233"><ele>886.5</ele><time>2026-04-18T17:08:11.788Z</time></trkpt><trkpt lat="42.098525" lon="-8.000685"><ele>887.6666666666667</ele><time>2026-04-18T17:08:14.785Z</time></trkpt><trkpt lat="42.0986133" lon="-8.0006583"><ele>888.8333333333334</ele><time>2026-04-18T17:08:17.786Z</time></trkpt><trkpt lat="42.0986767" lon="-8.0006617"><ele>890.0</ele><time>2026-04-18T17:08:19.784Z</time></trkpt><trkpt lat="42.0987767" lon="-8.0006533"><ele>890.0000000000001</ele><time>2026-04-18T17:08:21.787Z</time></trkpt><trkpt lat="42.0989067" lon="-8.00064"><ele>890.0</ele><time>2026-04-18T17:08:23.785Z</time></trkpt><trkpt lat="42.0989783" lon="-8.000635"><ele>890.0</ele><time>2026-04-18T17:08:24.785Z</time></trkpt><trkpt lat="42.099055" lon="-8.000625"><ele>890.0</ele><time>2026-04-18T17:08:25.783Z</time></trkpt><trkpt lat="42.0991317" lon="-8.0006183"><ele>890.0000000000001</ele><time>2026-04-18T17:08:26.784Z</time></trkpt><trkpt lat="42.0992033" lon="-8.00061"><ele>890.0</ele><time>2026-04-18T17:08:27.785Z</time></trkpt><trkpt lat="42.0992817" lon="-8.000605"><ele>889.0000000000001</ele><time>2026-04-18T17:08:28.786Z</time></trkpt><trkpt lat="42.099365" lon="-8.0006067"><ele>888.0</ele><time>2026-04-18T17:08:29.786Z</time></trkpt><trkpt lat="42.0994517" lon="-8.0006133"><ele>887.0</ele><time>2026-04-18T17:08:30.786Z</time></trkpt><trkpt lat="42.099535" lon="-8.00063"><ele>886.0</ele><time>2026-04-18T17:08:31.785Z</time></trkpt><trkpt lat="42.0996167" lon="-8.0006533"><ele>885.0000000000001</ele><time>2026-04-18T17:08:32.785Z</time></trkpt><trkpt lat="42.0996983" lon="-8.0006933"><ele>884.0</ele><time>2026-04-18T17:08:33.785Z</time></trkpt><trkpt lat="42.0997817" lon="-8.000705"><ele>884.0000000000001</ele><time>2026-04-18T17:08:34.784Z</time></trkpt><trkpt lat="42.0998717" lon="-8.00072"><ele>884.0</ele><time>2026-04-18T17:08:35.785Z</time></trkpt><trkpt lat="42.0999517" lon="-8.0007267"><ele>884.0</ele><time>2026-04-18T17:08:36.787Z</time></trkpt><trkpt lat="42.1000233" lon="-8.0007233"><ele>884.0</ele><time>2026-04-18T17:08:37.786Z</time></trkpt><trkpt lat="42.1000883" lon="-8.0007217"><ele>884.0000000000001</ele><time>2026-04-18T17:08:38.786Z</time></trkpt><trkpt lat="42.1002133" lon="-8.00071"><ele>884.0</ele><time>2026-04-18T17:08:40.788Z</time></trkpt><trkpt lat="42.10028" lon="-8.000695"><ele>881.6666666666667</ele><time>2026-04-18T17:08:41.786Z</time></trkpt><trkpt lat="42.1003833" lon="-8.0006333"><ele>879.3333333333334</ele><time>2026-04-18T17:08:43.786Z</time></trkpt><trkpt lat="42.1004533" lon="-8.0005533"><ele>877.0</ele><time>2026-04-18T17:08:45.787Z</time></trkpt><trkpt lat="42.1004917" lon="-8.0004733"><ele>874.6666666666667</ele><time>2026-04-18T17:08:47.787Z</time></trkpt><trkpt lat="42.1004817" lon="-8.0003717"><ele>872.3333333333334</ele><time>2026-04-18T17:08:50.784Z</time></trkpt><trkpt lat="42.1004383" lon="-8.0002583"><ele>870.0</ele><time>2026-04-18T17:08:53.786Z</time></trkpt><trkpt lat="42.1004483" lon="-8.0001533"><ele>870.0</ele><time>2026-04-18T17:08:55.786Z</time></trkpt><trkpt lat="42.1004833" lon="-8.00002"><ele>870.0</ele><time>2026-04-18T17:08:57.784Z</time></trkpt><trkpt lat="42.1005183" lon="-7.9998833"><ele>870.0</ele><time>2026-04-18T17:08:59.786Z</time></trkpt><trkpt lat="42.100545" lon="-7.9997983"><ele>870.0</ele><time>2026-04-18T17:09:00.786Z</time></trkpt><trkpt lat="42.10058" lon="-7.9996967"><ele>870.0</ele><time>2026-04-18T17:09:01.784Z</time></trkpt><trkpt lat="42.100645" lon="-7.99958"><ele>870.0</ele><time>2026-04-18T17:09:02.784Z</time></trkpt><trkpt lat="42.100715" lon="-7.99947"><ele>870.0</ele><time>2026-04-18T17:09:03.786Z</time></trkpt><trkpt lat="42.10078" lon="-7.999355"><ele>870.0</ele><time>2026-04-18T17:09:04.784Z</time></trkpt><trkpt lat="42.10083" lon="-7.9992483"><ele>870.0</ele><time>2026-04-18T17:09:05.786Z</time></trkpt><trkpt lat="42.1008733" lon="-7.9991417"><ele>870.0</ele><time>2026-04-18T17:09:06.786Z</time></trkpt><trkpt lat="42.100905" lon="-7.99903"><ele>869.8</ele><time>2026-04-18T17:09:07.784Z</time></trkpt><trkpt lat="42.1009433" lon="-7.99891"><ele>869.6</ele><time>2026-04-18T17:09:08.785Z</time></trkpt><trkpt lat="42.1009733" lon="-7.998775"><ele>869.4000000000001</ele><time>2026-04-18T17:09:09.784Z</time></trkpt><trkpt lat="42.1010033" lon="-7.9986383"><ele>869.2</ele><time>2026-04-18T17:09:10.784Z</time></trkpt><trkpt lat="42.1010267" lon="-7.9984933"><ele>869.0</ele><time>2026-04-18T17:09:11.786Z</time></trkpt><trkpt lat="42.1010567" lon="-7.9983333"><ele>869.0000000000001</ele><time>2026-04-18T17:09:12.786Z</time></trkpt><trkpt lat="42.1010783" lon="-7.998215"><ele>869.0</ele><time>2026-04-18T17:09:13.785Z</time></trkpt><trkpt lat="42.1011083" lon="-7.99811"><ele>869.0</ele><time>2026-04-18T17:09:14.784Z</time></trkpt><trkpt lat="42.1011367" lon="-7.9980167"><ele>869.0</ele><time>2026-04-18T17:09:15.786Z</time></trkpt><trkpt lat="42.1011867" lon="-7.9979167"><ele>869.0000000000001</ele><time>2026-04-18T17:09:16.786Z</time></trkpt><trkpt lat="42.10124" lon="-7.9978167"><ele>869.0</ele><time>2026-04-18T17:09:17.786Z</time></trkpt><trkpt lat="42.1012733" lon="-7.99773"><ele>869.0000000000001</ele><time>2026-04-18T17:09:18.785Z</time></trkpt><trkpt lat="42.1013067" lon="-7.9976483"><ele>869.0</ele><time>2026-04-18T17:09:19.784Z</time></trkpt><trkpt lat="42.1013317" lon="-7.9975633"><ele>869.0</ele><time>2026-04-18T17:09:20.786Z</time></trkpt><trkpt lat="42.1013333" lon="-7.9974783"><ele>869.0</ele><time>2026-04-18T17:09:21.784Z</time></trkpt><trkpt lat="42.1013067" lon="-7.9973183"><ele>869.0000000000001</ele><time>2026-04-18T17:09:23.784Z</time></trkpt><trkpt lat="42.1012883" lon="-7.9972267"><ele>869.0</ele><time>2026-04-18T17:09:24.786Z</time></trkpt><trkpt lat="42.10125" lon="-7.9971417"><ele>870.0</ele><time>2026-04-18T17:09:25.784Z</time></trkpt><trkpt lat="42.1011767" lon="-7.997075"><ele>871.0000000000001</ele><time>2026-04-18T17:09:26.785Z</time></trkpt><trkpt lat="42.1011117" lon="-7.9969167"><ele>872.0000000000001</ele><time>2026-04-18T17:09:28.786Z</time></trkpt><trkpt lat="42.1011" lon="-7.9968167"><ele>873.0</ele><time>2026-04-18T17:09:29.784Z</time></trkpt><trkpt lat="42.1011" lon="-7.9967"><ele>874.0</ele><time>2026-04-18T17:09:30.785Z</time></trkpt><trkpt lat="42.1011067" lon="-7.9965667"><ele>874.0</ele><time>2026-04-18T17:09:31.786Z</time></trkpt><trkpt lat="42.1011333" lon="-7.9964133"><ele>874.0</ele><time>2026-04-18T17:09:32.786Z</time></trkpt><trkpt lat="42.1011467" lon="-7.9962517"><ele>874.0</ele><time>2026-04-18T17:09:33.784Z</time></trkpt><trkpt lat="42.10115" lon="-7.9960717"><ele>874.0</ele><time>2026-04-18T17:09:34.784Z</time></trkpt><trkpt lat="42.1011317" lon="-7.99592"><ele>874.6666666666666</ele><time>2026-04-18T17:09:35.786Z</time></trkpt><trkpt lat="42.1011333" lon="-7.9957867"><ele>875.3333333333333</ele><time>2026-04-18T17:09:36.786Z</time></trkpt><trkpt lat="42.1011467" lon="-7.99569"><ele>876.0</ele><time>2026-04-18T17:09:37.785Z</time></trkpt><trkpt lat="42.1011733" lon="-7.9956083"><ele>876.6666666666667</ele><time>2026-04-18T17:09:38.786Z</time></trkpt><trkpt lat="42.1012517" lon="-7.995495"><ele>877.3333333333334</ele><time>2026-04-18T17:09:40.786Z</time></trkpt><trkpt lat="42.1013183" lon="-7.995495"><ele>878.0</ele><time>2026-04-18T17:09:41.786Z</time></trkpt><trkpt lat="42.10139" lon="-7.9954983"><ele>878.0000000000001</ele><time>2026-04-18T17:09:42.785Z</time></trkpt><trkpt lat="42.1014583" lon="-7.9955067"><ele>878.0</ele><time>2026-04-18T17:09:43.786Z</time></trkpt><trkpt lat="42.1015283" lon="-7.995515"><ele>878.0</ele><time>2026-04-18T17:09:44.786Z</time></trkpt><trkpt lat="42.1016133" lon="-7.9955483"><ele>878.0</ele><time>2026-04-18T17:09:45.786Z</time></trkpt><trkpt lat="42.1016867" lon="-7.995565"><ele>878.0000000000001</ele><time>2026-04-18T17:09:46.785Z</time></trkpt><trkpt lat="42.101765" lon="-7.9955883"><ele>878.0</ele><time>2026-04-18T17:09:47.786Z</time></trkpt><trkpt lat="42.1018467" lon="-7.9955967"><ele>875.25</ele><time>2026-04-18T17:09:48.786Z</time></trkpt><trkpt lat="42.101955" lon="-7.9956433"><ele>872.5</ele><time>2026-04-18T17:09:49.786Z</time></trkpt><trkpt lat="42.1020767" lon="-7.9956483"><ele>869.75</ele><time>2026-04-18T17:09:50.787Z</time></trkpt><trkpt lat="42.1022" lon="-7.99562"><ele>867.0</ele><time>2026-04-18T17:09:51.786Z</time></trkpt><trkpt lat="42.1023133" lon="-7.9955783"><ele>867.2</ele><time>2026-04-18T17:09:52.786Z</time></trkpt><trkpt lat="42.1024233" lon="-7.9955183"><ele>867.4000000000001</ele><time>2026-04-18T17:09:53.786Z</time></trkpt><trkpt lat="42.1025317" lon="-7.9954583"><ele>867.5999999999999</ele><time>2026-04-18T17:09:54.784Z</time></trkpt><trkpt lat="42.1026367" lon="-7.9954033"><ele>867.8</ele><time>2026-04-18T17:09:55.785Z</time></trkpt><trkpt lat="42.10273" lon="-7.9953667"><ele>868.0</ele><time>2026-04-18T17:09:56.784Z</time></trkpt><trkpt lat="42.1028417" lon="-7.9953567"><ele>868.0</ele><time>2026-04-18T17:09:57.786Z</time></trkpt><trkpt lat="42.10297" lon="-7.9953567"><ele>868.0</ele><time>2026-04-18T17:09:58.785Z</time></trkpt><trkpt lat="42.1030983" lon="-7.9953683"><ele>868.0</ele><time>2026-04-18T17:09:59.786Z</time></trkpt><trkpt lat="42.1032217" lon="-7.995405"><ele>868.0</ele><time>2026-04-18T17:10:00.786Z</time></trkpt><trkpt lat="42.10334" lon="-7.9954683"><ele>866.8</ele><time>2026-04-18T17:10:01.785Z</time></trkpt><trkpt lat="42.1034567" lon="-7.9955483"><ele>865.5999999999999</ele><time>2026-04-18T17:10:02.785Z</time></trkpt><trkpt lat="42.10356" lon="-7.9956317"><ele>864.4000000000001</ele><time>2026-04-18T17:10:03.785Z</time></trkpt><trkpt lat="42.1036433" lon="-7.99569"><ele>863.2</ele><time>2026-04-18T17:10:04.784Z</time></trkpt><trkpt lat="42.103725" lon="-7.995725"><ele>862.0</ele><time>2026-04-18T17:10:05.787Z</time></trkpt><trkpt lat="42.1037983" lon="-7.99574"><ele>862.0</ele><time>2026-04-18T17:10:06.788Z</time></trkpt><trkpt lat="42.1038783" lon="-7.9957417"><ele>862.0</ele><time>2026-04-18T17:10:07.786Z</time></trkpt><trkpt lat="42.1039633" lon="-7.9956883"><ele>862.0</ele><time>2026-04-18T17:10:08.788Z</time></trkpt><trkpt lat="42.1040633" lon="-7.9956017"><ele>862.0</ele><time>2026-04-18T17:10:09.787Z</time></trkpt><trkpt lat="42.1041583" lon="-7.9954917"><ele>862.0</ele><time>2026-04-18T17:10:10.785Z</time></trkpt><trkpt lat="42.1042233" lon="-7.995385"><ele>862.6</ele><time>2026-04-18T17:10:11.786Z</time></trkpt><trkpt lat="42.1042667" lon="-7.9952683"><ele>863.2</ele><time>2026-04-18T17:10:12.785Z</time></trkpt><trkpt lat="42.1042967" lon="-7.99515"><ele>863.8</ele><time>2026-04-18T17:10:13.786Z</time></trkpt><trkpt lat="42.1043317" lon="-7.9950533"><ele>864.4</ele><time>2026-04-18T17:10:14.787Z</time></trkpt><trkpt lat="42.104385" lon="-7.994955"><ele>865.0</ele><time>2026-04-18T17:10:15.787Z</time></trkpt><trkpt lat="42.104455" lon="-7.9948417"><ele>864.9999999999999</ele><time>2026-04-18T17:10:16.787Z</time></trkpt><trkpt lat="42.1045267" lon="-7.9947267"><ele>865.0</ele><time>2026-04-18T17:10:17.784Z</time></trkpt><trkpt lat="42.10459" lon="-7.9946567"><ele>865.0</ele><time>2026-04-18T17:10:18.786Z</time></trkpt><trkpt lat="42.104655" lon="-7.9946083"><ele>865.0</ele><time>2026-04-18T17:10:19.786Z</time></trkpt><trkpt lat="42.1047283" lon="-7.994575"><ele>864.9999999999999</ele><time>2026-04-18T17:10:20.785Z</time></trkpt><trkpt lat="42.10482" lon="-7.99456"><ele>865.0</ele><time>2026-04-18T17:10:21.785Z</time></trkpt><trkpt lat="42.1049217" lon="-7.9945383"><ele>862.2</ele><time>2026-04-18T17:10:22.784Z</time></trkpt><trkpt lat="42.1050267" lon="-7.9945033"><ele>859.4</ele><time>2026-04-18T17:10:23.784Z</time></trkpt><trkpt lat="42.1051283" lon="-7.9944517"><ele>856.5999999999999</ele><time>2026-04-18T17:10:24.788Z</time></trkpt><trkpt lat="42.1052217" lon="-7.9943833"><ele>853.8</ele><time>2026-04-18T17:10:25.786Z</time></trkpt><trkpt lat="42.105295" lon="-7.99432"><ele>851.0</ele><time>2026-04-18T17:10:26.787Z</time></trkpt><trkpt lat="42.10535" lon="-7.99427"><ele>851.0000000000001</ele><time>2026-04-18T17:10:27.787Z</time></trkpt><trkpt lat="42.105425" lon="-7.99421"><ele>851.0</ele><time>2026-04-18T17:10:29.788Z</time></trkpt><trkpt lat="42.1054667" lon="-7.9941267"><ele>851.0</ele><time>2026-04-18T17:10:31.787Z</time></trkpt><trkpt lat="42.1054733" lon="-7.9940033"><ele>851.0</ele><time>2026-04-18T17:10:33.786Z</time></trkpt><trkpt lat="42.1054217" lon="-7.99388"><ele>851.0000000000001</ele><time>2026-04-18T17:10:35.785Z</time></trkpt><trkpt lat="42.1053667" lon="-7.99381"><ele>851.0</ele><time>2026-04-18T17:10:36.787Z</time></trkpt><trkpt lat="42.1053117" lon="-7.99372"><ele>851.6666666666667</ele><time>2026-04-18T17:10:37.787Z</time></trkpt><trkpt lat="42.1052633" lon="-7.9936267"><ele>852.3333333333334</ele><time>2026-04-18T17:10:38.787Z</time></trkpt><trkpt lat="42.10523" lon="-7.9935183"><ele>853.0</ele><time>2026-04-18T17:10:39.786Z</time></trkpt><trkpt lat="42.1052017" lon="-7.9934117"><ele>853.6666666666667</ele><time>2026-04-18T17:10:40.784Z</time></trkpt><trkpt lat="42.1051783" lon="-7.9933117"><ele>854.3333333333334</ele><time>2026-04-18T17:10:41.785Z</time></trkpt><trkpt lat="42.1051667" lon="-7.9931717"><ele>855.0</ele><time>2026-04-18T17:10:42.785Z</time></trkpt><trkpt lat="42.105155" lon="-7.9930133"><ele>856.0</ele><time>2026-04-18T17:10:43.786Z</time></trkpt><trkpt lat="42.105145" lon="-7.9928517"><ele>857.0</ele><time>2026-04-18T17:10:44.785Z</time></trkpt><trkpt lat="42.1051433" lon="-7.9926967"><ele>858.0</ele><time>2026-04-18T17:10:45.784Z</time></trkpt><trkpt lat="42.1051383" lon="-7.9925483"><ele>859.0</ele><time>2026-04-18T17:10:46.786Z</time></trkpt><trkpt lat="42.10514" lon="-7.99241"><ele>860.0</ele><time>2026-04-18T17:10:47.784Z</time></trkpt><trkpt lat="42.1051467" lon="-7.992265"><ele>861.8</ele><time>2026-04-18T17:10:48.785Z</time></trkpt><trkpt lat="42.1051617" lon="-7.9921283"><ele>863.6</ele><time>2026-04-18T17:10:49.785Z</time></trkpt><trkpt lat="42.1051917" lon="-7.9919817"><ele>865.4000000000001</ele><time>2026-04-18T17:10:50.785Z</time></trkpt><trkpt lat="42.10523" lon="-7.9918417"><ele>867.2</ele><time>2026-04-18T17:10:51.784Z</time></trkpt><trkpt lat="42.1052617" lon="-7.9917"><ele>869.0</ele><time>2026-04-18T17:10:52.786Z</time></trkpt><trkpt lat="42.1052917" lon="-7.9915617"><ele>871.0000000000001</ele><time>2026-04-18T17:10:53.787Z</time></trkpt><trkpt lat="42.105315" lon="-7.99143"><ele>873.0</ele><time>2026-04-18T17:10:54.785Z</time></trkpt><trkpt lat="42.1053267" lon="-7.991305"><ele>875.0</ele><time>2026-04-18T17:10:55.786Z</time></trkpt><trkpt lat="42.1053317" lon="-7.99118"><ele>877.0</ele><time>2026-04-18T17:10:56.786Z</time></trkpt><trkpt lat="42.1053233" lon="-7.9910683"><ele>879.0000000000001</ele><time>2026-04-18T17:10:57.785Z</time></trkpt><trkpt lat="42.1053133" lon="-7.9909633"><ele>881.0</ele><time>2026-04-18T17:10:58.785Z</time></trkpt><trkpt lat="42.1053017" lon="-7.9908467"><ele>883.0</ele><time>2026-04-18T17:10:59.784Z</time></trkpt><trkpt lat="42.105275" lon="-7.990715"><ele>885.0</ele><time>2026-04-18T17:11:00.785Z</time></trkpt><trkpt lat="42.1052483" lon="-7.99055"><ele>887.0</ele><time>2026-04-18T17:11:01.787Z</time></trkpt><trkpt lat="42.1052167" lon="-7.9903817"><ele>889.0</ele><time>2026-04-18T17:11:02.785Z</time></trkpt><trkpt lat="42.1051783" lon="-7.990215"><ele>889.0</ele><time>2026-04-18T17:11:03.786Z</time></trkpt><trkpt lat="42.1051417" lon="-7.9900417"><ele>889.0</ele><time>2026-04-18T17:11:04.787Z</time></trkpt><trkpt lat="42.10511" lon="-7.9898683"><ele>889.0</ele><time>2026-04-18T17:11:05.786Z</time></trkpt><trkpt lat="42.1050867" lon="-7.9896967"><ele>889.0</ele><time>2026-04-18T17:11:06.787Z</time></trkpt><trkpt lat="42.1050683" lon="-7.9895467"><ele>889.9999999999999</ele><time>2026-04-18T17:11:07.787Z</time></trkpt><trkpt lat="42.1050467" lon="-7.98943"><ele>891.0</ele><time>2026-04-18T17:11:08.787Z</time></trkpt><trkpt lat="42.1050217" lon="-7.9893267"><ele>892.0</ele><time>2026-04-18T17:11:09.785Z</time></trkpt><trkpt lat="42.1050033" lon="-7.9892317"><ele>893.0</ele><time>2026-04-18T17:11:10.786Z</time></trkpt><trkpt lat="42.1049967" lon="-7.9891417"><ele>893.9999999999999</ele><time>2026-04-18T17:11:11.787Z</time></trkpt><trkpt lat="42.10501" lon="-7.989045"><ele>895.0</ele><time>2026-04-18T17:11:12.786Z</time></trkpt><trkpt lat="42.105035" lon="-7.9889417"><ele>895.6</ele><time>2026-04-18T17:11:13.786Z</time></trkpt><trkpt lat="42.10505" lon="-7.988825"><ele>896.2</ele><time>2026-04-18T17:11:14.787Z</time></trkpt><trkpt lat="42.10506" lon="-7.9886883"><ele>896.8</ele><time>2026-04-18T17:11:15.787Z</time></trkpt><trkpt lat="42.1050567" lon="-7.9885417"><ele>897.4</ele><time>2026-04-18T17:11:16.787Z</time></trkpt><trkpt lat="42.105045" lon="-7.98839"><ele>898.0</ele><time>2026-04-18T17:11:17.786Z</time></trkpt><trkpt lat="42.10503" lon="-7.9882483"><ele>899.2</ele><time>2026-04-18T17:11:18.786Z</time></trkpt><trkpt lat="42.1050183" lon="-7.988115"><ele>900.4</ele><time>2026-04-18T17:11:19.786Z</time></trkpt><trkpt lat="42.104985" lon="-7.9879917"><ele>901.6000000000001</ele><time>2026-04-18T17:11:20.786Z</time></trkpt><trkpt lat="42.1049383" lon="-7.98787"><ele>902.8000000000001</ele><time>2026-04-18T17:11:21.784Z</time></trkpt><trkpt lat="42.1048867" lon="-7.9877467"><ele>904.0</ele><time>2026-04-18T17:11:22.787Z</time></trkpt><trkpt lat="42.1048233" lon="-7.9876383"><ele>905.8000000000001</ele><time>2026-04-18T17:11:23.787Z</time></trkpt><trkpt lat="42.104755" lon="-7.98752"><ele>907.6000000000001</ele><time>2026-04-18T17:11:24.787Z</time></trkpt><trkpt lat="42.1046817" lon="-7.98741"><ele>909.4</ele><time>2026-04-18T17:11:25.786Z</time></trkpt><trkpt lat="42.1046067" lon="-7.9873033"><ele>911.2</ele><time>2026-04-18T17:11:26.785Z</time></trkpt><trkpt lat="42.104535" lon="-7.98719"><ele>913.0</ele><time>2026-04-18T17:11:27.787Z</time></trkpt><trkpt lat="42.104475" lon="-7.9870567"><ele>913.0</ele><time>2026-04-18T17:11:28.786Z</time></trkpt><trkpt lat="42.1044283" lon="-7.9869133"><ele>913.0</ele><time>2026-04-18T17:11:29.785Z</time></trkpt><trkpt lat="42.1043917" lon="-7.986785"><ele>913.0</ele><time>2026-04-18T17:11:30.787Z</time></trkpt><trkpt lat="42.10438" lon="-7.9866767"><ele>913.0</ele><time>2026-04-18T17:11:31.786Z</time></trkpt><trkpt lat="42.1043733" lon="-7.9865833"><ele>913.0</ele><time>2026-04-18T17:11:32.787Z</time></trkpt><trkpt lat="42.10437" lon="-7.98645"><ele>913.2</ele><time>2026-04-18T17:11:34.787Z</time></trkpt><trkpt lat="42.104325" lon="-7.986355"><ele>913.4</ele><time>2026-04-18T17:11:36.785Z</time></trkpt><trkpt lat="42.104215" lon="-7.98628"><ele>913.6000000000001</ele><time>2026-04-18T17:11:38.785Z</time></trkpt><trkpt lat="42.104135" lon="-7.98623"><ele>913.8000000000001</ele><time>2026-04-18T17:11:39.786Z</time></trkpt><trkpt lat="42.1040433" lon="-7.986155"><ele>914.0</ele><time>2026-04-18T17:11:40.785Z</time></trkpt><trkpt lat="42.1039517" lon="-7.986035"><ele>916.4000000000001</ele><time>2026-04-18T17:11:41.787Z</time></trkpt><trkpt lat="42.1038767" lon="-7.98591"><ele>918.8000000000001</ele><time>2026-04-18T17:11:42.786Z</time></trkpt><trkpt lat="42.1038183" lon="-7.98579"><ele>921.1999999999999</ele><time>2026-04-18T17:11:43.787Z</time></trkpt><trkpt lat="42.103765" lon="-7.9856817"><ele>923.5999999999999</ele><time>2026-04-18T17:11:44.787Z</time></trkpt><trkpt lat="42.1037367" lon="-7.9855917"><ele>926.0</ele><time>2026-04-18T17:11:45.787Z</time></trkpt><trkpt lat="42.1037433" lon="-7.9854233"><ele>926.0</ele><time>2026-04-18T17:11:47.786Z</time></trkpt><trkpt lat="42.1037767" lon="-7.9853333"><ele>925.9999999999999</ele><time>2026-04-18T17:11:48.785Z</time></trkpt><trkpt lat="42.103815" lon="-7.985215"><ele>925.9999999999999</ele><time>2026-04-18T17:11:49.786Z</time></trkpt><trkpt lat="42.10385" lon="-7.9850767"><ele>926.0</ele><time>2026-04-18T17:11:50.786Z</time></trkpt><trkpt lat="42.1038633" lon="-7.9849117"><ele>926.0</ele><time>2026-04-18T17:11:51.784Z</time></trkpt><trkpt lat="42.10387" lon="-7.9847283"><ele>927.25</ele><time>2026-04-18T17:11:52.787Z</time></trkpt><trkpt lat="42.1038767" lon="-7.9845467"><ele>928.5</ele><time>2026-04-18T17:11:53.785Z</time></trkpt><trkpt lat="42.1038917" lon="-7.9843683"><ele>929.75</ele><time>2026-04-18T17:11:54.789Z</time></trkpt><trkpt lat="42.1039117" lon="-7.9842083"><ele>931.0</ele><time>2026-04-18T17:11:55.787Z</time></trkpt><trkpt lat="42.1039333" lon="-7.9840883"><ele>932.4</ele><time>2026-04-18T17:11:56.786Z</time></trkpt><trkpt lat="42.1039667" lon="-7.9840067"><ele>933.8</ele><time>2026-04-18T17:11:57.786Z</time></trkpt><trkpt lat="42.1040433" lon="-7.983925"><ele>935.1999999999999</ele><time>2026-04-18T17:11:59.788Z</time></trkpt><trkpt lat="42.1041667" lon="-7.983865"><ele>936.5999999999999</ele><time>2026-04-18T17:12:01.786Z</time></trkpt><trkpt lat="42.1042483" lon="-7.9838267"><ele>938.0</ele><time>2026-04-18T17:12:02.787Z</time></trkpt><trkpt lat="42.1043333" lon="-7.9837817"><ele>938.0</ele><time>2026-04-18T17:12:03.787Z</time></trkpt><trkpt lat="42.1044317" lon="-7.9837283"><ele>938.0</ele><time>2026-04-18T17:12:04.785Z</time></trkpt><trkpt lat="42.1045433" lon="-7.9836617"><ele>938.0</ele><time>2026-04-18T17:12:05.786Z</time></trkpt><trkpt lat="42.1046617" lon="-7.9835883"><ele>938.0</ele><time>2026-04-18T17:12:06.786Z</time></trkpt><trkpt lat="42.1047833" lon="-7.9835183"><ele>938.0</ele><time>2026-04-18T17:12:07.786Z</time></trkpt><trkpt lat="42.1049117" lon="-7.9834517"><ele>938.0</ele><time>2026-04-18T17:12:08.786Z</time></trkpt><trkpt lat="42.1050417" lon="-7.9833833"><ele>938.0</ele><time>2026-04-18T17:12:09.786Z</time></trkpt><trkpt lat="42.10518" lon="-7.98331"><ele>938.0</ele><time>2026-04-18T17:12:10.786Z</time></trkpt><trkpt lat="42.1053217" lon="-7.9832383"><ele>938.25</ele><time>2026-04-18T17:12:11.786Z</time></trkpt><trkpt lat="42.1054583" lon="-7.9831667"><ele>938.5</ele><time>2026-04-18T17:12:12.787Z</time></trkpt><trkpt lat="42.1055917" lon="-7.98309"><ele>938.75</ele><time>2026-04-18T17:12:13.786Z</time></trkpt><trkpt lat="42.1057267" lon="-7.9830117"><ele>939.0</ele><time>2026-04-18T17:12:14.788Z</time></trkpt><trkpt lat="42.1058533" lon="-7.9829367"><ele>939.0</ele><time>2026-04-18T17:12:15.786Z</time></trkpt><trkpt lat="42.1059833" lon="-7.9828683"><ele>939.0</ele><time>2026-04-18T17:12:16.786Z</time></trkpt><trkpt lat="42.1061183" lon="-7.9828017"><ele>939.0</ele><time>2026-04-18T17:12:17.786Z</time></trkpt><trkpt lat="42.1062517" lon="-7.982735"><ele>939.0</ele><time>2026-04-18T17:12:18.784Z</time></trkpt><trkpt lat="42.1063917" lon="-7.9826817"><ele>939.0</ele><time>2026-04-18T17:12:19.786Z</time></trkpt><trkpt lat="42.10653" lon="-7.982615"><ele>939.0</ele><time>2026-04-18T17:12:20.785Z</time></trkpt><trkpt lat="42.106665" lon="-7.9825367"><ele>939.0</ele><time>2026-04-18T17:12:21.784Z</time></trkpt><trkpt lat="42.1068067" lon="-7.9824483"><ele>937.0</ele><time>2026-04-18T17:12:22.784Z</time></trkpt><trkpt lat="42.10695" lon="-7.982355"><ele>935.0</ele><time>2026-04-18T17:12:23.785Z</time></trkpt><trkpt lat="42.1071" lon="-7.9822667"><ele>933.0</ele><time>2026-04-18T17:12:24.786Z</time></trkpt><trkpt lat="42.1072467" lon="-7.9821883"><ele>933.0</ele><time>2026-04-18T17:12:25.787Z</time></trkpt><trkpt lat="42.107375" lon="-7.982115"><ele>933.0</ele><time>2026-04-18T17:12:26.785Z</time></trkpt><trkpt lat="42.1074733" lon="-7.9820517"><ele>933.0</ele><time>2026-04-18T17:12:27.787Z</time></trkpt><trkpt lat="42.1075533" lon="-7.9820133"><ele>933.0</ele><time>2026-04-18T17:12:28.787Z</time></trkpt><trkpt lat="42.1076283" lon="-7.9819933"><ele>933.0</ele><time>2026-04-18T17:12:29.786Z</time></trkpt><trkpt lat="42.1077067" lon="-7.981995"><ele>933.0</ele><time>2026-04-18T17:12:30.785Z</time></trkpt><trkpt lat="42.1078033" lon="-7.9819883"><ele>933.0</ele><time>2026-04-18T17:12:31.787Z</time></trkpt><trkpt lat="42.1079067" lon="-7.98197"><ele>933.0</ele><time>2026-04-18T17:12:32.787Z</time></trkpt><trkpt lat="42.1080333" lon="-7.9819183"><ele>933.0</ele><time>2026-04-18T17:12:33.786Z</time></trkpt><trkpt lat="42.1081683" lon="-7.98184"><ele>931.6666666666667</ele><time>2026-04-18T17:12:34.787Z</time></trkpt><trkpt lat="42.1083033" lon="-7.98173"><ele>930.3333333333334</ele><time>2026-04-18T17:12:35.785Z</time></trkpt><trkpt lat="42.108435" lon="-7.9816"><ele>929.0</ele><time>2026-04-18T17:12:36.785Z</time></trkpt><trkpt lat="42.10856" lon="-7.9814733"><ele>927.75</ele><time>2026-04-18T17:12:37.786Z</time></trkpt><trkpt lat="42.108665" lon="-7.981345"><ele>926.5</ele><time>2026-04-18T17:12:38.786Z</time></trkpt><trkpt lat="42.1087617" lon="-7.9812217"><ele>925.25</ele><time>2026-04-18T17:12:39.785Z</time></trkpt><trkpt lat="42.1088467" lon="-7.981135"><ele>924.0</ele><time>2026-04-18T17:12:40.786Z</time></trkpt><trkpt lat="42.1089117" lon="-7.98108"><ele>924.0</ele><time>2026-04-18T17:12:41.787Z</time></trkpt><trkpt lat="42.10898" lon="-7.9809767"><ele>924.0000000000001</ele><time>2026-04-18T17:12:43.783Z</time></trkpt><trkpt lat="42.1089667" lon="-7.98087"><ele>924.0000000000001</ele><time>2026-04-18T17:12:45.786Z</time></trkpt><trkpt lat="42.1090267" lon="-7.9807883"><ele>924.0</ele><time>2026-04-18T17:12:48.786Z</time></trkpt><trkpt lat="42.1091017" lon="-7.9807633"><ele>924.0</ele><time>2026-04-18T17:12:50.785Z</time></trkpt><trkpt lat="42.1092117" lon="-7.9807083"><ele>922.6666666666666</ele><time>2026-04-18T17:12:52.786Z</time></trkpt><trkpt lat="42.1092767" lon="-7.9806733"><ele>921.3333333333333</ele><time>2026-04-18T17:12:53.784Z</time></trkpt><trkpt lat="42.10935" lon="-7.98064"><ele>920.0</ele><time>2026-04-18T17:12:54.787Z</time></trkpt><trkpt lat="42.1094333" lon="-7.9806117"><ele>918.6666666666666</ele><time>2026-04-18T17:12:55.786Z</time></trkpt><trkpt lat="42.1095167" lon="-7.9805867"><ele>917.3333333333333</ele><time>2026-04-18T17:12:56.789Z</time></trkpt><trkpt lat="42.1096017" lon="-7.980555"><ele>916.0</ele><time>2026-04-18T17:12:57.786Z</time></trkpt><trkpt lat="42.1096933" lon="-7.9805233"><ele>916.0</ele><time>2026-04-18T17:12:58.786Z</time></trkpt><trkpt lat="42.109795" lon="-7.9804967"><ele>915.9999999999999</ele><time>2026-04-18T17:12:59.787Z</time></trkpt><trkpt lat="42.109905" lon="-7.980465"><ele>915.9999999999999</ele><time>2026-04-18T17:13:00.787Z</time></trkpt><trkpt lat="42.1100017" lon="-7.980435"><ele>916.0</ele><time>2026-04-18T17:13:01.786Z</time></trkpt><trkpt lat="42.1100767" lon="-7.9804133"><ele>916.0</ele><time>2026-04-18T17:13:02.789Z</time></trkpt><trkpt lat="42.1101717" lon="-7.98039"><ele>914.5999999999999</ele><time>2026-04-18T17:13:04.787Z</time></trkpt><trkpt lat="42.1102117" lon="-7.9803"><ele>913.1999999999999</ele><time>2026-04-18T17:13:08.787Z</time></trkpt><trkpt lat="42.1102333" lon="-7.98018"><ele>911.8000000000001</ele><time>2026-04-18T17:13:11.786Z</time></trkpt><trkpt lat="42.1102533" lon="-7.9800717"><ele>910.4000000000001</ele><time>2026-04-18T17:13:13.784Z</time></trkpt><trkpt lat="42.110295" lon="-7.9799233"><ele>909.0</ele><time>2026-04-18T17:13:15.787Z</time></trkpt><trkpt lat="42.1103583" lon="-7.9797917"><ele>907.6666666666666</ele><time>2026-04-18T17:13:17.783Z</time></trkpt><trkpt lat="42.110425" lon="-7.9797533"><ele>906.3333333333333</ele><time>2026-04-18T17:13:18.786Z</time></trkpt><trkpt lat="42.1104833" lon="-7.9797067"><ele>905.0</ele><time>2026-04-18T17:13:19.785Z</time></trkpt><trkpt lat="42.1105417" lon="-7.979675"><ele>903.6666666666666</ele><time>2026-04-18T17:13:20.785Z</time></trkpt><trkpt lat="42.110605" lon="-7.97954"><ele>902.3333333333333</ele><time>2026-04-18T17:13:22.787Z</time></trkpt><trkpt lat="42.1106367" lon="-7.9794433"><ele>901.0</ele><time>2026-04-18T17:13:23.785Z</time></trkpt><trkpt lat="42.11067" lon="-7.9793417"><ele>901.0</ele><time>2026-04-18T17:13:24.787Z</time></trkpt><trkpt lat="42.1107083" lon="-7.9792433"><ele>900.9999999999999</ele><time>2026-04-18T17:13:25.786Z</time></trkpt><trkpt lat="42.1107383" lon="-7.97916"><ele>900.9999999999999</ele><time>2026-04-18T17:13:26.786Z</time></trkpt><trkpt lat="42.1108017" lon="-7.9790317"><ele>901.0</ele><time>2026-04-18T17:13:28.788Z</time></trkpt><trkpt lat="42.11089" lon="-7.9789317"><ele>901.0</ele><time>2026-04-18T17:13:30.786Z</time></trkpt><trkpt lat="42.1109933" lon="-7.9788567"><ele>900.9999999999999</ele><time>2026-04-18T17:13:32.787Z</time></trkpt><trkpt lat="42.111045" lon="-7.9787967"><ele>901.0</ele><time>2026-04-18T17:13:33.787Z</time></trkpt><trkpt lat="42.111095" lon="-7.9787033"><ele>901.0</ele><time>2026-04-18T17:13:34.787Z</time></trkpt><trkpt lat="42.11115" lon="-7.9786"><ele>901.0</ele><time>2026-04-18T17:13:35.786Z</time></trkpt><trkpt lat="42.1112033" lon="-7.978495"><ele>900.9999999999999</ele><time>2026-04-18T17:13:36.786Z</time></trkpt><trkpt lat="42.1112583" lon="-7.9783833"><ele>901.0</ele><time>2026-04-18T17:13:37.787Z</time></trkpt><trkpt lat="42.1113067" lon="-7.97827"><ele>901.0</ele><time>2026-04-18T17:13:38.787Z</time></trkpt><trkpt lat="42.1113483" lon="-7.9781633"><ele>900.9999999999999</ele><time>2026-04-18T17:13:39.786Z</time></trkpt><trkpt lat="42.1113833" lon="-7.9780717"><ele>900.9999999999999</ele><time>2026-04-18T17:13:40.785Z</time></trkpt><trkpt lat="42.1114133" lon="-7.97799"><ele>901.0</ele><time>2026-04-18T17:13:41.787Z</time></trkpt><trkpt lat="42.1114583" lon="-7.977835"><ele>901.0</ele><time>2026-04-18T17:13:43.787Z</time></trkpt><trkpt lat="42.111515" lon="-7.9777217"><ele>899.9999999999999</ele><time>2026-04-18T17:13:45.787Z</time></trkpt><trkpt lat="42.1116183" lon="-7.977675"><ele>899.0</ele><time>2026-04-18T17:13:47.787Z</time></trkpt><trkpt lat="42.1116833" lon="-7.9776817"><ele>898.0</ele><time>2026-04-18T17:13:48.786Z</time></trkpt><trkpt lat="42.1117567" lon="-7.977705"><ele>897.0</ele><time>2026-04-18T17:13:49.787Z</time></trkpt><trkpt lat="42.1118367" lon="-7.97773"><ele>895.9999999999999</ele><time>2026-04-18T17:13:50.787Z</time></trkpt><trkpt lat="42.1119283" lon="-7.9777517"><ele>895.0</ele><time>2026-04-18T17:13:51.786Z</time></trkpt><trkpt lat="42.1120217" lon="-7.9777633"><ele>895.0</ele><time>2026-04-18T17:13:52.786Z</time></trkpt><trkpt lat="42.112115" lon="-7.977765"><ele>895.0</ele><time>2026-04-18T17:13:53.786Z</time></trkpt><trkpt lat="42.112205" lon="-7.97775"><ele>895.0</ele><time>2026-04-18T17:13:54.787Z</time></trkpt><trkpt lat="42.1122967" lon="-7.9777233"><ele>895.0</ele><time>2026-04-18T17:13:55.787Z</time></trkpt><trkpt lat="42.11239" lon="-7.97769"><ele>895.0</ele><time>2026-04-18T17:13:56.787Z</time></trkpt><trkpt lat="42.1124867" lon="-7.9776483"><ele>895.0</ele><time>2026-04-18T17:13:57.788Z</time></trkpt><trkpt lat="42.112585" lon="-7.9776"><ele>895.0</ele><time>2026-04-18T17:13:58.783Z</time></trkpt><trkpt lat="42.1126917" lon="-7.97754"><ele>895.0</ele><time>2026-04-18T17:13:59.784Z</time></trkpt><trkpt lat="42.1127883" lon="-7.9774717"><ele>895.0</ele><time>2026-04-18T17:14:00.786Z</time></trkpt><trkpt lat="42.1128767" lon="-7.9774167"><ele>895.0</ele><time>2026-04-18T17:14:01.787Z</time></trkpt><trkpt lat="42.112965" lon="-7.9773733"><ele>894.4999999999999</ele><time>2026-04-18T17:14:02.787Z</time></trkpt><trkpt lat="42.1130417" lon="-7.977325"><ele>894.0</ele><time>2026-04-18T17:14:03.783Z</time></trkpt><trkpt lat="42.113105" lon="-7.977265"><ele>893.5</ele><time>2026-04-18T17:14:04.784Z</time></trkpt><trkpt lat="42.1131733" lon="-7.97721"><ele>893.0</ele><time>2026-04-18T17:14:05.787Z</time></trkpt><trkpt lat="42.1132367" lon="-7.977155"><ele>892.4999999999999</ele><time>2026-04-18T17:14:06.786Z</time></trkpt><trkpt lat="42.1133017" lon="-7.9770983"><ele>892.0</ele><time>2026-04-18T17:14:07.784Z</time></trkpt><trkpt lat="42.1133583" lon="-7.977045"><ele>892.0</ele><time>2026-04-18T17:14:08.789Z</time></trkpt><trkpt lat="42.1134233" lon="-7.9769867"><ele>892.0</ele><time>2026-04-18T17:14:09.786Z</time></trkpt><trkpt lat="42.113495" lon="-7.97694"><ele>892.0</ele><time>2026-04-18T17:14:10.785Z</time></trkpt><trkpt lat="42.1135817" lon="-7.97692"><ele>892.0</ele><time>2026-04-18T17:14:11.785Z</time></trkpt><trkpt lat="42.1136817" lon="-7.97692"><ele>892.0</ele><time>2026-04-18T17:14:12.787Z</time></trkpt><trkpt lat="42.1137933" lon="-7.9769267"><ele>892.0</ele><time>2026-04-18T17:14:13.786Z</time></trkpt><trkpt lat="42.1139067" lon="-7.9769267"><ele>892.0</ele><time>2026-04-18T17:14:14.786Z</time></trkpt><trkpt lat="42.1140233" lon="-7.9769183"><ele>892.0</ele><time>2026-04-18T17:14:15.785Z</time></trkpt><trkpt lat="42.114135" lon="-7.9769017"><ele>892.0</ele><time>2026-04-18T17:14:16.787Z</time></trkpt><trkpt lat="42.1142517" lon="-7.976885"><ele>889.0</ele><time>2026-04-18T17:14:17.784Z</time></trkpt><trkpt lat="42.1143667" lon="-7.97687"><ele>886.0</ele><time>2026-04-18T17:14:18.787Z</time></trkpt><trkpt lat="42.114485" lon="-7.9768533"><ele>883.0</ele><time>2026-04-18T17:14:19.786Z</time></trkpt><trkpt lat="42.1146033" lon="-7.9768417"><ele>880.0</ele><time>2026-04-18T17:14:20.787Z</time></trkpt><trkpt lat="42.1147233" lon="-7.9768317"><ele>880.0</ele><time>2026-04-18T17:14:21.786Z</time></trkpt><trkpt lat="42.1148417" lon="-7.976825"><ele>880.0</ele><time>2026-04-18T17:14:22.787Z</time></trkpt><trkpt lat="42.1149667" lon="-7.9768233"><ele>880.0</ele><time>2026-04-18T17:14:23.784Z</time></trkpt><trkpt lat="42.1150883" lon="-7.9768283"><ele>880.0</ele><time>2026-04-18T17:14:24.784Z</time></trkpt><trkpt lat="42.1151983" lon="-7.976835"><ele>878.4</ele><time>2026-04-18T17:14:25.787Z</time></trkpt><trkpt lat="42.1153017" lon="-7.9768367"><ele>876.8</ele><time>2026-04-18T17:14:26.788Z</time></trkpt><trkpt lat="42.1153983" lon="-7.97684"><ele>875.2</ele><time>2026-04-18T17:14:27.786Z</time></trkpt><trkpt lat="42.1154917" lon="-7.9768383"><ele>873.6</ele><time>2026-04-18T17:14:28.784Z</time></trkpt><trkpt lat="42.1155917" lon="-7.9768333"><ele>872.0</ele><time>2026-04-18T17:14:29.786Z</time></trkpt><trkpt lat="42.1156983" lon="-7.9768217"><ele>871.0</ele><time>2026-04-18T17:14:30.786Z</time></trkpt><trkpt lat="42.1158067" lon="-7.97681"><ele>870.0</ele><time>2026-04-18T17:14:31.786Z</time></trkpt><trkpt lat="42.115925" lon="-7.9768133"><ele>869.0</ele><time>2026-04-18T17:14:32.785Z</time></trkpt><trkpt lat="42.116045" lon="-7.9768233"><ele>868.0</ele><time>2026-04-18T17:14:33.786Z</time></trkpt><trkpt lat="42.1161683" lon="-7.97683"><ele>868.0</ele><time>2026-04-18T17:14:34.786Z</time></trkpt><trkpt lat="42.1162917" lon="-7.976825"><ele>868.0</ele><time>2026-04-18T17:14:35.786Z</time></trkpt><trkpt lat="42.11641" lon="-7.97681"><ele>868.0</ele><time>2026-04-18T17:14:36.784Z</time></trkpt><trkpt lat="42.116525" lon="-7.9768"><ele>868.0</ele><time>2026-04-18T17:14:37.785Z</time></trkpt><trkpt lat="42.1166333" lon="-7.9767967"><ele>867.0</ele><time>2026-04-18T17:14:38.785Z</time></trkpt><trkpt lat="42.11673" lon="-7.9768033"><ele>866.0</ele><time>2026-04-18T17:14:39.786Z</time></trkpt><trkpt lat="42.1168333" lon="-7.976805"><ele>865.0</ele><time>2026-04-18T17:14:40.785Z</time></trkpt><trkpt lat="42.1169333" lon="-7.9767933"><ele>864.0</ele><time>2026-04-18T17:14:41.787Z</time></trkpt><trkpt lat="42.1170383" lon="-7.9767817"><ele>863.0</ele><time>2026-04-18T17:14:42.786Z</time></trkpt><trkpt lat="42.1171517" lon="-7.97677"><ele>863.0</ele><time>2026-04-18T17:14:43.786Z</time></trkpt><trkpt lat="42.1172633" lon="-7.97676"><ele>863.0</ele><time>2026-04-18T17:14:44.785Z</time></trkpt><trkpt lat="42.117375" lon="-7.9767517"><ele>863.0</ele><time>2026-04-18T17:14:45.787Z</time></trkpt><trkpt lat="42.117485" lon="-7.976745"><ele>863.0</ele><time>2026-04-18T17:14:46.784Z</time></trkpt><trkpt lat="42.1176017" lon="-7.9767367"><ele>862.8</ele><time>2026-04-18T17:14:47.787Z</time></trkpt><trkpt lat="42.117715" lon="-7.9767383"><ele>862.5999999999999</ele><time>2026-04-18T17:14:48.787Z</time></trkpt><trkpt lat="42.117825" lon="-7.9767483"><ele>862.4000000000001</ele><time>2026-04-18T17:14:49.786Z</time></trkpt><trkpt lat="42.1179333" lon="-7.97676"><ele>862.2</ele><time>2026-04-18T17:14:50.788Z</time></trkpt><trkpt lat="42.1180383" lon="-7.9767683"><ele>862.0</ele><time>2026-04-18T17:14:51.788Z</time></trkpt><trkpt lat="42.1181433" lon="-7.9767733"><ele>861.4000000000001</ele><time>2026-04-18T17:14:52.786Z</time></trkpt><trkpt lat="42.1182467" lon="-7.976775"><ele>860.8000000000001</ele><time>2026-04-18T17:14:53.787Z</time></trkpt><trkpt lat="42.118345" lon="-7.9767683"><ele>860.2</ele><time>2026-04-18T17:14:54.786Z</time></trkpt><trkpt lat="42.1184317" lon="-7.9767583"><ele>859.6</ele><time>2026-04-18T17:14:55.786Z</time></trkpt><trkpt lat="42.1185183" lon="-7.976745"><ele>859.0</ele><time>2026-04-18T17:14:56.787Z</time></trkpt><trkpt lat="42.1186083" lon="-7.9767367"><ele>859.0</ele><time>2026-04-18T17:14:57.787Z</time></trkpt><trkpt lat="42.1187017" lon="-7.976725"><ele>859.0000000000001</ele><time>2026-04-18T17:14:58.786Z</time></trkpt><trkpt lat="42.1188017" lon="-7.9767167"><ele>859.0000000000001</ele><time>2026-04-18T17:14:59.788Z</time></trkpt><trkpt lat="42.11891" lon="-7.97671"><ele>859.0</ele><time>2026-04-18T17:15:00.787Z</time></trkpt><trkpt lat="42.1190233" lon="-7.9767083"><ele>859.0</ele><time>2026-04-18T17:15:01.787Z</time></trkpt><trkpt lat="42.1191367" lon="-7.976705"><ele>857.75</ele><time>2026-04-18T17:15:02.787Z</time></trkpt><trkpt lat="42.1192517" lon="-7.976695"><ele>856.5</ele><time>2026-04-18T17:15:03.787Z</time></trkpt><trkpt lat="42.1193717" lon="-7.976685"><ele>855.25</ele><time>2026-04-18T17:15:04.787Z</time></trkpt><trkpt lat="42.1194933" lon="-7.97668"><ele>854.0</ele><time>2026-04-18T17:15:05.786Z</time></trkpt><trkpt lat="42.11962" lon="-7.9766767"><ele>852.75</ele><time>2026-04-18T17:15:06.786Z</time></trkpt><trkpt lat="42.119745" lon="-7.9766683"><ele>851.5</ele><time>2026-04-18T17:15:07.786Z</time></trkpt><trkpt lat="42.11987" lon="-7.9766567"><ele>850.25</ele><time>2026-04-18T17:15:08.787Z</time></trkpt><trkpt lat="42.119995" lon="-7.976645"><ele>849.0</ele><time>2026-04-18T17:15:09.786Z</time></trkpt><trkpt lat="42.1201117" lon="-7.97664"><ele>849.0</ele><time>2026-04-18T17:15:10.786Z</time></trkpt><trkpt lat="42.1202067" lon="-7.9766383"><ele>849.0</ele><time>2026-04-18T17:15:11.787Z</time></trkpt><trkpt lat="42.1202883" lon="-7.9766417"><ele>849.0</ele><time>2026-04-18T17:15:12.784Z</time></trkpt><trkpt lat="42.1203633" lon="-7.9766633"><ele>849.0</ele><time>2026-04-18T17:15:13.786Z</time></trkpt><trkpt lat="42.12043" lon="-7.976705"><ele>849.0</ele><time>2026-04-18T17:15:14.787Z</time></trkpt><trkpt lat="42.1205" lon="-7.9767633"><ele>849.0</ele><time>2026-04-18T17:15:15.787Z</time></trkpt><trkpt lat="42.1205767" lon="-7.9768183"><ele>849.0</ele><time>2026-04-18T17:15:16.787Z</time></trkpt><trkpt lat="42.1206483" lon="-7.97687"><ele>849.0</ele><time>2026-04-18T17:15:17.787Z</time></trkpt><trkpt lat="42.1207167" lon="-7.9769"><ele>849.0</ele><time>2026-04-18T17:15:18.783Z</time></trkpt><trkpt lat="42.1207883" lon="-7.9768983"><ele>849.0</ele><time>2026-04-18T17:15:19.784Z</time></trkpt><trkpt lat="42.120855" lon="-7.9768683"><ele>849.0</ele><time>2026-04-18T17:15:20.786Z</time></trkpt><trkpt lat="42.1209283" lon="-7.9768167"><ele>849.0</ele><time>2026-04-18T17:15:22.785Z</time></trkpt><trkpt lat="42.1210067" lon="-7.9767433"><ele>848.6</ele><time>2026-04-18T17:15:25.785Z</time></trkpt><trkpt lat="42.121095" lon="-7.9767317"><ele>848.2</ele><time>2026-04-18T17:15:27.786Z</time></trkpt><trkpt lat="42.121215" lon="-7.9767033"><ele>847.8000000000001</ele><time>2026-04-18T17:15:29.786Z</time></trkpt><trkpt lat="42.12129" lon="-7.9766683"><ele>847.4000000000001</ele><time>2026-04-18T17:15:30.789Z</time></trkpt><trkpt lat="42.1213667" lon="-7.9766167"><ele>847.0</ele><time>2026-04-18T17:15:31.787Z</time></trkpt><trkpt lat="42.12145" lon="-7.9765717"><ele>846.2</ele><time>2026-04-18T17:15:32.787Z</time></trkpt><trkpt lat="42.1215417" lon="-7.9765467"><ele>845.4000000000001</ele><time>2026-04-18T17:15:33.786Z</time></trkpt><trkpt lat="42.12164" lon="-7.9765533"><ele>844.5999999999999</ele><time>2026-04-18T17:15:34.787Z</time></trkpt><trkpt lat="42.121735" lon="-7.9765567"><ele>843.8</ele><time>2026-04-18T17:15:35.787Z</time></trkpt><trkpt lat="42.1218283" lon="-7.9765533"><ele>843.0</ele><time>2026-04-18T17:15:36.786Z</time></trkpt><trkpt lat="42.1219283" lon="-7.97655"><ele>842.0</ele><time>2026-04-18T17:15:37.787Z</time></trkpt><trkpt lat="42.1220167" lon="-7.9765483"><ele>841.0</ele><time>2026-04-18T17:15:38.787Z</time></trkpt><trkpt lat="42.1221017" lon="-7.976545"><ele>840.0</ele><time>2026-04-18T17:15:39.787Z</time></trkpt><trkpt lat="42.1221867" lon="-7.9765383"><ele>839.0</ele><time>2026-04-18T17:15:40.786Z</time></trkpt><trkpt lat="42.122285" lon="-7.97653"><ele>838.0</ele><time>2026-04-18T17:15:41.783Z</time></trkpt><trkpt lat="42.1223967" lon="-7.97652"><ele>836.5</ele><time>2026-04-18T17:15:42.787Z</time></trkpt><trkpt lat="42.122525" lon="-7.9765033"><ele>835.0</ele><time>2026-04-18T17:15:43.787Z</time></trkpt><trkpt lat="42.12266" lon="-7.9764817"><ele>833.5</ele><time>2026-04-18T17:15:44.787Z</time></trkpt><trkpt lat="42.122785" lon="-7.9764633"><ele>832.0</ele><time>2026-04-18T17:15:45.787Z</time></trkpt><trkpt lat="42.1228967" lon="-7.9764467"><ele>832.0</ele><time>2026-04-18T17:15:46.786Z</time></trkpt><trkpt lat="42.1229933" lon="-7.976425"><ele>832.0</ele><time>2026-04-18T17:15:47.786Z</time></trkpt><trkpt lat="42.1230683" lon="-7.9764"><ele>832.0</ele><time>2026-04-18T17:15:48.785Z</time></trkpt><trkpt lat="42.1231817" lon="-7.9763283"><ele>832.0</ele><time>2026-04-18T17:15:50.785Z</time></trkpt><trkpt lat="42.1232667" lon="-7.9762617"><ele>832.0</ele><time>2026-04-18T17:15:52.785Z</time></trkpt><trkpt lat="42.1233517" lon="-7.97614"><ele>832.2</ele><time>2026-04-18T17:15:54.786Z</time></trkpt><trkpt lat="42.1234117" lon="-7.9760483"><ele>832.4000000000001</ele><time>2026-04-18T17:15:55.786Z</time></trkpt><trkpt lat="42.1234683" lon="-7.9759467"><ele>832.5999999999999</ele><time>2026-04-18T17:15:56.785Z</time></trkpt><trkpt lat="42.1235167" lon="-7.9758417"><ele>832.8</ele><time>2026-04-18T17:15:57.786Z</time></trkpt><trkpt lat="42.123565" lon="-7.9757433"><ele>833.0</ele><time>2026-04-18T17:15:58.786Z</time></trkpt><trkpt lat="42.1236133" lon="-7.975645"><ele>833.0</ele><time>2026-04-18T17:15:59.787Z</time></trkpt><trkpt lat="42.1236583" lon="-7.9755433"><ele>833.0</ele><time>2026-04-18T17:16:00.787Z</time></trkpt><trkpt lat="42.123705" lon="-7.975435"><ele>833.0</ele><time>2026-04-18T17:16:01.786Z</time></trkpt><trkpt lat="42.1237533" lon="-7.9753233"><ele>833.0</ele><time>2026-04-18T17:16:02.787Z</time></trkpt><trkpt lat="42.1238" lon="-7.97521"><ele>833.0</ele><time>2026-04-18T17:16:03.787Z</time></trkpt><trkpt lat="42.1238533" lon="-7.9750917"><ele>833.4</ele><time>2026-04-18T17:16:04.787Z</time></trkpt><trkpt lat="42.1239067" lon="-7.9749767"><ele>833.8</ele><time>2026-04-18T17:16:05.786Z</time></trkpt><trkpt lat="42.1239633" lon="-7.9748617"><ele>834.2</ele><time>2026-04-18T17:16:06.787Z</time></trkpt><trkpt lat="42.1240317" lon="-7.974745"><ele>834.6</ele><time>2026-04-18T17:16:07.788Z</time></trkpt><trkpt lat="42.1241" lon="-7.9746267"><ele>835.0</ele><time>2026-04-18T17:16:08.787Z</time></trkpt><trkpt lat="42.124175" lon="-7.9745133"><ele>835.0</ele><time>2026-04-18T17:16:09.786Z</time></trkpt><trkpt lat="42.1242467" lon="-7.974405"><ele>835.0</ele><time>2026-04-18T17:16:10.786Z</time></trkpt><trkpt lat="42.124315" lon="-7.9743033"><ele>835.0</ele><time>2026-04-18T17:16:11.787Z</time></trkpt><trkpt lat="42.1243867" lon="-7.9742033"><ele>835.0</ele><time>2026-04-18T17:16:12.786Z</time></trkpt><trkpt lat="42.1244633" lon="-7.974095"><ele>835.0</ele><time>2026-04-18T17:16:13.786Z</time></trkpt><trkpt lat="42.12454" lon="-7.973985"><ele>834.75</ele><time>2026-04-18T17:16:14.786Z</time></trkpt><trkpt lat="42.1246233" lon="-7.973875"><ele>834.5</ele><time>2026-04-18T17:16:15.786Z</time></trkpt><trkpt lat="42.1247117" lon="-7.973765"><ele>834.25</ele><time>2026-04-18T17:16:16.785Z</time></trkpt><trkpt lat="42.1247983" lon="-7.9736433"><ele>834.0</ele><time>2026-04-18T17:16:17.786Z</time></trkpt><trkpt lat="42.124885" lon="-7.97352"><ele>834.0</ele><time>2026-04-18T17:16:18.785Z</time></trkpt><trkpt lat="42.1249717" lon="-7.9734083"><ele>834.0</ele><time>2026-04-18T17:16:19.785Z</time></trkpt><trkpt lat="42.12506" lon="-7.973295"><ele>834.0</ele><time>2026-04-18T17:16:20.786Z</time></trkpt><trkpt lat="42.1251483" lon="-7.9731783"><ele>834.0</ele><time>2026-04-18T17:16:21.786Z</time></trkpt><trkpt lat="42.1252333" lon="-7.9730667"><ele>834.0</ele><time>2026-04-18T17:16:22.784Z</time></trkpt><trkpt lat="42.1253183" lon="-7.9729533"><ele>834.0</ele><time>2026-04-18T17:16:23.785Z</time></trkpt><trkpt lat="42.1254" lon="-7.9728383"><ele>834.0</ele><time>2026-04-18T17:16:24.784Z</time></trkpt><trkpt lat="42.1254833" lon="-7.9727267"><ele>834.0</ele><time>2026-04-18T17:16:25.784Z</time></trkpt><trkpt lat="42.1255683" lon="-7.972615"><ele>834.25</ele><time>2026-04-18T17:16:26.784Z</time></trkpt><trkpt lat="42.1256483" lon="-7.97251"><ele>834.5</ele><time>2026-04-18T17:16:27.786Z</time></trkpt><trkpt lat="42.12573" lon="-7.972405"><ele>834.75</ele><time>2026-04-18T17:16:28.786Z</time></trkpt><trkpt lat="42.125815" lon="-7.9722983"><ele>835.0</ele><time>2026-04-18T17:16:29.787Z</time></trkpt><trkpt lat="42.1258967" lon="-7.9721867"><ele>835.5</ele><time>2026-04-18T17:16:30.786Z</time></trkpt><trkpt lat="42.1259767" lon="-7.972075"><ele>836.0</ele><time>2026-04-18T17:16:31.787Z</time></trkpt><trkpt lat="42.1260567" lon="-7.9719617"><ele>836.5</ele><time>2026-04-18T17:16:32.787Z</time></trkpt><trkpt lat="42.126135" lon="-7.9718517"><ele>837.0</ele><time>2026-04-18T17:16:33.786Z</time></trkpt><trkpt lat="42.1262117" lon="-7.97175"><ele>837.1666666666666</ele><time>2026-04-18T17:16:34.786Z</time></trkpt><trkpt lat="42.126275" lon="-7.9716533"><ele>837.3333333333333</ele><time>2026-04-18T17:16:35.786Z</time></trkpt><trkpt lat="42.126335" lon="-7.971565"><ele>837.5</ele><time>2026-04-18T17:16:36.787Z</time></trkpt><trkpt lat="42.1263883" lon="-7.9714867"><ele>837.6666666666666</ele><time>2026-04-18T17:16:37.786Z</time></trkpt><trkpt lat="42.12644" lon="-7.9714133"><ele>837.8333333333333</ele><time>2026-04-18T17:16:38.787Z</time></trkpt><trkpt lat="42.126495" lon="-7.9713233"><ele>838.0</ele><time>2026-04-18T17:16:39.787Z</time></trkpt><trkpt lat="42.1265467" lon="-7.971235"><ele>837.9999999999999</ele><time>2026-04-18T17:16:40.786Z</time></trkpt><trkpt lat="42.12659" lon="-7.9711367"><ele>838.0</ele><time>2026-04-18T17:16:41.787Z</time></trkpt><trkpt lat="42.12663" lon="-7.97103"><ele>838.0</ele><time>2026-04-18T17:16:42.787Z</time></trkpt><trkpt lat="42.1266617" lon="-7.970915"><ele>838.0</ele><time>2026-04-18T17:16:43.787Z</time></trkpt><trkpt lat="42.126685" lon="-7.9707967"><ele>837.9999999999999</ele><time>2026-04-18T17:16:44.787Z</time></trkpt><trkpt lat="42.12671" lon="-7.9706883"><ele>838.0</ele><time>2026-04-18T17:16:45.786Z</time></trkpt><trkpt lat="42.12673" lon="-7.9705833"><ele>837.8571428571428</ele><time>2026-04-18T17:16:46.784Z</time></trkpt><trkpt lat="42.1267483" lon="-7.9704833"><ele>837.7142857142857</ele><time>2026-04-18T17:16:47.785Z</time></trkpt><trkpt lat="42.1267667" lon="-7.9703867"><ele>837.5714285714286</ele><time>2026-04-18T17:16:48.785Z</time></trkpt><trkpt lat="42.1267767" lon="-7.9703017"><ele>837.4285714285713</ele><time>2026-04-18T17:16:49.785Z</time></trkpt><trkpt lat="42.126795" lon="-7.9701783"><ele>837.2857142857143</ele><time>2026-04-18T17:16:51.785Z</time></trkpt><trkpt lat="42.1268033" lon="-7.9700917"><ele>837.1428571428571</ele><time>2026-04-18T17:16:53.784Z</time></trkpt><trkpt lat="42.1268283" lon="-7.97"><ele>837.0</ele><time>2026-04-18T17:16:57.786Z</time></trkpt><trkpt lat="42.1269133" lon="-7.9699967"><ele>837.0</ele><time>2026-04-18T17:17:00.787Z</time></trkpt><trkpt lat="42.127005" lon="-7.97003"><ele>837.0</ele><time>2026-04-18T17:17:02.787Z</time></trkpt><trkpt lat="42.1271283" lon="-7.970065"><ele>837.0</ele><time>2026-04-18T17:17:04.787Z</time></trkpt><trkpt lat="42.1272017" lon="-7.9700817"><ele>837.0</ele><time>2026-04-18T17:17:05.787Z</time></trkpt><trkpt lat="42.1272817" lon="-7.970085"><ele>837.0</ele><time>2026-04-18T17:17:06.785Z</time></trkpt><trkpt lat="42.1273667" lon="-7.970075"><ele>838.4000000000001</ele><time>2026-04-18T17:17:07.786Z</time></trkpt><trkpt lat="42.1274667" lon="-7.9700583"><ele>839.8000000000001</ele><time>2026-04-18T17:17:08.785Z</time></trkpt><trkpt lat="42.12757" lon="-7.9700267"><ele>841.2</ele><time>2026-04-18T17:17:09.786Z</time></trkpt><trkpt lat="42.1276683" lon="-7.9699883"><ele>842.6</ele><time>2026-04-18T17:17:10.786Z</time></trkpt><trkpt lat="42.127765" lon="-7.96994"><ele>844.0</ele><time>2026-04-18T17:17:11.787Z</time></trkpt><trkpt lat="42.1278583" lon="-7.9698717"><ele>844.0</ele><time>2026-04-18T17:17:12.787Z</time></trkpt><trkpt lat="42.1279467" lon="-7.9698017"><ele>844.0</ele><time>2026-04-18T17:17:13.787Z</time></trkpt><trkpt lat="42.1280233" lon="-7.96972"><ele>844.0</ele><time>2026-04-18T17:17:14.787Z</time></trkpt><trkpt lat="42.1281067" lon="-7.9696367"><ele>844.0</ele><time>2026-04-18T17:17:15.787Z</time></trkpt><trkpt lat="42.1281983" lon="-7.96957"><ele>844.0</ele><time>2026-04-18T17:17:16.785Z</time></trkpt><trkpt lat="42.1283" lon="-7.9695117"><ele>844.4000000000001</ele><time>2026-04-18T17:17:17.784Z</time></trkpt><trkpt lat="42.12841" lon="-7.969465"><ele>844.8</ele><time>2026-04-18T17:17:18.784Z</time></trkpt><trkpt lat="42.128525" lon="-7.9694283"><ele>845.2</ele><time>2026-04-18T17:17:19.784Z</time></trkpt><trkpt lat="42.12863" lon="-7.9694"><ele>845.5999999999999</ele><time>2026-04-18T17:17:20.786Z</time></trkpt><trkpt lat="42.1287267" lon="-7.9693633"><ele>846.0</ele><time>2026-04-18T17:17:21.785Z</time></trkpt><trkpt lat="42.1288133" lon="-7.9693317"><ele>846.0</ele><time>2026-04-18T17:17:22.785Z</time></trkpt><trkpt lat="42.1288917" lon="-7.9693017"><ele>846.0</ele><time>2026-04-18T17:17:23.784Z</time></trkpt><trkpt lat="42.12897" lon="-7.9692633"><ele>846.0</ele><time>2026-04-18T17:17:24.787Z</time></trkpt><trkpt lat="42.1290433" lon="-7.9692333"><ele>846.0</ele><time>2026-04-18T17:17:25.786Z</time></trkpt><trkpt lat="42.12912" lon="-7.9692083"><ele>846.0</ele><time>2026-04-18T17:17:26.787Z</time></trkpt><trkpt lat="42.129195" lon="-7.96918"><ele>846.0</ele><time>2026-04-18T17:17:27.787Z</time></trkpt><trkpt lat="42.1292633" lon="-7.9691517"><ele>842.8333333333334</ele><time>2026-04-18T17:17:28.786Z</time></trkpt><trkpt lat="42.1293267" lon="-7.969135"><ele>839.6666666666667</ele><time>2026-04-18T17:17:29.786Z</time></trkpt><trkpt lat="42.1294433" lon="-7.9691033"><ele>836.5</ele><time>2026-04-18T17:17:31.786Z</time></trkpt><trkpt lat="42.1295667" lon="-7.9690883"><ele>833.3333333333334</ele><time>2026-04-18T17:17:33.787Z</time></trkpt><trkpt lat="42.1296317" lon="-7.9690783"><ele>830.1666666666667</ele><time>2026-04-18T17:17:34.787Z</time></trkpt><trkpt lat="42.1297017" lon="-7.9690483"><ele>827.0</ele><time>2026-04-18T17:17:35.786Z</time></trkpt><trkpt lat="42.12979" lon="-7.9690067"><ele>824.4000000000001</ele><time>2026-04-18T17:17:36.787Z</time></trkpt><trkpt lat="42.1298983" lon="-7.96896"><ele>821.8000000000001</ele><time>2026-04-18T17:17:37.787Z</time></trkpt><trkpt lat="42.1300033" lon="-7.968915"><ele>819.2</ele><time>2026-04-18T17:17:38.787Z</time></trkpt><trkpt lat="42.1300983" lon="-7.9688767"><ele>816.6</ele><time>2026-04-18T17:17:39.786Z</time></trkpt><trkpt lat="42.130175" lon="-7.96884"><ele>814.0</ele><time>2026-04-18T17:17:40.787Z</time></trkpt><trkpt lat="42.1302367" lon="-7.9688033"><ele>814.0</ele><time>2026-04-18T17:17:41.787Z</time></trkpt><trkpt lat="42.130315" lon="-7.96873"><ele>814.0</ele><time>2026-04-18T17:17:43.786Z</time></trkpt><trkpt lat="42.13038" lon="-7.968645"><ele>814.0</ele><time>2026-04-18T17:17:45.787Z</time></trkpt><trkpt lat="42.130435" lon="-7.968525"><ele>814.0</ele><time>2026-04-18T17:17:47.786Z</time></trkpt><trkpt lat="42.130435" lon="-7.9683833"><ele>814.0</ele><time>2026-04-18T17:17:49.785Z</time></trkpt><trkpt lat="42.130375" lon="-7.9682183"><ele>812.6</ele><time>2026-04-18T17:17:51.785Z</time></trkpt><trkpt lat="42.13035" lon="-7.9681133"><ele>811.2</ele><time>2026-04-18T17:17:52.785Z</time></trkpt><trkpt lat="42.1303367" lon="-7.9679667"><ele>809.8000000000001</ele><time>2026-04-18T17:17:53.784Z</time></trkpt><trkpt lat="42.1303217" lon="-7.9678233"><ele>808.4000000000001</ele><time>2026-04-18T17:17:54.788Z</time></trkpt><trkpt lat="42.1303067" lon="-7.9676867"><ele>807.0</ele><time>2026-04-18T17:17:55.786Z</time></trkpt><trkpt lat="42.130295" lon="-7.96757"><ele>806.6</ele><time>2026-04-18T17:17:56.787Z</time></trkpt><trkpt lat="42.1302733" lon="-7.9674583"><ele>806.2</ele><time>2026-04-18T17:17:57.786Z</time></trkpt><trkpt lat="42.1302467" lon="-7.96733"><ele>805.8</ele><time>2026-04-18T17:17:58.786Z</time></trkpt><trkpt lat="42.130215" lon="-7.96719"><ele>805.4</ele><time>2026-04-18T17:17:59.785Z</time></trkpt><trkpt lat="42.1301883" lon="-7.967055"><ele>805.0</ele><time>2026-04-18T17:18:00.786Z</time></trkpt><trkpt lat="42.1301583" lon="-7.9669283"><ele>805.0</ele><time>2026-04-18T17:18:01.787Z</time></trkpt><trkpt lat="42.1301283" lon="-7.9668083"><ele>805.0</ele><time>2026-04-18T17:18:02.787Z</time></trkpt><trkpt lat="42.1301" lon="-7.9666867"><ele>805.0</ele><time>2026-04-18T17:18:03.786Z</time></trkpt><trkpt lat="42.1300717" lon="-7.9665667"><ele>805.0</ele><time>2026-04-18T17:18:04.787Z</time></trkpt><trkpt lat="42.13004" lon="-7.96645"><ele>805.0</ele><time>2026-04-18T17:18:05.784Z</time></trkpt><trkpt lat="42.1300217" lon="-7.9663433"><ele>803.9999999999999</ele><time>2026-04-18T17:18:06.787Z</time></trkpt><trkpt lat="42.1300117" lon="-7.9662367"><ele>803.0</ele><time>2026-04-18T17:18:07.787Z</time></trkpt><trkpt lat="42.130015" lon="-7.9661433"><ele>802.0</ele><time>2026-04-18T17:18:08.787Z</time></trkpt><trkpt lat="42.1300333" lon="-7.96606"><ele>801.0</ele><time>2026-04-18T17:18:09.786Z</time></trkpt><trkpt lat="42.1300633" lon="-7.9659167"><ele>799.9999999999999</ele><time>2026-04-18T17:18:11.785Z</time></trkpt><trkpt lat="42.130045" lon="-7.965765"><ele>799.0</ele><time>2026-04-18T17:18:13.785Z</time></trkpt><trkpt lat="42.1300217" lon="-7.965675"><ele>798.8333333333333</ele><time>2026-04-18T17:18:14.787Z</time></trkpt><trkpt lat="42.1299983" lon="-7.9655717"><ele>798.6666666666666</ele><time>2026-04-18T17:18:15.786Z</time></trkpt><trkpt lat="42.1299833" lon="-7.9654667"><ele>798.5</ele><time>2026-04-18T17:18:16.787Z</time></trkpt><trkpt lat="42.1299733" lon="-7.9653733"><ele>798.3333333333333</ele><time>2026-04-18T17:18:17.787Z</time></trkpt><trkpt lat="42.129965" lon="-7.965275"><ele>798.1666666666666</ele><time>2026-04-18T17:18:18.787Z</time></trkpt><trkpt lat="42.129955" lon="-7.9651717"><ele>798.0</ele><time>2026-04-18T17:18:19.788Z</time></trkpt><trkpt lat="42.1299383" lon="-7.9650567"><ele>797.1666666666666</ele><time>2026-04-18T17:18:20.787Z</time></trkpt><trkpt lat="42.1299167" lon="-7.964935"><ele>796.3333333333333</ele><time>2026-04-18T17:18:21.786Z</time></trkpt><trkpt lat="42.129895" lon="-7.9648283"><ele>795.5</ele><time>2026-04-18T17:18:22.786Z</time></trkpt><trkpt lat="42.129875" lon="-7.9647367"><ele>794.6666666666666</ele><time>2026-04-18T17:18:23.785Z</time></trkpt><trkpt lat="42.1298617" lon="-7.9646533"><ele>793.8333333333333</ele><time>2026-04-18T17:18:24.787Z</time></trkpt><trkpt lat="42.1298483" lon="-7.9645617"><ele>793.0</ele><time>2026-04-18T17:18:25.787Z</time></trkpt><trkpt lat="42.1298283" lon="-7.9644567"><ele>793.4999999999999</ele><time>2026-04-18T17:18:26.787Z</time></trkpt><trkpt lat="42.1298067" lon="-7.9643617"><ele>794.0</ele><time>2026-04-18T17:18:27.786Z</time></trkpt><trkpt lat="42.12977" lon="-7.9642617"><ele>794.5</ele><time>2026-04-18T17:18:29.785Z</time></trkpt><trkpt lat="42.1297233" lon="-7.9641617"><ele>795.0</ele><time>2026-04-18T17:18:32.791Z</time></trkpt><trkpt lat="42.1296733" lon="-7.9641"><ele>795.4999999999999</ele><time>2026-04-18T17:18:34.787Z</time></trkpt><trkpt lat="42.129635" lon="-7.96401"><ele>796.0</ele><time>2026-04-18T17:18:36.787Z</time></trkpt><trkpt lat="42.1296017" lon="-7.9638583"><ele>795.9999999999999</ele><time>2026-04-18T17:18:38.787Z</time></trkpt><trkpt lat="42.1295833" lon="-7.9637533"><ele>796.0</ele><time>2026-04-18T17:18:39.787Z</time></trkpt><trkpt lat="42.1295583" lon="-7.9636317"><ele>796.0</ele><time>2026-04-18T17:18:40.786Z</time></trkpt><trkpt lat="42.1295317" lon="-7.9635133"><ele>796.0</ele><time>2026-04-18T17:18:41.788Z</time></trkpt><trkpt lat="42.129505" lon="-7.9633983"><ele>795.9999999999999</ele><time>2026-04-18T17:18:42.787Z</time></trkpt><trkpt lat="42.1294917" lon="-7.9632833"><ele>796.0</ele><time>2026-04-18T17:18:43.787Z</time></trkpt><trkpt lat="42.129495" lon="-7.963165"><ele>794.6666666666666</ele><time>2026-04-18T17:18:44.787Z</time></trkpt><trkpt lat="42.1295133" lon="-7.9630467"><ele>793.3333333333333</ele><time>2026-04-18T17:18:45.787Z</time></trkpt><trkpt lat="42.1295333" lon="-7.96294"><ele>792.0</ele><time>2026-04-18T17:18:46.787Z</time></trkpt><trkpt lat="42.1295433" lon="-7.9628517"><ele>790.6666666666667</ele><time>2026-04-18T17:18:47.787Z</time></trkpt><trkpt lat="42.1295183" lon="-7.9627"><ele>789.3333333333334</ele><time>2026-04-18T17:18:49.787Z</time></trkpt><trkpt lat="42.129485" lon="-7.9626217"><ele>788.0</ele><time>2026-04-18T17:18:50.787Z</time></trkpt><trkpt lat="42.1294517" lon="-7.9625467"><ele>787.2</ele><time>2026-04-18T17:18:51.787Z</time></trkpt><trkpt lat="42.1293917" lon="-7.9624167"><ele>786.4</ele><time>2026-04-18T17:18:53.788Z</time></trkpt><trkpt lat="42.1294167" lon="-7.96231"><ele>785.6</ele><time>2026-04-18T17:18:56.786Z</time></trkpt><trkpt lat="42.1295383" lon="-7.96228"><ele>784.8000000000001</ele><time>2026-04-18T17:18:58.787Z</time></trkpt><trkpt lat="42.129645" lon="-7.9622683"><ele>784.0</ele><time>2026-04-18T17:18:59.788Z</time></trkpt><trkpt lat="42.12976" lon="-7.9622433"><ele>784.0</ele><time>2026-04-18T17:19:00.786Z</time></trkpt><trkpt lat="42.1298583" lon="-7.96222"><ele>784.0</ele><time>2026-04-18T17:19:01.787Z</time></trkpt><trkpt lat="42.129955" lon="-7.9621933"><ele>784.0</ele><time>2026-04-18T17:19:02.787Z</time></trkpt><trkpt lat="42.130055" lon="-7.9621667"><ele>784.0</ele><time>2026-04-18T17:19:03.786Z</time></trkpt><trkpt lat="42.1301583" lon="-7.9621417"><ele>784.0</ele><time>2026-04-18T17:19:04.786Z</time></trkpt><trkpt lat="42.1302733" lon="-7.9621117"><ele>783.0</ele><time>2026-04-18T17:19:05.787Z</time></trkpt><trkpt lat="42.130385" lon="-7.9620833"><ele>782.0</ele><time>2026-04-18T17:19:06.786Z</time></trkpt><trkpt lat="42.1304867" lon="-7.962065"><ele>781.0</ele><time>2026-04-18T17:19:07.787Z</time></trkpt><trkpt lat="42.1305767" lon="-7.9620517"><ele>780.0</ele><time>2026-04-18T17:19:08.787Z</time></trkpt><trkpt lat="42.1306583" lon="-7.962045"><ele>779.0</ele><time>2026-04-18T17:19:09.787Z</time></trkpt><trkpt lat="42.1307333" lon="-7.9620517"><ele>777.0000000000001</ele><time>2026-04-18T17:19:10.786Z</time></trkpt><trkpt lat="42.1308" lon="-7.962075"><ele>775.0</ele><time>2026-04-18T17:19:11.787Z</time></trkpt><trkpt lat="42.1308567" lon="-7.9621217"><ele>773.0</ele><time>2026-04-18T17:19:12.786Z</time></trkpt><trkpt lat="42.13092" lon="-7.9622"><ele>771.0</ele><time>2026-04-18T17:19:13.786Z</time></trkpt><trkpt lat="42.1309967" lon="-7.9622667"><ele>769.0</ele><time>2026-04-18T17:19:14.786Z</time></trkpt><trkpt lat="42.13108" lon="-7.9623233"><ele>767.0</ele><time>2026-04-18T17:19:15.786Z</time></trkpt><trkpt lat="42.131175" lon="-7.9623517"><ele>767.0</ele><time>2026-04-18T17:19:16.786Z</time></trkpt><trkpt lat="42.1312733" lon="-7.96237"><ele>767.0</ele><time>2026-04-18T17:19:17.784Z</time></trkpt><trkpt lat="42.1313667" lon="-7.962395"><ele>767.0</ele><time>2026-04-18T17:19:18.787Z</time></trkpt><trkpt lat="42.1314583" lon="-7.9624217"><ele>767.0</ele><time>2026-04-18T17:19:19.786Z</time></trkpt><trkpt lat="42.1315533" lon="-7.9624383"><ele>767.0</ele><time>2026-04-18T17:19:20.787Z</time></trkpt><trkpt lat="42.13165" lon="-7.9624417"><ele>766.0</ele><time>2026-04-18T17:19:21.788Z</time></trkpt><trkpt lat="42.13173" lon="-7.96245"><ele>765.0</ele><time>2026-04-18T17:19:22.787Z</time></trkpt><trkpt lat="42.1318033" lon="-7.962475"><ele>764.0</ele><time>2026-04-18T17:19:23.786Z</time></trkpt><trkpt lat="42.131885" lon="-7.96251"><ele>763.0</ele><time>2026-04-18T17:19:24.785Z</time></trkpt><trkpt lat="42.1319667" lon="-7.96254"><ele>762.0</ele><time>2026-04-18T17:19:25.788Z</time></trkpt><trkpt lat="42.1320433" lon="-7.96256"><ele>761.0</ele><time>2026-04-18T17:19:26.787Z</time></trkpt><trkpt lat="42.1321217" lon="-7.9625783"><ele>760.8333333333333</ele><time>2026-04-18T17:19:27.786Z</time></trkpt><trkpt lat="42.1322033" lon="-7.9625983"><ele>760.6666666666666</ele><time>2026-04-18T17:19:28.786Z</time></trkpt><trkpt lat="42.1322867" lon="-7.962615"><ele>760.5</ele><time>2026-04-18T17:19:29.785Z</time></trkpt><trkpt lat="42.1323667" lon="-7.9626283"><ele>760.3333333333334</ele><time>2026-04-18T17:19:30.787Z</time></trkpt><trkpt lat="42.1324467" lon="-7.9626417"><ele>760.1666666666667</ele><time>2026-04-18T17:19:31.787Z</time></trkpt><trkpt lat="42.1325283" lon="-7.9626483"><ele>760.0</ele><time>2026-04-18T17:19:32.787Z</time></trkpt><trkpt lat="42.1326033" lon="-7.96264"><ele>758.8571428571429</ele><time>2026-04-18T17:19:33.785Z</time></trkpt><trkpt lat="42.1326717" lon="-7.962625"><ele>757.7142857142858</ele><time>2026-04-18T17:19:34.787Z</time></trkpt><trkpt lat="42.132745" lon="-7.96261"><ele>756.5714285714286</ele><time>2026-04-18T17:19:35.787Z</time></trkpt><trkpt lat="42.1328267" lon="-7.9625933"><ele>755.4285714285714</ele><time>2026-04-18T17:19:36.785Z</time></trkpt><trkpt lat="42.1329033" lon="-7.9625667"><ele>754.2857142857142</ele><time>2026-04-18T17:19:37.784Z</time></trkpt><trkpt lat="42.1329733" lon="-7.96253"><ele>753.1428571428571</ele><time>2026-04-18T17:19:38.787Z</time></trkpt><trkpt lat="42.1330267" lon="-7.9624783"><ele>752.0</ele><time>2026-04-18T17:19:39.787Z</time></trkpt><trkpt lat="42.1330783" lon="-7.96242"><ele>752.0</ele><time>2026-04-18T17:19:40.788Z</time></trkpt><trkpt lat="42.133135" lon="-7.96236"><ele>752.0</ele><time>2026-04-18T17:19:41.787Z</time></trkpt><trkpt lat="42.1332083" lon="-7.9623167"><ele>752.0</ele><time>2026-04-18T17:19:42.787Z</time></trkpt><trkpt lat="42.1333" lon="-7.9622883"><ele>752.0</ele><time>2026-04-18T17:19:43.788Z</time></trkpt><trkpt lat="42.13339" lon="-7.962295"><ele>752.0</ele><time>2026-04-18T17:19:44.787Z</time></trkpt><trkpt lat="42.1334783" lon="-7.9623017"><ele>752.0</ele><time>2026-04-18T17:19:45.786Z</time></trkpt><trkpt lat="42.133555" lon="-7.9623033"><ele>749.6</ele><time>2026-04-18T17:19:46.786Z</time></trkpt><trkpt lat="42.1336267" lon="-7.96229"><ele>747.2</ele><time>2026-04-18T17:19:47.787Z</time></trkpt><trkpt lat="42.1336883" lon="-7.96227"><ele>744.8</ele><time>2026-04-18T17:19:48.786Z</time></trkpt><trkpt lat="42.1338067" lon="-7.9622317"><ele>742.4</ele><time>2026-04-18T17:19:50.787Z</time></trkpt><trkpt lat="42.1339233" lon="-7.9621967"><ele>740.0</ele><time>2026-04-18T17:19:52.784Z</time></trkpt><trkpt lat="42.134015" lon="-7.962105"><ele>738.8</ele><time>2026-04-18T17:19:54.787Z</time></trkpt><trkpt lat="42.134065" lon="-7.962"><ele>737.6</ele><time>2026-04-18T17:19:56.786Z</time></trkpt><trkpt lat="42.134135" lon="-7.96188"><ele>736.4000000000001</ele><time>2026-04-18T17:19:58.786Z</time></trkpt><trkpt lat="42.1341883" lon="-7.96182"><ele>735.2</ele><time>2026-04-18T17:19:59.787Z</time></trkpt><trkpt lat="42.1342417" lon="-7.9617583"><ele>734.0</ele><time>2026-04-18T17:20:00.786Z</time></trkpt><trkpt lat="42.13434" lon="-7.9616583"><ele>734.0</ele><time>2026-04-18T17:20:02.787Z</time></trkpt><trkpt lat="42.1344217" lon="-7.9615667"><ele>734.0</ele><time>2026-04-18T17:20:04.787Z</time></trkpt><trkpt lat="42.134485" lon="-7.9614317"><ele>734.0</ele><time>2026-04-18T17:20:06.787Z</time></trkpt><trkpt lat="42.134515" lon="-7.9612767"><ele>734.0</ele><time>2026-04-18T17:20:08.787Z</time></trkpt><trkpt lat="42.1345267" lon="-7.9611833"><ele>734.0</ele><time>2026-04-18T17:20:09.786Z</time></trkpt><trkpt lat="42.13455" lon="-7.9610933"><ele>734.0</ele><time>2026-04-18T17:20:10.787Z</time></trkpt><trkpt lat="42.134585" lon="-7.9610167"><ele>734.0</ele><time>2026-04-18T17:20:11.787Z</time></trkpt><trkpt lat="42.1346933" lon="-7.9609617"><ele>734.0</ele><time>2026-04-18T17:20:13.787Z</time></trkpt><trkpt lat="42.1347783" lon="-7.9609917"><ele>734.0</ele><time>2026-04-18T17:20:14.787Z</time></trkpt><trkpt lat="42.1348683" lon="-7.961035"><ele>734.0</ele><time>2026-04-18T17:20:15.787Z</time></trkpt><trkpt lat="42.13496" lon="-7.9610733"><ele>732.3333333333333</ele><time>2026-04-18T17:20:16.786Z</time></trkpt><trkpt lat="42.1350383" lon="-7.9610867"><ele>730.6666666666666</ele><time>2026-04-18T17:20:17.787Z</time></trkpt><trkpt lat="42.135105" lon="-7.9610683"><ele>729.0</ele><time>2026-04-18T17:20:18.786Z</time></trkpt><trkpt lat="42.1351633" lon="-7.9610267"><ele>727.3333333333334</ele><time>2026-04-18T17:20:19.786Z</time></trkpt><trkpt lat="42.135255" lon="-7.9609533"><ele>725.6666666666667</ele><time>2026-04-18T17:20:21.787Z</time></trkpt><trkpt lat="42.135365" lon="-7.960915"><ele>724.0</ele><time>2026-04-18T17:20:23.784Z</time></trkpt><trkpt lat="42.1354867" lon="-7.960905"><ele>724.0</ele><time>2026-04-18T17:20:25.788Z</time></trkpt><trkpt lat="42.1355567" lon="-7.9609083"><ele>724.0</ele><time>2026-04-18T17:20:26.787Z</time></trkpt><trkpt lat="42.1356633" lon="-7.960955"><ele>724.0</ele><time>2026-04-18T17:20:28.787Z</time></trkpt><trkpt lat="42.1357317" lon="-7.961045"><ele>724.0</ele><time>2026-04-18T17:20:30.787Z</time></trkpt><trkpt lat="42.1357933" lon="-7.961145"><ele>724.0</ele><time>2026-04-18T17:20:32.782Z</time></trkpt><trkpt lat="42.136035" lon="-7.9616"><ele>722.0</ele><time>2026-04-18T17:20:39.783Z</time></trkpt><trkpt lat="42.1361067" lon="-7.9616783"><ele>720.0</ele><time>2026-04-18T17:20:40.783Z</time></trkpt><trkpt lat="42.1362033" lon="-7.96178"><ele>718.0</ele><time>2026-04-18T17:20:41.784Z</time></trkpt><trkpt lat="42.13628" lon="-7.9618683"><ele>716.0</ele><time>2026-04-18T17:20:42.785Z</time></trkpt><trkpt lat="42.1363567" lon="-7.961975"><ele>714.0</ele><time>2026-04-18T17:20:43.783Z</time></trkpt><trkpt lat="42.1363733" lon="-7.9620933"><ele>714.0</ele><time>2026-04-18T17:20:44.783Z</time></trkpt><trkpt lat="42.136375" lon="-7.9622233"><ele>714.0</ele><time>2026-04-18T17:20:45.783Z</time></trkpt><trkpt lat="42.1363733" lon="-7.9623367"><ele>714.0</ele><time>2026-04-18T17:20:46.783Z</time></trkpt><trkpt lat="42.1363733" lon="-7.96246"><ele>714.0</ele><time>2026-04-18T17:20:47.782Z</time></trkpt><trkpt lat="42.1363667" lon="-7.962575"><ele>714.0</ele><time>2026-04-18T17:20:48.782Z</time></trkpt><trkpt lat="42.1363767" lon="-7.9626767"><ele>714.0</ele><time>2026-04-18T17:20:49.782Z</time></trkpt><trkpt lat="42.1363917" lon="-7.9627817"><ele>713.4000000000001</ele><time>2026-04-18T17:20:50.783Z</time></trkpt><trkpt lat="42.13641" lon="-7.9629067"><ele>712.8</ele><time>2026-04-18T17:20:52.782Z</time></trkpt><trkpt lat="42.136475" lon="-7.9628967"><ele>712.2</ele><time>2026-04-18T17:20:54.783Z</time></trkpt><trkpt lat="42.136535" lon="-7.9628633"><ele>711.5999999999999</ele><time>2026-04-18T17:20:55.785Z</time></trkpt><trkpt lat="42.13666" lon="-7.9627917"><ele>711.0</ele><time>2026-04-18T17:20:56.783Z</time></trkpt><trkpt lat="42.1367717" lon="-7.9627633"><ele>708.1999999999999</ele><time>2026-04-18T17:20:57.783Z</time></trkpt><trkpt lat="42.1368833" lon="-7.9627267"><ele>705.4</ele><time>2026-04-18T17:20:58.783Z</time></trkpt><trkpt lat="42.1369567" lon="-7.9627"><ele>702.6</ele><time>2026-04-18T17:20:59.782Z</time></trkpt><trkpt lat="42.1370783" lon="-7.9626733"><ele>699.8</ele><time>2026-04-18T17:21:01.784Z</time></trkpt><trkpt lat="42.137185" lon="-7.9626317"><ele>697.0</ele><time>2026-04-18T17:21:03.783Z</time></trkpt><trkpt lat="42.1372767" lon="-7.962565"><ele>697.6666666666667</ele><time>2026-04-18T17:21:05.783Z</time></trkpt><trkpt lat="42.1373533" lon="-7.9624667"><ele>698.3333333333334</ele><time>2026-04-18T17:21:07.783Z</time></trkpt><trkpt lat="42.1373783" lon="-7.96232"><ele>699.0</ele><time>2026-04-18T17:21:09.782Z</time></trkpt><trkpt lat="42.137365" lon="-7.961695"><ele>695.5</ele><time>2026-04-18T17:21:15.783Z</time></trkpt><trkpt lat="42.1374883" lon="-7.961655"><ele>692.0</ele><time>2026-04-18T17:21:18.783Z</time></trkpt><trkpt lat="42.1375817" lon="-7.9616617"><ele>688.5</ele><time>2026-04-18T17:21:20.784Z</time></trkpt><trkpt lat="42.1376967" lon="-7.9616883"><ele>685.0</ele><time>2026-04-18T17:21:22.782Z</time></trkpt><trkpt lat="42.137815" lon="-7.9617317"><ele>685.0</ele><time>2026-04-18T17:21:24.783Z</time></trkpt><trkpt lat="42.1378817" lon="-7.961745"><ele>685.0</ele><time>2026-04-18T17:21:25.782Z</time></trkpt><trkpt lat="42.1379533" lon="-7.9617767"><ele>685.0</ele><time>2026-04-18T17:21:26.783Z</time></trkpt><trkpt lat="42.13802" lon="-7.9618117"><ele>685.0</ele><time>2026-04-18T17:21:27.783Z</time></trkpt><trkpt lat="42.1381183" lon="-7.9618867"><ele>685.0</ele><time>2026-04-18T17:21:28.782Z</time></trkpt><trkpt lat="42.1382017" lon="-7.9619583"><ele>685.0</ele><time>2026-04-18T17:21:29.783Z</time></trkpt><trkpt lat="42.1382633" lon="-7.9620433"><ele>682.1666666666667</ele><time>2026-04-18T17:21:30.782Z</time></trkpt><trkpt lat="42.1383083" lon="-7.962105"><ele>679.3333333333334</ele><time>2026-04-18T17:21:31.783Z</time></trkpt><trkpt lat="42.1383567" lon="-7.962175"><ele>676.5</ele><time>2026-04-18T17:21:32.783Z</time></trkpt><trkpt lat="42.1384083" lon="-7.9622433"><ele>673.6666666666666</ele><time>2026-04-18T17:21:33.784Z</time></trkpt><trkpt lat="42.1384567" lon="-7.9623017"><ele>670.8333333333333</ele><time>2026-04-18T17:21:34.783Z</time></trkpt><trkpt lat="42.13854" lon="-7.9624267"><ele>668.0</ele><time>2026-04-18T17:21:36.784Z</time></trkpt><trkpt lat="42.13858" lon="-7.9624933"><ele>668.3333333333333</ele><time>2026-04-18T17:21:37.783Z</time></trkpt><trkpt lat="42.1386467" lon="-7.9626467"><ele>668.6666666666666</ele><time>2026-04-18T17:21:39.784Z</time></trkpt><trkpt lat="42.13879" lon="-7.96299"><ele>669.0</ele><time>2026-04-18T17:21:44.668Z</time></trkpt><trkpt lat="42.13884" lon="-7.962925"><ele>669.0</ele><time>2026-04-18T17:21:46.783Z</time></trkpt><trkpt lat="42.1389567" lon="-7.9629217"><ele>669.0</ele><time>2026-04-18T17:21:48.783Z</time></trkpt><trkpt lat="42.1390917" lon="-7.963"><ele>669.0</ele><time>2026-04-18T17:21:53.783Z</time></trkpt><trkpt lat="42.1391567" lon="-7.9630267"><ele>669.0</ele><time>2026-04-18T17:21:55.783Z</time></trkpt><trkpt lat="42.1392433" lon="-7.9630417"><ele>669.0</ele><time>2026-04-18T17:21:58.783Z</time></trkpt><trkpt lat="42.1393317" lon="-7.9630567"><ele>664.6</ele><time>2026-04-18T17:22:00.783Z</time></trkpt><trkpt lat="42.1394183" lon="-7.9630817"><ele>660.2</ele><time>2026-04-18T17:22:02.783Z</time></trkpt><trkpt lat="42.1395033" lon="-7.9631233"><ele>655.8000000000001</ele><time>2026-04-18T17:22:04.783Z</time></trkpt><trkpt lat="42.1395817" lon="-7.9631917"><ele>651.4000000000001</ele><time>2026-04-18T17:22:06.782Z</time></trkpt><trkpt lat="42.13967" lon="-7.963275"><ele>647.0</ele><time>2026-04-18T17:22:08.785Z</time></trkpt><trkpt lat="42.139755" lon="-7.9632783"><ele>646.5</ele><time>2026-04-18T17:22:10.782Z</time></trkpt><trkpt lat="42.139805" lon="-7.9634467"><ele>646.0</ele><time>2026-04-18T17:22:16.783Z</time></trkpt><trkpt lat="42.139845" lon="-7.96356"><ele>645.5</ele><time>2026-04-18T17:22:18.783Z</time></trkpt><trkpt lat="42.139975" lon="-7.9637483"><ele>645.0</ele><time>2026-04-18T17:22:20.783Z</time></trkpt><trkpt lat="42.1400717" lon="-7.9638683"><ele>641.6</ele><time>2026-04-18T17:22:22.783Z</time></trkpt><trkpt lat="42.1401867" lon="-7.96392"><ele>638.2</ele><time>2026-04-18T17:22:24.782Z</time></trkpt><trkpt lat="42.1403233" lon="-7.9639217"><ele>634.8</ele><time>2026-04-18T17:22:26.783Z</time></trkpt><trkpt lat="42.1403967" lon="-7.9639217"><ele>631.4</ele><time>2026-04-18T17:22:27.785Z</time></trkpt><trkpt lat="42.1404967" lon="-7.9639433"><ele>628.0</ele><time>2026-04-18T17:22:28.783Z</time></trkpt><trkpt lat="42.1405667" lon="-7.9639567"><ele>627.9999999999999</ele><time>2026-04-18T17:22:29.784Z</time></trkpt><trkpt lat="42.1406367" lon="-7.9639733"><ele>628.0</ele><time>2026-04-18T17:22:30.783Z</time></trkpt><trkpt lat="42.14071" lon="-7.9640183"><ele>628.0</ele><time>2026-04-18T17:22:31.783Z</time></trkpt><trkpt lat="42.1407683" lon="-7.96406"><ele>628.0</ele><time>2026-04-18T17:22:32.783Z</time></trkpt><trkpt lat="42.1408333" lon="-7.9641133"><ele>628.0</ele><time>2026-04-18T17:22:33.783Z</time></trkpt><trkpt lat="42.140875" lon="-7.9641833"><ele>627.9999999999999</ele><time>2026-04-18T17:22:34.783Z</time></trkpt><trkpt lat="42.1409233" lon="-7.9642467"><ele>628.0</ele><time>2026-04-18T17:22:35.783Z</time></trkpt><trkpt lat="42.1409783" lon="-7.9643917"><ele>621.0</ele><time>2026-04-18T17:22:37.787Z</time></trkpt><trkpt lat="42.1410233" lon="-7.9645083"><ele>614.0</ele><time>2026-04-18T17:22:39.783Z</time></trkpt><trkpt lat="42.14074" lon="-7.9653917"><ele>614.0</ele><time>2026-04-18T17:22:46.785Z</time></trkpt><trkpt lat="42.1409533" lon="-7.965565"><ele>614.0</ele><time>2026-04-18T17:22:48.783Z</time></trkpt><trkpt lat="42.1410233" lon="-7.965725"><ele>614.0</ele><time>2026-04-18T17:22:50.783Z</time></trkpt><trkpt lat="42.14106" lon="-7.96582"><ele>614.3333333333333</ele><time>2026-04-18T17:22:51.784Z</time></trkpt><trkpt lat="42.1410633" lon="-7.9659083"><ele>614.6666666666666</ele><time>2026-04-18T17:22:52.783Z</time></trkpt><trkpt lat="42.1410783" lon="-7.965995"><ele>615.0</ele><time>2026-04-18T17:22:53.782Z</time></trkpt><trkpt lat="42.1410683" lon="-7.966155"><ele>615.3333333333334</ele><time>2026-04-18T17:22:55.786Z</time></trkpt><trkpt lat="42.1410067" lon="-7.9661833"><ele>615.6666666666667</ele><time>2026-04-18T17:22:57.783Z</time></trkpt><trkpt lat="42.140915" lon="-7.966145"><ele>616.0</ele><time>2026-04-18T17:22:59.783Z</time></trkpt><trkpt lat="42.14085" lon="-7.9661117"><ele>616.0</ele><time>2026-04-18T17:23:00.783Z</time></trkpt><trkpt lat="42.1407867" lon="-7.9660933"><ele>616.0</ele><time>2026-04-18T17:23:01.783Z</time></trkpt><trkpt lat="42.1407183" lon="-7.9660783"><ele>616.0</ele><time>2026-04-18T17:23:02.783Z</time></trkpt><trkpt lat="42.1406517" lon="-7.96609"><ele>616.0</ele><time>2026-04-18T17:23:03.787Z</time></trkpt><trkpt lat="42.1405817" lon="-7.9661083"><ele>616.0</ele><time>2026-04-18T17:23:04.783Z</time></trkpt><trkpt lat="42.140515" lon="-7.96613"><ele>616.0</ele><time>2026-04-18T17:23:05.784Z</time></trkpt><trkpt lat="42.1404433" lon="-7.9661467"><ele>616.0</ele><time>2026-04-18T17:23:06.783Z</time></trkpt><trkpt lat="42.140375" lon="-7.96616"><ele>618.8</ele><time>2026-04-18T17:23:07.784Z</time></trkpt><trkpt lat="42.1403083" lon="-7.9661667"><ele>621.6</ele><time>2026-04-18T17:23:08.784Z</time></trkpt><trkpt lat="42.1402283" lon="-7.9661683"><ele>624.4</ele><time>2026-04-18T17:23:09.785Z</time></trkpt><trkpt lat="42.140155" lon="-7.96617"><ele>627.2</ele><time>2026-04-18T17:23:10.783Z</time></trkpt><trkpt lat="42.1400733" lon="-7.9661633"><ele>630.0</ele><time>2026-04-18T17:23:11.783Z</time></trkpt><trkpt lat="42.1397167" lon="-7.96636"><ele>632.1666666666666</ele><time>2026-04-18T17:23:14.562Z</time></trkpt><trkpt lat="42.1397817" lon="-7.9663333"><ele>634.3333333333334</ele><time>2026-04-18T17:23:17.783Z</time></trkpt><trkpt lat="42.139725" lon="-7.9664333"><ele>636.5</ele><time>2026-04-18T17:23:19.783Z</time></trkpt><trkpt lat="42.1396583" lon="-7.9665367"><ele>638.6666666666667</ele><time>2026-04-18T17:23:21.783Z</time></trkpt><trkpt lat="42.13961" lon="-7.9665967"><ele>640.8333333333334</ele><time>2026-04-18T17:23:22.782Z</time></trkpt><trkpt lat="42.1395517" lon="-7.966705"><ele>643.0</ele><time>2026-04-18T17:23:24.783Z</time></trkpt><trkpt lat="42.1395017" lon="-7.9668417"><ele>643.2</ele><time>2026-04-18T17:23:26.784Z</time></trkpt><trkpt lat="42.1394533" lon="-7.96698"><ele>643.4</ele><time>2026-04-18T17:23:28.783Z</time></trkpt><trkpt lat="42.139395" lon="-7.9670967"><ele>643.6</ele><time>2026-04-18T17:23:30.783Z</time></trkpt><trkpt lat="42.1393467" lon="-7.9671867"><ele>643.8000000000001</ele><time>2026-04-18T17:23:32.783Z</time></trkpt><trkpt lat="42.1393017" lon="-7.9672783"><ele>644.0</ele><time>2026-04-18T17:23:34.784Z</time></trkpt><trkpt lat="42.13926" lon="-7.96739"><ele>644.0</ele><time>2026-04-18T17:23:36.783Z</time></trkpt><trkpt lat="42.1392183" lon="-7.9675217"><ele>644.0</ele><time>2026-04-18T17:23:38.783Z</time></trkpt><trkpt lat="42.1391633" lon="-7.96763"><ele>644.0</ele><time>2026-04-18T17:23:40.783Z</time></trkpt><trkpt lat="42.1391133" lon="-7.9676867"><ele>644.0</ele><time>2026-04-18T17:23:44.835Z</time></trkpt><trkpt lat="42.139045" lon="-7.9677517"><ele>644.0</ele><time>2026-04-18T17:23:46.784Z</time></trkpt><trkpt lat="42.1389467" lon="-7.9678667"><ele>646.25</ele><time>2026-04-18T17:23:48.783Z</time></trkpt><trkpt lat="42.13883" lon="-7.96799"><ele>648.5</ele><time>2026-04-18T17:23:50.783Z</time></trkpt><trkpt lat="42.1387617" lon="-7.9680767"><ele>650.75</ele><time>2026-04-18T17:23:52.783Z</time></trkpt><trkpt lat="42.138685" lon="-7.9681883"><ele>653.0</ele><time>2026-04-18T17:23:54.786Z</time></trkpt><trkpt lat="42.1386033" lon="-7.968265"><ele>653.0</ele><time>2026-04-18T17:23:56.783Z</time></trkpt><trkpt lat="42.1385483" lon="-7.9683083"><ele>653.0</ele><time>2026-04-18T17:23:57.783Z</time></trkpt><trkpt lat="42.1384517" lon="-7.96836"><ele>653.0</ele><time>2026-04-18T17:23:59.783Z</time></trkpt><trkpt lat="42.1383383" lon="-7.9684417"><ele>653.0</ele><time>2026-04-18T17:24:01.784Z</time></trkpt><trkpt lat="42.1382567" lon="-7.9684983"><ele>653.0</ele><time>2026-04-18T17:24:03.784Z</time></trkpt><trkpt lat="42.1381833" lon="-7.9685983"><ele>653.0</ele><time>2026-04-18T17:24:05.784Z</time></trkpt><trkpt lat="42.13816" lon="-7.96868"><ele>653.0</ele><time>2026-04-18T17:24:06.783Z</time></trkpt><trkpt lat="42.1381233" lon="-7.9688283"><ele>653.0</ele><time>2026-04-18T17:24:08.784Z</time></trkpt><trkpt lat="42.1380983" lon="-7.968915"><ele>653.0</ele><time>2026-04-18T17:24:09.783Z</time></trkpt><trkpt lat="42.1380767" lon="-7.9690033"><ele>653.0</ele><time>2026-04-18T17:24:10.783Z</time></trkpt><trkpt lat="42.1380567" lon="-7.9690983"><ele>653.0</ele><time>2026-04-18T17:24:11.784Z</time></trkpt><trkpt lat="42.13783" lon="-7.9698333"><ele>653.0</ele><time>2026-04-18T17:24:14.188Z</time></trkpt><trkpt lat="42.1377283" lon="-7.96997"><ele>653.0</ele><time>2026-04-18T17:24:16.784Z</time></trkpt><trkpt lat="42.1376633" lon="-7.9701117"><ele>653.0</ele><time>2026-04-18T17:24:18.783Z</time></trkpt><trkpt lat="42.1376117" lon="-7.97017"><ele>653.0</ele><time>2026-04-18T17:24:19.782Z</time></trkpt><trkpt lat="42.1375567" lon="-7.9702167"><ele>653.0</ele><time>2026-04-18T17:24:20.784Z</time></trkpt><trkpt lat="42.137485" lon="-7.9702883"><ele>653.5</ele><time>2026-04-18T17:24:22.784Z</time></trkpt><trkpt lat="42.1374167" lon="-7.9704283"><ele>654.0</ele><time>2026-04-18T17:24:24.783Z</time></trkpt><trkpt lat="42.1373783" lon="-7.970505"><ele>654.5</ele><time>2026-04-18T17:24:25.784Z</time></trkpt><trkpt lat="42.13728" lon="-7.970605"><ele>655.0</ele><time>2026-04-18T17:24:27.783Z</time></trkpt><trkpt lat="42.1371417" lon="-7.97068"><ele>657.6666666666667</ele><time>2026-04-18T17:24:29.783Z</time></trkpt><trkpt lat="42.13708" lon="-7.970705"><ele>660.3333333333334</ele><time>2026-04-18T17:24:30.783Z</time></trkpt><trkpt lat="42.1369667" lon="-7.9707567"><ele>663.0</ele><time>2026-04-18T17:24:32.783Z</time></trkpt><trkpt lat="42.1369017" lon="-7.9708017"><ele>665.6666666666666</ele><time>2026-04-18T17:24:33.783Z</time></trkpt><trkpt lat="42.136845" lon="-7.9708467"><ele>668.3333333333333</ele><time>2026-04-18T17:24:34.783Z</time></trkpt><trkpt lat="42.1367817" lon="-7.9708867"><ele>671.0</ele><time>2026-04-18T17:24:35.783Z</time></trkpt><trkpt lat="42.1367217" lon="-7.9709383"><ele>671.0</ele><time>2026-04-18T17:24:36.783Z</time></trkpt><trkpt lat="42.1366617" lon="-7.9709867"><ele>671.0</ele><time>2026-04-18T17:24:37.783Z</time></trkpt><trkpt lat="42.1365967" lon="-7.9710383"><ele>671.0</ele><time>2026-04-18T17:24:38.785Z</time></trkpt><trkpt lat="42.13654" lon="-7.9710833"><ele>671.0</ele><time>2026-04-18T17:24:39.784Z</time></trkpt><trkpt lat="42.1364583" lon="-7.9711633"><ele>671.0</ele><time>2026-04-18T17:24:41.784Z</time></trkpt><trkpt lat="42.13615" lon="-7.9714267"><ele>673.3333333333333</ele><time>2026-04-18T17:24:44.569Z</time></trkpt><trkpt lat="42.1361067" lon="-7.9714933"><ele>675.6666666666666</ele><time>2026-04-18T17:24:45.783Z</time></trkpt><trkpt lat="42.1360317" lon="-7.9716417"><ele>678.0</ele><time>2026-04-18T17:24:47.783Z</time></trkpt><trkpt lat="42.1359917" lon="-7.9717183"><ele>680.3333333333334</ele><time>2026-04-18T17:24:48.783Z</time></trkpt><trkpt lat="42.13595" lon="-7.97183"><ele>682.6666666666667</ele><time>2026-04-18T17:24:50.785Z</time></trkpt><trkpt lat="42.135935" lon="-7.9719233"><ele>685.0</ele><time>2026-04-18T17:24:52.783Z</time></trkpt><trkpt lat="42.1359383" lon="-7.9720283"><ele>685.0</ele><time>2026-04-18T17:24:54.783Z</time></trkpt><trkpt lat="42.1360167" lon="-7.97208"><ele>685.0</ele><time>2026-04-18T17:24:57.784Z</time></trkpt><trkpt lat="42.1361583" lon="-7.9721367"><ele>685.0</ele><time>2026-04-18T17:24:59.783Z</time></trkpt><trkpt lat="42.136255" lon="-7.9721483"><ele>685.0</ele><time>2026-04-18T17:25:00.783Z</time></trkpt><trkpt lat="42.1363517" lon="-7.9721483"><ele>685.0</ele><time>2026-04-18T17:25:01.783Z</time></trkpt><trkpt lat="42.136445" lon="-7.9721333"><ele>685.0</ele><time>2026-04-18T17:25:02.783Z</time></trkpt><trkpt lat="42.1365217" lon="-7.9721167"><ele>685.0</ele><time>2026-04-18T17:25:03.783Z</time></trkpt><trkpt lat="42.1366267" lon="-7.9720933"><ele>685.0</ele><time>2026-04-18T17:25:05.783Z</time></trkpt><trkpt lat="42.1367083" lon="-7.972075"><ele>685.0</ele><time>2026-04-18T17:25:07.783Z</time></trkpt><trkpt lat="42.1365067" lon="-7.9725367"><ele>686.6666666666667</ele><time>2026-04-18T17:25:18.784Z</time></trkpt><trkpt lat="42.13644" lon="-7.9726067"><ele>688.3333333333334</ele><time>2026-04-18T17:25:20.786Z</time></trkpt><trkpt lat="42.136375" lon="-7.9725817"><ele>690.0</ele><time>2026-04-18T17:25:22.783Z</time></trkpt><trkpt lat="42.1362817" lon="-7.9726433"><ele>691.6666666666666</ele><time>2026-04-18T17:25:25.783Z</time></trkpt><trkpt lat="42.13621" lon="-7.9726767"><ele>693.3333333333333</ele><time>2026-04-18T17:25:27.784Z</time></trkpt><trkpt lat="42.13618" lon="-7.9727667"><ele>695.0</ele><time>2026-04-18T17:25:30.784Z</time></trkpt><trkpt lat="42.1361933" lon="-7.9728583"><ele>695.0</ele><time>2026-04-18T17:25:32.783Z</time></trkpt><trkpt lat="42.1362033" lon="-7.9729667"><ele>695.0</ele><time>2026-04-18T17:25:34.783Z</time></trkpt><trkpt lat="42.1362483" lon="-7.9730733"><ele>695.0</ele><time>2026-04-18T17:25:56.782Z</time></trkpt><trkpt lat="42.1362683" lon="-7.9731783"><ele>695.0</ele><time>2026-04-18T17:25:58.785Z</time></trkpt><trkpt lat="42.1362833" lon="-7.9732783"><ele>695.0</ele><time>2026-04-18T17:26:00.784Z</time></trkpt><trkpt lat="42.13628" lon="-7.9733667"><ele>695.0</ele><time>2026-04-18T17:26:02.782Z</time></trkpt><trkpt lat="42.1362583" lon="-7.9734583"><ele>697.6666666666666</ele><time>2026-04-18T17:26:05.782Z</time></trkpt><trkpt lat="42.1362717" lon="-7.9735617"><ele>700.3333333333333</ele><time>2026-04-18T17:26:08.783Z</time></trkpt><trkpt lat="42.1363183" lon="-7.9736583"><ele>703.0</ele><time>2026-04-18T17:26:11.783Z</time></trkpt><trkpt lat="42.1363833" lon="-7.9737317"><ele>705.6666666666666</ele><time>2026-04-18T17:26:17.783Z</time></trkpt><trkpt lat="42.1364467" lon="-7.9738033"><ele>708.3333333333334</ele><time>2026-04-18T17:26:19.785Z</time></trkpt><trkpt lat="42.1364917" lon="-7.97388"><ele>711.0</ele><time>2026-04-18T17:26:21.782Z</time></trkpt><trkpt lat="42.1365583" lon="-7.9739783"><ele>711.0</ele><time>2026-04-18T17:26:24.782Z</time></trkpt><trkpt lat="42.13663" lon="-7.9740633"><ele>711.0</ele><time>2026-04-18T17:26:27.785Z</time></trkpt><trkpt lat="42.136675" lon="-7.9741367"><ele>711.0</ele><time>2026-04-18T17:26:29.782Z</time></trkpt><trkpt lat="42.1367283" lon="-7.9742083"><ele>711.0</ele><time>2026-04-18T17:26:31.782Z</time></trkpt><trkpt lat="42.1368067" lon="-7.9741983"><ele>711.0</ele><time>2026-04-18T17:26:33.783Z</time></trkpt><trkpt lat="42.1368883" lon="-7.9741217"><ele>711.0</ele><time>2026-04-18T17:26:35.783Z</time></trkpt><trkpt lat="42.136945" lon="-7.974055"><ele>711.0</ele><time>2026-04-18T17:26:36.783Z</time></trkpt><trkpt lat="42.1370017" lon="-7.97399"><ele>711.0</ele><time>2026-04-18T17:26:37.783Z</time></trkpt><trkpt lat="42.1370617" lon="-7.9739233"><ele>711.0</ele><time>2026-04-18T17:26:38.783Z</time></trkpt><trkpt lat="42.1371483" lon="-7.973825"><ele>711.0</ele><time>2026-04-18T17:26:40.782Z</time></trkpt><trkpt lat="42.137215" lon="-7.9738367"><ele>711.0</ele><time>2026-04-18T17:26:42.783Z</time></trkpt><trkpt lat="42.1373167" lon="-7.974195"><ele>713.0</ele><time>2026-04-18T17:26:47.783Z</time></trkpt><trkpt lat="42.1372983" lon="-7.9743267"><ele>715.0</ele><time>2026-04-18T17:26:49.782Z</time></trkpt><trkpt lat="42.137285" lon="-7.9744183"><ele>717.0</ele><time>2026-04-18T17:26:50.782Z</time></trkpt><trkpt lat="42.13727" lon="-7.974505"><ele>719.0</ele><time>2026-04-18T17:26:51.782Z</time></trkpt><trkpt lat="42.13726" lon="-7.9746233"><ele>721.0</ele><time>2026-04-18T17:26:52.782Z</time></trkpt><trkpt lat="42.1372483" lon="-7.9747183"><ele>723.0</ele><time>2026-04-18T17:26:53.782Z</time></trkpt><trkpt lat="42.1372317" lon="-7.9748017"><ele>723.0</ele><time>2026-04-18T17:26:54.784Z</time></trkpt><trkpt lat="42.1372333" lon="-7.9749133"><ele>723.0</ele><time>2026-04-18T17:26:56.783Z</time></trkpt><trkpt lat="42.1372683" lon="-7.9750283"><ele>723.0</ele><time>2026-04-18T17:26:58.783Z</time></trkpt><trkpt lat="42.1372933" lon="-7.9751517"><ele>723.0</ele><time>2026-04-18T17:27:00.782Z</time></trkpt><trkpt lat="42.13729" lon="-7.9752867"><ele>723.0</ele><time>2026-04-18T17:27:02.784Z</time></trkpt><trkpt lat="42.13728" lon="-7.9754417"><ele>722.75</ele><time>2026-04-18T17:27:04.783Z</time></trkpt><trkpt lat="42.1372983" lon="-7.9755667"><ele>722.5</ele><time>2026-04-18T17:27:06.782Z</time></trkpt><trkpt lat="42.137345" lon="-7.975655"><ele>722.25</ele><time>2026-04-18T17:27:08.784Z</time></trkpt><trkpt lat="42.1374867" lon="-7.9757017"><ele>722.0</ele><time>2026-04-18T17:27:10.782Z</time></trkpt><trkpt lat="42.1376383" lon="-7.9757167"><ele>719.6666666666666</ele><time>2026-04-18T17:27:11.782Z</time></trkpt><trkpt lat="42.1378083" lon="-7.9757217"><ele>717.3333333333334</ele><time>2026-04-18T17:27:12.783Z</time></trkpt><trkpt lat="42.137965" lon="-7.9757233"><ele>715.0</ele><time>2026-04-18T17:27:13.783Z</time></trkpt><trkpt lat="42.13839" lon="-7.9755333"><ele>713.0</ele><time>2026-04-18T17:27:16.079Z</time></trkpt><trkpt lat="42.1384833" lon="-7.9755183"><ele>711.0</ele><time>2026-04-18T17:27:17.081Z</time></trkpt><trkpt lat="42.1386883" lon="-7.9754467"><ele>709.0</ele><time>2026-04-18T17:27:18.785Z</time></trkpt><trkpt lat="42.1388183" lon="-7.975405"><ele>707.0</ele><time>2026-04-18T17:27:19.782Z</time></trkpt><trkpt lat="42.1389467" lon="-7.9753533"><ele>704.25</ele><time>2026-04-18T17:27:20.783Z</time></trkpt><trkpt lat="42.1390717" lon="-7.97531"><ele>701.5</ele><time>2026-04-18T17:27:21.782Z</time></trkpt><trkpt lat="42.1391983" lon="-7.9752617"><ele>698.75</ele><time>2026-04-18T17:27:22.782Z</time></trkpt><trkpt lat="42.1393383" lon="-7.9752083"><ele>696.0</ele><time>2026-04-18T17:27:23.783Z</time></trkpt><trkpt lat="42.1394667" lon="-7.975165"><ele>696.0</ele><time>2026-04-18T17:27:24.783Z</time></trkpt><trkpt lat="42.13959" lon="-7.975125"><ele>696.0</ele><time>2026-04-18T17:27:25.782Z</time></trkpt><trkpt lat="42.1397117" lon="-7.9750783"><ele>696.0</ele><time>2026-04-18T17:27:26.784Z</time></trkpt><trkpt lat="42.1398117" lon="-7.975025"><ele>696.0</ele><time>2026-04-18T17:27:27.783Z</time></trkpt><trkpt lat="42.1398917" lon="-7.9749733"><ele>695.1666666666666</ele><time>2026-04-18T17:27:28.782Z</time></trkpt><trkpt lat="42.1399517" lon="-7.97493"><ele>694.3333333333334</ele><time>2026-04-18T17:27:29.782Z</time></trkpt><trkpt lat="42.1400533" lon="-7.9748933"><ele>693.5</ele><time>2026-04-18T17:27:31.782Z</time></trkpt><trkpt lat="42.14011" lon="-7.9749733"><ele>692.6666666666667</ele><time>2026-04-18T17:27:33.782Z</time></trkpt><trkpt lat="42.1401133" lon="-7.9750833"><ele>691.8333333333334</ele><time>2026-04-18T17:27:34.783Z</time></trkpt><trkpt lat="42.14011" lon="-7.9752267"><ele>691.0</ele><time>2026-04-18T17:27:35.783Z</time></trkpt><trkpt lat="42.1401" lon="-7.9753883"><ele>690.5999999999999</ele><time>2026-04-18T17:27:36.783Z</time></trkpt><trkpt lat="42.140085" lon="-7.9755567"><ele>690.2</ele><time>2026-04-18T17:27:37.782Z</time></trkpt><trkpt lat="42.1400767" lon="-7.9757033"><ele>689.8</ele><time>2026-04-18T17:27:38.783Z</time></trkpt><trkpt lat="42.14007" lon="-7.9758367"><ele>689.4000000000001</ele><time>2026-04-18T17:27:39.782Z</time></trkpt><trkpt lat="42.1400683" lon="-7.9759467"><ele>689.0</ele><time>2026-04-18T17:27:40.782Z</time></trkpt><trkpt lat="42.1400667" lon="-7.9760517"><ele>689.6666666666666</ele><time>2026-04-18T17:27:42.783Z</time></trkpt><trkpt lat="42.1400633" lon="-7.9761367"><ele>690.3333333333333</ele><time>2026-04-18T17:28:02.786Z</time></trkpt><trkpt lat="42.1400633" lon="-7.9762483"><ele>691.0</ele><time>2026-04-18T17:28:04.786Z</time></trkpt><trkpt lat="42.1400667" lon="-7.976395"><ele>691.6666666666666</ele><time>2026-04-18T17:28:06.787Z</time></trkpt><trkpt lat="42.140065" lon="-7.97649"><ele>692.3333333333334</ele><time>2026-04-18T17:28:07.786Z</time></trkpt><trkpt lat="42.1400667" lon="-7.9765833"><ele>693.0</ele><time>2026-04-18T17:28:08.785Z</time></trkpt><trkpt lat="42.1400767" lon="-7.9766767"><ele>694.0</ele><time>2026-04-18T17:28:09.782Z</time></trkpt><trkpt lat="42.14009" lon="-7.9767733"><ele>695.0</ele><time>2026-04-18T17:28:10.784Z</time></trkpt><trkpt lat="42.140105" lon="-7.9768733"><ele>696.0</ele><time>2026-04-18T17:28:11.784Z</time></trkpt><trkpt lat="42.1401267" lon="-7.9769683"><ele>697.0</ele><time>2026-04-18T17:28:12.788Z</time></trkpt><trkpt lat="42.1401517" lon="-7.9770733"><ele>698.0</ele><time>2026-04-18T17:28:13.786Z</time></trkpt><trkpt lat="42.1401833" lon="-7.9771633"><ele>699.0</ele><time>2026-04-18T17:28:14.785Z</time></trkpt><trkpt lat="42.1402017" lon="-7.977345"><ele>699.0</ele><time>2026-04-18T17:28:16.342Z</time></trkpt><trkpt lat="42.140305" lon="-7.9773383"><ele>699.0</ele><time>2026-04-18T17:28:17.285Z</time></trkpt><trkpt lat="42.140375" lon="-7.9773783"><ele>699.0</ele><time>2026-04-18T17:28:18.784Z</time></trkpt><trkpt lat="42.1404417" lon="-7.9774233"><ele>699.0</ele><time>2026-04-18T17:28:19.785Z</time></trkpt><trkpt lat="42.1405317" lon="-7.9774483"><ele>699.0</ele><time>2026-04-18T17:28:21.784Z</time></trkpt><trkpt lat="42.14061" lon="-7.9774633"><ele>699.0</ele><time>2026-04-18T17:28:23.784Z</time></trkpt><trkpt lat="42.1406817" lon="-7.9774483"><ele>699.0</ele><time>2026-04-18T17:29:06.783Z</time></trkpt><trkpt lat="42.1407433" lon="-7.9774167"><ele>699.0</ele><time>2026-04-18T17:29:08.782Z</time></trkpt><trkpt lat="42.1408317" lon="-7.97737"><ele>699.0</ele><time>2026-04-18T17:29:11.783Z</time></trkpt><trkpt lat="42.140915" lon="-7.9773633"><ele>699.0</ele><time>2026-04-18T17:29:13.783Z</time></trkpt><trkpt lat="42.1409867" lon="-7.977395"><ele>699.0</ele><time>2026-04-18T17:29:15.783Z</time></trkpt><trkpt lat="42.1410767" lon="-7.9774683"><ele>699.0</ele><time>2026-04-18T17:29:17.783Z</time></trkpt><trkpt lat="42.141135" lon="-7.9775633"><ele>699.0</ele><time>2026-04-18T17:29:19.784Z</time></trkpt><trkpt lat="42.14119" lon="-7.9776783"><ele>699.0</ele><time>2026-04-18T17:29:21.784Z</time></trkpt><trkpt lat="42.1412483" lon="-7.9778"><ele>699.0</ele><time>2026-04-18T17:29:23.783Z</time></trkpt><trkpt lat="42.14128" lon="-7.9779217"><ele>699.0</ele><time>2026-04-18T17:29:25.784Z</time></trkpt><trkpt lat="42.14131" lon="-7.9780483"><ele>699.0</ele><time>2026-04-18T17:29:27.785Z</time></trkpt><trkpt lat="42.1413367" lon="-7.9781667"><ele>699.0</ele><time>2026-04-18T17:29:29.784Z</time></trkpt><trkpt lat="42.1413483" lon="-7.9782517"><ele>699.0</ele><time>2026-04-18T17:29:34.598Z</time></trkpt><trkpt lat="42.1413567" lon="-7.978355"><ele>699.0</ele><time>2026-04-18T17:29:36.783Z</time></trkpt><trkpt lat="42.14139" lon="-7.9784617"><ele>699.0</ele><time>2026-04-18T17:29:37.783Z</time></trkpt><trkpt lat="42.141405" lon="-7.9785533"><ele>699.0</ele><time>2026-04-18T17:29:38.783Z</time></trkpt><trkpt lat="42.1414433" lon="-7.97863"><ele>699.0</ele><time>2026-04-18T17:29:39.784Z</time></trkpt><trkpt lat="42.1414883" lon="-7.9787717"><ele>698.3333333333334</ele><time>2026-04-18T17:29:41.783Z</time></trkpt><trkpt lat="42.1415217" lon="-7.9788483"><ele>697.6666666666666</ele><time>2026-04-18T17:29:42.783Z</time></trkpt><trkpt lat="42.1416067" lon="-7.9790067"><ele>697.0</ele><time>2026-04-18T17:29:44.783Z</time></trkpt><trkpt lat="42.1416583" lon="-7.9790917"><ele>696.3333333333333</ele><time>2026-04-18T17:29:45.784Z</time></trkpt><trkpt lat="42.1417083" lon="-7.9791483"><ele>695.6666666666666</ele><time>2026-04-18T17:29:46.783Z</time></trkpt><trkpt lat="42.1417617" lon="-7.9792"><ele>695.0</ele><time>2026-04-18T17:29:47.783Z</time></trkpt><trkpt lat="42.1418183" lon="-7.9792483"><ele>698.0</ele><time>2026-04-18T17:29:48.783Z</time></trkpt><trkpt lat="42.1418767" lon="-7.9792983"><ele>701.0</ele><time>2026-04-18T17:29:49.783Z</time></trkpt><trkpt lat="42.1419367" lon="-7.9793417"><ele>704.0</ele><time>2026-04-18T17:29:50.784Z</time></trkpt><trkpt lat="42.1420067" lon="-7.9793917"><ele>707.0</ele><time>2026-04-18T17:29:51.785Z</time></trkpt><trkpt lat="42.14208" lon="-7.97944"><ele>710.0</ele><time>2026-04-18T17:29:52.782Z</time></trkpt><trkpt lat="42.1421533" lon="-7.9794617"><ele>713.0</ele><time>2026-04-18T17:29:53.783Z</time></trkpt><trkpt lat="42.1422467" lon="-7.9794683"><ele>713.0</ele><time>2026-04-18T17:29:54.784Z</time></trkpt><trkpt lat="42.1423367" lon="-7.97947"><ele>713.0</ele><time>2026-04-18T17:29:55.783Z</time></trkpt><trkpt lat="42.1424283" lon="-7.9794733"><ele>713.0</ele><time>2026-04-18T17:29:56.784Z</time></trkpt><trkpt lat="42.1424983" lon="-7.9794467"><ele>713.0</ele><time>2026-04-18T17:29:57.784Z</time></trkpt><trkpt lat="42.1425817" lon="-7.979435"><ele>713.0</ele><time>2026-04-18T17:29:58.783Z</time></trkpt><trkpt lat="42.1426633" lon="-7.9794217"><ele>713.0</ele><time>2026-04-18T17:29:59.782Z</time></trkpt><trkpt lat="42.1427283" lon="-7.9793933"><ele>710.0</ele><time>2026-04-18T17:30:00.783Z</time></trkpt><trkpt lat="42.1431533" lon="-7.97948"><ele>707.0</ele><time>2026-04-18T17:30:02.947Z</time></trkpt><trkpt lat="42.1433133" lon="-7.9793967"><ele>707.0</ele><time>2026-04-18T17:30:03.945Z</time></trkpt><trkpt lat="42.1434683" lon="-7.979445"><ele>707.0</ele><time>2026-04-18T17:30:05.785Z</time></trkpt><trkpt lat="42.14353" lon="-7.97949"><ele>707.0</ele><time>2026-04-18T17:30:06.784Z</time></trkpt><trkpt lat="42.1436167" lon="-7.97954"><ele>707.0</ele><time>2026-04-18T17:30:07.785Z</time></trkpt><trkpt lat="42.143695" lon="-7.9795883"><ele>707.0</ele><time>2026-04-18T17:30:08.784Z</time></trkpt><trkpt lat="42.1437817" lon="-7.9796067"><ele>707.0</ele><time>2026-04-18T17:30:09.784Z</time></trkpt><trkpt lat="42.1438683" lon="-7.979635"><ele>707.0</ele><time>2026-04-18T17:30:10.785Z</time></trkpt><trkpt lat="42.1439517" lon="-7.9796733"><ele>707.0</ele><time>2026-04-18T17:30:11.786Z</time></trkpt><trkpt lat="42.1440483" lon="-7.9796967"><ele>707.0</ele><time>2026-04-18T17:30:12.784Z</time></trkpt><trkpt lat="42.1441417" lon="-7.9797117"><ele>707.0</ele><time>2026-04-18T17:30:13.784Z</time></trkpt><trkpt lat="42.144235" lon="-7.9797217"><ele>706.0</ele><time>2026-04-18T17:30:14.784Z</time></trkpt><trkpt lat="42.1443367" lon="-7.9797233"><ele>705.0</ele><time>2026-04-18T17:30:15.785Z</time></trkpt><trkpt lat="42.1444367" lon="-7.9797317"><ele>704.0</ele><time>2026-04-18T17:30:16.784Z</time></trkpt><trkpt lat="42.1445383" lon="-7.979735"><ele>703.0</ele><time>2026-04-18T17:30:17.784Z</time></trkpt><trkpt lat="42.1446317" lon="-7.9797333"><ele>702.0</ele><time>2026-04-18T17:30:18.784Z</time></trkpt><trkpt lat="42.1447167" lon="-7.9797167"><ele>702.0</ele><time>2026-04-18T17:30:19.785Z</time></trkpt><trkpt lat="42.1447967" lon="-7.9796833"><ele>702.0</ele><time>2026-04-18T17:30:20.785Z</time></trkpt><trkpt lat="42.144875" lon="-7.97963"><ele>702.0</ele><time>2026-04-18T17:30:21.784Z</time></trkpt><trkpt lat="42.144955" lon="-7.9795733"><ele>702.0</ele><time>2026-04-18T17:30:22.784Z</time></trkpt><trkpt lat="42.145035" lon="-7.979515"><ele>702.0</ele><time>2026-04-18T17:30:23.786Z</time></trkpt><trkpt lat="42.1451083" lon="-7.9794567"><ele>702.0</ele><time>2026-04-18T17:30:24.785Z</time></trkpt><trkpt lat="42.1451817" lon="-7.9794033"><ele>702.0</ele><time>2026-04-18T17:30:25.784Z</time></trkpt><trkpt lat="42.1452433" lon="-7.9793667"><ele>702.0</ele><time>2026-04-18T17:30:26.784Z</time></trkpt><trkpt lat="42.1453533" lon="-7.9793083"><ele>702.0</ele><time>2026-04-18T17:30:28.783Z</time></trkpt><trkpt lat="42.145455" lon="-7.979255"><ele>702.0</ele><time>2026-04-18T17:30:30.783Z</time></trkpt><trkpt lat="42.14554" lon="-7.979255"><ele>702.0</ele><time>2026-04-18T17:30:34.785Z</time></trkpt><trkpt lat="42.1456083" lon="-7.9792917"><ele>702.0</ele><time>2026-04-18T17:30:35.784Z</time></trkpt><trkpt lat="42.1457033" lon="-7.97933"><ele>702.0</ele><time>2026-04-18T17:30:37.786Z</time></trkpt><trkpt lat="42.1457983" lon="-7.9793317"><ele>702.0</ele><time>2026-04-18T17:30:39.787Z</time></trkpt><trkpt lat="42.1458567" lon="-7.9792883"><ele>702.0</ele><time>2026-04-18T17:30:40.788Z</time></trkpt><trkpt lat="42.1459033" lon="-7.97923"><ele>702.0</ele><time>2026-04-18T17:30:41.784Z</time></trkpt><trkpt lat="42.1459967" lon="-7.97913"><ele>702.0</ele><time>2026-04-18T17:30:43.784Z</time></trkpt><trkpt lat="42.146085" lon="-7.9790467"><ele>701.1666666666666</ele><time>2026-04-18T17:30:45.786Z</time></trkpt><trkpt lat="42.1461933" lon="-7.9789783"><ele>700.3333333333334</ele><time>2026-04-18T17:30:47.785Z</time></trkpt><trkpt lat="42.1462567" lon="-7.9789583"><ele>699.5</ele><time>2026-04-18T17:30:48.785Z</time></trkpt><trkpt lat="42.1463417" lon="-7.9789383"><ele>698.6666666666667</ele><time>2026-04-18T17:30:49.786Z</time></trkpt><trkpt lat="42.14642" lon="-7.9789167"><ele>697.8333333333334</ele><time>2026-04-18T17:30:50.785Z</time></trkpt><trkpt lat="42.1464967" lon="-7.9788983"><ele>697.0</ele><time>2026-04-18T17:30:51.786Z</time></trkpt><trkpt lat="42.14658" lon="-7.97888"><ele>696.2</ele><time>2026-04-18T17:30:52.785Z</time></trkpt><trkpt lat="42.1466617" lon="-7.9788633"><ele>695.4000000000001</ele><time>2026-04-18T17:30:53.786Z</time></trkpt><trkpt lat="42.14674" lon="-7.9788433"><ele>694.5999999999999</ele><time>2026-04-18T17:30:54.786Z</time></trkpt><trkpt lat="42.1468267" lon="-7.9788183"><ele>693.8</ele><time>2026-04-18T17:30:55.785Z</time></trkpt><trkpt lat="42.1469317" lon="-7.9787983"><ele>693.0</ele><time>2026-04-18T17:30:56.784Z</time></trkpt><trkpt lat="42.147035" lon="-7.9787833"><ele>693.0</ele><time>2026-04-18T17:30:57.784Z</time></trkpt><trkpt lat="42.147135" lon="-7.978765"><ele>693.0</ele><time>2026-04-18T17:30:58.785Z</time></trkpt><trkpt lat="42.14724" lon="-7.978745"><ele>693.0</ele><time>2026-04-18T17:30:59.784Z</time></trkpt><trkpt lat="42.1473417" lon="-7.9787367"><ele>693.0</ele><time>2026-04-18T17:31:00.785Z</time></trkpt><trkpt lat="42.1474417" lon="-7.9787317"><ele>693.0</ele><time>2026-04-18T17:31:01.786Z</time></trkpt><trkpt lat="42.1476767" lon="-7.97875"><ele>692.75</ele><time>2026-04-18T17:31:03.085Z</time></trkpt><trkpt lat="42.1478483" lon="-7.9787333"><ele>692.5</ele><time>2026-04-18T17:31:04.785Z</time></trkpt><trkpt lat="42.147965" lon="-7.9786717"><ele>692.25</ele><time>2026-04-18T17:31:05.787Z</time></trkpt><trkpt lat="42.1480683" lon="-7.9786433"><ele>692.0</ele><time>2026-04-18T17:31:06.784Z</time></trkpt><trkpt lat="42.1481783" lon="-7.9786017"><ele>692.6</ele><time>2026-04-18T17:31:07.785Z</time></trkpt><trkpt lat="42.1482833" lon="-7.9785517"><ele>693.2</ele><time>2026-04-18T17:31:08.784Z</time></trkpt><trkpt lat="42.1483717" lon="-7.9785017"><ele>693.8</ele><time>2026-04-18T17:31:09.784Z</time></trkpt><trkpt lat="42.1484567" lon="-7.978445"><ele>694.4</ele><time>2026-04-18T17:31:10.784Z</time></trkpt><trkpt lat="42.1485433" lon="-7.978395"><ele>695.0</ele><time>2026-04-18T17:31:11.784Z</time></trkpt><trkpt lat="42.1486233" lon="-7.9783467"><ele>694.3333333333333</ele><time>2026-04-18T17:31:12.784Z</time></trkpt><trkpt lat="42.148695" lon="-7.9783"><ele>693.6666666666666</ele><time>2026-04-18T17:31:13.784Z</time></trkpt><trkpt lat="42.148755" lon="-7.9782583"><ele>693.0</ele><time>2026-04-18T17:31:14.784Z</time></trkpt><trkpt lat="42.1488417" lon="-7.9781733"><ele>692.3333333333334</ele><time>2026-04-18T17:31:16.785Z</time></trkpt><trkpt lat="42.1489183" lon="-7.978095"><ele>691.6666666666667</ele><time>2026-04-18T17:31:18.785Z</time></trkpt><trkpt lat="42.1489833" lon="-7.97804"><ele>691.0</ele><time>2026-04-18T17:31:20.785Z</time></trkpt><trkpt lat="42.14907" lon="-7.977985"><ele>691.0</ele><time>2026-04-18T17:31:23.786Z</time></trkpt><trkpt lat="42.1491533" lon="-7.9779483"><ele>691.0</ele><time>2026-04-18T17:31:25.785Z</time></trkpt><trkpt lat="42.1492433" lon="-7.977915"><ele>691.0</ele><time>2026-04-18T17:31:27.785Z</time></trkpt><trkpt lat="42.1493533" lon="-7.9778683"><ele>691.0</ele><time>2026-04-18T17:31:29.784Z</time></trkpt><trkpt lat="42.1494617" lon="-7.9778083"><ele>691.0</ele><time>2026-04-18T17:31:31.786Z</time></trkpt><trkpt lat="42.1494517" lon="-7.9777183"><ele>691.0</ele><time>2026-04-18T17:31:33.586Z</time></trkpt><trkpt lat="42.1496617" lon="-7.9777567"><ele>691.0</ele><time>2026-04-18T17:31:35.784Z</time></trkpt><trkpt lat="42.149775" lon="-7.9777767"><ele>691.0</ele><time>2026-04-18T17:31:37.783Z</time></trkpt><trkpt lat="42.1498933" lon="-7.977785"><ele>691.0</ele><time>2026-04-18T17:31:39.784Z</time></trkpt><trkpt lat="42.1499933" lon="-7.9777833"><ele>691.5</ele><time>2026-04-18T17:31:40.783Z</time></trkpt><trkpt lat="42.1500583" lon="-7.9777617"><ele>692.0</ele><time>2026-04-18T17:31:41.783Z</time></trkpt><trkpt lat="42.15013" lon="-7.97774"><ele>692.5</ele><time>2026-04-18T17:31:42.783Z</time></trkpt><trkpt lat="42.15019" lon="-7.9777133"><ele>693.0</ele><time>2026-04-18T17:31:43.784Z</time></trkpt><trkpt lat="42.1502533" lon="-7.9776867"><ele>693.5</ele><time>2026-04-18T17:31:44.784Z</time></trkpt><trkpt lat="42.15036" lon="-7.9776067"><ele>694.0</ele><time>2026-04-18T17:31:46.783Z</time></trkpt><trkpt lat="42.15041" lon="-7.97755"><ele>692.5714285714286</ele><time>2026-04-18T17:31:47.783Z</time></trkpt><trkpt lat="42.150455" lon="-7.9774817"><ele>691.1428571428571</ele><time>2026-04-18T17:31:48.784Z</time></trkpt><trkpt lat="42.1504983" lon="-7.977405"><ele>689.7142857142857</ele><time>2026-04-18T17:31:49.782Z</time></trkpt><trkpt lat="42.1505383" lon="-7.97732"><ele>688.2857142857142</ele><time>2026-04-18T17:31:50.782Z</time></trkpt><trkpt lat="42.150575" lon="-7.9772467"><ele>686.8571428571429</ele><time>2026-04-18T17:31:51.782Z</time></trkpt><trkpt lat="42.1506117" lon="-7.9771717"><ele>685.4285714285713</ele><time>2026-04-18T17:31:52.782Z</time></trkpt><trkpt lat="42.1506483" lon="-7.9770933"><ele>684.0</ele><time>2026-04-18T17:31:53.783Z</time></trkpt><trkpt lat="42.15068" lon="-7.9770133"><ele>684.5</ele><time>2026-04-18T17:31:54.783Z</time></trkpt><trkpt lat="42.1507233" lon="-7.9768617"><ele>685.0</ele><time>2026-04-18T17:31:56.783Z</time></trkpt><trkpt lat="42.1507517" lon="-7.9767117"><ele>685.5</ele><time>2026-04-18T17:31:58.782Z</time></trkpt><trkpt lat="42.1507933" lon="-7.9765667"><ele>686.0</ele><time>2026-04-18T17:32:00.782Z</time></trkpt><trkpt lat="42.151035" lon="-7.9762783"><ele>684.8333333333333</ele><time>2026-04-18T17:32:06.783Z</time></trkpt><trkpt lat="42.1511" lon="-7.97629"><ele>683.6666666666666</ele><time>2026-04-18T17:32:07.783Z</time></trkpt><trkpt lat="42.1511933" lon="-7.9763117"><ele>682.5</ele><time>2026-04-18T17:32:09.783Z</time></trkpt><trkpt lat="42.1512917" lon="-7.9763433"><ele>681.3333333333334</ele><time>2026-04-18T17:32:11.782Z</time></trkpt><trkpt lat="42.1513933" lon="-7.976365"><ele>680.1666666666667</ele><time>2026-04-18T17:32:13.783Z</time></trkpt><trkpt lat="42.15146" lon="-7.9763267"><ele>679.0</ele><time>2026-04-18T17:32:15.782Z</time></trkpt><trkpt lat="42.1515417" lon="-7.9762483"><ele>679.0</ele><time>2026-04-18T17:32:17.782Z</time></trkpt><trkpt lat="42.1515917" lon="-7.9761917"><ele>679.0</ele><time>2026-04-18T17:32:18.782Z</time></trkpt><trkpt lat="42.151685" lon="-7.9760783"><ele>679.0</ele><time>2026-04-18T17:32:20.783Z</time></trkpt><trkpt lat="42.1517667" lon="-7.975945"><ele>679.0</ele><time>2026-04-18T17:32:22.782Z</time></trkpt><trkpt lat="42.1518083" lon="-7.9758683"><ele>679.0</ele><time>2026-04-18T17:32:23.782Z</time></trkpt><trkpt lat="42.15185" lon="-7.9757833"><ele>678.0</ele><time>2026-04-18T17:32:24.784Z</time></trkpt><trkpt lat="42.1519" lon="-7.975695"><ele>677.0</ele><time>2026-04-18T17:32:25.782Z</time></trkpt><trkpt lat="42.1519533" lon="-7.9756083"><ele>676.0</ele><time>2026-04-18T17:32:26.783Z</time></trkpt><trkpt lat="42.15201" lon="-7.9755217"><ele>675.0</ele><time>2026-04-18T17:32:27.783Z</time></trkpt><trkpt lat="42.1520733" lon="-7.9754367"><ele>674.0</ele><time>2026-04-18T17:32:28.782Z</time></trkpt><trkpt lat="42.1521367" lon="-7.9753517"><ele>673.0</ele><time>2026-04-18T17:32:29.783Z</time></trkpt><trkpt lat="42.1521983" lon="-7.9752783"><ele>673.0</ele><time>2026-04-18T17:32:30.784Z</time></trkpt><trkpt lat="42.1522617" lon="-7.9752217"><ele>673.0</ele><time>2026-04-18T17:32:31.782Z</time></trkpt><trkpt lat="42.1523317" lon="-7.97518"><ele>673.0</ele><time>2026-04-18T17:32:32.783Z</time></trkpt><trkpt lat="42.1525467" lon="-7.9748067"><ele>672.8333333333334</ele><time>2026-04-18T17:32:34.703Z</time></trkpt><trkpt lat="42.152635" lon="-7.9748117"><ele>672.6666666666667</ele><time>2026-04-18T17:32:35.783Z</time></trkpt><trkpt lat="42.1526983" lon="-7.974795"><ele>672.5</ele><time>2026-04-18T17:32:36.783Z</time></trkpt><trkpt lat="42.1528033" lon="-7.9748433"><ele>672.3333333333334</ele><time>2026-04-18T17:32:38.782Z</time></trkpt><trkpt lat="42.1528883" lon="-7.9748517"><ele>672.1666666666666</ele><time>2026-04-18T17:32:39.783Z</time></trkpt><trkpt lat="42.15297" lon="-7.9748417"><ele>672.0</ele><time>2026-04-18T17:32:40.782Z</time></trkpt><trkpt lat="42.153065" lon="-7.9748333"><ele>672.0</ele><time>2026-04-18T17:32:41.783Z</time></trkpt><trkpt lat="42.153145" lon="-7.974815"><ele>672.0</ele><time>2026-04-18T17:32:42.783Z</time></trkpt><trkpt lat="42.15324" lon="-7.974815"><ele>672.0</ele><time>2026-04-18T17:32:43.786Z</time></trkpt><trkpt lat="42.1533217" lon="-7.9748283"><ele>672.0</ele><time>2026-04-18T17:32:44.782Z</time></trkpt><trkpt lat="42.1534033" lon="-7.9748333"><ele>672.0</ele><time>2026-04-18T17:32:45.782Z</time></trkpt><trkpt lat="42.1534883" lon="-7.9748317"><ele>672.0</ele><time>2026-04-18T17:32:46.783Z</time></trkpt><trkpt lat="42.1535667" lon="-7.97483"><ele>671.8333333333334</ele><time>2026-04-18T17:32:47.784Z</time></trkpt><trkpt lat="42.1536417" lon="-7.97483"><ele>671.6666666666666</ele><time>2026-04-18T17:32:48.782Z</time></trkpt><trkpt lat="42.15372" lon="-7.9748167"><ele>671.5</ele><time>2026-04-18T17:32:49.783Z</time></trkpt><trkpt lat="42.1538017" lon="-7.9748067"><ele>671.3333333333333</ele><time>2026-04-18T17:32:50.784Z</time></trkpt><trkpt lat="42.15388" lon="-7.9747917"><ele>671.1666666666666</ele><time>2026-04-18T17:32:51.782Z</time></trkpt><trkpt lat="42.153955" lon="-7.9747617"><ele>671.0</ele><time>2026-04-18T17:32:52.783Z</time></trkpt><trkpt lat="42.154035" lon="-7.9747267"><ele>670.8333333333333</ele><time>2026-04-18T17:32:53.783Z</time></trkpt><trkpt lat="42.15412" lon="-7.9746883"><ele>670.6666666666666</ele><time>2026-04-18T17:32:54.786Z</time></trkpt><trkpt lat="42.1542083" lon="-7.974655"><ele>670.5</ele><time>2026-04-18T17:32:55.782Z</time></trkpt><trkpt lat="42.15429" lon="-7.9746367"><ele>670.3333333333334</ele><time>2026-04-18T17:32:56.784Z</time></trkpt><trkpt lat="42.1543683" lon="-7.9746133"><ele>670.1666666666667</ele><time>2026-04-18T17:32:57.782Z</time></trkpt><trkpt lat="42.1544467" lon="-7.9745967"><ele>670.0</ele><time>2026-04-18T17:32:58.783Z</time></trkpt><trkpt lat="42.1545317" lon="-7.974585"><ele>670.0</ele><time>2026-04-18T17:32:59.783Z</time></trkpt><trkpt lat="42.1546133" lon="-7.97458"><ele>670.0</ele><time>2026-04-18T17:33:00.785Z</time></trkpt><trkpt lat="42.15469" lon="-7.97458"><ele>670.0</ele><time>2026-04-18T17:33:01.782Z</time></trkpt></trkseg></trk></gpx>